<?xml version='1.0' encoding='UTF-8'?><gpx version="1.1" creator="JPX - https://github.com/jenetics/jpx" xmlns="http://www.topografix.com/GPX/1/1"><trk><trkseg><trkpt lat="44.950166" lon="8.0266578"><ele>242.49999999999997</ele><time>2026-04-25T13:27:17.086Z</time></trkpt><trkpt lat="44.9501978" lon="8.0265512"><ele>241.0</ele><time>2026-04-25T13:27:18.085Z</time></trkpt><trkpt lat="44.9502297" lon="8.0264681"><ele>239.5</ele><time>2026-04-25T13:27:19.085Z</time></trkpt><trkpt lat="44.9502589" lon="8.0263869"><ele>238.0</ele><time>2026-04-25T13:27:20.085Z</time></trkpt><trkpt lat="44.9503255" lon="8.0262438"><ele>236.49999999999997</ele><time>2026-04-25T13:27:22.086Z</time></trkpt><trkpt lat="44.9503593" lon="8.0261192"><ele>235.0</ele><time>2026-04-25T13:27:23.086Z</time></trkpt><trkpt lat="44.9503836" lon="8.0259875"><ele>235.0</ele><time>2026-04-25T13:27:24.086Z</time></trkpt><trkpt lat="44.9503792" lon="8.0258358"><ele>235.0</ele><time>2026-04-25T13:27:25.085Z</time></trkpt><trkpt lat="44.9503791" lon="8.0257024"><ele>235.0</ele><time>2026-04-25T13:27:26.086Z</time></trkpt><trkpt lat="44.9503677" lon="8.025572"><ele>235.0</ele><time>2026-04-25T13:27:27.086Z</time></trkpt><trkpt lat="44.9503617" lon="8.0254283"><ele>235.0</ele><time>2026-04-25T13:27:28.086Z</time></trkpt><trkpt lat="44.9503452" lon="8.0253019"><ele>234.16666666666666</ele><time>2026-04-25T13:27:29.086Z</time></trkpt><trkpt lat="44.9503373" lon="8.0251763"><ele>233.33333333333331</ele><time>2026-04-25T13:27:30.085Z</time></trkpt><trkpt lat="44.9503297" lon="8.025046"><ele>232.5</ele><time>2026-04-25T13:27:31.086Z</time></trkpt><trkpt lat="44.9503259" lon="8.0249186"><ele>231.66666666666669</ele><time>2026-04-25T13:27:32.086Z</time></trkpt><trkpt lat="44.9503078" lon="8.0247997"><ele>230.83333333333334</ele><time>2026-04-25T13:27:33.085Z</time></trkpt><trkpt lat="44.9502813" lon="8.0246832"><ele>230.0</ele><time>2026-04-25T13:27:34.086Z</time></trkpt><trkpt lat="44.9502592" lon="8.024566"><ele>229.16666666666669</ele><time>2026-04-25T13:27:35.086Z</time></trkpt><trkpt lat="44.9502572" lon="8.0244652"><ele>228.33333333333334</ele><time>2026-04-25T13:27:36.086Z</time></trkpt><trkpt lat="44.9502635" lon="8.0243351"><ele>227.5</ele><time>2026-04-25T13:27:37.086Z</time></trkpt><trkpt lat="44.9502595" lon="8.0242022"><ele>226.66666666666669</ele><time>2026-04-25T13:27:38.086Z</time></trkpt><trkpt lat="44.9502555" lon="8.0240845"><ele>225.83333333333334</ele><time>2026-04-25T13:27:39.086Z</time></trkpt><trkpt lat="44.9502238" lon="8.0239488"><ele>225.0</ele><time>2026-04-25T13:27:41.086Z</time></trkpt><trkpt lat="44.9501537" lon="8.0240036"><ele>225.0</ele><time>2026-04-25T13:27:45.086Z</time></trkpt><trkpt lat="44.950094" lon="8.0241333"><ele>225.0</ele><time>2026-04-25T13:27:47.086Z</time></trkpt><trkpt lat="44.9500501" lon="8.0242122"><ele>225.0</ele><time>2026-04-25T13:27:48.085Z</time></trkpt><trkpt lat="44.9499733" lon="8.0243192"><ele>225.0</ele><time>2026-04-25T13:27:49.085Z</time></trkpt><trkpt lat="44.9498993" lon="8.0243739"><ele>225.0</ele><time>2026-04-25T13:27:50.086Z</time></trkpt><trkpt lat="44.9498314" lon="8.0243676"><ele>225.0</ele><time>2026-04-25T13:27:51.086Z</time></trkpt><trkpt lat="44.9497609" lon="8.024304"><ele>222.16666666666666</ele><time>2026-04-25T13:27:52.085Z</time></trkpt><trkpt lat="44.9497122" lon="8.0242134"><ele>219.33333333333331</ele><time>2026-04-25T13:27:53.086Z</time></trkpt><trkpt lat="44.9496808" lon="8.024118"><ele>216.5</ele><time>2026-04-25T13:27:54.085Z</time></trkpt><trkpt lat="44.9497206" lon="8.023999"><ele>213.66666666666666</ele><time>2026-04-25T13:27:55.086Z</time></trkpt><trkpt lat="44.9497772" lon="8.0238935"><ele>210.83333333333331</ele><time>2026-04-25T13:27:56.085Z</time></trkpt><trkpt lat="44.9498454" lon="8.0237832"><ele>208.0</ele><time>2026-04-25T13:27:57.085Z</time></trkpt><trkpt lat="44.9499059" lon="8.0236612"><ele>206.25</ele><time>2026-04-25T13:27:58.085Z</time></trkpt><trkpt lat="44.9499622" lon="8.0235178"><ele>204.5</ele><time>2026-04-25T13:27:59.086Z</time></trkpt><trkpt lat="44.9500018" lon="8.023366"><ele>202.75</ele><time>2026-04-25T13:28:00.085Z</time></trkpt><trkpt lat="44.9500246" lon="8.0232005"><ele>201.0</ele><time>2026-04-25T13:28:01.086Z</time></trkpt><trkpt lat="44.9500281" lon="8.0230168"><ele>200.0</ele><time>2026-04-25T13:28:02.086Z</time></trkpt><trkpt lat="44.9500264" lon="8.022835"><ele>199.0</ele><time>2026-04-25T13:28:03.086Z</time></trkpt><trkpt lat="44.9500344" lon="8.0226704"><ele>198.0</ele><time>2026-04-25T13:28:04.086Z</time></trkpt><trkpt lat="44.9500382" lon="8.0225079"><ele>197.0</ele><time>2026-04-25T13:28:05.085Z</time></trkpt><trkpt lat="44.950031" lon="8.022336"><ele>195.5</ele><time>2026-04-25T13:28:06.085Z</time></trkpt><trkpt lat="44.9500261" lon="8.0221696"><ele>194.0</ele><time>2026-04-25T13:28:07.086Z</time></trkpt><trkpt lat="44.9500147" lon="8.0219896"><ele>192.5</ele><time>2026-04-25T13:28:08.085Z</time></trkpt><trkpt lat="44.9500042" lon="8.0218125"><ele>191.0</ele><time>2026-04-25T13:28:09.086Z</time></trkpt><trkpt lat="44.9499954" lon="8.0216399"><ele>188.75</ele><time>2026-04-25T13:28:10.085Z</time></trkpt><trkpt lat="44.949989" lon="8.0214617"><ele>186.5</ele><time>2026-04-25T13:28:11.086Z</time></trkpt><trkpt lat="44.9499932" lon="8.0213062"><ele>184.25</ele><time>2026-04-25T13:28:12.086Z</time></trkpt><trkpt lat="44.9499863" lon="8.0211497"><ele>182.0</ele><time>2026-04-25T13:28:13.085Z</time></trkpt><trkpt lat="44.9499835" lon="8.0209972"><ele>182.0</ele><time>2026-04-25T13:28:14.086Z</time></trkpt><trkpt lat="44.949976" lon="8.0208427"><ele>182.0</ele><time>2026-04-25T13:28:15.085Z</time></trkpt><trkpt lat="44.9499666" lon="8.0207073"><ele>182.0</ele><time>2026-04-25T13:28:16.086Z</time></trkpt><trkpt lat="44.9499657" lon="8.020583"><ele>182.0</ele><time>2026-04-25T13:28:17.086Z</time></trkpt><trkpt lat="44.949966" lon="8.0204675"><ele>182.0</ele><time>2026-04-25T13:28:18.086Z</time></trkpt><trkpt lat="44.9499672" lon="8.020335"><ele>181.33333333333331</ele><time>2026-04-25T13:28:19.085Z</time></trkpt><trkpt lat="44.9499613" lon="8.0202446"><ele>180.66666666666666</ele><time>2026-04-25T13:28:20.086Z</time></trkpt><trkpt lat="44.9499556" lon="8.0201067"><ele>180.0</ele><time>2026-04-25T13:28:22.086Z</time></trkpt><trkpt lat="44.9499539" lon="8.0199953"><ele>179.33333333333334</ele><time>2026-04-25T13:28:26.086Z</time></trkpt><trkpt lat="44.9498955" lon="8.019938"><ele>178.66666666666669</ele><time>2026-04-25T13:28:28.086Z</time></trkpt><trkpt lat="44.9498287" lon="8.0199181"><ele>178.0</ele><time>2026-04-25T13:28:29.086Z</time></trkpt><trkpt lat="44.9497507" lon="8.01991"><ele>177.0</ele><time>2026-04-25T13:28:30.086Z</time></trkpt><trkpt lat="44.9496506" lon="8.0199058"><ele>176.0</ele><time>2026-04-25T13:28:31.086Z</time></trkpt><trkpt lat="44.9495347" lon="8.0199019"><ele>175.0</ele><time>2026-04-25T13:28:32.086Z</time></trkpt><trkpt lat="44.9493974" lon="8.0198914"><ele>174.0</ele><time>2026-04-25T13:28:33.086Z</time></trkpt><trkpt lat="44.9492489" lon="8.0198833"><ele>173.33333333333334</ele><time>2026-04-25T13:28:34.085Z</time></trkpt><trkpt lat="44.9491013" lon="8.019873"><ele>172.66666666666669</ele><time>2026-04-25T13:28:35.086Z</time></trkpt><trkpt lat="44.9489513" lon="8.0198683"><ele>172.0</ele><time>2026-04-25T13:28:36.086Z</time></trkpt><trkpt lat="44.9487995" lon="8.0198613"><ele>172.0</ele><time>2026-04-25T13:28:37.085Z</time></trkpt><trkpt lat="44.9486625" lon="8.0198434"><ele>172.0</ele><time>2026-04-25T13:28:38.086Z</time></trkpt><trkpt lat="44.9485313" lon="8.0198342"><ele>172.0</ele><time>2026-04-25T13:28:39.085Z</time></trkpt><trkpt lat="44.9484004" lon="8.019827"><ele>172.0</ele><time>2026-04-25T13:28:40.085Z</time></trkpt><trkpt lat="44.9482643" lon="8.0198167"><ele>171.66666666666669</ele><time>2026-04-25T13:28:41.086Z</time></trkpt><trkpt lat="44.9481192" lon="8.0198077"><ele>171.33333333333334</ele><time>2026-04-25T13:28:42.086Z</time></trkpt><trkpt lat="44.9479684" lon="8.0197964"><ele>171.0</ele><time>2026-04-25T13:28:43.086Z</time></trkpt><trkpt lat="44.9478141" lon="8.0197784"><ele>171.0</ele><time>2026-04-25T13:28:44.086Z</time></trkpt><trkpt lat="44.9476623" lon="8.0197648"><ele>171.0</ele><time>2026-04-25T13:28:45.085Z</time></trkpt><trkpt lat="44.9475108" lon="8.019756"><ele>171.0</ele><time>2026-04-25T13:28:46.086Z</time></trkpt><trkpt lat="44.9473629" lon="8.0197448"><ele>170.33333333333334</ele><time>2026-04-25T13:28:47.086Z</time></trkpt><trkpt lat="44.9472141" lon="8.0197379"><ele>169.66666666666669</ele><time>2026-04-25T13:28:48.086Z</time></trkpt><trkpt lat="44.9470609" lon="8.0197307"><ele>169.0</ele><time>2026-04-25T13:28:49.086Z</time></trkpt><trkpt lat="44.9469055" lon="8.0197387"><ele>169.0</ele><time>2026-04-25T13:28:50.085Z</time></trkpt><trkpt lat="44.9467365" lon="8.019759"><ele>169.0</ele><time>2026-04-25T13:28:51.086Z</time></trkpt><trkpt lat="44.9465723" lon="8.0197689"><ele>169.0</ele><time>2026-04-25T13:28:52.085Z</time></trkpt><trkpt lat="44.9464061" lon="8.0197885"><ele>169.0</ele><time>2026-04-25T13:28:53.086Z</time></trkpt><trkpt lat="44.9462398" lon="8.0198104"><ele>169.0</ele><time>2026-04-25T13:28:54.085Z</time></trkpt><trkpt lat="44.9460626" lon="8.0198493"><ele>169.0</ele><time>2026-04-25T13:28:55.086Z</time></trkpt><trkpt lat="44.9458903" lon="8.019874"><ele>169.0</ele><time>2026-04-25T13:28:56.086Z</time></trkpt><trkpt lat="44.9457189" lon="8.0199023"><ele>169.0</ele><time>2026-04-25T13:28:57.086Z</time></trkpt><trkpt lat="44.9455508" lon="8.0199212"><ele>169.0</ele><time>2026-04-25T13:28:58.086Z</time></trkpt><trkpt lat="44.9453791" lon="8.0199462"><ele>169.0</ele><time>2026-04-25T13:28:59.086Z</time></trkpt><trkpt lat="44.9452017" lon="8.0199699"><ele>169.0</ele><time>2026-04-25T13:29:00.086Z</time></trkpt><trkpt lat="44.9450284" lon="8.0199885"><ele>169.0</ele><time>2026-04-25T13:29:01.086Z</time></trkpt><trkpt lat="44.9448585" lon="8.0200026"><ele>170.66666666666669</ele><time>2026-04-25T13:29:02.086Z</time></trkpt><trkpt lat="44.9446831" lon="8.0200192"><ele>172.33333333333334</ele><time>2026-04-25T13:29:03.085Z</time></trkpt><trkpt lat="44.944512" lon="8.020041"><ele>174.0</ele><time>2026-04-25T13:29:04.085Z</time></trkpt><trkpt lat="44.9443361" lon="8.0200668"><ele>175.33333333333334</ele><time>2026-04-25T13:29:05.086Z</time></trkpt><trkpt lat="44.9441615" lon="8.0200941"><ele>176.66666666666669</ele><time>2026-04-25T13:29:06.086Z</time></trkpt><trkpt lat="44.9439831" lon="8.0201261"><ele>178.0</ele><time>2026-04-25T13:29:07.085Z</time></trkpt><trkpt lat="44.9438056" lon="8.0201804"><ele>178.0</ele><time>2026-04-25T13:29:08.086Z</time></trkpt><trkpt lat="44.9436268" lon="8.020256"><ele>178.0</ele><time>2026-04-25T13:29:09.085Z</time></trkpt><trkpt lat="44.9434525" lon="8.0203386"><ele>178.0</ele><time>2026-04-25T13:29:10.086Z</time></trkpt><trkpt lat="44.9432744" lon="8.0204253"><ele>176.0</ele><time>2026-04-25T13:29:11.086Z</time></trkpt><trkpt lat="44.9430972" lon="8.0205046"><ele>174.0</ele><time>2026-04-25T13:29:12.086Z</time></trkpt><trkpt lat="44.9429243" lon="8.0205853"><ele>172.0</ele><time>2026-04-25T13:29:13.086Z</time></trkpt><trkpt lat="44.9427394" lon="8.0206828"><ele>172.0</ele><time>2026-04-25T13:29:14.086Z</time></trkpt><trkpt lat="44.9425628" lon="8.0207684"><ele>172.0</ele><time>2026-04-25T13:29:15.086Z</time></trkpt><trkpt lat="44.942382" lon="8.020862"><ele>172.0</ele><time>2026-04-25T13:29:16.086Z</time></trkpt><trkpt lat="44.9421988" lon="8.0209548"><ele>171.33333333333334</ele><time>2026-04-25T13:29:17.086Z</time></trkpt><trkpt lat="44.9420124" lon="8.0210431"><ele>170.66666666666666</ele><time>2026-04-25T13:29:18.085Z</time></trkpt><trkpt lat="44.9418269" lon="8.0211357"><ele>170.0</ele><time>2026-04-25T13:29:19.085Z</time></trkpt><trkpt lat="44.9416345" lon="8.0212341"><ele>170.0</ele><time>2026-04-25T13:29:20.085Z</time></trkpt><trkpt lat="44.9414494" lon="8.0213254"><ele>170.0</ele><time>2026-04-25T13:29:21.086Z</time></trkpt><trkpt lat="44.9412618" lon="8.0214129"><ele>170.0</ele><time>2026-04-25T13:29:22.086Z</time></trkpt><trkpt lat="44.9410726" lon="8.0215018"><ele>170.33333333333331</ele><time>2026-04-25T13:29:23.086Z</time></trkpt><trkpt lat="44.9408796" lon="8.0215996"><ele>170.66666666666666</ele><time>2026-04-25T13:29:24.085Z</time></trkpt><trkpt lat="44.940691" lon="8.0216972"><ele>171.0</ele><time>2026-04-25T13:29:25.086Z</time></trkpt><trkpt lat="44.940496" lon="8.0217999"><ele>171.0</ele><time>2026-04-25T13:29:26.086Z</time></trkpt><trkpt lat="44.9403046" lon="8.0219029"><ele>171.0</ele><time>2026-04-25T13:29:27.085Z</time></trkpt><trkpt lat="44.940116" lon="8.0220031"><ele>171.0</ele><time>2026-04-25T13:29:28.086Z</time></trkpt><trkpt lat="44.9399246" lon="8.022104"><ele>169.66666666666666</ele><time>2026-04-25T13:29:29.085Z</time></trkpt><trkpt lat="44.9397338" lon="8.0222074"><ele>168.33333333333331</ele><time>2026-04-25T13:29:30.085Z</time></trkpt><trkpt lat="44.9395436" lon="8.022301"><ele>167.0</ele><time>2026-04-25T13:29:31.085Z</time></trkpt><trkpt lat="44.9393469" lon="8.022389"><ele>167.0</ele><time>2026-04-25T13:29:32.086Z</time></trkpt><trkpt lat="44.9391491" lon="8.022478"><ele>167.0</ele><time>2026-04-25T13:29:33.086Z</time></trkpt><trkpt lat="44.9389512" lon="8.0225727"><ele>167.0</ele><time>2026-04-25T13:29:34.086Z</time></trkpt><trkpt lat="44.938752" lon="8.0226765"><ele>167.33333333333331</ele><time>2026-04-25T13:29:35.085Z</time></trkpt><trkpt lat="44.9385531" lon="8.0227779"><ele>167.66666666666666</ele><time>2026-04-25T13:29:36.086Z</time></trkpt><trkpt lat="44.9383551" lon="8.0228769"><ele>168.0</ele><time>2026-04-25T13:29:37.085Z</time></trkpt><trkpt lat="44.9381645" lon="8.0229723"><ele>168.0</ele><time>2026-04-25T13:29:38.085Z</time></trkpt><trkpt lat="44.9379725" lon="8.0230642"><ele>168.0</ele><time>2026-04-25T13:29:39.086Z</time></trkpt><trkpt lat="44.9377762" lon="8.0231586"><ele>168.0</ele><time>2026-04-25T13:29:40.086Z</time></trkpt><trkpt lat="44.9375736" lon="8.0232585"><ele>167.33333333333334</ele><time>2026-04-25T13:29:41.085Z</time></trkpt><trkpt lat="44.9373677" lon="8.0233622"><ele>166.66666666666669</ele><time>2026-04-25T13:29:42.085Z</time></trkpt><trkpt lat="44.937166" lon="8.0234622"><ele>166.0</ele><time>2026-04-25T13:29:43.085Z</time></trkpt><trkpt lat="44.9369581" lon="8.0235685"><ele>166.0</ele><time>2026-04-25T13:29:44.086Z</time></trkpt><trkpt lat="44.9367495" lon="8.02367"><ele>166.0</ele><time>2026-04-25T13:29:45.086Z</time></trkpt><trkpt lat="44.9365432" lon="8.0237709"><ele>166.0</ele><time>2026-04-25T13:29:46.086Z</time></trkpt><trkpt lat="44.9363377" lon="8.0238659"><ele>166.66666666666669</ele><time>2026-04-25T13:29:47.085Z</time></trkpt><trkpt lat="44.9361304" lon="8.0239647"><ele>167.33333333333334</ele><time>2026-04-25T13:29:48.086Z</time></trkpt><trkpt lat="44.935923" lon="8.0240676"><ele>168.0</ele><time>2026-04-25T13:29:49.086Z</time></trkpt><trkpt lat="44.9357206" lon="8.0241769"><ele>168.0</ele><time>2026-04-25T13:29:50.085Z</time></trkpt><trkpt lat="44.9355175" lon="8.024304"><ele>168.0</ele><time>2026-04-25T13:29:51.086Z</time></trkpt><trkpt lat="44.935325" lon="8.0244314"><ele>168.0</ele><time>2026-04-25T13:29:52.086Z</time></trkpt><trkpt lat="44.9351315" lon="8.0245702"><ele>168.33333333333334</ele><time>2026-04-25T13:29:53.086Z</time></trkpt><trkpt lat="44.93494" lon="8.0247073"><ele>168.66666666666669</ele><time>2026-04-25T13:29:54.086Z</time></trkpt><trkpt lat="44.9347494" lon="8.0248467"><ele>169.0</ele><time>2026-04-25T13:29:55.086Z</time></trkpt><trkpt lat="44.9345642" lon="8.0249826"><ele>169.66666666666669</ele><time>2026-04-25T13:29:56.086Z</time></trkpt><trkpt lat="44.9343693" lon="8.0251181"><ele>170.33333333333334</ele><time>2026-04-25T13:29:57.085Z</time></trkpt><trkpt lat="44.9341901" lon="8.0252414"><ele>171.0</ele><time>2026-04-25T13:29:58.086Z</time></trkpt><trkpt lat="44.9340022" lon="8.0253779"><ele>171.0</ele><time>2026-04-25T13:29:59.085Z</time></trkpt><trkpt lat="44.9338175" lon="8.0255089"><ele>171.0</ele><time>2026-04-25T13:30:00.085Z</time></trkpt><trkpt lat="44.9336342" lon="8.0256476"><ele>171.0</ele><time>2026-04-25T13:30:01.086Z</time></trkpt><trkpt lat="44.9334315" lon="8.0257826"><ele>170.0</ele><time>2026-04-25T13:30:02.086Z</time></trkpt><trkpt lat="44.933239" lon="8.0259154"><ele>169.0</ele><time>2026-04-25T13:30:03.086Z</time></trkpt><trkpt lat="44.9330505" lon="8.0260348"><ele>168.0</ele><time>2026-04-25T13:30:04.086Z</time></trkpt><trkpt lat="44.9328651" lon="8.0261748"><ele>168.0</ele><time>2026-04-25T13:30:05.086Z</time></trkpt><trkpt lat="44.932667" lon="8.0263247"><ele>168.0</ele><time>2026-04-25T13:30:06.086Z</time></trkpt><trkpt lat="44.9324786" lon="8.0264555"><ele>168.0</ele><time>2026-04-25T13:30:07.085Z</time></trkpt><trkpt lat="44.9322878" lon="8.026594"><ele>167.66666666666666</ele><time>2026-04-25T13:30:08.086Z</time></trkpt><trkpt lat="44.9320829" lon="8.0267328"><ele>167.33333333333331</ele><time>2026-04-25T13:30:09.086Z</time></trkpt><trkpt lat="44.9318848" lon="8.0268644"><ele>167.0</ele><time>2026-04-25T13:30:10.086Z</time></trkpt><trkpt lat="44.9316913" lon="8.0269944"><ele>165.5</ele><time>2026-04-25T13:30:11.086Z</time></trkpt><trkpt lat="44.9314827" lon="8.0271393"><ele>164.0</ele><time>2026-04-25T13:30:12.086Z</time></trkpt><trkpt lat="44.9312842" lon="8.0272877"><ele>164.0</ele><time>2026-04-25T13:30:13.086Z</time></trkpt><trkpt lat="44.931082" lon="8.0274391"><ele>164.0</ele><time>2026-04-25T13:30:14.086Z</time></trkpt><trkpt lat="44.9308716" lon="8.0275922"><ele>163.5</ele><time>2026-04-25T13:30:15.086Z</time></trkpt><trkpt lat="44.9306617" lon="8.0277311"><ele>163.0</ele><time>2026-04-25T13:30:16.086Z</time></trkpt><trkpt lat="44.9304573" lon="8.0278837"><ele>163.0</ele><time>2026-04-25T13:30:17.086Z</time></trkpt><trkpt lat="44.9302564" lon="8.0280557"><ele>163.0</ele><time>2026-04-25T13:30:18.086Z</time></trkpt><trkpt lat="44.9300678" lon="8.0282354"><ele>161.5</ele><time>2026-04-25T13:30:19.086Z</time></trkpt><trkpt lat="44.9298718" lon="8.0284512"><ele>160.0</ele><time>2026-04-25T13:30:20.086Z</time></trkpt><trkpt lat="44.9297008" lon="8.0286595"><ele>160.0</ele><time>2026-04-25T13:30:21.085Z</time></trkpt><trkpt lat="44.9295279" lon="8.0288796"><ele>160.0</ele><time>2026-04-25T13:30:22.086Z</time></trkpt><trkpt lat="44.9293599" lon="8.0290962"><ele>159.0</ele><time>2026-04-25T13:30:23.086Z</time></trkpt><trkpt lat="44.9291862" lon="8.0293072"><ele>158.0</ele><time>2026-04-25T13:30:24.086Z</time></trkpt><trkpt lat="44.9290026" lon="8.0295242"><ele>158.0</ele><time>2026-04-25T13:30:25.086Z</time></trkpt><trkpt lat="44.9288247" lon="8.0297305"><ele>158.0</ele><time>2026-04-25T13:30:26.085Z</time></trkpt><trkpt lat="44.9286551" lon="8.0299386"><ele>158.5</ele><time>2026-04-25T13:30:27.085Z</time></trkpt><trkpt lat="44.9284785" lon="8.0301403"><ele>159.0</ele><time>2026-04-25T13:30:28.086Z</time></trkpt><trkpt lat="44.9283021" lon="8.0303352"><ele>159.33333333333334</ele><time>2026-04-25T13:30:29.086Z</time></trkpt><trkpt lat="44.9281272" lon="8.0305298"><ele>159.66666666666669</ele><time>2026-04-25T13:30:30.086Z</time></trkpt><trkpt lat="44.9279457" lon="8.030712"><ele>160.0</ele><time>2026-04-25T13:30:31.086Z</time></trkpt><trkpt lat="44.9277679" lon="8.0308893"><ele>160.33333333333334</ele><time>2026-04-25T13:30:32.086Z</time></trkpt><trkpt lat="44.9275913" lon="8.0310647"><ele>160.66666666666666</ele><time>2026-04-25T13:30:33.085Z</time></trkpt><trkpt lat="44.9274113" lon="8.0312489"><ele>161.0</ele><time>2026-04-25T13:30:34.086Z</time></trkpt><trkpt lat="44.9272315" lon="8.0314285"><ele>161.0</ele><time>2026-04-25T13:30:35.085Z</time></trkpt><trkpt lat="44.9270587" lon="8.0316126"><ele>161.0</ele><time>2026-04-25T13:30:36.086Z</time></trkpt><trkpt lat="44.9268865" lon="8.0317933"><ele>161.0</ele><time>2026-04-25T13:30:37.085Z</time></trkpt><trkpt lat="44.9266953" lon="8.031966"><ele>161.66666666666666</ele><time>2026-04-25T13:30:38.086Z</time></trkpt><trkpt lat="44.9265094" lon="8.0321226"><ele>162.33333333333334</ele><time>2026-04-25T13:30:39.086Z</time></trkpt><trkpt lat="44.9263151" lon="8.0322576"><ele>163.0</ele><time>2026-04-25T13:30:40.086Z</time></trkpt><trkpt lat="44.92612" lon="8.0323695"><ele>164.66666666666669</ele><time>2026-04-25T13:30:41.086Z</time></trkpt><trkpt lat="44.9259197" lon="8.0324754"><ele>166.33333333333334</ele><time>2026-04-25T13:30:42.086Z</time></trkpt><trkpt lat="44.9257206" lon="8.0325815"><ele>168.0</ele><time>2026-04-25T13:30:43.086Z</time></trkpt><trkpt lat="44.9255225" lon="8.0326835"><ele>168.0</ele><time>2026-04-25T13:30:44.086Z</time></trkpt><trkpt lat="44.9253177" lon="8.0327808"><ele>168.0</ele><time>2026-04-25T13:30:45.086Z</time></trkpt><trkpt lat="44.9251063" lon="8.0328793"><ele>168.0</ele><time>2026-04-25T13:30:46.086Z</time></trkpt><trkpt lat="44.9249036" lon="8.0329707"><ele>166.33333333333334</ele><time>2026-04-25T13:30:47.085Z</time></trkpt><trkpt lat="44.9246994" lon="8.0330707"><ele>164.66666666666669</ele><time>2026-04-25T13:30:48.086Z</time></trkpt><trkpt lat="44.9244933" lon="8.03317"><ele>163.0</ele><time>2026-04-25T13:30:49.086Z</time></trkpt><trkpt lat="44.9243011" lon="8.0332612"><ele>162.66666666666669</ele><time>2026-04-25T13:30:50.085Z</time></trkpt><trkpt lat="44.924114" lon="8.0333591"><ele>162.33333333333334</ele><time>2026-04-25T13:30:51.085Z</time></trkpt><trkpt lat="44.9239347" lon="8.0334576"><ele>162.0</ele><time>2026-04-25T13:30:52.085Z</time></trkpt><trkpt lat="44.9237612" lon="8.0335867"><ele>162.0</ele><time>2026-04-25T13:30:53.086Z</time></trkpt><trkpt lat="44.9236013" lon="8.0337417"><ele>162.0</ele><time>2026-04-25T13:30:54.086Z</time></trkpt><trkpt lat="44.9234414" lon="8.0339266"><ele>162.0</ele><time>2026-04-25T13:30:55.086Z</time></trkpt><trkpt lat="44.923298" lon="8.0341187"><ele>161.33333333333334</ele><time>2026-04-25T13:30:56.086Z</time></trkpt><trkpt lat="44.9231449" lon="8.0343313"><ele>160.66666666666669</ele><time>2026-04-25T13:30:57.086Z</time></trkpt><trkpt lat="44.9229979" lon="8.0345349"><ele>160.0</ele><time>2026-04-25T13:30:58.085Z</time></trkpt><trkpt lat="44.9228453" lon="8.0347312"><ele>160.0</ele><time>2026-04-25T13:30:59.085Z</time></trkpt><trkpt lat="44.9226881" lon="8.0349305"><ele>160.0</ele><time>2026-04-25T13:31:00.085Z</time></trkpt><trkpt lat="44.9225373" lon="8.0351413"><ele>160.0</ele><time>2026-04-25T13:31:01.086Z</time></trkpt><trkpt lat="44.9223751" lon="8.035352"><ele>161.33333333333334</ele><time>2026-04-25T13:31:02.085Z</time></trkpt><trkpt lat="44.9222161" lon="8.0355564"><ele>162.66666666666666</ele><time>2026-04-25T13:31:03.086Z</time></trkpt><trkpt lat="44.9220561" lon="8.0357636"><ele>164.0</ele><time>2026-04-25T13:31:04.086Z</time></trkpt><trkpt lat="44.9219018" lon="8.0359718"><ele>164.66666666666666</ele><time>2026-04-25T13:31:05.086Z</time></trkpt><trkpt lat="44.9217449" lon="8.03618"><ele>165.33333333333334</ele><time>2026-04-25T13:31:06.085Z</time></trkpt><trkpt lat="44.9215988" lon="8.0363763"><ele>166.0</ele><time>2026-04-25T13:31:07.085Z</time></trkpt><trkpt lat="44.9214605" lon="8.0365574"><ele>164.33333333333334</ele><time>2026-04-25T13:31:08.085Z</time></trkpt><trkpt lat="44.9213267" lon="8.036721"><ele>162.66666666666666</ele><time>2026-04-25T13:31:09.086Z</time></trkpt><trkpt lat="44.9211802" lon="8.0368551"><ele>161.0</ele><time>2026-04-25T13:31:10.085Z</time></trkpt><trkpt lat="44.921027" lon="8.0369379"><ele>159.66666666666666</ele><time>2026-04-25T13:31:11.086Z</time></trkpt><trkpt lat="44.9208646" lon="8.0369696"><ele>158.33333333333334</ele><time>2026-04-25T13:31:12.086Z</time></trkpt><trkpt lat="44.9206844" lon="8.0369579"><ele>157.0</ele><time>2026-04-25T13:31:13.085Z</time></trkpt><trkpt lat="44.9204916" lon="8.0369273"><ele>157.0</ele><time>2026-04-25T13:31:14.086Z</time></trkpt><trkpt lat="44.9202745" lon="8.0368724"><ele>157.0</ele><time>2026-04-25T13:31:15.085Z</time></trkpt><trkpt lat="44.9200612" lon="8.0368203"><ele>157.0</ele><time>2026-04-25T13:31:16.086Z</time></trkpt><trkpt lat="44.9198449" lon="8.0367688"><ele>156.66666666666669</ele><time>2026-04-25T13:31:17.085Z</time></trkpt><trkpt lat="44.9196271" lon="8.0367085"><ele>156.33333333333334</ele><time>2026-04-25T13:31:18.086Z</time></trkpt><trkpt lat="44.9194058" lon="8.0366494"><ele>156.0</ele><time>2026-04-25T13:31:19.086Z</time></trkpt><trkpt lat="44.919187" lon="8.0365943"><ele>156.0</ele><time>2026-04-25T13:31:20.086Z</time></trkpt><trkpt lat="44.9189708" lon="8.0365366"><ele>156.0</ele><time>2026-04-25T13:31:21.086Z</time></trkpt><trkpt lat="44.9187565" lon="8.0364603"><ele>156.0</ele><time>2026-04-25T13:31:22.086Z</time></trkpt><trkpt lat="44.9185388" lon="8.0363987"><ele>156.0</ele><time>2026-04-25T13:31:23.086Z</time></trkpt><trkpt lat="44.9183346" lon="8.0363234"><ele>156.0</ele><time>2026-04-25T13:31:24.085Z</time></trkpt><trkpt lat="44.9181245" lon="8.0362513"><ele>156.0</ele><time>2026-04-25T13:31:25.086Z</time></trkpt><trkpt lat="44.9179184" lon="8.0361818"><ele>156.0</ele><time>2026-04-25T13:31:26.085Z</time></trkpt><trkpt lat="44.9177112" lon="8.0361108"><ele>156.0</ele><time>2026-04-25T13:31:27.086Z</time></trkpt><trkpt lat="44.9175022" lon="8.0360341"><ele>156.0</ele><time>2026-04-25T13:31:28.085Z</time></trkpt><trkpt lat="44.9173057" lon="8.0359749"><ele>155.66666666666666</ele><time>2026-04-25T13:31:29.086Z</time></trkpt><trkpt lat="44.9171267" lon="8.0359002"><ele>155.33333333333331</ele><time>2026-04-25T13:31:30.086Z</time></trkpt><trkpt lat="44.9169453" lon="8.0358469"><ele>155.0</ele><time>2026-04-25T13:31:31.086Z</time></trkpt><trkpt lat="44.9167626" lon="8.035786"><ele>155.66666666666666</ele><time>2026-04-25T13:31:32.086Z</time></trkpt><trkpt lat="44.9165883" lon="8.0357242"><ele>156.33333333333334</ele><time>2026-04-25T13:31:33.086Z</time></trkpt><trkpt lat="44.9164239" lon="8.0356586"><ele>157.0</ele><time>2026-04-25T13:31:34.085Z</time></trkpt><trkpt lat="44.916271" lon="8.0355803"><ele>157.0</ele><time>2026-04-25T13:31:35.085Z</time></trkpt><trkpt lat="44.9161215" lon="8.0354818"><ele>157.0</ele><time>2026-04-25T13:31:36.086Z</time></trkpt><trkpt lat="44.9159965" lon="8.0353883"><ele>157.0</ele><time>2026-04-25T13:31:37.086Z</time></trkpt><trkpt lat="44.9158722" lon="8.0352745"><ele>158.0</ele><time>2026-04-25T13:31:38.086Z</time></trkpt><trkpt lat="44.9157611" lon="8.0351757"><ele>159.0</ele><time>2026-04-25T13:31:39.086Z</time></trkpt><trkpt lat="44.9156681" lon="8.0350774"><ele>160.0</ele><time>2026-04-25T13:31:40.086Z</time></trkpt><trkpt lat="44.9155994" lon="8.0349661"><ele>161.0</ele><time>2026-04-25T13:31:41.086Z</time></trkpt><trkpt lat="44.9155575" lon="8.0348312"><ele>161.0</ele><time>2026-04-25T13:31:42.085Z</time></trkpt><trkpt lat="44.9155386" lon="8.0346919"><ele>161.0</ele><time>2026-04-25T13:31:43.086Z</time></trkpt><trkpt lat="44.9155541" lon="8.0345489"><ele>161.0</ele><time>2026-04-25T13:31:44.086Z</time></trkpt><trkpt lat="44.9156079" lon="8.0343937"><ele>161.0</ele><time>2026-04-25T13:31:45.086Z</time></trkpt><trkpt lat="44.9156765" lon="8.0342312"><ele>161.25</ele><time>2026-04-25T13:31:46.086Z</time></trkpt><trkpt lat="44.9157491" lon="8.0340593"><ele>161.5</ele><time>2026-04-25T13:31:47.085Z</time></trkpt><trkpt lat="44.9158337" lon="8.0338716"><ele>161.75</ele><time>2026-04-25T13:31:48.085Z</time></trkpt><trkpt lat="44.9159125" lon="8.0337091"><ele>162.0</ele><time>2026-04-25T13:31:49.086Z</time></trkpt><trkpt lat="44.9160015" lon="8.0335699"><ele>162.0</ele><time>2026-04-25T13:31:50.085Z</time></trkpt><trkpt lat="44.916109" lon="8.0334653"><ele>162.0</ele><time>2026-04-25T13:31:51.085Z</time></trkpt><trkpt lat="44.916229" lon="8.0333744"><ele>162.0</ele><time>2026-04-25T13:31:52.085Z</time></trkpt><trkpt lat="44.9163296" lon="8.0333002"><ele>162.0</ele><time>2026-04-25T13:31:53.086Z</time></trkpt><trkpt lat="44.9164199" lon="8.033222"><ele>162.16666666666666</ele><time>2026-04-25T13:31:54.086Z</time></trkpt><trkpt lat="44.9165023" lon="8.0331162"><ele>162.33333333333334</ele><time>2026-04-25T13:31:55.086Z</time></trkpt><trkpt lat="44.9165387" lon="8.0330211"><ele>162.5</ele><time>2026-04-25T13:31:56.086Z</time></trkpt><trkpt lat="44.9165557" lon="8.0329221"><ele>162.66666666666669</ele><time>2026-04-25T13:31:57.086Z</time></trkpt><trkpt lat="44.9165479" lon="8.0327969"><ele>162.83333333333334</ele><time>2026-04-25T13:31:58.086Z</time></trkpt><trkpt lat="44.9165148" lon="8.0326782"><ele>163.0</ele><time>2026-04-25T13:31:59.086Z</time></trkpt><trkpt lat="44.9164617" lon="8.0325799"><ele>163.0</ele><time>2026-04-25T13:32:00.085Z</time></trkpt><trkpt lat="44.9164049" lon="8.0324889"><ele>163.0</ele><time>2026-04-25T13:32:01.085Z</time></trkpt><trkpt lat="44.916364" lon="8.0323907"><ele>163.0</ele><time>2026-04-25T13:32:02.086Z</time></trkpt><trkpt lat="44.9163452" lon="8.0322685"><ele>163.0</ele><time>2026-04-25T13:32:03.085Z</time></trkpt><trkpt lat="44.9163109" lon="8.032169"><ele>163.0</ele><time>2026-04-25T13:32:04.085Z</time></trkpt><trkpt lat="44.916261" lon="8.0320859"><ele>163.0</ele><time>2026-04-25T13:32:05.086Z</time></trkpt><trkpt lat="44.9161932" lon="8.0320371"><ele>163.0</ele><time>2026-04-25T13:32:06.086Z</time></trkpt><trkpt lat="44.9161199" lon="8.0320009"><ele>163.0</ele><time>2026-04-25T13:32:07.085Z</time></trkpt><trkpt lat="44.9160541" lon="8.032066"><ele>163.0</ele><time>2026-04-25T13:32:08.086Z</time></trkpt><trkpt lat="44.9160013" lon="8.0321706"><ele>163.0</ele><time>2026-04-25T13:32:09.086Z</time></trkpt><trkpt lat="44.9159777" lon="8.0322623"><ele>163.0</ele><time>2026-04-25T13:32:10.086Z</time></trkpt><trkpt lat="44.9159651" lon="8.0324003"><ele>163.0</ele><time>2026-04-25T13:32:11.085Z</time></trkpt><trkpt lat="44.9159418" lon="8.0325497"><ele>163.25</ele><time>2026-04-25T13:32:12.086Z</time></trkpt><trkpt lat="44.9158965" lon="8.0327132"><ele>163.5</ele><time>2026-04-25T13:32:13.086Z</time></trkpt><trkpt lat="44.9158334" lon="8.0328668"><ele>163.75</ele><time>2026-04-25T13:32:14.085Z</time></trkpt><trkpt lat="44.9157508" lon="8.0330293"><ele>164.0</ele><time>2026-04-25T13:32:15.086Z</time></trkpt><trkpt lat="44.915666" lon="8.033203"><ele>163.66666666666666</ele><time>2026-04-25T13:32:16.085Z</time></trkpt><trkpt lat="44.9155794" lon="8.0333851"><ele>163.33333333333334</ele><time>2026-04-25T13:32:17.085Z</time></trkpt><trkpt lat="44.9154889" lon="8.0335729"><ele>163.0</ele><time>2026-04-25T13:32:18.086Z</time></trkpt><trkpt lat="44.9154108" lon="8.0337678"><ele>163.0</ele><time>2026-04-25T13:32:19.086Z</time></trkpt><trkpt lat="44.9153315" lon="8.0339538"><ele>163.0</ele><time>2026-04-25T13:32:20.085Z</time></trkpt><trkpt lat="44.9152472" lon="8.0341218"><ele>163.0</ele><time>2026-04-25T13:32:21.086Z</time></trkpt><trkpt lat="44.9151721" lon="8.0342828"><ele>163.0</ele><time>2026-04-25T13:32:22.086Z</time></trkpt><trkpt lat="44.9150944" lon="8.0344372"><ele>163.0</ele><time>2026-04-25T13:32:23.086Z</time></trkpt><trkpt lat="44.9150192" lon="8.0345859"><ele>163.0</ele><time>2026-04-25T13:32:24.085Z</time></trkpt><trkpt lat="44.9149555" lon="8.0347264"><ele>163.0</ele><time>2026-04-25T13:32:25.086Z</time></trkpt><trkpt lat="44.9148829" lon="8.0348598"><ele>163.0</ele><time>2026-04-25T13:32:26.086Z</time></trkpt><trkpt lat="44.9148144" lon="8.0350005"><ele>162.8</ele><time>2026-04-25T13:32:27.086Z</time></trkpt><trkpt lat="44.9147392" lon="8.0351239"><ele>162.60000000000002</ele><time>2026-04-25T13:32:28.086Z</time></trkpt><trkpt lat="44.9146814" lon="8.0352298"><ele>162.39999999999998</ele><time>2026-04-25T13:32:29.086Z</time></trkpt><trkpt lat="44.914618" lon="8.0353214"><ele>162.2</ele><time>2026-04-25T13:32:30.086Z</time></trkpt><trkpt lat="44.9145479" lon="8.035379"><ele>162.0</ele><time>2026-04-25T13:32:31.086Z</time></trkpt><trkpt lat="44.9144596" lon="8.0353979"><ele>162.0</ele><time>2026-04-25T13:32:32.085Z</time></trkpt><trkpt lat="44.9143734" lon="8.0353989"><ele>162.0</ele><time>2026-04-25T13:32:33.086Z</time></trkpt><trkpt lat="44.9142769" lon="8.0353921"><ele>162.0</ele><time>2026-04-25T13:32:34.085Z</time></trkpt><trkpt lat="44.9141858" lon="8.0354036"><ele>162.0</ele><time>2026-04-25T13:32:35.086Z</time></trkpt><trkpt lat="44.9141115" lon="8.0354975"><ele>162.0</ele><time>2026-04-25T13:32:36.086Z</time></trkpt><trkpt lat="44.9140591" lon="8.0356178"><ele>162.2</ele><time>2026-04-25T13:32:37.086Z</time></trkpt><trkpt lat="44.9140207" lon="8.0357631"><ele>162.39999999999998</ele><time>2026-04-25T13:32:38.085Z</time></trkpt><trkpt lat="44.9139889" lon="8.0359136"><ele>162.60000000000002</ele><time>2026-04-25T13:32:39.086Z</time></trkpt><trkpt lat="44.9139445" lon="8.0360364"><ele>162.8</ele><time>2026-04-25T13:32:40.086Z</time></trkpt><trkpt lat="44.9138879" lon="8.0361362"><ele>163.0</ele><time>2026-04-25T13:32:41.086Z</time></trkpt><trkpt lat="44.9138134" lon="8.0362061"><ele>163.0</ele><time>2026-04-25T13:32:42.086Z</time></trkpt><trkpt lat="44.9137276" lon="8.0362154"><ele>163.0</ele><time>2026-04-25T13:32:43.086Z</time></trkpt><trkpt lat="44.9136312" lon="8.036191"><ele>163.0</ele><time>2026-04-25T13:32:44.086Z</time></trkpt><trkpt lat="44.9135393" lon="8.0361086"><ele>163.0</ele><time>2026-04-25T13:32:45.086Z</time></trkpt><trkpt lat="44.9134397" lon="8.0360113"><ele>163.0</ele><time>2026-04-25T13:32:46.086Z</time></trkpt><trkpt lat="44.9133627" lon="8.0358949"><ele>165.2</ele><time>2026-04-25T13:32:47.086Z</time></trkpt><trkpt lat="44.9132915" lon="8.0357726"><ele>167.4</ele><time>2026-04-25T13:32:48.085Z</time></trkpt><trkpt lat="44.9132485" lon="8.0356556"><ele>169.6</ele><time>2026-04-25T13:32:49.086Z</time></trkpt><trkpt lat="44.9132265" lon="8.0355304"><ele>171.79999999999998</ele><time>2026-04-25T13:32:50.086Z</time></trkpt><trkpt lat="44.9131924" lon="8.0354208"><ele>174.0</ele><time>2026-04-25T13:32:51.086Z</time></trkpt><trkpt lat="44.9131408" lon="8.035336"><ele>174.0</ele><time>2026-04-25T13:32:52.085Z</time></trkpt><trkpt lat="44.9130703" lon="8.0352732"><ele>174.0</ele><time>2026-04-25T13:32:53.085Z</time></trkpt><trkpt lat="44.9130037" lon="8.0352343"><ele>174.0</ele><time>2026-04-25T13:32:54.086Z</time></trkpt><trkpt lat="44.9129259" lon="8.0351956"><ele>174.0</ele><time>2026-04-25T13:32:55.085Z</time></trkpt><trkpt lat="44.9128197" lon="8.0351524"><ele>174.0</ele><time>2026-04-25T13:32:56.085Z</time></trkpt><trkpt lat="44.9127169" lon="8.0351044"><ele>174.0</ele><time>2026-04-25T13:32:57.086Z</time></trkpt><trkpt lat="44.9126276" lon="8.0350391"><ele>174.0</ele><time>2026-04-25T13:32:58.086Z</time></trkpt><trkpt lat="44.9125314" lon="8.0349811"><ele>174.0</ele><time>2026-04-25T13:32:59.086Z</time></trkpt><trkpt lat="44.91241" lon="8.0349116"><ele>174.0</ele><time>2026-04-25T13:33:00.086Z</time></trkpt><trkpt lat="44.9123344" lon="8.0347881"><ele>173.0</ele><time>2026-04-25T13:33:01.086Z</time></trkpt><trkpt lat="44.9122584" lon="8.0346623"><ele>172.0</ele><time>2026-04-25T13:33:02.085Z</time></trkpt><trkpt lat="44.9121623" lon="8.0345395"><ele>171.0</ele><time>2026-04-25T13:33:03.086Z</time></trkpt><trkpt lat="44.9120803" lon="8.0344001"><ele>170.0</ele><time>2026-04-25T13:33:04.085Z</time></trkpt><trkpt lat="44.9119944" lon="8.0342573"><ele>169.0</ele><time>2026-04-25T13:33:05.086Z</time></trkpt><trkpt lat="44.9119141" lon="8.0341162"><ele>168.0</ele><time>2026-04-25T13:33:06.086Z</time></trkpt><trkpt lat="44.9118191" lon="8.0339636"><ele>167.0</ele><time>2026-04-25T13:33:07.086Z</time></trkpt><trkpt lat="44.9117321" lon="8.0337922"><ele>166.0</ele><time>2026-04-25T13:33:08.085Z</time></trkpt><trkpt lat="44.9116483" lon="8.0336336"><ele>166.0</ele><time>2026-04-25T13:33:09.086Z</time></trkpt><trkpt lat="44.9115474" lon="8.0334678"><ele>166.0</ele><time>2026-04-25T13:33:10.085Z</time></trkpt><trkpt lat="44.9114504" lon="8.0332928"><ele>166.0</ele><time>2026-04-25T13:33:11.086Z</time></trkpt><trkpt lat="44.9113508" lon="8.0331318"><ele>166.5</ele><time>2026-04-25T13:33:12.085Z</time></trkpt><trkpt lat="44.911271" lon="8.0329618"><ele>167.0</ele><time>2026-04-25T13:33:13.086Z</time></trkpt><trkpt lat="44.9111881" lon="8.0328267"><ele>167.5</ele><time>2026-04-25T13:33:14.086Z</time></trkpt><trkpt lat="44.9111078" lon="8.032695"><ele>168.0</ele><time>2026-04-25T13:33:15.086Z</time></trkpt><trkpt lat="44.9110301" lon="8.0325738"><ele>167.8</ele><time>2026-04-25T13:33:16.086Z</time></trkpt><trkpt lat="44.9109619" lon="8.0324568"><ele>167.60000000000002</ele><time>2026-04-25T13:33:17.086Z</time></trkpt><trkpt lat="44.9108876" lon="8.0323377"><ele>167.39999999999998</ele><time>2026-04-25T13:33:18.086Z</time></trkpt><trkpt lat="44.9108233" lon="8.0322089"><ele>167.2</ele><time>2026-04-25T13:33:19.086Z</time></trkpt><trkpt lat="44.9107612" lon="8.0320824"><ele>167.0</ele><time>2026-04-25T13:33:20.085Z</time></trkpt><trkpt lat="44.910687" lon="8.0319621"><ele>167.0</ele><time>2026-04-25T13:33:21.086Z</time></trkpt><trkpt lat="44.9106028" lon="8.0318485"><ele>167.0</ele><time>2026-04-25T13:33:22.086Z</time></trkpt><trkpt lat="44.9105067" lon="8.0317278"><ele>167.0</ele><time>2026-04-25T13:33:23.086Z</time></trkpt><trkpt lat="44.9104211" lon="8.0315849"><ele>167.0</ele><time>2026-04-25T13:33:24.085Z</time></trkpt><trkpt lat="44.9103306" lon="8.0314311"><ele>167.0</ele><time>2026-04-25T13:33:25.086Z</time></trkpt><trkpt lat="44.9102392" lon="8.0312642"><ele>167.0</ele><time>2026-04-25T13:33:26.086Z</time></trkpt><trkpt lat="44.9101388" lon="8.0310928"><ele>167.0</ele><time>2026-04-25T13:33:27.085Z</time></trkpt><trkpt lat="44.9100349" lon="8.0309058"><ele>167.66666666666666</ele><time>2026-04-25T13:33:28.085Z</time></trkpt><trkpt lat="44.9099238" lon="8.0307168"><ele>168.33333333333334</ele><time>2026-04-25T13:33:29.086Z</time></trkpt><trkpt lat="44.9098138" lon="8.0305417"><ele>169.0</ele><time>2026-04-25T13:33:30.086Z</time></trkpt><trkpt lat="44.9096991" lon="8.0303554"><ele>169.0</ele><time>2026-04-25T13:33:31.086Z</time></trkpt><trkpt lat="44.9095861" lon="8.0301592"><ele>169.0</ele><time>2026-04-25T13:33:32.085Z</time></trkpt><trkpt lat="44.9094681" lon="8.0299491"><ele>169.0</ele><time>2026-04-25T13:33:33.085Z</time></trkpt><trkpt lat="44.9093494" lon="8.0297472"><ele>168.0</ele><time>2026-04-25T13:33:34.085Z</time></trkpt><trkpt lat="44.9092242" lon="8.0295387"><ele>167.0</ele><time>2026-04-25T13:33:35.086Z</time></trkpt><trkpt lat="44.9090995" lon="8.0293257"><ele>166.0</ele><time>2026-04-25T13:33:36.086Z</time></trkpt><trkpt lat="44.9089679" lon="8.0291145"><ele>166.0</ele><time>2026-04-25T13:33:37.086Z</time></trkpt><trkpt lat="44.9088444" lon="8.0289049"><ele>166.0</ele><time>2026-04-25T13:33:38.085Z</time></trkpt><trkpt lat="44.9087188" lon="8.0286881"><ele>166.0</ele><time>2026-04-25T13:33:39.085Z</time></trkpt><trkpt lat="44.9085869" lon="8.0284703"><ele>166.66666666666669</ele><time>2026-04-25T13:33:40.086Z</time></trkpt><trkpt lat="44.9084523" lon="8.0282457"><ele>167.33333333333334</ele><time>2026-04-25T13:33:41.086Z</time></trkpt><trkpt lat="44.908315" lon="8.0280185"><ele>168.0</ele><time>2026-04-25T13:33:42.086Z</time></trkpt><trkpt lat="44.9081787" lon="8.0277891"><ele>168.0</ele><time>2026-04-25T13:33:43.086Z</time></trkpt><trkpt lat="44.9080474" lon="8.0275601"><ele>168.0</ele><time>2026-04-25T13:33:44.086Z</time></trkpt><trkpt lat="44.9079069" lon="8.0273287"><ele>168.0</ele><time>2026-04-25T13:33:45.086Z</time></trkpt><trkpt lat="44.9077634" lon="8.027103"><ele>168.66666666666666</ele><time>2026-04-25T13:33:46.086Z</time></trkpt><trkpt lat="44.9076236" lon="8.0268697"><ele>169.33333333333331</ele><time>2026-04-25T13:33:47.086Z</time></trkpt><trkpt lat="44.9074873" lon="8.0266401"><ele>170.0</ele><time>2026-04-25T13:33:48.086Z</time></trkpt><trkpt lat="44.9073483" lon="8.0264126"><ele>170.33333333333331</ele><time>2026-04-25T13:33:49.086Z</time></trkpt><trkpt lat="44.9072171" lon="8.0261917"><ele>170.66666666666666</ele><time>2026-04-25T13:33:50.086Z</time></trkpt><trkpt lat="44.907088" lon="8.0259697"><ele>171.0</ele><time>2026-04-25T13:33:51.086Z</time></trkpt><trkpt lat="44.9069619" lon="8.0257578"><ele>171.33333333333334</ele><time>2026-04-25T13:33:52.086Z</time></trkpt><trkpt lat="44.9068328" lon="8.0255377"><ele>171.66666666666669</ele><time>2026-04-25T13:33:53.086Z</time></trkpt><trkpt lat="44.9067025" lon="8.0253254"><ele>172.0</ele><time>2026-04-25T13:33:54.086Z</time></trkpt><trkpt lat="44.9065712" lon="8.0251137"><ele>173.66666666666669</ele><time>2026-04-25T13:33:55.086Z</time></trkpt><trkpt lat="44.9064386" lon="8.0248995"><ele>175.33333333333334</ele><time>2026-04-25T13:33:56.086Z</time></trkpt><trkpt lat="44.906305" lon="8.0246924"><ele>177.0</ele><time>2026-04-25T13:33:57.086Z</time></trkpt><trkpt lat="44.9061699" lon="8.0244707"><ele>177.0</ele><time>2026-04-25T13:33:58.086Z</time></trkpt><trkpt lat="44.9060346" lon="8.0242497"><ele>177.0</ele><time>2026-04-25T13:33:59.086Z</time></trkpt><trkpt lat="44.9059015" lon="8.0240206"><ele>177.0</ele><time>2026-04-25T13:34:00.086Z</time></trkpt><trkpt lat="44.9057674" lon="8.0238017"><ele>176.33333333333334</ele><time>2026-04-25T13:34:01.086Z</time></trkpt><trkpt lat="44.9056391" lon="8.0235783"><ele>175.66666666666669</ele><time>2026-04-25T13:34:02.086Z</time></trkpt><trkpt lat="44.9055091" lon="8.0233463"><ele>175.0</ele><time>2026-04-25T13:34:03.086Z</time></trkpt><trkpt lat="44.9053743" lon="8.0231237"><ele>176.66666666666669</ele><time>2026-04-25T13:34:04.086Z</time></trkpt><trkpt lat="44.9052341" lon="8.0228997"><ele>178.33333333333334</ele><time>2026-04-25T13:34:05.086Z</time></trkpt><trkpt lat="44.9050995" lon="8.0226819"><ele>180.0</ele><time>2026-04-25T13:34:06.086Z</time></trkpt><trkpt lat="44.9049598" lon="8.0224638"><ele>176.33333333333334</ele><time>2026-04-25T13:34:07.085Z</time></trkpt><trkpt lat="44.9048121" lon="8.0222657"><ele>172.66666666666669</ele><time>2026-04-25T13:34:08.086Z</time></trkpt><trkpt lat="44.9046618" lon="8.0220767"><ele>169.0</ele><time>2026-04-25T13:34:09.085Z</time></trkpt><trkpt lat="44.904513" lon="8.0218907"><ele>169.0</ele><time>2026-04-25T13:34:10.086Z</time></trkpt><trkpt lat="44.9043643" lon="8.0217157"><ele>169.0</ele><time>2026-04-25T13:34:11.085Z</time></trkpt><trkpt lat="44.904218" lon="8.0215448"><ele>169.0</ele><time>2026-04-25T13:34:12.085Z</time></trkpt><trkpt lat="44.9040682" lon="8.0213648"><ele>170.0</ele><time>2026-04-25T13:34:13.085Z</time></trkpt><trkpt lat="44.9039266" lon="8.0211929"><ele>171.0</ele><time>2026-04-25T13:34:14.086Z</time></trkpt><trkpt lat="44.9037826" lon="8.0210264"><ele>172.0</ele><time>2026-04-25T13:34:15.085Z</time></trkpt><trkpt lat="44.9036353" lon="8.0208515"><ele>173.66666666666669</ele><time>2026-04-25T13:34:16.085Z</time></trkpt><trkpt lat="44.9034834" lon="8.0206821"><ele>175.33333333333334</ele><time>2026-04-25T13:34:17.086Z</time></trkpt><trkpt lat="44.9033424" lon="8.0205105"><ele>177.0</ele><time>2026-04-25T13:34:18.086Z</time></trkpt><trkpt lat="44.903197" lon="8.02033"><ele>177.0</ele><time>2026-04-25T13:34:19.085Z</time></trkpt><trkpt lat="44.903049" lon="8.0201365"><ele>177.0</ele><time>2026-04-25T13:34:20.086Z</time></trkpt><trkpt lat="44.9029078" lon="8.0199376"><ele>177.0</ele><time>2026-04-25T13:34:21.085Z</time></trkpt><trkpt lat="44.9027527" lon="8.0197345"><ele>176.66666666666666</ele><time>2026-04-25T13:34:22.086Z</time></trkpt><trkpt lat="44.902604" lon="8.0195311"><ele>176.33333333333331</ele><time>2026-04-25T13:34:23.086Z</time></trkpt><trkpt lat="44.9024584" lon="8.0193211"><ele>176.0</ele><time>2026-04-25T13:34:24.086Z</time></trkpt><trkpt lat="44.9023011" lon="8.0191106"><ele>176.66666666666666</ele><time>2026-04-25T13:34:25.085Z</time></trkpt><trkpt lat="44.9021487" lon="8.0188953"><ele>177.33333333333334</ele><time>2026-04-25T13:34:26.085Z</time></trkpt><trkpt lat="44.9019944" lon="8.0186837"><ele>178.0</ele><time>2026-04-25T13:34:27.085Z</time></trkpt><trkpt lat="44.9018411" lon="8.0184619"><ele>177.66666666666669</ele><time>2026-04-25T13:34:28.085Z</time></trkpt><trkpt lat="44.9016798" lon="8.0182484"><ele>177.33333333333334</ele><time>2026-04-25T13:34:29.085Z</time></trkpt><trkpt lat="44.9015224" lon="8.0180359"><ele>177.0</ele><time>2026-04-25T13:34:30.085Z</time></trkpt><trkpt lat="44.9013614" lon="8.0178201"><ele>177.0</ele><time>2026-04-25T13:34:31.086Z</time></trkpt><trkpt lat="44.9012005" lon="8.0176021"><ele>177.0</ele><time>2026-04-25T13:34:32.086Z</time></trkpt><trkpt lat="44.9010439" lon="8.0173894"><ele>177.0</ele><time>2026-04-25T13:34:33.086Z</time></trkpt><trkpt lat="44.900888" lon="8.017172"><ele>178.0</ele><time>2026-04-25T13:34:34.085Z</time></trkpt><trkpt lat="44.9007373" lon="8.0169555"><ele>179.0</ele><time>2026-04-25T13:34:35.086Z</time></trkpt><trkpt lat="44.9005775" lon="8.0167266"><ele>180.0</ele><time>2026-04-25T13:34:36.086Z</time></trkpt><trkpt lat="44.9004164" lon="8.0164989"><ele>180.0</ele><time>2026-04-25T13:34:37.086Z</time></trkpt><trkpt lat="44.9002585" lon="8.0162818"><ele>180.0</ele><time>2026-04-25T13:34:38.085Z</time></trkpt><trkpt lat="44.9001023" lon="8.0160631"><ele>180.0</ele><time>2026-04-25T13:34:39.085Z</time></trkpt><trkpt lat="44.8999444" lon="8.0158312"><ele>179.5</ele><time>2026-04-25T13:34:40.086Z</time></trkpt><trkpt lat="44.8997799" lon="8.0156051"><ele>179.0</ele><time>2026-04-25T13:34:41.085Z</time></trkpt><trkpt lat="44.8996194" lon="8.015388"><ele>179.0</ele><time>2026-04-25T13:34:42.085Z</time></trkpt><trkpt lat="44.8994573" lon="8.0151578"><ele>179.0</ele><time>2026-04-25T13:34:43.086Z</time></trkpt><trkpt lat="44.8992939" lon="8.0149344"><ele>179.0</ele><time>2026-04-25T13:34:44.085Z</time></trkpt><trkpt lat="44.8991331" lon="8.0147067"><ele>179.0</ele><time>2026-04-25T13:34:45.085Z</time></trkpt><trkpt lat="44.8989681" lon="8.0144815"><ele>179.0</ele><time>2026-04-25T13:34:46.086Z</time></trkpt><trkpt lat="44.8988121" lon="8.0142576"><ele>179.0</ele><time>2026-04-25T13:34:47.085Z</time></trkpt><trkpt lat="44.8986534" lon="8.0140318"><ele>179.0</ele><time>2026-04-25T13:34:48.085Z</time></trkpt><trkpt lat="44.8984952" lon="8.0138081"><ele>177.5</ele><time>2026-04-25T13:34:49.085Z</time></trkpt><trkpt lat="44.8983313" lon="8.013578"><ele>176.0</ele><time>2026-04-25T13:34:50.086Z</time></trkpt><trkpt lat="44.8981696" lon="8.0133474"><ele>178.0</ele><time>2026-04-25T13:34:51.085Z</time></trkpt><trkpt lat="44.8980112" lon="8.013122"><ele>180.0</ele><time>2026-04-25T13:34:52.086Z</time></trkpt><trkpt lat="44.8978519" lon="8.0128919"><ele>180.0</ele><time>2026-04-25T13:34:53.086Z</time></trkpt><trkpt lat="44.8976973" lon="8.0126558"><ele>180.0</ele><time>2026-04-25T13:34:54.086Z</time></trkpt><trkpt lat="44.8975374" lon="8.0124269"><ele>180.0</ele><time>2026-04-25T13:34:55.086Z</time></trkpt><trkpt lat="44.8973793" lon="8.0122035"><ele>180.0</ele><time>2026-04-25T13:34:56.085Z</time></trkpt><trkpt lat="44.8972221" lon="8.0119743"><ele>180.0</ele><time>2026-04-25T13:34:57.086Z</time></trkpt><trkpt lat="44.8970647" lon="8.0117504"><ele>180.0</ele><time>2026-04-25T13:34:58.086Z</time></trkpt><trkpt lat="44.8969059" lon="8.011522"><ele>179.33333333333334</ele><time>2026-04-25T13:34:59.085Z</time></trkpt><trkpt lat="44.8967465" lon="8.0112979"><ele>178.66666666666669</ele><time>2026-04-25T13:35:00.086Z</time></trkpt><trkpt lat="44.8965862" lon="8.0110788"><ele>178.0</ele><time>2026-04-25T13:35:01.085Z</time></trkpt><trkpt lat="44.8964176" lon="8.0108685"><ele>177.66666666666669</ele><time>2026-04-25T13:35:02.086Z</time></trkpt><trkpt lat="44.8962467" lon="8.0106746"><ele>177.33333333333334</ele><time>2026-04-25T13:35:03.086Z</time></trkpt><trkpt lat="44.8960775" lon="8.0104859"><ele>177.0</ele><time>2026-04-25T13:35:04.086Z</time></trkpt><trkpt lat="44.8959002" lon="8.0103132"><ele>178.33333333333334</ele><time>2026-04-25T13:35:05.086Z</time></trkpt><trkpt lat="44.8957175" lon="8.0101474"><ele>179.66666666666669</ele><time>2026-04-25T13:35:06.086Z</time></trkpt><trkpt lat="44.8955349" lon="8.00999"><ele>181.0</ele><time>2026-04-25T13:35:07.086Z</time></trkpt><trkpt lat="44.8953535" lon="8.0098251"><ele>183.33333333333334</ele><time>2026-04-25T13:35:08.086Z</time></trkpt><trkpt lat="44.8951654" lon="8.0096743"><ele>185.66666666666666</ele><time>2026-04-25T13:35:09.086Z</time></trkpt><trkpt lat="44.8949832" lon="8.0095129"><ele>188.0</ele><time>2026-04-25T13:35:10.085Z</time></trkpt><trkpt lat="44.894798" lon="8.0093534"><ele>188.33333333333331</ele><time>2026-04-25T13:35:11.086Z</time></trkpt><trkpt lat="44.8946092" lon="8.0091996"><ele>188.66666666666666</ele><time>2026-04-25T13:35:12.085Z</time></trkpt><trkpt lat="44.8944207" lon="8.0090489"><ele>189.0</ele><time>2026-04-25T13:35:13.086Z</time></trkpt><trkpt lat="44.8942434" lon="8.008895"><ele>189.66666666666666</ele><time>2026-04-25T13:35:14.086Z</time></trkpt><trkpt lat="44.8940659" lon="8.008745"><ele>190.33333333333331</ele><time>2026-04-25T13:35:15.086Z</time></trkpt><trkpt lat="44.8938937" lon="8.0085994"><ele>191.0</ele><time>2026-04-25T13:35:16.086Z</time></trkpt><trkpt lat="44.8937203" lon="8.0084547"><ele>191.0</ele><time>2026-04-25T13:35:17.085Z</time></trkpt><trkpt lat="44.8935468" lon="8.0083147"><ele>191.0</ele><time>2026-04-25T13:35:18.085Z</time></trkpt><trkpt lat="44.8933768" lon="8.008171"><ele>191.0</ele><time>2026-04-25T13:35:19.086Z</time></trkpt><trkpt lat="44.8932105" lon="8.008023"><ele>191.0</ele><time>2026-04-25T13:35:20.086Z</time></trkpt><trkpt lat="44.8930517" lon="8.0078728"><ele>191.0</ele><time>2026-04-25T13:35:21.085Z</time></trkpt><trkpt lat="44.8928861" lon="8.0077379"><ele>191.0</ele><time>2026-04-25T13:35:22.086Z</time></trkpt><trkpt lat="44.892722" lon="8.0076071"><ele>190.0</ele><time>2026-04-25T13:35:23.086Z</time></trkpt><trkpt lat="44.8925602" lon="8.0074804"><ele>189.0</ele><time>2026-04-25T13:35:24.086Z</time></trkpt><trkpt lat="44.8923994" lon="8.0073532"><ele>188.0</ele><time>2026-04-25T13:35:25.086Z</time></trkpt><trkpt lat="44.8922335" lon="8.0072299"><ele>188.0</ele><time>2026-04-25T13:35:26.086Z</time></trkpt><trkpt lat="44.8920749" lon="8.0071143"><ele>188.0</ele><time>2026-04-25T13:35:27.086Z</time></trkpt><trkpt lat="44.8919084" lon="8.0069869"><ele>188.0</ele><time>2026-04-25T13:35:28.086Z</time></trkpt><trkpt lat="44.8917402" lon="8.0068592"><ele>188.0</ele><time>2026-04-25T13:35:29.085Z</time></trkpt><trkpt lat="44.891569" lon="8.0067382"><ele>188.0</ele><time>2026-04-25T13:35:30.086Z</time></trkpt><trkpt lat="44.8913961" lon="8.0066069"><ele>188.0</ele><time>2026-04-25T13:35:31.086Z</time></trkpt><trkpt lat="44.8912364" lon="8.0064756"><ele>188.0</ele><time>2026-04-25T13:35:32.085Z</time></trkpt><trkpt lat="44.8910651" lon="8.0063415"><ele>188.0</ele><time>2026-04-25T13:35:33.086Z</time></trkpt><trkpt lat="44.890902" lon="8.0062099"><ele>188.0</ele><time>2026-04-25T13:35:34.086Z</time></trkpt><trkpt lat="44.8907306" lon="8.0060881"><ele>189.66666666666666</ele><time>2026-04-25T13:35:35.086Z</time></trkpt><trkpt lat="44.8905635" lon="8.005953"><ele>191.33333333333331</ele><time>2026-04-25T13:35:36.085Z</time></trkpt><trkpt lat="44.8903944" lon="8.0058253"><ele>193.0</ele><time>2026-04-25T13:35:37.085Z</time></trkpt><trkpt lat="44.8902119" lon="8.005696"><ele>194.33333333333331</ele><time>2026-04-25T13:35:38.086Z</time></trkpt><trkpt lat="44.8900359" lon="8.0055703"><ele>195.66666666666669</ele><time>2026-04-25T13:35:39.086Z</time></trkpt><trkpt lat="44.8898639" lon="8.0054456"><ele>197.0</ele><time>2026-04-25T13:35:40.086Z</time></trkpt><trkpt lat="44.889692" lon="8.0053267"><ele>197.0</ele><time>2026-04-25T13:35:41.086Z</time></trkpt><trkpt lat="44.8895201" lon="8.0052143"><ele>197.0</ele><time>2026-04-25T13:35:42.086Z</time></trkpt><trkpt lat="44.889333" lon="8.0051107"><ele>197.0</ele><time>2026-04-25T13:35:43.086Z</time></trkpt><trkpt lat="44.88914" lon="8.0050319"><ele>195.66666666666669</ele><time>2026-04-25T13:35:44.085Z</time></trkpt><trkpt lat="44.8889493" lon="8.0049764"><ele>194.33333333333331</ele><time>2026-04-25T13:35:45.086Z</time></trkpt><trkpt lat="44.8887466" lon="8.0049343"><ele>193.0</ele><time>2026-04-25T13:35:46.085Z</time></trkpt><trkpt lat="44.8885508" lon="8.0049114"><ele>194.66666666666666</ele><time>2026-04-25T13:35:47.085Z</time></trkpt><trkpt lat="44.8883404" lon="8.0049181"><ele>196.33333333333331</ele><time>2026-04-25T13:35:48.086Z</time></trkpt><trkpt lat="44.8881252" lon="8.0049481"><ele>198.0</ele><time>2026-04-25T13:35:49.085Z</time></trkpt><trkpt lat="44.8879149" lon="8.0049905"><ele>198.0</ele><time>2026-04-25T13:35:50.086Z</time></trkpt><trkpt lat="44.8876916" lon="8.0050543"><ele>198.0</ele><time>2026-04-25T13:35:51.086Z</time></trkpt><trkpt lat="44.8874808" lon="8.0051047"><ele>198.0</ele><time>2026-04-25T13:35:52.085Z</time></trkpt><trkpt lat="44.8872595" lon="8.0051692"><ele>198.0</ele><time>2026-04-25T13:35:53.085Z</time></trkpt><trkpt lat="44.8870445" lon="8.0052314"><ele>198.0</ele><time>2026-04-25T13:35:54.086Z</time></trkpt><trkpt lat="44.8868309" lon="8.0052789"><ele>198.0</ele><time>2026-04-25T13:35:55.085Z</time></trkpt><trkpt lat="44.8866122" lon="8.0053472"><ele>198.66666666666669</ele><time>2026-04-25T13:35:56.086Z</time></trkpt><trkpt lat="44.8863961" lon="8.0053917"><ele>199.33333333333334</ele><time>2026-04-25T13:35:57.086Z</time></trkpt><trkpt lat="44.8861791" lon="8.0054531"><ele>200.0</ele><time>2026-04-25T13:35:58.086Z</time></trkpt><trkpt lat="44.8859592" lon="8.0055053"><ele>200.66666666666669</ele><time>2026-04-25T13:35:59.086Z</time></trkpt><trkpt lat="44.885743" lon="8.005559"><ele>201.33333333333331</ele><time>2026-04-25T13:36:00.086Z</time></trkpt><trkpt lat="44.8855277" lon="8.0056146"><ele>202.0</ele><time>2026-04-25T13:36:01.086Z</time></trkpt><trkpt lat="44.8853091" lon="8.0056713"><ele>203.0</ele><time>2026-04-25T13:36:02.086Z</time></trkpt><trkpt lat="44.8850957" lon="8.0057153"><ele>204.0</ele><time>2026-04-25T13:36:03.085Z</time></trkpt><trkpt lat="44.8848859" lon="8.0057666"><ele>205.0</ele><time>2026-04-25T13:36:04.086Z</time></trkpt><trkpt lat="44.8846735" lon="8.0058131"><ele>203.66666666666666</ele><time>2026-04-25T13:36:05.086Z</time></trkpt><trkpt lat="44.8844594" lon="8.0058634"><ele>202.33333333333331</ele><time>2026-04-25T13:36:06.086Z</time></trkpt><trkpt lat="44.8842532" lon="8.0059181"><ele>201.0</ele><time>2026-04-25T13:36:07.086Z</time></trkpt><trkpt lat="44.8840414" lon="8.0059636"><ele>201.0</ele><time>2026-04-25T13:36:08.085Z</time></trkpt><trkpt lat="44.8838141" lon="8.006027"><ele>201.0</ele><time>2026-04-25T13:36:09.085Z</time></trkpt><trkpt lat="44.883602" lon="8.0060868"><ele>201.0</ele><time>2026-04-25T13:36:10.086Z</time></trkpt><trkpt lat="44.8833835" lon="8.0061455"><ele>201.33333333333331</ele><time>2026-04-25T13:36:11.085Z</time></trkpt><trkpt lat="44.8831737" lon="8.0061976"><ele>201.66666666666666</ele><time>2026-04-25T13:36:12.085Z</time></trkpt><trkpt lat="44.8829595" lon="8.00625"><ele>202.0</ele><time>2026-04-25T13:36:13.086Z</time></trkpt><trkpt lat="44.8827456" lon="8.0063087"><ele>206.66666666666666</ele><time>2026-04-25T13:36:14.085Z</time></trkpt><trkpt lat="44.8825348" lon="8.0063611"><ele>211.33333333333331</ele><time>2026-04-25T13:36:15.085Z</time></trkpt><trkpt lat="44.8823114" lon="8.0064161"><ele>216.0</ele><time>2026-04-25T13:36:16.086Z</time></trkpt><trkpt lat="44.8820996" lon="8.0064678"><ele>216.0</ele><time>2026-04-25T13:36:17.085Z</time></trkpt><trkpt lat="44.8818865" lon="8.0065275"><ele>216.0</ele><time>2026-04-25T13:36:18.086Z</time></trkpt><trkpt lat="44.881674" lon="8.0065731"><ele>216.0</ele><time>2026-04-25T13:36:19.085Z</time></trkpt><trkpt lat="44.8814637" lon="8.0066269"><ele>211.66666666666669</ele><time>2026-04-25T13:36:20.085Z</time></trkpt><trkpt lat="44.8812466" lon="8.0066783"><ele>207.33333333333334</ele><time>2026-04-25T13:36:21.086Z</time></trkpt><trkpt lat="44.8810342" lon="8.0067334"><ele>203.0</ele><time>2026-04-25T13:36:22.086Z</time></trkpt><trkpt lat="44.8808293" lon="8.0067917"><ele>202.66666666666669</ele><time>2026-04-25T13:36:23.085Z</time></trkpt><trkpt lat="44.8806225" lon="8.0068482"><ele>202.33333333333331</ele><time>2026-04-25T13:36:24.086Z</time></trkpt><trkpt lat="44.8804211" lon="8.0069138"><ele>202.0</ele><time>2026-04-25T13:36:25.086Z</time></trkpt><trkpt lat="44.8802263" lon="8.0069974"><ele>203.66666666666666</ele><time>2026-04-25T13:36:26.086Z</time></trkpt><trkpt lat="44.8800428" lon="8.0070949"><ele>205.33333333333331</ele><time>2026-04-25T13:36:27.086Z</time></trkpt><trkpt lat="44.8798704" lon="8.0072093"><ele>207.0</ele><time>2026-04-25T13:36:28.086Z</time></trkpt><trkpt lat="44.8797062" lon="8.0073592"><ele>205.0</ele><time>2026-04-25T13:36:29.085Z</time></trkpt><trkpt lat="44.8795599" lon="8.0075321"><ele>203.0</ele><time>2026-04-25T13:36:30.085Z</time></trkpt><trkpt lat="44.8794284" lon="8.0077269"><ele>201.0</ele><time>2026-04-25T13:36:31.086Z</time></trkpt><trkpt lat="44.8793134" lon="8.0079271"><ele>201.66666666666669</ele><time>2026-04-25T13:36:32.086Z</time></trkpt><trkpt lat="44.8792127" lon="8.008141"><ele>202.33333333333334</ele><time>2026-04-25T13:36:33.086Z</time></trkpt><trkpt lat="44.8791114" lon="8.0083619"><ele>203.0</ele><time>2026-04-25T13:36:34.086Z</time></trkpt><trkpt lat="44.8790024" lon="8.008558"><ele>203.0</ele><time>2026-04-25T13:36:35.086Z</time></trkpt><trkpt lat="44.8788874" lon="8.0087433"><ele>203.0</ele><time>2026-04-25T13:36:36.085Z</time></trkpt><trkpt lat="44.8787658" lon="8.0088862"><ele>203.0</ele><time>2026-04-25T13:36:37.086Z</time></trkpt><trkpt lat="44.878634" lon="8.0090067"><ele>203.0</ele><time>2026-04-25T13:36:38.085Z</time></trkpt><trkpt lat="44.8784945" lon="8.0091164"><ele>203.0</ele><time>2026-04-25T13:36:39.085Z</time></trkpt><trkpt lat="44.8783429" lon="8.0091971"><ele>203.0</ele><time>2026-04-25T13:36:40.086Z</time></trkpt><trkpt lat="44.8781829" lon="8.0092415"><ele>204.0</ele><time>2026-04-25T13:36:41.086Z</time></trkpt><trkpt lat="44.8780199" lon="8.0092677"><ele>205.0</ele><time>2026-04-25T13:36:42.086Z</time></trkpt><trkpt lat="44.8778553" lon="8.0092582"><ele>206.0</ele><time>2026-04-25T13:36:43.086Z</time></trkpt><trkpt lat="44.8776888" lon="8.0092185"><ele>209.0</ele><time>2026-04-25T13:36:44.085Z</time></trkpt><trkpt lat="44.8775303" lon="8.0091548"><ele>212.0</ele><time>2026-04-25T13:36:45.086Z</time></trkpt><trkpt lat="44.8773707" lon="8.0090621"><ele>215.0</ele><time>2026-04-25T13:36:46.085Z</time></trkpt><trkpt lat="44.87722" lon="8.0089387"><ele>215.0</ele><time>2026-04-25T13:36:47.085Z</time></trkpt><trkpt lat="44.8770679" lon="8.0088191"><ele>215.0</ele><time>2026-04-25T13:36:48.085Z</time></trkpt><trkpt lat="44.876924" lon="8.008693"><ele>215.0</ele><time>2026-04-25T13:36:49.086Z</time></trkpt><trkpt lat="44.876781" lon="8.0085743"><ele>214.5</ele><time>2026-04-25T13:36:50.086Z</time></trkpt><trkpt lat="44.8766578" lon="8.0084661"><ele>214.0</ele><time>2026-04-25T13:36:51.085Z</time></trkpt><trkpt lat="44.876536" lon="8.0083671"><ele>213.5</ele><time>2026-04-25T13:36:52.086Z</time></trkpt><trkpt lat="44.8764322" lon="8.0082749"><ele>213.0</ele><time>2026-04-25T13:36:53.086Z</time></trkpt><trkpt lat="44.8763644" lon="8.0082374"><ele>213.0</ele><time>2026-04-25T13:36:54.086Z</time></trkpt><trkpt lat="44.8763028" lon="8.0082109"><ele>213.0</ele><time>2026-04-25T13:36:55.085Z</time></trkpt><trkpt lat="44.8762282" lon="8.008224"><ele>213.0</ele><time>2026-04-25T13:36:57.085Z</time></trkpt><trkpt lat="44.8761917" lon="8.0083158"><ele>213.0</ele><time>2026-04-25T13:36:59.086Z</time></trkpt><trkpt lat="44.8761788" lon="8.0084107"><ele>213.0</ele><time>2026-04-25T13:37:00.086Z</time></trkpt><trkpt lat="44.8761805" lon="8.0085436"><ele>213.0</ele><time>2026-04-25T13:37:01.086Z</time></trkpt><trkpt lat="44.8761885" lon="8.0086716"><ele>213.0</ele><time>2026-04-25T13:37:02.086Z</time></trkpt><trkpt lat="44.8761966" lon="8.0087829"><ele>213.0</ele><time>2026-04-25T13:37:03.085Z</time></trkpt><trkpt lat="44.8761821" lon="8.0088847"><ele>213.0</ele><time>2026-04-25T13:37:04.086Z</time></trkpt><trkpt lat="44.8761619" lon="8.0089768"><ele>213.0</ele><time>2026-04-25T13:37:05.086Z</time></trkpt><trkpt lat="44.876148" lon="8.0090911"><ele>213.0</ele><time>2026-04-25T13:37:07.085Z</time></trkpt><trkpt lat="44.8761749" lon="8.0092012"><ele>213.0</ele><time>2026-04-25T13:37:10.086Z</time></trkpt><trkpt lat="44.8761955" lon="8.0093001"><ele>213.0</ele><time>2026-04-25T13:37:13.086Z</time></trkpt><trkpt lat="44.8761411" lon="8.0092314"><ele>213.0</ele><time>2026-04-25T13:40:23.086Z</time></trkpt><trkpt lat="44.8761219" lon="8.0091097"><ele>213.0</ele><time>2026-04-25T13:40:27.086Z</time></trkpt><trkpt lat="44.8761558" lon="8.0090103"><ele>213.0</ele><time>2026-04-25T13:40:30.085Z</time></trkpt><trkpt lat="44.8762071" lon="8.0089333"><ele>213.0</ele><time>2026-04-25T13:40:44.086Z</time></trkpt><trkpt lat="44.8762183" lon="8.0087524"><ele>213.0</ele><time>2026-04-25T13:40:46.086Z</time></trkpt><trkpt lat="44.8761993" lon="8.0086327"><ele>213.0</ele><time>2026-04-25T13:40:47.086Z</time></trkpt><trkpt lat="44.8761788" lon="8.0084913"><ele>213.0</ele><time>2026-04-25T13:40:48.086Z</time></trkpt><trkpt lat="44.876153" lon="8.0083455"><ele>213.0</ele><time>2026-04-25T13:40:49.085Z</time></trkpt><trkpt lat="44.8761277" lon="8.0081616"><ele>213.0</ele><time>2026-04-25T13:40:50.086Z</time></trkpt><trkpt lat="44.8760916" lon="8.0079677"><ele>213.66666666666669</ele><time>2026-04-25T13:40:51.086Z</time></trkpt><trkpt lat="44.8760487" lon="8.007762"><ele>214.33333333333334</ele><time>2026-04-25T13:40:52.086Z</time></trkpt><trkpt lat="44.8759836" lon="8.00755"><ele>215.0</ele><time>2026-04-25T13:40:53.086Z</time></trkpt><trkpt lat="44.8759161" lon="8.0073277"><ele>215.0</ele><time>2026-04-25T13:40:54.086Z</time></trkpt><trkpt lat="44.8758381" lon="8.0071053"><ele>215.0</ele><time>2026-04-25T13:40:55.086Z</time></trkpt><trkpt lat="44.8757527" lon="8.0068925"><ele>215.0</ele><time>2026-04-25T13:40:56.086Z</time></trkpt><trkpt lat="44.8756699" lon="8.0066996"><ele>221.0</ele><time>2026-04-25T13:40:57.086Z</time></trkpt><trkpt lat="44.8755879" lon="8.0065134"><ele>227.0</ele><time>2026-04-25T13:40:58.086Z</time></trkpt><trkpt lat="44.875503" lon="8.0063312"><ele>233.0</ele><time>2026-04-25T13:40:59.086Z</time></trkpt><trkpt lat="44.875429" lon="8.0061448"><ele>233.0</ele><time>2026-04-25T13:41:00.085Z</time></trkpt><trkpt lat="44.8753518" lon="8.0059748"><ele>233.0</ele><time>2026-04-25T13:41:01.086Z</time></trkpt><trkpt lat="44.8752723" lon="8.0058088"><ele>233.0</ele><time>2026-04-25T13:41:02.085Z</time></trkpt><trkpt lat="44.8751906" lon="8.005643"><ele>233.0</ele><time>2026-04-25T13:41:03.085Z</time></trkpt><trkpt lat="44.8751023" lon="8.005477"><ele>229.66666666666669</ele><time>2026-04-25T13:41:04.086Z</time></trkpt><trkpt lat="44.8750117" lon="8.0053189"><ele>226.33333333333331</ele><time>2026-04-25T13:41:05.086Z</time></trkpt><trkpt lat="44.8749048" lon="8.0051571"><ele>223.0</ele><time>2026-04-25T13:41:06.086Z</time></trkpt><trkpt lat="44.8747932" lon="8.0050001"><ele>225.66666666666666</ele><time>2026-04-25T13:41:07.086Z</time></trkpt><trkpt lat="44.874677" lon="8.0048483"><ele>228.33333333333331</ele><time>2026-04-25T13:41:08.086Z</time></trkpt><trkpt lat="44.874549" lon="8.0047024"><ele>231.0</ele><time>2026-04-25T13:41:09.085Z</time></trkpt><trkpt lat="44.8744103" lon="8.0045488"><ele>232.33333333333331</ele><time>2026-04-25T13:41:10.086Z</time></trkpt><trkpt lat="44.8742623" lon="8.0044036"><ele>233.66666666666666</ele><time>2026-04-25T13:41:11.086Z</time></trkpt><trkpt lat="44.8741015" lon="8.0042747"><ele>235.0</ele><time>2026-04-25T13:41:12.085Z</time></trkpt><trkpt lat="44.8739344" lon="8.0041386"><ele>235.0</ele><time>2026-04-25T13:41:13.086Z</time></trkpt><trkpt lat="44.8737837" lon="8.004005"><ele>235.0</ele><time>2026-04-25T13:41:14.086Z</time></trkpt><trkpt lat="44.8736334" lon="8.0038767"><ele>235.0</ele><time>2026-04-25T13:41:15.086Z</time></trkpt><trkpt lat="44.8734714" lon="8.0037405"><ele>235.66666666666666</ele><time>2026-04-25T13:41:16.086Z</time></trkpt><trkpt lat="44.873329" lon="8.0035878"><ele>236.33333333333331</ele><time>2026-04-25T13:41:17.086Z</time></trkpt><trkpt lat="44.8732028" lon="8.0034177"><ele>237.0</ele><time>2026-04-25T13:41:18.085Z</time></trkpt><trkpt lat="44.8730722" lon="8.0032289"><ele>243.33333333333331</ele><time>2026-04-25T13:41:19.086Z</time></trkpt><trkpt lat="44.8729638" lon="8.0030303"><ele>249.66666666666666</ele><time>2026-04-25T13:41:20.086Z</time></trkpt><trkpt lat="44.8728694" lon="8.0028174"><ele>256.0</ele><time>2026-04-25T13:41:21.085Z</time></trkpt><trkpt lat="44.8727867" lon="8.0025929"><ele>258.66666666666663</ele><time>2026-04-25T13:41:22.085Z</time></trkpt><trkpt lat="44.8727281" lon="8.0023652"><ele>261.3333333333333</ele><time>2026-04-25T13:41:23.085Z</time></trkpt><trkpt lat="44.8726802" lon="8.002134"><ele>264.0</ele><time>2026-04-25T13:41:24.086Z</time></trkpt><trkpt lat="44.8726427" lon="8.0018822"><ele>261.6666666666667</ele><time>2026-04-25T13:41:25.086Z</time></trkpt><trkpt lat="44.8726366" lon="8.001628"><ele>259.33333333333337</ele><time>2026-04-25T13:41:26.086Z</time></trkpt><trkpt lat="44.8726383" lon="8.0013735"><ele>257.0</ele><time>2026-04-25T13:41:27.086Z</time></trkpt><trkpt lat="44.8726609" lon="8.001118"><ele>257.0</ele><time>2026-04-25T13:41:28.086Z</time></trkpt><trkpt lat="44.872701" lon="8.0008675"><ele>257.0</ele><time>2026-04-25T13:41:29.086Z</time></trkpt><trkpt lat="44.8727483" lon="8.0006229"><ele>257.0</ele><time>2026-04-25T13:41:30.086Z</time></trkpt><trkpt lat="44.8728069" lon="8.000377"><ele>254.33333333333334</ele><time>2026-04-25T13:41:31.085Z</time></trkpt><trkpt lat="44.8728709" lon="8.0001537"><ele>251.66666666666669</ele><time>2026-04-25T13:41:32.086Z</time></trkpt><trkpt lat="44.8729319" lon="7.999914"><ele>249.0</ele><time>2026-04-25T13:41:33.086Z</time></trkpt><trkpt lat="44.8729966" lon="7.9996743"><ele>249.0</ele><time>2026-04-25T13:41:34.086Z</time></trkpt><trkpt lat="44.873059" lon="7.9994381"><ele>249.0</ele><time>2026-04-25T13:41:35.086Z</time></trkpt><trkpt lat="44.8731333" lon="7.9992069"><ele>249.0</ele><time>2026-04-25T13:41:36.085Z</time></trkpt><trkpt lat="44.8731992" lon="7.998996"><ele>246.0</ele><time>2026-04-25T13:41:37.086Z</time></trkpt><trkpt lat="44.873274" lon="7.9987913"><ele>243.0</ele><time>2026-04-25T13:41:38.085Z</time></trkpt><trkpt lat="44.8733411" lon="7.9985965"><ele>240.0</ele><time>2026-04-25T13:41:39.086Z</time></trkpt><trkpt lat="44.8734152" lon="7.9984098"><ele>238.5</ele><time>2026-04-25T13:41:40.086Z</time></trkpt><trkpt lat="44.8734943" lon="7.9982387"><ele>237.0</ele><time>2026-04-25T13:41:41.086Z</time></trkpt><trkpt lat="44.8735812" lon="7.9980843"><ele>235.5</ele><time>2026-04-25T13:41:42.086Z</time></trkpt><trkpt lat="44.8736809" lon="7.9979342"><ele>234.0</ele><time>2026-04-25T13:41:43.086Z</time></trkpt><trkpt lat="44.8737938" lon="7.9977831"><ele>234.0</ele><time>2026-04-25T13:41:44.086Z</time></trkpt><trkpt lat="44.8738994" lon="7.9976431"><ele>234.0</ele><time>2026-04-25T13:41:45.086Z</time></trkpt><trkpt lat="44.8740137" lon="7.9975104"><ele>234.0</ele><time>2026-04-25T13:41:46.086Z</time></trkpt><trkpt lat="44.8741369" lon="7.9973868"><ele>234.0</ele><time>2026-04-25T13:41:47.086Z</time></trkpt><trkpt lat="44.8742546" lon="7.9972815"><ele>231.25</ele><time>2026-04-25T13:41:48.086Z</time></trkpt><trkpt lat="44.8743756" lon="7.9971782"><ele>228.5</ele><time>2026-04-25T13:41:49.086Z</time></trkpt><trkpt lat="44.8744943" lon="7.9970837"><ele>225.75</ele><time>2026-04-25T13:41:50.086Z</time></trkpt><trkpt lat="44.8746019" lon="7.9970036"><ele>223.0</ele><time>2026-04-25T13:41:51.086Z</time></trkpt><trkpt lat="44.8747151" lon="7.9969215"><ele>223.0</ele><time>2026-04-25T13:41:52.085Z</time></trkpt><trkpt lat="44.87482" lon="7.9968439"><ele>223.0</ele><time>2026-04-25T13:41:53.086Z</time></trkpt><trkpt lat="44.8749293" lon="7.9967619"><ele>223.0</ele><time>2026-04-25T13:41:54.085Z</time></trkpt><trkpt lat="44.8750337" lon="7.996684"><ele>223.0</ele><time>2026-04-25T13:41:55.086Z</time></trkpt><trkpt lat="44.8751314" lon="7.9966108"><ele>223.25</ele><time>2026-04-25T13:41:56.086Z</time></trkpt><trkpt lat="44.8752349" lon="7.9965406"><ele>223.5</ele><time>2026-04-25T13:41:57.086Z</time></trkpt><trkpt lat="44.8753365" lon="7.9964638"><ele>223.75</ele><time>2026-04-25T13:41:58.086Z</time></trkpt><trkpt lat="44.8754545" lon="7.9963813"><ele>224.0</ele><time>2026-04-25T13:41:59.086Z</time></trkpt><trkpt lat="44.8755768" lon="7.9962877"><ele>224.0</ele><time>2026-04-25T13:42:00.085Z</time></trkpt><trkpt lat="44.8757107" lon="7.9961793"><ele>224.0</ele><time>2026-04-25T13:42:01.086Z</time></trkpt><trkpt lat="44.8758478" lon="7.9960811"><ele>224.0</ele><time>2026-04-25T13:42:02.085Z</time></trkpt><trkpt lat="44.8759875" lon="7.9959861"><ele>223.66666666666669</ele><time>2026-04-25T13:42:03.086Z</time></trkpt><trkpt lat="44.876131" lon="7.9958836"><ele>223.33333333333331</ele><time>2026-04-25T13:42:04.086Z</time></trkpt><trkpt lat="44.8762716" lon="7.9957803"><ele>223.0</ele><time>2026-04-25T13:42:05.086Z</time></trkpt><trkpt lat="44.8764175" lon="7.9956724"><ele>222.66666666666666</ele><time>2026-04-25T13:42:06.086Z</time></trkpt><trkpt lat="44.8765628" lon="7.995573"><ele>222.33333333333331</ele><time>2026-04-25T13:42:07.085Z</time></trkpt><trkpt lat="44.8766966" lon="7.9954789"><ele>222.0</ele><time>2026-04-25T13:42:08.085Z</time></trkpt><trkpt lat="44.8768361" lon="7.9953852"><ele>222.0</ele><time>2026-04-25T13:42:09.085Z</time></trkpt><trkpt lat="44.8769699" lon="7.9952906"><ele>222.0</ele><time>2026-04-25T13:42:10.086Z</time></trkpt><trkpt lat="44.8771044" lon="7.9952017"><ele>222.0</ele><time>2026-04-25T13:42:11.086Z</time></trkpt><trkpt lat="44.8772298" lon="7.9951043"><ele>222.0</ele><time>2026-04-25T13:42:12.086Z</time></trkpt><trkpt lat="44.8773564" lon="7.9949955"><ele>221.5</ele><time>2026-04-25T13:42:13.086Z</time></trkpt><trkpt lat="44.8774729" lon="7.9949037"><ele>221.0</ele><time>2026-04-25T13:42:14.086Z</time></trkpt><trkpt lat="44.8775864" lon="7.9948181"><ele>220.5</ele><time>2026-04-25T13:42:15.086Z</time></trkpt><trkpt lat="44.8776934" lon="7.9947494"><ele>220.0</ele><time>2026-04-25T13:42:16.085Z</time></trkpt><trkpt lat="44.8777856" lon="7.9946722"><ele>219.66666666666666</ele><time>2026-04-25T13:42:17.085Z</time></trkpt><trkpt lat="44.8778713" lon="7.9946129"><ele>219.33333333333331</ele><time>2026-04-25T13:42:18.086Z</time></trkpt><trkpt lat="44.8779335" lon="7.9945617"><ele>219.0</ele><time>2026-04-25T13:42:19.085Z</time></trkpt><trkpt lat="44.8779848" lon="7.9945059"><ele>218.66666666666669</ele><time>2026-04-25T13:42:20.086Z</time></trkpt><trkpt lat="44.8780375" lon="7.9943547"><ele>218.33333333333334</ele><time>2026-04-25T13:42:22.086Z</time></trkpt><trkpt lat="44.8780192" lon="7.9942617"><ele>218.0</ele><time>2026-04-25T13:42:23.086Z</time></trkpt><trkpt lat="44.8779815" lon="7.9941537"><ele>217.75</ele><time>2026-04-25T13:42:24.085Z</time></trkpt><trkpt lat="44.8779322" lon="7.9940226"><ele>217.5</ele><time>2026-04-25T13:42:25.086Z</time></trkpt><trkpt lat="44.8778695" lon="7.9938759"><ele>217.25</ele><time>2026-04-25T13:42:26.086Z</time></trkpt><trkpt lat="44.8777996" lon="7.9937278"><ele>217.0</ele><time>2026-04-25T13:42:27.086Z</time></trkpt><trkpt lat="44.8777135" lon="7.9935829"><ele>217.0</ele><time>2026-04-25T13:42:28.086Z</time></trkpt><trkpt lat="44.8776397" lon="7.9934435"><ele>217.0</ele><time>2026-04-25T13:42:29.085Z</time></trkpt><trkpt lat="44.8775732" lon="7.9933208"><ele>217.0</ele><time>2026-04-25T13:42:30.086Z</time></trkpt><trkpt lat="44.8775148" lon="7.9932056"><ele>217.0</ele><time>2026-04-25T13:42:31.085Z</time></trkpt><trkpt lat="44.8774555" lon="7.9930947"><ele>217.0</ele><time>2026-04-25T13:42:32.086Z</time></trkpt><trkpt lat="44.8774085" lon="7.9929931"><ele>216.83333333333331</ele><time>2026-04-25T13:42:33.086Z</time></trkpt><trkpt lat="44.8773744" lon="7.9928906"><ele>216.66666666666666</ele><time>2026-04-25T13:42:34.086Z</time></trkpt><trkpt lat="44.8773527" lon="7.9927888"><ele>216.5</ele><time>2026-04-25T13:42:35.086Z</time></trkpt><trkpt lat="44.877361" lon="7.9926863"><ele>216.33333333333331</ele><time>2026-04-25T13:42:36.085Z</time></trkpt><trkpt lat="44.8773895" lon="7.9925665"><ele>216.16666666666666</ele><time>2026-04-25T13:42:37.086Z</time></trkpt><trkpt lat="44.8774224" lon="7.9924243"><ele>216.0</ele><time>2026-04-25T13:42:38.086Z</time></trkpt><trkpt lat="44.8774597" lon="7.9922706"><ele>215.8</ele><time>2026-04-25T13:42:39.085Z</time></trkpt><trkpt lat="44.8774895" lon="7.9921223"><ele>215.60000000000002</ele><time>2026-04-25T13:42:40.085Z</time></trkpt><trkpt lat="44.8775303" lon="7.9919934"><ele>215.4</ele><time>2026-04-25T13:42:41.086Z</time></trkpt><trkpt lat="44.8775891" lon="7.9918934"><ele>215.2</ele><time>2026-04-25T13:42:42.086Z</time></trkpt><trkpt lat="44.8776592" lon="7.9918271"><ele>215.0</ele><time>2026-04-25T13:42:43.086Z</time></trkpt><trkpt lat="44.8777388" lon="7.9917737"><ele>214.8</ele><time>2026-04-25T13:42:44.086Z</time></trkpt><trkpt lat="44.8778257" lon="7.9917152"><ele>214.6</ele><time>2026-04-25T13:42:45.086Z</time></trkpt><trkpt lat="44.8779136" lon="7.9916464"><ele>214.39999999999998</ele><time>2026-04-25T13:42:46.086Z</time></trkpt><trkpt lat="44.8779959" lon="7.9915856"><ele>214.2</ele><time>2026-04-25T13:42:47.086Z</time></trkpt><trkpt lat="44.878068" lon="7.9915071"><ele>214.0</ele><time>2026-04-25T13:42:48.085Z</time></trkpt><trkpt lat="44.8781294" lon="7.9914169"><ele>214.39999999999998</ele><time>2026-04-25T13:42:49.085Z</time></trkpt><trkpt lat="44.8781924" lon="7.9913036"><ele>214.79999999999998</ele><time>2026-04-25T13:42:50.086Z</time></trkpt><trkpt lat="44.878248" lon="7.9911806"><ele>215.20000000000002</ele><time>2026-04-25T13:42:51.085Z</time></trkpt><trkpt lat="44.878291" lon="7.9910446"><ele>215.60000000000002</ele><time>2026-04-25T13:42:52.085Z</time></trkpt><trkpt lat="44.8783075" lon="7.990881"><ele>216.0</ele><time>2026-04-25T13:42:53.086Z</time></trkpt><trkpt lat="44.8783095" lon="7.9907274"><ele>217.60000000000002</ele><time>2026-04-25T13:42:54.086Z</time></trkpt><trkpt lat="44.878312" lon="7.9905831"><ele>219.20000000000002</ele><time>2026-04-25T13:42:55.086Z</time></trkpt><trkpt lat="44.8783325" lon="7.9904564"><ele>220.79999999999998</ele><time>2026-04-25T13:42:56.086Z</time></trkpt><trkpt lat="44.8783709" lon="7.9903371"><ele>222.39999999999998</ele><time>2026-04-25T13:42:57.085Z</time></trkpt><trkpt lat="44.87841" lon="7.9902097"><ele>224.0</ele><time>2026-04-25T13:42:58.085Z</time></trkpt><trkpt lat="44.8784286" lon="7.9900804"><ele>225.79999999999998</ele><time>2026-04-25T13:42:59.085Z</time></trkpt><trkpt lat="44.8784087" lon="7.9899697"><ele>227.59999999999997</ele><time>2026-04-25T13:43:00.085Z</time></trkpt><trkpt lat="44.8783619" lon="7.9898576"><ele>229.4</ele><time>2026-04-25T13:43:01.085Z</time></trkpt><trkpt lat="44.8782833" lon="7.9897466"><ele>231.2</ele><time>2026-04-25T13:43:02.086Z</time></trkpt><trkpt lat="44.8782007" lon="7.9896431"><ele>233.0</ele><time>2026-04-25T13:43:03.086Z</time></trkpt><trkpt lat="44.8781061" lon="7.9895175"><ele>233.0</ele><time>2026-04-25T13:43:04.085Z</time></trkpt><trkpt lat="44.8780124" lon="7.9893946"><ele>233.0</ele><time>2026-04-25T13:43:05.085Z</time></trkpt><trkpt lat="44.8779234" lon="7.9892709"><ele>233.0</ele><time>2026-04-25T13:43:06.085Z</time></trkpt><trkpt lat="44.8778239" lon="7.9891566"><ele>233.0</ele><time>2026-04-25T13:43:07.085Z</time></trkpt><trkpt lat="44.8777327" lon="7.9890513"><ele>234.25</ele><time>2026-04-25T13:43:08.086Z</time></trkpt><trkpt lat="44.8776484" lon="7.9889358"><ele>235.5</ele><time>2026-04-25T13:43:09.086Z</time></trkpt><trkpt lat="44.8775816" lon="7.9888001"><ele>236.75</ele><time>2026-04-25T13:43:10.086Z</time></trkpt><trkpt lat="44.8775271" lon="7.9886471"><ele>238.0</ele><time>2026-04-25T13:43:11.086Z</time></trkpt><trkpt lat="44.8774677" lon="7.9884931"><ele>239.75</ele><time>2026-04-25T13:43:12.086Z</time></trkpt><trkpt lat="44.8774018" lon="7.988347"><ele>241.5</ele><time>2026-04-25T13:43:13.085Z</time></trkpt><trkpt lat="44.8773316" lon="7.9882083"><ele>243.25</ele><time>2026-04-25T13:43:14.086Z</time></trkpt><trkpt lat="44.8772494" lon="7.988098"><ele>245.0</ele><time>2026-04-25T13:43:15.085Z</time></trkpt><trkpt lat="44.8771711" lon="7.9879686"><ele>247.75</ele><time>2026-04-25T13:43:16.086Z</time></trkpt><trkpt lat="44.8770628" lon="7.9878717"><ele>250.5</ele><time>2026-04-25T13:43:17.086Z</time></trkpt><trkpt lat="44.8769451" lon="7.9877665"><ele>253.25</ele><time>2026-04-25T13:43:18.086Z</time></trkpt><trkpt lat="44.8768308" lon="7.9876538"><ele>256.0</ele><time>2026-04-25T13:43:19.086Z</time></trkpt><trkpt lat="44.8767196" lon="7.9875359"><ele>258.75</ele><time>2026-04-25T13:43:20.086Z</time></trkpt><trkpt lat="44.876608" lon="7.9874349"><ele>261.5</ele><time>2026-04-25T13:43:21.086Z</time></trkpt><trkpt lat="44.8764841" lon="7.9873417"><ele>264.25</ele><time>2026-04-25T13:43:22.086Z</time></trkpt><trkpt lat="44.8763532" lon="7.9872628"><ele>267.0</ele><time>2026-04-25T13:43:23.086Z</time></trkpt><trkpt lat="44.8762125" lon="7.9871888"><ele>267.0</ele><time>2026-04-25T13:43:24.086Z</time></trkpt><trkpt lat="44.8760671" lon="7.9871193"><ele>267.0</ele><time>2026-04-25T13:43:25.086Z</time></trkpt><trkpt lat="44.8759268" lon="7.9870478"><ele>267.0</ele><time>2026-04-25T13:43:26.086Z</time></trkpt><trkpt lat="44.8757823" lon="7.9870213"><ele>267.0</ele><time>2026-04-25T13:43:27.085Z</time></trkpt><trkpt lat="44.8756497" lon="7.9869388"><ele>269.25</ele><time>2026-04-25T13:43:28.086Z</time></trkpt><trkpt lat="44.8755182" lon="7.9868626"><ele>271.5</ele><time>2026-04-25T13:43:29.085Z</time></trkpt><trkpt lat="44.8753889" lon="7.9867868"><ele>273.75</ele><time>2026-04-25T13:43:30.086Z</time></trkpt><trkpt lat="44.8752757" lon="7.9866988"><ele>276.0</ele><time>2026-04-25T13:43:31.086Z</time></trkpt><trkpt lat="44.8751724" lon="7.9866065"><ele>276.75</ele><time>2026-04-25T13:43:32.085Z</time></trkpt><trkpt lat="44.8750928" lon="7.9865084"><ele>277.5</ele><time>2026-04-25T13:43:33.086Z</time></trkpt><trkpt lat="44.8750131" lon="7.9863748"><ele>278.25</ele><time>2026-04-25T13:43:34.086Z</time></trkpt><trkpt lat="44.874945" lon="7.9862138"><ele>279.0</ele><time>2026-04-25T13:43:35.085Z</time></trkpt><trkpt lat="44.8748856" lon="7.986045"><ele>279.0</ele><time>2026-04-25T13:43:36.086Z</time></trkpt><trkpt lat="44.8748326" lon="7.9858697"><ele>279.0</ele><time>2026-04-25T13:43:37.086Z</time></trkpt><trkpt lat="44.8747891" lon="7.9856908"><ele>279.0</ele><time>2026-04-25T13:43:38.085Z</time></trkpt><trkpt lat="44.8747443" lon="7.98552"><ele>279.0</ele><time>2026-04-25T13:43:39.086Z</time></trkpt><trkpt lat="44.8746876" lon="7.9853559"><ele>280.25</ele><time>2026-04-25T13:43:40.086Z</time></trkpt><trkpt lat="44.8746261" lon="7.9852165"><ele>281.5</ele><time>2026-04-25T13:43:41.086Z</time></trkpt><trkpt lat="44.8745863" lon="7.9850422"><ele>282.75</ele><time>2026-04-25T13:43:42.086Z</time></trkpt><trkpt lat="44.8745667" lon="7.9848658"><ele>284.0</ele><time>2026-04-25T13:43:43.086Z</time></trkpt><trkpt lat="44.8745442" lon="7.9846906"><ele>284.2</ele><time>2026-04-25T13:43:44.086Z</time></trkpt><trkpt lat="44.8745255" lon="7.984533"><ele>284.4</ele><time>2026-04-25T13:43:45.086Z</time></trkpt><trkpt lat="44.8744981" lon="7.9843818"><ele>284.6</ele><time>2026-04-25T13:43:46.086Z</time></trkpt><trkpt lat="44.8744559" lon="7.9842501"><ele>284.8</ele><time>2026-04-25T13:43:47.086Z</time></trkpt><trkpt lat="44.8744039" lon="7.984135"><ele>285.0</ele><time>2026-04-25T13:43:48.086Z</time></trkpt><trkpt lat="44.8743349" lon="7.9840181"><ele>288.5</ele><time>2026-04-25T13:43:49.086Z</time></trkpt><trkpt lat="44.8742356" lon="7.9839051"><ele>292.0</ele><time>2026-04-25T13:43:50.086Z</time></trkpt><trkpt lat="44.8741215" lon="7.9838029"><ele>295.5</ele><time>2026-04-25T13:43:51.086Z</time></trkpt><trkpt lat="44.874" lon="7.9836992"><ele>299.0</ele><time>2026-04-25T13:43:52.086Z</time></trkpt><trkpt lat="44.87387" lon="7.9836056"><ele>299.0</ele><time>2026-04-25T13:43:53.086Z</time></trkpt><trkpt lat="44.8737388" lon="7.9835282"><ele>299.0</ele><time>2026-04-25T13:43:54.086Z</time></trkpt><trkpt lat="44.873602" lon="7.9834767"><ele>299.0</ele><time>2026-04-25T13:43:55.085Z</time></trkpt><trkpt lat="44.8734728" lon="7.9834297"><ele>299.0</ele><time>2026-04-25T13:43:56.085Z</time></trkpt><trkpt lat="44.8733371" lon="7.9833925"><ele>299.0</ele><time>2026-04-25T13:43:57.085Z</time></trkpt><trkpt lat="44.8732163" lon="7.9833674"><ele>299.0</ele><time>2026-04-25T13:43:58.086Z</time></trkpt><trkpt lat="44.8731087" lon="7.9833244"><ele>299.0</ele><time>2026-04-25T13:43:59.085Z</time></trkpt><trkpt lat="44.8730054" lon="7.9832473"><ele>299.0</ele><time>2026-04-25T13:44:00.086Z</time></trkpt><trkpt lat="44.8729087" lon="7.9831343"><ele>299.25</ele><time>2026-04-25T13:44:01.086Z</time></trkpt><trkpt lat="44.8728082" lon="7.9830085"><ele>299.5</ele><time>2026-04-25T13:44:02.085Z</time></trkpt><trkpt lat="44.872709" lon="7.9828559"><ele>299.75</ele><time>2026-04-25T13:44:03.085Z</time></trkpt><trkpt lat="44.8726247" lon="7.9826999"><ele>300.0</ele><time>2026-04-25T13:44:04.086Z</time></trkpt><trkpt lat="44.8725232" lon="7.9825497"><ele>299.0</ele><time>2026-04-25T13:44:05.085Z</time></trkpt><trkpt lat="44.8724148" lon="7.9824026"><ele>298.0</ele><time>2026-04-25T13:44:06.086Z</time></trkpt><trkpt lat="44.872294" lon="7.982287"><ele>297.0</ele><time>2026-04-25T13:44:07.086Z</time></trkpt><trkpt lat="44.8721632" lon="7.9821977"><ele>296.0</ele><time>2026-04-25T13:44:08.086Z</time></trkpt><trkpt lat="44.8720288" lon="7.982121"><ele>296.0</ele><time>2026-04-25T13:44:09.086Z</time></trkpt><trkpt lat="44.8719021" lon="7.9820482"><ele>296.0</ele><time>2026-04-25T13:44:10.086Z</time></trkpt><trkpt lat="44.8717793" lon="7.981972"><ele>296.0</ele><time>2026-04-25T13:44:11.086Z</time></trkpt><trkpt lat="44.87167" lon="7.9818644"><ele>296.0</ele><time>2026-04-25T13:44:12.086Z</time></trkpt><trkpt lat="44.8715899" lon="7.9817191"><ele>294.0</ele><time>2026-04-25T13:44:13.086Z</time></trkpt><trkpt lat="44.871527" lon="7.9815443"><ele>292.0</ele><time>2026-04-25T13:44:14.086Z</time></trkpt><trkpt lat="44.8714833" lon="7.9813643"><ele>290.0</ele><time>2026-04-25T13:44:15.086Z</time></trkpt><trkpt lat="44.8714268" lon="7.9811835"><ele>288.0</ele><time>2026-04-25T13:44:16.086Z</time></trkpt><trkpt lat="44.8713506" lon="7.9810089"><ele>286.3333333333333</ele><time>2026-04-25T13:44:17.086Z</time></trkpt><trkpt lat="44.8712655" lon="7.9808374"><ele>284.66666666666663</ele><time>2026-04-25T13:44:18.086Z</time></trkpt><trkpt lat="44.8711679" lon="7.9806616"><ele>283.0</ele><time>2026-04-25T13:44:19.086Z</time></trkpt><trkpt lat="44.8710741" lon="7.9804658"><ele>283.0</ele><time>2026-04-25T13:44:20.086Z</time></trkpt><trkpt lat="44.8709752" lon="7.9802702"><ele>283.0</ele><time>2026-04-25T13:44:21.086Z</time></trkpt><trkpt lat="44.8708723" lon="7.9800785"><ele>283.0</ele><time>2026-04-25T13:44:22.086Z</time></trkpt><trkpt lat="44.8707592" lon="7.979885"><ele>286.0</ele><time>2026-04-25T13:44:23.086Z</time></trkpt><trkpt lat="44.870644" lon="7.9797073"><ele>289.0</ele><time>2026-04-25T13:44:24.086Z</time></trkpt><trkpt lat="44.8705299" lon="7.9795337"><ele>292.0</ele><time>2026-04-25T13:44:25.085Z</time></trkpt><trkpt lat="44.8704256" lon="7.979372"><ele>292.0</ele><time>2026-04-25T13:44:26.085Z</time></trkpt><trkpt lat="44.8703242" lon="7.9792148"><ele>292.0</ele><time>2026-04-25T13:44:27.086Z</time></trkpt><trkpt lat="44.8702596" lon="7.9790396"><ele>292.0</ele><time>2026-04-25T13:44:28.086Z</time></trkpt><trkpt lat="44.8701947" lon="7.9788814"><ele>292.0</ele><time>2026-04-25T13:44:29.086Z</time></trkpt><trkpt lat="44.8701342" lon="7.9787175"><ele>292.75</ele><time>2026-04-25T13:44:30.086Z</time></trkpt><trkpt lat="44.8700767" lon="7.9785462"><ele>293.5</ele><time>2026-04-25T13:44:31.086Z</time></trkpt><trkpt lat="44.8700214" lon="7.9783639"><ele>294.25</ele><time>2026-04-25T13:44:32.086Z</time></trkpt><trkpt lat="44.8699628" lon="7.9781764"><ele>295.0</ele><time>2026-04-25T13:44:33.086Z</time></trkpt><trkpt lat="44.8699012" lon="7.9779807"><ele>295.66666666666663</ele><time>2026-04-25T13:44:34.086Z</time></trkpt><trkpt lat="44.8698529" lon="7.9777659"><ele>296.3333333333333</ele><time>2026-04-25T13:44:35.086Z</time></trkpt><trkpt lat="44.8697996" lon="7.9775459"><ele>297.0</ele><time>2026-04-25T13:44:36.085Z</time></trkpt><trkpt lat="44.8697523" lon="7.9773162"><ele>297.0</ele><time>2026-04-25T13:44:37.086Z</time></trkpt><trkpt lat="44.8697001" lon="7.9770943"><ele>297.0</ele><time>2026-04-25T13:44:38.085Z</time></trkpt><trkpt lat="44.8696472" lon="7.9768873"><ele>297.0</ele><time>2026-04-25T13:44:39.086Z</time></trkpt><trkpt lat="44.8695991" lon="7.9767099"><ele>298.75</ele><time>2026-04-25T13:44:40.086Z</time></trkpt><trkpt lat="44.869544" lon="7.9765652"><ele>300.5</ele><time>2026-04-25T13:44:41.086Z</time></trkpt><trkpt lat="44.8694955" lon="7.9764244"><ele>302.25</ele><time>2026-04-25T13:44:42.085Z</time></trkpt><trkpt lat="44.8694644" lon="7.9762748"><ele>304.0</ele><time>2026-04-25T13:44:43.086Z</time></trkpt><trkpt lat="44.8694496" lon="7.9761167"><ele>304.0</ele><time>2026-04-25T13:44:44.086Z</time></trkpt><trkpt lat="44.8694583" lon="7.9759417"><ele>304.0</ele><time>2026-04-25T13:44:45.086Z</time></trkpt><trkpt lat="44.8694822" lon="7.9757587"><ele>304.0</ele><time>2026-04-25T13:44:46.086Z</time></trkpt><trkpt lat="44.8695096" lon="7.9755535"><ele>304.0</ele><time>2026-04-25T13:44:47.086Z</time></trkpt><trkpt lat="44.8695361" lon="7.9753577"><ele>304.0</ele><time>2026-04-25T13:44:48.085Z</time></trkpt><trkpt lat="44.8695641" lon="7.9751585"><ele>304.0</ele><time>2026-04-25T13:44:49.085Z</time></trkpt><trkpt lat="44.8695939" lon="7.9749455"><ele>304.0</ele><time>2026-04-25T13:44:50.086Z</time></trkpt><trkpt lat="44.869629" lon="7.9747279"><ele>300.3333333333333</ele><time>2026-04-25T13:44:51.086Z</time></trkpt><trkpt lat="44.8696812" lon="7.9745303"><ele>296.6666666666667</ele><time>2026-04-25T13:44:52.086Z</time></trkpt><trkpt lat="44.8697298" lon="7.9743109"><ele>293.0</ele><time>2026-04-25T13:44:53.086Z</time></trkpt><trkpt lat="44.8697701" lon="7.9740875"><ele>292.33333333333337</ele><time>2026-04-25T13:44:54.086Z</time></trkpt><trkpt lat="44.8698066" lon="7.9738824"><ele>291.6666666666667</ele><time>2026-04-25T13:44:55.086Z</time></trkpt><trkpt lat="44.8698268" lon="7.9736695"><ele>291.0</ele><time>2026-04-25T13:44:56.086Z</time></trkpt><trkpt lat="44.8698334" lon="7.9734575"><ele>290.75</ele><time>2026-04-25T13:44:57.086Z</time></trkpt><trkpt lat="44.8698225" lon="7.9732426"><ele>290.5</ele><time>2026-04-25T13:44:58.086Z</time></trkpt><trkpt lat="44.869787" lon="7.9730549"><ele>290.25</ele><time>2026-04-25T13:44:59.086Z</time></trkpt><trkpt lat="44.8697226" lon="7.9728569"><ele>290.0</ele><time>2026-04-25T13:45:00.086Z</time></trkpt><trkpt lat="44.8696313" lon="7.9726735"><ele>291.33333333333337</ele><time>2026-04-25T13:45:01.086Z</time></trkpt><trkpt lat="44.8695328" lon="7.9724925"><ele>292.6666666666667</ele><time>2026-04-25T13:45:02.086Z</time></trkpt><trkpt lat="44.8694344" lon="7.9723046"><ele>294.0</ele><time>2026-04-25T13:45:03.086Z</time></trkpt><trkpt lat="44.8693392" lon="7.9721253"><ele>293.6666666666667</ele><time>2026-04-25T13:45:04.086Z</time></trkpt><trkpt lat="44.8692532" lon="7.9719457"><ele>293.33333333333337</ele><time>2026-04-25T13:45:05.086Z</time></trkpt><trkpt lat="44.8691733" lon="7.9717607"><ele>293.0</ele><time>2026-04-25T13:45:06.086Z</time></trkpt><trkpt lat="44.8691054" lon="7.9715816"><ele>297.0</ele><time>2026-04-25T13:45:07.086Z</time></trkpt><trkpt lat="44.8690656" lon="7.9713973"><ele>301.0</ele><time>2026-04-25T13:45:08.086Z</time></trkpt><trkpt lat="44.8690293" lon="7.9712174"><ele>305.0</ele><time>2026-04-25T13:45:09.086Z</time></trkpt><trkpt lat="44.8690161" lon="7.9710311"><ele>309.0</ele><time>2026-04-25T13:45:10.086Z</time></trkpt><trkpt lat="44.8690115" lon="7.9708428"><ele>311.5</ele><time>2026-04-25T13:45:11.086Z</time></trkpt><trkpt lat="44.8690085" lon="7.9706546"><ele>314.0</ele><time>2026-04-25T13:45:12.086Z</time></trkpt><trkpt lat="44.8690067" lon="7.9704849"><ele>316.5</ele><time>2026-04-25T13:45:13.086Z</time></trkpt><trkpt lat="44.8690004" lon="7.9703216"><ele>319.0</ele><time>2026-04-25T13:45:14.085Z</time></trkpt><trkpt lat="44.8689809" lon="7.970193"><ele>319.0</ele><time>2026-04-25T13:45:15.086Z</time></trkpt><trkpt lat="44.8689577" lon="7.9700478"><ele>319.0</ele><time>2026-04-25T13:45:16.085Z</time></trkpt><trkpt lat="44.8689183" lon="7.9699004"><ele>319.0</ele><time>2026-04-25T13:45:17.086Z</time></trkpt><trkpt lat="44.8688705" lon="7.9697343"><ele>319.0</ele><time>2026-04-25T13:45:18.085Z</time></trkpt><trkpt lat="44.8688146" lon="7.9695557"><ele>318.5</ele><time>2026-04-25T13:45:19.085Z</time></trkpt><trkpt lat="44.868754" lon="7.9693779"><ele>318.0</ele><time>2026-04-25T13:45:20.086Z</time></trkpt><trkpt lat="44.8687055" lon="7.9691982"><ele>317.5</ele><time>2026-04-25T13:45:21.085Z</time></trkpt><trkpt lat="44.8686711" lon="7.9690008"><ele>317.0</ele><time>2026-04-25T13:45:22.085Z</time></trkpt><trkpt lat="44.8686366" lon="7.9687902"><ele>317.0</ele><time>2026-04-25T13:45:23.085Z</time></trkpt><trkpt lat="44.8686069" lon="7.9685688"><ele>317.0</ele><time>2026-04-25T13:45:24.085Z</time></trkpt><trkpt lat="44.8685763" lon="7.9683541"><ele>317.0</ele><time>2026-04-25T13:45:25.086Z</time></trkpt><trkpt lat="44.8685526" lon="7.9681387"><ele>317.25</ele><time>2026-04-25T13:45:26.086Z</time></trkpt><trkpt lat="44.8685401" lon="7.9679365"><ele>317.5</ele><time>2026-04-25T13:45:27.086Z</time></trkpt><trkpt lat="44.8685428" lon="7.9677329"><ele>317.75</ele><time>2026-04-25T13:45:28.086Z</time></trkpt><trkpt lat="44.8685615" lon="7.9675255"><ele>318.0</ele><time>2026-04-25T13:45:29.085Z</time></trkpt><trkpt lat="44.8685895" lon="7.967319"><ele>317.25</ele><time>2026-04-25T13:45:30.086Z</time></trkpt><trkpt lat="44.8686276" lon="7.9671154"><ele>316.5</ele><time>2026-04-25T13:45:31.086Z</time></trkpt><trkpt lat="44.868664" lon="7.9669148"><ele>315.75</ele><time>2026-04-25T13:45:32.086Z</time></trkpt><trkpt lat="44.8686975" lon="7.9667303"><ele>315.0</ele><time>2026-04-25T13:45:33.086Z</time></trkpt><trkpt lat="44.8687351" lon="7.9665546"><ele>315.0</ele><time>2026-04-25T13:45:34.086Z</time></trkpt><trkpt lat="44.8687463" lon="7.9663937"><ele>315.0</ele><time>2026-04-25T13:45:35.086Z</time></trkpt><trkpt lat="44.8687387" lon="7.9662351"><ele>315.0</ele><time>2026-04-25T13:45:36.085Z</time></trkpt><trkpt lat="44.8686987" lon="7.9660705"><ele>315.0</ele><time>2026-04-25T13:45:37.085Z</time></trkpt><trkpt lat="44.8686393" lon="7.9659009"><ele>315.75</ele><time>2026-04-25T13:45:38.086Z</time></trkpt><trkpt lat="44.8685751" lon="7.9657301"><ele>316.5</ele><time>2026-04-25T13:45:39.085Z</time></trkpt><trkpt lat="44.8685153" lon="7.965574"><ele>317.25</ele><time>2026-04-25T13:45:40.086Z</time></trkpt><trkpt lat="44.8684719" lon="7.9654227"><ele>318.0</ele><time>2026-04-25T13:45:41.086Z</time></trkpt><trkpt lat="44.868437" lon="7.9652557"><ele>319.0</ele><time>2026-04-25T13:45:42.086Z</time></trkpt><trkpt lat="44.868417" lon="7.9650576"><ele>320.0</ele><time>2026-04-25T13:45:43.086Z</time></trkpt><trkpt lat="44.8684051" lon="7.964851"><ele>321.0</ele><time>2026-04-25T13:45:44.086Z</time></trkpt><trkpt lat="44.8683959" lon="7.9646462"><ele>322.0</ele><time>2026-04-25T13:45:45.086Z</time></trkpt><trkpt lat="44.8683851" lon="7.9644648"><ele>322.20000000000005</ele><time>2026-04-25T13:45:46.085Z</time></trkpt><trkpt lat="44.868383" lon="7.9643008"><ele>322.4</ele><time>2026-04-25T13:45:47.086Z</time></trkpt><trkpt lat="44.8683802" lon="7.9641607"><ele>322.6</ele><time>2026-04-25T13:45:48.085Z</time></trkpt><trkpt lat="44.868374" lon="7.9640702"><ele>322.79999999999995</ele><time>2026-04-25T13:45:49.086Z</time></trkpt><trkpt lat="44.8683502" lon="7.9639437"><ele>323.0</ele><time>2026-04-25T13:45:52.086Z</time></trkpt><trkpt lat="44.8682875" lon="7.9638596"><ele>323.0</ele><time>2026-04-25T13:45:54.085Z</time></trkpt><trkpt lat="44.8682284" lon="7.9638133"><ele>323.0</ele><time>2026-04-25T13:45:55.085Z</time></trkpt><trkpt lat="44.8681602" lon="7.9637694"><ele>323.0</ele><time>2026-04-25T13:45:56.086Z</time></trkpt><trkpt lat="44.8680761" lon="7.9637357"><ele>323.0</ele><time>2026-04-25T13:45:57.086Z</time></trkpt><trkpt lat="44.8679811" lon="7.9637193"><ele>323.0</ele><time>2026-04-25T13:45:58.086Z</time></trkpt><trkpt lat="44.8678792" lon="7.9637123"><ele>323.0</ele><time>2026-04-25T13:45:59.086Z</time></trkpt><trkpt lat="44.8677527" lon="7.9637397"><ele>323.0</ele><time>2026-04-25T13:46:00.086Z</time></trkpt><trkpt lat="44.8676176" lon="7.963786"><ele>323.0</ele><time>2026-04-25T13:46:01.086Z</time></trkpt><trkpt lat="44.8674765" lon="7.9638472"><ele>323.0</ele><time>2026-04-25T13:46:02.086Z</time></trkpt><trkpt lat="44.8673325" lon="7.9639056"><ele>323.0</ele><time>2026-04-25T13:46:03.086Z</time></trkpt><trkpt lat="44.8671848" lon="7.9639671"><ele>322.33333333333337</ele><time>2026-04-25T13:46:04.085Z</time></trkpt><trkpt lat="44.8670343" lon="7.9640276"><ele>321.6666666666667</ele><time>2026-04-25T13:46:05.086Z</time></trkpt><trkpt lat="44.8668815" lon="7.9640937"><ele>321.0</ele><time>2026-04-25T13:46:06.085Z</time></trkpt><trkpt lat="44.866719" lon="7.9641507"><ele>316.3333333333333</ele><time>2026-04-25T13:46:07.086Z</time></trkpt><trkpt lat="44.8665619" lon="7.964204"><ele>311.66666666666663</ele><time>2026-04-25T13:46:08.086Z</time></trkpt><trkpt lat="44.8664031" lon="7.9642396"><ele>307.0</ele><time>2026-04-25T13:46:09.086Z</time></trkpt><trkpt lat="44.866251" lon="7.964273"><ele>307.0</ele><time>2026-04-25T13:46:10.086Z</time></trkpt><trkpt lat="44.8661017" lon="7.96433"><ele>307.0</ele><time>2026-04-25T13:46:11.085Z</time></trkpt><trkpt lat="44.8659588" lon="7.9644099"><ele>307.0</ele><time>2026-04-25T13:46:12.085Z</time></trkpt><trkpt lat="44.8658103" lon="7.9645059"><ele>307.0</ele><time>2026-04-25T13:46:13.086Z</time></trkpt><trkpt lat="44.8656582" lon="7.964598"><ele>307.0</ele><time>2026-04-25T13:46:14.085Z</time></trkpt><trkpt lat="44.8654931" lon="7.9646704"><ele>307.0</ele><time>2026-04-25T13:46:15.086Z</time></trkpt><trkpt lat="44.8653234" lon="7.9647145"><ele>307.0</ele><time>2026-04-25T13:46:16.086Z</time></trkpt><trkpt lat="44.8651514" lon="7.9647426"><ele>307.0</ele><time>2026-04-25T13:46:17.085Z</time></trkpt><trkpt lat="44.86498" lon="7.9647731"><ele>307.0</ele><time>2026-04-25T13:46:18.086Z</time></trkpt><trkpt lat="44.8648123" lon="7.9648018"><ele>308.5</ele><time>2026-04-25T13:46:19.085Z</time></trkpt><trkpt lat="44.8646538" lon="7.9648227"><ele>310.0</ele><time>2026-04-25T13:46:20.086Z</time></trkpt><trkpt lat="44.8645047" lon="7.9648141"><ele>311.5</ele><time>2026-04-25T13:46:21.086Z</time></trkpt><trkpt lat="44.8643775" lon="7.9647559"><ele>313.0</ele><time>2026-04-25T13:46:22.086Z</time></trkpt><trkpt lat="44.8642562" lon="7.9646627"><ele>313.0</ele><time>2026-04-25T13:46:23.086Z</time></trkpt><trkpt lat="44.8641378" lon="7.9645553"><ele>313.0</ele><time>2026-04-25T13:46:24.085Z</time></trkpt><trkpt lat="44.8640177" lon="7.9644293"><ele>313.0</ele><time>2026-04-25T13:46:25.086Z</time></trkpt><trkpt lat="44.8639094" lon="7.9642847"><ele>313.0</ele><time>2026-04-25T13:46:26.086Z</time></trkpt><trkpt lat="44.8638479" lon="7.9640876"><ele>315.3333333333333</ele><time>2026-04-25T13:46:27.085Z</time></trkpt><trkpt lat="44.8637894" lon="7.9638884"><ele>317.6666666666667</ele><time>2026-04-25T13:46:28.085Z</time></trkpt><trkpt lat="44.8637369" lon="7.9636729"><ele>320.0</ele><time>2026-04-25T13:46:29.086Z</time></trkpt><trkpt lat="44.8636805" lon="7.9634601"><ele>320.0</ele><time>2026-04-25T13:46:30.085Z</time></trkpt><trkpt lat="44.8636271" lon="7.9632367"><ele>320.0</ele><time>2026-04-25T13:46:31.086Z</time></trkpt><trkpt lat="44.8635755" lon="7.9630292"><ele>320.0</ele><time>2026-04-25T13:46:32.085Z</time></trkpt><trkpt lat="44.8635252" lon="7.9628393"><ele>320.0</ele><time>2026-04-25T13:46:33.086Z</time></trkpt><trkpt lat="44.8634788" lon="7.9626531"><ele>320.0</ele><time>2026-04-25T13:46:34.086Z</time></trkpt><trkpt lat="44.8634204" lon="7.9624802"><ele>320.0</ele><time>2026-04-25T13:46:35.086Z</time></trkpt><trkpt lat="44.8633437" lon="7.9623318"><ele>320.0</ele><time>2026-04-25T13:46:36.086Z</time></trkpt><trkpt lat="44.8632347" lon="7.9622098"><ele>320.0</ele><time>2026-04-25T13:46:37.086Z</time></trkpt><trkpt lat="44.8631124" lon="7.9621023"><ele>320.0</ele><time>2026-04-25T13:46:38.086Z</time></trkpt><trkpt lat="44.8629617" lon="7.9620349"><ele>320.0</ele><time>2026-04-25T13:46:39.085Z</time></trkpt><trkpt lat="44.8628002" lon="7.9619809"><ele>320.0</ele><time>2026-04-25T13:46:40.085Z</time></trkpt><trkpt lat="44.8626332" lon="7.9619411"><ele>320.0</ele><time>2026-04-25T13:46:41.086Z</time></trkpt><trkpt lat="44.8624713" lon="7.9618786"><ele>320.0</ele><time>2026-04-25T13:46:42.086Z</time></trkpt><trkpt lat="44.8623102" lon="7.9618219"><ele>321.0</ele><time>2026-04-25T13:46:43.086Z</time></trkpt><trkpt lat="44.8621549" lon="7.9617716"><ele>322.0</ele><time>2026-04-25T13:46:44.086Z</time></trkpt><trkpt lat="44.8620021" lon="7.9617068"><ele>323.0</ele><time>2026-04-25T13:46:45.086Z</time></trkpt><trkpt lat="44.8618581" lon="7.9616607"><ele>323.0</ele><time>2026-04-25T13:46:46.085Z</time></trkpt><trkpt lat="44.861714" lon="7.9616049"><ele>323.0</ele><time>2026-04-25T13:46:47.085Z</time></trkpt><trkpt lat="44.8615713" lon="7.9615692"><ele>323.0</ele><time>2026-04-25T13:46:48.085Z</time></trkpt><trkpt lat="44.8614302" lon="7.961555"><ele>323.0</ele><time>2026-04-25T13:46:49.085Z</time></trkpt><trkpt lat="44.8612779" lon="7.9615777"><ele>323.0</ele><time>2026-04-25T13:46:50.086Z</time></trkpt><trkpt lat="44.8611247" lon="7.9616226"><ele>323.0</ele><time>2026-04-25T13:46:51.086Z</time></trkpt><trkpt lat="44.8609658" lon="7.9616804"><ele>323.0</ele><time>2026-04-25T13:46:52.086Z</time></trkpt><trkpt lat="44.8608051" lon="7.9617295"><ele>320.6666666666667</ele><time>2026-04-25T13:46:53.086Z</time></trkpt><trkpt lat="44.8606391" lon="7.961767"><ele>318.3333333333333</ele><time>2026-04-25T13:46:54.086Z</time></trkpt><trkpt lat="44.8604771" lon="7.9617818"><ele>316.0</ele><time>2026-04-25T13:46:55.086Z</time></trkpt><trkpt lat="44.8603105" lon="7.9617955"><ele>316.0</ele><time>2026-04-25T13:46:56.086Z</time></trkpt><trkpt lat="44.8601583" lon="7.9617927"><ele>316.0</ele><time>2026-04-25T13:46:57.086Z</time></trkpt><trkpt lat="44.8600004" lon="7.9617821"><ele>316.0</ele><time>2026-04-25T13:46:58.086Z</time></trkpt><trkpt lat="44.8598406" lon="7.9617922"><ele>317.66666666666663</ele><time>2026-04-25T13:46:59.086Z</time></trkpt><trkpt lat="44.8596817" lon="7.9617877"><ele>319.3333333333333</ele><time>2026-04-25T13:47:00.086Z</time></trkpt><trkpt lat="44.859527" lon="7.9617934"><ele>321.0</ele><time>2026-04-25T13:47:01.086Z</time></trkpt><trkpt lat="44.859374" lon="7.9617829"><ele>319.75</ele><time>2026-04-25T13:47:02.086Z</time></trkpt><trkpt lat="44.8592115" lon="7.9617959"><ele>318.5</ele><time>2026-04-25T13:47:03.086Z</time></trkpt><trkpt lat="44.8590693" lon="7.9618057"><ele>317.25</ele><time>2026-04-25T13:47:04.085Z</time></trkpt><trkpt lat="44.8589462" lon="7.9618042"><ele>316.0</ele><time>2026-04-25T13:47:05.085Z</time></trkpt><trkpt lat="44.8588353" lon="7.9617664"><ele>318.20000000000005</ele><time>2026-04-25T13:47:06.086Z</time></trkpt><trkpt lat="44.8587376" lon="7.9616958"><ele>320.40000000000003</ele><time>2026-04-25T13:47:07.086Z</time></trkpt><trkpt lat="44.8586511" lon="7.9616028"><ele>322.6</ele><time>2026-04-25T13:47:08.085Z</time></trkpt><trkpt lat="44.8585862" lon="7.9614796"><ele>324.8</ele><time>2026-04-25T13:47:09.086Z</time></trkpt><trkpt lat="44.85855" lon="7.9613245"><ele>327.0</ele><time>2026-04-25T13:47:10.086Z</time></trkpt><trkpt lat="44.8585486" lon="7.9611349"><ele>327.0</ele><time>2026-04-25T13:47:11.086Z</time></trkpt><trkpt lat="44.8585416" lon="7.9609466"><ele>327.0</ele><time>2026-04-25T13:47:12.085Z</time></trkpt><trkpt lat="44.8585412" lon="7.9607429"><ele>327.0</ele><time>2026-04-25T13:47:13.086Z</time></trkpt><trkpt lat="44.8585339" lon="7.9605482"><ele>327.0</ele><time>2026-04-25T13:47:14.086Z</time></trkpt><trkpt lat="44.8585101" lon="7.9603796"><ele>327.5</ele><time>2026-04-25T13:47:15.086Z</time></trkpt><trkpt lat="44.858463" lon="7.9602434"><ele>328.0</ele><time>2026-04-25T13:47:16.086Z</time></trkpt><trkpt lat="44.8583814" lon="7.9601143"><ele>328.5</ele><time>2026-04-25T13:47:17.085Z</time></trkpt><trkpt lat="44.8582735" lon="7.9600091"><ele>329.0</ele><time>2026-04-25T13:47:18.086Z</time></trkpt><trkpt lat="44.8581507" lon="7.9599179"><ele>326.33333333333337</ele><time>2026-04-25T13:47:19.085Z</time></trkpt><trkpt lat="44.8579873" lon="7.9598537"><ele>323.6666666666667</ele><time>2026-04-25T13:47:20.085Z</time></trkpt><trkpt lat="44.8578187" lon="7.9597805"><ele>321.0</ele><time>2026-04-25T13:47:21.086Z</time></trkpt><trkpt lat="44.8576396" lon="7.9597235"><ele>321.0</ele><time>2026-04-25T13:47:22.086Z</time></trkpt><trkpt lat="44.8574395" lon="7.9596788"><ele>321.0</ele><time>2026-04-25T13:47:23.086Z</time></trkpt><trkpt lat="44.8572503" lon="7.9596714"><ele>321.0</ele><time>2026-04-25T13:47:24.086Z</time></trkpt><trkpt lat="44.857065" lon="7.9596589"><ele>321.0</ele><time>2026-04-25T13:47:25.085Z</time></trkpt><trkpt lat="44.8568857" lon="7.9596239"><ele>321.0</ele><time>2026-04-25T13:47:26.086Z</time></trkpt><trkpt lat="44.8567133" lon="7.9595666"><ele>321.0</ele><time>2026-04-25T13:47:27.086Z</time></trkpt><trkpt lat="44.8565548" lon="7.959478"><ele>320.6666666666667</ele><time>2026-04-25T13:47:28.086Z</time></trkpt><trkpt lat="44.8564082" lon="7.9593517"><ele>320.33333333333337</ele><time>2026-04-25T13:47:29.086Z</time></trkpt><trkpt lat="44.8562855" lon="7.9591826"><ele>320.0</ele><time>2026-04-25T13:47:30.086Z</time></trkpt><trkpt lat="44.8561506" lon="7.9590169"><ele>320.6666666666667</ele><time>2026-04-25T13:47:31.085Z</time></trkpt><trkpt lat="44.8560127" lon="7.9588453"><ele>321.3333333333333</ele><time>2026-04-25T13:47:32.085Z</time></trkpt><trkpt lat="44.8558792" lon="7.958666"><ele>322.0</ele><time>2026-04-25T13:47:33.085Z</time></trkpt><trkpt lat="44.8557522" lon="7.9584989"><ele>324.0</ele><time>2026-04-25T13:47:34.086Z</time></trkpt><trkpt lat="44.8556245" lon="7.9583244"><ele>326.0</ele><time>2026-04-25T13:47:35.085Z</time></trkpt><trkpt lat="44.8555053" lon="7.9581561"><ele>328.0</ele><time>2026-04-25T13:47:36.085Z</time></trkpt><trkpt lat="44.8554066" lon="7.9579895"><ele>328.0</ele><time>2026-04-25T13:47:37.085Z</time></trkpt><trkpt lat="44.8553177" lon="7.9578282"><ele>328.0</ele><time>2026-04-25T13:47:38.085Z</time></trkpt><trkpt lat="44.8552312" lon="7.9576841"><ele>328.0</ele><time>2026-04-25T13:47:39.086Z</time></trkpt><trkpt lat="44.8551462" lon="7.9575588"><ele>328.0</ele><time>2026-04-25T13:47:40.086Z</time></trkpt><trkpt lat="44.8550514" lon="7.9574411"><ele>329.25</ele><time>2026-04-25T13:47:41.086Z</time></trkpt><trkpt lat="44.8549416" lon="7.9573356"><ele>330.5</ele><time>2026-04-25T13:47:42.086Z</time></trkpt><trkpt lat="44.8548144" lon="7.9572366"><ele>331.75</ele><time>2026-04-25T13:47:43.085Z</time></trkpt><trkpt lat="44.8546844" lon="7.9571306"><ele>333.0</ele><time>2026-04-25T13:47:44.086Z</time></trkpt><trkpt lat="44.8545412" lon="7.9570166"><ele>333.0</ele><time>2026-04-25T13:47:45.086Z</time></trkpt><trkpt lat="44.8544082" lon="7.9569036"><ele>333.0</ele><time>2026-04-25T13:47:46.086Z</time></trkpt><trkpt lat="44.8542798" lon="7.9567923"><ele>333.0</ele><time>2026-04-25T13:47:47.085Z</time></trkpt><trkpt lat="44.8541424" lon="7.9566666"><ele>334.6666666666667</ele><time>2026-04-25T13:47:48.085Z</time></trkpt><trkpt lat="44.8540115" lon="7.9565391"><ele>336.33333333333337</ele><time>2026-04-25T13:47:49.086Z</time></trkpt><trkpt lat="44.8538729" lon="7.9564041"><ele>338.0</ele><time>2026-04-25T13:47:50.086Z</time></trkpt><trkpt lat="44.8537192" lon="7.9562632"><ele>338.0</ele><time>2026-04-25T13:47:51.086Z</time></trkpt><trkpt lat="44.8535701" lon="7.9561297"><ele>338.0</ele><time>2026-04-25T13:47:52.086Z</time></trkpt><trkpt lat="44.853431" lon="7.9559969"><ele>338.0</ele><time>2026-04-25T13:47:53.086Z</time></trkpt><trkpt lat="44.8532903" lon="7.9558649"><ele>337.6666666666667</ele><time>2026-04-25T13:47:54.085Z</time></trkpt><trkpt lat="44.8531568" lon="7.9557436"><ele>337.3333333333333</ele><time>2026-04-25T13:47:55.085Z</time></trkpt><trkpt lat="44.8530161" lon="7.9556188"><ele>337.0</ele><time>2026-04-25T13:47:56.086Z</time></trkpt><trkpt lat="44.8528764" lon="7.9555015"><ele>337.0</ele><time>2026-04-25T13:47:57.086Z</time></trkpt><trkpt lat="44.8527246" lon="7.9553905"><ele>337.0</ele><time>2026-04-25T13:47:58.086Z</time></trkpt><trkpt lat="44.8525643" lon="7.9552954"><ele>337.0</ele><time>2026-04-25T13:47:59.086Z</time></trkpt><trkpt lat="44.8523988" lon="7.9551899"><ele>336.66666666666663</ele><time>2026-04-25T13:48:00.086Z</time></trkpt><trkpt lat="44.8522314" lon="7.9550845"><ele>336.3333333333333</ele><time>2026-04-25T13:48:01.085Z</time></trkpt><trkpt lat="44.8520619" lon="7.9549706"><ele>336.0</ele><time>2026-04-25T13:48:02.085Z</time></trkpt><trkpt lat="44.851892" lon="7.9548686"><ele>336.6666666666667</ele><time>2026-04-25T13:48:03.086Z</time></trkpt><trkpt lat="44.8517274" lon="7.9547628"><ele>337.33333333333337</ele><time>2026-04-25T13:48:04.086Z</time></trkpt><trkpt lat="44.8515703" lon="7.9546662"><ele>338.0</ele><time>2026-04-25T13:48:05.086Z</time></trkpt><trkpt lat="44.8514177" lon="7.9545708"><ele>338.0</ele><time>2026-04-25T13:48:06.086Z</time></trkpt><trkpt lat="44.8512696" lon="7.9544797"><ele>338.0</ele><time>2026-04-25T13:48:07.086Z</time></trkpt><trkpt lat="44.8511267" lon="7.9543913"><ele>338.0</ele><time>2026-04-25T13:48:08.085Z</time></trkpt><trkpt lat="44.8509789" lon="7.9543063"><ele>338.33333333333337</ele><time>2026-04-25T13:48:09.085Z</time></trkpt><trkpt lat="44.8508326" lon="7.954218"><ele>338.6666666666667</ele><time>2026-04-25T13:48:10.086Z</time></trkpt><trkpt lat="44.850688" lon="7.9541309"><ele>339.0</ele><time>2026-04-25T13:48:11.086Z</time></trkpt><trkpt lat="44.8505471" lon="7.9540478"><ele>339.0</ele><time>2026-04-25T13:48:12.085Z</time></trkpt><trkpt lat="44.8504121" lon="7.9539589"><ele>339.0</ele><time>2026-04-25T13:48:13.086Z</time></trkpt><trkpt lat="44.8502737" lon="7.9538796"><ele>339.0</ele><time>2026-04-25T13:48:14.086Z</time></trkpt><trkpt lat="44.8501281" lon="7.9537923"><ele>338.6666666666667</ele><time>2026-04-25T13:48:15.086Z</time></trkpt><trkpt lat="44.8499741" lon="7.9537483"><ele>338.33333333333337</ele><time>2026-04-25T13:48:16.086Z</time></trkpt><trkpt lat="44.8498125" lon="7.9537382"><ele>338.0</ele><time>2026-04-25T13:48:17.086Z</time></trkpt><trkpt lat="44.8496537" lon="7.953763"><ele>338.0</ele><time>2026-04-25T13:48:18.085Z</time></trkpt><trkpt lat="44.8494693" lon="7.9538435"><ele>338.0</ele><time>2026-04-25T13:48:19.086Z</time></trkpt><trkpt lat="44.8492781" lon="7.9539447"><ele>338.0</ele><time>2026-04-25T13:48:20.086Z</time></trkpt><trkpt lat="44.8490772" lon="7.9540475"><ele>338.33333333333337</ele><time>2026-04-25T13:48:21.086Z</time></trkpt><trkpt lat="44.8488636" lon="7.9541393"><ele>338.6666666666667</ele><time>2026-04-25T13:48:22.086Z</time></trkpt><trkpt lat="44.8486477" lon="7.9542267"><ele>339.0</ele><time>2026-04-25T13:48:23.086Z</time></trkpt><trkpt lat="44.8484365" lon="7.9542832"><ele>339.3333333333333</ele><time>2026-04-25T13:48:24.085Z</time></trkpt><trkpt lat="44.8482317" lon="7.9543184"><ele>339.66666666666663</ele><time>2026-04-25T13:48:25.086Z</time></trkpt><trkpt lat="44.8480339" lon="7.9543474"><ele>340.0</ele><time>2026-04-25T13:48:26.086Z</time></trkpt><trkpt lat="44.8478544" lon="7.9543733"><ele>340.0</ele><time>2026-04-25T13:48:27.085Z</time></trkpt><trkpt lat="44.8476832" lon="7.9543875"><ele>340.0</ele><time>2026-04-25T13:48:28.086Z</time></trkpt><trkpt lat="44.8475104" lon="7.954388"><ele>340.0</ele><time>2026-04-25T13:48:29.086Z</time></trkpt><trkpt lat="44.8473392" lon="7.9543965"><ele>343.0</ele><time>2026-04-25T13:48:30.086Z</time></trkpt><trkpt lat="44.8471715" lon="7.9543977"><ele>346.0</ele><time>2026-04-25T13:48:31.086Z</time></trkpt><trkpt lat="44.8470251" lon="7.9543961"><ele>349.0</ele><time>2026-04-25T13:48:32.086Z</time></trkpt><trkpt lat="44.8468749" lon="7.9543926"><ele>349.3333333333333</ele><time>2026-04-25T13:48:33.085Z</time></trkpt><trkpt lat="44.846721" lon="7.9544001"><ele>349.6666666666667</ele><time>2026-04-25T13:48:34.085Z</time></trkpt><trkpt lat="44.8465571" lon="7.9544206"><ele>350.0</ele><time>2026-04-25T13:48:35.086Z</time></trkpt><trkpt lat="44.8463859" lon="7.9544377"><ele>350.0</ele><time>2026-04-25T13:48:36.085Z</time></trkpt><trkpt lat="44.8462137" lon="7.9544464"><ele>350.0</ele><time>2026-04-25T13:48:37.085Z</time></trkpt><trkpt lat="44.8460434" lon="7.9544767"><ele>350.0</ele><time>2026-04-25T13:48:38.086Z</time></trkpt><trkpt lat="44.8458738" lon="7.9545014"><ele>348.0</ele><time>2026-04-25T13:48:39.085Z</time></trkpt><trkpt lat="44.8457028" lon="7.9545399"><ele>346.0</ele><time>2026-04-25T13:48:40.086Z</time></trkpt><trkpt lat="44.8455154" lon="7.9545966"><ele>344.0</ele><time>2026-04-25T13:48:41.086Z</time></trkpt><trkpt lat="44.8453303" lon="7.9546478"><ele>344.0</ele><time>2026-04-25T13:48:42.086Z</time></trkpt><trkpt lat="44.8451388" lon="7.9547169"><ele>344.0</ele><time>2026-04-25T13:48:43.086Z</time></trkpt><trkpt lat="44.8449453" lon="7.954787"><ele>344.0</ele><time>2026-04-25T13:48:44.086Z</time></trkpt><trkpt lat="44.844744" lon="7.9548597"><ele>344.0</ele><time>2026-04-25T13:48:45.086Z</time></trkpt><trkpt lat="44.8445379" lon="7.9549502"><ele>344.0</ele><time>2026-04-25T13:48:46.085Z</time></trkpt><trkpt lat="44.8443216" lon="7.9550389"><ele>344.0</ele><time>2026-04-25T13:48:47.086Z</time></trkpt><trkpt lat="44.8441229" lon="7.9551203"><ele>346.0</ele><time>2026-04-25T13:48:48.086Z</time></trkpt><trkpt lat="44.8439241" lon="7.955217"><ele>348.0</ele><time>2026-04-25T13:48:49.086Z</time></trkpt><trkpt lat="44.8437258" lon="7.9553129"><ele>350.0</ele><time>2026-04-25T13:48:50.086Z</time></trkpt><trkpt lat="44.8435281" lon="7.9554131"><ele>350.0</ele><time>2026-04-25T13:48:51.086Z</time></trkpt><trkpt lat="44.8433311" lon="7.9555237"><ele>350.0</ele><time>2026-04-25T13:48:52.085Z</time></trkpt><trkpt lat="44.8431366" lon="7.9556248"><ele>350.0</ele><time>2026-04-25T13:48:53.085Z</time></trkpt><trkpt lat="44.8429352" lon="7.9557299"><ele>350.0</ele><time>2026-04-25T13:48:54.086Z</time></trkpt><trkpt lat="44.8427448" lon="7.9558435"><ele>350.0</ele><time>2026-04-25T13:48:55.086Z</time></trkpt><trkpt lat="44.8425478" lon="7.9559435"><ele>350.0</ele><time>2026-04-25T13:48:56.086Z</time></trkpt><trkpt lat="44.8423531" lon="7.9560354"><ele>350.0</ele><time>2026-04-25T13:48:57.086Z</time></trkpt><trkpt lat="44.8421549" lon="7.9561324"><ele>350.0</ele><time>2026-04-25T13:48:58.086Z</time></trkpt><trkpt lat="44.8419527" lon="7.9562337"><ele>350.0</ele><time>2026-04-25T13:48:59.086Z</time></trkpt><trkpt lat="44.84176" lon="7.9563282"><ele>350.0</ele><time>2026-04-25T13:49:00.086Z</time></trkpt><trkpt lat="44.8415785" lon="7.9564193"><ele>350.0</ele><time>2026-04-25T13:49:01.085Z</time></trkpt><trkpt lat="44.841398" lon="7.956505"><ele>350.0</ele><time>2026-04-25T13:49:02.086Z</time></trkpt><trkpt lat="44.8412102" lon="7.9565547"><ele>350.0</ele><time>2026-04-25T13:49:03.086Z</time></trkpt><trkpt lat="44.8410175" lon="7.9565809"><ele>350.0</ele><time>2026-04-25T13:49:04.085Z</time></trkpt><trkpt lat="44.84083" lon="7.9565849"><ele>350.0</ele><time>2026-04-25T13:49:05.086Z</time></trkpt><trkpt lat="44.8406492" lon="7.9565963"><ele>351.0</ele><time>2026-04-25T13:49:06.085Z</time></trkpt><trkpt lat="44.840484" lon="7.9565937"><ele>352.0</ele><time>2026-04-25T13:49:07.085Z</time></trkpt><trkpt lat="44.8403248" lon="7.956587"><ele>353.0</ele><time>2026-04-25T13:49:08.086Z</time></trkpt><trkpt lat="44.8401817" lon="7.9565438"><ele>353.6666666666667</ele><time>2026-04-25T13:49:09.085Z</time></trkpt><trkpt lat="44.8400306" lon="7.9564717"><ele>354.3333333333333</ele><time>2026-04-25T13:49:10.086Z</time></trkpt><trkpt lat="44.8398849" lon="7.9563602"><ele>355.0</ele><time>2026-04-25T13:49:11.086Z</time></trkpt><trkpt lat="44.8397375" lon="7.956259"><ele>355.0</ele><time>2026-04-25T13:49:12.086Z</time></trkpt><trkpt lat="44.8395925" lon="7.9561672"><ele>355.0</ele><time>2026-04-25T13:49:13.086Z</time></trkpt><trkpt lat="44.8394351" lon="7.9561173"><ele>355.0</ele><time>2026-04-25T13:49:14.086Z</time></trkpt><trkpt lat="44.8392741" lon="7.9561255"><ele>354.0</ele><time>2026-04-25T13:49:15.085Z</time></trkpt><trkpt lat="44.8391261" lon="7.9561362"><ele>353.0</ele><time>2026-04-25T13:49:16.086Z</time></trkpt><trkpt lat="44.8389995" lon="7.9561673"><ele>352.0</ele><time>2026-04-25T13:49:17.086Z</time></trkpt><trkpt lat="44.8388549" lon="7.9563117"><ele>352.0</ele><time>2026-04-25T13:49:18.085Z</time></trkpt><trkpt lat="44.8387197" lon="7.9564016"><ele>352.0</ele><time>2026-04-25T13:49:19.085Z</time></trkpt><trkpt lat="44.8385752" lon="7.9564479"><ele>352.0</ele><time>2026-04-25T13:49:20.085Z</time></trkpt><trkpt lat="44.8384321" lon="7.956446"><ele>352.0</ele><time>2026-04-25T13:49:21.085Z</time></trkpt><trkpt lat="44.8382957" lon="7.9564121"><ele>353.6</ele><time>2026-04-25T13:49:22.086Z</time></trkpt><trkpt lat="44.8381924" lon="7.9563686"><ele>355.20000000000005</ele><time>2026-04-25T13:49:23.085Z</time></trkpt><trkpt lat="44.8380915" lon="7.9563297"><ele>356.8</ele><time>2026-04-25T13:49:24.085Z</time></trkpt><trkpt lat="44.8380022" lon="7.9562932"><ele>358.4</ele><time>2026-04-25T13:49:25.086Z</time></trkpt><trkpt lat="44.8379427" lon="7.9562557"><ele>360.0</ele><time>2026-04-25T13:49:26.085Z</time></trkpt><trkpt lat="44.8378388" lon="7.9561908"><ele>360.0</ele><time>2026-04-25T13:49:28.086Z</time></trkpt><trkpt lat="44.8377715" lon="7.9561726"><ele>360.0</ele><time>2026-04-25T13:49:29.086Z</time></trkpt><trkpt lat="44.8376748" lon="7.9561827"><ele>360.0</ele><time>2026-04-25T13:49:30.085Z</time></trkpt><trkpt lat="44.8375654" lon="7.9562052"><ele>360.0</ele><time>2026-04-25T13:49:31.086Z</time></trkpt><trkpt lat="44.8374395" lon="7.9561916"><ele>360.0</ele><time>2026-04-25T13:49:32.085Z</time></trkpt><trkpt lat="44.8373004" lon="7.956191"><ele>360.5</ele><time>2026-04-25T13:49:33.085Z</time></trkpt><trkpt lat="44.8371607" lon="7.9561795"><ele>361.0</ele><time>2026-04-25T13:49:34.086Z</time></trkpt><trkpt lat="44.8370278" lon="7.9561709"><ele>361.5</ele><time>2026-04-25T13:49:35.086Z</time></trkpt><trkpt lat="44.8368949" lon="7.9561763"><ele>362.0</ele><time>2026-04-25T13:49:36.086Z</time></trkpt><trkpt lat="44.8367801" lon="7.9561471"><ele>361.8</ele><time>2026-04-25T13:49:37.086Z</time></trkpt><trkpt lat="44.8366732" lon="7.9561022"><ele>361.6</ele><time>2026-04-25T13:49:38.086Z</time></trkpt><trkpt lat="44.8366002" lon="7.9560213"><ele>361.40000000000003</ele><time>2026-04-25T13:49:39.086Z</time></trkpt><trkpt lat="44.8365498" lon="7.9559138"><ele>361.20000000000005</ele><time>2026-04-25T13:49:40.086Z</time></trkpt><trkpt lat="44.8365389" lon="7.9557576"><ele>361.0</ele><time>2026-04-25T13:49:41.085Z</time></trkpt><trkpt lat="44.8365484" lon="7.9555827"><ele>361.0</ele><time>2026-04-25T13:49:42.085Z</time></trkpt><trkpt lat="44.8365594" lon="7.9553973"><ele>361.0</ele><time>2026-04-25T13:49:43.086Z</time></trkpt><trkpt lat="44.836575" lon="7.9551892"><ele>361.0</ele><time>2026-04-25T13:49:44.086Z</time></trkpt><trkpt lat="44.836587" lon="7.9549556"><ele>361.0</ele><time>2026-04-25T13:49:45.085Z</time></trkpt><trkpt lat="44.8366255" lon="7.9547209"><ele>361.3333333333333</ele><time>2026-04-25T13:49:46.085Z</time></trkpt><trkpt lat="44.8366537" lon="7.9544973"><ele>361.6666666666667</ele><time>2026-04-25T13:49:47.086Z</time></trkpt><trkpt lat="44.8366658" lon="7.954285"><ele>362.0</ele><time>2026-04-25T13:49:48.085Z</time></trkpt><trkpt lat="44.8366591" lon="7.9540777"><ele>361.33333333333337</ele><time>2026-04-25T13:49:49.086Z</time></trkpt><trkpt lat="44.8366208" lon="7.9538656"><ele>360.6666666666667</ele><time>2026-04-25T13:49:50.086Z</time></trkpt><trkpt lat="44.8365634" lon="7.953651"><ele>360.0</ele><time>2026-04-25T13:49:51.085Z</time></trkpt><trkpt lat="44.8364911" lon="7.9534424"><ele>358.6666666666667</ele><time>2026-04-25T13:49:52.085Z</time></trkpt><trkpt lat="44.836417" lon="7.9532316"><ele>357.33333333333337</ele><time>2026-04-25T13:49:53.086Z</time></trkpt><trkpt lat="44.8363409" lon="7.9530177"><ele>356.0</ele><time>2026-04-25T13:49:54.086Z</time></trkpt><trkpt lat="44.8362639" lon="7.952805"><ele>356.0</ele><time>2026-04-25T13:49:55.085Z</time></trkpt><trkpt lat="44.8361903" lon="7.9526132"><ele>356.0</ele><time>2026-04-25T13:49:56.086Z</time></trkpt><trkpt lat="44.8361138" lon="7.9524141"><ele>356.0</ele><time>2026-04-25T13:49:57.085Z</time></trkpt><trkpt lat="44.8360286" lon="7.9522182"><ele>357.6666666666667</ele><time>2026-04-25T13:49:58.085Z</time></trkpt><trkpt lat="44.8359457" lon="7.9520098"><ele>359.3333333333333</ele><time>2026-04-25T13:49:59.086Z</time></trkpt><trkpt lat="44.8358537" lon="7.9518004"><ele>361.0</ele><time>2026-04-25T13:50:00.085Z</time></trkpt><trkpt lat="44.8357656" lon="7.951596"><ele>361.66666666666663</ele><time>2026-04-25T13:50:01.086Z</time></trkpt><trkpt lat="44.8356721" lon="7.9513817"><ele>362.3333333333333</ele><time>2026-04-25T13:50:02.085Z</time></trkpt><trkpt lat="44.8355827" lon="7.9511778"><ele>363.0</ele><time>2026-04-25T13:50:03.086Z</time></trkpt><trkpt lat="44.83549" lon="7.9509685"><ele>361.0</ele><time>2026-04-25T13:50:04.086Z</time></trkpt><trkpt lat="44.8354033" lon="7.9507527"><ele>359.0</ele><time>2026-04-25T13:50:05.085Z</time></trkpt><trkpt lat="44.8353176" lon="7.9505436"><ele>357.0</ele><time>2026-04-25T13:50:06.086Z</time></trkpt><trkpt lat="44.8352277" lon="7.9503331"><ele>357.3333333333333</ele><time>2026-04-25T13:50:07.086Z</time></trkpt><trkpt lat="44.8351346" lon="7.9501374"><ele>357.66666666666663</ele><time>2026-04-25T13:50:08.086Z</time></trkpt><trkpt lat="44.8350411" lon="7.949944"><ele>358.0</ele><time>2026-04-25T13:50:09.086Z</time></trkpt><trkpt lat="44.8349384" lon="7.9497527"><ele>358.66666666666663</ele><time>2026-04-25T13:50:10.086Z</time></trkpt><trkpt lat="44.834829" lon="7.9495662"><ele>359.3333333333333</ele><time>2026-04-25T13:50:11.086Z</time></trkpt><trkpt lat="44.83472" lon="7.9493834"><ele>360.0</ele><time>2026-04-25T13:50:12.085Z</time></trkpt><trkpt lat="44.8346129" lon="7.9491859"><ele>359.0</ele><time>2026-04-25T13:50:13.086Z</time></trkpt><trkpt lat="44.8344985" lon="7.9490102"><ele>358.0</ele><time>2026-04-25T13:50:14.086Z</time></trkpt><trkpt lat="44.8343783" lon="7.9488226"><ele>357.0</ele><time>2026-04-25T13:50:15.085Z</time></trkpt><trkpt lat="44.8342659" lon="7.9486281"><ele>357.0</ele><time>2026-04-25T13:50:16.086Z</time></trkpt><trkpt lat="44.8341542" lon="7.9484399"><ele>357.0</ele><time>2026-04-25T13:50:17.086Z</time></trkpt><trkpt lat="44.8340345" lon="7.9482535"><ele>357.0</ele><time>2026-04-25T13:50:18.085Z</time></trkpt><trkpt lat="44.8339158" lon="7.9480751"><ele>354.6666666666667</ele><time>2026-04-25T13:50:19.086Z</time></trkpt><trkpt lat="44.8338062" lon="7.9478914"><ele>352.33333333333337</ele><time>2026-04-25T13:50:20.086Z</time></trkpt><trkpt lat="44.8337052" lon="7.9477293"><ele>350.0</ele><time>2026-04-25T13:50:21.086Z</time></trkpt><trkpt lat="44.8336018" lon="7.947577"><ele>350.75</ele><time>2026-04-25T13:50:22.086Z</time></trkpt><trkpt lat="44.8334976" lon="7.9474374"><ele>351.5</ele><time>2026-04-25T13:50:23.085Z</time></trkpt><trkpt lat="44.833354" lon="7.947373"><ele>352.25</ele><time>2026-04-25T13:50:24.086Z</time></trkpt><trkpt lat="44.8332037" lon="7.9473305"><ele>353.0</ele><time>2026-04-25T13:50:25.086Z</time></trkpt><trkpt lat="44.8330492" lon="7.947316"><ele>353.0</ele><time>2026-04-25T13:50:26.085Z</time></trkpt><trkpt lat="44.8328867" lon="7.9473139"><ele>353.0</ele><time>2026-04-25T13:50:27.086Z</time></trkpt><trkpt lat="44.8327208" lon="7.9473306"><ele>353.0</ele><time>2026-04-25T13:50:28.086Z</time></trkpt><trkpt lat="44.8325591" lon="7.9473375"><ele>353.6666666666667</ele><time>2026-04-25T13:50:29.085Z</time></trkpt><trkpt lat="44.8323986" lon="7.9473432"><ele>354.3333333333333</ele><time>2026-04-25T13:50:30.086Z</time></trkpt><trkpt lat="44.8322394" lon="7.9473604"><ele>355.0</ele><time>2026-04-25T13:50:31.086Z</time></trkpt><trkpt lat="44.8320781" lon="7.947381"><ele>355.0</ele><time>2026-04-25T13:50:32.086Z</time></trkpt><trkpt lat="44.8319167" lon="7.9473922"><ele>355.0</ele><time>2026-04-25T13:50:33.086Z</time></trkpt><trkpt lat="44.8317538" lon="7.9474181"><ele>355.0</ele><time>2026-04-25T13:50:34.086Z</time></trkpt><trkpt lat="44.8315925" lon="7.947429"><ele>354.0</ele><time>2026-04-25T13:50:35.086Z</time></trkpt><trkpt lat="44.8314286" lon="7.9474608"><ele>353.0</ele><time>2026-04-25T13:50:36.085Z</time></trkpt><trkpt lat="44.8312657" lon="7.9474914"><ele>352.0</ele><time>2026-04-25T13:50:37.085Z</time></trkpt><trkpt lat="44.831107" lon="7.9475109"><ele>351.0</ele><time>2026-04-25T13:50:38.085Z</time></trkpt><trkpt lat="44.8309493" lon="7.9475422"><ele>350.0</ele><time>2026-04-25T13:50:39.086Z</time></trkpt><trkpt lat="44.8307972" lon="7.9475618"><ele>349.0</ele><time>2026-04-25T13:50:40.085Z</time></trkpt><trkpt lat="44.8306432" lon="7.9475808"><ele>349.0</ele><time>2026-04-25T13:50:41.085Z</time></trkpt><trkpt lat="44.8304884" lon="7.9475782"><ele>349.0</ele><time>2026-04-25T13:50:42.086Z</time></trkpt><trkpt lat="44.8303272" lon="7.9475537"><ele>349.0</ele><time>2026-04-25T13:50:43.086Z</time></trkpt><trkpt lat="44.8301635" lon="7.9475099"><ele>347.3333333333333</ele><time>2026-04-25T13:50:44.085Z</time></trkpt><trkpt lat="44.8299895" lon="7.947456"><ele>345.6666666666667</ele><time>2026-04-25T13:50:45.086Z</time></trkpt><trkpt lat="44.8298045" lon="7.9473967"><ele>344.0</ele><time>2026-04-25T13:50:46.085Z</time></trkpt><trkpt lat="44.8296183" lon="7.9473407"><ele>344.0</ele><time>2026-04-25T13:50:47.086Z</time></trkpt><trkpt lat="44.8294262" lon="7.9473026"><ele>344.0</ele><time>2026-04-25T13:50:48.086Z</time></trkpt><trkpt lat="44.8292286" lon="7.9472902"><ele>344.0</ele><time>2026-04-25T13:50:49.086Z</time></trkpt><trkpt lat="44.8290362" lon="7.9472941"><ele>341.33333333333337</ele><time>2026-04-25T13:50:50.086Z</time></trkpt><trkpt lat="44.8288501" lon="7.9473005"><ele>338.6666666666667</ele><time>2026-04-25T13:50:51.086Z</time></trkpt><trkpt lat="44.8286708" lon="7.9473123"><ele>336.0</ele><time>2026-04-25T13:50:52.085Z</time></trkpt><trkpt lat="44.8285055" lon="7.9473011"><ele>334.0</ele><time>2026-04-25T13:50:53.086Z</time></trkpt><trkpt lat="44.828345" lon="7.9473137"><ele>332.0</ele><time>2026-04-25T13:50:54.086Z</time></trkpt><trkpt lat="44.8282018" lon="7.9473093"><ele>330.0</ele><time>2026-04-25T13:50:55.086Z</time></trkpt><trkpt lat="44.828062" lon="7.9473056"><ele>328.0</ele><time>2026-04-25T13:50:56.086Z</time></trkpt><trkpt lat="44.8279345" lon="7.947268"><ele>328.0</ele><time>2026-04-25T13:50:57.086Z</time></trkpt><trkpt lat="44.827817" lon="7.9471922"><ele>328.0</ele><time>2026-04-25T13:50:58.086Z</time></trkpt><trkpt lat="44.8277214" lon="7.9470744"><ele>328.0</ele><time>2026-04-25T13:50:59.085Z</time></trkpt><trkpt lat="44.8276501" lon="7.9469094"><ele>328.0</ele><time>2026-04-25T13:51:00.086Z</time></trkpt><trkpt lat="44.8276004" lon="7.9467037"><ele>326.25</ele><time>2026-04-25T13:51:01.086Z</time></trkpt><trkpt lat="44.8275438" lon="7.9465085"><ele>324.5</ele><time>2026-04-25T13:51:02.086Z</time></trkpt><trkpt lat="44.8274877" lon="7.9463172"><ele>322.75</ele><time>2026-04-25T13:51:03.086Z</time></trkpt><trkpt lat="44.8274162" lon="7.946138"><ele>321.0</ele><time>2026-04-25T13:51:04.085Z</time></trkpt><trkpt lat="44.8273394" lon="7.9459731"><ele>320.0</ele><time>2026-04-25T13:51:05.086Z</time></trkpt><trkpt lat="44.8272451" lon="7.9458371"><ele>319.0</ele><time>2026-04-25T13:51:06.085Z</time></trkpt><trkpt lat="44.8271479" lon="7.9457278"><ele>318.0</ele><time>2026-04-25T13:51:07.085Z</time></trkpt><trkpt lat="44.827053" lon="7.945636"><ele>317.0</ele><time>2026-04-25T13:51:08.085Z</time></trkpt><trkpt lat="44.8269711" lon="7.9455604"><ele>317.0</ele><time>2026-04-25T13:51:09.086Z</time></trkpt><trkpt lat="44.8268987" lon="7.9454921"><ele>317.0</ele><time>2026-04-25T13:51:10.086Z</time></trkpt><trkpt lat="44.8268287" lon="7.9454335"><ele>317.0</ele><time>2026-04-25T13:51:11.086Z</time></trkpt><trkpt lat="44.8267695" lon="7.9453658"><ele>317.0</ele><time>2026-04-25T13:51:12.086Z</time></trkpt><trkpt lat="44.826714" lon="7.9452923"><ele>317.0</ele><time>2026-04-25T13:51:13.086Z</time></trkpt><trkpt lat="44.8266672" lon="7.9452217"><ele>317.0</ele><time>2026-04-25T13:51:14.085Z</time></trkpt><trkpt lat="44.8266132" lon="7.94514"><ele>315.4</ele><time>2026-04-25T13:51:15.086Z</time></trkpt><trkpt lat="44.8265592" lon="7.9450459"><ele>313.79999999999995</ele><time>2026-04-25T13:51:16.085Z</time></trkpt><trkpt lat="44.826491" lon="7.9449303"><ele>312.2</ele><time>2026-04-25T13:51:17.086Z</time></trkpt><trkpt lat="44.8264109" lon="7.9448107"><ele>310.59999999999997</ele><time>2026-04-25T13:51:18.085Z</time></trkpt><trkpt lat="44.8263219" lon="7.9446797"><ele>309.0</ele><time>2026-04-25T13:51:19.086Z</time></trkpt><trkpt lat="44.8262359" lon="7.9445451"><ele>308.25</ele><time>2026-04-25T13:51:20.085Z</time></trkpt><trkpt lat="44.8261425" lon="7.9444046"><ele>307.5</ele><time>2026-04-25T13:51:21.086Z</time></trkpt><trkpt lat="44.8260395" lon="7.9442579"><ele>306.75</ele><time>2026-04-25T13:51:22.086Z</time></trkpt><trkpt lat="44.8259267" lon="7.944125"><ele>306.0</ele><time>2026-04-25T13:51:23.086Z</time></trkpt><trkpt lat="44.8257935" lon="7.9440188"><ele>304.0</ele><time>2026-04-25T13:51:24.086Z</time></trkpt><trkpt lat="44.825656" lon="7.9439408"><ele>302.0</ele><time>2026-04-25T13:51:25.086Z</time></trkpt><trkpt lat="44.8255025" lon="7.9438883"><ele>300.0</ele><time>2026-04-25T13:51:26.085Z</time></trkpt><trkpt lat="44.8253475" lon="7.9438449"><ele>300.0</ele><time>2026-04-25T13:51:27.085Z</time></trkpt><trkpt lat="44.8251854" lon="7.9437962"><ele>300.0</ele><time>2026-04-25T13:51:28.086Z</time></trkpt><trkpt lat="44.8250249" lon="7.9437553"><ele>300.0</ele><time>2026-04-25T13:51:29.085Z</time></trkpt><trkpt lat="44.824874" lon="7.9437191"><ele>299.5</ele><time>2026-04-25T13:51:30.086Z</time></trkpt><trkpt lat="44.82474" lon="7.9436781"><ele>299.0</ele><time>2026-04-25T13:51:31.085Z</time></trkpt><trkpt lat="44.8246118" lon="7.9436483"><ele>298.5</ele><time>2026-04-25T13:51:32.086Z</time></trkpt><trkpt lat="44.824497" lon="7.9435885"><ele>298.0</ele><time>2026-04-25T13:51:33.085Z</time></trkpt><trkpt lat="44.8243953" lon="7.9435341"><ele>297.8333333333333</ele><time>2026-04-25T13:51:34.086Z</time></trkpt><trkpt lat="44.8243039" lon="7.9434677"><ele>297.66666666666663</ele><time>2026-04-25T13:51:35.086Z</time></trkpt><trkpt lat="44.8242318" lon="7.9433886"><ele>297.5</ele><time>2026-04-25T13:51:36.086Z</time></trkpt><trkpt lat="44.8241674" lon="7.9433133"><ele>297.3333333333333</ele><time>2026-04-25T13:51:37.086Z</time></trkpt><trkpt lat="44.8241061" lon="7.9432408"><ele>297.1666666666667</ele><time>2026-04-25T13:51:38.085Z</time></trkpt><trkpt lat="44.8240443" lon="7.9432"><ele>297.0</ele><time>2026-04-25T13:51:39.086Z</time></trkpt><trkpt lat="44.8239099" lon="7.9432088"><ele>297.0</ele><time>2026-04-25T13:51:41.086Z</time></trkpt><trkpt lat="44.8238581" lon="7.9432909"><ele>297.0</ele><time>2026-04-25T13:51:42.086Z</time></trkpt><trkpt lat="44.8238273" lon="7.9433877"><ele>297.0</ele><time>2026-04-25T13:51:43.086Z</time></trkpt><trkpt lat="44.8238057" lon="7.9435171"><ele>297.0</ele><time>2026-04-25T13:51:44.085Z</time></trkpt><trkpt lat="44.8237663" lon="7.9436729"><ele>297.0</ele><time>2026-04-25T13:51:45.085Z</time></trkpt><trkpt lat="44.8237052" lon="7.943834"><ele>297.0</ele><time>2026-04-25T13:51:46.086Z</time></trkpt><trkpt lat="44.8236325" lon="7.9439941"><ele>297.0</ele><time>2026-04-25T13:51:47.085Z</time></trkpt><trkpt lat="44.8235491" lon="7.9441685"><ele>297.0</ele><time>2026-04-25T13:51:48.086Z</time></trkpt><trkpt lat="44.8234543" lon="7.9443552"><ele>297.0</ele><time>2026-04-25T13:51:49.086Z</time></trkpt><trkpt lat="44.8233543" lon="7.9445416"><ele>297.0</ele><time>2026-04-25T13:51:50.086Z</time></trkpt><trkpt lat="44.8232518" lon="7.9447297"><ele>297.0</ele><time>2026-04-25T13:51:51.086Z</time></trkpt><trkpt lat="44.8231611" lon="7.944914"><ele>297.0</ele><time>2026-04-25T13:51:52.085Z</time></trkpt><trkpt lat="44.8230622" lon="7.945105"><ele>297.0</ele><time>2026-04-25T13:51:53.085Z</time></trkpt><trkpt lat="44.8229686" lon="7.9452865"><ele>297.0</ele><time>2026-04-25T13:51:54.086Z</time></trkpt><trkpt lat="44.8228683" lon="7.9454683"><ele>297.0</ele><time>2026-04-25T13:51:55.086Z</time></trkpt><trkpt lat="44.8227704" lon="7.9456559"><ele>297.0</ele><time>2026-04-25T13:51:56.086Z</time></trkpt><trkpt lat="44.8226755" lon="7.9458377"><ele>297.0</ele><time>2026-04-25T13:51:57.086Z</time></trkpt><trkpt lat="44.822574" lon="7.9460263"><ele>297.0</ele><time>2026-04-25T13:51:58.085Z</time></trkpt><trkpt lat="44.8224679" lon="7.9462173"><ele>297.0</ele><time>2026-04-25T13:51:59.086Z</time></trkpt><trkpt lat="44.8223493" lon="7.9463969"><ele>297.0</ele><time>2026-04-25T13:52:00.086Z</time></trkpt><trkpt lat="44.8222439" lon="7.9465633"><ele>297.0</ele><time>2026-04-25T13:52:01.086Z</time></trkpt><trkpt lat="44.822126" lon="7.9467201"><ele>297.0</ele><time>2026-04-25T13:52:02.086Z</time></trkpt><trkpt lat="44.8220127" lon="7.9468631"><ele>297.0</ele><time>2026-04-25T13:52:03.085Z</time></trkpt><trkpt lat="44.8218951" lon="7.9469984"><ele>297.0</ele><time>2026-04-25T13:52:04.085Z</time></trkpt><trkpt lat="44.8218036" lon="7.9471142"><ele>297.0</ele><time>2026-04-25T13:52:05.085Z</time></trkpt><trkpt lat="44.8217167" lon="7.9472082"><ele>296.6666666666667</ele><time>2026-04-25T13:52:06.086Z</time></trkpt><trkpt lat="44.8216437" lon="7.9472783"><ele>296.3333333333333</ele><time>2026-04-25T13:52:07.086Z</time></trkpt><trkpt lat="44.8215669" lon="7.9473425"><ele>296.0</ele><time>2026-04-25T13:52:08.086Z</time></trkpt><trkpt lat="44.8214893" lon="7.9473691"><ele>295.66666666666663</ele><time>2026-04-25T13:52:09.085Z</time></trkpt><trkpt lat="44.8214055" lon="7.9473913"><ele>295.3333333333333</ele><time>2026-04-25T13:52:10.086Z</time></trkpt><trkpt lat="44.821319" lon="7.9474138"><ele>295.0</ele><time>2026-04-25T13:52:11.086Z</time></trkpt><trkpt lat="44.8212361" lon="7.9474727"><ele>295.25</ele><time>2026-04-25T13:52:12.085Z</time></trkpt><trkpt lat="44.8211522" lon="7.9475589"><ele>295.5</ele><time>2026-04-25T13:52:13.085Z</time></trkpt><trkpt lat="44.8210738" lon="7.9476593"><ele>295.75</ele><time>2026-04-25T13:52:14.086Z</time></trkpt><trkpt lat="44.8209713" lon="7.9477541"><ele>296.0</ele><time>2026-04-25T13:52:15.085Z</time></trkpt><trkpt lat="44.8208532" lon="7.9478337"><ele>296.75</ele><time>2026-04-25T13:52:16.085Z</time></trkpt><trkpt lat="44.8207208" lon="7.9479049"><ele>297.5</ele><time>2026-04-25T13:52:17.085Z</time></trkpt><trkpt lat="44.8205892" lon="7.9479639"><ele>298.25</ele><time>2026-04-25T13:52:18.086Z</time></trkpt><trkpt lat="44.8204428" lon="7.9480221"><ele>299.0</ele><time>2026-04-25T13:52:19.085Z</time></trkpt><trkpt lat="44.8202904" lon="7.9480712"><ele>297.6666666666667</ele><time>2026-04-25T13:52:20.085Z</time></trkpt><trkpt lat="44.8201282" lon="7.9481207"><ele>296.3333333333333</ele><time>2026-04-25T13:52:21.085Z</time></trkpt><trkpt lat="44.8199622" lon="7.9481563"><ele>295.0</ele><time>2026-04-25T13:52:22.086Z</time></trkpt><trkpt lat="44.8197932" lon="7.9481777"><ele>295.0</ele><time>2026-04-25T13:52:23.086Z</time></trkpt><trkpt lat="44.8196202" lon="7.9481944"><ele>295.0</ele><time>2026-04-25T13:52:24.085Z</time></trkpt><trkpt lat="44.8194506" lon="7.9481999"><ele>295.0</ele><time>2026-04-25T13:52:25.086Z</time></trkpt><trkpt lat="44.8192801" lon="7.9482092"><ele>295.66666666666663</ele><time>2026-04-25T13:52:26.086Z</time></trkpt><trkpt lat="44.8191116" lon="7.9481903"><ele>296.3333333333333</ele><time>2026-04-25T13:52:27.086Z</time></trkpt><trkpt lat="44.8189424" lon="7.9481629"><ele>297.0</ele><time>2026-04-25T13:52:28.086Z</time></trkpt><trkpt lat="44.8187695" lon="7.9481247"><ele>297.0</ele><time>2026-04-25T13:52:29.085Z</time></trkpt><trkpt lat="44.8185963" lon="7.9480705"><ele>297.0</ele><time>2026-04-25T13:52:30.085Z</time></trkpt><trkpt lat="44.8184242" lon="7.9480122"><ele>297.0</ele><time>2026-04-25T13:52:31.086Z</time></trkpt><trkpt lat="44.8182546" lon="7.9479371"><ele>297.0</ele><time>2026-04-25T13:52:32.086Z</time></trkpt><trkpt lat="44.8180923" lon="7.947865"><ele>297.0</ele><time>2026-04-25T13:52:33.086Z</time></trkpt><trkpt lat="44.8179408" lon="7.9477908"><ele>297.0</ele><time>2026-04-25T13:52:34.085Z</time></trkpt><trkpt lat="44.817792" lon="7.9477068"><ele>297.5</ele><time>2026-04-25T13:52:35.086Z</time></trkpt><trkpt lat="44.8176482" lon="7.9476316"><ele>298.0</ele><time>2026-04-25T13:52:36.085Z</time></trkpt><trkpt lat="44.8175237" lon="7.9475597"><ele>298.5</ele><time>2026-04-25T13:52:37.085Z</time></trkpt><trkpt lat="44.8173967" lon="7.9474866"><ele>299.0</ele><time>2026-04-25T13:52:38.086Z</time></trkpt><trkpt lat="44.8172898" lon="7.9474325"><ele>299.0</ele><time>2026-04-25T13:52:39.086Z</time></trkpt><trkpt lat="44.8171891" lon="7.9473429"><ele>299.0</ele><time>2026-04-25T13:52:40.086Z</time></trkpt><trkpt lat="44.8170911" lon="7.9472432"><ele>299.0</ele><time>2026-04-25T13:52:41.085Z</time></trkpt><trkpt lat="44.8170093" lon="7.9471063"><ele>299.0</ele><time>2026-04-25T13:52:42.086Z</time></trkpt><trkpt lat="44.8169406" lon="7.9469676"><ele>299.0</ele><time>2026-04-25T13:52:43.086Z</time></trkpt><trkpt lat="44.8168992" lon="7.9467984"><ele>299.0</ele><time>2026-04-25T13:52:44.086Z</time></trkpt><trkpt lat="44.8168647" lon="7.9466293"><ele>299.0</ele><time>2026-04-25T13:52:45.086Z</time></trkpt><trkpt lat="44.8168432" lon="7.9464432"><ele>299.0</ele><time>2026-04-25T13:52:46.085Z</time></trkpt><trkpt lat="44.8168006" lon="7.9463041"><ele>299.0</ele><time>2026-04-25T13:52:47.086Z</time></trkpt><trkpt lat="44.8167412" lon="7.9461803"><ele>299.0</ele><time>2026-04-25T13:52:48.086Z</time></trkpt><trkpt lat="44.8166616" lon="7.9460806"><ele>299.0</ele><time>2026-04-25T13:52:49.085Z</time></trkpt><trkpt lat="44.8165744" lon="7.9459946"><ele>299.0</ele><time>2026-04-25T13:52:50.085Z</time></trkpt><trkpt lat="44.8164347" lon="7.9460116"><ele>299.0</ele><time>2026-04-25T13:52:51.086Z</time></trkpt><trkpt lat="44.8163064" lon="7.9460292"><ele>299.0</ele><time>2026-04-25T13:52:52.085Z</time></trkpt><trkpt lat="44.8161641" lon="7.946069"><ele>299.0</ele><time>2026-04-25T13:52:53.085Z</time></trkpt><trkpt lat="44.8160153" lon="7.9460983"><ele>299.0</ele><time>2026-04-25T13:52:54.085Z</time></trkpt><trkpt lat="44.8158566" lon="7.9461238"><ele>299.0</ele><time>2026-04-25T13:52:55.086Z</time></trkpt><trkpt lat="44.8156913" lon="7.9461312"><ele>299.0</ele><time>2026-04-25T13:52:56.086Z</time></trkpt><trkpt lat="44.8155213" lon="7.9461098"><ele>299.0</ele><time>2026-04-25T13:52:57.086Z</time></trkpt><trkpt lat="44.8153455" lon="7.946089"><ele>299.0</ele><time>2026-04-25T13:52:58.085Z</time></trkpt><trkpt lat="44.8151847" lon="7.9460644"><ele>299.0</ele><time>2026-04-25T13:52:59.086Z</time></trkpt><trkpt lat="44.8150414" lon="7.9460388"><ele>299.0</ele><time>2026-04-25T13:53:00.086Z</time></trkpt><trkpt lat="44.8149081" lon="7.9460244"><ele>299.0</ele><time>2026-04-25T13:53:01.086Z</time></trkpt><trkpt lat="44.8147845" lon="7.946036"><ele>299.8</ele><time>2026-04-25T13:53:02.086Z</time></trkpt><trkpt lat="44.8146676" lon="7.9460698"><ele>300.59999999999997</ele><time>2026-04-25T13:53:03.086Z</time></trkpt><trkpt lat="44.8145705" lon="7.946127"><ele>301.4</ele><time>2026-04-25T13:53:04.086Z</time></trkpt><trkpt lat="44.8144835" lon="7.9462163"><ele>302.2</ele><time>2026-04-25T13:53:05.086Z</time></trkpt><trkpt lat="44.8144097" lon="7.9463329"><ele>303.0</ele><time>2026-04-25T13:53:06.085Z</time></trkpt><trkpt lat="44.8143531" lon="7.946455"><ele>303.0</ele><time>2026-04-25T13:53:07.086Z</time></trkpt><trkpt lat="44.8143223" lon="7.9466111"><ele>303.0</ele><time>2026-04-25T13:53:08.086Z</time></trkpt><trkpt lat="44.8143252" lon="7.9467678"><ele>303.0</ele><time>2026-04-25T13:53:09.085Z</time></trkpt><trkpt lat="44.8143596" lon="7.946931"><ele>303.0</ele><time>2026-04-25T13:53:10.085Z</time></trkpt><trkpt lat="44.814416" lon="7.9471004"><ele>302.5</ele><time>2026-04-25T13:53:11.086Z</time></trkpt><trkpt lat="44.8144845" lon="7.9472724"><ele>302.0</ele><time>2026-04-25T13:53:12.086Z</time></trkpt><trkpt lat="44.8145617" lon="7.9474426"><ele>301.5</ele><time>2026-04-25T13:53:13.086Z</time></trkpt><trkpt lat="44.8146376" lon="7.9475985"><ele>301.0</ele><time>2026-04-25T13:53:14.086Z</time></trkpt><trkpt lat="44.8147017" lon="7.9477467"><ele>301.0</ele><time>2026-04-25T13:53:15.086Z</time></trkpt><trkpt lat="44.8147429" lon="7.9478889"><ele>301.0</ele><time>2026-04-25T13:53:16.086Z</time></trkpt><trkpt lat="44.8147609" lon="7.9480324"><ele>301.0</ele><time>2026-04-25T13:53:17.086Z</time></trkpt><trkpt lat="44.8147541" lon="7.9481621"><ele>301.0</ele><time>2026-04-25T13:53:18.086Z</time></trkpt><trkpt lat="44.8147306" lon="7.9482887"><ele>301.0</ele><time>2026-04-25T13:53:19.085Z</time></trkpt><trkpt lat="44.8146813" lon="7.9484089"><ele>301.25</ele><time>2026-04-25T13:53:20.085Z</time></trkpt><trkpt lat="44.8146037" lon="7.9485078"><ele>301.5</ele><time>2026-04-25T13:53:21.086Z</time></trkpt><trkpt lat="44.8145104" lon="7.9485965"><ele>301.75</ele><time>2026-04-25T13:53:22.086Z</time></trkpt><trkpt lat="44.8144078" lon="7.9486851"><ele>302.0</ele><time>2026-04-25T13:53:23.086Z</time></trkpt><trkpt lat="44.8142858" lon="7.9487967"><ele>302.0</ele><time>2026-04-25T13:53:24.086Z</time></trkpt><trkpt lat="44.8141524" lon="7.948906"><ele>302.0</ele><time>2026-04-25T13:53:25.086Z</time></trkpt><trkpt lat="44.8140123" lon="7.9490177"><ele>302.0</ele><time>2026-04-25T13:53:26.086Z</time></trkpt><trkpt lat="44.8138549" lon="7.9491421"><ele>302.0</ele><time>2026-04-25T13:53:27.086Z</time></trkpt><trkpt lat="44.8136954" lon="7.9492705"><ele>302.0</ele><time>2026-04-25T13:53:28.086Z</time></trkpt><trkpt lat="44.8135411" lon="7.9493975"><ele>302.0</ele><time>2026-04-25T13:53:29.085Z</time></trkpt><trkpt lat="44.8133866" lon="7.9495187"><ele>303.33333333333337</ele><time>2026-04-25T13:53:30.086Z</time></trkpt><trkpt lat="44.8132451" lon="7.9496345"><ele>304.6666666666667</ele><time>2026-04-25T13:53:31.085Z</time></trkpt><trkpt lat="44.8131153" lon="7.9497445"><ele>306.0</ele><time>2026-04-25T13:53:32.086Z</time></trkpt><trkpt lat="44.8129952" lon="7.9498471"><ele>306.0</ele><time>2026-04-25T13:53:33.086Z</time></trkpt><trkpt lat="44.8128868" lon="7.9499466"><ele>306.0</ele><time>2026-04-25T13:53:34.086Z</time></trkpt><trkpt lat="44.8127927" lon="7.9500356"><ele>306.0</ele><time>2026-04-25T13:53:35.086Z</time></trkpt><trkpt lat="44.8127088" lon="7.950117"><ele>306.0</ele><time>2026-04-25T13:53:36.086Z</time></trkpt><trkpt lat="44.8126289" lon="7.9501786"><ele>306.0</ele><time>2026-04-25T13:53:37.085Z</time></trkpt><trkpt lat="44.8125482" lon="7.9502161"><ele>306.1666666666667</ele><time>2026-04-25T13:53:38.085Z</time></trkpt><trkpt lat="44.8124652" lon="7.9502172"><ele>306.3333333333333</ele><time>2026-04-25T13:53:39.086Z</time></trkpt><trkpt lat="44.8123759" lon="7.9501982"><ele>306.5</ele><time>2026-04-25T13:53:40.085Z</time></trkpt><trkpt lat="44.8122929" lon="7.9501505"><ele>306.66666666666663</ele><time>2026-04-25T13:53:41.086Z</time></trkpt><trkpt lat="44.8122221" lon="7.9500754"><ele>306.8333333333333</ele><time>2026-04-25T13:53:42.086Z</time></trkpt><trkpt lat="44.8121605" lon="7.9499724"><ele>307.0</ele><time>2026-04-25T13:53:43.085Z</time></trkpt><trkpt lat="44.8120967" lon="7.9498434"><ele>307.0</ele><time>2026-04-25T13:53:44.085Z</time></trkpt><trkpt lat="44.8120352" lon="7.9496931"><ele>307.0</ele><time>2026-04-25T13:53:45.085Z</time></trkpt><trkpt lat="44.8119678" lon="7.9495278"><ele>307.0</ele><time>2026-04-25T13:53:46.086Z</time></trkpt><trkpt lat="44.8119038" lon="7.9493602"><ele>307.0</ele><time>2026-04-25T13:53:47.085Z</time></trkpt><trkpt lat="44.8118343" lon="7.9491928"><ele>308.25</ele><time>2026-04-25T13:53:48.085Z</time></trkpt><trkpt lat="44.811757" lon="7.949015"><ele>309.5</ele><time>2026-04-25T13:53:49.086Z</time></trkpt><trkpt lat="44.8116795" lon="7.9488335"><ele>310.75</ele><time>2026-04-25T13:53:50.086Z</time></trkpt><trkpt lat="44.8116072" lon="7.9486546"><ele>312.0</ele><time>2026-04-25T13:53:51.086Z</time></trkpt><trkpt lat="44.8115342" lon="7.9484826"><ele>311.5</ele><time>2026-04-25T13:53:52.085Z</time></trkpt><trkpt lat="44.8114512" lon="7.9483223"><ele>311.0</ele><time>2026-04-25T13:53:53.086Z</time></trkpt><trkpt lat="44.8113564" lon="7.9481782"><ele>310.5</ele><time>2026-04-25T13:53:54.086Z</time></trkpt><trkpt lat="44.8112381" lon="7.9480449"><ele>310.0</ele><time>2026-04-25T13:53:55.085Z</time></trkpt><trkpt lat="44.8111091" lon="7.9479183"><ele>309.66666666666663</ele><time>2026-04-25T13:53:56.085Z</time></trkpt><trkpt lat="44.8109702" lon="7.9477985"><ele>309.3333333333333</ele><time>2026-04-25T13:53:57.086Z</time></trkpt><trkpt lat="44.8108268" lon="7.9476699"><ele>309.0</ele><time>2026-04-25T13:53:58.086Z</time></trkpt><trkpt lat="44.8106772" lon="7.9475378"><ele>309.0</ele><time>2026-04-25T13:53:59.085Z</time></trkpt><trkpt lat="44.8105222" lon="7.9474036"><ele>309.0</ele><time>2026-04-25T13:54:00.086Z</time></trkpt><trkpt lat="44.8103794" lon="7.9472695"><ele>309.0</ele><time>2026-04-25T13:54:01.086Z</time></trkpt><trkpt lat="44.8102307" lon="7.9471455"><ele>309.3333333333333</ele><time>2026-04-25T13:54:02.086Z</time></trkpt><trkpt lat="44.8100832" lon="7.9470123"><ele>309.66666666666663</ele><time>2026-04-25T13:54:03.086Z</time></trkpt><trkpt lat="44.8099376" lon="7.9468743"><ele>310.0</ele><time>2026-04-25T13:54:04.086Z</time></trkpt><trkpt lat="44.8097923" lon="7.94671"><ele>310.0</ele><time>2026-04-25T13:54:05.086Z</time></trkpt><trkpt lat="44.8096544" lon="7.9465378"><ele>310.0</ele><time>2026-04-25T13:54:06.086Z</time></trkpt><trkpt lat="44.8095161" lon="7.9463622"><ele>310.0</ele><time>2026-04-25T13:54:07.086Z</time></trkpt><trkpt lat="44.8093757" lon="7.9461752"><ele>310.0</ele><time>2026-04-25T13:54:08.086Z</time></trkpt><trkpt lat="44.8092368" lon="7.945983"><ele>310.0</ele><time>2026-04-25T13:54:09.086Z</time></trkpt><trkpt lat="44.809095" lon="7.9457933"><ele>310.0</ele><time>2026-04-25T13:54:10.086Z</time></trkpt><trkpt lat="44.8089602" lon="7.9455913"><ele>310.0</ele><time>2026-04-25T13:54:11.086Z</time></trkpt><trkpt lat="44.8088235" lon="7.9453949"><ele>310.0</ele><time>2026-04-25T13:54:12.085Z</time></trkpt><trkpt lat="44.8086784" lon="7.9452006"><ele>310.0</ele><time>2026-04-25T13:54:13.085Z</time></trkpt><trkpt lat="44.8085333" lon="7.9449965"><ele>311.3333333333333</ele><time>2026-04-25T13:54:14.085Z</time></trkpt><trkpt lat="44.8083984" lon="7.9447845"><ele>312.6666666666667</ele><time>2026-04-25T13:54:15.086Z</time></trkpt><trkpt lat="44.8082721" lon="7.9445531"><ele>314.0</ele><time>2026-04-25T13:54:16.085Z</time></trkpt><trkpt lat="44.8081494" lon="7.9443163"><ele>313.33333333333337</ele><time>2026-04-25T13:54:17.086Z</time></trkpt><trkpt lat="44.8080224" lon="7.9440746"><ele>312.6666666666667</ele><time>2026-04-25T13:54:18.085Z</time></trkpt><trkpt lat="44.8078926" lon="7.943834"><ele>312.0</ele><time>2026-04-25T13:54:19.086Z</time></trkpt><trkpt lat="44.8077579" lon="7.943598"><ele>313.3333333333333</ele><time>2026-04-25T13:54:20.086Z</time></trkpt><trkpt lat="44.8076083" lon="7.9433711"><ele>314.66666666666663</ele><time>2026-04-25T13:54:21.086Z</time></trkpt><trkpt lat="44.8074501" lon="7.9431509"><ele>316.0</ele><time>2026-04-25T13:54:22.086Z</time></trkpt><trkpt lat="44.8072896" lon="7.9429238"><ele>316.0</ele><time>2026-04-25T13:54:23.086Z</time></trkpt><trkpt lat="44.8071276" lon="7.9426995"><ele>316.0</ele><time>2026-04-25T13:54:24.086Z</time></trkpt><trkpt lat="44.8069635" lon="7.942476"><ele>317.0</ele><time>2026-04-25T13:54:25.086Z</time></trkpt><trkpt lat="44.8068079" lon="7.9422609"><ele>318.0</ele><time>2026-04-25T13:54:26.085Z</time></trkpt><trkpt lat="44.8066675" lon="7.9420482"><ele>319.0</ele><time>2026-04-25T13:54:27.085Z</time></trkpt><trkpt lat="44.8065208" lon="7.9418586"><ele>317.66666666666663</ele><time>2026-04-25T13:54:28.086Z</time></trkpt><trkpt lat="44.8063844" lon="7.9416733"><ele>316.3333333333333</ele><time>2026-04-25T13:54:29.086Z</time></trkpt><trkpt lat="44.8062529" lon="7.9414857"><ele>315.0</ele><time>2026-04-25T13:54:30.085Z</time></trkpt><trkpt lat="44.8061391" lon="7.9412793"><ele>315.0</ele><time>2026-04-25T13:54:31.086Z</time></trkpt><trkpt lat="44.806039" lon="7.9410595"><ele>315.0</ele><time>2026-04-25T13:54:32.086Z</time></trkpt><trkpt lat="44.8059719" lon="7.9408068"><ele>315.0</ele><time>2026-04-25T13:54:33.086Z</time></trkpt><trkpt lat="44.8059173" lon="7.9405376"><ele>315.3333333333333</ele><time>2026-04-25T13:54:34.085Z</time></trkpt><trkpt lat="44.8058923" lon="7.9402622"><ele>315.66666666666663</ele><time>2026-04-25T13:54:35.086Z</time></trkpt><trkpt lat="44.8058953" lon="7.9399876"><ele>316.0</ele><time>2026-04-25T13:54:36.085Z</time></trkpt><trkpt lat="44.8059262" lon="7.9397096"><ele>316.3333333333333</ele><time>2026-04-25T13:54:37.086Z</time></trkpt><trkpt lat="44.8059747" lon="7.9394248"><ele>316.6666666666667</ele><time>2026-04-25T13:54:38.085Z</time></trkpt><trkpt lat="44.8060263" lon="7.939131"><ele>317.0</ele><time>2026-04-25T13:54:39.085Z</time></trkpt><trkpt lat="44.8060809" lon="7.9388236"><ele>317.0</ele><time>2026-04-25T13:54:40.086Z</time></trkpt><trkpt lat="44.8061384" lon="7.9385107"><ele>317.0</ele><time>2026-04-25T13:54:41.086Z</time></trkpt><trkpt lat="44.8061964" lon="7.9381919"><ele>318.0</ele><time>2026-04-25T13:54:42.085Z</time></trkpt><trkpt lat="44.8062543" lon="7.9378749"><ele>319.0</ele><time>2026-04-25T13:54:43.086Z</time></trkpt><trkpt lat="44.8063147" lon="7.9375655"><ele>320.66666666666663</ele><time>2026-04-25T13:54:44.085Z</time></trkpt><trkpt lat="44.8063627" lon="7.9372772"><ele>322.3333333333333</ele><time>2026-04-25T13:54:45.085Z</time></trkpt><trkpt lat="44.8064057" lon="7.9370131"><ele>324.0</ele><time>2026-04-25T13:54:46.086Z</time></trkpt><trkpt lat="44.8064478" lon="7.9367645"><ele>325.25</ele><time>2026-04-25T13:54:47.085Z</time></trkpt><trkpt lat="44.8064885" lon="7.9365527"><ele>326.5</ele><time>2026-04-25T13:54:48.086Z</time></trkpt><trkpt lat="44.8065348" lon="7.9363585"><ele>327.75</ele><time>2026-04-25T13:54:49.086Z</time></trkpt><trkpt lat="44.8065968" lon="7.9361871"><ele>329.0</ele><time>2026-04-25T13:54:50.086Z</time></trkpt><trkpt lat="44.8066702" lon="7.9360245"><ele>329.0</ele><time>2026-04-25T13:54:51.086Z</time></trkpt><trkpt lat="44.8067375" lon="7.9358752"><ele>329.0</ele><time>2026-04-25T13:54:52.086Z</time></trkpt><trkpt lat="44.8067709" lon="7.9357281"><ele>329.0</ele><time>2026-04-25T13:54:53.086Z</time></trkpt><trkpt lat="44.8067845" lon="7.935566"><ele>329.0</ele><time>2026-04-25T13:54:54.086Z</time></trkpt><trkpt lat="44.8067631" lon="7.9353936"><ele>329.0</ele><time>2026-04-25T13:54:55.085Z</time></trkpt><trkpt lat="44.8067147" lon="7.9352137"><ele>329.0</ele><time>2026-04-25T13:54:56.085Z</time></trkpt><trkpt lat="44.8066529" lon="7.935031"><ele>329.0</ele><time>2026-04-25T13:54:57.086Z</time></trkpt><trkpt lat="44.8065846" lon="7.9348339"><ele>329.0</ele><time>2026-04-25T13:54:58.085Z</time></trkpt><trkpt lat="44.806471" lon="7.9346493"><ele>330.33333333333337</ele><time>2026-04-25T13:54:59.086Z</time></trkpt><trkpt lat="44.8063522" lon="7.9344768"><ele>331.6666666666667</ele><time>2026-04-25T13:55:00.085Z</time></trkpt><trkpt lat="44.8062264" lon="7.9343209"><ele>333.0</ele><time>2026-04-25T13:55:01.086Z</time></trkpt><trkpt lat="44.8061064" lon="7.9341712"><ele>333.75</ele><time>2026-04-25T13:55:02.086Z</time></trkpt><trkpt lat="44.8060173" lon="7.9340189"><ele>334.5</ele><time>2026-04-25T13:55:03.086Z</time></trkpt><trkpt lat="44.8059606" lon="7.9338383"><ele>335.25</ele><time>2026-04-25T13:55:04.086Z</time></trkpt><trkpt lat="44.8059195" lon="7.9336359"><ele>336.0</ele><time>2026-04-25T13:55:05.086Z</time></trkpt><trkpt lat="44.8059015" lon="7.9334145"><ele>339.6666666666667</ele><time>2026-04-25T13:55:06.086Z</time></trkpt><trkpt lat="44.8059021" lon="7.9331838"><ele>343.33333333333337</ele><time>2026-04-25T13:55:07.086Z</time></trkpt><trkpt lat="44.8059153" lon="7.9329722"><ele>347.0</ele><time>2026-04-25T13:55:08.086Z</time></trkpt><trkpt lat="44.8059653" lon="7.9327762"><ele>346.0</ele><time>2026-04-25T13:55:09.085Z</time></trkpt><trkpt lat="44.8060371" lon="7.932594"><ele>345.0</ele><time>2026-04-25T13:55:10.086Z</time></trkpt><trkpt lat="44.8061182" lon="7.9324297"><ele>344.0</ele><time>2026-04-25T13:55:11.085Z</time></trkpt><trkpt lat="44.8061892" lon="7.9322775"><ele>343.0</ele><time>2026-04-25T13:55:12.085Z</time></trkpt><trkpt lat="44.806249" lon="7.9321463"><ele>343.0</ele><time>2026-04-25T13:55:13.085Z</time></trkpt><trkpt lat="44.8062767" lon="7.9320206"><ele>343.0</ele><time>2026-04-25T13:55:14.086Z</time></trkpt><trkpt lat="44.8062541" lon="7.931889"><ele>343.0</ele><time>2026-04-25T13:55:15.086Z</time></trkpt><trkpt lat="44.8062285" lon="7.9317644"><ele>343.0</ele><time>2026-04-25T13:55:16.086Z</time></trkpt><trkpt lat="44.8061638" lon="7.9316374"><ele>343.0</ele><time>2026-04-25T13:55:17.085Z</time></trkpt><trkpt lat="44.8060882" lon="7.9315418"><ele>346.3333333333333</ele><time>2026-04-25T13:55:18.086Z</time></trkpt><trkpt lat="44.8059107" lon="7.9314944"><ele>349.6666666666667</ele><time>2026-04-25T13:55:19.086Z</time></trkpt><trkpt lat="44.8057637" lon="7.9314744"><ele>353.0</ele><time>2026-04-25T13:55:20.086Z</time></trkpt><trkpt lat="44.8056374" lon="7.9315143"><ele>353.0</ele><time>2026-04-25T13:55:21.085Z</time></trkpt><trkpt lat="44.8054988" lon="7.9315"><ele>353.0</ele><time>2026-04-25T13:55:22.086Z</time></trkpt><trkpt lat="44.8053623" lon="7.9314463"><ele>353.0</ele><time>2026-04-25T13:55:23.085Z</time></trkpt><trkpt lat="44.8052421" lon="7.9313538"><ele>353.0</ele><time>2026-04-25T13:55:24.086Z</time></trkpt><trkpt lat="44.8051243" lon="7.9312364"><ele>353.25</ele><time>2026-04-25T13:55:25.086Z</time></trkpt><trkpt lat="44.8050335" lon="7.9310837"><ele>353.5</ele><time>2026-04-25T13:55:26.086Z</time></trkpt><trkpt lat="44.8049521" lon="7.930897"><ele>353.75</ele><time>2026-04-25T13:55:27.086Z</time></trkpt><trkpt lat="44.8048908" lon="7.9307108"><ele>354.0</ele><time>2026-04-25T13:55:28.086Z</time></trkpt><trkpt lat="44.8048122" lon="7.9304976"><ele>353.3333333333333</ele><time>2026-04-25T13:55:29.086Z</time></trkpt><trkpt lat="44.8047363" lon="7.9302778"><ele>352.66666666666663</ele><time>2026-04-25T13:55:30.085Z</time></trkpt><trkpt lat="44.8046506" lon="7.930064"><ele>352.0</ele><time>2026-04-25T13:55:31.086Z</time></trkpt><trkpt lat="44.8045667" lon="7.9298596"><ele>352.0</ele><time>2026-04-25T13:55:32.086Z</time></trkpt><trkpt lat="44.80448" lon="7.9296587"><ele>352.0</ele><time>2026-04-25T13:55:33.085Z</time></trkpt><trkpt lat="44.8044078" lon="7.9294559"><ele>352.0</ele><time>2026-04-25T13:55:34.086Z</time></trkpt><trkpt lat="44.8043473" lon="7.9292591"><ele>355.3333333333333</ele><time>2026-04-25T13:55:35.086Z</time></trkpt><trkpt lat="44.8042773" lon="7.9290464"><ele>358.6666666666667</ele><time>2026-04-25T13:55:36.086Z</time></trkpt><trkpt lat="44.8042035" lon="7.9288405"><ele>362.0</ele><time>2026-04-25T13:55:37.086Z</time></trkpt><trkpt lat="44.8041566" lon="7.9286511"><ele>362.0</ele><time>2026-04-25T13:55:38.085Z</time></trkpt><trkpt lat="44.8041105" lon="7.9284674"><ele>362.0</ele><time>2026-04-25T13:55:39.086Z</time></trkpt><trkpt lat="44.8040775" lon="7.928299"><ele>362.0</ele><time>2026-04-25T13:55:40.085Z</time></trkpt><trkpt lat="44.8040349" lon="7.928129"><ele>362.0</ele><time>2026-04-25T13:55:41.086Z</time></trkpt><trkpt lat="44.8039906" lon="7.9279613"><ele>363.25</ele><time>2026-04-25T13:55:42.086Z</time></trkpt><trkpt lat="44.8039419" lon="7.9278043"><ele>364.5</ele><time>2026-04-25T13:55:43.086Z</time></trkpt><trkpt lat="44.8038935" lon="7.9276392"><ele>365.75</ele><time>2026-04-25T13:55:44.086Z</time></trkpt><trkpt lat="44.8038619" lon="7.9274732"><ele>367.0</ele><time>2026-04-25T13:55:45.086Z</time></trkpt><trkpt lat="44.8038174" lon="7.9273131"><ele>368.6</ele><time>2026-04-25T13:55:46.085Z</time></trkpt><trkpt lat="44.8037755" lon="7.9271921"><ele>370.20000000000005</ele><time>2026-04-25T13:55:47.085Z</time></trkpt><trkpt lat="44.8037104" lon="7.9270815"><ele>371.8</ele><time>2026-04-25T13:55:48.086Z</time></trkpt><trkpt lat="44.8036318" lon="7.9269868"><ele>373.4</ele><time>2026-04-25T13:55:49.085Z</time></trkpt><trkpt lat="44.8035085" lon="7.9269382"><ele>375.0</ele><time>2026-04-25T13:55:50.086Z</time></trkpt><trkpt lat="44.8033771" lon="7.9268849"><ele>376.0</ele><time>2026-04-25T13:55:51.086Z</time></trkpt><trkpt lat="44.8032393" lon="7.9268033"><ele>377.0</ele><time>2026-04-25T13:55:52.086Z</time></trkpt><trkpt lat="44.8030908" lon="7.9267542"><ele>378.0</ele><time>2026-04-25T13:55:53.086Z</time></trkpt><trkpt lat="44.8029353" lon="7.9267187"><ele>378.6666666666667</ele><time>2026-04-25T13:55:54.086Z</time></trkpt><trkpt lat="44.8027727" lon="7.9266798"><ele>379.33333333333337</ele><time>2026-04-25T13:55:55.086Z</time></trkpt><trkpt lat="44.8026219" lon="7.9266283"><ele>380.0</ele><time>2026-04-25T13:55:56.086Z</time></trkpt><trkpt lat="44.8024635" lon="7.926553"><ele>381.0</ele><time>2026-04-25T13:55:57.086Z</time></trkpt><trkpt lat="44.8023128" lon="7.9264769"><ele>382.0</ele><time>2026-04-25T13:55:58.085Z</time></trkpt><trkpt lat="44.8021638" lon="7.9264132"><ele>383.0</ele><time>2026-04-25T13:55:59.085Z</time></trkpt><trkpt lat="44.8020106" lon="7.9263762"><ele>383.0</ele><time>2026-04-25T13:56:00.086Z</time></trkpt><trkpt lat="44.8018654" lon="7.9263529"><ele>383.0</ele><time>2026-04-25T13:56:01.086Z</time></trkpt><trkpt lat="44.8017333" lon="7.926349"><ele>383.0</ele><time>2026-04-25T13:56:02.086Z</time></trkpt><trkpt lat="44.8016006" lon="7.9263554"><ele>383.0</ele><time>2026-04-25T13:56:03.086Z</time></trkpt><trkpt lat="44.8014822" lon="7.9263418"><ele>383.5</ele><time>2026-04-25T13:56:04.086Z</time></trkpt><trkpt lat="44.8013586" lon="7.9263416"><ele>384.0</ele><time>2026-04-25T13:56:05.085Z</time></trkpt><trkpt lat="44.8012511" lon="7.9263351"><ele>384.5</ele><time>2026-04-25T13:56:06.086Z</time></trkpt><trkpt lat="44.8011547" lon="7.926279"><ele>385.0</ele><time>2026-04-25T13:56:07.086Z</time></trkpt><trkpt lat="44.8010537" lon="7.9261971"><ele>385.2</ele><time>2026-04-25T13:56:08.086Z</time></trkpt><trkpt lat="44.8009622" lon="7.92611"><ele>385.4</ele><time>2026-04-25T13:56:09.085Z</time></trkpt><trkpt lat="44.8008737" lon="7.9260243"><ele>385.6</ele><time>2026-04-25T13:56:10.086Z</time></trkpt><trkpt lat="44.800785" lon="7.9259613"><ele>385.8</ele><time>2026-04-25T13:56:11.086Z</time></trkpt><trkpt lat="44.8006872" lon="7.9259152"><ele>386.0</ele><time>2026-04-25T13:56:12.086Z</time></trkpt><trkpt lat="44.8005738" lon="7.9259394"><ele>386.0</ele><time>2026-04-25T13:56:13.085Z</time></trkpt><trkpt lat="44.8004826" lon="7.9259509"><ele>386.0</ele><time>2026-04-25T13:56:14.086Z</time></trkpt><trkpt lat="44.800384" lon="7.9260463"><ele>386.0</ele><time>2026-04-25T13:56:15.085Z</time></trkpt><trkpt lat="44.8002998" lon="7.9261356"><ele>386.0</ele><time>2026-04-25T13:56:16.086Z</time></trkpt><trkpt lat="44.8002076" lon="7.9262608"><ele>386.0</ele><time>2026-04-25T13:56:17.085Z</time></trkpt><trkpt lat="44.8001146" lon="7.926436"><ele>386.0</ele><time>2026-04-25T13:56:18.086Z</time></trkpt><trkpt lat="44.8000235" lon="7.9266209"><ele>386.0</ele><time>2026-04-25T13:56:19.086Z</time></trkpt><trkpt lat="44.799932" lon="7.9268134"><ele>386.0</ele><time>2026-04-25T13:56:20.086Z</time></trkpt><trkpt lat="44.7998516" lon="7.927"><ele>386.0</ele><time>2026-04-25T13:56:21.086Z</time></trkpt><trkpt lat="44.7997497" lon="7.9271843"><ele>386.0</ele><time>2026-04-25T13:56:22.086Z</time></trkpt><trkpt lat="44.7996482" lon="7.9273757"><ele>386.0</ele><time>2026-04-25T13:56:23.086Z</time></trkpt><trkpt lat="44.7995297" lon="7.9275526"><ele>386.3333333333333</ele><time>2026-04-25T13:56:24.086Z</time></trkpt><trkpt lat="44.7994074" lon="7.9277232"><ele>386.66666666666663</ele><time>2026-04-25T13:56:25.085Z</time></trkpt><trkpt lat="44.7992869" lon="7.9278868"><ele>387.0</ele><time>2026-04-25T13:56:26.086Z</time></trkpt><trkpt lat="44.7991811" lon="7.9280531"><ele>387.0</ele><time>2026-04-25T13:56:27.086Z</time></trkpt><trkpt lat="44.7990643" lon="7.9281869"><ele>387.0</ele><time>2026-04-25T13:56:28.085Z</time></trkpt><trkpt lat="44.7989466" lon="7.9283188"><ele>387.0</ele><time>2026-04-25T13:56:29.086Z</time></trkpt><trkpt lat="44.798817" lon="7.9284294"><ele>385.3333333333333</ele><time>2026-04-25T13:56:30.086Z</time></trkpt><trkpt lat="44.7986867" lon="7.92854"><ele>383.66666666666663</ele><time>2026-04-25T13:56:31.086Z</time></trkpt><trkpt lat="44.7985527" lon="7.9286597"><ele>382.0</ele><time>2026-04-25T13:56:32.085Z</time></trkpt><trkpt lat="44.7984143" lon="7.9287934"><ele>382.0</ele><time>2026-04-25T13:56:33.085Z</time></trkpt><trkpt lat="44.7982765" lon="7.9289155"><ele>382.0</ele><time>2026-04-25T13:56:34.085Z</time></trkpt><trkpt lat="44.798134" lon="7.9290296"><ele>382.0</ele><time>2026-04-25T13:56:35.086Z</time></trkpt><trkpt lat="44.7979958" lon="7.9291073"><ele>382.0</ele><time>2026-04-25T13:56:36.086Z</time></trkpt><trkpt lat="44.7978613" lon="7.9291842"><ele>382.0</ele><time>2026-04-25T13:56:37.085Z</time></trkpt><trkpt lat="44.7977389" lon="7.9292472"><ele>382.0</ele><time>2026-04-25T13:56:38.085Z</time></trkpt><trkpt lat="44.797627" lon="7.929322"><ele>382.0</ele><time>2026-04-25T13:56:39.086Z</time></trkpt><trkpt lat="44.7975267" lon="7.9294399"><ele>380.75</ele><time>2026-04-25T13:56:40.085Z</time></trkpt><trkpt lat="44.7974427" lon="7.9295827"><ele>379.5</ele><time>2026-04-25T13:56:41.086Z</time></trkpt><trkpt lat="44.7973676" lon="7.929741"><ele>378.25</ele><time>2026-04-25T13:56:42.086Z</time></trkpt><trkpt lat="44.7973046" lon="7.9298878"><ele>377.0</ele><time>2026-04-25T13:56:43.085Z</time></trkpt><trkpt lat="44.7972276" lon="7.9300018"><ele>376.5</ele><time>2026-04-25T13:56:44.086Z</time></trkpt><trkpt lat="44.7971508" lon="7.9300979"><ele>376.0</ele><time>2026-04-25T13:56:45.085Z</time></trkpt><trkpt lat="44.7970472" lon="7.930146"><ele>375.5</ele><time>2026-04-25T13:56:46.086Z</time></trkpt><trkpt lat="44.7969144" lon="7.9302051"><ele>375.0</ele><time>2026-04-25T13:56:47.086Z</time></trkpt><trkpt lat="44.7967809" lon="7.9302661"><ele>378.25</ele><time>2026-04-25T13:56:48.086Z</time></trkpt><trkpt lat="44.7966541" lon="7.9303261"><ele>381.5</ele><time>2026-04-25T13:56:49.086Z</time></trkpt><trkpt lat="44.7965207" lon="7.9303772"><ele>384.75</ele><time>2026-04-25T13:56:50.086Z</time></trkpt><trkpt lat="44.7963875" lon="7.9304025"><ele>388.0</ele><time>2026-04-25T13:56:51.086Z</time></trkpt><trkpt lat="44.7962476" lon="7.9304013"><ele>388.0</ele><time>2026-04-25T13:56:52.086Z</time></trkpt><trkpt lat="44.7960934" lon="7.9303752"><ele>388.0</ele><time>2026-04-25T13:56:53.085Z</time></trkpt><trkpt lat="44.7959367" lon="7.9303237"><ele>388.0</ele><time>2026-04-25T13:56:54.086Z</time></trkpt><trkpt lat="44.7957842" lon="7.9302493"><ele>388.33333333333337</ele><time>2026-04-25T13:56:55.085Z</time></trkpt><trkpt lat="44.7956224" lon="7.9301863"><ele>388.66666666666663</ele><time>2026-04-25T13:56:56.086Z</time></trkpt><trkpt lat="44.7954883" lon="7.9300953"><ele>389.0</ele><time>2026-04-25T13:56:57.085Z</time></trkpt><trkpt lat="44.795359" lon="7.9300087"><ele>385.75</ele><time>2026-04-25T13:56:58.086Z</time></trkpt><trkpt lat="44.7952374" lon="7.9299393"><ele>382.5</ele><time>2026-04-25T13:56:59.086Z</time></trkpt><trkpt lat="44.7951275" lon="7.9298843"><ele>379.25</ele><time>2026-04-25T13:57:00.085Z</time></trkpt><trkpt lat="44.7950201" lon="7.9298654"><ele>376.0</ele><time>2026-04-25T13:57:01.086Z</time></trkpt><trkpt lat="44.7949032" lon="7.9298908"><ele>375.75</ele><time>2026-04-25T13:57:02.086Z</time></trkpt><trkpt lat="44.7948205" lon="7.9299723"><ele>375.5</ele><time>2026-04-25T13:57:03.086Z</time></trkpt><trkpt lat="44.7947427" lon="7.9300899"><ele>375.25</ele><time>2026-04-25T13:57:04.086Z</time></trkpt><trkpt lat="44.7946785" lon="7.9302346"><ele>375.0</ele><time>2026-04-25T13:57:05.086Z</time></trkpt><trkpt lat="44.7946131" lon="7.9303942"><ele>375.5</ele><time>2026-04-25T13:57:06.086Z</time></trkpt><trkpt lat="44.7945784" lon="7.9305545"><ele>376.0</ele><time>2026-04-25T13:57:07.086Z</time></trkpt><trkpt lat="44.7945484" lon="7.9307034"><ele>376.5</ele><time>2026-04-25T13:57:08.086Z</time></trkpt><trkpt lat="44.7945204" lon="7.9308518"><ele>377.0</ele><time>2026-04-25T13:57:09.086Z</time></trkpt><trkpt lat="44.794563" lon="7.9310039"><ele>377.0</ele><time>2026-04-25T13:57:10.085Z</time></trkpt><trkpt lat="44.7946094" lon="7.9311482"><ele>377.0</ele><time>2026-04-25T13:57:11.086Z</time></trkpt><trkpt lat="44.7946555" lon="7.9312768"><ele>377.0</ele><time>2026-04-25T13:57:12.086Z</time></trkpt><trkpt lat="44.7946882" lon="7.9313965"><ele>377.0</ele><time>2026-04-25T13:57:13.086Z</time></trkpt><trkpt lat="44.7946639" lon="7.9315105"><ele>377.0</ele><time>2026-04-25T13:57:14.086Z</time></trkpt><trkpt lat="44.7946249" lon="7.9316243"><ele>377.0</ele><time>2026-04-25T13:57:15.085Z</time></trkpt><trkpt lat="44.7945491" lon="7.9317381"><ele>377.0</ele><time>2026-04-25T13:57:16.086Z</time></trkpt><trkpt lat="44.7944753" lon="7.9318372"><ele>377.0</ele><time>2026-04-25T13:57:17.086Z</time></trkpt><trkpt lat="44.794393" lon="7.9319332"><ele>377.0</ele><time>2026-04-25T13:57:18.085Z</time></trkpt><trkpt lat="44.7942987" lon="7.9319971"><ele>377.0</ele><time>2026-04-25T13:57:19.086Z</time></trkpt><trkpt lat="44.794205" lon="7.9320092"><ele>374.0</ele><time>2026-04-25T13:57:20.086Z</time></trkpt><trkpt lat="44.7941088" lon="7.9319774"><ele>371.0</ele><time>2026-04-25T13:57:21.086Z</time></trkpt><trkpt lat="44.794007" lon="7.9318827"><ele>368.0</ele><time>2026-04-25T13:57:22.086Z</time></trkpt><trkpt lat="44.7939127" lon="7.9317494"><ele>365.0</ele><time>2026-04-25T13:57:23.086Z</time></trkpt><trkpt lat="44.7938134" lon="7.9315999"><ele>363.25</ele><time>2026-04-25T13:57:24.086Z</time></trkpt><trkpt lat="44.7937187" lon="7.9314566"><ele>361.5</ele><time>2026-04-25T13:57:25.085Z</time></trkpt><trkpt lat="44.7936405" lon="7.9313381"><ele>359.75</ele><time>2026-04-25T13:57:26.085Z</time></trkpt><trkpt lat="44.7935492" lon="7.9312066"><ele>358.0</ele><time>2026-04-25T13:57:27.086Z</time></trkpt><trkpt lat="44.7934563" lon="7.9310938"><ele>357.16666666666663</ele><time>2026-04-25T13:57:28.086Z</time></trkpt><trkpt lat="44.7933859" lon="7.9309872"><ele>356.3333333333333</ele><time>2026-04-25T13:57:29.085Z</time></trkpt><trkpt lat="44.7933264" lon="7.9308942"><ele>355.5</ele><time>2026-04-25T13:57:30.086Z</time></trkpt><trkpt lat="44.7932732" lon="7.9308195"><ele>354.6666666666667</ele><time>2026-04-25T13:57:31.086Z</time></trkpt><trkpt lat="44.7932269" lon="7.9307485"><ele>353.83333333333337</ele><time>2026-04-25T13:57:33.086Z</time></trkpt><trkpt lat="44.7931655" lon="7.9307191"><ele>353.0</ele><time>2026-04-25T13:57:36.085Z</time></trkpt><trkpt lat="44.793071" lon="7.9308074"><ele>353.0</ele><time>2026-04-25T13:57:38.085Z</time></trkpt><trkpt lat="44.7930351" lon="7.9308896"><ele>353.0</ele><time>2026-04-25T13:57:39.085Z</time></trkpt><trkpt lat="44.7929982" lon="7.9309884"><ele>353.0</ele><time>2026-04-25T13:57:40.085Z</time></trkpt><trkpt lat="44.7929468" lon="7.9311073"><ele>353.0</ele><time>2026-04-25T13:57:41.086Z</time></trkpt><trkpt lat="44.7928997" lon="7.93126"><ele>353.0</ele><time>2026-04-25T13:57:42.086Z</time></trkpt><trkpt lat="44.7928453" lon="7.9314024"><ele>353.0</ele><time>2026-04-25T13:57:43.086Z</time></trkpt><trkpt lat="44.7927848" lon="7.9315464"><ele>353.0</ele><time>2026-04-25T13:57:44.086Z</time></trkpt><trkpt lat="44.792716" lon="7.9316982"><ele>353.0</ele><time>2026-04-25T13:57:45.086Z</time></trkpt><trkpt lat="44.7926565" lon="7.9318738"><ele>353.0</ele><time>2026-04-25T13:57:46.085Z</time></trkpt><trkpt lat="44.7925943" lon="7.9320405"><ele>353.0</ele><time>2026-04-25T13:57:47.086Z</time></trkpt><trkpt lat="44.7925267" lon="7.9322254"><ele>353.0</ele><time>2026-04-25T13:57:48.086Z</time></trkpt><trkpt lat="44.792456" lon="7.9324238"><ele>353.0</ele><time>2026-04-25T13:57:49.086Z</time></trkpt><trkpt lat="44.792375" lon="7.9325989"><ele>355.0</ele><time>2026-04-25T13:57:50.085Z</time></trkpt><trkpt lat="44.792302" lon="7.9327893"><ele>357.0</ele><time>2026-04-25T13:57:51.085Z</time></trkpt><trkpt lat="44.7922267" lon="7.93299"><ele>359.0</ele><time>2026-04-25T13:57:52.086Z</time></trkpt><trkpt lat="44.792147" lon="7.9331996"><ele>360.6666666666667</ele><time>2026-04-25T13:57:53.086Z</time></trkpt><trkpt lat="44.792065" lon="7.9334083"><ele>362.3333333333333</ele><time>2026-04-25T13:57:54.086Z</time></trkpt><trkpt lat="44.7919873" lon="7.9336219"><ele>364.0</ele><time>2026-04-25T13:57:55.086Z</time></trkpt><trkpt lat="44.791919" lon="7.9338506"><ele>364.0</ele><time>2026-04-25T13:57:56.085Z</time></trkpt><trkpt lat="44.791849" lon="7.9340934"><ele>364.0</ele><time>2026-04-25T13:57:57.086Z</time></trkpt><trkpt lat="44.7917777" lon="7.9343232"><ele>364.0</ele><time>2026-04-25T13:57:58.086Z</time></trkpt><trkpt lat="44.7917032" lon="7.9345591"><ele>364.66666666666663</ele><time>2026-04-25T13:57:59.085Z</time></trkpt><trkpt lat="44.7916273" lon="7.9347843"><ele>365.3333333333333</ele><time>2026-04-25T13:58:00.086Z</time></trkpt><trkpt lat="44.7915528" lon="7.9350286"><ele>366.0</ele><time>2026-04-25T13:58:01.086Z</time></trkpt><trkpt lat="44.7914791" lon="7.9352635"><ele>366.0</ele><time>2026-04-25T13:58:02.086Z</time></trkpt><trkpt lat="44.7914183" lon="7.9354936"><ele>366.0</ele><time>2026-04-25T13:58:03.085Z</time></trkpt><trkpt lat="44.7913554" lon="7.9357125"><ele>366.0</ele><time>2026-04-25T13:58:04.085Z</time></trkpt><trkpt lat="44.7912874" lon="7.9359334"><ele>369.3333333333333</ele><time>2026-04-25T13:58:05.085Z</time></trkpt><trkpt lat="44.7912338" lon="7.9361445"><ele>372.66666666666663</ele><time>2026-04-25T13:58:06.086Z</time></trkpt><trkpt lat="44.7911703" lon="7.9363488"><ele>376.0</ele><time>2026-04-25T13:58:07.085Z</time></trkpt><trkpt lat="44.7911134" lon="7.9365377"><ele>376.0</ele><time>2026-04-25T13:58:08.086Z</time></trkpt><trkpt lat="44.7910702" lon="7.9367027"><ele>376.0</ele><time>2026-04-25T13:58:09.086Z</time></trkpt><trkpt lat="44.7910272" lon="7.9368984"><ele>376.0</ele><time>2026-04-25T13:58:10.086Z</time></trkpt><trkpt lat="44.7909785" lon="7.9370756"><ele>376.0</ele><time>2026-04-25T13:58:11.086Z</time></trkpt><trkpt lat="44.7909222" lon="7.9372436"><ele>370.75</ele><time>2026-04-25T13:58:12.086Z</time></trkpt><trkpt lat="44.7908221" lon="7.9373844"><ele>365.5</ele><time>2026-04-25T13:58:13.086Z</time></trkpt><trkpt lat="44.7907242" lon="7.9375245"><ele>360.25</ele><time>2026-04-25T13:58:14.086Z</time></trkpt><trkpt lat="44.7906206" lon="7.9376573"><ele>355.0</ele><time>2026-04-25T13:58:15.086Z</time></trkpt><trkpt lat="44.7905218" lon="7.9377799"><ele>352.25</ele><time>2026-04-25T13:58:16.086Z</time></trkpt><trkpt lat="44.7904323" lon="7.9378987"><ele>349.5</ele><time>2026-04-25T13:58:17.086Z</time></trkpt><trkpt lat="44.790346" lon="7.9380255"><ele>346.75</ele><time>2026-04-25T13:58:18.086Z</time></trkpt><trkpt lat="44.7902748" lon="7.9381602"><ele>344.0</ele><time>2026-04-25T13:58:19.086Z</time></trkpt><trkpt lat="44.7902176" lon="7.9383075"><ele>343.0</ele><time>2026-04-25T13:58:20.086Z</time></trkpt><trkpt lat="44.7901827" lon="7.9384644"><ele>342.0</ele><time>2026-04-25T13:58:21.086Z</time></trkpt><trkpt lat="44.7901387" lon="7.9386113"><ele>341.0</ele><time>2026-04-25T13:58:22.086Z</time></trkpt><trkpt lat="44.7900746" lon="7.9387438"><ele>340.0</ele><time>2026-04-25T13:58:23.085Z</time></trkpt><trkpt lat="44.7899855" lon="7.9388522"><ele>340.0</ele><time>2026-04-25T13:58:24.086Z</time></trkpt><trkpt lat="44.7898883" lon="7.9389425"><ele>340.0</ele><time>2026-04-25T13:58:25.086Z</time></trkpt><trkpt lat="44.7897974" lon="7.9390459"><ele>340.0</ele><time>2026-04-25T13:58:26.085Z</time></trkpt><trkpt lat="44.7897156" lon="7.9391429"><ele>340.0</ele><time>2026-04-25T13:58:27.086Z</time></trkpt><trkpt lat="44.789633" lon="7.9392326"><ele>340.0</ele><time>2026-04-25T13:58:28.085Z</time></trkpt><trkpt lat="44.7895528" lon="7.9393084"><ele>339.8</ele><time>2026-04-25T13:58:29.085Z</time></trkpt><trkpt lat="44.7894627" lon="7.9393741"><ele>339.6</ele><time>2026-04-25T13:58:30.086Z</time></trkpt><trkpt lat="44.7893639" lon="7.9394173"><ele>339.4</ele><time>2026-04-25T13:58:31.085Z</time></trkpt><trkpt lat="44.7892683" lon="7.9394628"><ele>339.2</ele><time>2026-04-25T13:58:32.086Z</time></trkpt><trkpt lat="44.7891841" lon="7.9395022"><ele>339.0</ele><time>2026-04-25T13:58:33.085Z</time></trkpt><trkpt lat="44.7891125" lon="7.9395349"><ele>340.79999999999995</ele><time>2026-04-25T13:58:34.086Z</time></trkpt><trkpt lat="44.7890071" lon="7.9396192"><ele>342.59999999999997</ele><time>2026-04-25T13:58:36.086Z</time></trkpt><trkpt lat="44.7889202" lon="7.9397701"><ele>344.4</ele><time>2026-04-25T13:58:38.086Z</time></trkpt><trkpt lat="44.7888772" lon="7.9398491"><ele>346.2</ele><time>2026-04-25T13:58:39.085Z</time></trkpt><trkpt lat="44.7888411" lon="7.9399231"><ele>348.0</ele><time>2026-04-25T13:58:40.086Z</time></trkpt><trkpt lat="44.7887909" lon="7.9400612"><ele>349.4</ele><time>2026-04-25T13:58:41.086Z</time></trkpt><trkpt lat="44.788733" lon="7.9401809"><ele>350.79999999999995</ele><time>2026-04-25T13:58:42.085Z</time></trkpt><trkpt lat="44.7887103" lon="7.940313"><ele>352.2</ele><time>2026-04-25T13:58:43.085Z</time></trkpt><trkpt lat="44.7886717" lon="7.9404573"><ele>353.6</ele><time>2026-04-25T13:58:44.086Z</time></trkpt><trkpt lat="44.7886587" lon="7.9406066"><ele>355.0</ele><time>2026-04-25T13:58:45.086Z</time></trkpt><trkpt lat="44.7886175" lon="7.9407407"><ele>352.0</ele><time>2026-04-25T13:58:46.086Z</time></trkpt><trkpt lat="44.7885775" lon="7.9408929"><ele>349.0</ele><time>2026-04-25T13:58:47.086Z</time></trkpt><trkpt lat="44.7885476" lon="7.9410404"><ele>346.0</ele><time>2026-04-25T13:58:48.086Z</time></trkpt><trkpt lat="44.7885274" lon="7.9411824"><ele>343.0</ele><time>2026-04-25T13:58:49.086Z</time></trkpt><trkpt lat="44.7884935" lon="7.9413149"><ele>340.0</ele><time>2026-04-25T13:58:50.085Z</time></trkpt><trkpt lat="44.7884708" lon="7.9414422"><ele>337.4</ele><time>2026-04-25T13:58:51.086Z</time></trkpt><trkpt lat="44.7884073" lon="7.9415601"><ele>334.8</ele><time>2026-04-25T13:58:52.085Z</time></trkpt><trkpt lat="44.7883659" lon="7.9416861"><ele>332.20000000000005</ele><time>2026-04-25T13:58:53.086Z</time></trkpt><trkpt lat="44.7883178" lon="7.9417854"><ele>329.6</ele><time>2026-04-25T13:58:54.085Z</time></trkpt><trkpt lat="44.7882577" lon="7.9418817"><ele>327.0</ele><time>2026-04-25T13:58:55.085Z</time></trkpt><trkpt lat="44.7881889" lon="7.941962"><ele>324.20000000000005</ele><time>2026-04-25T13:58:56.086Z</time></trkpt><trkpt lat="44.7881158" lon="7.9420234"><ele>321.40000000000003</ele><time>2026-04-25T13:58:57.085Z</time></trkpt><trkpt lat="44.7879967" lon="7.9421134"><ele>318.6</ele><time>2026-04-25T13:58:58.086Z</time></trkpt><trkpt lat="44.7879064" lon="7.9421692"><ele>315.8</ele><time>2026-04-25T13:58:59.085Z</time></trkpt><trkpt lat="44.7878197" lon="7.9422373"><ele>313.0</ele><time>2026-04-25T13:59:00.085Z</time></trkpt><trkpt lat="44.787722" lon="7.9422862"><ele>313.8</ele><time>2026-04-25T13:59:01.086Z</time></trkpt><trkpt lat="44.7876275" lon="7.9423371"><ele>314.6</ele><time>2026-04-25T13:59:02.086Z</time></trkpt><trkpt lat="44.7875385" lon="7.9424085"><ele>315.4</ele><time>2026-04-25T13:59:03.086Z</time></trkpt><trkpt lat="44.7874495" lon="7.9424759"><ele>316.2</ele><time>2026-04-25T13:59:04.085Z</time></trkpt><trkpt lat="44.7873448" lon="7.9425102"><ele>317.0</ele><time>2026-04-25T13:59:05.085Z</time></trkpt><trkpt lat="44.7872455" lon="7.9425603"><ele>314.6</ele><time>2026-04-25T13:59:06.086Z</time></trkpt><trkpt lat="44.7871403" lon="7.9426221"><ele>312.2</ele><time>2026-04-25T13:59:07.086Z</time></trkpt><trkpt lat="44.7870556" lon="7.9427049"><ele>309.8</ele><time>2026-04-25T13:59:08.086Z</time></trkpt><trkpt lat="44.7869629" lon="7.9427968"><ele>307.4</ele><time>2026-04-25T13:59:09.086Z</time></trkpt><trkpt lat="44.7868771" lon="7.9428857"><ele>305.0</ele><time>2026-04-25T13:59:10.085Z</time></trkpt><trkpt lat="44.7867759" lon="7.942994"><ele>305.0</ele><time>2026-04-25T13:59:11.086Z</time></trkpt><trkpt lat="44.7866702" lon="7.9431246"><ele>305.0</ele><time>2026-04-25T13:59:12.086Z</time></trkpt><trkpt lat="44.7865814" lon="7.9432347"><ele>305.0</ele><time>2026-04-25T13:59:13.085Z</time></trkpt><trkpt lat="44.7864968" lon="7.9433298"><ele>305.0</ele><time>2026-04-25T13:59:14.086Z</time></trkpt><trkpt lat="44.7863995" lon="7.9434255"><ele>305.0</ele><time>2026-04-25T13:59:15.086Z</time></trkpt><trkpt lat="44.7862915" lon="7.9435155"><ele>305.0</ele><time>2026-04-25T13:59:16.086Z</time></trkpt><trkpt lat="44.7861826" lon="7.9436145"><ele>305.0</ele><time>2026-04-25T13:59:17.085Z</time></trkpt><trkpt lat="44.7860737" lon="7.9437127"><ele>305.0</ele><time>2026-04-25T13:59:18.086Z</time></trkpt><trkpt lat="44.7859707" lon="7.9438413"><ele>305.0</ele><time>2026-04-25T13:59:19.086Z</time></trkpt><trkpt lat="44.7858675" lon="7.9439847"><ele>305.0</ele><time>2026-04-25T13:59:20.086Z</time></trkpt><trkpt lat="44.7857598" lon="7.9441204"><ele>305.0</ele><time>2026-04-25T13:59:21.086Z</time></trkpt><trkpt lat="44.7856649" lon="7.9442351"><ele>305.0</ele><time>2026-04-25T13:59:22.086Z</time></trkpt><trkpt lat="44.7855623" lon="7.9443621"><ele>305.75</ele><time>2026-04-25T13:59:23.086Z</time></trkpt><trkpt lat="44.7854605" lon="7.9444922"><ele>306.5</ele><time>2026-04-25T13:59:24.085Z</time></trkpt><trkpt lat="44.7853698" lon="7.9446043"><ele>307.25</ele><time>2026-04-25T13:59:25.086Z</time></trkpt><trkpt lat="44.7852743" lon="7.9447246"><ele>308.0</ele><time>2026-04-25T13:59:26.086Z</time></trkpt><trkpt lat="44.7851772" lon="7.9448448"><ele>308.0</ele><time>2026-04-25T13:59:27.085Z</time></trkpt><trkpt lat="44.7850894" lon="7.9449492"><ele>308.0</ele><time>2026-04-25T13:59:28.086Z</time></trkpt><trkpt lat="44.7850056" lon="7.9450603"><ele>308.0</ele><time>2026-04-25T13:59:29.086Z</time></trkpt><trkpt lat="44.7849036" lon="7.9451755"><ele>308.0</ele><time>2026-04-25T13:59:30.086Z</time></trkpt><trkpt lat="44.7847705" lon="7.9452696"><ele>308.6666666666667</ele><time>2026-04-25T13:59:31.085Z</time></trkpt><trkpt lat="44.7846363" lon="7.9453611"><ele>309.3333333333333</ele><time>2026-04-25T13:59:32.086Z</time></trkpt><trkpt lat="44.7844836" lon="7.9454222"><ele>310.0</ele><time>2026-04-25T13:59:33.086Z</time></trkpt><trkpt lat="44.7843395" lon="7.9455031"><ele>310.0</ele><time>2026-04-25T13:59:34.086Z</time></trkpt><trkpt lat="44.7841847" lon="7.9455837"><ele>310.0</ele><time>2026-04-25T13:59:35.086Z</time></trkpt><trkpt lat="44.7840275" lon="7.9456617"><ele>310.0</ele><time>2026-04-25T13:59:36.086Z</time></trkpt><trkpt lat="44.7838765" lon="7.9457463"><ele>310.0</ele><time>2026-04-25T13:59:37.086Z</time></trkpt><trkpt lat="44.7837251" lon="7.9458303"><ele>310.0</ele><time>2026-04-25T13:59:38.086Z</time></trkpt><trkpt lat="44.7835791" lon="7.94591"><ele>310.0</ele><time>2026-04-25T13:59:39.085Z</time></trkpt><trkpt lat="44.7834399" lon="7.9459872"><ele>309.2</ele><time>2026-04-25T13:59:40.085Z</time></trkpt><trkpt lat="44.7833172" lon="7.9460667"><ele>308.4</ele><time>2026-04-25T13:59:41.086Z</time></trkpt><trkpt lat="44.7832208" lon="7.9461294"><ele>307.6</ele><time>2026-04-25T13:59:42.086Z</time></trkpt><trkpt lat="44.7831402" lon="7.9461939"><ele>306.8</ele><time>2026-04-25T13:59:43.085Z</time></trkpt><trkpt lat="44.7830591" lon="7.9462809"><ele>306.0</ele><time>2026-04-25T13:59:44.085Z</time></trkpt><trkpt lat="44.7829856" lon="7.9463597"><ele>306.0</ele><time>2026-04-25T13:59:45.086Z</time></trkpt><trkpt lat="44.7829051" lon="7.9464443"><ele>306.0</ele><time>2026-04-25T13:59:46.086Z</time></trkpt><trkpt lat="44.782809" lon="7.9464828"><ele>306.0</ele><time>2026-04-25T13:59:48.086Z</time></trkpt><trkpt lat="44.7827173" lon="7.946393"><ele>306.0</ele><time>2026-04-25T13:59:50.085Z</time></trkpt><trkpt lat="44.7827226" lon="7.9462819"><ele>306.0</ele><time>2026-04-25T13:59:51.086Z</time></trkpt><trkpt lat="44.7827438" lon="7.946152"><ele>306.0</ele><time>2026-04-25T13:59:52.086Z</time></trkpt><trkpt lat="44.7827605" lon="7.9460172"><ele>306.0</ele><time>2026-04-25T13:59:53.086Z</time></trkpt><trkpt lat="44.7827664" lon="7.9458871"><ele>306.0</ele><time>2026-04-25T13:59:54.086Z</time></trkpt><trkpt lat="44.7827423" lon="7.9457517"><ele>306.0</ele><time>2026-04-25T13:59:55.086Z</time></trkpt><trkpt lat="44.7826873" lon="7.9456219"><ele>306.0</ele><time>2026-04-25T13:59:56.086Z</time></trkpt><trkpt lat="44.782629" lon="7.9454978"><ele>301.0</ele><time>2026-04-25T13:59:57.085Z</time></trkpt><trkpt lat="44.7825591" lon="7.9453915"><ele>296.0</ele><time>2026-04-25T13:59:58.086Z</time></trkpt><trkpt lat="44.7824956" lon="7.9452887"><ele>291.0</ele><time>2026-04-25T13:59:59.086Z</time></trkpt><trkpt lat="44.7824419" lon="7.9452009"><ele>286.0</ele><time>2026-04-25T14:00:00.085Z</time></trkpt><trkpt lat="44.782345" lon="7.9450841"><ele>281.0</ele><time>2026-04-25T14:00:02.086Z</time></trkpt><trkpt lat="44.7822465" lon="7.945129"><ele>281.0</ele><time>2026-04-25T14:00:04.085Z</time></trkpt><trkpt lat="44.7821768" lon="7.9452064"><ele>281.0</ele><time>2026-04-25T14:00:06.086Z</time></trkpt><trkpt lat="44.7822423" lon="7.9453674"><ele>281.0</ele><time>2026-04-25T14:00:07.085Z</time></trkpt><trkpt lat="44.7822647" lon="7.9454741"><ele>281.0</ele><time>2026-04-25T14:00:08.086Z</time></trkpt><trkpt lat="44.7823418" lon="7.9455777"><ele>281.0</ele><time>2026-04-25T14:00:09.086Z</time></trkpt><trkpt lat="44.7823996" lon="7.9457078"><ele>281.0</ele><time>2026-04-25T14:00:10.086Z</time></trkpt><trkpt lat="44.7824177" lon="7.9458671"><ele>281.0</ele><time>2026-04-25T14:00:11.086Z</time></trkpt><trkpt lat="44.7824156" lon="7.9460456"><ele>281.0</ele><time>2026-04-25T14:00:12.086Z</time></trkpt><trkpt lat="44.782379" lon="7.9462321"><ele>281.0</ele><time>2026-04-25T14:00:13.086Z</time></trkpt><trkpt lat="44.7823252" lon="7.9463942"><ele>281.5</ele><time>2026-04-25T14:00:14.086Z</time></trkpt><trkpt lat="44.7822735" lon="7.9466"><ele>282.0</ele><time>2026-04-25T14:00:15.086Z</time></trkpt><trkpt lat="44.7821891" lon="7.9467762"><ele>282.5</ele><time>2026-04-25T14:00:16.086Z</time></trkpt><trkpt lat="44.7820941" lon="7.94692"><ele>283.0</ele><time>2026-04-25T14:00:17.085Z</time></trkpt><trkpt lat="44.7820051" lon="7.9470807"><ele>283.5</ele><time>2026-04-25T14:00:18.086Z</time></trkpt><trkpt lat="44.781925" lon="7.9472497"><ele>284.0</ele><time>2026-04-25T14:00:19.086Z</time></trkpt><trkpt lat="44.7818397" lon="7.9473982"><ele>284.5</ele><time>2026-04-25T14:00:20.086Z</time></trkpt><trkpt lat="44.7817646" lon="7.9475277"><ele>285.0</ele><time>2026-04-25T14:00:21.086Z</time></trkpt><trkpt lat="44.7816951" lon="7.9476479"><ele>281.5</ele><time>2026-04-25T14:00:22.086Z</time></trkpt><trkpt lat="44.7816679" lon="7.9477285"><ele>278.0</ele><time>2026-04-25T14:00:23.086Z</time></trkpt><trkpt lat="44.7816096" lon="7.947795"><ele>274.5</ele><time>2026-04-25T14:00:24.086Z</time></trkpt><trkpt lat="44.7815468" lon="7.9478171"><ele>271.0</ele><time>2026-04-25T14:00:25.086Z</time></trkpt><trkpt lat="44.7814498" lon="7.9477186"><ele>267.5</ele><time>2026-04-25T14:00:27.086Z</time></trkpt><trkpt lat="44.7814483" lon="7.9476219"><ele>264.0</ele><time>2026-04-25T14:00:28.086Z</time></trkpt><trkpt lat="44.7815452" lon="7.9474328"><ele>264.0</ele><time>2026-04-25T14:00:30.085Z</time></trkpt><trkpt lat="44.7816337" lon="7.9473316"><ele>264.0</ele><time>2026-04-25T14:00:31.085Z</time></trkpt><trkpt lat="44.7817266" lon="7.9472262"><ele>264.0</ele><time>2026-04-25T14:00:32.086Z</time></trkpt><trkpt lat="44.7818169" lon="7.9471024"><ele>264.0</ele><time>2026-04-25T14:00:33.086Z</time></trkpt><trkpt lat="44.7818769" lon="7.9469658"><ele>267.8</ele><time>2026-04-25T14:00:34.086Z</time></trkpt><trkpt lat="44.7819178" lon="7.9468217"><ele>271.59999999999997</ele><time>2026-04-25T14:00:35.086Z</time></trkpt><trkpt lat="44.7819286" lon="7.9466662"><ele>275.4</ele><time>2026-04-25T14:00:36.086Z</time></trkpt><trkpt lat="44.7819358" lon="7.946516"><ele>279.2</ele><time>2026-04-25T14:00:37.086Z</time></trkpt><trkpt lat="44.7819282" lon="7.9463719"><ele>283.0</ele><time>2026-04-25T14:00:38.086Z</time></trkpt><trkpt lat="44.7818879" lon="7.9462052"><ele>278.16666666666663</ele><time>2026-04-25T14:00:40.086Z</time></trkpt><trkpt lat="44.7817851" lon="7.9461761"><ele>273.3333333333333</ele><time>2026-04-25T14:00:42.086Z</time></trkpt><trkpt lat="44.7817376" lon="7.9462358"><ele>268.5</ele><time>2026-04-25T14:00:43.086Z</time></trkpt><trkpt lat="44.7817245" lon="7.9463314"><ele>263.6666666666667</ele><time>2026-04-25T14:00:44.085Z</time></trkpt><trkpt lat="44.7817358" lon="7.9464543"><ele>258.83333333333337</ele><time>2026-04-25T14:00:45.086Z</time></trkpt><trkpt lat="44.7817448" lon="7.9465827"><ele>254.0</ele><time>2026-04-25T14:00:46.086Z</time></trkpt><trkpt lat="44.7817228" lon="7.9466968"><ele>256.5</ele><time>2026-04-25T14:00:47.086Z</time></trkpt><trkpt lat="44.7816916" lon="7.9467949"><ele>259.0</ele><time>2026-04-25T14:00:48.086Z</time></trkpt><trkpt lat="44.7814984" lon="7.9468628"><ele>261.5</ele><time>2026-04-25T14:00:50.086Z</time></trkpt><trkpt lat="44.7813783" lon="7.9468758"><ele>264.0</ele><time>2026-04-25T14:00:51.085Z</time></trkpt><trkpt lat="44.7812549" lon="7.9468989"><ele>264.0</ele><time>2026-04-25T14:00:52.085Z</time></trkpt><trkpt lat="44.7811395" lon="7.9469162"><ele>264.0</ele><time>2026-04-25T14:00:53.086Z</time></trkpt><trkpt lat="44.7810472" lon="7.9469318"><ele>264.0</ele><time>2026-04-25T14:00:54.086Z</time></trkpt><trkpt lat="44.7809531" lon="7.9469219"><ele>264.0</ele><time>2026-04-25T14:00:55.086Z</time></trkpt><trkpt lat="44.7809219" lon="7.946835"><ele>264.0</ele><time>2026-04-25T14:00:56.085Z</time></trkpt><trkpt lat="44.7809218" lon="7.9467369"><ele>264.0</ele><time>2026-04-25T14:00:57.085Z</time></trkpt><trkpt lat="44.7809536" lon="7.946631"><ele>262.0</ele><time>2026-04-25T14:00:58.086Z</time></trkpt><trkpt lat="44.7810211" lon="7.9465299"><ele>260.0</ele><time>2026-04-25T14:00:59.086Z</time></trkpt><trkpt lat="44.7810844" lon="7.9464296"><ele>258.0</ele><time>2026-04-25T14:01:00.085Z</time></trkpt><trkpt lat="44.7811837" lon="7.946321"><ele>256.0</ele><time>2026-04-25T14:01:01.086Z</time></trkpt><trkpt lat="44.7812521" lon="7.9462175"><ele>254.0</ele><time>2026-04-25T14:01:02.086Z</time></trkpt><trkpt lat="44.7813096" lon="7.9460728"><ele>254.0</ele><time>2026-04-25T14:01:04.086Z</time></trkpt><trkpt lat="44.7813254" lon="7.9459574"><ele>254.0</ele><time>2026-04-25T14:01:06.086Z</time></trkpt><trkpt lat="44.7811806" lon="7.9459972"><ele>254.0</ele><time>2026-04-25T14:01:08.086Z</time></trkpt><trkpt lat="44.7810812" lon="7.9460463"><ele>254.0</ele><time>2026-04-25T14:01:09.085Z</time></trkpt><trkpt lat="44.7809564" lon="7.9461065"><ele>250.0</ele><time>2026-04-25T14:01:10.086Z</time></trkpt><trkpt lat="44.7808329" lon="7.9461849"><ele>246.0</ele><time>2026-04-25T14:01:11.086Z</time></trkpt><trkpt lat="44.7806983" lon="7.9462931"><ele>242.0</ele><time>2026-04-25T14:01:12.085Z</time></trkpt><trkpt lat="44.7805059" lon="7.9463854"><ele>242.0</ele><time>2026-04-25T14:01:13.086Z</time></trkpt><trkpt lat="44.7803219" lon="7.9464225"><ele>242.0</ele><time>2026-04-25T14:01:14.086Z</time></trkpt><trkpt lat="44.780174" lon="7.9464312"><ele>242.0</ele><time>2026-04-25T14:01:15.085Z</time></trkpt><trkpt lat="44.780013" lon="7.9463785"><ele>240.0</ele><time>2026-04-25T14:01:16.085Z</time></trkpt><trkpt lat="44.779838" lon="7.9463403"><ele>238.0</ele><time>2026-04-25T14:01:17.086Z</time></trkpt><trkpt lat="44.779667" lon="7.9462994"><ele>236.0</ele><time>2026-04-25T14:01:18.085Z</time></trkpt><trkpt lat="44.7795028" lon="7.9462656"><ele>236.0</ele><time>2026-04-25T14:01:19.086Z</time></trkpt><trkpt lat="44.7793654" lon="7.9462624"><ele>236.0</ele><time>2026-04-25T14:01:20.086Z</time></trkpt><trkpt lat="44.7791568" lon="7.9462946"><ele>236.0</ele><time>2026-04-25T14:01:21.086Z</time></trkpt><trkpt lat="44.7790258" lon="7.9464367"><ele>236.0</ele><time>2026-04-25T14:01:22.085Z</time></trkpt><trkpt lat="44.7788893" lon="7.9464838"><ele>236.0</ele><time>2026-04-25T14:01:23.086Z</time></trkpt><trkpt lat="44.7787455" lon="7.9465603"><ele>236.0</ele><time>2026-04-25T14:01:24.086Z</time></trkpt><trkpt lat="44.7786065" lon="7.9466373"><ele>236.0</ele><time>2026-04-25T14:01:25.086Z</time></trkpt><trkpt lat="44.7784798" lon="7.9466855"><ele>238.75</ele><time>2026-04-25T14:01:26.086Z</time></trkpt><trkpt lat="44.7783504" lon="7.9467498"><ele>241.5</ele><time>2026-04-25T14:01:27.086Z</time></trkpt><trkpt lat="44.7782283" lon="7.946808"><ele>244.25</ele><time>2026-04-25T14:01:28.086Z</time></trkpt><trkpt lat="44.7781034" lon="7.946874"><ele>247.0</ele><time>2026-04-25T14:01:29.086Z</time></trkpt><trkpt lat="44.7779645" lon="7.9469025"><ele>247.0</ele><time>2026-04-25T14:01:30.086Z</time></trkpt><trkpt lat="44.7778534" lon="7.9469064"><ele>247.0</ele><time>2026-04-25T14:01:31.086Z</time></trkpt><trkpt lat="44.7777613" lon="7.9468825"><ele>247.0</ele><time>2026-04-25T14:01:32.086Z</time></trkpt><trkpt lat="44.7776694" lon="7.9468411"><ele>247.0</ele><time>2026-04-25T14:01:33.086Z</time></trkpt><trkpt lat="44.7775895" lon="7.9467903"><ele>247.0</ele><time>2026-04-25T14:01:34.086Z</time></trkpt><trkpt lat="44.7775245" lon="7.9467386"><ele>247.99999999999997</ele><time>2026-04-25T14:01:35.086Z</time></trkpt><trkpt lat="44.7774174" lon="7.946664"><ele>249.0</ele><time>2026-04-25T14:01:37.086Z</time></trkpt><trkpt lat="44.7773509" lon="7.9466291"><ele>250.0</ele><time>2026-04-25T14:01:39.086Z</time></trkpt><trkpt lat="44.777267" lon="7.9465923"><ele>251.0</ele><time>2026-04-25T14:01:41.086Z</time></trkpt><trkpt lat="44.7771919" lon="7.946618"><ele>251.99999999999997</ele><time>2026-04-25T14:01:42.086Z</time></trkpt><trkpt lat="44.7771131" lon="7.9466694"><ele>253.0</ele><time>2026-04-25T14:01:43.086Z</time></trkpt><trkpt lat="44.7770371" lon="7.9467211"><ele>252.75</ele><time>2026-04-25T14:01:44.086Z</time></trkpt><trkpt lat="44.7769648" lon="7.9467794"><ele>252.5</ele><time>2026-04-25T14:01:45.086Z</time></trkpt><trkpt lat="44.7768301" lon="7.9468691"><ele>252.25</ele><time>2026-04-25T14:01:46.086Z</time></trkpt><trkpt lat="44.7767176" lon="7.9469721"><ele>252.0</ele><time>2026-04-25T14:01:47.086Z</time></trkpt><trkpt lat="44.7766239" lon="7.9470897"><ele>252.0</ele><time>2026-04-25T14:01:48.086Z</time></trkpt><trkpt lat="44.7765214" lon="7.9472466"><ele>252.0</ele><time>2026-04-25T14:01:49.086Z</time></trkpt><trkpt lat="44.7764481" lon="7.9474099"><ele>252.0</ele><time>2026-04-25T14:01:50.086Z</time></trkpt><trkpt lat="44.7763769" lon="7.9475778"><ele>252.0</ele><time>2026-04-25T14:01:51.086Z</time></trkpt><trkpt lat="44.7763261" lon="7.947751"><ele>253.0</ele><time>2026-04-25T14:01:52.085Z</time></trkpt><trkpt lat="44.7762908" lon="7.9479748"><ele>254.0</ele><time>2026-04-25T14:01:53.085Z</time></trkpt><trkpt lat="44.7762564" lon="7.9481993"><ele>255.0</ele><time>2026-04-25T14:01:54.085Z</time></trkpt><trkpt lat="44.7762303" lon="7.9484282"><ele>255.0</ele><time>2026-04-25T14:01:55.086Z</time></trkpt><trkpt lat="44.776196" lon="7.9486629"><ele>255.0</ele><time>2026-04-25T14:01:56.085Z</time></trkpt><trkpt lat="44.7761652" lon="7.9488863"><ele>255.0</ele><time>2026-04-25T14:01:57.086Z</time></trkpt><trkpt lat="44.7761338" lon="7.9491121"><ele>254.33333333333331</ele><time>2026-04-25T14:01:58.086Z</time></trkpt><trkpt lat="44.7761036" lon="7.9493371"><ele>253.66666666666666</ele><time>2026-04-25T14:01:59.086Z</time></trkpt><trkpt lat="44.7760854" lon="7.9495696"><ele>253.0</ele><time>2026-04-25T14:02:00.086Z</time></trkpt><trkpt lat="44.7760554" lon="7.9497912"><ele>253.0</ele><time>2026-04-25T14:02:01.086Z</time></trkpt><trkpt lat="44.7760287" lon="7.9500136"><ele>253.0</ele><time>2026-04-25T14:02:02.086Z</time></trkpt><trkpt lat="44.7760021" lon="7.9502346"><ele>253.0</ele><time>2026-04-25T14:02:03.086Z</time></trkpt><trkpt lat="44.7759795" lon="7.950447"><ele>247.25</ele><time>2026-04-25T14:02:04.086Z</time></trkpt><trkpt lat="44.7759492" lon="7.9506405"><ele>241.5</ele><time>2026-04-25T14:02:05.086Z</time></trkpt><trkpt lat="44.7759264" lon="7.9508254"><ele>235.75</ele><time>2026-04-25T14:02:06.086Z</time></trkpt><trkpt lat="44.7759063" lon="7.95101"><ele>230.0</ele><time>2026-04-25T14:02:07.085Z</time></trkpt><trkpt lat="44.7758948" lon="7.9511805"><ele>230.0</ele><time>2026-04-25T14:02:08.085Z</time></trkpt><trkpt lat="44.7758734" lon="7.9513566"><ele>230.0</ele><time>2026-04-25T14:02:09.085Z</time></trkpt><trkpt lat="44.7758564" lon="7.9515265"><ele>230.0</ele><time>2026-04-25T14:02:10.085Z</time></trkpt><trkpt lat="44.7758426" lon="7.9516816"><ele>230.0</ele><time>2026-04-25T14:02:11.086Z</time></trkpt><trkpt lat="44.775827" lon="7.9518287"><ele>229.66666666666669</ele><time>2026-04-25T14:02:12.086Z</time></trkpt><trkpt lat="44.7758146" lon="7.9519452"><ele>229.33333333333334</ele><time>2026-04-25T14:02:13.086Z</time></trkpt><trkpt lat="44.7757974" lon="7.9520425"><ele>229.0</ele><time>2026-04-25T14:02:14.085Z</time></trkpt><trkpt lat="44.7757325" lon="7.952182"><ele>228.66666666666669</ele><time>2026-04-25T14:02:16.086Z</time></trkpt><trkpt lat="44.7756722" lon="7.9522249"><ele>228.33333333333334</ele><time>2026-04-25T14:02:17.086Z</time></trkpt><trkpt lat="44.7755946" lon="7.9522244"><ele>228.0</ele><time>2026-04-25T14:02:18.086Z</time></trkpt><trkpt lat="44.7755285" lon="7.9522233"><ele>228.0</ele><time>2026-04-25T14:02:19.085Z</time></trkpt><trkpt lat="44.7754352" lon="7.9521247"><ele>228.0</ele><time>2026-04-25T14:02:20.085Z</time></trkpt><trkpt lat="44.7753452" lon="7.952046"><ele>228.0</ele><time>2026-04-25T14:02:21.086Z</time></trkpt><trkpt lat="44.7752437" lon="7.9519552"><ele>228.0</ele><time>2026-04-25T14:02:22.086Z</time></trkpt><trkpt lat="44.7751332" lon="7.951852"><ele>227.0</ele><time>2026-04-25T14:02:23.085Z</time></trkpt><trkpt lat="44.7750188" lon="7.9517325"><ele>226.0</ele><time>2026-04-25T14:02:24.086Z</time></trkpt><trkpt lat="44.7749027" lon="7.9516052"><ele>225.0</ele><time>2026-04-25T14:02:25.086Z</time></trkpt><trkpt lat="44.7747721" lon="7.9514858"><ele>224.0</ele><time>2026-04-25T14:02:26.086Z</time></trkpt><trkpt lat="44.7746436" lon="7.951343"><ele>224.0</ele><time>2026-04-25T14:02:27.086Z</time></trkpt><trkpt lat="44.7745144" lon="7.951204"><ele>224.0</ele><time>2026-04-25T14:02:28.086Z</time></trkpt><trkpt lat="44.774375" lon="7.9510547"><ele>224.0</ele><time>2026-04-25T14:02:29.086Z</time></trkpt><trkpt lat="44.7742242" lon="7.9509005"><ele>224.33333333333334</ele><time>2026-04-25T14:02:30.086Z</time></trkpt><trkpt lat="44.774071" lon="7.9507303"><ele>224.66666666666669</ele><time>2026-04-25T14:02:31.086Z</time></trkpt><trkpt lat="44.7739209" lon="7.9505785"><ele>225.0</ele><time>2026-04-25T14:02:32.086Z</time></trkpt><trkpt lat="44.7737379" lon="7.9504033"><ele>225.0</ele><time>2026-04-25T14:02:33.085Z</time></trkpt><trkpt lat="44.7735648" lon="7.9502298"><ele>225.0</ele><time>2026-04-25T14:02:34.085Z</time></trkpt><trkpt lat="44.7733808" lon="7.9500483"><ele>225.0</ele><time>2026-04-25T14:02:35.086Z</time></trkpt><trkpt lat="44.7731936" lon="7.9498615"><ele>226.0</ele><time>2026-04-25T14:02:36.086Z</time></trkpt><trkpt lat="44.7730038" lon="7.949641"><ele>227.0</ele><time>2026-04-25T14:02:37.086Z</time></trkpt><trkpt lat="44.7728214" lon="7.9494241"><ele>227.0</ele><time>2026-04-25T14:02:38.086Z</time></trkpt><trkpt lat="44.7726258" lon="7.9492207"><ele>227.0</ele><time>2026-04-25T14:02:39.085Z</time></trkpt><trkpt lat="44.7724432" lon="7.9490117"><ele>227.0</ele><time>2026-04-25T14:02:40.086Z</time></trkpt><trkpt lat="44.7722829" lon="7.9488406"><ele>227.0</ele><time>2026-04-25T14:02:41.086Z</time></trkpt><trkpt lat="44.7721212" lon="7.9486643"><ele>227.0</ele><time>2026-04-25T14:02:42.086Z</time></trkpt><trkpt lat="44.7719574" lon="7.9484776"><ele>228.33333333333334</ele><time>2026-04-25T14:02:43.086Z</time></trkpt><trkpt lat="44.7717986" lon="7.9483248"><ele>229.66666666666669</ele><time>2026-04-25T14:02:44.086Z</time></trkpt><trkpt lat="44.771633" lon="7.9481747"><ele>231.0</ele><time>2026-04-25T14:02:45.085Z</time></trkpt><trkpt lat="44.771454" lon="7.9480385"><ele>231.0</ele><time>2026-04-25T14:02:46.086Z</time></trkpt><trkpt lat="44.7712579" lon="7.9479533"><ele>231.0</ele><time>2026-04-25T14:02:47.086Z</time></trkpt><trkpt lat="44.7710691" lon="7.9478598"><ele>231.0</ele><time>2026-04-25T14:02:48.085Z</time></trkpt><trkpt lat="44.7708764" lon="7.9477687"><ele>230.0</ele><time>2026-04-25T14:02:49.086Z</time></trkpt><trkpt lat="44.770688" lon="7.9476855"><ele>229.0</ele><time>2026-04-25T14:02:50.086Z</time></trkpt><trkpt lat="44.7704987" lon="7.947608"><ele>228.0</ele><time>2026-04-25T14:02:51.086Z</time></trkpt><trkpt lat="44.7703578" lon="7.9475403"><ele>229.33333333333331</ele><time>2026-04-25T14:02:52.086Z</time></trkpt><trkpt lat="44.7702072" lon="7.9474625"><ele>230.66666666666666</ele><time>2026-04-25T14:02:53.086Z</time></trkpt><trkpt lat="44.7700634" lon="7.947366"><ele>232.0</ele><time>2026-04-25T14:02:54.086Z</time></trkpt><trkpt lat="44.769924" lon="7.9472669"><ele>232.0</ele><time>2026-04-25T14:02:55.086Z</time></trkpt><trkpt lat="44.7697901" lon="7.9471559"><ele>232.0</ele><time>2026-04-25T14:02:56.086Z</time></trkpt><trkpt lat="44.7696659" lon="7.94706"><ele>232.0</ele><time>2026-04-25T14:02:57.086Z</time></trkpt><trkpt lat="44.7695345" lon="7.9469833"><ele>232.0</ele><time>2026-04-25T14:02:58.085Z</time></trkpt><trkpt lat="44.7694202" lon="7.9469734"><ele>232.0</ele><time>2026-04-25T14:02:59.086Z</time></trkpt><trkpt lat="44.7692367" lon="7.9470329"><ele>232.0</ele><time>2026-04-25T14:03:00.086Z</time></trkpt><trkpt lat="44.7690847" lon="7.947101"><ele>232.0</ele><time>2026-04-25T14:03:01.085Z</time></trkpt><trkpt lat="44.7689252" lon="7.9471602"><ele>232.0</ele><time>2026-04-25T14:03:02.086Z</time></trkpt><trkpt lat="44.7687633" lon="7.9471855"><ele>232.0</ele><time>2026-04-25T14:03:03.085Z</time></trkpt><trkpt lat="44.7686056" lon="7.947198"><ele>232.0</ele><time>2026-04-25T14:03:04.086Z</time></trkpt><trkpt lat="44.768454" lon="7.94716"><ele>232.0</ele><time>2026-04-25T14:03:05.086Z</time></trkpt><trkpt lat="44.7683148" lon="7.9470815"><ele>232.0</ele><time>2026-04-25T14:03:06.085Z</time></trkpt><trkpt lat="44.7681837" lon="7.9469852"><ele>232.0</ele><time>2026-04-25T14:03:07.086Z</time></trkpt><trkpt lat="44.7680652" lon="7.9468742"><ele>232.0</ele><time>2026-04-25T14:03:08.086Z</time></trkpt><trkpt lat="44.7679624" lon="7.9466878"><ele>232.66666666666666</ele><time>2026-04-25T14:03:09.086Z</time></trkpt><trkpt lat="44.7678674" lon="7.9465084"><ele>233.33333333333331</ele><time>2026-04-25T14:03:10.085Z</time></trkpt><trkpt lat="44.7677693" lon="7.9462769"><ele>234.0</ele><time>2026-04-25T14:03:11.086Z</time></trkpt><trkpt lat="44.767666" lon="7.9460454"><ele>235.0</ele><time>2026-04-25T14:03:12.086Z</time></trkpt><trkpt lat="44.7675653" lon="7.945823"><ele>236.0</ele><time>2026-04-25T14:03:13.086Z</time></trkpt><trkpt lat="44.7674545" lon="7.9456024"><ele>237.0</ele><time>2026-04-25T14:03:14.086Z</time></trkpt><trkpt lat="44.7673538" lon="7.9453774"><ele>237.0</ele><time>2026-04-25T14:03:15.086Z</time></trkpt><trkpt lat="44.7672574" lon="7.9451556"><ele>237.0</ele><time>2026-04-25T14:03:16.086Z</time></trkpt><trkpt lat="44.7671612" lon="7.9449359"><ele>237.0</ele><time>2026-04-25T14:03:17.085Z</time></trkpt><trkpt lat="44.7670724" lon="7.9447113"><ele>239.33333333333331</ele><time>2026-04-25T14:03:18.086Z</time></trkpt><trkpt lat="44.7669931" lon="7.9444937"><ele>241.66666666666666</ele><time>2026-04-25T14:03:19.085Z</time></trkpt><trkpt lat="44.7669322" lon="7.9442498"><ele>244.0</ele><time>2026-04-25T14:03:20.086Z</time></trkpt><trkpt lat="44.7668727" lon="7.9439991"><ele>243.0</ele><time>2026-04-25T14:03:21.086Z</time></trkpt><trkpt lat="44.7668116" lon="7.9437427"><ele>242.0</ele><time>2026-04-25T14:03:22.086Z</time></trkpt><trkpt lat="44.7667573" lon="7.9434933"><ele>241.0</ele><time>2026-04-25T14:03:23.086Z</time></trkpt><trkpt lat="44.7666952" lon="7.943257"><ele>241.0</ele><time>2026-04-25T14:03:24.086Z</time></trkpt><trkpt lat="44.7666535" lon="7.9430203"><ele>241.0</ele><time>2026-04-25T14:03:25.086Z</time></trkpt><trkpt lat="44.7666149" lon="7.9427984"><ele>241.0</ele><time>2026-04-25T14:03:26.086Z</time></trkpt><trkpt lat="44.7666114" lon="7.942558"><ele>241.33333333333331</ele><time>2026-04-25T14:03:27.085Z</time></trkpt><trkpt lat="44.7665948" lon="7.9423244"><ele>241.66666666666669</ele><time>2026-04-25T14:03:28.085Z</time></trkpt><trkpt lat="44.7665971" lon="7.9420761"><ele>242.0</ele><time>2026-04-25T14:03:29.086Z</time></trkpt><trkpt lat="44.7665977" lon="7.9418418"><ele>241.75</ele><time>2026-04-25T14:03:30.085Z</time></trkpt><trkpt lat="44.7665899" lon="7.94162"><ele>241.5</ele><time>2026-04-25T14:03:31.086Z</time></trkpt><trkpt lat="44.7665613" lon="7.9414708"><ele>241.25</ele><time>2026-04-25T14:03:32.086Z</time></trkpt><trkpt lat="44.7665103" lon="7.9413068"><ele>241.0</ele><time>2026-04-25T14:03:33.086Z</time></trkpt><trkpt lat="44.76644" lon="7.9411396"><ele>241.0</ele><time>2026-04-25T14:03:34.085Z</time></trkpt><trkpt lat="44.766371" lon="7.940985"><ele>241.0</ele><time>2026-04-25T14:03:35.086Z</time></trkpt><trkpt lat="44.7662794" lon="7.9408379"><ele>241.0</ele><time>2026-04-25T14:03:36.085Z</time></trkpt><trkpt lat="44.7661605" lon="7.9406723"><ele>241.0</ele><time>2026-04-25T14:03:37.086Z</time></trkpt><trkpt lat="44.7659916" lon="7.9405159"><ele>242.0</ele><time>2026-04-25T14:03:38.086Z</time></trkpt><trkpt lat="44.7658349" lon="7.9403444"><ele>243.0</ele><time>2026-04-25T14:03:39.086Z</time></trkpt><trkpt lat="44.7656891" lon="7.9401687"><ele>244.0</ele><time>2026-04-25T14:03:40.086Z</time></trkpt><trkpt lat="44.7655287" lon="7.9400072"><ele>244.33333333333331</ele><time>2026-04-25T14:03:41.085Z</time></trkpt><trkpt lat="44.7653855" lon="7.9398403"><ele>244.66666666666669</ele><time>2026-04-25T14:03:42.086Z</time></trkpt><trkpt lat="44.7652292" lon="7.939677"><ele>245.0</ele><time>2026-04-25T14:03:43.085Z</time></trkpt><trkpt lat="44.7650867" lon="7.9395087"><ele>245.0</ele><time>2026-04-25T14:03:44.086Z</time></trkpt><trkpt lat="44.7649385" lon="7.9393408"><ele>245.0</ele><time>2026-04-25T14:03:45.085Z</time></trkpt><trkpt lat="44.7647849" lon="7.9391741"><ele>245.0</ele><time>2026-04-25T14:03:46.085Z</time></trkpt><trkpt lat="44.7646458" lon="7.9389972"><ele>245.66666666666669</ele><time>2026-04-25T14:03:47.086Z</time></trkpt><trkpt lat="44.7645001" lon="7.9388105"><ele>246.33333333333331</ele><time>2026-04-25T14:03:48.086Z</time></trkpt><trkpt lat="44.7643878" lon="7.9386332"><ele>247.0</ele><time>2026-04-25T14:03:49.086Z</time></trkpt><trkpt lat="44.7642574" lon="7.9384547"><ele>248.66666666666666</ele><time>2026-04-25T14:03:50.086Z</time></trkpt><trkpt lat="44.7641378" lon="7.9382931"><ele>250.33333333333331</ele><time>2026-04-25T14:03:51.086Z</time></trkpt><trkpt lat="44.7640367" lon="7.9381373"><ele>252.0</ele><time>2026-04-25T14:03:52.086Z</time></trkpt><trkpt lat="44.7639287" lon="7.937986"><ele>252.0</ele><time>2026-04-25T14:03:53.086Z</time></trkpt><trkpt lat="44.7638419" lon="7.9378459"><ele>252.0</ele><time>2026-04-25T14:03:54.085Z</time></trkpt><trkpt lat="44.7637769" lon="7.9376834"><ele>252.0</ele><time>2026-04-25T14:03:55.086Z</time></trkpt><trkpt lat="44.763721" lon="7.9375146"><ele>252.0</ele><time>2026-04-25T14:03:56.086Z</time></trkpt><trkpt lat="44.7636733" lon="7.9373449"><ele>252.0</ele><time>2026-04-25T14:03:57.086Z</time></trkpt><trkpt lat="44.7636199" lon="7.9371793"><ele>252.0</ele><time>2026-04-25T14:03:58.085Z</time></trkpt><trkpt lat="44.763513" lon="7.9370572"><ele>252.0</ele><time>2026-04-25T14:03:59.086Z</time></trkpt><trkpt lat="44.7633967" lon="7.9369418"><ele>252.0</ele><time>2026-04-25T14:04:00.086Z</time></trkpt><trkpt lat="44.7632856" lon="7.9368213"><ele>253.5</ele><time>2026-04-25T14:04:01.085Z</time></trkpt><trkpt lat="44.7631731" lon="7.9367143"><ele>255.0</ele><time>2026-04-25T14:04:02.086Z</time></trkpt><trkpt lat="44.763074" lon="7.9366643"><ele>256.5</ele><time>2026-04-25T14:04:03.086Z</time></trkpt><trkpt lat="44.7629398" lon="7.9366558"><ele>258.0</ele><time>2026-04-25T14:04:04.086Z</time></trkpt><trkpt lat="44.7628188" lon="7.9366681"><ele>258.0</ele><time>2026-04-25T14:04:05.086Z</time></trkpt><trkpt lat="44.7627073" lon="7.9366782"><ele>258.0</ele><time>2026-04-25T14:04:06.086Z</time></trkpt><trkpt lat="44.7625995" lon="7.936737"><ele>258.0</ele><time>2026-04-25T14:04:07.086Z</time></trkpt><trkpt lat="44.7625328" lon="7.9368014"><ele>258.0</ele><time>2026-04-25T14:04:08.086Z</time></trkpt><trkpt lat="44.7624558" lon="7.9368389"><ele>258.0</ele><time>2026-04-25T14:04:09.086Z</time></trkpt><trkpt lat="44.7623903" lon="7.9368629"><ele>257.8333333333333</ele><time>2026-04-25T14:04:10.085Z</time></trkpt><trkpt lat="44.7623352" lon="7.9369135"><ele>257.6666666666667</ele><time>2026-04-25T14:04:11.086Z</time></trkpt><trkpt lat="44.7622765" lon="7.9369907"><ele>257.5</ele><time>2026-04-25T14:04:12.086Z</time></trkpt><trkpt lat="44.7622182" lon="7.9370789"><ele>257.33333333333337</ele><time>2026-04-25T14:04:13.085Z</time></trkpt><trkpt lat="44.7621544" lon="7.9371515"><ele>257.1666666666667</ele><time>2026-04-25T14:04:14.086Z</time></trkpt><trkpt lat="44.7620725" lon="7.937223"><ele>257.0</ele><time>2026-04-25T14:04:15.086Z</time></trkpt><trkpt lat="44.7619497" lon="7.9372564"><ele>258.0</ele><time>2026-04-25T14:04:16.086Z</time></trkpt><trkpt lat="44.7618229" lon="7.9372662"><ele>259.0</ele><time>2026-04-25T14:04:17.086Z</time></trkpt><trkpt lat="44.7616763" lon="7.9372744"><ele>260.0</ele><time>2026-04-25T14:04:18.086Z</time></trkpt><trkpt lat="44.7615272" lon="7.937304"><ele>261.0</ele><time>2026-04-25T14:04:19.086Z</time></trkpt><trkpt lat="44.7613841" lon="7.9373687"><ele>261.0</ele><time>2026-04-25T14:04:20.085Z</time></trkpt><trkpt lat="44.7612431" lon="7.9374717"><ele>261.0</ele><time>2026-04-25T14:04:21.086Z</time></trkpt><trkpt lat="44.7611081" lon="7.9375791"><ele>261.0</ele><time>2026-04-25T14:04:22.086Z</time></trkpt><trkpt lat="44.7609738" lon="7.9377053"><ele>262.0</ele><time>2026-04-25T14:04:23.086Z</time></trkpt><trkpt lat="44.7608366" lon="7.9378231"><ele>263.0</ele><time>2026-04-25T14:04:24.086Z</time></trkpt><trkpt lat="44.7606918" lon="7.9379503"><ele>264.0</ele><time>2026-04-25T14:04:25.086Z</time></trkpt><trkpt lat="44.760546" lon="7.9380643"><ele>264.0</ele><time>2026-04-25T14:04:26.085Z</time></trkpt><trkpt lat="44.7603767" lon="7.9381673"><ele>264.0</ele><time>2026-04-25T14:04:27.085Z</time></trkpt><trkpt lat="44.7602155" lon="7.938268"><ele>264.0</ele><time>2026-04-25T14:04:28.086Z</time></trkpt><trkpt lat="44.7600819" lon="7.9383551"><ele>265.5</ele><time>2026-04-25T14:04:29.085Z</time></trkpt><trkpt lat="44.7599582" lon="7.9384293"><ele>267.0</ele><time>2026-04-25T14:04:30.086Z</time></trkpt><trkpt lat="44.7598321" lon="7.9384809"><ele>268.5</ele><time>2026-04-25T14:04:31.085Z</time></trkpt><trkpt lat="44.7596875" lon="7.93852"><ele>270.0</ele><time>2026-04-25T14:04:32.086Z</time></trkpt><trkpt lat="44.7595387" lon="7.9385199"><ele>270.0</ele><time>2026-04-25T14:04:33.086Z</time></trkpt><trkpt lat="44.7594011" lon="7.938495"><ele>270.0</ele><time>2026-04-25T14:04:34.086Z</time></trkpt><trkpt lat="44.7591976" lon="7.9384555"><ele>270.0</ele><time>2026-04-25T14:04:35.085Z</time></trkpt><trkpt lat="44.7590555" lon="7.9384247"><ele>271.3333333333333</ele><time>2026-04-25T14:04:36.086Z</time></trkpt><trkpt lat="44.7589026" lon="7.93838"><ele>272.66666666666663</ele><time>2026-04-25T14:04:37.085Z</time></trkpt><trkpt lat="44.7587501" lon="7.9383836"><ele>274.0</ele><time>2026-04-25T14:04:38.086Z</time></trkpt><trkpt lat="44.7586038" lon="7.9382992"><ele>272.66666666666663</ele><time>2026-04-25T14:04:39.085Z</time></trkpt><trkpt lat="44.75848" lon="7.9381913"><ele>271.3333333333333</ele><time>2026-04-25T14:04:40.085Z</time></trkpt><trkpt lat="44.7583561" lon="7.9380354"><ele>270.0</ele><time>2026-04-25T14:04:41.086Z</time></trkpt><trkpt lat="44.7582355" lon="7.9378541"><ele>270.0</ele><time>2026-04-25T14:04:42.086Z</time></trkpt><trkpt lat="44.7581053" lon="7.9376582"><ele>270.0</ele><time>2026-04-25T14:04:43.086Z</time></trkpt><trkpt lat="44.7579714" lon="7.9374642"><ele>270.0</ele><time>2026-04-25T14:04:44.086Z</time></trkpt><trkpt lat="44.7578526" lon="7.9372596"><ele>268.3333333333333</ele><time>2026-04-25T14:04:45.086Z</time></trkpt><trkpt lat="44.7577393" lon="7.937063"><ele>266.66666666666663</ele><time>2026-04-25T14:04:46.085Z</time></trkpt><trkpt lat="44.7576174" lon="7.9368681"><ele>265.0</ele><time>2026-04-25T14:04:47.086Z</time></trkpt><trkpt lat="44.7575212" lon="7.9366907"><ele>263.75</ele><time>2026-04-25T14:04:48.085Z</time></trkpt><trkpt lat="44.7574154" lon="7.9365102"><ele>262.5</ele><time>2026-04-25T14:04:49.086Z</time></trkpt><trkpt lat="44.7573118" lon="7.9363777"><ele>261.25</ele><time>2026-04-25T14:04:50.086Z</time></trkpt><trkpt lat="44.7571986" lon="7.9362626"><ele>260.0</ele><time>2026-04-25T14:04:51.085Z</time></trkpt><trkpt lat="44.7570695" lon="7.9361702"><ele>260.0</ele><time>2026-04-25T14:04:52.086Z</time></trkpt><trkpt lat="44.7569222" lon="7.9361154"><ele>260.0</ele><time>2026-04-25T14:04:53.086Z</time></trkpt><trkpt lat="44.7567669" lon="7.9360765"><ele>260.0</ele><time>2026-04-25T14:04:54.086Z</time></trkpt><trkpt lat="44.7566131" lon="7.9361051"><ele>260.33333333333337</ele><time>2026-04-25T14:04:55.086Z</time></trkpt><trkpt lat="44.7564614" lon="7.9360855"><ele>260.6666666666667</ele><time>2026-04-25T14:04:56.086Z</time></trkpt><trkpt lat="44.7562777" lon="7.9360755"><ele>261.0</ele><time>2026-04-25T14:04:57.085Z</time></trkpt><trkpt lat="44.7560838" lon="7.9360666"><ele>260.3333333333333</ele><time>2026-04-25T14:04:58.086Z</time></trkpt><trkpt lat="44.7558977" lon="7.936048"><ele>259.66666666666663</ele><time>2026-04-25T14:04:59.086Z</time></trkpt><trkpt lat="44.7556939" lon="7.9360464"><ele>259.0</ele><time>2026-04-25T14:05:00.086Z</time></trkpt><trkpt lat="44.7555008" lon="7.9360993"><ele>259.0</ele><time>2026-04-25T14:05:01.086Z</time></trkpt><trkpt lat="44.755335" lon="7.9361152"><ele>259.0</ele><time>2026-04-25T14:05:02.086Z</time></trkpt><trkpt lat="44.7551247" lon="7.93619"><ele>259.0</ele><time>2026-04-25T14:05:03.086Z</time></trkpt><trkpt lat="44.7549322" lon="7.9362493"><ele>256.66666666666663</ele><time>2026-04-25T14:05:04.085Z</time></trkpt><trkpt lat="44.7547653" lon="7.9363058"><ele>254.33333333333331</ele><time>2026-04-25T14:05:05.086Z</time></trkpt><trkpt lat="44.7545865" lon="7.936362"><ele>252.0</ele><time>2026-04-25T14:05:06.086Z</time></trkpt><trkpt lat="44.7544148" lon="7.9364061"><ele>252.0</ele><time>2026-04-25T14:05:07.086Z</time></trkpt><trkpt lat="44.7542395" lon="7.9364405"><ele>252.0</ele><time>2026-04-25T14:05:08.086Z</time></trkpt><trkpt lat="44.7540825" lon="7.9364421"><ele>252.0</ele><time>2026-04-25T14:05:09.086Z</time></trkpt><trkpt lat="44.7539249" lon="7.9364408"><ele>252.0</ele><time>2026-04-25T14:05:10.085Z</time></trkpt><trkpt lat="44.7537683" lon="7.9364315"><ele>252.0</ele><time>2026-04-25T14:05:11.086Z</time></trkpt><trkpt lat="44.7536052" lon="7.9364165"><ele>252.0</ele><time>2026-04-25T14:05:12.085Z</time></trkpt><trkpt lat="44.7534633" lon="7.9363973"><ele>252.25</ele><time>2026-04-25T14:05:13.085Z</time></trkpt><trkpt lat="44.7533101" lon="7.9363836"><ele>252.5</ele><time>2026-04-25T14:05:14.085Z</time></trkpt><trkpt lat="44.7531619" lon="7.9363559"><ele>252.75</ele><time>2026-04-25T14:05:15.086Z</time></trkpt><trkpt lat="44.7530209" lon="7.9363705"><ele>253.0</ele><time>2026-04-25T14:05:16.085Z</time></trkpt><trkpt lat="44.7528784" lon="7.9363946"><ele>253.0</ele><time>2026-04-25T14:05:17.086Z</time></trkpt><trkpt lat="44.7527535" lon="7.9363985"><ele>253.0</ele><time>2026-04-25T14:05:18.085Z</time></trkpt><trkpt lat="44.7526368" lon="7.9364232"><ele>253.0</ele><time>2026-04-25T14:05:19.086Z</time></trkpt><trkpt lat="44.7525181" lon="7.9364443"><ele>253.0</ele><time>2026-04-25T14:05:20.086Z</time></trkpt><trkpt lat="44.7524085" lon="7.9364682"><ele>251.75</ele><time>2026-04-25T14:05:21.085Z</time></trkpt><trkpt lat="44.7523065" lon="7.936494"><ele>250.5</ele><time>2026-04-25T14:05:22.086Z</time></trkpt><trkpt lat="44.7522012" lon="7.9365559"><ele>249.25</ele><time>2026-04-25T14:05:23.086Z</time></trkpt><trkpt lat="44.7520982" lon="7.9366449"><ele>248.0</ele><time>2026-04-25T14:05:24.086Z</time></trkpt><trkpt lat="44.7520039" lon="7.9367795"><ele>247.75</ele><time>2026-04-25T14:05:25.086Z</time></trkpt><trkpt lat="44.7519234" lon="7.9369394"><ele>247.5</ele><time>2026-04-25T14:05:26.086Z</time></trkpt><trkpt lat="44.7518507" lon="7.9371215"><ele>247.25</ele><time>2026-04-25T14:05:27.086Z</time></trkpt><trkpt lat="44.7517733" lon="7.9373101"><ele>247.0</ele><time>2026-04-25T14:05:28.086Z</time></trkpt><trkpt lat="44.7517031" lon="7.9374893"><ele>246.0</ele><time>2026-04-25T14:05:29.086Z</time></trkpt><trkpt lat="44.7516599" lon="7.9376382"><ele>245.0</ele><time>2026-04-25T14:05:30.085Z</time></trkpt><trkpt lat="44.7516057" lon="7.9378015"><ele>244.0</ele><time>2026-04-25T14:05:31.086Z</time></trkpt><trkpt lat="44.7515513" lon="7.9379591"><ele>243.0</ele><time>2026-04-25T14:05:32.085Z</time></trkpt><trkpt lat="44.7515035" lon="7.9381283"><ele>243.0</ele><time>2026-04-25T14:05:33.086Z</time></trkpt><trkpt lat="44.7514515" lon="7.9382812"><ele>243.0</ele><time>2026-04-25T14:05:34.086Z</time></trkpt><trkpt lat="44.7513957" lon="7.9384362"><ele>243.0</ele><time>2026-04-25T14:05:35.085Z</time></trkpt><trkpt lat="44.7513235" lon="7.9385713"><ele>243.0</ele><time>2026-04-25T14:05:36.086Z</time></trkpt><trkpt lat="44.7512472" lon="7.9387064"><ele>242.75</ele><time>2026-04-25T14:05:37.086Z</time></trkpt><trkpt lat="44.7511547" lon="7.9388305"><ele>242.5</ele><time>2026-04-25T14:05:38.086Z</time></trkpt><trkpt lat="44.7510535" lon="7.9389203"><ele>242.25</ele><time>2026-04-25T14:05:39.086Z</time></trkpt><trkpt lat="44.7509545" lon="7.9390202"><ele>242.0</ele><time>2026-04-25T14:05:40.086Z</time></trkpt><trkpt lat="44.7508545" lon="7.9391008"><ele>242.0</ele><time>2026-04-25T14:05:41.086Z</time></trkpt><trkpt lat="44.7507497" lon="7.9391811"><ele>242.0</ele><time>2026-04-25T14:05:42.085Z</time></trkpt><trkpt lat="44.7506506" lon="7.9392576"><ele>242.0</ele><time>2026-04-25T14:05:43.086Z</time></trkpt><trkpt lat="44.7505454" lon="7.9393265"><ele>242.0</ele><time>2026-04-25T14:05:44.086Z</time></trkpt><trkpt lat="44.7504376" lon="7.9393799"><ele>242.25</ele><time>2026-04-25T14:05:45.085Z</time></trkpt><trkpt lat="44.7503353" lon="7.939437"><ele>242.5</ele><time>2026-04-25T14:05:46.086Z</time></trkpt><trkpt lat="44.7502212" lon="7.9394513"><ele>242.75</ele><time>2026-04-25T14:05:47.086Z</time></trkpt><trkpt lat="44.7500959" lon="7.9394717"><ele>243.0</ele><time>2026-04-25T14:05:48.086Z</time></trkpt><trkpt lat="44.7499779" lon="7.939451"><ele>243.0</ele><time>2026-04-25T14:05:49.086Z</time></trkpt><trkpt lat="44.7498678" lon="7.9394324"><ele>243.0</ele><time>2026-04-25T14:05:50.085Z</time></trkpt><trkpt lat="44.7497438" lon="7.9393963"><ele>243.0</ele><time>2026-04-25T14:05:51.085Z</time></trkpt><trkpt lat="44.7496249" lon="7.9393323"><ele>243.0</ele><time>2026-04-25T14:05:52.086Z</time></trkpt><trkpt lat="44.7495267" lon="7.9392539"><ele>243.25</ele><time>2026-04-25T14:05:53.086Z</time></trkpt><trkpt lat="44.7494192" lon="7.9391679"><ele>243.5</ele><time>2026-04-25T14:05:54.085Z</time></trkpt><trkpt lat="44.7492966" lon="7.9390658"><ele>243.75</ele><time>2026-04-25T14:05:55.086Z</time></trkpt><trkpt lat="44.7491797" lon="7.938974"><ele>244.0</ele><time>2026-04-25T14:05:56.085Z</time></trkpt><trkpt lat="44.7490776" lon="7.9388873"><ele>244.0</ele><time>2026-04-25T14:05:57.085Z</time></trkpt><trkpt lat="44.7489721" lon="7.938815"><ele>244.0</ele><time>2026-04-25T14:05:58.085Z</time></trkpt><trkpt lat="44.7488597" lon="7.9387688"><ele>244.0</ele><time>2026-04-25T14:05:59.085Z</time></trkpt><trkpt lat="44.748718" lon="7.9387236"><ele>244.0</ele><time>2026-04-25T14:06:00.086Z</time></trkpt><trkpt lat="44.7485818" lon="7.9387173"><ele>244.0</ele><time>2026-04-25T14:06:01.086Z</time></trkpt><trkpt lat="44.7484731" lon="7.9387066"><ele>244.0</ele><time>2026-04-25T14:06:02.086Z</time></trkpt><trkpt lat="44.7483547" lon="7.9387148"><ele>244.0</ele><time>2026-04-25T14:06:03.085Z</time></trkpt><trkpt lat="44.7482329" lon="7.9387312"><ele>244.0</ele><time>2026-04-25T14:06:04.086Z</time></trkpt><trkpt lat="44.748092" lon="7.9387607"><ele>244.0</ele><time>2026-04-25T14:06:05.085Z</time></trkpt><trkpt lat="44.7479556" lon="7.9388032"><ele>244.0</ele><time>2026-04-25T14:06:06.086Z</time></trkpt><trkpt lat="44.7477975" lon="7.9388616"><ele>244.0</ele><time>2026-04-25T14:06:07.086Z</time></trkpt><trkpt lat="44.7476249" lon="7.9389082"><ele>241.33333333333331</ele><time>2026-04-25T14:06:08.086Z</time></trkpt><trkpt lat="44.7474515" lon="7.9389479"><ele>238.66666666666669</ele><time>2026-04-25T14:06:09.086Z</time></trkpt><trkpt lat="44.7472948" lon="7.9389786"><ele>236.0</ele><time>2026-04-25T14:06:10.086Z</time></trkpt><trkpt lat="44.7471346" lon="7.9390264"><ele>236.0</ele><time>2026-04-25T14:06:11.086Z</time></trkpt><trkpt lat="44.7469901" lon="7.939071"><ele>236.0</ele><time>2026-04-25T14:06:12.086Z</time></trkpt><trkpt lat="44.7468096" lon="7.939193"><ele>236.0</ele><time>2026-04-25T14:06:13.085Z</time></trkpt><trkpt lat="44.7466455" lon="7.9392821"><ele>239.0</ele><time>2026-04-25T14:06:14.086Z</time></trkpt><trkpt lat="44.7464625" lon="7.9394311"><ele>242.0</ele><time>2026-04-25T14:06:15.086Z</time></trkpt><trkpt lat="44.7463079" lon="7.9395652"><ele>245.0</ele><time>2026-04-25T14:06:16.086Z</time></trkpt><trkpt lat="44.7461015" lon="7.9397281"><ele>244.66666666666669</ele><time>2026-04-25T14:06:17.086Z</time></trkpt><trkpt lat="44.7459052" lon="7.9398789"><ele>244.33333333333331</ele><time>2026-04-25T14:06:18.085Z</time></trkpt><trkpt lat="44.7457174" lon="7.9400117"><ele>244.0</ele><time>2026-04-25T14:06:19.085Z</time></trkpt><trkpt lat="44.7455354" lon="7.9401376"><ele>244.0</ele><time>2026-04-25T14:06:20.085Z</time></trkpt><trkpt lat="44.7453658" lon="7.9402612"><ele>244.0</ele><time>2026-04-25T14:06:21.086Z</time></trkpt><trkpt lat="44.7451964" lon="7.9403817"><ele>244.0</ele><time>2026-04-25T14:06:22.086Z</time></trkpt><trkpt lat="44.7450081" lon="7.9405005"><ele>242.0</ele><time>2026-04-25T14:06:23.086Z</time></trkpt><trkpt lat="44.7448258" lon="7.9406182"><ele>240.0</ele><time>2026-04-25T14:06:24.086Z</time></trkpt><trkpt lat="44.7446525" lon="7.9406988"><ele>238.0</ele><time>2026-04-25T14:06:25.085Z</time></trkpt><trkpt lat="44.7444597" lon="7.9407879"><ele>237.0</ele><time>2026-04-25T14:06:26.086Z</time></trkpt><trkpt lat="44.7442637" lon="7.9408568"><ele>236.0</ele><time>2026-04-25T14:06:27.086Z</time></trkpt><trkpt lat="44.7440609" lon="7.940932"><ele>235.0</ele><time>2026-04-25T14:06:28.086Z</time></trkpt><trkpt lat="44.7438666" lon="7.9410058"><ele>233.66666666666666</ele><time>2026-04-25T14:06:29.086Z</time></trkpt><trkpt lat="44.74367" lon="7.941082"><ele>232.33333333333331</ele><time>2026-04-25T14:06:30.086Z</time></trkpt><trkpt lat="44.7434741" lon="7.9411625"><ele>231.0</ele><time>2026-04-25T14:06:31.086Z</time></trkpt><trkpt lat="44.7432916" lon="7.9412563"><ele>231.0</ele><time>2026-04-25T14:06:32.085Z</time></trkpt><trkpt lat="44.7431006" lon="7.9413465"><ele>231.0</ele><time>2026-04-25T14:06:33.086Z</time></trkpt><trkpt lat="44.7429161" lon="7.9414476"><ele>231.0</ele><time>2026-04-25T14:06:34.086Z</time></trkpt><trkpt lat="44.7427331" lon="7.9415533"><ele>230.33333333333331</ele><time>2026-04-25T14:06:35.085Z</time></trkpt><trkpt lat="44.7425481" lon="7.941664"><ele>229.66666666666666</ele><time>2026-04-25T14:06:36.086Z</time></trkpt><trkpt lat="44.742365" lon="7.9417755"><ele>229.0</ele><time>2026-04-25T14:06:37.086Z</time></trkpt><trkpt lat="44.7421838" lon="7.9418837"><ele>229.0</ele><time>2026-04-25T14:06:38.086Z</time></trkpt><trkpt lat="44.742001" lon="7.941992"><ele>229.0</ele><time>2026-04-25T14:06:39.085Z</time></trkpt><trkpt lat="44.7418161" lon="7.9420987"><ele>229.0</ele><time>2026-04-25T14:06:40.086Z</time></trkpt><trkpt lat="44.7416298" lon="7.9422165"><ele>229.66666666666666</ele><time>2026-04-25T14:06:41.086Z</time></trkpt><trkpt lat="44.7414471" lon="7.9423286"><ele>230.33333333333331</ele><time>2026-04-25T14:06:42.086Z</time></trkpt><trkpt lat="44.7412517" lon="7.942454"><ele>231.0</ele><time>2026-04-25T14:06:43.085Z</time></trkpt><trkpt lat="44.7410524" lon="7.94258"><ele>228.33333333333331</ele><time>2026-04-25T14:06:44.085Z</time></trkpt><trkpt lat="44.7408637" lon="7.942716"><ele>225.66666666666666</ele><time>2026-04-25T14:06:45.086Z</time></trkpt><trkpt lat="44.7406735" lon="7.942856"><ele>223.0</ele><time>2026-04-25T14:06:46.085Z</time></trkpt><trkpt lat="44.7404961" lon="7.9430119"><ele>223.0</ele><time>2026-04-25T14:06:47.086Z</time></trkpt><trkpt lat="44.7403162" lon="7.9431705"><ele>223.0</ele><time>2026-04-25T14:06:48.086Z</time></trkpt><trkpt lat="44.7401443" lon="7.9433165"><ele>223.0</ele><time>2026-04-25T14:06:49.086Z</time></trkpt><trkpt lat="44.7399806" lon="7.9434662"><ele>222.33333333333331</ele><time>2026-04-25T14:06:50.086Z</time></trkpt><trkpt lat="44.7398166" lon="7.9436086"><ele>221.66666666666669</ele><time>2026-04-25T14:06:51.085Z</time></trkpt><trkpt lat="44.7396503" lon="7.943716"><ele>221.0</ele><time>2026-04-25T14:06:52.086Z</time></trkpt><trkpt lat="44.739469" lon="7.9438063"><ele>221.0</ele><time>2026-04-25T14:06:53.086Z</time></trkpt><trkpt lat="44.7392868" lon="7.9438764"><ele>221.0</ele><time>2026-04-25T14:06:54.086Z</time></trkpt><trkpt lat="44.7390975" lon="7.9439127"><ele>221.0</ele><time>2026-04-25T14:06:55.085Z</time></trkpt><trkpt lat="44.7389233" lon="7.9439266"><ele>221.0</ele><time>2026-04-25T14:06:56.086Z</time></trkpt><trkpt lat="44.7387505" lon="7.9439351"><ele>221.0</ele><time>2026-04-25T14:06:57.085Z</time></trkpt><trkpt lat="44.7385721" lon="7.9439347"><ele>221.0</ele><time>2026-04-25T14:06:58.086Z</time></trkpt><trkpt lat="44.7384127" lon="7.9439773"><ele>220.0</ele><time>2026-04-25T14:06:59.086Z</time></trkpt><trkpt lat="44.7382441" lon="7.9440451"><ele>219.0</ele><time>2026-04-25T14:07:00.086Z</time></trkpt><trkpt lat="44.7380681" lon="7.9441809"><ele>218.0</ele><time>2026-04-25T14:07:01.086Z</time></trkpt><trkpt lat="44.7378947" lon="7.944318"><ele>220.0</ele><time>2026-04-25T14:07:02.085Z</time></trkpt><trkpt lat="44.7377224" lon="7.9444537"><ele>222.0</ele><time>2026-04-25T14:07:03.086Z</time></trkpt><trkpt lat="44.7375553" lon="7.9445883"><ele>224.0</ele><time>2026-04-25T14:07:04.085Z</time></trkpt><trkpt lat="44.7373814" lon="7.9447175"><ele>224.0</ele><time>2026-04-25T14:07:05.086Z</time></trkpt><trkpt lat="44.7372215" lon="7.9448544"><ele>224.0</ele><time>2026-04-25T14:07:06.086Z</time></trkpt><trkpt lat="44.7370659" lon="7.9449959"><ele>224.0</ele><time>2026-04-25T14:07:07.085Z</time></trkpt><trkpt lat="44.736924" lon="7.9451659"><ele>223.66666666666669</ele><time>2026-04-25T14:07:08.086Z</time></trkpt><trkpt lat="44.7367858" lon="7.9453496"><ele>223.33333333333331</ele><time>2026-04-25T14:07:09.086Z</time></trkpt><trkpt lat="44.7366417" lon="7.9455349"><ele>223.0</ele><time>2026-04-25T14:07:10.085Z</time></trkpt><trkpt lat="44.7364994" lon="7.9457133"><ele>224.66666666666666</ele><time>2026-04-25T14:07:11.085Z</time></trkpt><trkpt lat="44.7363645" lon="7.9459018"><ele>226.33333333333331</ele><time>2026-04-25T14:07:12.085Z</time></trkpt><trkpt lat="44.7362169" lon="7.9460878"><ele>228.0</ele><time>2026-04-25T14:07:13.085Z</time></trkpt><trkpt lat="44.7360813" lon="7.9462985"><ele>223.33333333333331</ele><time>2026-04-25T14:07:14.085Z</time></trkpt><trkpt lat="44.7359559" lon="7.9465257"><ele>218.66666666666666</ele><time>2026-04-25T14:07:15.085Z</time></trkpt><trkpt lat="44.7358455" lon="7.9467638"><ele>214.0</ele><time>2026-04-25T14:07:16.086Z</time></trkpt><trkpt lat="44.7357363" lon="7.9470047"><ele>214.0</ele><time>2026-04-25T14:07:17.086Z</time></trkpt><trkpt lat="44.7356354" lon="7.9472374"><ele>214.0</ele><time>2026-04-25T14:07:18.086Z</time></trkpt><trkpt lat="44.7355419" lon="7.9474559"><ele>214.0</ele><time>2026-04-25T14:07:19.085Z</time></trkpt><trkpt lat="44.7354485" lon="7.9476653"><ele>213.75</ele><time>2026-04-25T14:07:20.086Z</time></trkpt><trkpt lat="44.7353667" lon="7.9478708"><ele>213.5</ele><time>2026-04-25T14:07:21.086Z</time></trkpt><trkpt lat="44.7352866" lon="7.9480606"><ele>213.25</ele><time>2026-04-25T14:07:22.086Z</time></trkpt><trkpt lat="44.735219" lon="7.948209"><ele>213.0</ele><time>2026-04-25T14:07:23.086Z</time></trkpt><trkpt lat="44.7351598" lon="7.9483524"><ele>213.0</ele><time>2026-04-25T14:07:24.086Z</time></trkpt><trkpt lat="44.7351045" lon="7.9484815"><ele>213.0</ele><time>2026-04-25T14:07:25.086Z</time></trkpt><trkpt lat="44.735062" lon="7.9485783"><ele>213.0</ele><time>2026-04-25T14:07:26.086Z</time></trkpt><trkpt lat="44.7350228" lon="7.9486538"><ele>213.0</ele><time>2026-04-25T14:07:27.086Z</time></trkpt><trkpt lat="44.7349055" lon="7.9487098"><ele>213.0</ele><time>2026-04-25T14:07:29.085Z</time></trkpt><trkpt lat="44.7347984" lon="7.9486199"><ele>213.0</ele><time>2026-04-25T14:07:31.086Z</time></trkpt><trkpt lat="44.7347606" lon="7.9485195"><ele>213.0</ele><time>2026-04-25T14:07:32.085Z</time></trkpt><trkpt lat="44.7347485" lon="7.9483566"><ele>213.0</ele><time>2026-04-25T14:07:33.086Z</time></trkpt><trkpt lat="44.7347379" lon="7.9481748"><ele>213.0</ele><time>2026-04-25T14:07:34.086Z</time></trkpt><trkpt lat="44.7347157" lon="7.9479909"><ele>213.0</ele><time>2026-04-25T14:07:35.086Z</time></trkpt><trkpt lat="44.7346929" lon="7.9477861"><ele>213.0</ele><time>2026-04-25T14:07:36.086Z</time></trkpt><trkpt lat="44.734666" lon="7.9475594"><ele>213.0</ele><time>2026-04-25T14:07:37.086Z</time></trkpt><trkpt lat="44.7346326" lon="7.9473347"><ele>212.66666666666669</ele><time>2026-04-25T14:07:38.086Z</time></trkpt><trkpt lat="44.7346094" lon="7.9470841"><ele>212.33333333333334</ele><time>2026-04-25T14:07:39.086Z</time></trkpt><trkpt lat="44.7345824" lon="7.9468276"><ele>212.0</ele><time>2026-04-25T14:07:40.086Z</time></trkpt><trkpt lat="44.7345592" lon="7.9465656"><ele>211.66666666666669</ele><time>2026-04-25T14:07:41.086Z</time></trkpt><trkpt lat="44.7345328" lon="7.9463009"><ele>211.33333333333331</ele><time>2026-04-25T14:07:42.086Z</time></trkpt><trkpt lat="44.7345027" lon="7.9460394"><ele>211.0</ele><time>2026-04-25T14:07:43.086Z</time></trkpt><trkpt lat="44.7344757" lon="7.9457792"><ele>210.66666666666666</ele><time>2026-04-25T14:07:44.086Z</time></trkpt><trkpt lat="44.7344479" lon="7.9455088"><ele>210.33333333333331</ele><time>2026-04-25T14:07:45.085Z</time></trkpt><trkpt lat="44.7344183" lon="7.945234"><ele>210.0</ele><time>2026-04-25T14:07:46.086Z</time></trkpt><trkpt lat="44.7343828" lon="7.9449549"><ele>211.0</ele><time>2026-04-25T14:07:47.086Z</time></trkpt><trkpt lat="44.7343511" lon="7.9446758"><ele>212.0</ele><time>2026-04-25T14:07:48.086Z</time></trkpt><trkpt lat="44.7343182" lon="7.9443922"><ele>213.0</ele><time>2026-04-25T14:07:49.086Z</time></trkpt><trkpt lat="44.7342891" lon="7.9441055"><ele>215.0</ele><time>2026-04-25T14:07:50.086Z</time></trkpt><trkpt lat="44.73426" lon="7.9438141"><ele>217.0</ele><time>2026-04-25T14:07:51.086Z</time></trkpt><trkpt lat="44.7342289" lon="7.9435384"><ele>219.0</ele><time>2026-04-25T14:07:52.085Z</time></trkpt><trkpt lat="44.7341999" lon="7.9432593"><ele>219.33333333333331</ele><time>2026-04-25T14:07:53.086Z</time></trkpt><trkpt lat="44.7341738" lon="7.9429898"><ele>219.66666666666666</ele><time>2026-04-25T14:07:54.086Z</time></trkpt><trkpt lat="44.7341618" lon="7.9427191"><ele>220.0</ele><time>2026-04-25T14:07:55.086Z</time></trkpt><trkpt lat="44.7341599" lon="7.9424466"><ele>220.0</ele><time>2026-04-25T14:07:56.086Z</time></trkpt><trkpt lat="44.7341783" lon="7.9421669"><ele>220.0</ele><time>2026-04-25T14:07:57.086Z</time></trkpt><trkpt lat="44.7342026" lon="7.9418881"><ele>220.0</ele><time>2026-04-25T14:07:58.086Z</time></trkpt><trkpt lat="44.7342324" lon="7.9416101"><ele>219.66666666666666</ele><time>2026-04-25T14:07:59.086Z</time></trkpt><trkpt lat="44.7342697" lon="7.9413427"><ele>219.33333333333331</ele><time>2026-04-25T14:08:00.085Z</time></trkpt><trkpt lat="44.7343243" lon="7.9410885"><ele>219.0</ele><time>2026-04-25T14:08:01.085Z</time></trkpt><trkpt lat="44.7344021" lon="7.9408111"><ele>219.66666666666669</ele><time>2026-04-25T14:08:02.086Z</time></trkpt><trkpt lat="44.7344969" lon="7.9405283"><ele>220.33333333333334</ele><time>2026-04-25T14:08:03.086Z</time></trkpt><trkpt lat="44.7345931" lon="7.9402646"><ele>221.0</ele><time>2026-04-25T14:08:04.086Z</time></trkpt><trkpt lat="44.7346919" lon="7.9399655"><ele>221.0</ele><time>2026-04-25T14:08:05.086Z</time></trkpt><trkpt lat="44.7347924" lon="7.939665"><ele>221.0</ele><time>2026-04-25T14:08:06.086Z</time></trkpt><trkpt lat="44.7349015" lon="7.9393381"><ele>219.5</ele><time>2026-04-25T14:08:07.086Z</time></trkpt><trkpt lat="44.7350175" lon="7.9390235"><ele>218.0</ele><time>2026-04-25T14:08:08.086Z</time></trkpt><trkpt lat="44.7351374" lon="7.9387165"><ele>223.0</ele><time>2026-04-25T14:08:09.086Z</time></trkpt><trkpt lat="44.7352556" lon="7.9384075"><ele>228.0</ele><time>2026-04-25T14:08:10.086Z</time></trkpt><trkpt lat="44.7353697" lon="7.9381024"><ele>228.0</ele><time>2026-04-25T14:08:11.086Z</time></trkpt><trkpt lat="44.7354819" lon="7.9377989"><ele>228.0</ele><time>2026-04-25T14:08:12.085Z</time></trkpt><trkpt lat="44.7355855" lon="7.9375147"><ele>226.0</ele><time>2026-04-25T14:08:13.086Z</time></trkpt><trkpt lat="44.7356876" lon="7.9372272"><ele>224.0</ele><time>2026-04-25T14:08:14.085Z</time></trkpt><trkpt lat="44.7357895" lon="7.9369404"><ele>222.5</ele><time>2026-04-25T14:08:15.085Z</time></trkpt><trkpt lat="44.7358949" lon="7.9366479"><ele>221.0</ele><time>2026-04-25T14:08:16.085Z</time></trkpt><trkpt lat="44.7359956" lon="7.9363557"><ele>222.0</ele><time>2026-04-25T14:08:17.085Z</time></trkpt><trkpt lat="44.7361003" lon="7.9360605"><ele>223.0</ele><time>2026-04-25T14:08:18.086Z</time></trkpt><trkpt lat="44.7362067" lon="7.9357645"><ele>223.0</ele><time>2026-04-25T14:08:19.086Z</time></trkpt><trkpt lat="44.7363122" lon="7.9354724"><ele>223.0</ele><time>2026-04-25T14:08:20.085Z</time></trkpt><trkpt lat="44.7364156" lon="7.9351691"><ele>222.0</ele><time>2026-04-25T14:08:21.086Z</time></trkpt><trkpt lat="44.7365157" lon="7.9348759"><ele>221.0</ele><time>2026-04-25T14:08:22.086Z</time></trkpt><trkpt lat="44.7366176" lon="7.9345844"><ele>221.0</ele><time>2026-04-25T14:08:23.085Z</time></trkpt><trkpt lat="44.7367248" lon="7.9342996"><ele>221.0</ele><time>2026-04-25T14:08:24.085Z</time></trkpt><trkpt lat="44.7368329" lon="7.9340098"><ele>223.5</ele><time>2026-04-25T14:08:25.086Z</time></trkpt><trkpt lat="44.7369388" lon="7.9337209"><ele>226.0</ele><time>2026-04-25T14:08:26.086Z</time></trkpt><trkpt lat="44.7370457" lon="7.9334353"><ele>227.0</ele><time>2026-04-25T14:08:27.086Z</time></trkpt><trkpt lat="44.7371561" lon="7.9331503"><ele>228.0</ele><time>2026-04-25T14:08:28.086Z</time></trkpt><trkpt lat="44.7372555" lon="7.9328732"><ele>228.0</ele><time>2026-04-25T14:08:29.086Z</time></trkpt><trkpt lat="44.7373472" lon="7.9326014"><ele>228.0</ele><time>2026-04-25T14:08:30.086Z</time></trkpt><trkpt lat="44.7374438" lon="7.9323366"><ele>228.0</ele><time>2026-04-25T14:08:31.085Z</time></trkpt><trkpt lat="44.7375336" lon="7.9320863"><ele>228.0</ele><time>2026-04-25T14:08:32.086Z</time></trkpt><trkpt lat="44.7376206" lon="7.9318522"><ele>228.0</ele><time>2026-04-25T14:08:33.086Z</time></trkpt><trkpt lat="44.7376968" lon="7.9316246"><ele>228.0</ele><time>2026-04-25T14:08:34.086Z</time></trkpt><trkpt lat="44.7377625" lon="7.9313812"><ele>232.0</ele><time>2026-04-25T14:08:35.086Z</time></trkpt><trkpt lat="44.7378059" lon="7.9311371"><ele>236.0</ele><time>2026-04-25T14:08:36.085Z</time></trkpt><trkpt lat="44.7378117" lon="7.9308851"><ele>240.0</ele><time>2026-04-25T14:08:37.086Z</time></trkpt><trkpt lat="44.7377957" lon="7.9306067"><ele>238.0</ele><time>2026-04-25T14:08:38.086Z</time></trkpt><trkpt lat="44.7377605" lon="7.9303267"><ele>236.0</ele><time>2026-04-25T14:08:39.085Z</time></trkpt><trkpt lat="44.7377162" lon="7.9300324"><ele>234.0</ele><time>2026-04-25T14:08:40.086Z</time></trkpt><trkpt lat="44.7376683" lon="7.9297374"><ele>234.0</ele><time>2026-04-25T14:08:41.086Z</time></trkpt><trkpt lat="44.7376169" lon="7.9294342"><ele>234.0</ele><time>2026-04-25T14:08:42.085Z</time></trkpt><trkpt lat="44.7375728" lon="7.9291434"><ele>234.0</ele><time>2026-04-25T14:08:43.086Z</time></trkpt><trkpt lat="44.7375313" lon="7.9288454"><ele>234.33333333333331</ele><time>2026-04-25T14:08:44.086Z</time></trkpt><trkpt lat="44.7374891" lon="7.9285622"><ele>234.66666666666666</ele><time>2026-04-25T14:08:45.085Z</time></trkpt><trkpt lat="44.7374499" lon="7.9282903"><ele>235.0</ele><time>2026-04-25T14:08:46.086Z</time></trkpt><trkpt lat="44.7374094" lon="7.9280241"><ele>235.33333333333331</ele><time>2026-04-25T14:08:47.086Z</time></trkpt><trkpt lat="44.7373729" lon="7.9277677"><ele>235.66666666666669</ele><time>2026-04-25T14:08:48.086Z</time></trkpt><trkpt lat="44.737361" lon="7.9275096"><ele>236.0</ele><time>2026-04-25T14:08:49.086Z</time></trkpt><trkpt lat="44.7373739" lon="7.927242"><ele>236.66666666666669</ele><time>2026-04-25T14:08:50.086Z</time></trkpt><trkpt lat="44.7374135" lon="7.9269838"><ele>237.33333333333331</ele><time>2026-04-25T14:08:51.086Z</time></trkpt><trkpt lat="44.7374704" lon="7.9267498"><ele>238.0</ele><time>2026-04-25T14:08:52.086Z</time></trkpt><trkpt lat="44.7375292" lon="7.9265361"><ele>238.66666666666666</ele><time>2026-04-25T14:08:53.086Z</time></trkpt><trkpt lat="44.737594" lon="7.9263431"><ele>239.33333333333331</ele><time>2026-04-25T14:08:54.086Z</time></trkpt><trkpt lat="44.7376791" lon="7.9261571"><ele>240.0</ele><time>2026-04-25T14:08:55.085Z</time></trkpt><trkpt lat="44.7377712" lon="7.9259732"><ele>244.0</ele><time>2026-04-25T14:08:56.085Z</time></trkpt><trkpt lat="44.7378956" lon="7.9257809"><ele>248.0</ele><time>2026-04-25T14:08:57.086Z</time></trkpt><trkpt lat="44.7380203" lon="7.9255907"><ele>252.0</ele><time>2026-04-25T14:08:58.086Z</time></trkpt><trkpt lat="44.7381423" lon="7.9253944"><ele>252.0</ele><time>2026-04-25T14:08:59.086Z</time></trkpt><trkpt lat="44.7382724" lon="7.9251871"><ele>252.0</ele><time>2026-04-25T14:09:00.085Z</time></trkpt><trkpt lat="44.7384038" lon="7.9249948"><ele>252.0</ele><time>2026-04-25T14:09:01.085Z</time></trkpt><trkpt lat="44.7385355" lon="7.9248175"><ele>256.0</ele><time>2026-04-25T14:09:02.086Z</time></trkpt><trkpt lat="44.7386789" lon="7.9246338"><ele>260.0</ele><time>2026-04-25T14:09:03.086Z</time></trkpt><trkpt lat="44.7388119" lon="7.924475"><ele>264.0</ele><time>2026-04-25T14:09:04.086Z</time></trkpt><trkpt lat="44.7389349" lon="7.9243422"><ele>262.0</ele><time>2026-04-25T14:09:05.085Z</time></trkpt><trkpt lat="44.7390419" lon="7.9242145"><ele>260.0</ele><time>2026-04-25T14:09:06.086Z</time></trkpt><trkpt lat="44.7391264" lon="7.9240854"><ele>258.0</ele><time>2026-04-25T14:09:07.086Z</time></trkpt><trkpt lat="44.7391953" lon="7.9239435"><ele>256.0</ele><time>2026-04-25T14:09:08.085Z</time></trkpt><trkpt lat="44.7392276" lon="7.9237856"><ele>256.0</ele><time>2026-04-25T14:09:09.086Z</time></trkpt><trkpt lat="44.7392267" lon="7.9236112"><ele>256.0</ele><time>2026-04-25T14:09:10.086Z</time></trkpt><trkpt lat="44.7391967" lon="7.9234302"><ele>256.0</ele><time>2026-04-25T14:09:11.086Z</time></trkpt><trkpt lat="44.7391622" lon="7.9232635"><ele>256.0</ele><time>2026-04-25T14:09:12.085Z</time></trkpt><trkpt lat="44.7391317" lon="7.9230896"><ele>256.0</ele><time>2026-04-25T14:09:13.086Z</time></trkpt><trkpt lat="44.7391188" lon="7.9229279"><ele>256.0</ele><time>2026-04-25T14:09:14.086Z</time></trkpt><trkpt lat="44.7391444" lon="7.9228009"><ele>256.0</ele><time>2026-04-25T14:09:15.085Z</time></trkpt><trkpt lat="44.7392098" lon="7.92268"><ele>256.0</ele><time>2026-04-25T14:09:16.085Z</time></trkpt><trkpt lat="44.73931" lon="7.9225951"><ele>256.0</ele><time>2026-04-25T14:09:17.086Z</time></trkpt><trkpt lat="44.7394297" lon="7.9225331"><ele>260.25</ele><time>2026-04-25T14:09:18.086Z</time></trkpt><trkpt lat="44.7395394" lon="7.9224414"><ele>264.5</ele><time>2026-04-25T14:09:19.085Z</time></trkpt><trkpt lat="44.7396296" lon="7.922323"><ele>268.75</ele><time>2026-04-25T14:09:20.086Z</time></trkpt><trkpt lat="44.7397103" lon="7.922171"><ele>273.0</ele><time>2026-04-25T14:09:21.086Z</time></trkpt><trkpt lat="44.7397531" lon="7.9219883"><ele>273.0</ele><time>2026-04-25T14:09:22.086Z</time></trkpt><trkpt lat="44.7398107" lon="7.9218151"><ele>273.0</ele><time>2026-04-25T14:09:23.085Z</time></trkpt><trkpt lat="44.7398914" lon="7.9216484"><ele>273.0</ele><time>2026-04-25T14:09:24.086Z</time></trkpt><trkpt lat="44.7400046" lon="7.9215063"><ele>273.0</ele><time>2026-04-25T14:09:25.085Z</time></trkpt><trkpt lat="44.7401341" lon="7.9213761"><ele>274.3333333333333</ele><time>2026-04-25T14:09:26.086Z</time></trkpt><trkpt lat="44.7402601" lon="7.9212315"><ele>275.66666666666663</ele><time>2026-04-25T14:09:27.086Z</time></trkpt><trkpt lat="44.7403895" lon="7.92108"><ele>277.0</ele><time>2026-04-25T14:09:28.085Z</time></trkpt><trkpt lat="44.7404876" lon="7.9208743"><ele>277.66666666666663</ele><time>2026-04-25T14:09:29.086Z</time></trkpt><trkpt lat="44.7405817" lon="7.9206511"><ele>278.3333333333333</ele><time>2026-04-25T14:09:30.085Z</time></trkpt><trkpt lat="44.7406746" lon="7.9204356"><ele>279.0</ele><time>2026-04-25T14:09:31.085Z</time></trkpt><trkpt lat="44.7407615" lon="7.9202238"><ele>276.6666666666667</ele><time>2026-04-25T14:09:32.086Z</time></trkpt><trkpt lat="44.7408516" lon="7.9200196"><ele>274.33333333333337</ele><time>2026-04-25T14:09:33.086Z</time></trkpt><trkpt lat="44.7409332" lon="7.9198158"><ele>272.0</ele><time>2026-04-25T14:09:34.086Z</time></trkpt><trkpt lat="44.7410201" lon="7.9196222"><ele>272.5</ele><time>2026-04-25T14:09:35.086Z</time></trkpt><trkpt lat="44.7411074" lon="7.9194533"><ele>273.0</ele><time>2026-04-25T14:09:36.086Z</time></trkpt><trkpt lat="44.7411851" lon="7.9192833"><ele>273.5</ele><time>2026-04-25T14:09:37.085Z</time></trkpt><trkpt lat="44.7412591" lon="7.9191363"><ele>274.0</ele><time>2026-04-25T14:09:38.086Z</time></trkpt><trkpt lat="44.7413151" lon="7.9189582"><ele>274.0</ele><time>2026-04-25T14:09:39.086Z</time></trkpt><trkpt lat="44.7413484" lon="7.9187675"><ele>274.0</ele><time>2026-04-25T14:09:40.086Z</time></trkpt><trkpt lat="44.7413714" lon="7.9185811"><ele>274.0</ele><time>2026-04-25T14:09:41.086Z</time></trkpt><trkpt lat="44.741377" lon="7.9184047"><ele>274.0</ele><time>2026-04-25T14:09:42.086Z</time></trkpt><trkpt lat="44.7413769" lon="7.9182323"><ele>274.5</ele><time>2026-04-25T14:09:43.086Z</time></trkpt><trkpt lat="44.7413669" lon="7.918034"><ele>275.0</ele><time>2026-04-25T14:09:44.086Z</time></trkpt><trkpt lat="44.7413634" lon="7.9178712"><ele>275.5</ele><time>2026-04-25T14:09:45.085Z</time></trkpt><trkpt lat="44.7413522" lon="7.9176903"><ele>276.0</ele><time>2026-04-25T14:09:46.086Z</time></trkpt><trkpt lat="44.7413569" lon="7.9175004"><ele>277.25</ele><time>2026-04-25T14:09:47.086Z</time></trkpt><trkpt lat="44.7413598" lon="7.9173286"><ele>278.5</ele><time>2026-04-25T14:09:48.086Z</time></trkpt><trkpt lat="44.7413566" lon="7.917157"><ele>279.75</ele><time>2026-04-25T14:09:49.086Z</time></trkpt><trkpt lat="44.7413476" lon="7.9169746"><ele>281.0</ele><time>2026-04-25T14:09:50.086Z</time></trkpt><trkpt lat="44.7413275" lon="7.9168204"><ele>281.5</ele><time>2026-04-25T14:09:51.086Z</time></trkpt><trkpt lat="44.7412969" lon="7.9166549"><ele>282.0</ele><time>2026-04-25T14:09:52.086Z</time></trkpt><trkpt lat="44.7412376" lon="7.9165095"><ele>282.5</ele><time>2026-04-25T14:09:53.086Z</time></trkpt><trkpt lat="44.7411672" lon="7.9163779"><ele>283.0</ele><time>2026-04-25T14:09:54.085Z</time></trkpt><trkpt lat="44.7410764" lon="7.9162576"><ele>285.25</ele><time>2026-04-25T14:09:55.086Z</time></trkpt><trkpt lat="44.7409686" lon="7.9161513"><ele>287.5</ele><time>2026-04-25T14:09:56.086Z</time></trkpt><trkpt lat="44.7408516" lon="7.9160633"><ele>289.75</ele><time>2026-04-25T14:09:57.085Z</time></trkpt><trkpt lat="44.7407414" lon="7.9159643"><ele>292.0</ele><time>2026-04-25T14:09:58.086Z</time></trkpt><trkpt lat="44.7406446" lon="7.9158773"><ele>292.0</ele><time>2026-04-25T14:09:59.086Z</time></trkpt><trkpt lat="44.7405519" lon="7.9157975"><ele>292.0</ele><time>2026-04-25T14:10:00.086Z</time></trkpt><trkpt lat="44.7404558" lon="7.9157227"><ele>292.0</ele><time>2026-04-25T14:10:01.086Z</time></trkpt><trkpt lat="44.7403788" lon="7.9156536"><ele>292.0</ele><time>2026-04-25T14:10:02.086Z</time></trkpt><trkpt lat="44.7402996" lon="7.9155883"><ele>292.0</ele><time>2026-04-25T14:10:03.086Z</time></trkpt><trkpt lat="44.7402242" lon="7.9155146"><ele>291.8</ele><time>2026-04-25T14:10:04.086Z</time></trkpt><trkpt lat="44.7401487" lon="7.9154137"><ele>291.6</ele><time>2026-04-25T14:10:05.086Z</time></trkpt><trkpt lat="44.7400961" lon="7.9153011"><ele>291.40000000000003</ele><time>2026-04-25T14:10:06.086Z</time></trkpt><trkpt lat="44.7400687" lon="7.9151704"><ele>291.2</ele><time>2026-04-25T14:10:07.086Z</time></trkpt><trkpt lat="44.7400531" lon="7.9150238"><ele>291.0</ele><time>2026-04-25T14:10:08.085Z</time></trkpt><trkpt lat="44.7400541" lon="7.9148626"><ele>292.25</ele><time>2026-04-25T14:10:09.086Z</time></trkpt><trkpt lat="44.7400541" lon="7.9146992"><ele>293.5</ele><time>2026-04-25T14:10:10.086Z</time></trkpt><trkpt lat="44.7400385" lon="7.9145409"><ele>294.75</ele><time>2026-04-25T14:10:11.086Z</time></trkpt><trkpt lat="44.73999" lon="7.9143645"><ele>296.0</ele><time>2026-04-25T14:10:12.086Z</time></trkpt><trkpt lat="44.7399258" lon="7.9141983"><ele>297.25</ele><time>2026-04-25T14:10:13.086Z</time></trkpt><trkpt lat="44.7398442" lon="7.9140448"><ele>298.5</ele><time>2026-04-25T14:10:14.086Z</time></trkpt><trkpt lat="44.7397555" lon="7.9139089"><ele>299.75</ele><time>2026-04-25T14:10:15.086Z</time></trkpt><trkpt lat="44.7396635" lon="7.9137867"><ele>301.0</ele><time>2026-04-25T14:10:16.086Z</time></trkpt><trkpt lat="44.7395707" lon="7.913674"><ele>301.0</ele><time>2026-04-25T14:10:17.086Z</time></trkpt><trkpt lat="44.7394746" lon="7.9135622"><ele>301.0</ele><time>2026-04-25T14:10:18.085Z</time></trkpt><trkpt lat="44.7393876" lon="7.9134602"><ele>301.0</ele><time>2026-04-25T14:10:19.086Z</time></trkpt><trkpt lat="44.7393023" lon="7.9133472"><ele>301.0</ele><time>2026-04-25T14:10:20.086Z</time></trkpt><trkpt lat="44.739227" lon="7.9132367"><ele>301.0</ele><time>2026-04-25T14:10:21.086Z</time></trkpt><trkpt lat="44.7391702" lon="7.9131134"><ele>301.0</ele><time>2026-04-25T14:10:22.086Z</time></trkpt><trkpt lat="44.7391404" lon="7.9129763"><ele>301.0</ele><time>2026-04-25T14:10:23.086Z</time></trkpt><trkpt lat="44.7391359" lon="7.9128284"><ele>301.0</ele><time>2026-04-25T14:10:24.086Z</time></trkpt><trkpt lat="44.7391812" lon="7.9126932"><ele>301.0</ele><time>2026-04-25T14:10:25.085Z</time></trkpt><trkpt lat="44.7392572" lon="7.9125759"><ele>301.75</ele><time>2026-04-25T14:10:26.085Z</time></trkpt><trkpt lat="44.7393596" lon="7.9124584"><ele>302.5</ele><time>2026-04-25T14:10:27.086Z</time></trkpt><trkpt lat="44.7394549" lon="7.9123411"><ele>303.25</ele><time>2026-04-25T14:10:28.086Z</time></trkpt><trkpt lat="44.7395462" lon="7.9122331"><ele>304.0</ele><time>2026-04-25T14:10:29.086Z</time></trkpt><trkpt lat="44.7396348" lon="7.9121651"><ele>304.0</ele><time>2026-04-25T14:10:30.086Z</time></trkpt><trkpt lat="44.7397222" lon="7.9121075"><ele>304.0</ele><time>2026-04-25T14:10:31.086Z</time></trkpt><trkpt lat="44.7398108" lon="7.9120267"><ele>304.0</ele><time>2026-04-25T14:10:32.085Z</time></trkpt><trkpt lat="44.7399078" lon="7.9119443"><ele>304.0</ele><time>2026-04-25T14:10:33.086Z</time></trkpt><trkpt lat="44.7400043" lon="7.9118467"><ele>304.0</ele><time>2026-04-25T14:10:34.086Z</time></trkpt><trkpt lat="44.7400766" lon="7.9117619"><ele>306.59999999999997</ele><time>2026-04-25T14:10:35.086Z</time></trkpt><trkpt lat="44.7401352" lon="7.9116649"><ele>309.2</ele><time>2026-04-25T14:10:36.086Z</time></trkpt><trkpt lat="44.7401792" lon="7.9115523"><ele>311.79999999999995</ele><time>2026-04-25T14:10:37.086Z</time></trkpt><trkpt lat="44.7402005" lon="7.9114285"><ele>314.4</ele><time>2026-04-25T14:10:38.085Z</time></trkpt><trkpt lat="44.7401985" lon="7.9112852"><ele>317.0</ele><time>2026-04-25T14:10:39.086Z</time></trkpt><trkpt lat="44.7401778" lon="7.9111402"><ele>317.0</ele><time>2026-04-25T14:10:40.086Z</time></trkpt><trkpt lat="44.7401596" lon="7.9110205"><ele>317.0</ele><time>2026-04-25T14:10:41.086Z</time></trkpt><trkpt lat="44.7401501" lon="7.9109104"><ele>317.0</ele><time>2026-04-25T14:10:42.085Z</time></trkpt><trkpt lat="44.7401432" lon="7.9107918"><ele>317.0</ele><time>2026-04-25T14:10:43.086Z</time></trkpt><trkpt lat="44.7401496" lon="7.9106716"><ele>317.0</ele><time>2026-04-25T14:10:44.085Z</time></trkpt><trkpt lat="44.7401552" lon="7.9105567"><ele>317.0</ele><time>2026-04-25T14:10:45.085Z</time></trkpt><trkpt lat="44.7401577" lon="7.9104533"><ele>318.1666666666667</ele><time>2026-04-25T14:10:46.085Z</time></trkpt><trkpt lat="44.7401506" lon="7.9103575"><ele>319.33333333333337</ele><time>2026-04-25T14:10:47.086Z</time></trkpt><trkpt lat="44.7401104" lon="7.9102448"><ele>320.5</ele><time>2026-04-25T14:10:49.086Z</time></trkpt><trkpt lat="44.7400106" lon="7.9101552"><ele>321.6666666666667</ele><time>2026-04-25T14:10:51.085Z</time></trkpt><trkpt lat="44.7399498" lon="7.9101059"><ele>322.8333333333333</ele><time>2026-04-25T14:10:52.085Z</time></trkpt><trkpt lat="44.739886" lon="7.9100353"><ele>324.0</ele><time>2026-04-25T14:10:53.085Z</time></trkpt><trkpt lat="44.7398282" lon="7.9099413"><ele>325.0</ele><time>2026-04-25T14:10:54.086Z</time></trkpt><trkpt lat="44.7397671" lon="7.9098221"><ele>326.0</ele><time>2026-04-25T14:10:55.086Z</time></trkpt><trkpt lat="44.7397077" lon="7.9096807"><ele>327.0</ele><time>2026-04-25T14:10:56.086Z</time></trkpt><trkpt lat="44.7396668" lon="7.9095282"><ele>328.0</ele><time>2026-04-25T14:10:57.085Z</time></trkpt><trkpt lat="44.7396331" lon="7.9093717"><ele>328.5</ele><time>2026-04-25T14:10:58.085Z</time></trkpt><trkpt lat="44.7396097" lon="7.909197"><ele>329.0</ele><time>2026-04-25T14:10:59.086Z</time></trkpt><trkpt lat="44.7395958" lon="7.909025"><ele>329.5</ele><time>2026-04-25T14:11:00.086Z</time></trkpt><trkpt lat="44.7395642" lon="7.9088585"><ele>330.0</ele><time>2026-04-25T14:11:01.086Z</time></trkpt><trkpt lat="44.7395086" lon="7.908703"><ele>330.0</ele><time>2026-04-25T14:11:02.086Z</time></trkpt><trkpt lat="44.7394242" lon="7.908564"><ele>330.0</ele><time>2026-04-25T14:11:03.086Z</time></trkpt><trkpt lat="44.7393233" lon="7.9084481"><ele>330.0</ele><time>2026-04-25T14:11:04.086Z</time></trkpt><trkpt lat="44.7392231" lon="7.9083234"><ele>330.0</ele><time>2026-04-25T14:11:05.086Z</time></trkpt><trkpt lat="44.7391363" lon="7.9081753"><ele>328.0</ele><time>2026-04-25T14:11:06.086Z</time></trkpt><trkpt lat="44.7390709" lon="7.9080102"><ele>326.0</ele><time>2026-04-25T14:11:07.086Z</time></trkpt><trkpt lat="44.7390114" lon="7.9078363"><ele>324.0</ele><time>2026-04-25T14:11:08.085Z</time></trkpt><trkpt lat="44.7389509" lon="7.9076731"><ele>322.0</ele><time>2026-04-25T14:11:09.086Z</time></trkpt><trkpt lat="44.738904" lon="7.9075151"><ele>322.0</ele><time>2026-04-25T14:11:10.085Z</time></trkpt><trkpt lat="44.7388838" lon="7.9073467"><ele>322.0</ele><time>2026-04-25T14:11:11.086Z</time></trkpt><trkpt lat="44.7388941" lon="7.9071768"><ele>322.0</ele><time>2026-04-25T14:11:12.085Z</time></trkpt><trkpt lat="44.7389314" lon="7.9070065"><ele>322.0</ele><time>2026-04-25T14:11:13.086Z</time></trkpt><trkpt lat="44.7389844" lon="7.9068523"><ele>320.5</ele><time>2026-04-25T14:11:14.085Z</time></trkpt><trkpt lat="44.7390166" lon="7.9066892"><ele>319.0</ele><time>2026-04-25T14:11:15.086Z</time></trkpt><trkpt lat="44.7390243" lon="7.9065162"><ele>317.5</ele><time>2026-04-25T14:11:16.086Z</time></trkpt><trkpt lat="44.7390008" lon="7.9063336"><ele>316.0</ele><time>2026-04-25T14:11:17.086Z</time></trkpt><trkpt lat="44.7389423" lon="7.9061666"><ele>316.0</ele><time>2026-04-25T14:11:18.086Z</time></trkpt><trkpt lat="44.7388734" lon="7.9060048"><ele>316.0</ele><time>2026-04-25T14:11:19.086Z</time></trkpt><trkpt lat="44.7387421" lon="7.9058947"><ele>316.0</ele><time>2026-04-25T14:11:20.086Z</time></trkpt><trkpt lat="44.7386119" lon="7.9057803"><ele>316.0</ele><time>2026-04-25T14:11:21.086Z</time></trkpt><trkpt lat="44.738459" lon="7.9056701"><ele>313.0</ele><time>2026-04-25T14:11:22.086Z</time></trkpt><trkpt lat="44.7383148" lon="7.9055388"><ele>310.0</ele><time>2026-04-25T14:11:23.086Z</time></trkpt><trkpt lat="44.738162" lon="7.9054152"><ele>307.0</ele><time>2026-04-25T14:11:24.086Z</time></trkpt><trkpt lat="44.7380005" lon="7.9052937"><ele>307.0</ele><time>2026-04-25T14:11:25.086Z</time></trkpt><trkpt lat="44.7378553" lon="7.9051764"><ele>307.0</ele><time>2026-04-25T14:11:26.086Z</time></trkpt><trkpt lat="44.7377157" lon="7.9050694"><ele>307.0</ele><time>2026-04-25T14:11:27.086Z</time></trkpt><trkpt lat="44.7375799" lon="7.9049812"><ele>305.5</ele><time>2026-04-25T14:11:28.086Z</time></trkpt><trkpt lat="44.7374486" lon="7.9048843"><ele>304.0</ele><time>2026-04-25T14:11:29.086Z</time></trkpt><trkpt lat="44.7373224" lon="7.9047593"><ele>302.5</ele><time>2026-04-25T14:11:30.086Z</time></trkpt><trkpt lat="44.7371995" lon="7.9046642"><ele>301.0</ele><time>2026-04-25T14:11:31.086Z</time></trkpt><trkpt lat="44.7370874" lon="7.9045754"><ele>301.0</ele><time>2026-04-25T14:11:32.086Z</time></trkpt><trkpt lat="44.7369959" lon="7.9044582"><ele>301.0</ele><time>2026-04-25T14:11:33.086Z</time></trkpt><trkpt lat="44.7369312" lon="7.9043281"><ele>301.0</ele><time>2026-04-25T14:11:34.085Z</time></trkpt><trkpt lat="44.7368914" lon="7.9041723"><ele>301.0</ele><time>2026-04-25T14:11:35.086Z</time></trkpt><trkpt lat="44.7368793" lon="7.9039886"><ele>301.5</ele><time>2026-04-25T14:11:36.085Z</time></trkpt><trkpt lat="44.736885" lon="7.9037978"><ele>302.0</ele><time>2026-04-25T14:11:37.086Z</time></trkpt><trkpt lat="44.7368978" lon="7.9036081"><ele>302.5</ele><time>2026-04-25T14:11:38.086Z</time></trkpt><trkpt lat="44.7369038" lon="7.9034199"><ele>303.0</ele><time>2026-04-25T14:11:39.086Z</time></trkpt><trkpt lat="44.7368874" lon="7.9032371"><ele>301.0</ele><time>2026-04-25T14:11:40.086Z</time></trkpt><trkpt lat="44.7368401" lon="7.9030539"><ele>299.0</ele><time>2026-04-25T14:11:41.086Z</time></trkpt><trkpt lat="44.7367823" lon="7.9028717"><ele>297.0</ele><time>2026-04-25T14:11:42.086Z</time></trkpt><trkpt lat="44.7367053" lon="7.9026916"><ele>295.0</ele><time>2026-04-25T14:11:43.086Z</time></trkpt><trkpt lat="44.7366304" lon="7.9025112"><ele>294.0</ele><time>2026-04-25T14:11:44.086Z</time></trkpt><trkpt lat="44.7365551" lon="7.9023305"><ele>293.0</ele><time>2026-04-25T14:11:45.085Z</time></trkpt><trkpt lat="44.7364724" lon="7.9021427"><ele>292.0</ele><time>2026-04-25T14:11:46.086Z</time></trkpt><trkpt lat="44.7363775" lon="7.9019822"><ele>292.0</ele><time>2026-04-25T14:11:47.085Z</time></trkpt><trkpt lat="44.7362637" lon="7.9018341"><ele>292.0</ele><time>2026-04-25T14:11:48.086Z</time></trkpt><trkpt lat="44.7361386" lon="7.9017057"><ele>292.0</ele><time>2026-04-25T14:11:49.086Z</time></trkpt><trkpt lat="44.7359981" lon="7.9015951"><ele>291.3333333333333</ele><time>2026-04-25T14:11:50.086Z</time></trkpt><trkpt lat="44.7358489" lon="7.9015217"><ele>290.6666666666667</ele><time>2026-04-25T14:11:51.086Z</time></trkpt><trkpt lat="44.7356855" lon="7.9014677"><ele>290.0</ele><time>2026-04-25T14:11:52.085Z</time></trkpt><trkpt lat="44.7355052" lon="7.9014467"><ele>290.0</ele><time>2026-04-25T14:11:53.086Z</time></trkpt><trkpt lat="44.7353215" lon="7.9014574"><ele>290.0</ele><time>2026-04-25T14:11:54.086Z</time></trkpt><trkpt lat="44.7351313" lon="7.9014873"><ele>290.0</ele><time>2026-04-25T14:11:55.086Z</time></trkpt><trkpt lat="44.7349318" lon="7.9015232"><ele>289.0</ele><time>2026-04-25T14:11:56.086Z</time></trkpt><trkpt lat="44.7347277" lon="7.9015573"><ele>288.0</ele><time>2026-04-25T14:11:57.085Z</time></trkpt><trkpt lat="44.7345117" lon="7.9015815"><ele>287.0</ele><time>2026-04-25T14:11:58.085Z</time></trkpt><trkpt lat="44.7342964" lon="7.9016087"><ele>285.6666666666667</ele><time>2026-04-25T14:11:59.086Z</time></trkpt><trkpt lat="44.7340817" lon="7.9016347"><ele>284.3333333333333</ele><time>2026-04-25T14:12:00.085Z</time></trkpt><trkpt lat="44.7338633" lon="7.9016646"><ele>283.0</ele><time>2026-04-25T14:12:01.086Z</time></trkpt><trkpt lat="44.733647" lon="7.9016946"><ele>282.66666666666663</ele><time>2026-04-25T14:12:02.086Z</time></trkpt><trkpt lat="44.733443" lon="7.9017311"><ele>282.3333333333333</ele><time>2026-04-25T14:12:03.086Z</time></trkpt><trkpt lat="44.7332422" lon="7.901765"><ele>282.0</ele><time>2026-04-25T14:12:04.086Z</time></trkpt><trkpt lat="44.7330532" lon="7.901794"><ele>283.0</ele><time>2026-04-25T14:12:05.086Z</time></trkpt><trkpt lat="44.7328635" lon="7.9018287"><ele>284.0</ele><time>2026-04-25T14:12:06.085Z</time></trkpt><trkpt lat="44.7326718" lon="7.9018586"><ele>285.0</ele><time>2026-04-25T14:12:07.086Z</time></trkpt><trkpt lat="44.732491" lon="7.901885"><ele>285.0</ele><time>2026-04-25T14:12:08.086Z</time></trkpt><trkpt lat="44.7323141" lon="7.9019122"><ele>285.0</ele><time>2026-04-25T14:12:09.086Z</time></trkpt><trkpt lat="44.7321406" lon="7.9019286"><ele>285.0</ele><time>2026-04-25T14:12:10.085Z</time></trkpt><trkpt lat="44.7319756" lon="7.9019051"><ele>284.0</ele><time>2026-04-25T14:12:11.085Z</time></trkpt><trkpt lat="44.7318053" lon="7.9018648"><ele>283.0</ele><time>2026-04-25T14:12:12.086Z</time></trkpt><trkpt lat="44.7316366" lon="7.901787"><ele>282.0</ele><time>2026-04-25T14:12:13.086Z</time></trkpt><trkpt lat="44.7314679" lon="7.9017082"><ele>281.3333333333333</ele><time>2026-04-25T14:12:14.086Z</time></trkpt><trkpt lat="44.7313076" lon="7.9016287"><ele>280.66666666666663</ele><time>2026-04-25T14:12:15.086Z</time></trkpt><trkpt lat="44.7311613" lon="7.9015561"><ele>280.0</ele><time>2026-04-25T14:12:16.086Z</time></trkpt><trkpt lat="44.7310052" lon="7.9015055"><ele>280.0</ele><time>2026-04-25T14:12:17.085Z</time></trkpt><trkpt lat="44.730829" lon="7.9014811"><ele>280.0</ele><time>2026-04-25T14:12:18.086Z</time></trkpt><trkpt lat="44.7306499" lon="7.9014906"><ele>280.0</ele><time>2026-04-25T14:12:19.085Z</time></trkpt><trkpt lat="44.7304789" lon="7.9015055"><ele>280.0</ele><time>2026-04-25T14:12:20.086Z</time></trkpt><trkpt lat="44.7302829" lon="7.901539"><ele>280.0</ele><time>2026-04-25T14:12:21.086Z</time></trkpt><trkpt lat="44.7300896" lon="7.9015847"><ele>280.0</ele><time>2026-04-25T14:12:22.086Z</time></trkpt><trkpt lat="44.7299054" lon="7.9016274"><ele>278.66666666666663</ele><time>2026-04-25T14:12:23.085Z</time></trkpt><trkpt lat="44.7297324" lon="7.9016629"><ele>277.3333333333333</ele><time>2026-04-25T14:12:24.086Z</time></trkpt><trkpt lat="44.7295653" lon="7.9016679"><ele>276.0</ele><time>2026-04-25T14:12:25.086Z</time></trkpt><trkpt lat="44.7294143" lon="7.9016491"><ele>274.6666666666667</ele><time>2026-04-25T14:12:26.085Z</time></trkpt><trkpt lat="44.7292709" lon="7.9015891"><ele>273.33333333333337</ele><time>2026-04-25T14:12:27.086Z</time></trkpt><trkpt lat="44.7291308" lon="7.901512"><ele>272.0</ele><time>2026-04-25T14:12:28.086Z</time></trkpt><trkpt lat="44.7289972" lon="7.9014128"><ele>272.0</ele><time>2026-04-25T14:12:29.086Z</time></trkpt><trkpt lat="44.7288642" lon="7.9013016"><ele>272.0</ele><time>2026-04-25T14:12:30.085Z</time></trkpt><trkpt lat="44.7287192" lon="7.9012097"><ele>272.0</ele><time>2026-04-25T14:12:31.086Z</time></trkpt><trkpt lat="44.7285663" lon="7.9011439"><ele>271.0</ele><time>2026-04-25T14:12:32.085Z</time></trkpt><trkpt lat="44.7283965" lon="7.9011034"><ele>270.0</ele><time>2026-04-25T14:12:33.085Z</time></trkpt><trkpt lat="44.7282181" lon="7.9011158"><ele>269.0</ele><time>2026-04-25T14:12:34.085Z</time></trkpt><trkpt lat="44.7280506" lon="7.9011618"><ele>269.0</ele><time>2026-04-25T14:12:35.085Z</time></trkpt><trkpt lat="44.7278813" lon="7.9012504"><ele>269.0</ele><time>2026-04-25T14:12:36.086Z</time></trkpt><trkpt lat="44.7277206" lon="7.9013742"><ele>269.0</ele><time>2026-04-25T14:12:37.086Z</time></trkpt><trkpt lat="44.7275604" lon="7.9014915"><ele>270.33333333333337</ele><time>2026-04-25T14:12:38.086Z</time></trkpt><trkpt lat="44.7273954" lon="7.901597"><ele>271.6666666666667</ele><time>2026-04-25T14:12:39.085Z</time></trkpt><trkpt lat="44.7272126" lon="7.9016812"><ele>273.0</ele><time>2026-04-25T14:12:40.085Z</time></trkpt><trkpt lat="44.7270242" lon="7.9017436"><ele>272.0</ele><time>2026-04-25T14:12:41.086Z</time></trkpt><trkpt lat="44.7268295" lon="7.9017851"><ele>271.0</ele><time>2026-04-25T14:12:42.086Z</time></trkpt><trkpt lat="44.7266267" lon="7.9018288"><ele>270.0</ele><time>2026-04-25T14:12:43.086Z</time></trkpt><trkpt lat="44.7264235" lon="7.9018768"><ele>270.0</ele><time>2026-04-25T14:12:44.086Z</time></trkpt><trkpt lat="44.7262232" lon="7.9019169"><ele>270.0</ele><time>2026-04-25T14:12:45.086Z</time></trkpt><trkpt lat="44.7260242" lon="7.9019587"><ele>270.0</ele><time>2026-04-25T14:12:46.086Z</time></trkpt><trkpt lat="44.7258194" lon="7.9020008"><ele>269.0</ele><time>2026-04-25T14:12:47.085Z</time></trkpt><trkpt lat="44.7256226" lon="7.9020483"><ele>268.0</ele><time>2026-04-25T14:12:48.085Z</time></trkpt><trkpt lat="44.7254266" lon="7.902092"><ele>267.0</ele><time>2026-04-25T14:12:49.086Z</time></trkpt><trkpt lat="44.7252307" lon="7.9021421"><ele>264.6666666666667</ele><time>2026-04-25T14:12:50.086Z</time></trkpt><trkpt lat="44.7250484" lon="7.9021886"><ele>262.33333333333337</ele><time>2026-04-25T14:12:51.086Z</time></trkpt><trkpt lat="44.7248551" lon="7.9022292"><ele>260.0</ele><time>2026-04-25T14:12:52.086Z</time></trkpt><trkpt lat="44.7246681" lon="7.9022765"><ele>260.0</ele><time>2026-04-25T14:12:53.086Z</time></trkpt><trkpt lat="44.7244872" lon="7.9023262"><ele>260.0</ele><time>2026-04-25T14:12:54.085Z</time></trkpt><trkpt lat="44.7243022" lon="7.9023747"><ele>260.0</ele><time>2026-04-25T14:12:55.086Z</time></trkpt><trkpt lat="44.724118" lon="7.9024171"><ele>260.0</ele><time>2026-04-25T14:12:56.085Z</time></trkpt><trkpt lat="44.7239444" lon="7.9024583"><ele>260.0</ele><time>2026-04-25T14:12:57.086Z</time></trkpt><trkpt lat="44.7237646" lon="7.9025027"><ele>260.0</ele><time>2026-04-25T14:12:58.086Z</time></trkpt><trkpt lat="44.7235928" lon="7.9025474"><ele>257.6666666666667</ele><time>2026-04-25T14:12:59.086Z</time></trkpt><trkpt lat="44.7234338" lon="7.9025936"><ele>255.33333333333331</ele><time>2026-04-25T14:13:00.086Z</time></trkpt><trkpt lat="44.7232784" lon="7.9026282"><ele>253.0</ele><time>2026-04-25T14:13:01.085Z</time></trkpt><trkpt lat="44.7231378" lon="7.9026588"><ele>253.0</ele><time>2026-04-25T14:13:02.086Z</time></trkpt><trkpt lat="44.7230061" lon="7.9026786"><ele>253.0</ele><time>2026-04-25T14:13:03.086Z</time></trkpt><trkpt lat="44.7228618" lon="7.9026787"><ele>253.0</ele><time>2026-04-25T14:13:04.085Z</time></trkpt><trkpt lat="44.7227164" lon="7.9026515"><ele>253.0</ele><time>2026-04-25T14:13:05.086Z</time></trkpt><trkpt lat="44.7225701" lon="7.9025914"><ele>254.33333333333331</ele><time>2026-04-25T14:13:06.085Z</time></trkpt><trkpt lat="44.7224214" lon="7.9025045"><ele>255.66666666666669</ele><time>2026-04-25T14:13:07.086Z</time></trkpt><trkpt lat="44.7222824" lon="7.9023899"><ele>257.0</ele><time>2026-04-25T14:13:08.086Z</time></trkpt><trkpt lat="44.7221514" lon="7.9022494"><ele>257.0</ele><time>2026-04-25T14:13:09.085Z</time></trkpt><trkpt lat="44.7220165" lon="7.9020954"><ele>257.0</ele><time>2026-04-25T14:13:10.086Z</time></trkpt><trkpt lat="44.7218785" lon="7.9019394"><ele>257.0</ele><time>2026-04-25T14:13:11.086Z</time></trkpt><trkpt lat="44.7217426" lon="7.9017813"><ele>257.6666666666667</ele><time>2026-04-25T14:13:12.085Z</time></trkpt><trkpt lat="44.7216322" lon="7.9016231"><ele>258.3333333333333</ele><time>2026-04-25T14:13:13.085Z</time></trkpt><trkpt lat="44.7215198" lon="7.9014446"><ele>259.0</ele><time>2026-04-25T14:13:14.085Z</time></trkpt><trkpt lat="44.7214328" lon="7.9012483"><ele>259.0</ele><time>2026-04-25T14:13:15.086Z</time></trkpt><trkpt lat="44.7213674" lon="7.9010351"><ele>259.0</ele><time>2026-04-25T14:13:16.086Z</time></trkpt><trkpt lat="44.7213264" lon="7.9008191"><ele>259.0</ele><time>2026-04-25T14:13:17.086Z</time></trkpt><trkpt lat="44.7213012" lon="7.9005877"><ele>260.0</ele><time>2026-04-25T14:13:18.086Z</time></trkpt><trkpt lat="44.7212885" lon="7.9003471"><ele>261.0</ele><time>2026-04-25T14:13:19.086Z</time></trkpt><trkpt lat="44.7212855" lon="7.900101"><ele>262.0</ele><time>2026-04-25T14:13:20.086Z</time></trkpt><trkpt lat="44.7212762" lon="7.8998536"><ele>262.3333333333333</ele><time>2026-04-25T14:13:21.086Z</time></trkpt><trkpt lat="44.721252" lon="7.8995964"><ele>262.6666666666667</ele><time>2026-04-25T14:13:22.085Z</time></trkpt><trkpt lat="44.7212044" lon="7.8993461"><ele>263.0</ele><time>2026-04-25T14:13:23.086Z</time></trkpt><trkpt lat="44.7211356" lon="7.8991059"><ele>261.6666666666667</ele><time>2026-04-25T14:13:24.086Z</time></trkpt><trkpt lat="44.721057" lon="7.8988613"><ele>260.3333333333333</ele><time>2026-04-25T14:13:25.085Z</time></trkpt><trkpt lat="44.720969" lon="7.8986137"><ele>259.0</ele><time>2026-04-25T14:13:26.085Z</time></trkpt><trkpt lat="44.7208833" lon="7.8983687"><ele>259.0</ele><time>2026-04-25T14:13:27.085Z</time></trkpt><trkpt lat="44.7208055" lon="7.89813"><ele>259.0</ele><time>2026-04-25T14:13:28.086Z</time></trkpt><trkpt lat="44.7207341" lon="7.8978952"><ele>259.0</ele><time>2026-04-25T14:13:29.086Z</time></trkpt><trkpt lat="44.7206519" lon="7.8976538"><ele>259.3333333333333</ele><time>2026-04-25T14:13:30.086Z</time></trkpt><trkpt lat="44.7205765" lon="7.8974213"><ele>259.6666666666667</ele><time>2026-04-25T14:13:31.086Z</time></trkpt><trkpt lat="44.7205034" lon="7.8971845"><ele>260.0</ele><time>2026-04-25T14:13:32.085Z</time></trkpt><trkpt lat="44.7204248" lon="7.896951"><ele>260.0</ele><time>2026-04-25T14:13:33.085Z</time></trkpt><trkpt lat="44.7203538" lon="7.8967057"><ele>260.0</ele><time>2026-04-25T14:13:34.085Z</time></trkpt><trkpt lat="44.7202776" lon="7.8964686"><ele>260.0</ele><time>2026-04-25T14:13:35.086Z</time></trkpt><trkpt lat="44.7201983" lon="7.896231"><ele>262.33333333333337</ele><time>2026-04-25T14:13:36.086Z</time></trkpt><trkpt lat="44.7201202" lon="7.8959903"><ele>264.6666666666667</ele><time>2026-04-25T14:13:37.086Z</time></trkpt><trkpt lat="44.7200388" lon="7.8957459"><ele>267.0</ele><time>2026-04-25T14:13:38.086Z</time></trkpt><trkpt lat="44.7199627" lon="7.8954982"><ele>267.0</ele><time>2026-04-25T14:13:39.085Z</time></trkpt><trkpt lat="44.7198878" lon="7.8952555"><ele>267.0</ele><time>2026-04-25T14:13:40.086Z</time></trkpt><trkpt lat="44.7197988" lon="7.8950174"><ele>267.0</ele><time>2026-04-25T14:13:41.086Z</time></trkpt><trkpt lat="44.7197103" lon="7.894789"><ele>271.0</ele><time>2026-04-25T14:13:42.086Z</time></trkpt><trkpt lat="44.719593" lon="7.8945741"><ele>275.0</ele><time>2026-04-25T14:13:43.085Z</time></trkpt><trkpt lat="44.7194706" lon="7.8943708"><ele>279.0</ele><time>2026-04-25T14:13:44.086Z</time></trkpt><trkpt lat="44.7193475" lon="7.8941703"><ele>279.0</ele><time>2026-04-25T14:13:45.086Z</time></trkpt><trkpt lat="44.7192239" lon="7.8939662"><ele>279.0</ele><time>2026-04-25T14:13:46.086Z</time></trkpt><trkpt lat="44.7191045" lon="7.8937604"><ele>279.0</ele><time>2026-04-25T14:13:47.086Z</time></trkpt><trkpt lat="44.7189938" lon="7.8935527"><ele>283.6666666666667</ele><time>2026-04-25T14:13:48.086Z</time></trkpt><trkpt lat="44.7188769" lon="7.8933514"><ele>288.33333333333337</ele><time>2026-04-25T14:13:49.086Z</time></trkpt><trkpt lat="44.7187551" lon="7.8931511"><ele>293.0</ele><time>2026-04-25T14:13:50.085Z</time></trkpt><trkpt lat="44.7186267" lon="7.8929765"><ele>290.6666666666667</ele><time>2026-04-25T14:13:51.085Z</time></trkpt><trkpt lat="44.7184826" lon="7.8928088"><ele>288.3333333333333</ele><time>2026-04-25T14:13:52.086Z</time></trkpt><trkpt lat="44.7183296" lon="7.8926487"><ele>286.0</ele><time>2026-04-25T14:13:53.086Z</time></trkpt><trkpt lat="44.7181681" lon="7.8924924"><ele>286.0</ele><time>2026-04-25T14:13:54.085Z</time></trkpt><trkpt lat="44.7180054" lon="7.8923331"><ele>286.0</ele><time>2026-04-25T14:13:55.086Z</time></trkpt><trkpt lat="44.7178375" lon="7.8921749"><ele>286.0</ele><time>2026-04-25T14:13:56.085Z</time></trkpt><trkpt lat="44.7176681" lon="7.8920346"><ele>287.0</ele><time>2026-04-25T14:13:57.086Z</time></trkpt><trkpt lat="44.7175063" lon="7.8919094"><ele>288.0</ele><time>2026-04-25T14:13:58.086Z</time></trkpt><trkpt lat="44.7173507" lon="7.8917951"><ele>289.0</ele><time>2026-04-25T14:13:59.086Z</time></trkpt><trkpt lat="44.7172107" lon="7.8916923"><ele>289.0</ele><time>2026-04-25T14:14:00.086Z</time></trkpt><trkpt lat="44.717064" lon="7.891599"><ele>289.0</ele><time>2026-04-25T14:14:01.086Z</time></trkpt><trkpt lat="44.7169329" lon="7.8915083"><ele>289.0</ele><time>2026-04-25T14:14:02.085Z</time></trkpt><trkpt lat="44.7168018" lon="7.8914197"><ele>288.0</ele><time>2026-04-25T14:14:03.086Z</time></trkpt><trkpt lat="44.7166835" lon="7.8913322"><ele>287.0</ele><time>2026-04-25T14:14:04.086Z</time></trkpt><trkpt lat="44.7165704" lon="7.8912567"><ele>286.0</ele><time>2026-04-25T14:14:05.086Z</time></trkpt><trkpt lat="44.7164656" lon="7.8912025"><ele>285.0</ele><time>2026-04-25T14:14:06.086Z</time></trkpt><trkpt lat="44.7163591" lon="7.8911748"><ele>285.0</ele><time>2026-04-25T14:14:07.086Z</time></trkpt><trkpt lat="44.7162587" lon="7.8911727"><ele>285.0</ele><time>2026-04-25T14:14:08.086Z</time></trkpt><trkpt lat="44.7161474" lon="7.8912267"><ele>285.0</ele><time>2026-04-25T14:14:09.086Z</time></trkpt><trkpt lat="44.7160692" lon="7.8913181"><ele>285.0</ele><time>2026-04-25T14:14:10.086Z</time></trkpt><trkpt lat="44.716009" lon="7.8914508"><ele>285.0</ele><time>2026-04-25T14:14:11.086Z</time></trkpt><trkpt lat="44.7159717" lon="7.8916008"><ele>285.75</ele><time>2026-04-25T14:14:12.085Z</time></trkpt><trkpt lat="44.7159722" lon="7.8917397"><ele>286.5</ele><time>2026-04-25T14:14:13.085Z</time></trkpt><trkpt lat="44.7160661" lon="7.8918815"><ele>287.25</ele><time>2026-04-25T14:14:14.086Z</time></trkpt><trkpt lat="44.716172" lon="7.8920134"><ele>288.0</ele><time>2026-04-25T14:14:15.086Z</time></trkpt><trkpt lat="44.7162921" lon="7.8921492"><ele>288.0</ele><time>2026-04-25T14:14:16.086Z</time></trkpt><trkpt lat="44.7164237" lon="7.8922793"><ele>288.0</ele><time>2026-04-25T14:14:17.086Z</time></trkpt><trkpt lat="44.7165677" lon="7.892417"><ele>288.0</ele><time>2026-04-25T14:14:18.086Z</time></trkpt><trkpt lat="44.7167169" lon="7.8925606"><ele>289.0</ele><time>2026-04-25T14:14:19.086Z</time></trkpt><trkpt lat="44.7168674" lon="7.8927119"><ele>290.0</ele><time>2026-04-25T14:14:20.085Z</time></trkpt><trkpt lat="44.7170111" lon="7.89286"><ele>291.0</ele><time>2026-04-25T14:14:21.086Z</time></trkpt><trkpt lat="44.7171451" lon="7.8929956"><ele>291.0</ele><time>2026-04-25T14:14:22.086Z</time></trkpt><trkpt lat="44.7172794" lon="7.8931066"><ele>291.0</ele><time>2026-04-25T14:14:23.085Z</time></trkpt><trkpt lat="44.7173899" lon="7.8932174"><ele>291.0</ele><time>2026-04-25T14:14:24.085Z</time></trkpt><trkpt lat="44.7174702" lon="7.8932967"><ele>291.0</ele><time>2026-04-25T14:14:25.085Z</time></trkpt><trkpt lat="44.7175296" lon="7.8933799"><ele>295.2</ele><time>2026-04-25T14:14:26.085Z</time></trkpt><trkpt lat="44.7175684" lon="7.8934767"><ele>299.40000000000003</ele><time>2026-04-25T14:14:27.086Z</time></trkpt><trkpt lat="44.7175598" lon="7.8935686"><ele>303.6</ele><time>2026-04-25T14:14:28.086Z</time></trkpt><trkpt lat="44.7175417" lon="7.893656"><ele>307.8</ele><time>2026-04-25T14:14:29.086Z</time></trkpt><trkpt lat="44.7174056" lon="7.8936085"><ele>312.0</ele><time>2026-04-25T14:14:31.086Z</time></trkpt><trkpt lat="44.717311" lon="7.8935547"><ele>312.0</ele><time>2026-04-25T14:14:32.086Z</time></trkpt><trkpt lat="44.7172147" lon="7.8934449"><ele>312.0</ele><time>2026-04-25T14:14:33.085Z</time></trkpt><trkpt lat="44.7171185" lon="7.8933144"><ele>312.0</ele><time>2026-04-25T14:14:34.085Z</time></trkpt><trkpt lat="44.7170096" lon="7.8931786"><ele>312.0</ele><time>2026-04-25T14:14:35.085Z</time></trkpt><trkpt lat="44.7168932" lon="7.8930515"><ele>312.6666666666667</ele><time>2026-04-25T14:14:36.086Z</time></trkpt><trkpt lat="44.7167657" lon="7.8929215"><ele>313.33333333333337</ele><time>2026-04-25T14:14:37.086Z</time></trkpt><trkpt lat="44.7166349" lon="7.892789"><ele>314.0</ele><time>2026-04-25T14:14:38.086Z</time></trkpt><trkpt lat="44.7165023" lon="7.8926541"><ele>305.33333333333337</ele><time>2026-04-25T14:14:39.086Z</time></trkpt><trkpt lat="44.716383" lon="7.892511"><ele>296.6666666666667</ele><time>2026-04-25T14:14:40.086Z</time></trkpt><trkpt lat="44.7162448" lon="7.8923818"><ele>288.0</ele><time>2026-04-25T14:14:41.085Z</time></trkpt><trkpt lat="44.7161075" lon="7.8922536"><ele>296.3333333333333</ele><time>2026-04-25T14:14:42.085Z</time></trkpt><trkpt lat="44.715967" lon="7.8921305"><ele>304.66666666666663</ele><time>2026-04-25T14:14:43.086Z</time></trkpt><trkpt lat="44.7158216" lon="7.8920257"><ele>313.0</ele><time>2026-04-25T14:14:44.086Z</time></trkpt><trkpt lat="44.7156589" lon="7.8919307"><ele>313.0</ele><time>2026-04-25T14:14:45.086Z</time></trkpt><trkpt lat="44.7154991" lon="7.891825"><ele>313.0</ele><time>2026-04-25T14:14:46.085Z</time></trkpt><trkpt lat="44.71534" lon="7.8917364"><ele>313.0</ele><time>2026-04-25T14:14:47.086Z</time></trkpt><trkpt lat="44.7151848" lon="7.8916468"><ele>312.66666666666663</ele><time>2026-04-25T14:14:48.085Z</time></trkpt><trkpt lat="44.7150271" lon="7.8915731"><ele>312.3333333333333</ele><time>2026-04-25T14:14:49.085Z</time></trkpt><trkpt lat="44.7148848" lon="7.8914872"><ele>312.0</ele><time>2026-04-25T14:14:50.086Z</time></trkpt><trkpt lat="44.7147571" lon="7.8913731"><ele>312.0</ele><time>2026-04-25T14:14:51.086Z</time></trkpt><trkpt lat="44.7146467" lon="7.8912393"><ele>312.0</ele><time>2026-04-25T14:14:52.086Z</time></trkpt><trkpt lat="44.7145575" lon="7.8910779"><ele>312.0</ele><time>2026-04-25T14:14:53.086Z</time></trkpt><trkpt lat="44.7144761" lon="7.8908978"><ele>312.0</ele><time>2026-04-25T14:14:54.086Z</time></trkpt><trkpt lat="44.7144118" lon="7.8907042"><ele>309.25</ele><time>2026-04-25T14:14:55.086Z</time></trkpt><trkpt lat="44.7143508" lon="7.890516"><ele>306.5</ele><time>2026-04-25T14:14:56.085Z</time></trkpt><trkpt lat="44.714303" lon="7.8903036"><ele>303.75</ele><time>2026-04-25T14:14:57.085Z</time></trkpt><trkpt lat="44.7142658" lon="7.8901183"><ele>301.0</ele><time>2026-04-25T14:14:58.086Z</time></trkpt><trkpt lat="44.7142366" lon="7.8899387"><ele>301.0</ele><time>2026-04-25T14:14:59.086Z</time></trkpt><trkpt lat="44.7142044" lon="7.8897693"><ele>301.0</ele><time>2026-04-25T14:15:00.085Z</time></trkpt><trkpt lat="44.7141484" lon="7.8896157"><ele>301.0</ele><time>2026-04-25T14:15:01.086Z</time></trkpt><trkpt lat="44.7140717" lon="7.8894881"><ele>301.0</ele><time>2026-04-25T14:15:02.086Z</time></trkpt><trkpt lat="44.7139752" lon="7.8893866"><ele>301.0</ele><time>2026-04-25T14:15:03.086Z</time></trkpt><trkpt lat="44.7138527" lon="7.8893142"><ele>301.0</ele><time>2026-04-25T14:15:04.086Z</time></trkpt><trkpt lat="44.713725" lon="7.8892621"><ele>301.0</ele><time>2026-04-25T14:15:05.086Z</time></trkpt><trkpt lat="44.7136016" lon="7.889203"><ele>301.0</ele><time>2026-04-25T14:15:06.085Z</time></trkpt><trkpt lat="44.7134832" lon="7.8891194"><ele>299.5</ele><time>2026-04-25T14:15:07.086Z</time></trkpt><trkpt lat="44.7134163" lon="7.8889873"><ele>298.0</ele><time>2026-04-25T14:15:08.085Z</time></trkpt><trkpt lat="44.7133495" lon="7.8888361"><ele>296.5</ele><time>2026-04-25T14:15:09.086Z</time></trkpt><trkpt lat="44.7133188" lon="7.8886767"><ele>295.0</ele><time>2026-04-25T14:15:10.086Z</time></trkpt><trkpt lat="44.713328" lon="7.8885105"><ele>295.0</ele><time>2026-04-25T14:15:11.086Z</time></trkpt><trkpt lat="44.7133598" lon="7.8883476"><ele>295.0</ele><time>2026-04-25T14:15:12.085Z</time></trkpt><trkpt lat="44.713428" lon="7.8881798"><ele>295.0</ele><time>2026-04-25T14:15:13.085Z</time></trkpt><trkpt lat="44.713506" lon="7.8880059"><ele>295.0</ele><time>2026-04-25T14:15:14.085Z</time></trkpt><trkpt lat="44.7135971" lon="7.8878283"><ele>298.3333333333333</ele><time>2026-04-25T14:15:15.085Z</time></trkpt><trkpt lat="44.7136842" lon="7.8876366"><ele>301.6666666666667</ele><time>2026-04-25T14:15:16.086Z</time></trkpt><trkpt lat="44.7137798" lon="7.8874455"><ele>305.0</ele><time>2026-04-25T14:15:17.086Z</time></trkpt><trkpt lat="44.7138648" lon="7.8872752"><ele>305.0</ele><time>2026-04-25T14:15:18.086Z</time></trkpt><trkpt lat="44.7139457" lon="7.8870903"><ele>305.0</ele><time>2026-04-25T14:15:19.086Z</time></trkpt><trkpt lat="44.7140255" lon="7.8869258"><ele>305.0</ele><time>2026-04-25T14:15:20.086Z</time></trkpt><trkpt lat="44.7141027" lon="7.8867592"><ele>305.0</ele><time>2026-04-25T14:15:21.086Z</time></trkpt><trkpt lat="44.7141717" lon="7.8866093"><ele>306.25</ele><time>2026-04-25T14:15:22.086Z</time></trkpt><trkpt lat="44.7142665" lon="7.8864498"><ele>307.5</ele><time>2026-04-25T14:15:23.086Z</time></trkpt><trkpt lat="44.7143821" lon="7.8863256"><ele>308.75</ele><time>2026-04-25T14:15:24.086Z</time></trkpt><trkpt lat="44.714507" lon="7.8862154"><ele>310.0</ele><time>2026-04-25T14:15:25.086Z</time></trkpt><trkpt lat="44.7146424" lon="7.8861134"><ele>310.0</ele><time>2026-04-25T14:15:26.086Z</time></trkpt><trkpt lat="44.714787" lon="7.886026"><ele>310.0</ele><time>2026-04-25T14:15:27.086Z</time></trkpt><trkpt lat="44.714923" lon="7.8859196"><ele>310.0</ele><time>2026-04-25T14:15:28.086Z</time></trkpt><trkpt lat="44.7150618" lon="7.8857904"><ele>310.66666666666663</ele><time>2026-04-25T14:15:29.085Z</time></trkpt><trkpt lat="44.7151905" lon="7.8856513"><ele>311.3333333333333</ele><time>2026-04-25T14:15:30.086Z</time></trkpt><trkpt lat="44.7153082" lon="7.8854857"><ele>312.0</ele><time>2026-04-25T14:15:31.086Z</time></trkpt><trkpt lat="44.7154164" lon="7.8853122"><ele>312.0</ele><time>2026-04-25T14:15:32.086Z</time></trkpt><trkpt lat="44.7155008" lon="7.8851464"><ele>312.0</ele><time>2026-04-25T14:15:33.086Z</time></trkpt><trkpt lat="44.7155923" lon="7.8849843"><ele>312.0</ele><time>2026-04-25T14:15:34.086Z</time></trkpt><trkpt lat="44.7156772" lon="7.8848445"><ele>312.0</ele><time>2026-04-25T14:15:35.086Z</time></trkpt><trkpt lat="44.7157528" lon="7.884711"><ele>308.75</ele><time>2026-04-25T14:15:36.086Z</time></trkpt><trkpt lat="44.7158069" lon="7.8845656"><ele>305.5</ele><time>2026-04-25T14:15:37.086Z</time></trkpt><trkpt lat="44.7158359" lon="7.8844139"><ele>302.25</ele><time>2026-04-25T14:15:38.086Z</time></trkpt><trkpt lat="44.7158306" lon="7.8842605"><ele>299.0</ele><time>2026-04-25T14:15:39.085Z</time></trkpt><trkpt lat="44.7158059" lon="7.8840942"><ele>296.25</ele><time>2026-04-25T14:15:40.086Z</time></trkpt><trkpt lat="44.7157622" lon="7.8839443"><ele>293.5</ele><time>2026-04-25T14:15:41.086Z</time></trkpt><trkpt lat="44.7157214" lon="7.8837978"><ele>290.75</ele><time>2026-04-25T14:15:42.085Z</time></trkpt><trkpt lat="44.7156221" lon="7.8836474"><ele>288.0</ele><time>2026-04-25T14:15:43.086Z</time></trkpt><trkpt lat="44.715521" lon="7.8834706"><ele>288.0</ele><time>2026-04-25T14:15:44.086Z</time></trkpt><trkpt lat="44.7154117" lon="7.8833119"><ele>288.0</ele><time>2026-04-25T14:15:45.086Z</time></trkpt><trkpt lat="44.7152942" lon="7.8831349"><ele>288.0</ele><time>2026-04-25T14:15:46.086Z</time></trkpt><trkpt lat="44.7151997" lon="7.8829564"><ele>285.0</ele><time>2026-04-25T14:15:47.086Z</time></trkpt><trkpt lat="44.7150792" lon="7.8827805"><ele>282.0</ele><time>2026-04-25T14:15:48.086Z</time></trkpt><trkpt lat="44.7149562" lon="7.8825892"><ele>279.0</ele><time>2026-04-25T14:15:49.086Z</time></trkpt><trkpt lat="44.7148335" lon="7.882408"><ele>279.0</ele><time>2026-04-25T14:15:50.085Z</time></trkpt><trkpt lat="44.7147176" lon="7.8822389"><ele>279.0</ele><time>2026-04-25T14:15:51.086Z</time></trkpt><trkpt lat="44.714617" lon="7.8820819"><ele>279.0</ele><time>2026-04-25T14:15:52.085Z</time></trkpt><trkpt lat="44.714513" lon="7.8819168"><ele>279.0</ele><time>2026-04-25T14:15:53.086Z</time></trkpt><trkpt lat="44.7144876" lon="7.8817966"><ele>279.0</ele><time>2026-04-25T14:15:54.086Z</time></trkpt><trkpt lat="44.7144353" lon="7.8816329"><ele>279.0</ele><time>2026-04-25T14:15:55.086Z</time></trkpt><trkpt lat="44.7144055" lon="7.8814545"><ele>279.0</ele><time>2026-04-25T14:15:56.086Z</time></trkpt><trkpt lat="44.7143937" lon="7.8812615"><ele>277.25</ele><time>2026-04-25T14:15:57.086Z</time></trkpt><trkpt lat="44.714385" lon="7.881061"><ele>275.5</ele><time>2026-04-25T14:15:58.085Z</time></trkpt><trkpt lat="44.7143598" lon="7.8808603"><ele>273.75</ele><time>2026-04-25T14:15:59.086Z</time></trkpt><trkpt lat="44.7143257" lon="7.8806614"><ele>272.0</ele><time>2026-04-25T14:16:00.086Z</time></trkpt><trkpt lat="44.7142692" lon="7.8804811"><ele>272.0</ele><time>2026-04-25T14:16:01.085Z</time></trkpt><trkpt lat="44.714199" lon="7.8802969"><ele>272.0</ele><time>2026-04-25T14:16:02.086Z</time></trkpt><trkpt lat="44.7141363" lon="7.880127"><ele>272.0</ele><time>2026-04-25T14:16:03.086Z</time></trkpt><trkpt lat="44.7140705" lon="7.87996"><ele>272.0</ele><time>2026-04-25T14:16:04.085Z</time></trkpt><trkpt lat="44.7140076" lon="7.8798077"><ele>273.75</ele><time>2026-04-25T14:16:05.086Z</time></trkpt><trkpt lat="44.7139318" lon="7.8796761"><ele>275.5</ele><time>2026-04-25T14:16:06.086Z</time></trkpt><trkpt lat="44.7138369" lon="7.8795578"><ele>277.25</ele><time>2026-04-25T14:16:07.085Z</time></trkpt><trkpt lat="44.7137257" lon="7.8794797"><ele>279.0</ele><time>2026-04-25T14:16:08.085Z</time></trkpt><trkpt lat="44.7136005" lon="7.8794366"><ele>277.5</ele><time>2026-04-25T14:16:09.086Z</time></trkpt><trkpt lat="44.7134744" lon="7.8794185"><ele>276.0</ele><time>2026-04-25T14:16:10.085Z</time></trkpt><trkpt lat="44.7133532" lon="7.8793686"><ele>274.5</ele><time>2026-04-25T14:16:11.086Z</time></trkpt><trkpt lat="44.7132495" lon="7.8792957"><ele>273.0</ele><time>2026-04-25T14:16:12.086Z</time></trkpt><trkpt lat="44.7131498" lon="7.8791872"><ele>273.0</ele><time>2026-04-25T14:16:13.086Z</time></trkpt><trkpt lat="44.7130684" lon="7.8790478"><ele>273.0</ele><time>2026-04-25T14:16:14.086Z</time></trkpt><trkpt lat="44.7130186" lon="7.8788893"><ele>273.0</ele><time>2026-04-25T14:16:15.086Z</time></trkpt><trkpt lat="44.7129752" lon="7.8787241"><ele>273.0</ele><time>2026-04-25T14:16:16.086Z</time></trkpt><trkpt lat="44.7129295" lon="7.8785534"><ele>272.0</ele><time>2026-04-25T14:16:17.086Z</time></trkpt><trkpt lat="44.7128586" lon="7.8784135"><ele>271.0</ele><time>2026-04-25T14:16:18.086Z</time></trkpt><trkpt lat="44.7127678" lon="7.8783054"><ele>270.0</ele><time>2026-04-25T14:16:19.085Z</time></trkpt><trkpt lat="44.7126571" lon="7.8782333"><ele>269.0</ele><time>2026-04-25T14:16:20.086Z</time></trkpt><trkpt lat="44.7125368" lon="7.8782038"><ele>269.0</ele><time>2026-04-25T14:16:21.086Z</time></trkpt><trkpt lat="44.7124114" lon="7.8781969"><ele>269.0</ele><time>2026-04-25T14:16:22.085Z</time></trkpt><trkpt lat="44.7122801" lon="7.8782269"><ele>269.0</ele><time>2026-04-25T14:16:23.086Z</time></trkpt><trkpt lat="44.7121584" lon="7.8782532"><ele>269.0</ele><time>2026-04-25T14:16:24.086Z</time></trkpt><trkpt lat="44.7120375" lon="7.8782523"><ele>269.0</ele><time>2026-04-25T14:16:25.086Z</time></trkpt><trkpt lat="44.7119254" lon="7.8782137"><ele>269.0</ele><time>2026-04-25T14:16:26.085Z</time></trkpt><trkpt lat="44.711815" lon="7.8781495"><ele>269.0</ele><time>2026-04-25T14:16:27.085Z</time></trkpt><trkpt lat="44.7117155" lon="7.8780369"><ele>269.0</ele><time>2026-04-25T14:16:28.086Z</time></trkpt><trkpt lat="44.7116201" lon="7.8779141"><ele>267.0</ele><time>2026-04-25T14:16:29.086Z</time></trkpt><trkpt lat="44.7115192" lon="7.8778082"><ele>265.0</ele><time>2026-04-25T14:16:30.085Z</time></trkpt><trkpt lat="44.7114138" lon="7.8777417"><ele>263.0</ele><time>2026-04-25T14:16:31.085Z</time></trkpt><trkpt lat="44.7112832" lon="7.8777271"><ele>261.0</ele><time>2026-04-25T14:16:32.086Z</time></trkpt><trkpt lat="44.7111403" lon="7.8777477"><ele>259.75</ele><time>2026-04-25T14:16:33.085Z</time></trkpt><trkpt lat="44.7110144" lon="7.8778131"><ele>258.5</ele><time>2026-04-25T14:16:34.086Z</time></trkpt><trkpt lat="44.710896" lon="7.877901"><ele>257.25</ele><time>2026-04-25T14:16:35.086Z</time></trkpt><trkpt lat="44.7107959" lon="7.8779912"><ele>256.0</ele><time>2026-04-25T14:16:36.086Z</time></trkpt><trkpt lat="44.7106911" lon="7.8780649"><ele>256.0</ele><time>2026-04-25T14:16:37.085Z</time></trkpt><trkpt lat="44.7105876" lon="7.8781267"><ele>256.0</ele><time>2026-04-25T14:16:38.086Z</time></trkpt><trkpt lat="44.710484" lon="7.8781631"><ele>256.0</ele><time>2026-04-25T14:16:39.085Z</time></trkpt><trkpt lat="44.7103764" lon="7.8781582"><ele>256.0</ele><time>2026-04-25T14:16:40.085Z</time></trkpt><trkpt lat="44.7102577" lon="7.8781279"><ele>256.0</ele><time>2026-04-25T14:16:41.086Z</time></trkpt><trkpt lat="44.7101359" lon="7.8780786"><ele>255.0</ele><time>2026-04-25T14:16:42.085Z</time></trkpt><trkpt lat="44.7100107" lon="7.878029"><ele>254.0</ele><time>2026-04-25T14:16:43.086Z</time></trkpt><trkpt lat="44.7098867" lon="7.8779882"><ele>253.0</ele><time>2026-04-25T14:16:44.086Z</time></trkpt><trkpt lat="44.7097631" lon="7.877967"><ele>252.0</ele><time>2026-04-25T14:16:45.086Z</time></trkpt><trkpt lat="44.7096487" lon="7.8779531"><ele>252.0</ele><time>2026-04-25T14:16:46.085Z</time></trkpt><trkpt lat="44.7095534" lon="7.8779499"><ele>252.0</ele><time>2026-04-25T14:16:47.086Z</time></trkpt><trkpt lat="44.7094685" lon="7.8779743"><ele>252.0</ele><time>2026-04-25T14:16:48.086Z</time></trkpt><trkpt lat="44.7093914" lon="7.8780159"><ele>252.0</ele><time>2026-04-25T14:16:49.086Z</time></trkpt><trkpt lat="44.7093102" lon="7.8780685"><ele>252.0</ele><time>2026-04-25T14:16:50.086Z</time></trkpt><trkpt lat="44.7092388" lon="7.8781583"><ele>252.6</ele><time>2026-04-25T14:16:51.086Z</time></trkpt><trkpt lat="44.7091573" lon="7.8782531"><ele>253.2</ele><time>2026-04-25T14:16:52.086Z</time></trkpt><trkpt lat="44.7090629" lon="7.8783349"><ele>253.8</ele><time>2026-04-25T14:16:53.086Z</time></trkpt><trkpt lat="44.7089733" lon="7.8784283"><ele>254.4</ele><time>2026-04-25T14:16:54.085Z</time></trkpt><trkpt lat="44.708888" lon="7.8785187"><ele>255.0</ele><time>2026-04-25T14:16:55.086Z</time></trkpt><trkpt lat="44.7087953" lon="7.8786148"><ele>252.75</ele><time>2026-04-25T14:16:56.085Z</time></trkpt><trkpt lat="44.7087" lon="7.8787154"><ele>250.5</ele><time>2026-04-25T14:16:57.086Z</time></trkpt><trkpt lat="44.7085986" lon="7.8788029"><ele>248.25</ele><time>2026-04-25T14:16:58.086Z</time></trkpt><trkpt lat="44.708488" lon="7.8788706"><ele>246.0</ele><time>2026-04-25T14:16:59.086Z</time></trkpt><trkpt lat="44.7083616" lon="7.8789336"><ele>246.0</ele><time>2026-04-25T14:17:00.085Z</time></trkpt><trkpt lat="44.7082336" lon="7.8789923"><ele>246.0</ele><time>2026-04-25T14:17:01.085Z</time></trkpt><trkpt lat="44.7081089" lon="7.8790534"><ele>246.0</ele><time>2026-04-25T14:17:02.086Z</time></trkpt><trkpt lat="44.7079838" lon="7.8791109"><ele>246.0</ele><time>2026-04-25T14:17:03.086Z</time></trkpt><trkpt lat="44.7078638" lon="7.8791754"><ele>246.0</ele><time>2026-04-25T14:17:04.086Z</time></trkpt><trkpt lat="44.7077512" lon="7.8792365"><ele>246.0</ele><time>2026-04-25T14:17:05.085Z</time></trkpt><trkpt lat="44.707629" lon="7.8792925"><ele>246.0</ele><time>2026-04-25T14:17:06.086Z</time></trkpt><trkpt lat="44.7075098" lon="7.8793232"><ele>246.0</ele><time>2026-04-25T14:17:07.086Z</time></trkpt><trkpt lat="44.7073835" lon="7.8793441"><ele>244.0</ele><time>2026-04-25T14:17:08.086Z</time></trkpt><trkpt lat="44.7072685" lon="7.8793443"><ele>242.00000000000003</ele><time>2026-04-25T14:17:09.086Z</time></trkpt><trkpt lat="44.7071638" lon="7.8793269"><ele>240.00000000000003</ele><time>2026-04-25T14:17:10.085Z</time></trkpt><trkpt lat="44.7070679" lon="7.8792973"><ele>238.0</ele><time>2026-04-25T14:17:11.086Z</time></trkpt><trkpt lat="44.7069695" lon="7.879269"><ele>236.0</ele><time>2026-04-25T14:17:12.086Z</time></trkpt><trkpt lat="44.7068741" lon="7.8792305"><ele>235.8</ele><time>2026-04-25T14:17:13.086Z</time></trkpt><trkpt lat="44.7067778" lon="7.8791923"><ele>235.60000000000002</ele><time>2026-04-25T14:17:14.086Z</time></trkpt><trkpt lat="44.7066772" lon="7.8791805"><ele>235.4</ele><time>2026-04-25T14:17:15.086Z</time></trkpt><trkpt lat="44.70657" lon="7.8791932"><ele>235.2</ele><time>2026-04-25T14:17:16.086Z</time></trkpt><trkpt lat="44.7064664" lon="7.8792191"><ele>235.0</ele><time>2026-04-25T14:17:17.086Z</time></trkpt><trkpt lat="44.7063698" lon="7.8792653"><ele>234.75</ele><time>2026-04-25T14:17:18.085Z</time></trkpt><trkpt lat="44.7062688" lon="7.8793408"><ele>234.5</ele><time>2026-04-25T14:17:19.086Z</time></trkpt><trkpt lat="44.7061583" lon="7.8794356"><ele>234.25</ele><time>2026-04-25T14:17:20.085Z</time></trkpt><trkpt lat="44.7060465" lon="7.8795439"><ele>234.0</ele><time>2026-04-25T14:17:21.085Z</time></trkpt><trkpt lat="44.7059239" lon="7.8796528"><ele>232.66666666666669</ele><time>2026-04-25T14:17:22.085Z</time></trkpt><trkpt lat="44.7057997" lon="7.8797654"><ele>231.33333333333334</ele><time>2026-04-25T14:17:23.086Z</time></trkpt><trkpt lat="44.7056734" lon="7.87989"><ele>230.0</ele><time>2026-04-25T14:17:24.086Z</time></trkpt><trkpt lat="44.7055435" lon="7.8800146"><ele>230.33333333333334</ele><time>2026-04-25T14:17:25.086Z</time></trkpt><trkpt lat="44.7054143" lon="7.880135"><ele>230.66666666666669</ele><time>2026-04-25T14:17:26.086Z</time></trkpt><trkpt lat="44.7052866" lon="7.8802512"><ele>231.0</ele><time>2026-04-25T14:17:27.086Z</time></trkpt><trkpt lat="44.7051584" lon="7.8803729"><ele>231.25</ele><time>2026-04-25T14:17:28.086Z</time></trkpt><trkpt lat="44.705037" lon="7.8804965"><ele>231.5</ele><time>2026-04-25T14:17:29.086Z</time></trkpt><trkpt lat="44.7049188" lon="7.880604"><ele>231.75</ele><time>2026-04-25T14:17:30.086Z</time></trkpt><trkpt lat="44.7048015" lon="7.8807135"><ele>232.0</ele><time>2026-04-25T14:17:31.086Z</time></trkpt><trkpt lat="44.7046832" lon="7.8808177"><ele>232.0</ele><time>2026-04-25T14:17:32.085Z</time></trkpt><trkpt lat="44.7045613" lon="7.8809212"><ele>232.0</ele><time>2026-04-25T14:17:33.086Z</time></trkpt><trkpt lat="44.7044329" lon="7.8810195"><ele>232.0</ele><time>2026-04-25T14:17:34.085Z</time></trkpt><trkpt lat="44.7043127" lon="7.8811155"><ele>232.0</ele><time>2026-04-25T14:17:35.085Z</time></trkpt><trkpt lat="44.7041864" lon="7.8812145"><ele>231.25</ele><time>2026-04-25T14:17:36.085Z</time></trkpt><trkpt lat="44.7040638" lon="7.8813175"><ele>230.5</ele><time>2026-04-25T14:17:37.086Z</time></trkpt><trkpt lat="44.7039414" lon="7.8814065"><ele>229.75</ele><time>2026-04-25T14:17:38.086Z</time></trkpt><trkpt lat="44.7038163" lon="7.8814875"><ele>229.0</ele><time>2026-04-25T14:17:39.086Z</time></trkpt><trkpt lat="44.7036939" lon="7.8815909"><ele>229.0</ele><time>2026-04-25T14:17:40.086Z</time></trkpt><trkpt lat="44.7035732" lon="7.8816904"><ele>229.0</ele><time>2026-04-25T14:17:41.086Z</time></trkpt><trkpt lat="44.7034471" lon="7.881829"><ele>229.0</ele><time>2026-04-25T14:17:42.086Z</time></trkpt><trkpt lat="44.7033234" lon="7.8819615"><ele>228.5</ele><time>2026-04-25T14:17:43.085Z</time></trkpt><trkpt lat="44.7032054" lon="7.8821058"><ele>228.0</ele><time>2026-04-25T14:17:44.086Z</time></trkpt><trkpt lat="44.7030928" lon="7.88223"><ele>227.5</ele><time>2026-04-25T14:17:45.086Z</time></trkpt><trkpt lat="44.7029884" lon="7.8823725"><ele>227.0</ele><time>2026-04-25T14:17:46.085Z</time></trkpt><trkpt lat="44.7028877" lon="7.8825046"><ele>226.75</ele><time>2026-04-25T14:17:47.086Z</time></trkpt><trkpt lat="44.7027907" lon="7.8826182"><ele>226.5</ele><time>2026-04-25T14:17:48.086Z</time></trkpt><trkpt lat="44.7026965" lon="7.8827362"><ele>226.25</ele><time>2026-04-25T14:17:49.085Z</time></trkpt><trkpt lat="44.7025943" lon="7.8828627"><ele>226.0</ele><time>2026-04-25T14:17:50.086Z</time></trkpt><trkpt lat="44.7025017" lon="7.8829902"><ele>226.0</ele><time>2026-04-25T14:17:51.086Z</time></trkpt><trkpt lat="44.7023968" lon="7.8831218"><ele>226.0</ele><time>2026-04-25T14:17:52.085Z</time></trkpt><trkpt lat="44.7022903" lon="7.8832512"><ele>226.0</ele><time>2026-04-25T14:17:53.086Z</time></trkpt><trkpt lat="44.7021838" lon="7.8833931"><ele>226.0</ele><time>2026-04-25T14:17:54.086Z</time></trkpt><trkpt lat="44.7020732" lon="7.8835327"><ele>225.33333333333331</ele><time>2026-04-25T14:17:55.086Z</time></trkpt><trkpt lat="44.7019561" lon="7.883675"><ele>224.66666666666669</ele><time>2026-04-25T14:17:56.086Z</time></trkpt><trkpt lat="44.7018434" lon="7.8838111"><ele>224.0</ele><time>2026-04-25T14:17:57.086Z</time></trkpt><trkpt lat="44.7017316" lon="7.8839545"><ele>224.0</ele><time>2026-04-25T14:17:58.086Z</time></trkpt><trkpt lat="44.7016287" lon="7.8840948"><ele>224.0</ele><time>2026-04-25T14:17:59.086Z</time></trkpt><trkpt lat="44.7015199" lon="7.8842364"><ele>224.0</ele><time>2026-04-25T14:18:00.086Z</time></trkpt><trkpt lat="44.7014103" lon="7.8843729"><ele>224.0</ele><time>2026-04-25T14:18:01.086Z</time></trkpt><trkpt lat="44.7012993" lon="7.8845069"><ele>224.0</ele><time>2026-04-25T14:18:02.086Z</time></trkpt><trkpt lat="44.701191" lon="7.8846525"><ele>224.0</ele><time>2026-04-25T14:18:03.085Z</time></trkpt><trkpt lat="44.7010836" lon="7.8847774"><ele>224.0</ele><time>2026-04-25T14:18:04.086Z</time></trkpt><trkpt lat="44.7009859" lon="7.8848997"><ele>224.0</ele><time>2026-04-25T14:18:05.085Z</time></trkpt><trkpt lat="44.7008929" lon="7.8850144"><ele>223.79999999999998</ele><time>2026-04-25T14:18:06.085Z</time></trkpt><trkpt lat="44.7008042" lon="7.8851152"><ele>223.59999999999997</ele><time>2026-04-25T14:18:07.086Z</time></trkpt><trkpt lat="44.7007224" lon="7.8852131"><ele>223.4</ele><time>2026-04-25T14:18:08.085Z</time></trkpt><trkpt lat="44.70065" lon="7.8852868"><ele>223.2</ele><time>2026-04-25T14:18:09.086Z</time></trkpt><trkpt lat="44.7005908" lon="7.88535"><ele>223.0</ele><time>2026-04-25T14:18:10.086Z</time></trkpt><trkpt lat="44.7005153" lon="7.8854583"><ele>222.99999999999997</ele><time>2026-04-25T14:18:12.086Z</time></trkpt><trkpt lat="44.7004574" lon="7.8855309"><ele>223.0</ele><time>2026-04-25T14:18:14.086Z</time></trkpt><trkpt lat="44.700398" lon="7.8856084"><ele>223.0</ele><time>2026-04-25T14:18:16.086Z</time></trkpt><trkpt lat="44.700298" lon="7.8856822"><ele>223.0</ele><time>2026-04-25T14:18:18.086Z</time></trkpt><trkpt lat="44.7002267" lon="7.8857119"><ele>222.99999999999997</ele><time>2026-04-25T14:18:19.085Z</time></trkpt><trkpt lat="44.7001252" lon="7.8857262"><ele>223.0</ele><time>2026-04-25T14:18:20.086Z</time></trkpt><trkpt lat="44.7000252" lon="7.885755"><ele>222.75</ele><time>2026-04-25T14:18:21.086Z</time></trkpt><trkpt lat="44.6999124" lon="7.8858031"><ele>222.5</ele><time>2026-04-25T14:18:22.086Z</time></trkpt><trkpt lat="44.6997901" lon="7.8858687"><ele>222.25</ele><time>2026-04-25T14:18:23.086Z</time></trkpt><trkpt lat="44.6996613" lon="7.8859438"><ele>222.0</ele><time>2026-04-25T14:18:24.086Z</time></trkpt><trkpt lat="44.6995213" lon="7.8860248"><ele>221.5</ele><time>2026-04-25T14:18:25.085Z</time></trkpt><trkpt lat="44.6993861" lon="7.8861163"><ele>221.0</ele><time>2026-04-25T14:18:26.086Z</time></trkpt><trkpt lat="44.6992504" lon="7.886206"><ele>220.5</ele><time>2026-04-25T14:18:27.085Z</time></trkpt><trkpt lat="44.6991183" lon="7.8862914"><ele>220.0</ele><time>2026-04-25T14:18:28.086Z</time></trkpt><trkpt lat="44.6989864" lon="7.8863819"><ele>220.0</ele><time>2026-04-25T14:18:29.086Z</time></trkpt><trkpt lat="44.6988614" lon="7.8864664"><ele>220.0</ele><time>2026-04-25T14:18:30.085Z</time></trkpt><trkpt lat="44.6987277" lon="7.8865549"><ele>220.0</ele><time>2026-04-25T14:18:31.085Z</time></trkpt><trkpt lat="44.6986039" lon="7.8866369"><ele>220.0</ele><time>2026-04-25T14:18:32.086Z</time></trkpt><trkpt lat="44.6984795" lon="7.8867181"><ele>219.5</ele><time>2026-04-25T14:18:33.086Z</time></trkpt><trkpt lat="44.6983591" lon="7.8867956"><ele>219.0</ele><time>2026-04-25T14:18:34.085Z</time></trkpt><trkpt lat="44.6982418" lon="7.8868612"><ele>218.5</ele><time>2026-04-25T14:18:35.085Z</time></trkpt><trkpt lat="44.6981217" lon="7.8869186"><ele>218.0</ele><time>2026-04-25T14:18:36.085Z</time></trkpt><trkpt lat="44.6980078" lon="7.8869609"><ele>218.0</ele><time>2026-04-25T14:18:37.086Z</time></trkpt><trkpt lat="44.697895" lon="7.887"><ele>218.0</ele><time>2026-04-25T14:18:38.085Z</time></trkpt><trkpt lat="44.6977828" lon="7.8870434"><ele>218.0</ele><time>2026-04-25T14:18:39.086Z</time></trkpt><trkpt lat="44.6976798" lon="7.8870816"><ele>218.0</ele><time>2026-04-25T14:18:40.085Z</time></trkpt><trkpt lat="44.6975845" lon="7.8871142"><ele>218.0</ele><time>2026-04-25T14:18:41.086Z</time></trkpt><trkpt lat="44.6975082" lon="7.8871323"><ele>218.2</ele><time>2026-04-25T14:18:42.085Z</time></trkpt><trkpt lat="44.6974435" lon="7.8871672"><ele>218.4</ele><time>2026-04-25T14:18:43.085Z</time></trkpt><trkpt lat="44.6973791" lon="7.8871887"><ele>218.59999999999997</ele><time>2026-04-25T14:18:44.086Z</time></trkpt><trkpt lat="44.6973159" lon="7.8872065"><ele>218.79999999999998</ele><time>2026-04-25T14:19:53.086Z</time></trkpt><trkpt lat="44.6971853" lon="7.8872379"><ele>219.0</ele><time>2026-04-25T14:19:55.086Z</time></trkpt><trkpt lat="44.6970533" lon="7.8872955"><ele>219.0</ele><time>2026-04-25T14:19:57.086Z</time></trkpt><trkpt lat="44.6969923" lon="7.8873349"><ele>218.99999999999997</ele><time>2026-04-25T14:19:58.085Z</time></trkpt><trkpt lat="44.6968908" lon="7.8874147"><ele>218.99999999999997</ele><time>2026-04-25T14:19:59.086Z</time></trkpt><trkpt lat="44.6967967" lon="7.8874883"><ele>219.0</ele><time>2026-04-25T14:20:00.086Z</time></trkpt><trkpt lat="44.6966915" lon="7.8875682"><ele>219.0</ele><time>2026-04-25T14:20:01.086Z</time></trkpt><trkpt lat="44.6965856" lon="7.8876482"><ele>218.5</ele><time>2026-04-25T14:20:02.086Z</time></trkpt><trkpt lat="44.6964711" lon="7.8877386"><ele>218.0</ele><time>2026-04-25T14:20:03.086Z</time></trkpt><trkpt lat="44.6963609" lon="7.8878336"><ele>217.5</ele><time>2026-04-25T14:20:04.085Z</time></trkpt><trkpt lat="44.6962382" lon="7.8879383"><ele>217.0</ele><time>2026-04-25T14:20:05.085Z</time></trkpt><trkpt lat="44.6961207" lon="7.8880251"><ele>216.66666666666666</ele><time>2026-04-25T14:20:06.085Z</time></trkpt><trkpt lat="44.6959894" lon="7.8881317"><ele>216.33333333333331</ele><time>2026-04-25T14:20:07.085Z</time></trkpt><trkpt lat="44.6958617" lon="7.8882425"><ele>216.0</ele><time>2026-04-25T14:20:08.085Z</time></trkpt><trkpt lat="44.6957284" lon="7.88835"><ele>216.0</ele><time>2026-04-25T14:20:09.086Z</time></trkpt><trkpt lat="44.695597" lon="7.888467"><ele>216.0</ele><time>2026-04-25T14:20:10.085Z</time></trkpt><trkpt lat="44.6954654" lon="7.8885847"><ele>216.0</ele><time>2026-04-25T14:20:11.086Z</time></trkpt><trkpt lat="44.6953289" lon="7.8887056"><ele>214.66666666666669</ele><time>2026-04-25T14:20:12.086Z</time></trkpt><trkpt lat="44.6951934" lon="7.8888269"><ele>213.33333333333334</ele><time>2026-04-25T14:20:13.086Z</time></trkpt><trkpt lat="44.6950547" lon="7.8889472"><ele>212.0</ele><time>2026-04-25T14:20:14.086Z</time></trkpt><trkpt lat="44.6949111" lon="7.8890576"><ele>212.0</ele><time>2026-04-25T14:20:15.086Z</time></trkpt><trkpt lat="44.6947643" lon="7.8891821"><ele>212.0</ele><time>2026-04-25T14:20:16.085Z</time></trkpt><trkpt lat="44.6946173" lon="7.8893014"><ele>212.0</ele><time>2026-04-25T14:20:17.086Z</time></trkpt><trkpt lat="44.6944737" lon="7.8894183"><ele>212.33333333333334</ele><time>2026-04-25T14:20:18.086Z</time></trkpt><trkpt lat="44.6943256" lon="7.8895482"><ele>212.66666666666669</ele><time>2026-04-25T14:20:19.086Z</time></trkpt><trkpt lat="44.6941761" lon="7.8896765"><ele>213.0</ele><time>2026-04-25T14:20:20.086Z</time></trkpt><trkpt lat="44.6940244" lon="7.8898048"><ele>213.0</ele><time>2026-04-25T14:20:21.086Z</time></trkpt><trkpt lat="44.6938708" lon="7.8899313"><ele>213.0</ele><time>2026-04-25T14:20:22.086Z</time></trkpt><trkpt lat="44.6937212" lon="7.890058"><ele>213.0</ele><time>2026-04-25T14:20:23.086Z</time></trkpt><trkpt lat="44.6935663" lon="7.8901829"><ele>211.66666666666669</ele><time>2026-04-25T14:20:24.086Z</time></trkpt><trkpt lat="44.6934146" lon="7.8903053"><ele>210.33333333333334</ele><time>2026-04-25T14:20:25.086Z</time></trkpt><trkpt lat="44.6932641" lon="7.8904322"><ele>209.0</ele><time>2026-04-25T14:20:26.086Z</time></trkpt><trkpt lat="44.6931111" lon="7.8905554"><ele>209.0</ele><time>2026-04-25T14:20:27.085Z</time></trkpt><trkpt lat="44.6929656" lon="7.8906794"><ele>209.0</ele><time>2026-04-25T14:20:28.086Z</time></trkpt><trkpt lat="44.6928164" lon="7.8908013"><ele>209.0</ele><time>2026-04-25T14:20:29.085Z</time></trkpt><trkpt lat="44.6926687" lon="7.8909209"><ele>208.33333333333334</ele><time>2026-04-25T14:20:30.085Z</time></trkpt><trkpt lat="44.6925225" lon="7.8910453"><ele>207.66666666666669</ele><time>2026-04-25T14:20:31.085Z</time></trkpt><trkpt lat="44.6923787" lon="7.891172"><ele>207.0</ele><time>2026-04-25T14:20:32.086Z</time></trkpt><trkpt lat="44.6922268" lon="7.891294"><ele>207.0</ele><time>2026-04-25T14:20:33.086Z</time></trkpt><trkpt lat="44.6920765" lon="7.8914245"><ele>207.0</ele><time>2026-04-25T14:20:34.085Z</time></trkpt><trkpt lat="44.6919287" lon="7.8915493"><ele>207.0</ele><time>2026-04-25T14:20:35.086Z</time></trkpt><trkpt lat="44.6917779" lon="7.8916811"><ele>206.66666666666669</ele><time>2026-04-25T14:20:36.086Z</time></trkpt><trkpt lat="44.6916251" lon="7.8918143"><ele>206.33333333333334</ele><time>2026-04-25T14:20:37.086Z</time></trkpt><trkpt lat="44.6914737" lon="7.8919349"><ele>206.0</ele><time>2026-04-25T14:20:38.086Z</time></trkpt><trkpt lat="44.6913343" lon="7.8920554"><ele>206.0</ele><time>2026-04-25T14:20:39.086Z</time></trkpt><trkpt lat="44.691204" lon="7.8921687"><ele>206.0</ele><time>2026-04-25T14:20:40.085Z</time></trkpt><trkpt lat="44.6910755" lon="7.8922763"><ele>206.0</ele><time>2026-04-25T14:20:41.086Z</time></trkpt><trkpt lat="44.6909467" lon="7.8923856"><ele>206.25</ele><time>2026-04-25T14:20:42.086Z</time></trkpt><trkpt lat="44.6908189" lon="7.8924957"><ele>206.5</ele><time>2026-04-25T14:20:43.086Z</time></trkpt><trkpt lat="44.6906908" lon="7.8926039"><ele>206.75</ele><time>2026-04-25T14:20:44.085Z</time></trkpt><trkpt lat="44.6905616" lon="7.8927091"><ele>207.0</ele><time>2026-04-25T14:20:45.086Z</time></trkpt><trkpt lat="44.6904337" lon="7.8928199"><ele>207.0</ele><time>2026-04-25T14:20:46.086Z</time></trkpt><trkpt lat="44.6903027" lon="7.8929225"><ele>207.0</ele><time>2026-04-25T14:20:47.086Z</time></trkpt><trkpt lat="44.6901854" lon="7.8930245"><ele>207.0</ele><time>2026-04-25T14:20:48.085Z</time></trkpt><trkpt lat="44.6900492" lon="7.8931405"><ele>207.0</ele><time>2026-04-25T14:20:49.086Z</time></trkpt><trkpt lat="44.6899168" lon="7.8932526"><ele>206.33333333333331</ele><time>2026-04-25T14:20:50.086Z</time></trkpt><trkpt lat="44.6897828" lon="7.8933653"><ele>205.66666666666666</ele><time>2026-04-25T14:20:51.086Z</time></trkpt><trkpt lat="44.6896509" lon="7.8934743"><ele>205.0</ele><time>2026-04-25T14:20:52.086Z</time></trkpt><trkpt lat="44.6895215" lon="7.8935845"><ele>205.0</ele><time>2026-04-25T14:20:53.086Z</time></trkpt><trkpt lat="44.6893926" lon="7.8936869"><ele>205.0</ele><time>2026-04-25T14:20:54.086Z</time></trkpt><trkpt lat="44.6892592" lon="7.893793"><ele>205.0</ele><time>2026-04-25T14:20:55.085Z</time></trkpt><trkpt lat="44.6891286" lon="7.8939022"><ele>205.0</ele><time>2026-04-25T14:20:56.086Z</time></trkpt><trkpt lat="44.6889919" lon="7.8940125"><ele>205.0</ele><time>2026-04-25T14:20:57.085Z</time></trkpt><trkpt lat="44.6888636" lon="7.8941275"><ele>205.0</ele><time>2026-04-25T14:20:58.086Z</time></trkpt><trkpt lat="44.6887316" lon="7.8942353"><ele>205.0</ele><time>2026-04-25T14:20:59.086Z</time></trkpt><trkpt lat="44.6885971" lon="7.8943524"><ele>205.0</ele><time>2026-04-25T14:21:00.086Z</time></trkpt><trkpt lat="44.6884611" lon="7.8944711"><ele>205.0</ele><time>2026-04-25T14:21:01.086Z</time></trkpt><trkpt lat="44.6883286" lon="7.8945888"><ele>204.33333333333331</ele><time>2026-04-25T14:21:02.086Z</time></trkpt><trkpt lat="44.6881973" lon="7.8947051"><ele>203.66666666666669</ele><time>2026-04-25T14:21:03.085Z</time></trkpt><trkpt lat="44.6880634" lon="7.8948118"><ele>203.0</ele><time>2026-04-25T14:21:04.086Z</time></trkpt><trkpt lat="44.6879271" lon="7.8949287"><ele>203.0</ele><time>2026-04-25T14:21:05.085Z</time></trkpt><trkpt lat="44.6878033" lon="7.8950367"><ele>203.0</ele><time>2026-04-25T14:21:06.086Z</time></trkpt><trkpt lat="44.6876866" lon="7.8951307"><ele>203.0</ele><time>2026-04-25T14:21:07.086Z</time></trkpt><trkpt lat="44.6875785" lon="7.895224"><ele>203.0</ele><time>2026-04-25T14:21:08.085Z</time></trkpt><trkpt lat="44.6874862" lon="7.8953092"><ele>202.60000000000002</ele><time>2026-04-25T14:21:09.086Z</time></trkpt><trkpt lat="44.68739" lon="7.8953926"><ele>202.20000000000002</ele><time>2026-04-25T14:21:10.086Z</time></trkpt><trkpt lat="44.6872934" lon="7.8954724"><ele>201.8</ele><time>2026-04-25T14:21:11.086Z</time></trkpt><trkpt lat="44.6872063" lon="7.8955467"><ele>201.4</ele><time>2026-04-25T14:21:12.086Z</time></trkpt><trkpt lat="44.6871229" lon="7.895596"><ele>201.0</ele><time>2026-04-25T14:21:13.085Z</time></trkpt><trkpt lat="44.6870473" lon="7.8956511"><ele>201.0</ele><time>2026-04-25T14:21:14.085Z</time></trkpt><trkpt lat="44.6869725" lon="7.8957061"><ele>201.0</ele><time>2026-04-25T14:21:15.085Z</time></trkpt><trkpt lat="44.6869003" lon="7.8957514"><ele>201.0</ele><time>2026-04-25T14:21:16.085Z</time></trkpt><trkpt lat="44.6868275" lon="7.8957955"><ele>201.0</ele><time>2026-04-25T14:21:17.086Z</time></trkpt><trkpt lat="44.6867585" lon="7.8958502"><ele>201.0</ele><time>2026-04-25T14:21:18.086Z</time></trkpt><trkpt lat="44.6866976" lon="7.8959178"><ele>201.0</ele><time>2026-04-25T14:21:19.086Z</time></trkpt><trkpt lat="44.686628" lon="7.8959916"><ele>201.20000000000002</ele><time>2026-04-25T14:21:20.085Z</time></trkpt><trkpt lat="44.6865399" lon="7.8960593"><ele>201.4</ele><time>2026-04-25T14:21:21.086Z</time></trkpt><trkpt lat="44.6864518" lon="7.8961345"><ele>201.6</ele><time>2026-04-25T14:21:22.086Z</time></trkpt><trkpt lat="44.6863578" lon="7.8962149"><ele>201.8</ele><time>2026-04-25T14:21:23.085Z</time></trkpt><trkpt lat="44.6862615" lon="7.8962958"><ele>202.0</ele><time>2026-04-25T14:21:24.086Z</time></trkpt><trkpt lat="44.6861592" lon="7.8963839"><ele>202.0</ele><time>2026-04-25T14:21:25.086Z</time></trkpt><trkpt lat="44.6860453" lon="7.8964781"><ele>202.0</ele><time>2026-04-25T14:21:26.085Z</time></trkpt><trkpt lat="44.6859167" lon="7.8965804"><ele>202.0</ele><time>2026-04-25T14:21:27.085Z</time></trkpt><trkpt lat="44.6857929" lon="7.8966905"><ele>202.0</ele><time>2026-04-25T14:21:28.086Z</time></trkpt><trkpt lat="44.6856677" lon="7.8967933"><ele>202.25</ele><time>2026-04-25T14:21:29.086Z</time></trkpt><trkpt lat="44.6855416" lon="7.8969005"><ele>202.5</ele><time>2026-04-25T14:21:30.085Z</time></trkpt><trkpt lat="44.6854257" lon="7.8969956"><ele>202.75</ele><time>2026-04-25T14:21:31.086Z</time></trkpt><trkpt lat="44.6853167" lon="7.897088"><ele>203.0</ele><time>2026-04-25T14:21:32.086Z</time></trkpt><trkpt lat="44.6852143" lon="7.8971895"><ele>202.5</ele><time>2026-04-25T14:21:33.085Z</time></trkpt><trkpt lat="44.685115" lon="7.8972875"><ele>202.0</ele><time>2026-04-25T14:21:34.085Z</time></trkpt><trkpt lat="44.6850189" lon="7.8974047"><ele>201.5</ele><time>2026-04-25T14:21:35.086Z</time></trkpt><trkpt lat="44.6849147" lon="7.8975418"><ele>201.0</ele><time>2026-04-25T14:21:36.086Z</time></trkpt><trkpt lat="44.6848165" lon="7.897698"><ele>200.33333333333331</ele><time>2026-04-25T14:21:37.086Z</time></trkpt><trkpt lat="44.6847147" lon="7.8978814"><ele>199.66666666666666</ele><time>2026-04-25T14:21:38.086Z</time></trkpt><trkpt lat="44.6846296" lon="7.8980652"><ele>199.0</ele><time>2026-04-25T14:21:39.086Z</time></trkpt><trkpt lat="44.6845431" lon="7.8982599"><ele>198.66666666666666</ele><time>2026-04-25T14:21:40.086Z</time></trkpt><trkpt lat="44.684462" lon="7.89848"><ele>198.33333333333331</ele><time>2026-04-25T14:21:41.085Z</time></trkpt><trkpt lat="44.6843787" lon="7.8987141"><ele>198.0</ele><time>2026-04-25T14:21:42.086Z</time></trkpt><trkpt lat="44.6843002" lon="7.8989733"><ele>198.0</ele><time>2026-04-25T14:21:43.086Z</time></trkpt><trkpt lat="44.684229" lon="7.8992257"><ele>198.0</ele><time>2026-04-25T14:21:44.086Z</time></trkpt><trkpt lat="44.6841581" lon="7.8994727"><ele>198.0</ele><time>2026-04-25T14:21:45.086Z</time></trkpt><trkpt lat="44.6841133" lon="7.8997485"><ele>197.33333333333331</ele><time>2026-04-25T14:21:46.086Z</time></trkpt><trkpt lat="44.6840607" lon="7.9000312"><ele>196.66666666666666</ele><time>2026-04-25T14:21:47.086Z</time></trkpt><trkpt lat="44.6840131" lon="7.9003259"><ele>196.0</ele><time>2026-04-25T14:21:48.086Z</time></trkpt><trkpt lat="44.6839762" lon="7.9006109"><ele>195.66666666666666</ele><time>2026-04-25T14:21:49.086Z</time></trkpt><trkpt lat="44.6839431" lon="7.9008971"><ele>195.33333333333331</ele><time>2026-04-25T14:21:50.086Z</time></trkpt><trkpt lat="44.6839134" lon="7.9011924"><ele>195.0</ele><time>2026-04-25T14:21:51.086Z</time></trkpt><trkpt lat="44.6838961" lon="7.9014876"><ele>194.66666666666669</ele><time>2026-04-25T14:21:52.085Z</time></trkpt><trkpt lat="44.6838709" lon="7.9017829"><ele>194.33333333333334</ele><time>2026-04-25T14:21:53.085Z</time></trkpt><trkpt lat="44.6838514" lon="7.9020748"><ele>194.0</ele><time>2026-04-25T14:21:54.086Z</time></trkpt><trkpt lat="44.6838309" lon="7.9023737"><ele>194.33333333333334</ele><time>2026-04-25T14:21:55.086Z</time></trkpt><trkpt lat="44.6838117" lon="7.9026724"><ele>194.66666666666669</ele><time>2026-04-25T14:21:56.086Z</time></trkpt><trkpt lat="44.6837894" lon="7.9029728"><ele>195.0</ele><time>2026-04-25T14:21:57.086Z</time></trkpt><trkpt lat="44.6837651" lon="7.9032862"><ele>195.0</ele><time>2026-04-25T14:21:58.085Z</time></trkpt><trkpt lat="44.6837455" lon="7.9035998"><ele>195.0</ele><time>2026-04-25T14:21:59.086Z</time></trkpt><trkpt lat="44.6837205" lon="7.9039082"><ele>195.0</ele><time>2026-04-25T14:22:00.085Z</time></trkpt><trkpt lat="44.6836963" lon="7.9042164"><ele>194.66666666666669</ele><time>2026-04-25T14:22:01.085Z</time></trkpt><trkpt lat="44.6836652" lon="7.9045178"><ele>194.33333333333334</ele><time>2026-04-25T14:22:02.085Z</time></trkpt><trkpt lat="44.6836419" lon="7.9048063"><ele>194.0</ele><time>2026-04-25T14:22:03.085Z</time></trkpt><trkpt lat="44.6836228" lon="7.9050835"><ele>194.0</ele><time>2026-04-25T14:22:04.086Z</time></trkpt><trkpt lat="44.683599" lon="7.9053356"><ele>194.0</ele><time>2026-04-25T14:22:05.086Z</time></trkpt><trkpt lat="44.6835856" lon="7.905582"><ele>194.0</ele><time>2026-04-25T14:22:06.085Z</time></trkpt><trkpt lat="44.6835665" lon="7.9058117"><ele>193.33333333333334</ele><time>2026-04-25T14:22:07.086Z</time></trkpt><trkpt lat="44.6835555" lon="7.9060377"><ele>192.66666666666669</ele><time>2026-04-25T14:22:08.085Z</time></trkpt><trkpt lat="44.6835557" lon="7.9062754"><ele>192.0</ele><time>2026-04-25T14:22:09.086Z</time></trkpt><trkpt lat="44.6835701" lon="7.9065102"><ele>192.33333333333331</ele><time>2026-04-25T14:22:10.086Z</time></trkpt><trkpt lat="44.6836097" lon="7.906765"><ele>192.66666666666666</ele><time>2026-04-25T14:22:11.085Z</time></trkpt><trkpt lat="44.6836682" lon="7.907012"><ele>193.0</ele><time>2026-04-25T14:22:12.085Z</time></trkpt><trkpt lat="44.6837592" lon="7.9072704"><ele>193.0</ele><time>2026-04-25T14:22:13.086Z</time></trkpt><trkpt lat="44.6838568" lon="7.9075198"><ele>193.0</ele><time>2026-04-25T14:22:14.085Z</time></trkpt><trkpt lat="44.6839633" lon="7.9077715"><ele>193.0</ele><time>2026-04-25T14:22:15.086Z</time></trkpt><trkpt lat="44.684072" lon="7.9080265"><ele>192.66666666666666</ele><time>2026-04-25T14:22:16.086Z</time></trkpt><trkpt lat="44.6841817" lon="7.908296"><ele>192.33333333333331</ele><time>2026-04-25T14:22:17.086Z</time></trkpt><trkpt lat="44.6842981" lon="7.9085687"><ele>192.0</ele><time>2026-04-25T14:22:18.085Z</time></trkpt><trkpt lat="44.6844147" lon="7.9088466"><ele>192.0</ele><time>2026-04-25T14:22:19.085Z</time></trkpt><trkpt lat="44.6845275" lon="7.9091309"><ele>192.0</ele><time>2026-04-25T14:22:20.086Z</time></trkpt><trkpt lat="44.6846393" lon="7.9094087"><ele>193.0</ele><time>2026-04-25T14:22:21.086Z</time></trkpt><trkpt lat="44.6847531" lon="7.909697"><ele>194.0</ele><time>2026-04-25T14:22:22.086Z</time></trkpt><trkpt lat="44.6848694" lon="7.9099774"><ele>194.33333333333334</ele><time>2026-04-25T14:22:23.086Z</time></trkpt><trkpt lat="44.6849788" lon="7.9102506"><ele>194.66666666666669</ele><time>2026-04-25T14:22:24.085Z</time></trkpt><trkpt lat="44.6850814" lon="7.9105141"><ele>195.0</ele><time>2026-04-25T14:22:25.085Z</time></trkpt><trkpt lat="44.6851883" lon="7.9107658"><ele>194.0</ele><time>2026-04-25T14:22:26.086Z</time></trkpt><trkpt lat="44.6852809" lon="7.9109909"><ele>193.0</ele><time>2026-04-25T14:22:27.086Z</time></trkpt><trkpt lat="44.6853599" lon="7.91121"><ele>192.0</ele><time>2026-04-25T14:22:28.086Z</time></trkpt><trkpt lat="44.68544" lon="7.9114006"><ele>192.0</ele><time>2026-04-25T14:22:29.086Z</time></trkpt><trkpt lat="44.6855102" lon="7.9115787"><ele>192.0</ele><time>2026-04-25T14:22:30.085Z</time></trkpt><trkpt lat="44.6855651" lon="7.9117381"><ele>192.0</ele><time>2026-04-25T14:22:31.086Z</time></trkpt><trkpt lat="44.6855954" lon="7.9118998"><ele>192.0</ele><time>2026-04-25T14:22:32.086Z</time></trkpt><trkpt lat="44.6855933" lon="7.912067"><ele>191.5</ele><time>2026-04-25T14:22:33.086Z</time></trkpt><trkpt lat="44.6855604" lon="7.9122252"><ele>191.0</ele><time>2026-04-25T14:22:34.085Z</time></trkpt><trkpt lat="44.6854962" lon="7.9123624"><ele>190.5</ele><time>2026-04-25T14:22:35.086Z</time></trkpt><trkpt lat="44.685401" lon="7.9124864"><ele>190.0</ele><time>2026-04-25T14:22:36.086Z</time></trkpt><trkpt lat="44.6852814" lon="7.9125958"><ele>188.66666666666669</ele><time>2026-04-25T14:22:37.085Z</time></trkpt><trkpt lat="44.6851467" lon="7.9126961"><ele>187.33333333333334</ele><time>2026-04-25T14:22:38.086Z</time></trkpt><trkpt lat="44.6850016" lon="7.9128065"><ele>186.0</ele><time>2026-04-25T14:22:39.085Z</time></trkpt><trkpt lat="44.6848506" lon="7.9129181"><ele>186.0</ele><time>2026-04-25T14:22:40.085Z</time></trkpt><trkpt lat="44.6847035" lon="7.9130402"><ele>186.0</ele><time>2026-04-25T14:22:41.085Z</time></trkpt><trkpt lat="44.6845421" lon="7.9131649"><ele>186.0</ele><time>2026-04-25T14:22:42.086Z</time></trkpt><trkpt lat="44.6843815" lon="7.9132922"><ele>185.66666666666666</ele><time>2026-04-25T14:22:43.085Z</time></trkpt><trkpt lat="44.6842151" lon="7.9134156"><ele>185.33333333333331</ele><time>2026-04-25T14:22:44.086Z</time></trkpt><trkpt lat="44.6840485" lon="7.9135481"><ele>185.0</ele><time>2026-04-25T14:22:45.086Z</time></trkpt><trkpt lat="44.6838802" lon="7.91368"><ele>185.0</ele><time>2026-04-25T14:22:46.086Z</time></trkpt><trkpt lat="44.6837058" lon="7.9138087"><ele>185.0</ele><time>2026-04-25T14:22:47.086Z</time></trkpt><trkpt lat="44.6835361" lon="7.9139306"><ele>185.0</ele><time>2026-04-25T14:22:48.086Z</time></trkpt><trkpt lat="44.6833577" lon="7.9140606"><ele>185.0</ele><time>2026-04-25T14:22:49.085Z</time></trkpt><trkpt lat="44.6831811" lon="7.9141985"><ele>185.0</ele><time>2026-04-25T14:22:50.086Z</time></trkpt><trkpt lat="44.6830127" lon="7.9143598"><ele>185.0</ele><time>2026-04-25T14:22:51.086Z</time></trkpt><trkpt lat="44.6828514" lon="7.9145288"><ele>185.0</ele><time>2026-04-25T14:22:52.086Z</time></trkpt><trkpt lat="44.682694" lon="7.9147077"><ele>185.0</ele><time>2026-04-25T14:22:53.085Z</time></trkpt><trkpt lat="44.6825468" lon="7.9148939"><ele>185.0</ele><time>2026-04-25T14:22:54.086Z</time></trkpt><trkpt lat="44.6823952" lon="7.9150674"><ele>184.66666666666666</ele><time>2026-04-25T14:22:55.086Z</time></trkpt><trkpt lat="44.6822424" lon="7.915249"><ele>184.33333333333334</ele><time>2026-04-25T14:22:56.085Z</time></trkpt><trkpt lat="44.6820921" lon="7.9154197"><ele>184.0</ele><time>2026-04-25T14:22:57.086Z</time></trkpt><trkpt lat="44.6819492" lon="7.9155914"><ele>184.0</ele><time>2026-04-25T14:22:58.085Z</time></trkpt><trkpt lat="44.6818057" lon="7.9157667"><ele>184.0</ele><time>2026-04-25T14:22:59.086Z</time></trkpt><trkpt lat="44.6816618" lon="7.9159346"><ele>184.0</ele><time>2026-04-25T14:23:00.086Z</time></trkpt><trkpt lat="44.6815184" lon="7.9161016"><ele>184.0</ele><time>2026-04-25T14:23:01.086Z</time></trkpt><trkpt lat="44.6813746" lon="7.9162741"><ele>184.0</ele><time>2026-04-25T14:23:02.086Z</time></trkpt><trkpt lat="44.6812359" lon="7.9164401"><ele>184.0</ele><time>2026-04-25T14:23:03.086Z</time></trkpt><trkpt lat="44.6811007" lon="7.9166094"><ele>184.0</ele><time>2026-04-25T14:23:04.086Z</time></trkpt><trkpt lat="44.6809628" lon="7.9167812"><ele>184.0</ele><time>2026-04-25T14:23:05.086Z</time></trkpt><trkpt lat="44.680825" lon="7.9169589"><ele>184.0</ele><time>2026-04-25T14:23:06.085Z</time></trkpt><trkpt lat="44.6806841" lon="7.9171338"><ele>184.0</ele><time>2026-04-25T14:23:07.085Z</time></trkpt><trkpt lat="44.6805448" lon="7.9173045"><ele>184.0</ele><time>2026-04-25T14:23:08.086Z</time></trkpt><trkpt lat="44.6804074" lon="7.9174639"><ele>184.0</ele><time>2026-04-25T14:23:09.086Z</time></trkpt><trkpt lat="44.6802817" lon="7.9176174"><ele>185.0</ele><time>2026-04-25T14:23:10.086Z</time></trkpt><trkpt lat="44.6801574" lon="7.9177627"><ele>186.0</ele><time>2026-04-25T14:23:11.086Z</time></trkpt><trkpt lat="44.6800362" lon="7.9179038"><ele>187.0</ele><time>2026-04-25T14:23:12.086Z</time></trkpt><trkpt lat="44.6799186" lon="7.918044"><ele>187.0</ele><time>2026-04-25T14:23:13.086Z</time></trkpt><trkpt lat="44.6797902" lon="7.9181692"><ele>187.0</ele><time>2026-04-25T14:23:14.086Z</time></trkpt><trkpt lat="44.6796639" lon="7.9182732"><ele>187.0</ele><time>2026-04-25T14:23:15.085Z</time></trkpt><trkpt lat="44.6795365" lon="7.918362"><ele>187.0</ele><time>2026-04-25T14:23:16.086Z</time></trkpt><trkpt lat="44.6793987" lon="7.9183951"><ele>187.5</ele><time>2026-04-25T14:23:17.086Z</time></trkpt><trkpt lat="44.6792546" lon="7.9184273"><ele>188.0</ele><time>2026-04-25T14:23:18.086Z</time></trkpt><trkpt lat="44.679112" lon="7.9184551"><ele>188.5</ele><time>2026-04-25T14:23:19.085Z</time></trkpt><trkpt lat="44.6789842" lon="7.9184721"><ele>189.0</ele><time>2026-04-25T14:23:20.086Z</time></trkpt><trkpt lat="44.6788716" lon="7.9184696"><ele>189.0</ele><time>2026-04-25T14:23:21.086Z</time></trkpt><trkpt lat="44.6787528" lon="7.9184946"><ele>189.0</ele><time>2026-04-25T14:23:22.085Z</time></trkpt><trkpt lat="44.6786236" lon="7.918511"><ele>189.0</ele><time>2026-04-25T14:23:23.086Z</time></trkpt><trkpt lat="44.6784883" lon="7.9185286"><ele>189.0</ele><time>2026-04-25T14:23:24.085Z</time></trkpt><trkpt lat="44.6783471" lon="7.9185429"><ele>190.66666666666669</ele><time>2026-04-25T14:23:25.086Z</time></trkpt><trkpt lat="44.6782007" lon="7.9185588"><ele>192.33333333333334</ele><time>2026-04-25T14:23:26.086Z</time></trkpt><trkpt lat="44.6780439" lon="7.9185787"><ele>194.0</ele><time>2026-04-25T14:23:27.086Z</time></trkpt><trkpt lat="44.6778826" lon="7.9186011"><ele>196.0</ele><time>2026-04-25T14:23:28.086Z</time></trkpt><trkpt lat="44.6777292" lon="7.9186204"><ele>198.0</ele><time>2026-04-25T14:23:29.086Z</time></trkpt><trkpt lat="44.6775817" lon="7.9186412"><ele>200.0</ele><time>2026-04-25T14:23:30.085Z</time></trkpt><trkpt lat="44.6774416" lon="7.9186617"><ele>202.0</ele><time>2026-04-25T14:23:31.085Z</time></trkpt><trkpt lat="44.6773007" lon="7.9186766"><ele>202.0</ele><time>2026-04-25T14:23:32.086Z</time></trkpt><trkpt lat="44.6771682" lon="7.9186681"><ele>202.0</ele><time>2026-04-25T14:23:33.086Z</time></trkpt><trkpt lat="44.6770403" lon="7.9186302"><ele>202.0</ele><time>2026-04-25T14:23:34.085Z</time></trkpt><trkpt lat="44.6769225" lon="7.9185436"><ele>202.0</ele><time>2026-04-25T14:23:35.086Z</time></trkpt><trkpt lat="44.676799" lon="7.9184276"><ele>204.33333333333331</ele><time>2026-04-25T14:23:36.086Z</time></trkpt><trkpt lat="44.6766773" lon="7.9182975"><ele>206.66666666666669</ele><time>2026-04-25T14:23:37.085Z</time></trkpt><trkpt lat="44.6765449" lon="7.9181579"><ele>209.0</ele><time>2026-04-25T14:23:38.085Z</time></trkpt><trkpt lat="44.6764185" lon="7.9180196"><ele>209.0</ele><time>2026-04-25T14:23:39.086Z</time></trkpt><trkpt lat="44.6762843" lon="7.9178686"><ele>209.0</ele><time>2026-04-25T14:23:40.086Z</time></trkpt><trkpt lat="44.6761508" lon="7.9177139"><ele>209.0</ele><time>2026-04-25T14:23:41.086Z</time></trkpt><trkpt lat="44.6760141" lon="7.9175617"><ele>211.66666666666669</ele><time>2026-04-25T14:23:42.086Z</time></trkpt><trkpt lat="44.6758703" lon="7.9174029"><ele>214.33333333333331</ele><time>2026-04-25T14:23:43.085Z</time></trkpt><trkpt lat="44.6757229" lon="7.917228"><ele>217.0</ele><time>2026-04-25T14:23:44.086Z</time></trkpt><trkpt lat="44.6755781" lon="7.9170628"><ele>217.0</ele><time>2026-04-25T14:23:45.086Z</time></trkpt><trkpt lat="44.6754369" lon="7.9168937"><ele>217.0</ele><time>2026-04-25T14:23:46.086Z</time></trkpt><trkpt lat="44.675282" lon="7.9167222"><ele>217.0</ele><time>2026-04-25T14:23:47.086Z</time></trkpt><trkpt lat="44.6751295" lon="7.9165561"><ele>219.0</ele><time>2026-04-25T14:23:48.085Z</time></trkpt><trkpt lat="44.6749778" lon="7.9163933"><ele>221.0</ele><time>2026-04-25T14:23:49.086Z</time></trkpt><trkpt lat="44.6748217" lon="7.9162299"><ele>223.0</ele><time>2026-04-25T14:23:50.086Z</time></trkpt><trkpt lat="44.6746773" lon="7.9160734"><ele>223.0</ele><time>2026-04-25T14:23:51.086Z</time></trkpt><trkpt lat="44.6745428" lon="7.9159093"><ele>223.0</ele><time>2026-04-25T14:23:52.086Z</time></trkpt><trkpt lat="44.6744298" lon="7.9157231"><ele>223.0</ele><time>2026-04-25T14:23:53.086Z</time></trkpt><trkpt lat="44.6743349" lon="7.9155151"><ele>225.0</ele><time>2026-04-25T14:23:54.086Z</time></trkpt><trkpt lat="44.6742536" lon="7.9152866"><ele>227.0</ele><time>2026-04-25T14:23:55.086Z</time></trkpt><trkpt lat="44.6741773" lon="7.9150455"><ele>229.0</ele><time>2026-04-25T14:23:56.085Z</time></trkpt><trkpt lat="44.6741071" lon="7.9148024"><ele>229.0</ele><time>2026-04-25T14:23:57.086Z</time></trkpt><trkpt lat="44.6740345" lon="7.914572"><ele>229.0</ele><time>2026-04-25T14:23:58.086Z</time></trkpt><trkpt lat="44.6739654" lon="7.9143555"><ele>229.0</ele><time>2026-04-25T14:23:59.086Z</time></trkpt><trkpt lat="44.6738908" lon="7.9141497"><ele>229.33333333333331</ele><time>2026-04-25T14:24:00.086Z</time></trkpt><trkpt lat="44.6737774" lon="7.9139574"><ele>229.66666666666669</ele><time>2026-04-25T14:24:01.085Z</time></trkpt><trkpt lat="44.6736703" lon="7.9137568"><ele>230.0</ele><time>2026-04-25T14:24:02.086Z</time></trkpt><trkpt lat="44.6735533" lon="7.9135809"><ele>231.33333333333334</ele><time>2026-04-25T14:24:03.085Z</time></trkpt><trkpt lat="44.6734361" lon="7.9134112"><ele>232.66666666666669</ele><time>2026-04-25T14:24:04.086Z</time></trkpt><trkpt lat="44.6733166" lon="7.9132312"><ele>234.0</ele><time>2026-04-25T14:24:05.086Z</time></trkpt><trkpt lat="44.6732099" lon="7.9130221"><ele>234.0</ele><time>2026-04-25T14:24:06.086Z</time></trkpt><trkpt lat="44.6731054" lon="7.9127947"><ele>234.0</ele><time>2026-04-25T14:24:07.085Z</time></trkpt><trkpt lat="44.6730057" lon="7.9125683"><ele>234.0</ele><time>2026-04-25T14:24:08.086Z</time></trkpt><trkpt lat="44.6729235" lon="7.9123444"><ele>233.33333333333331</ele><time>2026-04-25T14:24:09.086Z</time></trkpt><trkpt lat="44.6728385" lon="7.9121423"><ele>232.66666666666666</ele><time>2026-04-25T14:24:10.086Z</time></trkpt><trkpt lat="44.6727454" lon="7.9119572"><ele>232.0</ele><time>2026-04-25T14:24:11.086Z</time></trkpt><trkpt lat="44.6726297" lon="7.9117767"><ele>234.33333333333331</ele><time>2026-04-25T14:24:12.086Z</time></trkpt><trkpt lat="44.6725084" lon="7.9116118"><ele>236.66666666666669</ele><time>2026-04-25T14:24:13.086Z</time></trkpt><trkpt lat="44.6723904" lon="7.9114458"><ele>239.0</ele><time>2026-04-25T14:24:14.086Z</time></trkpt><trkpt lat="44.6722805" lon="7.911283"><ele>239.0</ele><time>2026-04-25T14:24:15.085Z</time></trkpt><trkpt lat="44.6721804" lon="7.9111206"><ele>239.0</ele><time>2026-04-25T14:24:16.085Z</time></trkpt><trkpt lat="44.6720741" lon="7.910988"><ele>239.0</ele><time>2026-04-25T14:24:17.086Z</time></trkpt><trkpt lat="44.671955" lon="7.9108932"><ele>239.0</ele><time>2026-04-25T14:24:18.086Z</time></trkpt><trkpt lat="44.6718115" lon="7.9108315"><ele>239.66666666666669</ele><time>2026-04-25T14:24:19.086Z</time></trkpt><trkpt lat="44.6716526" lon="7.9108139"><ele>240.33333333333331</ele><time>2026-04-25T14:24:20.086Z</time></trkpt><trkpt lat="44.6714831" lon="7.9108104"><ele>241.0</ele><time>2026-04-25T14:24:21.086Z</time></trkpt><trkpt lat="44.6713011" lon="7.9108067"><ele>241.0</ele><time>2026-04-25T14:24:22.085Z</time></trkpt><trkpt lat="44.6711089" lon="7.9107985"><ele>241.0</ele><time>2026-04-25T14:24:23.085Z</time></trkpt><trkpt lat="44.6709204" lon="7.9107949"><ele>241.0</ele><time>2026-04-25T14:24:24.085Z</time></trkpt><trkpt lat="44.6707311" lon="7.9107921"><ele>241.66666666666666</ele><time>2026-04-25T14:24:25.086Z</time></trkpt><trkpt lat="44.6705452" lon="7.9107912"><ele>242.33333333333331</ele><time>2026-04-25T14:24:26.086Z</time></trkpt><trkpt lat="44.670354" lon="7.9107788"><ele>243.0</ele><time>2026-04-25T14:24:27.086Z</time></trkpt><trkpt lat="44.6701679" lon="7.9107762"><ele>245.0</ele><time>2026-04-25T14:24:28.086Z</time></trkpt><trkpt lat="44.6699806" lon="7.9107578"><ele>247.0</ele><time>2026-04-25T14:24:29.086Z</time></trkpt><trkpt lat="44.6697961" lon="7.9107073"><ele>249.0</ele><time>2026-04-25T14:24:30.085Z</time></trkpt><trkpt lat="44.6696206" lon="7.9106267"><ele>250.0</ele><time>2026-04-25T14:24:31.086Z</time></trkpt><trkpt lat="44.6694379" lon="7.9105295"><ele>251.0</ele><time>2026-04-25T14:24:32.086Z</time></trkpt><trkpt lat="44.6692605" lon="7.9104366"><ele>252.0</ele><time>2026-04-25T14:24:33.086Z</time></trkpt><trkpt lat="44.6690874" lon="7.9103494"><ele>252.0</ele><time>2026-04-25T14:24:34.086Z</time></trkpt><trkpt lat="44.6689183" lon="7.910248"><ele>252.0</ele><time>2026-04-25T14:24:35.086Z</time></trkpt><trkpt lat="44.6687428" lon="7.9101617"><ele>252.0</ele><time>2026-04-25T14:24:36.085Z</time></trkpt><trkpt lat="44.6685676" lon="7.9100807"><ele>254.33333333333331</ele><time>2026-04-25T14:24:37.086Z</time></trkpt><trkpt lat="44.668395" lon="7.9099996"><ele>256.66666666666663</ele><time>2026-04-25T14:24:38.086Z</time></trkpt><trkpt lat="44.6682173" lon="7.9099033"><ele>259.0</ele><time>2026-04-25T14:24:39.086Z</time></trkpt><trkpt lat="44.6680412" lon="7.9098081"><ele>259.0</ele><time>2026-04-25T14:24:40.086Z</time></trkpt><trkpt lat="44.6678753" lon="7.9097209"><ele>259.0</ele><time>2026-04-25T14:24:41.086Z</time></trkpt><trkpt lat="44.6677191" lon="7.9096432"><ele>259.0</ele><time>2026-04-25T14:24:42.085Z</time></trkpt><trkpt lat="44.6675761" lon="7.9095576"><ele>259.75</ele><time>2026-04-25T14:24:43.086Z</time></trkpt><trkpt lat="44.667449" lon="7.9094883"><ele>260.5</ele><time>2026-04-25T14:24:44.086Z</time></trkpt><trkpt lat="44.6673409" lon="7.9094764"><ele>261.25</ele><time>2026-04-25T14:24:45.086Z</time></trkpt><trkpt lat="44.6672131" lon="7.9095006"><ele>262.0</ele><time>2026-04-25T14:24:46.086Z</time></trkpt><trkpt lat="44.667085" lon="7.9095685"><ele>262.0</ele><time>2026-04-25T14:24:47.086Z</time></trkpt><trkpt lat="44.6669614" lon="7.9096631"><ele>262.0</ele><time>2026-04-25T14:24:48.086Z</time></trkpt><trkpt lat="44.6668412" lon="7.9098063"><ele>262.0</ele><time>2026-04-25T14:24:49.086Z</time></trkpt><trkpt lat="44.6667201" lon="7.9099449"><ele>263.3333333333333</ele><time>2026-04-25T14:24:50.086Z</time></trkpt><trkpt lat="44.6665773" lon="7.9100903"><ele>264.6666666666667</ele><time>2026-04-25T14:24:51.086Z</time></trkpt><trkpt lat="44.6664565" lon="7.9102258"><ele>266.0</ele><time>2026-04-25T14:24:52.085Z</time></trkpt><trkpt lat="44.6663356" lon="7.9103795"><ele>266.0</ele><time>2026-04-25T14:24:53.086Z</time></trkpt><trkpt lat="44.6662239" lon="7.9105276"><ele>266.0</ele><time>2026-04-25T14:24:54.085Z</time></trkpt><trkpt lat="44.6661127" lon="7.9106773"><ele>266.0</ele><time>2026-04-25T14:24:55.085Z</time></trkpt><trkpt lat="44.666016" lon="7.9108201"><ele>266.0</ele><time>2026-04-25T14:24:56.086Z</time></trkpt><trkpt lat="44.6659643" lon="7.9109852"><ele>269.5</ele><time>2026-04-25T14:24:57.085Z</time></trkpt><trkpt lat="44.6658987" lon="7.9111532"><ele>273.0</ele><time>2026-04-25T14:24:58.086Z</time></trkpt><trkpt lat="44.6658393" lon="7.9113358"><ele>276.5</ele><time>2026-04-25T14:24:59.086Z</time></trkpt><trkpt lat="44.6657867" lon="7.9114814"><ele>280.0</ele><time>2026-04-25T14:25:00.086Z</time></trkpt><trkpt lat="44.665726" lon="7.9116655"><ele>281.25</ele><time>2026-04-25T14:25:01.085Z</time></trkpt><trkpt lat="44.665661" lon="7.9118558"><ele>282.5</ele><time>2026-04-25T14:25:02.086Z</time></trkpt><trkpt lat="44.6656092" lon="7.9120311"><ele>283.75</ele><time>2026-04-25T14:25:03.086Z</time></trkpt><trkpt lat="44.6655493" lon="7.9122134"><ele>285.0</ele><time>2026-04-25T14:25:04.086Z</time></trkpt><trkpt lat="44.665488" lon="7.9123873"><ele>285.0</ele><time>2026-04-25T14:25:05.086Z</time></trkpt><trkpt lat="44.6654256" lon="7.9125552"><ele>285.0</ele><time>2026-04-25T14:25:06.086Z</time></trkpt><trkpt lat="44.6653615" lon="7.9127084"><ele>285.0</ele><time>2026-04-25T14:25:07.086Z</time></trkpt><trkpt lat="44.6652774" lon="7.9128394"><ele>285.0</ele><time>2026-04-25T14:25:08.085Z</time></trkpt><trkpt lat="44.6651849" lon="7.912952"><ele>287.25</ele><time>2026-04-25T14:25:09.085Z</time></trkpt><trkpt lat="44.6650556" lon="7.9130638"><ele>289.5</ele><time>2026-04-25T14:25:10.085Z</time></trkpt><trkpt lat="44.6649629" lon="7.9131605"><ele>291.75</ele><time>2026-04-25T14:25:11.086Z</time></trkpt><trkpt lat="44.6648674" lon="7.9132363"><ele>294.0</ele><time>2026-04-25T14:25:12.086Z</time></trkpt><trkpt lat="44.664768" lon="7.9132767"><ele>294.0</ele><time>2026-04-25T14:25:13.086Z</time></trkpt><trkpt lat="44.6646548" lon="7.9133021"><ele>294.0</ele><time>2026-04-25T14:25:14.085Z</time></trkpt><trkpt lat="44.6645415" lon="7.9133362"><ele>294.0</ele><time>2026-04-25T14:25:15.086Z</time></trkpt><trkpt lat="44.6644426" lon="7.913432"><ele>294.0</ele><time>2026-04-25T14:25:16.086Z</time></trkpt><trkpt lat="44.6643381" lon="7.9135487"><ele>296.25</ele><time>2026-04-25T14:25:17.085Z</time></trkpt><trkpt lat="44.6642497" lon="7.9136931"><ele>298.5</ele><time>2026-04-25T14:25:18.086Z</time></trkpt><trkpt lat="44.6641684" lon="7.9138567"><ele>300.75</ele><time>2026-04-25T14:25:19.086Z</time></trkpt><trkpt lat="44.6640957" lon="7.9140192"><ele>303.0</ele><time>2026-04-25T14:25:20.086Z</time></trkpt><trkpt lat="44.6640183" lon="7.9141829"><ele>304.75</ele><time>2026-04-25T14:25:21.086Z</time></trkpt><trkpt lat="44.6639436" lon="7.9143462"><ele>306.5</ele><time>2026-04-25T14:25:22.086Z</time></trkpt><trkpt lat="44.6638456" lon="7.9144949"><ele>308.25</ele><time>2026-04-25T14:25:23.086Z</time></trkpt><trkpt lat="44.6637338" lon="7.9146487"><ele>310.0</ele><time>2026-04-25T14:25:24.086Z</time></trkpt><trkpt lat="44.6636237" lon="7.9147865"><ele>309.3333333333333</ele><time>2026-04-25T14:25:25.085Z</time></trkpt><trkpt lat="44.6635099" lon="7.9149291"><ele>308.6666666666667</ele><time>2026-04-25T14:25:26.085Z</time></trkpt><trkpt lat="44.6633917" lon="7.9150667"><ele>308.0</ele><time>2026-04-25T14:25:27.086Z</time></trkpt><trkpt lat="44.6632763" lon="7.9152047"><ele>311.33333333333337</ele><time>2026-04-25T14:25:28.085Z</time></trkpt><trkpt lat="44.6631576" lon="7.9153453"><ele>314.6666666666667</ele><time>2026-04-25T14:25:29.086Z</time></trkpt><trkpt lat="44.663031" lon="7.9155036"><ele>318.0</ele><time>2026-04-25T14:25:30.085Z</time></trkpt><trkpt lat="44.6629126" lon="7.9156506"><ele>318.0</ele><time>2026-04-25T14:25:31.086Z</time></trkpt><trkpt lat="44.662812" lon="7.9158179"><ele>318.0</ele><time>2026-04-25T14:25:32.085Z</time></trkpt><trkpt lat="44.6627177" lon="7.9159802"><ele>318.0</ele><time>2026-04-25T14:25:33.085Z</time></trkpt><trkpt lat="44.6626385" lon="7.9161703"><ele>319.3333333333333</ele><time>2026-04-25T14:25:34.085Z</time></trkpt><trkpt lat="44.6625743" lon="7.9163692"><ele>320.66666666666663</ele><time>2026-04-25T14:25:35.086Z</time></trkpt><trkpt lat="44.6625196" lon="7.9165744"><ele>322.0</ele><time>2026-04-25T14:25:36.086Z</time></trkpt><trkpt lat="44.6624661" lon="7.9167681"><ele>323.75</ele><time>2026-04-25T14:25:37.086Z</time></trkpt><trkpt lat="44.6624193" lon="7.9169631"><ele>325.5</ele><time>2026-04-25T14:25:38.085Z</time></trkpt><trkpt lat="44.66238" lon="7.9171398"><ele>327.25</ele><time>2026-04-25T14:25:39.086Z</time></trkpt><trkpt lat="44.6623474" lon="7.9173126"><ele>329.0</ele><time>2026-04-25T14:25:40.086Z</time></trkpt><trkpt lat="44.6623169" lon="7.9174705"><ele>330.25</ele><time>2026-04-25T14:25:41.085Z</time></trkpt><trkpt lat="44.6622524" lon="7.9176082"><ele>331.5</ele><time>2026-04-25T14:25:42.085Z</time></trkpt><trkpt lat="44.6621604" lon="7.9177612"><ele>332.75</ele><time>2026-04-25T14:25:43.086Z</time></trkpt><trkpt lat="44.662078" lon="7.9179305"><ele>334.0</ele><time>2026-04-25T14:25:44.086Z</time></trkpt><trkpt lat="44.6619931" lon="7.9181072"><ele>332.3333333333333</ele><time>2026-04-25T14:25:45.086Z</time></trkpt><trkpt lat="44.6619031" lon="7.9182896"><ele>330.6666666666667</ele><time>2026-04-25T14:25:46.086Z</time></trkpt><trkpt lat="44.6618172" lon="7.9184627"><ele>329.0</ele><time>2026-04-25T14:25:47.085Z</time></trkpt><trkpt lat="44.661721" lon="7.9186135"><ele>329.0</ele><time>2026-04-25T14:25:48.086Z</time></trkpt><trkpt lat="44.661617" lon="7.9187848"><ele>329.0</ele><time>2026-04-25T14:25:49.086Z</time></trkpt><trkpt lat="44.6614979" lon="7.918923"><ele>329.0</ele><time>2026-04-25T14:25:50.086Z</time></trkpt><trkpt lat="44.6614096" lon="7.9190652"><ele>329.0</ele><time>2026-04-25T14:25:51.086Z</time></trkpt><trkpt lat="44.6613123" lon="7.9191785"><ele>329.0</ele><time>2026-04-25T14:25:52.085Z</time></trkpt><trkpt lat="44.6612301" lon="7.919283"><ele>329.0</ele><time>2026-04-25T14:25:53.086Z</time></trkpt><trkpt lat="44.6611418" lon="7.9193793"><ele>329.0</ele><time>2026-04-25T14:25:54.086Z</time></trkpt><trkpt lat="44.6610801" lon="7.9194804"><ele>329.0</ele><time>2026-04-25T14:25:55.085Z</time></trkpt><trkpt lat="44.6610523" lon="7.9196127"><ele>329.0</ele><time>2026-04-25T14:25:56.086Z</time></trkpt><trkpt lat="44.6610414" lon="7.9197688"><ele>329.5</ele><time>2026-04-25T14:25:57.085Z</time></trkpt><trkpt lat="44.6610516" lon="7.9199251"><ele>330.0</ele><time>2026-04-25T14:25:58.085Z</time></trkpt><trkpt lat="44.6610901" lon="7.9200891"><ele>330.5</ele><time>2026-04-25T14:25:59.085Z</time></trkpt><trkpt lat="44.6611519" lon="7.920248"><ele>331.0</ele><time>2026-04-25T14:26:00.086Z</time></trkpt><trkpt lat="44.6612347" lon="7.9203925"><ele>332.5</ele><time>2026-04-25T14:26:01.086Z</time></trkpt><trkpt lat="44.6613387" lon="7.9205131"><ele>334.0</ele><time>2026-04-25T14:26:02.086Z</time></trkpt><trkpt lat="44.6614653" lon="7.9206"><ele>335.5</ele><time>2026-04-25T14:26:03.086Z</time></trkpt><trkpt lat="44.6615923" lon="7.9206646"><ele>337.0</ele><time>2026-04-25T14:26:04.086Z</time></trkpt><trkpt lat="44.6617268" lon="7.9207153"><ele>337.0</ele><time>2026-04-25T14:26:05.085Z</time></trkpt><trkpt lat="44.6618213" lon="7.9207534"><ele>337.0</ele><time>2026-04-25T14:26:06.086Z</time></trkpt><trkpt lat="44.6618786" lon="7.9208129"><ele>337.0</ele><time>2026-04-25T14:26:07.085Z</time></trkpt><trkpt lat="44.6618983" lon="7.9209744"><ele>337.0</ele><time>2026-04-25T14:26:09.086Z</time></trkpt><trkpt lat="44.6618168" lon="7.9210964"><ele>337.0</ele><time>2026-04-25T14:26:11.086Z</time></trkpt><trkpt lat="44.6617056" lon="7.921092"><ele>340.0</ele><time>2026-04-25T14:26:12.086Z</time></trkpt><trkpt lat="44.6615953" lon="7.9210954"><ele>343.0</ele><time>2026-04-25T14:26:13.086Z</time></trkpt><trkpt lat="44.6614629" lon="7.9211049"><ele>346.0</ele><time>2026-04-25T14:26:14.085Z</time></trkpt><trkpt lat="44.6613263" lon="7.9211167"><ele>349.0</ele><time>2026-04-25T14:26:15.086Z</time></trkpt><trkpt lat="44.6611904" lon="7.9211198"><ele>349.25</ele><time>2026-04-25T14:26:16.086Z</time></trkpt><trkpt lat="44.6610495" lon="7.9211243"><ele>349.5</ele><time>2026-04-25T14:26:17.086Z</time></trkpt><trkpt lat="44.6609128" lon="7.9211592"><ele>349.75</ele><time>2026-04-25T14:26:18.085Z</time></trkpt><trkpt lat="44.6607779" lon="7.9212168"><ele>350.0</ele><time>2026-04-25T14:26:19.085Z</time></trkpt><trkpt lat="44.6606383" lon="7.9213056"><ele>350.0</ele><time>2026-04-25T14:26:20.086Z</time></trkpt><trkpt lat="44.6605" lon="7.9214077"><ele>350.0</ele><time>2026-04-25T14:26:21.086Z</time></trkpt><trkpt lat="44.6603613" lon="7.9215344"><ele>350.0</ele><time>2026-04-25T14:26:22.086Z</time></trkpt><trkpt lat="44.660219" lon="7.9216598"><ele>353.33333333333337</ele><time>2026-04-25T14:26:23.086Z</time></trkpt><trkpt lat="44.6600749" lon="7.9217964"><ele>356.6666666666667</ele><time>2026-04-25T14:26:24.086Z</time></trkpt><trkpt lat="44.6599389" lon="7.9219145"><ele>360.0</ele><time>2026-04-25T14:26:25.085Z</time></trkpt><trkpt lat="44.6598246" lon="7.9220225"><ele>360.0</ele><time>2026-04-25T14:26:26.086Z</time></trkpt><trkpt lat="44.6597197" lon="7.9221396"><ele>360.0</ele><time>2026-04-25T14:26:27.086Z</time></trkpt><trkpt lat="44.6596212" lon="7.9222846"><ele>360.0</ele><time>2026-04-25T14:26:28.085Z</time></trkpt><trkpt lat="44.6595378" lon="7.922441"><ele>360.0</ele><time>2026-04-25T14:26:29.086Z</time></trkpt><trkpt lat="44.6594555" lon="7.9226109"><ele>360.25</ele><time>2026-04-25T14:26:30.086Z</time></trkpt><trkpt lat="44.6593673" lon="7.9227647"><ele>360.5</ele><time>2026-04-25T14:26:31.086Z</time></trkpt><trkpt lat="44.6592662" lon="7.922886"><ele>360.75</ele><time>2026-04-25T14:26:32.085Z</time></trkpt><trkpt lat="44.6591423" lon="7.9229874"><ele>361.0</ele><time>2026-04-25T14:26:33.085Z</time></trkpt><trkpt lat="44.6590057" lon="7.9230563"><ele>361.0</ele><time>2026-04-25T14:26:34.086Z</time></trkpt><trkpt lat="44.6588549" lon="7.9231132"><ele>361.0</ele><time>2026-04-25T14:26:35.085Z</time></trkpt><trkpt lat="44.6586987" lon="7.9231567"><ele>361.0</ele><time>2026-04-25T14:26:36.085Z</time></trkpt><trkpt lat="44.6585463" lon="7.9231931"><ele>361.5</ele><time>2026-04-25T14:26:37.086Z</time></trkpt><trkpt lat="44.6583946" lon="7.923192"><ele>362.0</ele><time>2026-04-25T14:26:38.085Z</time></trkpt><trkpt lat="44.6582495" lon="7.9231509"><ele>362.5</ele><time>2026-04-25T14:26:39.086Z</time></trkpt><trkpt lat="44.6581155" lon="7.9231153"><ele>363.0</ele><time>2026-04-25T14:26:40.086Z</time></trkpt><trkpt lat="44.6579968" lon="7.9230852"><ele>363.0</ele><time>2026-04-25T14:26:41.086Z</time></trkpt><trkpt lat="44.6578771" lon="7.9230927"><ele>363.0</ele><time>2026-04-25T14:26:42.086Z</time></trkpt><trkpt lat="44.6577688" lon="7.9231305"><ele>363.0</ele><time>2026-04-25T14:26:43.086Z</time></trkpt><trkpt lat="44.6576585" lon="7.9231927"><ele>363.0</ele><time>2026-04-25T14:26:44.085Z</time></trkpt><trkpt lat="44.6575557" lon="7.9232222"><ele>364.0</ele><time>2026-04-25T14:26:45.085Z</time></trkpt><trkpt lat="44.657461" lon="7.9231906"><ele>365.0</ele><time>2026-04-25T14:26:46.086Z</time></trkpt><trkpt lat="44.6573471" lon="7.923128"><ele>366.0</ele><time>2026-04-25T14:26:47.086Z</time></trkpt><trkpt lat="44.6572455" lon="7.923"><ele>367.0</ele><time>2026-04-25T14:26:48.086Z</time></trkpt><trkpt lat="44.6571525" lon="7.9228609"><ele>367.0</ele><time>2026-04-25T14:26:49.086Z</time></trkpt><trkpt lat="44.6570627" lon="7.9227278"><ele>367.0</ele><time>2026-04-25T14:26:50.086Z</time></trkpt><trkpt lat="44.6569702" lon="7.9226065"><ele>367.0</ele><time>2026-04-25T14:26:51.086Z</time></trkpt><trkpt lat="44.6568523" lon="7.9225161"><ele>367.0</ele><time>2026-04-25T14:26:52.086Z</time></trkpt><trkpt lat="44.6567351" lon="7.9224483"><ele>369.0</ele><time>2026-04-25T14:26:53.086Z</time></trkpt><trkpt lat="44.6565886" lon="7.9224362"><ele>371.0</ele><time>2026-04-25T14:26:54.086Z</time></trkpt><trkpt lat="44.6564323" lon="7.9224319"><ele>373.0</ele><time>2026-04-25T14:26:55.086Z</time></trkpt><trkpt lat="44.6562699" lon="7.9224219"><ele>374.0</ele><time>2026-04-25T14:26:56.085Z</time></trkpt><trkpt lat="44.6561022" lon="7.9223927"><ele>375.0</ele><time>2026-04-25T14:26:57.086Z</time></trkpt><trkpt lat="44.6559275" lon="7.9223464"><ele>376.0</ele><time>2026-04-25T14:26:58.086Z</time></trkpt><trkpt lat="44.6557542" lon="7.9223086"><ele>376.0</ele><time>2026-04-25T14:26:59.086Z</time></trkpt><trkpt lat="44.6555785" lon="7.9222778"><ele>376.0</ele><time>2026-04-25T14:27:00.086Z</time></trkpt><trkpt lat="44.6554056" lon="7.9222423"><ele>376.0</ele><time>2026-04-25T14:27:01.085Z</time></trkpt><trkpt lat="44.6552351" lon="7.9222015"><ele>378.3333333333333</ele><time>2026-04-25T14:27:02.085Z</time></trkpt><trkpt lat="44.6550676" lon="7.922153"><ele>380.6666666666667</ele><time>2026-04-25T14:27:03.086Z</time></trkpt><trkpt lat="44.6549008" lon="7.9221062"><ele>383.0</ele><time>2026-04-25T14:27:04.085Z</time></trkpt><trkpt lat="44.6547492" lon="7.9220782"><ele>383.0</ele><time>2026-04-25T14:27:05.085Z</time></trkpt><trkpt lat="44.6546065" lon="7.9220451"><ele>383.0</ele><time>2026-04-25T14:27:06.086Z</time></trkpt><trkpt lat="44.6544749" lon="7.9220281"><ele>383.0</ele><time>2026-04-25T14:27:07.086Z</time></trkpt><trkpt lat="44.6543553" lon="7.9220198"><ele>383.0</ele><time>2026-04-25T14:27:08.086Z</time></trkpt><trkpt lat="44.6542467" lon="7.92204"><ele>384.2</ele><time>2026-04-25T14:27:09.086Z</time></trkpt><trkpt lat="44.6541488" lon="7.9220765"><ele>385.4</ele><time>2026-04-25T14:27:10.085Z</time></trkpt><trkpt lat="44.6540489" lon="7.9221492"><ele>386.59999999999997</ele><time>2026-04-25T14:27:11.086Z</time></trkpt><trkpt lat="44.6539584" lon="7.9222247"><ele>387.79999999999995</ele><time>2026-04-25T14:27:12.086Z</time></trkpt><trkpt lat="44.6538738" lon="7.9222877"><ele>389.0</ele><time>2026-04-25T14:27:13.086Z</time></trkpt><trkpt lat="44.6537749" lon="7.9223102"><ele>389.0</ele><time>2026-04-25T14:27:14.086Z</time></trkpt><trkpt lat="44.6536793" lon="7.9222736"><ele>389.0</ele><time>2026-04-25T14:27:15.086Z</time></trkpt><trkpt lat="44.6535887" lon="7.9221871"><ele>389.0</ele><time>2026-04-25T14:27:16.086Z</time></trkpt><trkpt lat="44.653501" lon="7.9220647"><ele>389.0</ele><time>2026-04-25T14:27:17.085Z</time></trkpt><trkpt lat="44.6534212" lon="7.9219193"><ele>389.5</ele><time>2026-04-25T14:27:18.085Z</time></trkpt><trkpt lat="44.6533368" lon="7.9217631"><ele>390.0</ele><time>2026-04-25T14:27:19.085Z</time></trkpt><trkpt lat="44.6532512" lon="7.9216155"><ele>390.5</ele><time>2026-04-25T14:27:20.086Z</time></trkpt><trkpt lat="44.6531533" lon="7.9214993"><ele>391.0</ele><time>2026-04-25T14:27:21.086Z</time></trkpt><trkpt lat="44.6530453" lon="7.9214022"><ele>391.0</ele><time>2026-04-25T14:27:22.086Z</time></trkpt><trkpt lat="44.6529177" lon="7.921354"><ele>391.0</ele><time>2026-04-25T14:27:23.086Z</time></trkpt><trkpt lat="44.6528002" lon="7.9213224"><ele>391.0</ele><time>2026-04-25T14:27:24.086Z</time></trkpt><trkpt lat="44.652645" lon="7.9213439"><ele>391.0</ele><time>2026-04-25T14:27:25.085Z</time></trkpt><trkpt lat="44.6524886" lon="7.9213984"><ele>393.0</ele><time>2026-04-25T14:27:26.086Z</time></trkpt><trkpt lat="44.6523421" lon="7.9214654"><ele>395.0</ele><time>2026-04-25T14:27:27.086Z</time></trkpt><trkpt lat="44.6521959" lon="7.9215352"><ele>397.0</ele><time>2026-04-25T14:27:28.085Z</time></trkpt><trkpt lat="44.6520433" lon="7.9216145"><ele>396.33333333333337</ele><time>2026-04-25T14:27:29.086Z</time></trkpt><trkpt lat="44.6518869" lon="7.9216878"><ele>395.66666666666663</ele><time>2026-04-25T14:27:30.085Z</time></trkpt><trkpt lat="44.6517319" lon="7.9217578"><ele>395.0</ele><time>2026-04-25T14:27:31.086Z</time></trkpt><trkpt lat="44.6515805" lon="7.9218262"><ele>397.25</ele><time>2026-04-25T14:27:32.086Z</time></trkpt><trkpt lat="44.6514364" lon="7.9218927"><ele>399.5</ele><time>2026-04-25T14:27:33.085Z</time></trkpt><trkpt lat="44.6512947" lon="7.9219694"><ele>401.75</ele><time>2026-04-25T14:27:34.086Z</time></trkpt><trkpt lat="44.6511609" lon="7.9220475"><ele>404.0</ele><time>2026-04-25T14:27:35.086Z</time></trkpt><trkpt lat="44.6510253" lon="7.922147"><ele>404.0</ele><time>2026-04-25T14:27:36.086Z</time></trkpt><trkpt lat="44.6508887" lon="7.9222333"><ele>404.0</ele><time>2026-04-25T14:27:37.086Z</time></trkpt><trkpt lat="44.6507544" lon="7.9223226"><ele>404.0</ele><time>2026-04-25T14:27:38.086Z</time></trkpt><trkpt lat="44.6506349" lon="7.9223939"><ele>404.0</ele><time>2026-04-25T14:27:39.085Z</time></trkpt><trkpt lat="44.6505286" lon="7.92246"><ele>404.0</ele><time>2026-04-25T14:27:40.085Z</time></trkpt><trkpt lat="44.6504305" lon="7.9225177"><ele>404.0</ele><time>2026-04-25T14:27:41.086Z</time></trkpt><trkpt lat="44.650339" lon="7.9225829"><ele>404.0</ele><time>2026-04-25T14:27:42.086Z</time></trkpt><trkpt lat="44.6502625" lon="7.9226602"><ele>404.0</ele><time>2026-04-25T14:27:43.086Z</time></trkpt><trkpt lat="44.6502065" lon="7.9227686"><ele>404.0</ele><time>2026-04-25T14:27:44.086Z</time></trkpt><trkpt lat="44.6501738" lon="7.9228942"><ele>405.2</ele><time>2026-04-25T14:27:45.085Z</time></trkpt><trkpt lat="44.6501755" lon="7.9230155"><ele>406.4</ele><time>2026-04-25T14:27:46.086Z</time></trkpt><trkpt lat="44.6502103" lon="7.9231223"><ele>407.6</ele><time>2026-04-25T14:27:47.085Z</time></trkpt><trkpt lat="44.6502794" lon="7.9232012"><ele>408.8</ele><time>2026-04-25T14:27:48.086Z</time></trkpt><trkpt lat="44.6503766" lon="7.9232413"><ele>410.0</ele><time>2026-04-25T14:27:49.086Z</time></trkpt><trkpt lat="44.6504847" lon="7.9232406"><ele>410.2</ele><time>2026-04-25T14:27:50.085Z</time></trkpt><trkpt lat="44.6505922" lon="7.9232073"><ele>410.4</ele><time>2026-04-25T14:27:51.086Z</time></trkpt><trkpt lat="44.6506905" lon="7.9231674"><ele>410.6</ele><time>2026-04-25T14:27:52.085Z</time></trkpt><trkpt lat="44.650782" lon="7.9231334"><ele>410.8</ele><time>2026-04-25T14:27:53.086Z</time></trkpt><trkpt lat="44.650869" lon="7.9231071"><ele>411.0</ele><time>2026-04-25T14:27:54.085Z</time></trkpt><trkpt lat="44.6509584" lon="7.9230977"><ele>411.0</ele><time>2026-04-25T14:27:55.086Z</time></trkpt><trkpt lat="44.6510462" lon="7.9231248"><ele>411.0</ele><time>2026-04-25T14:27:56.086Z</time></trkpt><trkpt lat="44.6511332" lon="7.923184"><ele>411.0</ele><time>2026-04-25T14:27:57.086Z</time></trkpt><trkpt lat="44.6512182" lon="7.9232695"><ele>411.0</ele><time>2026-04-25T14:27:58.086Z</time></trkpt><trkpt lat="44.6513025" lon="7.9233672"><ele>411.0</ele><time>2026-04-25T14:27:59.085Z</time></trkpt><trkpt lat="44.6514057" lon="7.9234821"><ele>413.0</ele><time>2026-04-25T14:28:00.086Z</time></trkpt><trkpt lat="44.6515109" lon="7.9236224"><ele>415.0</ele><time>2026-04-25T14:28:01.086Z</time></trkpt><trkpt lat="44.6516105" lon="7.9237719"><ele>417.0</ele><time>2026-04-25T14:28:02.085Z</time></trkpt><trkpt lat="44.6517405" lon="7.9239506"><ele>417.0</ele><time>2026-04-25T14:28:03.086Z</time></trkpt><trkpt lat="44.6518492" lon="7.9241424"><ele>417.0</ele><time>2026-04-25T14:28:04.086Z</time></trkpt><trkpt lat="44.6519601" lon="7.9243352"><ele>417.0</ele><time>2026-04-25T14:28:05.086Z</time></trkpt><trkpt lat="44.652077" lon="7.9245139"><ele>416.75</ele><time>2026-04-25T14:28:06.085Z</time></trkpt><trkpt lat="44.6521865" lon="7.9246818"><ele>416.5</ele><time>2026-04-25T14:28:07.086Z</time></trkpt><trkpt lat="44.6522893" lon="7.924828"><ele>416.25</ele><time>2026-04-25T14:28:08.086Z</time></trkpt><trkpt lat="44.6523688" lon="7.9249538"><ele>416.0</ele><time>2026-04-25T14:28:09.086Z</time></trkpt><trkpt lat="44.6524382" lon="7.9250633"><ele>417.49999999999994</ele><time>2026-04-25T14:28:10.086Z</time></trkpt><trkpt lat="44.6524901" lon="7.9251741"><ele>419.0</ele><time>2026-04-25T14:28:11.086Z</time></trkpt><trkpt lat="44.6525032" lon="7.9252821"><ele>420.5</ele><time>2026-04-25T14:28:12.086Z</time></trkpt><trkpt lat="44.6524965" lon="7.9253936"><ele>422.0</ele><time>2026-04-25T14:28:13.086Z</time></trkpt><trkpt lat="44.6524501" lon="7.9254879"><ele>423.49999999999994</ele><time>2026-04-25T14:28:14.086Z</time></trkpt><trkpt lat="44.6523765" lon="7.9255508"><ele>425.0</ele><time>2026-04-25T14:28:15.086Z</time></trkpt><trkpt lat="44.6522875" lon="7.9255754"><ele>425.0</ele><time>2026-04-25T14:28:16.086Z</time></trkpt><trkpt lat="44.6521766" lon="7.9255614"><ele>425.0</ele><time>2026-04-25T14:28:17.086Z</time></trkpt><trkpt lat="44.6520515" lon="7.9255314"><ele>425.0</ele><time>2026-04-25T14:28:18.086Z</time></trkpt><trkpt lat="44.6519057" lon="7.9254946"><ele>425.0</ele><time>2026-04-25T14:28:19.086Z</time></trkpt><trkpt lat="44.6517556" lon="7.9254623"><ele>426.66666666666663</ele><time>2026-04-25T14:28:20.085Z</time></trkpt><trkpt lat="44.6515992" lon="7.9254388"><ele>428.33333333333337</ele><time>2026-04-25T14:28:21.086Z</time></trkpt><trkpt lat="44.6514409" lon="7.9254051"><ele>430.0</ele><time>2026-04-25T14:28:22.086Z</time></trkpt><trkpt lat="44.6512687" lon="7.9253805"><ele>432.33333333333337</ele><time>2026-04-25T14:28:23.086Z</time></trkpt><trkpt lat="44.6510976" lon="7.9253552"><ele>434.66666666666663</ele><time>2026-04-25T14:28:24.086Z</time></trkpt><trkpt lat="44.6509246" lon="7.9253171"><ele>437.0</ele><time>2026-04-25T14:28:25.086Z</time></trkpt><trkpt lat="44.6507559" lon="7.9252802"><ele>437.0</ele><time>2026-04-25T14:28:26.086Z</time></trkpt><trkpt lat="44.6505906" lon="7.9252428"><ele>437.0</ele><time>2026-04-25T14:28:27.086Z</time></trkpt><trkpt lat="44.6504403" lon="7.9251976"><ele>437.0</ele><time>2026-04-25T14:28:28.086Z</time></trkpt><trkpt lat="44.6502989" lon="7.9251754"><ele>438.66666666666663</ele><time>2026-04-25T14:28:29.085Z</time></trkpt><trkpt lat="44.6501507" lon="7.9251826"><ele>440.33333333333337</ele><time>2026-04-25T14:28:30.086Z</time></trkpt><trkpt lat="44.649995" lon="7.9252168"><ele>442.0</ele><time>2026-04-25T14:28:31.085Z</time></trkpt><trkpt lat="44.6498361" lon="7.9252763"><ele>442.0</ele><time>2026-04-25T14:28:32.086Z</time></trkpt><trkpt lat="44.6496756" lon="7.9253436"><ele>442.0</ele><time>2026-04-25T14:28:33.086Z</time></trkpt><trkpt lat="44.6495243" lon="7.9254198"><ele>442.0</ele><time>2026-04-25T14:28:34.086Z</time></trkpt><trkpt lat="44.6493702" lon="7.9254782"><ele>441.6666666666667</ele><time>2026-04-25T14:28:35.085Z</time></trkpt><trkpt lat="44.6492089" lon="7.9255443"><ele>441.33333333333337</ele><time>2026-04-25T14:28:36.086Z</time></trkpt><trkpt lat="44.6490497" lon="7.9256209"><ele>441.0</ele><time>2026-04-25T14:28:37.085Z</time></trkpt><trkpt lat="44.6488999" lon="7.9256876"><ele>441.0</ele><time>2026-04-25T14:28:38.085Z</time></trkpt><trkpt lat="44.6487496" lon="7.9257697"><ele>441.0</ele><time>2026-04-25T14:28:39.086Z</time></trkpt><trkpt lat="44.6486008" lon="7.9258435"><ele>441.0</ele><time>2026-04-25T14:28:40.085Z</time></trkpt><trkpt lat="44.6484549" lon="7.9259295"><ele>442.5</ele><time>2026-04-25T14:28:41.086Z</time></trkpt><trkpt lat="44.6483192" lon="7.9259855"><ele>444.0</ele><time>2026-04-25T14:28:42.086Z</time></trkpt><trkpt lat="44.6481892" lon="7.9260457"><ele>445.5</ele><time>2026-04-25T14:28:43.086Z</time></trkpt><trkpt lat="44.6480598" lon="7.9261144"><ele>447.0</ele><time>2026-04-25T14:28:44.086Z</time></trkpt><trkpt lat="44.6479443" lon="7.9261702"><ele>447.0</ele><time>2026-04-25T14:28:45.086Z</time></trkpt><trkpt lat="44.6478258" lon="7.9262349"><ele>447.0</ele><time>2026-04-25T14:28:46.086Z</time></trkpt><trkpt lat="44.6477072" lon="7.926287"><ele>447.0</ele><time>2026-04-25T14:28:47.086Z</time></trkpt><trkpt lat="44.6475833" lon="7.92635"><ele>447.0</ele><time>2026-04-25T14:28:48.085Z</time></trkpt><trkpt lat="44.6474707" lon="7.9264105"><ele>447.0</ele><time>2026-04-25T14:28:49.086Z</time></trkpt><trkpt lat="44.6473533" lon="7.9264596"><ele>447.00000000000006</ele><time>2026-04-25T14:28:50.085Z</time></trkpt><trkpt lat="44.6472498" lon="7.9265132"><ele>447.00000000000006</ele><time>2026-04-25T14:28:51.086Z</time></trkpt><trkpt lat="44.6471515" lon="7.9265694"><ele>447.0</ele><time>2026-04-25T14:28:52.086Z</time></trkpt><trkpt lat="44.6470638" lon="7.9266164"><ele>447.0</ele><time>2026-04-25T14:28:53.086Z</time></trkpt><trkpt lat="44.646994" lon="7.9266606"><ele>448.5</ele><time>2026-04-25T14:28:54.085Z</time></trkpt><trkpt lat="44.6469116" lon="7.9267092"><ele>450.0</ele><time>2026-04-25T14:28:56.086Z</time></trkpt><trkpt lat="44.6468316" lon="7.9267478"><ele>451.5</ele><time>2026-04-25T14:28:58.086Z</time></trkpt><trkpt lat="44.6467265" lon="7.9267999"><ele>453.0</ele><time>2026-04-25T14:29:01.086Z</time></trkpt><trkpt lat="44.6466676" lon="7.9268456"><ele>454.5</ele><time>2026-04-25T14:29:02.086Z</time></trkpt><trkpt lat="44.6465899" lon="7.9269067"><ele>456.0</ele><time>2026-04-25T14:29:03.086Z</time></trkpt><trkpt lat="44.6464964" lon="7.9270121"><ele>457.0</ele><time>2026-04-25T14:29:04.086Z</time></trkpt><trkpt lat="44.6464004" lon="7.9271079"><ele>458.0</ele><time>2026-04-25T14:29:05.086Z</time></trkpt><trkpt lat="44.6463153" lon="7.9272301"><ele>459.0</ele><time>2026-04-25T14:29:06.085Z</time></trkpt><trkpt lat="44.6462154" lon="7.927363"><ele>460.0</ele><time>2026-04-25T14:29:07.086Z</time></trkpt><trkpt lat="44.6461104" lon="7.9275113"><ele>461.25</ele><time>2026-04-25T14:29:08.086Z</time></trkpt><trkpt lat="44.6460088" lon="7.9276498"><ele>462.5</ele><time>2026-04-25T14:29:09.085Z</time></trkpt><trkpt lat="44.6459099" lon="7.9277902"><ele>463.75</ele><time>2026-04-25T14:29:10.086Z</time></trkpt><trkpt lat="44.6458063" lon="7.9279233"><ele>465.0</ele><time>2026-04-25T14:29:11.085Z</time></trkpt><trkpt lat="44.6457198" lon="7.9280528"><ele>465.0</ele><time>2026-04-25T14:29:12.086Z</time></trkpt><trkpt lat="44.6456288" lon="7.9281698"><ele>465.0</ele><time>2026-04-25T14:29:13.086Z</time></trkpt><trkpt lat="44.6455394" lon="7.9282897"><ele>465.0</ele><time>2026-04-25T14:29:14.085Z</time></trkpt><trkpt lat="44.6454497" lon="7.9284111"><ele>465.0</ele><time>2026-04-25T14:29:15.086Z</time></trkpt><trkpt lat="44.6453649" lon="7.9285325"><ele>466.0</ele><time>2026-04-25T14:29:16.086Z</time></trkpt><trkpt lat="44.6452755" lon="7.9286487"><ele>467.0</ele><time>2026-04-25T14:29:17.086Z</time></trkpt><trkpt lat="44.6451821" lon="7.9287728"><ele>468.0</ele><time>2026-04-25T14:29:18.085Z</time></trkpt><trkpt lat="44.6450955" lon="7.9288914"><ele>469.0</ele><time>2026-04-25T14:29:19.086Z</time></trkpt><trkpt lat="44.6450021" lon="7.929013"><ele>469.0</ele><time>2026-04-25T14:29:20.085Z</time></trkpt><trkpt lat="44.6449121" lon="7.9291355"><ele>469.0</ele><time>2026-04-25T14:29:21.086Z</time></trkpt><trkpt lat="44.644823" lon="7.9292612"><ele>469.0</ele><time>2026-04-25T14:29:22.086Z</time></trkpt><trkpt lat="44.6447278" lon="7.9293842"><ele>469.0</ele><time>2026-04-25T14:29:23.086Z</time></trkpt><trkpt lat="44.6446381" lon="7.9295088"><ele>469.0</ele><time>2026-04-25T14:29:24.085Z</time></trkpt><trkpt lat="44.6445557" lon="7.9296442"><ele>469.0</ele><time>2026-04-25T14:29:25.086Z</time></trkpt><trkpt lat="44.6444704" lon="7.9297564"><ele>469.0</ele><time>2026-04-25T14:29:26.085Z</time></trkpt><trkpt lat="44.6443872" lon="7.9298447"><ele>469.0</ele><time>2026-04-25T14:29:27.086Z</time></trkpt><trkpt lat="44.6443103" lon="7.9299194"><ele>469.0</ele><time>2026-04-25T14:29:28.086Z</time></trkpt><trkpt lat="44.644237" lon="7.9299746"><ele>469.6666666666667</ele><time>2026-04-25T14:29:29.086Z</time></trkpt><trkpt lat="44.6441749" lon="7.9300103"><ele>470.33333333333337</ele><time>2026-04-25T14:29:30.086Z</time></trkpt><trkpt lat="44.644124" lon="7.9300663"><ele>471.0</ele><time>2026-04-25T14:29:31.086Z</time></trkpt><trkpt lat="44.6440439" lon="7.9301971"><ele>471.66666666666663</ele><time>2026-04-25T14:29:33.086Z</time></trkpt><trkpt lat="44.6440156" lon="7.9303003"><ele>472.3333333333333</ele><time>2026-04-25T14:29:34.086Z</time></trkpt><trkpt lat="44.6439733" lon="7.9304092"><ele>473.0</ele><time>2026-04-25T14:29:35.086Z</time></trkpt><trkpt lat="44.6438971" lon="7.9304973"><ele>474.79999999999995</ele><time>2026-04-25T14:29:36.086Z</time></trkpt><trkpt lat="44.6438218" lon="7.9306001"><ele>476.59999999999997</ele><time>2026-04-25T14:29:37.086Z</time></trkpt><trkpt lat="44.643743" lon="7.9307008"><ele>478.40000000000003</ele><time>2026-04-25T14:29:38.085Z</time></trkpt><trkpt lat="44.6436778" lon="7.9308178"><ele>480.20000000000005</ele><time>2026-04-25T14:29:39.085Z</time></trkpt><trkpt lat="44.6435955" lon="7.9309198"><ele>482.0</ele><time>2026-04-25T14:29:40.086Z</time></trkpt><trkpt lat="44.6435179" lon="7.9310181"><ele>483.40000000000003</ele><time>2026-04-25T14:29:41.086Z</time></trkpt><trkpt lat="44.6434277" lon="7.9311171"><ele>484.80000000000007</ele><time>2026-04-25T14:29:42.085Z</time></trkpt><trkpt lat="44.6433481" lon="7.93121"><ele>486.2</ele><time>2026-04-25T14:29:43.085Z</time></trkpt><trkpt lat="44.6432697" lon="7.9313165"><ele>487.6</ele><time>2026-04-25T14:29:44.086Z</time></trkpt><trkpt lat="44.6432041" lon="7.9314282"><ele>489.0</ele><time>2026-04-25T14:29:45.086Z</time></trkpt><trkpt lat="44.6431248" lon="7.9315277"><ele>489.0</ele><time>2026-04-25T14:29:46.086Z</time></trkpt><trkpt lat="44.6430605" lon="7.9316195"><ele>489.0</ele><time>2026-04-25T14:29:47.085Z</time></trkpt><trkpt lat="44.6429995" lon="7.9317125"><ele>489.0</ele><time>2026-04-25T14:29:48.086Z</time></trkpt><trkpt lat="44.6429261" lon="7.9318244"><ele>489.0</ele><time>2026-04-25T14:29:49.086Z</time></trkpt><trkpt lat="44.6428512" lon="7.9319232"><ele>489.0</ele><time>2026-04-25T14:29:50.085Z</time></trkpt><trkpt lat="44.6427777" lon="7.9320129"><ele>490.6</ele><time>2026-04-25T14:29:51.085Z</time></trkpt><trkpt lat="44.6427041" lon="7.9320993"><ele>492.2</ele><time>2026-04-25T14:29:52.085Z</time></trkpt><trkpt lat="44.6426306" lon="7.9321855"><ele>493.80000000000007</ele><time>2026-04-25T14:29:53.086Z</time></trkpt><trkpt lat="44.6425648" lon="7.9322785"><ele>495.40000000000003</ele><time>2026-04-25T14:29:54.085Z</time></trkpt><trkpt lat="44.6425038" lon="7.9323378"><ele>497.0</ele><time>2026-04-25T14:29:55.086Z</time></trkpt><trkpt lat="44.6423938" lon="7.9324088"><ele>496.99999999999994</ele><time>2026-04-25T14:29:56.086Z</time></trkpt><trkpt lat="44.6423164" lon="7.9324633"><ele>497.0</ele><time>2026-04-25T14:29:57.086Z</time></trkpt><trkpt lat="44.6422204" lon="7.9325011"><ele>497.0</ele><time>2026-04-25T14:29:58.086Z</time></trkpt><trkpt lat="44.6421417" lon="7.9325351"><ele>497.0</ele><time>2026-04-25T14:29:59.086Z</time></trkpt><trkpt lat="44.6420593" lon="7.9325694"><ele>496.99999999999994</ele><time>2026-04-25T14:30:00.086Z</time></trkpt><trkpt lat="44.6419832" lon="7.932606"><ele>497.0</ele><time>2026-04-25T14:30:01.086Z</time></trkpt><trkpt lat="44.6419025" lon="7.9326312"><ele>496.8333333333333</ele><time>2026-04-25T14:30:02.086Z</time></trkpt><trkpt lat="44.6418328" lon="7.9326547"><ele>496.66666666666663</ele><time>2026-04-25T14:30:03.085Z</time></trkpt><trkpt lat="44.6417659" lon="7.9326862"><ele>496.5</ele><time>2026-04-25T14:30:04.086Z</time></trkpt><trkpt lat="44.6417071" lon="7.9327195"><ele>496.33333333333337</ele><time>2026-04-25T14:30:05.086Z</time></trkpt><trkpt lat="44.6415837" lon="7.9327659"><ele>496.1666666666667</ele><time>2026-04-25T14:30:07.086Z</time></trkpt><trkpt lat="44.6415174" lon="7.9327862"><ele>496.0</ele><time>2026-04-25T14:30:08.086Z</time></trkpt><trkpt lat="44.6414518" lon="7.9328176"><ele>496.00000000000006</ele><time>2026-04-25T14:30:09.086Z</time></trkpt><trkpt lat="44.6413818" lon="7.932856"><ele>496.0</ele><time>2026-04-25T14:30:10.086Z</time></trkpt><trkpt lat="44.6413045" lon="7.932898"><ele>496.0</ele><time>2026-04-25T14:30:11.086Z</time></trkpt><trkpt lat="44.6412296" lon="7.9329426"><ele>496.0</ele><time>2026-04-25T14:30:12.086Z</time></trkpt><trkpt lat="44.6411655" lon="7.9329748"><ele>496.00000000000006</ele><time>2026-04-25T14:30:13.086Z</time></trkpt><trkpt lat="44.6410934" lon="7.9330229"><ele>496.0</ele><time>2026-04-25T14:30:14.086Z</time></trkpt><trkpt lat="44.6410207" lon="7.9330693"><ele>496.50000000000006</ele><time>2026-04-25T14:30:15.085Z</time></trkpt><trkpt lat="44.6409464" lon="7.9331216"><ele>497.0</ele><time>2026-04-25T14:30:16.086Z</time></trkpt><trkpt lat="44.6408652" lon="7.9331741"><ele>497.5</ele><time>2026-04-25T14:30:17.085Z</time></trkpt><trkpt lat="44.6407947" lon="7.9332088"><ele>498.0</ele><time>2026-04-25T14:30:18.086Z</time></trkpt><trkpt lat="44.6407245" lon="7.9332498"><ele>498.50000000000006</ele><time>2026-04-25T14:30:19.086Z</time></trkpt><trkpt lat="44.6406408" lon="7.9332971"><ele>499.0</ele><time>2026-04-25T14:30:20.086Z</time></trkpt><trkpt lat="44.6405631" lon="7.9333424"><ele>499.00000000000006</ele><time>2026-04-25T14:30:21.086Z</time></trkpt><trkpt lat="44.6404903" lon="7.9333758"><ele>499.0</ele><time>2026-04-25T14:30:22.086Z</time></trkpt><trkpt lat="44.6404182" lon="7.9334301"><ele>499.0</ele><time>2026-04-25T14:30:23.085Z</time></trkpt><trkpt lat="44.6403338" lon="7.9334731"><ele>499.0</ele><time>2026-04-25T14:30:24.086Z</time></trkpt><trkpt lat="44.6402507" lon="7.9335218"><ele>499.00000000000006</ele><time>2026-04-25T14:30:25.085Z</time></trkpt><trkpt lat="44.6401727" lon="7.9335548"><ele>499.0</ele><time>2026-04-25T14:30:26.086Z</time></trkpt><trkpt lat="44.640092" lon="7.9336164"><ele>498.33333333333337</ele><time>2026-04-25T14:30:27.086Z</time></trkpt><trkpt lat="44.6400148" lon="7.9336679"><ele>497.6666666666667</ele><time>2026-04-25T14:30:28.086Z</time></trkpt><trkpt lat="44.639955" lon="7.9337108"><ele>497.0</ele><time>2026-04-25T14:30:29.086Z</time></trkpt><trkpt lat="44.6398579" lon="7.9337423"><ele>496.33333333333337</ele><time>2026-04-25T14:30:30.085Z</time></trkpt><trkpt lat="44.6397909" lon="7.9337761"><ele>495.6666666666667</ele><time>2026-04-25T14:30:31.086Z</time></trkpt><trkpt lat="44.6397071" lon="7.9338152"><ele>495.0</ele><time>2026-04-25T14:30:32.086Z</time></trkpt><trkpt lat="44.6396326" lon="7.9338621"><ele>495.0</ele><time>2026-04-25T14:30:33.086Z</time></trkpt><trkpt lat="44.6395703" lon="7.9339165"><ele>495.0</ele><time>2026-04-25T14:30:34.086Z</time></trkpt><trkpt lat="44.6395094" lon="7.9339561"><ele>495.0</ele><time>2026-04-25T14:30:35.086Z</time></trkpt><trkpt lat="44.6394444" lon="7.9339974"><ele>495.0</ele><time>2026-04-25T14:30:36.086Z</time></trkpt><trkpt lat="44.6393742" lon="7.9340329"><ele>495.0</ele><time>2026-04-25T14:30:37.085Z</time></trkpt><trkpt lat="44.639289" lon="7.9341065"><ele>495.0</ele><time>2026-04-25T14:30:39.086Z</time></trkpt><trkpt lat="44.6392151" lon="7.9341625"><ele>493.5</ele><time>2026-04-25T14:30:45.086Z</time></trkpt><trkpt lat="44.6391618" lon="7.9342416"><ele>492.0</ele><time>2026-04-25T14:30:50.086Z</time></trkpt><trkpt lat="44.6391723" lon="7.9343685"><ele>490.5</ele><time>2026-04-25T14:30:52.086Z</time></trkpt><trkpt lat="44.6392536" lon="7.9344464"><ele>489.0</ele><time>2026-04-25T14:30:54.085Z</time></trkpt><trkpt lat="44.6393235" lon="7.9344598"><ele>487.5</ele><time>2026-04-25T14:30:55.086Z</time></trkpt><trkpt lat="44.6394052" lon="7.9344477"><ele>486.0</ele><time>2026-04-25T14:30:56.086Z</time></trkpt><trkpt lat="44.6395024" lon="7.9344102"><ele>482.8</ele><time>2026-04-25T14:30:57.085Z</time></trkpt><trkpt lat="44.6396056" lon="7.9343819"><ele>479.6</ele><time>2026-04-25T14:30:58.085Z</time></trkpt><trkpt lat="44.639711" lon="7.9343511"><ele>476.4</ele><time>2026-04-25T14:30:59.086Z</time></trkpt><trkpt lat="44.6398064" lon="7.9343415"><ele>473.2</ele><time>2026-04-25T14:31:00.085Z</time></trkpt><trkpt lat="44.6399119" lon="7.9343179"><ele>470.0</ele><time>2026-04-25T14:31:01.086Z</time></trkpt><trkpt lat="44.6400163" lon="7.9342898"><ele>470.0</ele><time>2026-04-25T14:31:02.086Z</time></trkpt><trkpt lat="44.6401264" lon="7.9342478"><ele>470.0</ele><time>2026-04-25T14:31:03.085Z</time></trkpt><trkpt lat="44.6402353" lon="7.9342085"><ele>470.0</ele><time>2026-04-25T14:31:04.086Z</time></trkpt><trkpt lat="44.6403365" lon="7.9341763"><ele>470.0</ele><time>2026-04-25T14:31:05.085Z</time></trkpt><trkpt lat="44.6404544" lon="7.9341435"><ele>472.8</ele><time>2026-04-25T14:31:06.086Z</time></trkpt><trkpt lat="44.6405705" lon="7.9341238"><ele>475.6</ele><time>2026-04-25T14:31:07.086Z</time></trkpt><trkpt lat="44.6406721" lon="7.9340988"><ele>478.4</ele><time>2026-04-25T14:31:08.085Z</time></trkpt><trkpt lat="44.6407777" lon="7.9340862"><ele>481.2</ele><time>2026-04-25T14:31:09.086Z</time></trkpt><trkpt lat="44.6408752" lon="7.9340805"><ele>484.0</ele><time>2026-04-25T14:31:10.085Z</time></trkpt><trkpt lat="44.6409798" lon="7.9340661"><ele>484.0</ele><time>2026-04-25T14:31:11.086Z</time></trkpt><trkpt lat="44.6410909" lon="7.9340495"><ele>484.0</ele><time>2026-04-25T14:31:12.085Z</time></trkpt><trkpt lat="44.6411999" lon="7.9340219"><ele>484.0</ele><time>2026-04-25T14:31:13.086Z</time></trkpt><trkpt lat="44.6413336" lon="7.9339927"><ele>484.0</ele><time>2026-04-25T14:31:14.086Z</time></trkpt><trkpt lat="44.6414475" lon="7.9339666"><ele>482.6666666666667</ele><time>2026-04-25T14:31:15.085Z</time></trkpt><trkpt lat="44.6415451" lon="7.9339594"><ele>481.33333333333337</ele><time>2026-04-25T14:31:16.086Z</time></trkpt><trkpt lat="44.6416464" lon="7.9339607"><ele>480.0</ele><time>2026-04-25T14:31:17.085Z</time></trkpt><trkpt lat="44.6417404" lon="7.9339319"><ele>478.66666666666663</ele><time>2026-04-25T14:31:18.085Z</time></trkpt><trkpt lat="44.6418195" lon="7.9339273"><ele>477.3333333333333</ele><time>2026-04-25T14:31:19.086Z</time></trkpt><trkpt lat="44.6418862" lon="7.9339229"><ele>476.0</ele><time>2026-04-25T14:31:20.086Z</time></trkpt><trkpt lat="44.6420051" lon="7.9338904"><ele>476.0</ele><time>2026-04-25T14:31:22.085Z</time></trkpt><trkpt lat="44.642071" lon="7.9339503"><ele>476.0</ele><time>2026-04-25T14:31:24.086Z</time></trkpt><trkpt lat="44.6420637" lon="7.9340829"><ele>476.0</ele><time>2026-04-25T14:31:26.086Z</time></trkpt><trkpt lat="44.6419476" lon="7.9341408"><ele>476.0</ele><time>2026-04-25T14:31:28.086Z</time></trkpt><trkpt lat="44.6418599" lon="7.9341703"><ele>476.0</ele><time>2026-04-25T14:31:29.086Z</time></trkpt><trkpt lat="44.6417645" lon="7.9341982"><ele>470.0</ele><time>2026-04-25T14:31:30.086Z</time></trkpt><trkpt lat="44.6416487" lon="7.9342408"><ele>464.0</ele><time>2026-04-25T14:31:31.085Z</time></trkpt><trkpt lat="44.6415204" lon="7.9343013"><ele>458.0</ele><time>2026-04-25T14:31:32.086Z</time></trkpt><trkpt lat="44.6413699" lon="7.9343838"><ele>452.0</ele><time>2026-04-25T14:31:33.085Z</time></trkpt><trkpt lat="44.641218" lon="7.9344868"><ele>455.0</ele><time>2026-04-25T14:31:34.086Z</time></trkpt><trkpt lat="44.6410564" lon="7.9345943"><ele>458.0</ele><time>2026-04-25T14:31:35.086Z</time></trkpt><trkpt lat="44.6408932" lon="7.9346858"><ele>461.0</ele><time>2026-04-25T14:31:36.086Z</time></trkpt><trkpt lat="44.6407317" lon="7.9347667"><ele>461.0</ele><time>2026-04-25T14:31:37.086Z</time></trkpt><trkpt lat="44.6405716" lon="7.934866"><ele>461.0</ele><time>2026-04-25T14:31:38.086Z</time></trkpt><trkpt lat="44.6404203" lon="7.9349512"><ele>461.0</ele><time>2026-04-25T14:31:39.086Z</time></trkpt><trkpt lat="44.6402564" lon="7.93504"><ele>457.75</ele><time>2026-04-25T14:31:40.085Z</time></trkpt><trkpt lat="44.6401117" lon="7.9351217"><ele>454.5</ele><time>2026-04-25T14:31:41.086Z</time></trkpt><trkpt lat="44.6399771" lon="7.9352145"><ele>451.25</ele><time>2026-04-25T14:31:42.086Z</time></trkpt><trkpt lat="44.639852" lon="7.9353075"><ele>448.0</ele><time>2026-04-25T14:31:43.085Z</time></trkpt><trkpt lat="44.6397238" lon="7.9354069"><ele>448.0</ele><time>2026-04-25T14:31:44.085Z</time></trkpt><trkpt lat="44.6396123" lon="7.9355358"><ele>448.0</ele><time>2026-04-25T14:31:45.086Z</time></trkpt><trkpt lat="44.6395001" lon="7.9356831"><ele>448.0</ele><time>2026-04-25T14:31:46.085Z</time></trkpt><trkpt lat="44.6393893" lon="7.9358337"><ele>446.0</ele><time>2026-04-25T14:31:47.086Z</time></trkpt><trkpt lat="44.6392805" lon="7.9359958"><ele>444.0</ele><time>2026-04-25T14:31:48.086Z</time></trkpt><trkpt lat="44.6391786" lon="7.9361474"><ele>442.0</ele><time>2026-04-25T14:31:49.085Z</time></trkpt><trkpt lat="44.6390771" lon="7.9362867"><ele>440.0</ele><time>2026-04-25T14:31:50.086Z</time></trkpt><trkpt lat="44.638983" lon="7.9364184"><ele>440.0</ele><time>2026-04-25T14:31:51.086Z</time></trkpt><trkpt lat="44.6388914" lon="7.9365531"><ele>440.0</ele><time>2026-04-25T14:31:52.085Z</time></trkpt><trkpt lat="44.6388056" lon="7.9366855"><ele>440.0</ele><time>2026-04-25T14:31:53.085Z</time></trkpt><trkpt lat="44.6387167" lon="7.9368049"><ele>440.0</ele><time>2026-04-25T14:31:54.086Z</time></trkpt><trkpt lat="44.6386356" lon="7.9369091"><ele>437.5</ele><time>2026-04-25T14:31:55.086Z</time></trkpt><trkpt lat="44.6384812" lon="7.9369786"><ele>435.0</ele><time>2026-04-25T14:31:56.086Z</time></trkpt><trkpt lat="44.6383684" lon="7.9370351"><ele>432.5</ele><time>2026-04-25T14:31:57.086Z</time></trkpt><trkpt lat="44.6382516" lon="7.9370533"><ele>430.0</ele><time>2026-04-25T14:31:58.086Z</time></trkpt><trkpt lat="44.6381205" lon="7.9370338"><ele>430.0</ele><time>2026-04-25T14:31:59.086Z</time></trkpt><trkpt lat="44.6379892" lon="7.9369733"><ele>430.0</ele><time>2026-04-25T14:32:00.086Z</time></trkpt><trkpt lat="44.637854" lon="7.9368996"><ele>430.0</ele><time>2026-04-25T14:32:01.086Z</time></trkpt><trkpt lat="44.6377187" lon="7.9368295"><ele>430.0</ele><time>2026-04-25T14:32:02.086Z</time></trkpt><trkpt lat="44.6375793" lon="7.9367576"><ele>431.75</ele><time>2026-04-25T14:32:03.086Z</time></trkpt><trkpt lat="44.6374573" lon="7.9366702"><ele>433.5</ele><time>2026-04-25T14:32:04.085Z</time></trkpt><trkpt lat="44.6373481" lon="7.9366171"><ele>435.25</ele><time>2026-04-25T14:32:05.086Z</time></trkpt><trkpt lat="44.6372322" lon="7.936538"><ele>437.0</ele><time>2026-04-25T14:32:06.085Z</time></trkpt><trkpt lat="44.6371509" lon="7.9365112"><ele>436.99999999999994</ele><time>2026-04-25T14:32:07.085Z</time></trkpt><trkpt lat="44.637076" lon="7.9364973"><ele>437.0</ele><time>2026-04-25T14:32:08.086Z</time></trkpt><trkpt lat="44.6370033" lon="7.9365211"><ele>437.0</ele><time>2026-04-25T14:32:09.085Z</time></trkpt><trkpt lat="44.6369255" lon="7.9365847"><ele>437.0</ele><time>2026-04-25T14:32:10.085Z</time></trkpt><trkpt lat="44.6368748" lon="7.9366705"><ele>436.99999999999994</ele><time>2026-04-25T14:32:11.086Z</time></trkpt><trkpt lat="44.6368365" lon="7.9367904"><ele>437.0</ele><time>2026-04-25T14:32:12.085Z</time></trkpt><trkpt lat="44.6368366" lon="7.936911"><ele>433.20000000000005</ele><time>2026-04-25T14:32:13.086Z</time></trkpt><trkpt lat="44.6368519" lon="7.9370353"><ele>429.40000000000003</ele><time>2026-04-25T14:32:14.086Z</time></trkpt><trkpt lat="44.6369129" lon="7.9371517"><ele>425.6</ele><time>2026-04-25T14:32:15.086Z</time></trkpt><trkpt lat="44.6369843" lon="7.9372579"><ele>421.79999999999995</ele><time>2026-04-25T14:32:16.086Z</time></trkpt><trkpt lat="44.6370722" lon="7.9373672"><ele>418.0</ele><time>2026-04-25T14:32:17.086Z</time></trkpt><trkpt lat="44.6371689" lon="7.9374946"><ele>414.75</ele><time>2026-04-25T14:32:18.085Z</time></trkpt><trkpt lat="44.6372699" lon="7.9376207"><ele>411.5</ele><time>2026-04-25T14:32:19.085Z</time></trkpt><trkpt lat="44.6373702" lon="7.937757"><ele>408.25</ele><time>2026-04-25T14:32:20.085Z</time></trkpt><trkpt lat="44.637475" lon="7.9378869"><ele>405.0</ele><time>2026-04-25T14:32:21.085Z</time></trkpt><trkpt lat="44.6375713" lon="7.9380086"><ele>405.0</ele><time>2026-04-25T14:32:22.086Z</time></trkpt><trkpt lat="44.6376689" lon="7.9381392"><ele>405.0</ele><time>2026-04-25T14:32:23.086Z</time></trkpt><trkpt lat="44.6377643" lon="7.9382644"><ele>405.0</ele><time>2026-04-25T14:32:24.086Z</time></trkpt><trkpt lat="44.6378427" lon="7.9383814"><ele>405.0</ele><time>2026-04-25T14:32:25.086Z</time></trkpt><trkpt lat="44.6379207" lon="7.938484"><ele>403.4</ele><time>2026-04-25T14:32:26.086Z</time></trkpt><trkpt lat="44.6379836" lon="7.9385907"><ele>401.8</ele><time>2026-04-25T14:32:27.086Z</time></trkpt><trkpt lat="44.6380333" lon="7.938706"><ele>400.20000000000005</ele><time>2026-04-25T14:32:28.085Z</time></trkpt><trkpt lat="44.6380652" lon="7.9388178"><ele>398.6</ele><time>2026-04-25T14:32:29.085Z</time></trkpt><trkpt lat="44.6380775" lon="7.938943"><ele>397.0</ele><time>2026-04-25T14:32:30.085Z</time></trkpt><trkpt lat="44.6380713" lon="7.9390857"><ele>394.0</ele><time>2026-04-25T14:32:31.086Z</time></trkpt><trkpt lat="44.6380434" lon="7.9392458"><ele>391.0</ele><time>2026-04-25T14:32:32.086Z</time></trkpt><trkpt lat="44.6379843" lon="7.9394124"><ele>388.0</ele><time>2026-04-25T14:32:33.086Z</time></trkpt><trkpt lat="44.6379295" lon="7.9395816"><ele>385.0</ele><time>2026-04-25T14:32:34.086Z</time></trkpt><trkpt lat="44.6378576" lon="7.9397445"><ele>385.25</ele><time>2026-04-25T14:32:35.086Z</time></trkpt><trkpt lat="44.6377952" lon="7.9399234"><ele>385.5</ele><time>2026-04-25T14:32:36.086Z</time></trkpt><trkpt lat="44.6377344" lon="7.9401171"><ele>385.75</ele><time>2026-04-25T14:32:37.086Z</time></trkpt><trkpt lat="44.6376685" lon="7.9402941"><ele>386.0</ele><time>2026-04-25T14:32:38.086Z</time></trkpt><trkpt lat="44.6375935" lon="7.940471"><ele>386.0</ele><time>2026-04-25T14:32:39.085Z</time></trkpt><trkpt lat="44.6375231" lon="7.9406497"><ele>386.0</ele><time>2026-04-25T14:32:40.086Z</time></trkpt><trkpt lat="44.6374624" lon="7.9408475"><ele>386.0</ele><time>2026-04-25T14:32:41.085Z</time></trkpt><trkpt lat="44.6373895" lon="7.9410256"><ele>386.0</ele><time>2026-04-25T14:32:42.086Z</time></trkpt><trkpt lat="44.6373198" lon="7.9411975"><ele>385.0</ele><time>2026-04-25T14:32:43.086Z</time></trkpt><trkpt lat="44.6372647" lon="7.9413844"><ele>384.0</ele><time>2026-04-25T14:32:44.086Z</time></trkpt><trkpt lat="44.6372008" lon="7.9415196"><ele>383.0</ele><time>2026-04-25T14:32:45.086Z</time></trkpt><trkpt lat="44.6371477" lon="7.9416471"><ele>382.0</ele><time>2026-04-25T14:32:46.085Z</time></trkpt><trkpt lat="44.6371108" lon="7.9417696"><ele>380.3333333333333</ele><time>2026-04-25T14:32:47.086Z</time></trkpt><trkpt lat="44.6370859" lon="7.9418799"><ele>378.66666666666663</ele><time>2026-04-25T14:32:48.086Z</time></trkpt><trkpt lat="44.6370852" lon="7.9419956"><ele>377.0</ele><time>2026-04-25T14:32:49.086Z</time></trkpt><trkpt lat="44.6371157" lon="7.9421106"><ele>375.3333333333333</ele><time>2026-04-25T14:32:50.086Z</time></trkpt><trkpt lat="44.6371763" lon="7.9422063"><ele>373.6666666666667</ele><time>2026-04-25T14:32:51.086Z</time></trkpt><trkpt lat="44.637263" lon="7.9422788"><ele>372.0</ele><time>2026-04-25T14:32:52.086Z</time></trkpt><trkpt lat="44.6373593" lon="7.9423028"><ele>372.0</ele><time>2026-04-25T14:32:53.085Z</time></trkpt><trkpt lat="44.6374627" lon="7.942283"><ele>372.0</ele><time>2026-04-25T14:32:54.086Z</time></trkpt><trkpt lat="44.6375756" lon="7.9422273"><ele>372.0</ele><time>2026-04-25T14:32:55.086Z</time></trkpt><trkpt lat="44.6376847" lon="7.9421476"><ele>372.0</ele><time>2026-04-25T14:32:56.086Z</time></trkpt><trkpt lat="44.6378125" lon="7.9420697"><ele>370.25</ele><time>2026-04-25T14:32:57.085Z</time></trkpt><trkpt lat="44.6379387" lon="7.9419817"><ele>368.5</ele><time>2026-04-25T14:32:58.086Z</time></trkpt><trkpt lat="44.6380681" lon="7.9418954"><ele>366.75</ele><time>2026-04-25T14:32:59.086Z</time></trkpt><trkpt lat="44.6381851" lon="7.9418111"><ele>365.0</ele><time>2026-04-25T14:33:00.086Z</time></trkpt><trkpt lat="44.6383024" lon="7.941727"><ele>363.8</ele><time>2026-04-25T14:33:01.085Z</time></trkpt><trkpt lat="44.6383997" lon="7.9416632"><ele>362.6</ele><time>2026-04-25T14:33:02.086Z</time></trkpt><trkpt lat="44.6384882" lon="7.9415958"><ele>361.4</ele><time>2026-04-25T14:33:03.086Z</time></trkpt><trkpt lat="44.6385725" lon="7.9415532"><ele>360.2</ele><time>2026-04-25T14:33:04.086Z</time></trkpt><trkpt lat="44.6386567" lon="7.9415537"><ele>359.0</ele><time>2026-04-25T14:33:05.086Z</time></trkpt><trkpt lat="44.638728" lon="7.9415718"><ele>359.0</ele><time>2026-04-25T14:33:06.086Z</time></trkpt><trkpt lat="44.6387946" lon="7.9416293"><ele>359.0</ele><time>2026-04-25T14:33:07.086Z</time></trkpt><trkpt lat="44.6388274" lon="7.9417242"><ele>359.0</ele><time>2026-04-25T14:33:08.086Z</time></trkpt><trkpt lat="44.6388309" lon="7.9418376"><ele>359.0</ele><time>2026-04-25T14:33:09.085Z</time></trkpt><trkpt lat="44.6387924" lon="7.9419739"><ele>359.0</ele><time>2026-04-25T14:33:10.085Z</time></trkpt><trkpt lat="44.6387324" lon="7.9420986"><ele>359.0</ele><time>2026-04-25T14:33:11.085Z</time></trkpt><trkpt lat="44.6386562" lon="7.9422318"><ele>360.5</ele><time>2026-04-25T14:33:12.086Z</time></trkpt><trkpt lat="44.6385734" lon="7.9423655"><ele>362.0</ele><time>2026-04-25T14:33:13.086Z</time></trkpt><trkpt lat="44.6384941" lon="7.9425056"><ele>363.5</ele><time>2026-04-25T14:33:14.085Z</time></trkpt><trkpt lat="44.6384103" lon="7.942641"><ele>365.0</ele><time>2026-04-25T14:33:15.086Z</time></trkpt><trkpt lat="44.6383237" lon="7.9427761"><ele>361.0</ele><time>2026-04-25T14:33:16.085Z</time></trkpt><trkpt lat="44.6382127" lon="7.9428933"><ele>357.0</ele><time>2026-04-25T14:33:17.085Z</time></trkpt><trkpt lat="44.638086" lon="7.9429918"><ele>353.0</ele><time>2026-04-25T14:33:18.085Z</time></trkpt><trkpt lat="44.6379508" lon="7.9430824"><ele>349.0</ele><time>2026-04-25T14:33:19.085Z</time></trkpt><trkpt lat="44.637819" lon="7.9431635"><ele>350.75</ele><time>2026-04-25T14:33:20.085Z</time></trkpt><trkpt lat="44.6376868" lon="7.9432403"><ele>352.5</ele><time>2026-04-25T14:33:21.086Z</time></trkpt><trkpt lat="44.63756" lon="7.9433119"><ele>354.25</ele><time>2026-04-25T14:33:22.086Z</time></trkpt><trkpt lat="44.6374511" lon="7.9433734"><ele>356.0</ele><time>2026-04-25T14:33:23.086Z</time></trkpt><trkpt lat="44.6373487" lon="7.9434339"><ele>353.6666666666667</ele><time>2026-04-25T14:33:24.086Z</time></trkpt><trkpt lat="44.6372582" lon="7.9434862"><ele>351.33333333333337</ele><time>2026-04-25T14:33:25.086Z</time></trkpt><trkpt lat="44.6371757" lon="7.9435376"><ele>349.0</ele><time>2026-04-25T14:33:26.086Z</time></trkpt><trkpt lat="44.6371079" lon="7.9435997"><ele>346.6666666666667</ele><time>2026-04-25T14:33:27.086Z</time></trkpt><trkpt lat="44.6370612" lon="7.9436741"><ele>344.3333333333333</ele><time>2026-04-25T14:33:28.086Z</time></trkpt><trkpt lat="44.6370495" lon="7.9437698"><ele>342.0</ele><time>2026-04-25T14:33:29.086Z</time></trkpt><trkpt lat="44.6370433" lon="7.9438699"><ele>342.0</ele><time>2026-04-25T14:33:30.086Z</time></trkpt><trkpt lat="44.6371132" lon="7.9439434"><ele>342.0</ele><time>2026-04-25T14:33:31.086Z</time></trkpt><trkpt lat="44.6371972" lon="7.9439989"><ele>342.0</ele><time>2026-04-25T14:33:32.086Z</time></trkpt><trkpt lat="44.6373059" lon="7.9440221"><ele>342.0</ele><time>2026-04-25T14:33:33.086Z</time></trkpt><trkpt lat="44.6374305" lon="7.944024"><ele>342.0</ele><time>2026-04-25T14:33:34.086Z</time></trkpt><trkpt lat="44.6375659" lon="7.9440152"><ele>342.0</ele><time>2026-04-25T14:33:35.086Z</time></trkpt><trkpt lat="44.6377086" lon="7.9440012"><ele>342.0</ele><time>2026-04-25T14:33:36.085Z</time></trkpt><trkpt lat="44.6378646" lon="7.9439937"><ele>342.0</ele><time>2026-04-25T14:33:37.086Z</time></trkpt><trkpt lat="44.6380233" lon="7.9439697"><ele>341.0</ele><time>2026-04-25T14:33:38.086Z</time></trkpt><trkpt lat="44.6381799" lon="7.9439534"><ele>340.0</ele><time>2026-04-25T14:33:39.086Z</time></trkpt><trkpt lat="44.6383318" lon="7.9439369"><ele>339.0</ele><time>2026-04-25T14:33:40.085Z</time></trkpt><trkpt lat="44.6384832" lon="7.9439219"><ele>339.0</ele><time>2026-04-25T14:33:41.085Z</time></trkpt><trkpt lat="44.6386171" lon="7.9439092"><ele>339.0</ele><time>2026-04-25T14:33:42.086Z</time></trkpt><trkpt lat="44.6387314" lon="7.9438981"><ele>339.0</ele><time>2026-04-25T14:33:43.086Z</time></trkpt><trkpt lat="44.6388311" lon="7.9439018"><ele>339.0</ele><time>2026-04-25T14:33:44.086Z</time></trkpt><trkpt lat="44.6389218" lon="7.9439017"><ele>339.0</ele><time>2026-04-25T14:33:45.086Z</time></trkpt><trkpt lat="44.6390047" lon="7.943913"><ele>337.79999999999995</ele><time>2026-04-25T14:33:46.086Z</time></trkpt><trkpt lat="44.6390838" lon="7.94395"><ele>336.59999999999997</ele><time>2026-04-25T14:33:47.086Z</time></trkpt><trkpt lat="44.6391529" lon="7.9440213"><ele>335.4</ele><time>2026-04-25T14:33:48.085Z</time></trkpt><trkpt lat="44.6392118" lon="7.9441284"><ele>334.2</ele><time>2026-04-25T14:33:49.086Z</time></trkpt><trkpt lat="44.6392429" lon="7.9442578"><ele>333.0</ele><time>2026-04-25T14:33:50.086Z</time></trkpt><trkpt lat="44.6392513" lon="7.9444045"><ele>332.59999999999997</ele><time>2026-04-25T14:33:51.086Z</time></trkpt><trkpt lat="44.6392348" lon="7.9445414"><ele>332.2</ele><time>2026-04-25T14:33:52.086Z</time></trkpt><trkpt lat="44.639201" lon="7.944662"><ele>331.8</ele><time>2026-04-25T14:33:53.086Z</time></trkpt><trkpt lat="44.6391492" lon="7.9447646"><ele>331.4</ele><time>2026-04-25T14:33:54.086Z</time></trkpt><trkpt lat="44.6390737" lon="7.9448402"><ele>331.0</ele><time>2026-04-25T14:33:55.086Z</time></trkpt><trkpt lat="44.6389835" lon="7.9448907"><ele>331.0</ele><time>2026-04-25T14:33:56.086Z</time></trkpt><trkpt lat="44.6388829" lon="7.9449302"><ele>331.0</ele><time>2026-04-25T14:33:57.086Z</time></trkpt><trkpt lat="44.6387794" lon="7.9449724"><ele>331.0</ele><time>2026-04-25T14:33:58.086Z</time></trkpt><trkpt lat="44.6386718" lon="7.9450301"><ele>331.0</ele><time>2026-04-25T14:33:59.086Z</time></trkpt><trkpt lat="44.6385499" lon="7.9451079"><ele>328.5</ele><time>2026-04-25T14:34:00.086Z</time></trkpt><trkpt lat="44.6384279" lon="7.9452115"><ele>326.0</ele><time>2026-04-25T14:34:01.086Z</time></trkpt><trkpt lat="44.6383093" lon="7.9453376"><ele>323.5</ele><time>2026-04-25T14:34:02.086Z</time></trkpt><trkpt lat="44.6381885" lon="7.9454705"><ele>321.0</ele><time>2026-04-25T14:34:03.086Z</time></trkpt><trkpt lat="44.6380666" lon="7.9456021"><ele>321.0</ele><time>2026-04-25T14:34:04.086Z</time></trkpt><trkpt lat="44.6379371" lon="7.9457415"><ele>321.0</ele><time>2026-04-25T14:34:05.086Z</time></trkpt><trkpt lat="44.6378098" lon="7.9458778"><ele>321.0</ele><time>2026-04-25T14:34:06.086Z</time></trkpt><trkpt lat="44.6376835" lon="7.9460066"><ele>316.6666666666667</ele><time>2026-04-25T14:34:07.086Z</time></trkpt><trkpt lat="44.6375681" lon="7.946129"><ele>312.33333333333337</ele><time>2026-04-25T14:34:08.086Z</time></trkpt><trkpt lat="44.6374415" lon="7.9462682"><ele>308.0</ele><time>2026-04-25T14:34:09.085Z</time></trkpt><trkpt lat="44.637322" lon="7.9464089"><ele>308.0</ele><time>2026-04-25T14:34:10.086Z</time></trkpt><trkpt lat="44.6371931" lon="7.9465386"><ele>308.0</ele><time>2026-04-25T14:34:11.086Z</time></trkpt><trkpt lat="44.6370802" lon="7.9466663"><ele>308.0</ele><time>2026-04-25T14:34:12.085Z</time></trkpt><trkpt lat="44.6369712" lon="7.9468062"><ele>307.25</ele><time>2026-04-25T14:34:13.085Z</time></trkpt><trkpt lat="44.6368699" lon="7.9469556"><ele>306.5</ele><time>2026-04-25T14:34:14.086Z</time></trkpt><trkpt lat="44.6367906" lon="7.9471229"><ele>305.75</ele><time>2026-04-25T14:34:15.086Z</time></trkpt><trkpt lat="44.6367268" lon="7.9473089"><ele>305.0</ele><time>2026-04-25T14:34:16.085Z</time></trkpt><trkpt lat="44.636684" lon="7.9475073"><ele>306.0</ele><time>2026-04-25T14:34:17.086Z</time></trkpt><trkpt lat="44.6366698" lon="7.9477215"><ele>307.0</ele><time>2026-04-25T14:34:18.086Z</time></trkpt><trkpt lat="44.6366814" lon="7.9479276"><ele>308.0</ele><time>2026-04-25T14:34:19.086Z</time></trkpt><trkpt lat="44.6367068" lon="7.9481397"><ele>308.0</ele><time>2026-04-25T14:34:20.086Z</time></trkpt><trkpt lat="44.6367621" lon="7.9483357"><ele>308.0</ele><time>2026-04-25T14:34:21.086Z</time></trkpt><trkpt lat="44.6368345" lon="7.9485227"><ele>308.0</ele><time>2026-04-25T14:34:22.085Z</time></trkpt><trkpt lat="44.6369191" lon="7.9487044"><ele>302.33333333333337</ele><time>2026-04-25T14:34:23.086Z</time></trkpt><trkpt lat="44.6370066" lon="7.9488897"><ele>296.6666666666667</ele><time>2026-04-25T14:34:24.086Z</time></trkpt><trkpt lat="44.6370906" lon="7.9490754"><ele>291.0</ele><time>2026-04-25T14:34:25.086Z</time></trkpt><trkpt lat="44.6371667" lon="7.9492479"><ele>290.5</ele><time>2026-04-25T14:34:26.086Z</time></trkpt><trkpt lat="44.6372282" lon="7.9494286"><ele>290.0</ele><time>2026-04-25T14:34:27.085Z</time></trkpt><trkpt lat="44.6372791" lon="7.949613"><ele>289.5</ele><time>2026-04-25T14:34:28.085Z</time></trkpt><trkpt lat="44.6373032" lon="7.9498022"><ele>289.0</ele><time>2026-04-25T14:34:29.086Z</time></trkpt><trkpt lat="44.6373028" lon="7.9499925"><ele>288.5</ele><time>2026-04-25T14:34:30.086Z</time></trkpt><trkpt lat="44.637291" lon="7.9501855"><ele>288.0</ele><time>2026-04-25T14:34:31.086Z</time></trkpt><trkpt lat="44.6372774" lon="7.9503878"><ele>287.5</ele><time>2026-04-25T14:34:32.086Z</time></trkpt><trkpt lat="44.6372631" lon="7.9505671"><ele>287.0</ele><time>2026-04-25T14:34:33.086Z</time></trkpt><trkpt lat="44.6372392" lon="7.9507521"><ele>285.75</ele><time>2026-04-25T14:34:34.086Z</time></trkpt><trkpt lat="44.6372001" lon="7.9509047"><ele>284.5</ele><time>2026-04-25T14:34:35.086Z</time></trkpt><trkpt lat="44.6371561" lon="7.9510567"><ele>283.25</ele><time>2026-04-25T14:34:36.086Z</time></trkpt><trkpt lat="44.6370649" lon="7.9511725"><ele>282.0</ele><time>2026-04-25T14:34:37.086Z</time></trkpt><trkpt lat="44.6369707" lon="7.9512651"><ele>283.25</ele><time>2026-04-25T14:34:38.085Z</time></trkpt><trkpt lat="44.6368516" lon="7.9513602"><ele>284.5</ele><time>2026-04-25T14:34:39.086Z</time></trkpt><trkpt lat="44.6367368" lon="7.9514594"><ele>285.75</ele><time>2026-04-25T14:34:40.086Z</time></trkpt><trkpt lat="44.6365987" lon="7.9515389"><ele>287.0</ele><time>2026-04-25T14:34:41.086Z</time></trkpt><trkpt lat="44.6364619" lon="7.9516356"><ele>286.5</ele><time>2026-04-25T14:34:42.086Z</time></trkpt><trkpt lat="44.6363285" lon="7.9517272"><ele>286.0</ele><time>2026-04-25T14:34:43.086Z</time></trkpt><trkpt lat="44.6361957" lon="7.9518125"><ele>285.5</ele><time>2026-04-25T14:34:44.085Z</time></trkpt><trkpt lat="44.6360673" lon="7.9519003"><ele>285.0</ele><time>2026-04-25T14:34:45.086Z</time></trkpt><trkpt lat="44.6359504" lon="7.9519787"><ele>285.0</ele><time>2026-04-25T14:34:46.086Z</time></trkpt><trkpt lat="44.6358425" lon="7.952063"><ele>285.0</ele><time>2026-04-25T14:34:47.086Z</time></trkpt><trkpt lat="44.6357445" lon="7.9521603"><ele>285.0</ele><time>2026-04-25T14:34:48.086Z</time></trkpt><trkpt lat="44.6356767" lon="7.9522799"><ele>285.0</ele><time>2026-04-25T14:34:49.086Z</time></trkpt><trkpt lat="44.6356235" lon="7.9524205"><ele>284.0</ele><time>2026-04-25T14:34:50.086Z</time></trkpt><trkpt lat="44.6355934" lon="7.9525642"><ele>283.0</ele><time>2026-04-25T14:34:51.086Z</time></trkpt><trkpt lat="44.6355787" lon="7.9527433"><ele>282.0</ele><time>2026-04-25T14:34:52.085Z</time></trkpt><trkpt lat="44.6356133" lon="7.9529037"><ele>281.0</ele><time>2026-04-25T14:34:53.086Z</time></trkpt><trkpt lat="44.6356768" lon="7.953064"><ele>281.0</ele><time>2026-04-25T14:34:54.086Z</time></trkpt><trkpt lat="44.6357597" lon="7.953199"><ele>281.0</ele><time>2026-04-25T14:34:55.086Z</time></trkpt><trkpt lat="44.6358695" lon="7.953308"><ele>281.0</ele><time>2026-04-25T14:34:56.086Z</time></trkpt><trkpt lat="44.6359901" lon="7.9534086"><ele>281.0</ele><time>2026-04-25T14:34:57.086Z</time></trkpt><trkpt lat="44.6360999" lon="7.9535055"><ele>279.75</ele><time>2026-04-25T14:34:58.085Z</time></trkpt><trkpt lat="44.6362128" lon="7.9536096"><ele>278.5</ele><time>2026-04-25T14:34:59.085Z</time></trkpt><trkpt lat="44.6363169" lon="7.9537016"><ele>277.25</ele><time>2026-04-25T14:35:00.085Z</time></trkpt><trkpt lat="44.6364187" lon="7.9537905"><ele>276.0</ele><time>2026-04-25T14:35:01.086Z</time></trkpt><trkpt lat="44.6365216" lon="7.9538844"><ele>276.0</ele><time>2026-04-25T14:35:02.086Z</time></trkpt><trkpt lat="44.6366188" lon="7.9539933"><ele>276.0</ele><time>2026-04-25T14:35:03.086Z</time></trkpt><trkpt lat="44.6367067" lon="7.95411"><ele>276.0</ele><time>2026-04-25T14:35:04.086Z</time></trkpt><trkpt lat="44.6367881" lon="7.9542292"><ele>276.0</ele><time>2026-04-25T14:35:05.086Z</time></trkpt><trkpt lat="44.6368588" lon="7.9543539"><ele>274.8333333333333</ele><time>2026-04-25T14:35:06.086Z</time></trkpt><trkpt lat="44.636926" lon="7.9544793"><ele>273.6666666666667</ele><time>2026-04-25T14:35:07.085Z</time></trkpt><trkpt lat="44.6369874" lon="7.9545875"><ele>272.5</ele><time>2026-04-25T14:35:08.086Z</time></trkpt><trkpt lat="44.6370437" lon="7.954688"><ele>271.33333333333337</ele><time>2026-04-25T14:35:09.085Z</time></trkpt><trkpt lat="44.6370939" lon="7.9547646"><ele>270.1666666666667</ele><time>2026-04-25T14:35:10.086Z</time></trkpt><trkpt lat="44.6371317" lon="7.9548497"><ele>269.0</ele><time>2026-04-25T14:35:11.085Z</time></trkpt><trkpt lat="44.6371595" lon="7.9549409"><ele>269.33333333333337</ele><time>2026-04-25T14:35:12.086Z</time></trkpt><trkpt lat="44.6371408" lon="7.9550962"><ele>269.6666666666667</ele><time>2026-04-25T14:35:14.085Z</time></trkpt><trkpt lat="44.6370668" lon="7.9551815"><ele>270.0</ele><time>2026-04-25T14:35:16.086Z</time></trkpt><trkpt lat="44.6370037" lon="7.9551923"><ele>270.3333333333333</ele><time>2026-04-25T14:35:17.086Z</time></trkpt><trkpt lat="44.6369258" lon="7.9551829"><ele>270.66666666666663</ele><time>2026-04-25T14:35:18.086Z</time></trkpt><trkpt lat="44.636841" lon="7.9551635"><ele>271.0</ele><time>2026-04-25T14:35:19.086Z</time></trkpt><trkpt lat="44.6367531" lon="7.9550955"><ele>270.6</ele><time>2026-04-25T14:35:20.086Z</time></trkpt><trkpt lat="44.6366611" lon="7.955035"><ele>270.20000000000005</ele><time>2026-04-25T14:35:21.086Z</time></trkpt><trkpt lat="44.6365728" lon="7.9549659"><ele>269.79999999999995</ele><time>2026-04-25T14:35:22.085Z</time></trkpt><trkpt lat="44.6364902" lon="7.9548906"><ele>269.4</ele><time>2026-04-25T14:35:23.086Z</time></trkpt><trkpt lat="44.6364211" lon="7.9548273"><ele>269.0</ele><time>2026-04-25T14:35:24.085Z</time></trkpt><trkpt lat="44.6363615" lon="7.9547834"><ele>269.0</ele><time>2026-04-25T14:35:25.086Z</time></trkpt><trkpt lat="44.6362635" lon="7.9547596"><ele>269.0</ele><time>2026-04-25T14:35:27.086Z</time></trkpt><trkpt lat="44.6361732" lon="7.9548665"><ele>269.0</ele><time>2026-04-25T14:35:29.086Z</time></trkpt><trkpt lat="44.6361955" lon="7.9550467"><ele>269.0</ele><time>2026-04-25T14:35:31.086Z</time></trkpt><trkpt lat="44.6362514" lon="7.9551283"><ele>269.0</ele><time>2026-04-25T14:35:32.085Z</time></trkpt><trkpt lat="44.6363217" lon="7.9552021"><ele>266.4</ele><time>2026-04-25T14:35:33.086Z</time></trkpt><trkpt lat="44.6363963" lon="7.9552745"><ele>263.79999999999995</ele><time>2026-04-25T14:35:34.086Z</time></trkpt><trkpt lat="44.6364702" lon="7.9553695"><ele>261.20000000000005</ele><time>2026-04-25T14:35:35.086Z</time></trkpt><trkpt lat="44.6365343" lon="7.9554623"><ele>258.6</ele><time>2026-04-25T14:35:36.086Z</time></trkpt><trkpt lat="44.6365979" lon="7.9555691"><ele>256.0</ele><time>2026-04-25T14:35:37.086Z</time></trkpt><trkpt lat="44.6366548" lon="7.9556846"><ele>256.0</ele><time>2026-04-25T14:35:38.086Z</time></trkpt><trkpt lat="44.6366977" lon="7.9558263"><ele>256.0</ele><time>2026-04-25T14:35:39.085Z</time></trkpt><trkpt lat="44.6367257" lon="7.9559783"><ele>256.0</ele><time>2026-04-25T14:35:40.086Z</time></trkpt><trkpt lat="44.6367215" lon="7.9561404"><ele>256.0</ele><time>2026-04-25T14:35:41.086Z</time></trkpt><trkpt lat="44.6367056" lon="7.9563093"><ele>254.5</ele><time>2026-04-25T14:35:42.086Z</time></trkpt><trkpt lat="44.6366641" lon="7.9564637"><ele>253.0</ele><time>2026-04-25T14:35:43.086Z</time></trkpt><trkpt lat="44.6366108" lon="7.9566244"><ele>251.5</ele><time>2026-04-25T14:35:44.086Z</time></trkpt><trkpt lat="44.6365355" lon="7.9567564"><ele>250.0</ele><time>2026-04-25T14:35:45.086Z</time></trkpt><trkpt lat="44.6364504" lon="7.9568722"><ele>249.25</ele><time>2026-04-25T14:35:46.086Z</time></trkpt><trkpt lat="44.6363384" lon="7.9569603"><ele>248.5</ele><time>2026-04-25T14:35:47.086Z</time></trkpt><trkpt lat="44.6362189" lon="7.9570592"><ele>247.75</ele><time>2026-04-25T14:35:48.086Z</time></trkpt><trkpt lat="44.6360931" lon="7.9571463"><ele>247.0</ele><time>2026-04-25T14:35:49.086Z</time></trkpt><trkpt lat="44.6359728" lon="7.9572276"><ele>247.0</ele><time>2026-04-25T14:35:50.086Z</time></trkpt><trkpt lat="44.6358554" lon="7.9573074"><ele>247.0</ele><time>2026-04-25T14:35:51.085Z</time></trkpt><trkpt lat="44.635738" lon="7.9574047"><ele>247.0</ele><time>2026-04-25T14:35:52.085Z</time></trkpt><trkpt lat="44.6356202" lon="7.9575238"><ele>247.0</ele><time>2026-04-25T14:35:53.086Z</time></trkpt><trkpt lat="44.6355154" lon="7.957644"><ele>248.75</ele><time>2026-04-25T14:35:54.086Z</time></trkpt><trkpt lat="44.6354161" lon="7.9577967"><ele>250.5</ele><time>2026-04-25T14:35:55.085Z</time></trkpt><trkpt lat="44.635323" lon="7.9579464"><ele>252.25</ele><time>2026-04-25T14:35:56.086Z</time></trkpt><trkpt lat="44.6352297" lon="7.9580969"><ele>254.0</ele><time>2026-04-25T14:35:57.086Z</time></trkpt><trkpt lat="44.6351548" lon="7.9582664"><ele>249.25</ele><time>2026-04-25T14:35:58.086Z</time></trkpt><trkpt lat="44.635097" lon="7.9584551"><ele>244.5</ele><time>2026-04-25T14:35:59.086Z</time></trkpt><trkpt lat="44.6350566" lon="7.958649"><ele>239.75</ele><time>2026-04-25T14:36:00.086Z</time></trkpt><trkpt lat="44.6350371" lon="7.9588474"><ele>235.0</ele><time>2026-04-25T14:36:01.086Z</time></trkpt><trkpt lat="44.635018" lon="7.9590426"><ele>235.0</ele><time>2026-04-25T14:36:02.086Z</time></trkpt><trkpt lat="44.6349895" lon="7.9592269"><ele>235.0</ele><time>2026-04-25T14:36:03.085Z</time></trkpt><trkpt lat="44.6349441" lon="7.9594138"><ele>235.0</ele><time>2026-04-25T14:36:04.085Z</time></trkpt><trkpt lat="44.6348801" lon="7.9595822"><ele>235.0</ele><time>2026-04-25T14:36:05.085Z</time></trkpt><trkpt lat="44.634798" lon="7.9597406"><ele>235.0</ele><time>2026-04-25T14:36:06.086Z</time></trkpt><trkpt lat="44.6347023" lon="7.959885"><ele>235.0</ele><time>2026-04-25T14:36:07.085Z</time></trkpt><trkpt lat="44.6345961" lon="7.9600196"><ele>235.0</ele><time>2026-04-25T14:36:08.086Z</time></trkpt><trkpt lat="44.6344799" lon="7.9601346"><ele>235.0</ele><time>2026-04-25T14:36:09.085Z</time></trkpt><trkpt lat="44.6343691" lon="7.9602473"><ele>232.75</ele><time>2026-04-25T14:36:10.086Z</time></trkpt><trkpt lat="44.6342705" lon="7.9603685"><ele>230.5</ele><time>2026-04-25T14:36:11.086Z</time></trkpt><trkpt lat="44.6341765" lon="7.9605258"><ele>228.25</ele><time>2026-04-25T14:36:12.086Z</time></trkpt><trkpt lat="44.6340922" lon="7.9606875"><ele>226.0</ele><time>2026-04-25T14:36:13.086Z</time></trkpt><trkpt lat="44.6340272" lon="7.9608543"><ele>226.75</ele><time>2026-04-25T14:36:14.085Z</time></trkpt><trkpt lat="44.6339505" lon="7.9610032"><ele>227.5</ele><time>2026-04-25T14:36:15.086Z</time></trkpt><trkpt lat="44.6338801" lon="7.9611482"><ele>228.25</ele><time>2026-04-25T14:36:16.086Z</time></trkpt><trkpt lat="44.6338257" lon="7.9612824"><ele>229.0</ele><time>2026-04-25T14:36:17.085Z</time></trkpt><trkpt lat="44.6337873" lon="7.9614174"><ele>228.99999999999997</ele><time>2026-04-25T14:36:18.085Z</time></trkpt><trkpt lat="44.6337895" lon="7.9615525"><ele>229.0</ele><time>2026-04-25T14:36:19.086Z</time></trkpt><trkpt lat="44.6338054" lon="7.9616747"><ele>229.0</ele><time>2026-04-25T14:36:20.086Z</time></trkpt><trkpt lat="44.6338261" lon="7.9617879"><ele>229.0</ele><time>2026-04-25T14:36:21.086Z</time></trkpt><trkpt lat="44.633849" lon="7.9618987"><ele>228.99999999999997</ele><time>2026-04-25T14:36:22.086Z</time></trkpt><trkpt lat="44.6338468" lon="7.9619972"><ele>229.0</ele><time>2026-04-25T14:36:23.085Z</time></trkpt><trkpt lat="44.6337694" lon="7.9621248"><ele>227.2</ele><time>2026-04-25T14:36:25.086Z</time></trkpt><trkpt lat="44.6336403" lon="7.962107"><ele>225.39999999999998</ele><time>2026-04-25T14:36:27.085Z</time></trkpt><trkpt lat="44.6335923" lon="7.9620104"><ele>223.6</ele><time>2026-04-25T14:36:28.085Z</time></trkpt><trkpt lat="44.6335419" lon="7.9618937"><ele>221.8</ele><time>2026-04-25T14:36:29.086Z</time></trkpt><trkpt lat="44.6334821" lon="7.9617483"><ele>220.0</ele><time>2026-04-25T14:36:30.086Z</time></trkpt><trkpt lat="44.6334058" lon="7.9616305"><ele>218.25</ele><time>2026-04-25T14:36:31.085Z</time></trkpt><trkpt lat="44.6333042" lon="7.9615299"><ele>216.5</ele><time>2026-04-25T14:36:32.085Z</time></trkpt><trkpt lat="44.6331937" lon="7.9614631"><ele>214.75</ele><time>2026-04-25T14:36:33.086Z</time></trkpt><trkpt lat="44.6330818" lon="7.9614235"><ele>213.0</ele><time>2026-04-25T14:36:34.086Z</time></trkpt><trkpt lat="44.6329551" lon="7.9614047"><ele>213.0</ele><time>2026-04-25T14:36:35.086Z</time></trkpt><trkpt lat="44.6328211" lon="7.9614051"><ele>213.0</ele><time>2026-04-25T14:36:36.085Z</time></trkpt><trkpt lat="44.6326727" lon="7.961407"><ele>213.0</ele><time>2026-04-25T14:36:37.086Z</time></trkpt><trkpt lat="44.6325257" lon="7.9614052"><ele>213.0</ele><time>2026-04-25T14:36:38.086Z</time></trkpt><trkpt lat="44.6323825" lon="7.961407"><ele>212.75</ele><time>2026-04-25T14:36:39.086Z</time></trkpt><trkpt lat="44.632245" lon="7.9614117"><ele>212.5</ele><time>2026-04-25T14:36:40.085Z</time></trkpt><trkpt lat="44.6321305" lon="7.9614039"><ele>212.25</ele><time>2026-04-25T14:36:41.086Z</time></trkpt><trkpt lat="44.6320211" lon="7.9613973"><ele>212.0</ele><time>2026-04-25T14:36:42.086Z</time></trkpt><trkpt lat="44.6318992" lon="7.9613827"><ele>211.39999999999998</ele><time>2026-04-25T14:36:43.086Z</time></trkpt><trkpt lat="44.6317966" lon="7.9613682"><ele>210.79999999999998</ele><time>2026-04-25T14:36:44.086Z</time></trkpt><trkpt lat="44.6316877" lon="7.961324"><ele>210.2</ele><time>2026-04-25T14:36:45.086Z</time></trkpt><trkpt lat="44.6315958" lon="7.9612619"><ele>209.6</ele><time>2026-04-25T14:36:46.086Z</time></trkpt><trkpt lat="44.631498" lon="7.9611806"><ele>209.0</ele><time>2026-04-25T14:36:47.086Z</time></trkpt><trkpt lat="44.631382" lon="7.9610877"><ele>209.0</ele><time>2026-04-25T14:36:48.086Z</time></trkpt><trkpt lat="44.6312697" lon="7.9609775"><ele>209.0</ele><time>2026-04-25T14:36:49.085Z</time></trkpt><trkpt lat="44.631147" lon="7.9608595"><ele>209.0</ele><time>2026-04-25T14:36:50.085Z</time></trkpt><trkpt lat="44.6310247" lon="7.9607437"><ele>209.0</ele><time>2026-04-25T14:36:51.086Z</time></trkpt><trkpt lat="44.6309028" lon="7.9606115"><ele>209.33333333333334</ele><time>2026-04-25T14:36:52.086Z</time></trkpt><trkpt lat="44.6307601" lon="7.9604722"><ele>209.66666666666669</ele><time>2026-04-25T14:36:53.086Z</time></trkpt><trkpt lat="44.6306207" lon="7.9603284"><ele>210.0</ele><time>2026-04-25T14:36:54.086Z</time></trkpt><trkpt lat="44.6304663" lon="7.9601834"><ele>210.0</ele><time>2026-04-25T14:36:55.085Z</time></trkpt><trkpt lat="44.6303084" lon="7.960034"><ele>210.0</ele><time>2026-04-25T14:36:56.086Z</time></trkpt><trkpt lat="44.6301533" lon="7.9598855"><ele>210.0</ele><time>2026-04-25T14:36:57.086Z</time></trkpt><trkpt lat="44.6299947" lon="7.9597303"><ele>210.0</ele><time>2026-04-25T14:36:58.086Z</time></trkpt><trkpt lat="44.6298383" lon="7.9595798"><ele>210.0</ele><time>2026-04-25T14:36:59.085Z</time></trkpt><trkpt lat="44.6296853" lon="7.9594297"><ele>210.0</ele><time>2026-04-25T14:37:00.085Z</time></trkpt><trkpt lat="44.6295252" lon="7.9592923"><ele>211.33333333333331</ele><time>2026-04-25T14:37:01.085Z</time></trkpt><trkpt lat="44.6293728" lon="7.9591491"><ele>212.66666666666666</ele><time>2026-04-25T14:37:02.086Z</time></trkpt><trkpt lat="44.6292238" lon="7.9590026"><ele>214.0</ele><time>2026-04-25T14:37:03.086Z</time></trkpt><trkpt lat="44.6290591" lon="7.9588579"><ele>214.0</ele><time>2026-04-25T14:37:04.085Z</time></trkpt><trkpt lat="44.6289144" lon="7.9587075"><ele>214.0</ele><time>2026-04-25T14:37:05.086Z</time></trkpt><trkpt lat="44.6287708" lon="7.9585708"><ele>214.0</ele><time>2026-04-25T14:37:06.086Z</time></trkpt><trkpt lat="44.6286244" lon="7.9584307"><ele>214.0</ele><time>2026-04-25T14:37:07.086Z</time></trkpt><trkpt lat="44.6284849" lon="7.9582923"><ele>214.0</ele><time>2026-04-25T14:37:08.086Z</time></trkpt><trkpt lat="44.6283428" lon="7.958165"><ele>214.0</ele><time>2026-04-25T14:37:09.085Z</time></trkpt><trkpt lat="44.6282171" lon="7.9580372"><ele>214.0</ele><time>2026-04-25T14:37:10.086Z</time></trkpt><trkpt lat="44.6280913" lon="7.9579213"><ele>214.0</ele><time>2026-04-25T14:37:11.086Z</time></trkpt><trkpt lat="44.6279737" lon="7.9578104"><ele>214.0</ele><time>2026-04-25T14:37:12.086Z</time></trkpt><trkpt lat="44.6278625" lon="7.9577063"><ele>214.0</ele><time>2026-04-25T14:37:13.086Z</time></trkpt><trkpt lat="44.6277617" lon="7.957614"><ele>214.39999999999998</ele><time>2026-04-25T14:37:14.086Z</time></trkpt><trkpt lat="44.6276687" lon="7.9575237"><ele>214.79999999999998</ele><time>2026-04-25T14:37:15.086Z</time></trkpt><trkpt lat="44.6275809" lon="7.9574401"><ele>215.20000000000002</ele><time>2026-04-25T14:37:16.086Z</time></trkpt><trkpt lat="44.6275019" lon="7.9573637"><ele>215.60000000000002</ele><time>2026-04-25T14:37:17.086Z</time></trkpt><trkpt lat="44.6274221" lon="7.9572817"><ele>216.0</ele><time>2026-04-25T14:37:18.086Z</time></trkpt><trkpt lat="44.6273512" lon="7.9572122"><ele>216.0</ele><time>2026-04-25T14:37:19.086Z</time></trkpt><trkpt lat="44.6272861" lon="7.9571448"><ele>216.00000000000003</ele><time>2026-04-25T14:37:20.086Z</time></trkpt><trkpt lat="44.6272184" lon="7.9570655"><ele>216.00000000000003</ele><time>2026-04-25T14:37:21.086Z</time></trkpt><trkpt lat="44.6271326" lon="7.956996"><ele>216.0</ele><time>2026-04-25T14:37:22.086Z</time></trkpt><trkpt lat="44.6270544" lon="7.9569159"><ele>216.0</ele><time>2026-04-25T14:37:23.086Z</time></trkpt><trkpt lat="44.6269915" lon="7.9568155"><ele>216.0</ele><time>2026-04-25T14:37:24.086Z</time></trkpt><trkpt lat="44.6269329" lon="7.9567069"><ele>216.00000000000003</ele><time>2026-04-25T14:37:25.085Z</time></trkpt><trkpt lat="44.626877" lon="7.956589"><ele>216.00000000000003</ele><time>2026-04-25T14:37:26.085Z</time></trkpt><trkpt lat="44.6268274" lon="7.9564762"><ele>216.0</ele><time>2026-04-25T14:37:27.086Z</time></trkpt><trkpt lat="44.6267709" lon="7.9563612"><ele>216.0</ele><time>2026-04-25T14:37:28.086Z</time></trkpt><trkpt lat="44.6267188" lon="7.9562484"><ele>216.0</ele><time>2026-04-25T14:37:29.086Z</time></trkpt><trkpt lat="44.62667" lon="7.9561432"><ele>216.00000000000003</ele><time>2026-04-25T14:37:30.085Z</time></trkpt><trkpt lat="44.6266147" lon="7.9560373"><ele>216.00000000000003</ele><time>2026-04-25T14:37:31.086Z</time></trkpt><trkpt lat="44.6265502" lon="7.955908"><ele>216.0</ele><time>2026-04-25T14:37:32.086Z</time></trkpt><trkpt lat="44.6264748" lon="7.9557555"><ele>216.0</ele><time>2026-04-25T14:37:33.085Z</time></trkpt><trkpt lat="44.6263924" lon="7.9555984"><ele>216.66666666666669</ele><time>2026-04-25T14:37:34.086Z</time></trkpt><trkpt lat="44.6262993" lon="7.9554453"><ele>217.33333333333334</ele><time>2026-04-25T14:37:35.086Z</time></trkpt><trkpt lat="44.6261863" lon="7.9552941"><ele>218.0</ele><time>2026-04-25T14:37:36.086Z</time></trkpt><trkpt lat="44.6260522" lon="7.9551467"><ele>218.75</ele><time>2026-04-25T14:37:37.085Z</time></trkpt><trkpt lat="44.6259236" lon="7.955031"><ele>219.5</ele><time>2026-04-25T14:37:38.086Z</time></trkpt><trkpt lat="44.6257985" lon="7.9549421"><ele>220.25</ele><time>2026-04-25T14:37:39.086Z</time></trkpt><trkpt lat="44.625679" lon="7.9548564"><ele>221.0</ele><time>2026-04-25T14:37:40.086Z</time></trkpt><trkpt lat="44.6255542" lon="7.9547762"><ele>221.0</ele><time>2026-04-25T14:37:41.086Z</time></trkpt><trkpt lat="44.6254298" lon="7.9546991"><ele>221.0</ele><time>2026-04-25T14:37:42.085Z</time></trkpt><trkpt lat="44.6253104" lon="7.9546175"><ele>221.0</ele><time>2026-04-25T14:37:43.086Z</time></trkpt><trkpt lat="44.6252043" lon="7.9545188"><ele>221.0</ele><time>2026-04-25T14:37:44.085Z</time></trkpt><trkpt lat="44.6250916" lon="7.954424"><ele>222.66666666666669</ele><time>2026-04-25T14:37:45.086Z</time></trkpt><trkpt lat="44.624971" lon="7.9543114"><ele>224.33333333333331</ele><time>2026-04-25T14:37:46.086Z</time></trkpt><trkpt lat="44.6248515" lon="7.9541628"><ele>226.0</ele><time>2026-04-25T14:37:47.085Z</time></trkpt><trkpt lat="44.6247207" lon="7.9540077"><ele>227.33333333333331</ele><time>2026-04-25T14:37:48.086Z</time></trkpt><trkpt lat="44.6245988" lon="7.9538324"><ele>228.66666666666669</ele><time>2026-04-25T14:37:49.086Z</time></trkpt><trkpt lat="44.6244705" lon="7.9536589"><ele>230.0</ele><time>2026-04-25T14:37:50.086Z</time></trkpt><trkpt lat="44.6243394" lon="7.9534895"><ele>233.0</ele><time>2026-04-25T14:37:51.086Z</time></trkpt><trkpt lat="44.6242197" lon="7.9533223"><ele>236.0</ele><time>2026-04-25T14:37:52.085Z</time></trkpt><trkpt lat="44.6241093" lon="7.953161"><ele>239.0</ele><time>2026-04-25T14:37:53.086Z</time></trkpt><trkpt lat="44.6240011" lon="7.953014"><ele>239.0</ele><time>2026-04-25T14:37:54.086Z</time></trkpt><trkpt lat="44.6238975" lon="7.9528841"><ele>239.0</ele><time>2026-04-25T14:37:55.085Z</time></trkpt><trkpt lat="44.6237968" lon="7.9527494"><ele>239.0</ele><time>2026-04-25T14:37:56.086Z</time></trkpt><trkpt lat="44.6237092" lon="7.952615"><ele>239.0</ele><time>2026-04-25T14:37:57.086Z</time></trkpt><trkpt lat="44.623625" lon="7.9524767"><ele>241.25</ele><time>2026-04-25T14:37:58.086Z</time></trkpt><trkpt lat="44.6235527" lon="7.9523346"><ele>243.5</ele><time>2026-04-25T14:37:59.086Z</time></trkpt><trkpt lat="44.6234977" lon="7.952192"><ele>245.75</ele><time>2026-04-25T14:38:00.086Z</time></trkpt><trkpt lat="44.6234464" lon="7.9520557"><ele>248.0</ele><time>2026-04-25T14:38:01.086Z</time></trkpt><trkpt lat="44.6234085" lon="7.9519215"><ele>248.0</ele><time>2026-04-25T14:38:02.086Z</time></trkpt><trkpt lat="44.6233717" lon="7.9517782"><ele>248.0</ele><time>2026-04-25T14:38:03.086Z</time></trkpt><trkpt lat="44.6233497" lon="7.9516365"><ele>248.0</ele><time>2026-04-25T14:38:04.086Z</time></trkpt><trkpt lat="44.6233063" lon="7.9514938"><ele>248.0</ele><time>2026-04-25T14:38:05.086Z</time></trkpt><trkpt lat="44.6232504" lon="7.9513527"><ele>248.0</ele><time>2026-04-25T14:38:06.085Z</time></trkpt><trkpt lat="44.6231892" lon="7.9511985"><ele>248.25</ele><time>2026-04-25T14:38:07.086Z</time></trkpt><trkpt lat="44.6231194" lon="7.9510421"><ele>248.5</ele><time>2026-04-25T14:38:08.086Z</time></trkpt><trkpt lat="44.6230551" lon="7.9508803"><ele>248.75</ele><time>2026-04-25T14:38:09.086Z</time></trkpt><trkpt lat="44.6229936" lon="7.9507394"><ele>249.0</ele><time>2026-04-25T14:38:10.086Z</time></trkpt><trkpt lat="44.62293" lon="7.9505991"><ele>249.75</ele><time>2026-04-25T14:38:11.086Z</time></trkpt><trkpt lat="44.6228686" lon="7.9504551"><ele>250.5</ele><time>2026-04-25T14:38:12.086Z</time></trkpt><trkpt lat="44.6228047" lon="7.9503122"><ele>251.25</ele><time>2026-04-25T14:38:13.086Z</time></trkpt><trkpt lat="44.6227396" lon="7.9501676"><ele>252.0</ele><time>2026-04-25T14:38:14.086Z</time></trkpt><trkpt lat="44.6226691" lon="7.9500248"><ele>252.0</ele><time>2026-04-25T14:38:15.086Z</time></trkpt><trkpt lat="44.6225883" lon="7.9498919"><ele>252.0</ele><time>2026-04-25T14:38:16.085Z</time></trkpt><trkpt lat="44.6224975" lon="7.9497614"><ele>252.0</ele><time>2026-04-25T14:38:17.086Z</time></trkpt><trkpt lat="44.6224035" lon="7.9496567"><ele>252.0</ele><time>2026-04-25T14:38:18.086Z</time></trkpt><trkpt lat="44.6223064" lon="7.9495731"><ele>252.0</ele><time>2026-04-25T14:38:19.086Z</time></trkpt><trkpt lat="44.6221988" lon="7.9495101"><ele>252.0</ele><time>2026-04-25T14:38:20.086Z</time></trkpt><trkpt lat="44.6220709" lon="7.9494744"><ele>252.0</ele><time>2026-04-25T14:38:21.086Z</time></trkpt><trkpt lat="44.6219489" lon="7.9494416"><ele>252.0</ele><time>2026-04-25T14:38:22.086Z</time></trkpt><trkpt lat="44.6218238" lon="7.9494174"><ele>252.0</ele><time>2026-04-25T14:38:23.086Z</time></trkpt><trkpt lat="44.6216815" lon="7.9493898"><ele>252.0</ele><time>2026-04-25T14:38:24.086Z</time></trkpt><trkpt lat="44.6215522" lon="7.9493355"><ele>252.0</ele><time>2026-04-25T14:38:25.085Z</time></trkpt><trkpt lat="44.6214316" lon="7.9492505"><ele>252.0</ele><time>2026-04-25T14:38:26.086Z</time></trkpt><trkpt lat="44.6213184" lon="7.949131"><ele>252.75</ele><time>2026-04-25T14:38:27.086Z</time></trkpt><trkpt lat="44.6212233" lon="7.9489952"><ele>253.5</ele><time>2026-04-25T14:38:28.086Z</time></trkpt><trkpt lat="44.6211399" lon="7.9488555"><ele>254.25</ele><time>2026-04-25T14:38:29.086Z</time></trkpt><trkpt lat="44.6210669" lon="7.9487051"><ele>255.0</ele><time>2026-04-25T14:38:30.086Z</time></trkpt><trkpt lat="44.6209997" lon="7.9485694"><ele>256.25</ele><time>2026-04-25T14:38:31.086Z</time></trkpt><trkpt lat="44.6209347" lon="7.948431"><ele>257.5</ele><time>2026-04-25T14:38:32.085Z</time></trkpt><trkpt lat="44.6208669" lon="7.948292"><ele>258.75</ele><time>2026-04-25T14:38:33.086Z</time></trkpt><trkpt lat="44.6208035" lon="7.9481321"><ele>260.0</ele><time>2026-04-25T14:38:34.086Z</time></trkpt><trkpt lat="44.6207134" lon="7.9479515"><ele>260.6666666666667</ele><time>2026-04-25T14:38:35.086Z</time></trkpt><trkpt lat="44.6206082" lon="7.9477516"><ele>261.3333333333333</ele><time>2026-04-25T14:38:36.086Z</time></trkpt><trkpt lat="44.6205072" lon="7.9475373"><ele>262.0</ele><time>2026-04-25T14:38:37.085Z</time></trkpt><trkpt lat="44.6204099" lon="7.9473314"><ele>262.0</ele><time>2026-04-25T14:38:38.085Z</time></trkpt><trkpt lat="44.6203167" lon="7.9471422"><ele>262.0</ele><time>2026-04-25T14:38:39.086Z</time></trkpt><trkpt lat="44.6202204" lon="7.9469724"><ele>262.0</ele><time>2026-04-25T14:38:40.086Z</time></trkpt><trkpt lat="44.6201186" lon="7.9468248"><ele>264.25</ele><time>2026-04-25T14:38:41.086Z</time></trkpt><trkpt lat="44.6200067" lon="7.9466841"><ele>266.5</ele><time>2026-04-25T14:38:42.085Z</time></trkpt><trkpt lat="44.6198803" lon="7.9465546"><ele>268.75</ele><time>2026-04-25T14:38:43.086Z</time></trkpt><trkpt lat="44.6197673" lon="7.9464424"><ele>271.0</ele><time>2026-04-25T14:38:44.085Z</time></trkpt><trkpt lat="44.6196465" lon="7.9463453"><ele>271.0</ele><time>2026-04-25T14:38:45.086Z</time></trkpt><trkpt lat="44.61953" lon="7.9462547"><ele>271.0</ele><time>2026-04-25T14:38:46.085Z</time></trkpt><trkpt lat="44.6193973" lon="7.9461764"><ele>271.0</ele><time>2026-04-25T14:38:47.085Z</time></trkpt><trkpt lat="44.6192695" lon="7.9461157"><ele>271.0</ele><time>2026-04-25T14:38:48.085Z</time></trkpt><trkpt lat="44.6191367" lon="7.9460572"><ele>273.0</ele><time>2026-04-25T14:38:49.086Z</time></trkpt><trkpt lat="44.6190024" lon="7.945985"><ele>275.0</ele><time>2026-04-25T14:38:50.086Z</time></trkpt><trkpt lat="44.61887" lon="7.9459238"><ele>277.0</ele><time>2026-04-25T14:38:51.086Z</time></trkpt><trkpt lat="44.6187407" lon="7.9458662"><ele>279.0</ele><time>2026-04-25T14:38:52.086Z</time></trkpt><trkpt lat="44.6186114" lon="7.9458114"><ele>282.0</ele><time>2026-04-25T14:38:53.086Z</time></trkpt><trkpt lat="44.6184793" lon="7.9457416"><ele>285.0</ele><time>2026-04-25T14:38:54.086Z</time></trkpt><trkpt lat="44.6183529" lon="7.9456711"><ele>288.0</ele><time>2026-04-25T14:38:55.086Z</time></trkpt><trkpt lat="44.6182426" lon="7.9455754"><ele>291.0</ele><time>2026-04-25T14:38:56.086Z</time></trkpt><trkpt lat="44.618137" lon="7.9454547"><ele>291.0</ele><time>2026-04-25T14:38:57.085Z</time></trkpt><trkpt lat="44.6180368" lon="7.9453375"><ele>291.0</ele><time>2026-04-25T14:38:58.086Z</time></trkpt><trkpt lat="44.6179406" lon="7.9452272"><ele>291.0</ele><time>2026-04-25T14:38:59.085Z</time></trkpt><trkpt lat="44.6178473" lon="7.9451161"><ele>291.0</ele><time>2026-04-25T14:39:00.086Z</time></trkpt><trkpt lat="44.6177532" lon="7.9450084"><ele>292.5</ele><time>2026-04-25T14:39:01.086Z</time></trkpt><trkpt lat="44.6176618" lon="7.9448966"><ele>294.0</ele><time>2026-04-25T14:39:02.086Z</time></trkpt><trkpt lat="44.6175766" lon="7.9447839"><ele>295.5</ele><time>2026-04-25T14:39:03.086Z</time></trkpt><trkpt lat="44.6174812" lon="7.94467"><ele>297.0</ele><time>2026-04-25T14:39:04.086Z</time></trkpt><trkpt lat="44.6173656" lon="7.9445614"><ele>297.0</ele><time>2026-04-25T14:39:05.086Z</time></trkpt><trkpt lat="44.617263" lon="7.9444431"><ele>297.0</ele><time>2026-04-25T14:39:06.086Z</time></trkpt><trkpt lat="44.6171759" lon="7.944326"><ele>297.0</ele><time>2026-04-25T14:39:07.086Z</time></trkpt><trkpt lat="44.6170879" lon="7.9441998"><ele>297.0</ele><time>2026-04-25T14:39:08.086Z</time></trkpt><trkpt lat="44.6170078" lon="7.9440636"><ele>298.5</ele><time>2026-04-25T14:39:09.085Z</time></trkpt><trkpt lat="44.6169329" lon="7.9439311"><ele>300.0</ele><time>2026-04-25T14:39:10.086Z</time></trkpt><trkpt lat="44.6168566" lon="7.9438026"><ele>301.5</ele><time>2026-04-25T14:39:11.086Z</time></trkpt><trkpt lat="44.616776" lon="7.9436751"><ele>303.0</ele><time>2026-04-25T14:39:12.085Z</time></trkpt><trkpt lat="44.6166927" lon="7.9435522"><ele>303.0</ele><time>2026-04-25T14:39:13.086Z</time></trkpt><trkpt lat="44.6166091" lon="7.9434385"><ele>303.0</ele><time>2026-04-25T14:39:14.086Z</time></trkpt><trkpt lat="44.6165118" lon="7.9433354"><ele>303.0</ele><time>2026-04-25T14:39:15.086Z</time></trkpt><trkpt lat="44.6164125" lon="7.9432456"><ele>303.0</ele><time>2026-04-25T14:39:16.086Z</time></trkpt><trkpt lat="44.6163029" lon="7.9431584"><ele>302.25</ele><time>2026-04-25T14:39:17.085Z</time></trkpt><trkpt lat="44.6161821" lon="7.9430713"><ele>301.5</ele><time>2026-04-25T14:39:18.086Z</time></trkpt><trkpt lat="44.6160648" lon="7.9429984"><ele>300.75</ele><time>2026-04-25T14:39:19.086Z</time></trkpt><trkpt lat="44.6159602" lon="7.9429193"><ele>300.0</ele><time>2026-04-25T14:39:20.086Z</time></trkpt><trkpt lat="44.6158521" lon="7.9428248"><ele>301.75</ele><time>2026-04-25T14:39:21.085Z</time></trkpt><trkpt lat="44.6157651" lon="7.9427109"><ele>303.5</ele><time>2026-04-25T14:39:22.085Z</time></trkpt><trkpt lat="44.6156902" lon="7.9425887"><ele>305.25</ele><time>2026-04-25T14:39:23.086Z</time></trkpt><trkpt lat="44.6156219" lon="7.9424586"><ele>307.0</ele><time>2026-04-25T14:39:24.086Z</time></trkpt><trkpt lat="44.6155627" lon="7.9423082"><ele>307.0</ele><time>2026-04-25T14:39:25.086Z</time></trkpt><trkpt lat="44.6155131" lon="7.9421758"><ele>307.0</ele><time>2026-04-25T14:39:26.086Z</time></trkpt><trkpt lat="44.6154539" lon="7.9420309"><ele>307.0</ele><time>2026-04-25T14:39:27.086Z</time></trkpt><trkpt lat="44.6153967" lon="7.9418887"><ele>307.0</ele><time>2026-04-25T14:39:28.086Z</time></trkpt><trkpt lat="44.6153382" lon="7.9417506"><ele>310.75</ele><time>2026-04-25T14:39:29.086Z</time></trkpt><trkpt lat="44.6152672" lon="7.9416177"><ele>314.5</ele><time>2026-04-25T14:39:30.086Z</time></trkpt><trkpt lat="44.6151778" lon="7.9414962"><ele>318.25</ele><time>2026-04-25T14:39:31.085Z</time></trkpt><trkpt lat="44.6150796" lon="7.9413911"><ele>322.0</ele><time>2026-04-25T14:39:32.086Z</time></trkpt><trkpt lat="44.614973" lon="7.9412975"><ele>322.0</ele><time>2026-04-25T14:39:33.086Z</time></trkpt><trkpt lat="44.6148731" lon="7.9412283"><ele>322.0</ele><time>2026-04-25T14:39:34.086Z</time></trkpt><trkpt lat="44.6147851" lon="7.9411777"><ele>322.0</ele><time>2026-04-25T14:39:35.086Z</time></trkpt><trkpt lat="44.6147085" lon="7.9411322"><ele>322.0</ele><time>2026-04-25T14:39:36.086Z</time></trkpt><trkpt lat="44.6146438" lon="7.9410946"><ele>322.0</ele><time>2026-04-25T14:39:37.085Z</time></trkpt><trkpt lat="44.6145648" lon="7.940991"><ele>320.8</ele><time>2026-04-25T14:39:39.086Z</time></trkpt><trkpt lat="44.6144676" lon="7.940909"><ele>319.6</ele><time>2026-04-25T14:39:41.086Z</time></trkpt><trkpt lat="44.6143846" lon="7.9408917"><ele>318.40000000000003</ele><time>2026-04-25T14:39:42.086Z</time></trkpt><trkpt lat="44.6142944" lon="7.9409001"><ele>317.20000000000005</ele><time>2026-04-25T14:39:43.086Z</time></trkpt><trkpt lat="44.6141796" lon="7.9409081"><ele>316.0</ele><time>2026-04-25T14:39:44.086Z</time></trkpt><trkpt lat="44.6140623" lon="7.9409085"><ele>316.0</ele><time>2026-04-25T14:39:45.086Z</time></trkpt><trkpt lat="44.6139298" lon="7.9409029"><ele>316.0</ele><time>2026-04-25T14:39:46.085Z</time></trkpt><trkpt lat="44.613792" lon="7.9408956"><ele>316.0</ele><time>2026-04-25T14:39:47.085Z</time></trkpt><trkpt lat="44.6136362" lon="7.9408979"><ele>316.0</ele><time>2026-04-25T14:39:48.086Z</time></trkpt><trkpt lat="44.6134926" lon="7.9408913"><ele>315.75</ele><time>2026-04-25T14:39:49.085Z</time></trkpt><trkpt lat="44.6133551" lon="7.9408885"><ele>315.5</ele><time>2026-04-25T14:39:50.086Z</time></trkpt><trkpt lat="44.6132202" lon="7.9408766"><ele>315.25</ele><time>2026-04-25T14:39:51.086Z</time></trkpt><trkpt lat="44.6130875" lon="7.9408587"><ele>315.0</ele><time>2026-04-25T14:39:52.086Z</time></trkpt><trkpt lat="44.6129548" lon="7.9408234"><ele>313.25</ele><time>2026-04-25T14:39:53.086Z</time></trkpt><trkpt lat="44.6128224" lon="7.9407941"><ele>311.5</ele><time>2026-04-25T14:39:54.086Z</time></trkpt><trkpt lat="44.6126787" lon="7.9407524"><ele>309.75</ele><time>2026-04-25T14:39:55.086Z</time></trkpt><trkpt lat="44.6125303" lon="7.9407133"><ele>308.0</ele><time>2026-04-25T14:39:56.086Z</time></trkpt><trkpt lat="44.6123839" lon="7.940669"><ele>308.0</ele><time>2026-04-25T14:39:57.086Z</time></trkpt><trkpt lat="44.6122356" lon="7.9406104"><ele>308.0</ele><time>2026-04-25T14:39:58.086Z</time></trkpt><trkpt lat="44.6120973" lon="7.9405414"><ele>308.0</ele><time>2026-04-25T14:39:59.086Z</time></trkpt><trkpt lat="44.6119631" lon="7.9404649"><ele>308.0</ele><time>2026-04-25T14:40:00.086Z</time></trkpt><trkpt lat="44.6118314" lon="7.9404064"><ele>308.0</ele><time>2026-04-25T14:40:01.086Z</time></trkpt><trkpt lat="44.611713" lon="7.9403521"><ele>308.0</ele><time>2026-04-25T14:40:02.086Z</time></trkpt><trkpt lat="44.6115917" lon="7.9403077"><ele>308.0</ele><time>2026-04-25T14:40:03.085Z</time></trkpt><trkpt lat="44.6114711" lon="7.9402655"><ele>308.0</ele><time>2026-04-25T14:40:04.085Z</time></trkpt><trkpt lat="44.6113502" lon="7.9402339"><ele>308.0</ele><time>2026-04-25T14:40:05.086Z</time></trkpt><trkpt lat="44.6112229" lon="7.9402103"><ele>308.0</ele><time>2026-04-25T14:40:06.085Z</time></trkpt><trkpt lat="44.6110994" lon="7.9402118"><ele>308.0</ele><time>2026-04-25T14:40:07.086Z</time></trkpt><trkpt lat="44.6109823" lon="7.9402268"><ele>308.0</ele><time>2026-04-25T14:40:08.086Z</time></trkpt><trkpt lat="44.610871" lon="7.9402488"><ele>307.6</ele><time>2026-04-25T14:40:09.085Z</time></trkpt><trkpt lat="44.6107581" lon="7.940259"><ele>307.20000000000005</ele><time>2026-04-25T14:40:10.086Z</time></trkpt><trkpt lat="44.6106604" lon="7.9402609"><ele>306.8</ele><time>2026-04-25T14:40:11.086Z</time></trkpt><trkpt lat="44.610553" lon="7.9402627"><ele>306.40000000000003</ele><time>2026-04-25T14:40:12.086Z</time></trkpt><trkpt lat="44.6104528" lon="7.9402619"><ele>306.0</ele><time>2026-04-25T14:40:13.086Z</time></trkpt><trkpt lat="44.6103544" lon="7.9402666"><ele>306.0</ele><time>2026-04-25T14:40:14.085Z</time></trkpt><trkpt lat="44.6102575" lon="7.9402731"><ele>306.0</ele><time>2026-04-25T14:40:15.086Z</time></trkpt><trkpt lat="44.6101645" lon="7.9402717"><ele>306.0</ele><time>2026-04-25T14:40:16.085Z</time></trkpt><trkpt lat="44.6100628" lon="7.9402795"><ele>306.0</ele><time>2026-04-25T14:40:17.086Z</time></trkpt><trkpt lat="44.6099381" lon="7.940294"><ele>306.0</ele><time>2026-04-25T14:40:18.086Z</time></trkpt><trkpt lat="44.6098179" lon="7.940305"><ele>306.0</ele><time>2026-04-25T14:40:19.086Z</time></trkpt><trkpt lat="44.6096998" lon="7.9403051"><ele>306.0</ele><time>2026-04-25T14:40:20.086Z</time></trkpt><trkpt lat="44.6095733" lon="7.9402919"><ele>306.0</ele><time>2026-04-25T14:40:21.085Z</time></trkpt><trkpt lat="44.6094499" lon="7.940272"><ele>306.0</ele><time>2026-04-25T14:40:22.085Z</time></trkpt><trkpt lat="44.6093306" lon="7.9402537"><ele>305.40000000000003</ele><time>2026-04-25T14:40:23.085Z</time></trkpt><trkpt lat="44.6092184" lon="7.9402351"><ele>304.8</ele><time>2026-04-25T14:40:24.086Z</time></trkpt><trkpt lat="44.609111" lon="7.9402219"><ele>304.20000000000005</ele><time>2026-04-25T14:40:25.085Z</time></trkpt><trkpt lat="44.6090088" lon="7.9402173"><ele>303.6</ele><time>2026-04-25T14:40:26.085Z</time></trkpt><trkpt lat="44.6089089" lon="7.9402318"><ele>303.0</ele><time>2026-04-25T14:40:27.086Z</time></trkpt><trkpt lat="44.6088018" lon="7.9402733"><ele>303.0</ele><time>2026-04-25T14:40:28.086Z</time></trkpt><trkpt lat="44.6087132" lon="7.9403295"><ele>303.0</ele><time>2026-04-25T14:40:29.085Z</time></trkpt><trkpt lat="44.6086392" lon="7.9404303"><ele>303.0</ele><time>2026-04-25T14:40:30.086Z</time></trkpt><trkpt lat="44.6085809" lon="7.9405224"><ele>303.0</ele><time>2026-04-25T14:40:31.086Z</time></trkpt><trkpt lat="44.6085405" lon="7.9406098"><ele>303.0</ele><time>2026-04-25T14:40:32.086Z</time></trkpt><trkpt lat="44.6084869" lon="7.9407639"><ele>304.0</ele><time>2026-04-25T14:40:34.086Z</time></trkpt><trkpt lat="44.6084685" lon="7.9408551"><ele>305.0</ele><time>2026-04-25T14:40:35.086Z</time></trkpt><trkpt lat="44.6084393" lon="7.940963"><ele>306.0</ele><time>2026-04-25T14:40:36.086Z</time></trkpt><trkpt lat="44.6084117" lon="7.9410642"><ele>307.0</ele><time>2026-04-25T14:40:37.086Z</time></trkpt><trkpt lat="44.6083649" lon="7.9411516"><ele>308.0</ele><time>2026-04-25T14:40:38.086Z</time></trkpt><trkpt lat="44.6083212" lon="7.9412275"><ele>309.0</ele><time>2026-04-25T14:40:39.086Z</time></trkpt><trkpt lat="44.6082428" lon="7.9412775"><ele>309.0</ele><time>2026-04-25T14:40:40.085Z</time></trkpt><trkpt lat="44.6081732" lon="7.9413185"><ele>309.0</ele><time>2026-04-25T14:40:41.086Z</time></trkpt><trkpt lat="44.608099" lon="7.9413304"><ele>309.0</ele><time>2026-04-25T14:40:42.085Z</time></trkpt><trkpt lat="44.60803" lon="7.9413212"><ele>309.0</ele><time>2026-04-25T14:40:43.085Z</time></trkpt><trkpt lat="44.6079727" lon="7.9412575"><ele>309.0</ele><time>2026-04-25T14:40:44.086Z</time></trkpt><trkpt lat="44.6079197" lon="7.9411683"><ele>309.0</ele><time>2026-04-25T14:40:45.086Z</time></trkpt><trkpt lat="44.6078946" lon="7.9410435"><ele>309.0</ele><time>2026-04-25T14:40:46.086Z</time></trkpt><trkpt lat="44.6078574" lon="7.9409108"><ele>309.0</ele><time>2026-04-25T14:40:47.086Z</time></trkpt><trkpt lat="44.6078197" lon="7.9407487"><ele>309.0</ele><time>2026-04-25T14:40:48.085Z</time></trkpt><trkpt lat="44.6077806" lon="7.9405921"><ele>309.0</ele><time>2026-04-25T14:40:49.086Z</time></trkpt><trkpt lat="44.6077392" lon="7.9404243"><ele>308.75</ele><time>2026-04-25T14:40:50.086Z</time></trkpt><trkpt lat="44.607694" lon="7.9402438"><ele>308.5</ele><time>2026-04-25T14:40:51.085Z</time></trkpt><trkpt lat="44.6076577" lon="7.9400642"><ele>308.25</ele><time>2026-04-25T14:40:52.086Z</time></trkpt><trkpt lat="44.6076202" lon="7.9399039"><ele>308.0</ele><time>2026-04-25T14:40:53.086Z</time></trkpt><trkpt lat="44.6075801" lon="7.9397584"><ele>310.4</ele><time>2026-04-25T14:40:54.086Z</time></trkpt><trkpt lat="44.607537" lon="7.9396142"><ele>312.8</ele><time>2026-04-25T14:40:55.086Z</time></trkpt><trkpt lat="44.6074869" lon="7.939504"><ele>315.2</ele><time>2026-04-25T14:40:56.086Z</time></trkpt><trkpt lat="44.6073723" lon="7.9394102"><ele>317.6</ele><time>2026-04-25T14:40:57.086Z</time></trkpt><trkpt lat="44.607276" lon="7.9393292"><ele>320.0</ele><time>2026-04-25T14:40:58.086Z</time></trkpt><trkpt lat="44.6071539" lon="7.9392714"><ele>320.0</ele><time>2026-04-25T14:40:59.085Z</time></trkpt><trkpt lat="44.6070234" lon="7.9392233"><ele>320.0</ele><time>2026-04-25T14:41:00.086Z</time></trkpt><trkpt lat="44.6068669" lon="7.9391713"><ele>320.0</ele><time>2026-04-25T14:41:01.085Z</time></trkpt><trkpt lat="44.606713" lon="7.9391335"><ele>321.0</ele><time>2026-04-25T14:41:02.086Z</time></trkpt><trkpt lat="44.6065433" lon="7.9391058"><ele>322.0</ele><time>2026-04-25T14:41:03.086Z</time></trkpt><trkpt lat="44.606376" lon="7.9390973"><ele>323.0</ele><time>2026-04-25T14:41:04.085Z</time></trkpt><trkpt lat="44.6062035" lon="7.9391048"><ele>323.6666666666667</ele><time>2026-04-25T14:41:05.085Z</time></trkpt><trkpt lat="44.6060431" lon="7.9391286"><ele>324.3333333333333</ele><time>2026-04-25T14:41:06.085Z</time></trkpt><trkpt lat="44.6058814" lon="7.93918"><ele>325.0</ele><time>2026-04-25T14:41:07.085Z</time></trkpt><trkpt lat="44.6057344" lon="7.9392379"><ele>326.66666666666663</ele><time>2026-04-25T14:41:08.086Z</time></trkpt><trkpt lat="44.6055915" lon="7.9393965"><ele>328.3333333333333</ele><time>2026-04-25T14:41:09.085Z</time></trkpt><trkpt lat="44.6054401" lon="7.9395653"><ele>330.0</ele><time>2026-04-25T14:41:10.086Z</time></trkpt><trkpt lat="44.6052923" lon="7.9397402"><ele>330.0</ele><time>2026-04-25T14:41:11.086Z</time></trkpt><trkpt lat="44.6051453" lon="7.9399279"><ele>330.0</ele><time>2026-04-25T14:41:12.086Z</time></trkpt><trkpt lat="44.6050013" lon="7.9400895"><ele>330.0</ele><time>2026-04-25T14:41:13.085Z</time></trkpt><trkpt lat="44.6048622" lon="7.9402576"><ele>331.6666666666667</ele><time>2026-04-25T14:41:14.086Z</time></trkpt><trkpt lat="44.6047201" lon="7.9404115"><ele>333.33333333333337</ele><time>2026-04-25T14:41:15.085Z</time></trkpt><trkpt lat="44.6045959" lon="7.9405597"><ele>335.0</ele><time>2026-04-25T14:41:16.086Z</time></trkpt><trkpt lat="44.604482" lon="7.9406899"><ele>335.0</ele><time>2026-04-25T14:41:17.086Z</time></trkpt><trkpt lat="44.6043755" lon="7.9408127"><ele>335.0</ele><time>2026-04-25T14:41:18.086Z</time></trkpt><trkpt lat="44.6042506" lon="7.9409204"><ele>335.0</ele><time>2026-04-25T14:41:19.086Z</time></trkpt><trkpt lat="44.6041127" lon="7.941009"><ele>335.0</ele><time>2026-04-25T14:41:20.086Z</time></trkpt><trkpt lat="44.6039571" lon="7.941058"><ele>331.0</ele><time>2026-04-25T14:41:21.086Z</time></trkpt><trkpt lat="44.6037896" lon="7.9410738"><ele>327.0</ele><time>2026-04-25T14:41:22.086Z</time></trkpt><trkpt lat="44.6036129" lon="7.9410554"><ele>323.0</ele><time>2026-04-25T14:41:23.086Z</time></trkpt><trkpt lat="44.6034328" lon="7.9410219"><ele>323.0</ele><time>2026-04-25T14:41:24.085Z</time></trkpt><trkpt lat="44.6032571" lon="7.9409958"><ele>323.0</ele><time>2026-04-25T14:41:25.085Z</time></trkpt><trkpt lat="44.6030656" lon="7.9409672"><ele>323.0</ele><time>2026-04-25T14:41:26.086Z</time></trkpt><trkpt lat="44.6029002" lon="7.9409381"><ele>324.0</ele><time>2026-04-25T14:41:27.085Z</time></trkpt><trkpt lat="44.6027355" lon="7.9409109"><ele>325.0</ele><time>2026-04-25T14:41:28.086Z</time></trkpt><trkpt lat="44.6025817" lon="7.9408875"><ele>326.0</ele><time>2026-04-25T14:41:29.085Z</time></trkpt><trkpt lat="44.6024332" lon="7.9408213"><ele>328.6666666666667</ele><time>2026-04-25T14:41:30.085Z</time></trkpt><trkpt lat="44.6022841" lon="7.9407224"><ele>331.3333333333333</ele><time>2026-04-25T14:41:31.086Z</time></trkpt><trkpt lat="44.6021317" lon="7.9405883"><ele>334.0</ele><time>2026-04-25T14:41:32.086Z</time></trkpt><trkpt lat="44.6019799" lon="7.9404399"><ele>334.0</ele><time>2026-04-25T14:41:33.085Z</time></trkpt><trkpt lat="44.601827" lon="7.9402804"><ele>334.0</ele><time>2026-04-25T14:41:34.085Z</time></trkpt><trkpt lat="44.6016711" lon="7.9401211"><ele>334.0</ele><time>2026-04-25T14:41:35.086Z</time></trkpt><trkpt lat="44.6015148" lon="7.9399656"><ele>334.66666666666663</ele><time>2026-04-25T14:41:36.086Z</time></trkpt><trkpt lat="44.6013604" lon="7.939802"><ele>335.3333333333333</ele><time>2026-04-25T14:41:37.086Z</time></trkpt><trkpt lat="44.6012045" lon="7.9396471"><ele>336.0</ele><time>2026-04-25T14:41:38.086Z</time></trkpt><trkpt lat="44.6010501" lon="7.9394893"><ele>336.0</ele><time>2026-04-25T14:41:39.086Z</time></trkpt><trkpt lat="44.6009037" lon="7.93934"><ele>336.0</ele><time>2026-04-25T14:41:40.086Z</time></trkpt><trkpt lat="44.6007661" lon="7.9392065"><ele>336.0</ele><time>2026-04-25T14:41:41.086Z</time></trkpt><trkpt lat="44.6006314" lon="7.9390807"><ele>340.3333333333333</ele><time>2026-04-25T14:41:42.086Z</time></trkpt><trkpt lat="44.6004983" lon="7.9389754"><ele>344.66666666666663</ele><time>2026-04-25T14:41:43.086Z</time></trkpt><trkpt lat="44.6003584" lon="7.9388985"><ele>349.0</ele><time>2026-04-25T14:41:44.085Z</time></trkpt><trkpt lat="44.6002073" lon="7.9388684"><ele>349.0</ele><time>2026-04-25T14:41:45.085Z</time></trkpt><trkpt lat="44.6000552" lon="7.938883"><ele>349.0</ele><time>2026-04-25T14:41:46.086Z</time></trkpt><trkpt lat="44.5999019" lon="7.9389192"><ele>349.0</ele><time>2026-04-25T14:41:47.086Z</time></trkpt><trkpt lat="44.5997541" lon="7.938985"><ele>349.0</ele><time>2026-04-25T14:41:48.086Z</time></trkpt><trkpt lat="44.5996209" lon="7.9391584"><ele>349.0</ele><time>2026-04-25T14:41:49.086Z</time></trkpt><trkpt lat="44.5994915" lon="7.9393039"><ele>349.0</ele><time>2026-04-25T14:41:50.085Z</time></trkpt><trkpt lat="44.5994148" lon="7.9395465"><ele>351.66666666666663</ele><time>2026-04-25T14:41:51.086Z</time></trkpt><trkpt lat="44.5993486" lon="7.9397762"><ele>354.3333333333333</ele><time>2026-04-25T14:41:52.085Z</time></trkpt><trkpt lat="44.5992789" lon="7.9400022"><ele>357.0</ele><time>2026-04-25T14:41:53.086Z</time></trkpt><trkpt lat="44.5992044" lon="7.9402282"><ele>357.0</ele><time>2026-04-25T14:41:54.086Z</time></trkpt><trkpt lat="44.599135" lon="7.940463"><ele>357.0</ele><time>2026-04-25T14:41:55.085Z</time></trkpt><trkpt lat="44.5990718" lon="7.9406984"><ele>357.0</ele><time>2026-04-25T14:41:56.085Z</time></trkpt><trkpt lat="44.5990197" lon="7.9409347"><ele>356.3333333333333</ele><time>2026-04-25T14:41:57.086Z</time></trkpt><trkpt lat="44.598999" lon="7.9411866"><ele>355.66666666666663</ele><time>2026-04-25T14:41:58.085Z</time></trkpt><trkpt lat="44.5989948" lon="7.9414378"><ele>355.0</ele><time>2026-04-25T14:41:59.085Z</time></trkpt><trkpt lat="44.5990098" lon="7.9416836"><ele>355.66666666666663</ele><time>2026-04-25T14:42:00.086Z</time></trkpt><trkpt lat="44.5990248" lon="7.9419413"><ele>356.3333333333333</ele><time>2026-04-25T14:42:01.086Z</time></trkpt><trkpt lat="44.5990468" lon="7.9421993"><ele>357.0</ele><time>2026-04-25T14:42:02.086Z</time></trkpt><trkpt lat="44.5990666" lon="7.9424576"><ele>359.25</ele><time>2026-04-25T14:42:03.086Z</time></trkpt><trkpt lat="44.5990865" lon="7.9426913"><ele>361.5</ele><time>2026-04-25T14:42:04.085Z</time></trkpt><trkpt lat="44.5991061" lon="7.9428958"><ele>363.75</ele><time>2026-04-25T14:42:05.085Z</time></trkpt><trkpt lat="44.5991327" lon="7.9430741"><ele>366.0</ele><time>2026-04-25T14:42:06.085Z</time></trkpt><trkpt lat="44.5991433" lon="7.9432232"><ele>366.0</ele><time>2026-04-25T14:42:07.086Z</time></trkpt><trkpt lat="44.5991279" lon="7.9433644"><ele>366.0</ele><time>2026-04-25T14:42:08.086Z</time></trkpt><trkpt lat="44.5990872" lon="7.9434935"><ele>366.0</ele><time>2026-04-25T14:42:09.085Z</time></trkpt><trkpt lat="44.5990068" lon="7.9435908"><ele>366.0</ele><time>2026-04-25T14:42:10.086Z</time></trkpt><trkpt lat="44.5989038" lon="7.9436539"><ele>366.0</ele><time>2026-04-25T14:42:11.086Z</time></trkpt><trkpt lat="44.5987764" lon="7.9436885"><ele>365.0</ele><time>2026-04-25T14:42:12.086Z</time></trkpt><trkpt lat="44.5986375" lon="7.9437179"><ele>364.0</ele><time>2026-04-25T14:42:13.086Z</time></trkpt><trkpt lat="44.598495" lon="7.9437421"><ele>363.0</ele><time>2026-04-25T14:42:14.086Z</time></trkpt><trkpt lat="44.5983505" lon="7.9437789"><ele>362.0</ele><time>2026-04-25T14:42:15.086Z</time></trkpt><trkpt lat="44.5982116" lon="7.9438453"><ele>362.0</ele><time>2026-04-25T14:42:16.085Z</time></trkpt><trkpt lat="44.5980853" lon="7.9439547"><ele>362.0</ele><time>2026-04-25T14:42:17.086Z</time></trkpt><trkpt lat="44.5979859" lon="7.9440913"><ele>362.0</ele><time>2026-04-25T14:42:18.086Z</time></trkpt><trkpt lat="44.5978968" lon="7.9442695"><ele>362.0</ele><time>2026-04-25T14:42:19.085Z</time></trkpt><trkpt lat="44.597829" lon="7.9444671"><ele>364.25</ele><time>2026-04-25T14:42:20.086Z</time></trkpt><trkpt lat="44.5977884" lon="7.9446529"><ele>366.5</ele><time>2026-04-25T14:42:21.086Z</time></trkpt><trkpt lat="44.5977248" lon="7.944832"><ele>368.75</ele><time>2026-04-25T14:42:22.086Z</time></trkpt><trkpt lat="44.5976313" lon="7.9449732"><ele>371.0</ele><time>2026-04-25T14:42:23.086Z</time></trkpt><trkpt lat="44.5975241" lon="7.9451087"><ele>365.0</ele><time>2026-04-25T14:42:24.086Z</time></trkpt><trkpt lat="44.5973925" lon="7.9452109"><ele>359.0</ele><time>2026-04-25T14:42:25.085Z</time></trkpt><trkpt lat="44.5972311" lon="7.9452839"><ele>353.0</ele><time>2026-04-25T14:42:26.086Z</time></trkpt><trkpt lat="44.5970551" lon="7.9453689"><ele>357.33333333333337</ele><time>2026-04-25T14:42:27.086Z</time></trkpt><trkpt lat="44.5968719" lon="7.9454531"><ele>361.6666666666667</ele><time>2026-04-25T14:42:28.086Z</time></trkpt><trkpt lat="44.5966916" lon="7.9455348"><ele>366.0</ele><time>2026-04-25T14:42:29.086Z</time></trkpt><trkpt lat="44.5965071" lon="7.945621"><ele>366.0</ele><time>2026-04-25T14:42:30.085Z</time></trkpt><trkpt lat="44.5963212" lon="7.9457183"><ele>366.0</ele><time>2026-04-25T14:42:31.086Z</time></trkpt><trkpt lat="44.5961344" lon="7.9458154"><ele>366.0</ele><time>2026-04-25T14:42:32.086Z</time></trkpt><trkpt lat="44.5959479" lon="7.9458997"><ele>364.0</ele><time>2026-04-25T14:42:33.086Z</time></trkpt><trkpt lat="44.5957568" lon="7.945997"><ele>362.0</ele><time>2026-04-25T14:42:34.086Z</time></trkpt><trkpt lat="44.5955745" lon="7.9460843"><ele>360.0</ele><time>2026-04-25T14:42:35.086Z</time></trkpt><trkpt lat="44.5953992" lon="7.9461732"><ele>363.0</ele><time>2026-04-25T14:42:36.086Z</time></trkpt><trkpt lat="44.5952456" lon="7.9462719"><ele>366.0</ele><time>2026-04-25T14:42:37.086Z</time></trkpt><trkpt lat="44.5951036" lon="7.9463849"><ele>369.0</ele><time>2026-04-25T14:42:38.086Z</time></trkpt><trkpt lat="44.5949722" lon="7.9465286"><ele>369.0</ele><time>2026-04-25T14:42:39.085Z</time></trkpt><trkpt lat="44.5948544" lon="7.9466882"><ele>369.0</ele><time>2026-04-25T14:42:40.086Z</time></trkpt><trkpt lat="44.594743" lon="7.9468452"><ele>369.0</ele><time>2026-04-25T14:42:41.086Z</time></trkpt><trkpt lat="44.594633" lon="7.9469687"><ele>368.75</ele><time>2026-04-25T14:42:42.085Z</time></trkpt><trkpt lat="44.5945106" lon="7.9470652"><ele>368.5</ele><time>2026-04-25T14:42:43.086Z</time></trkpt><trkpt lat="44.5943735" lon="7.9471205"><ele>368.25</ele><time>2026-04-25T14:42:44.085Z</time></trkpt><trkpt lat="44.5942172" lon="7.9471335"><ele>368.0</ele><time>2026-04-25T14:42:45.085Z</time></trkpt><trkpt lat="44.5940603" lon="7.9471358"><ele>368.0</ele><time>2026-04-25T14:42:46.086Z</time></trkpt><trkpt lat="44.5939032" lon="7.9471335"><ele>368.0</ele><time>2026-04-25T14:42:47.086Z</time></trkpt><trkpt lat="44.5937542" lon="7.9471523"><ele>368.0</ele><time>2026-04-25T14:42:48.086Z</time></trkpt><trkpt lat="44.5936268" lon="7.9472067"><ele>368.0</ele><time>2026-04-25T14:42:49.086Z</time></trkpt><trkpt lat="44.5934985" lon="7.9473137"><ele>369.6666666666667</ele><time>2026-04-25T14:42:50.086Z</time></trkpt><trkpt lat="44.5933958" lon="7.9474499"><ele>371.3333333333333</ele><time>2026-04-25T14:42:51.085Z</time></trkpt><trkpt lat="44.5932952" lon="7.9476309"><ele>373.0</ele><time>2026-04-25T14:42:52.086Z</time></trkpt><trkpt lat="44.5932102" lon="7.9478468"><ele>373.0</ele><time>2026-04-25T14:42:53.086Z</time></trkpt><trkpt lat="44.5931168" lon="7.9480827"><ele>373.0</ele><time>2026-04-25T14:42:54.086Z</time></trkpt><trkpt lat="44.5930229" lon="7.9483186"><ele>373.0</ele><time>2026-04-25T14:42:55.086Z</time></trkpt><trkpt lat="44.5929313" lon="7.9485551"><ele>373.66666666666663</ele><time>2026-04-25T14:42:56.086Z</time></trkpt><trkpt lat="44.5928409" lon="7.948781"><ele>374.3333333333333</ele><time>2026-04-25T14:42:57.085Z</time></trkpt><trkpt lat="44.5927574" lon="7.9490132"><ele>375.0</ele><time>2026-04-25T14:42:58.085Z</time></trkpt><trkpt lat="44.5926649" lon="7.949233"><ele>375.0</ele><time>2026-04-25T14:42:59.086Z</time></trkpt><trkpt lat="44.5925836" lon="7.9494643"><ele>375.0</ele><time>2026-04-25T14:43:00.086Z</time></trkpt><trkpt lat="44.5924952" lon="7.9496815"><ele>375.0</ele><time>2026-04-25T14:43:01.086Z</time></trkpt><trkpt lat="44.5924215" lon="7.9498938"><ele>374.3333333333333</ele><time>2026-04-25T14:43:02.086Z</time></trkpt><trkpt lat="44.5923317" lon="7.950109"><ele>373.66666666666663</ele><time>2026-04-25T14:43:03.086Z</time></trkpt><trkpt lat="44.5922411" lon="7.9503145"><ele>373.0</ele><time>2026-04-25T14:43:04.086Z</time></trkpt><trkpt lat="44.592156" lon="7.9505276"><ele>373.0</ele><time>2026-04-25T14:43:05.086Z</time></trkpt><trkpt lat="44.5920712" lon="7.9507384"><ele>373.0</ele><time>2026-04-25T14:43:06.086Z</time></trkpt><trkpt lat="44.5919775" lon="7.9509541"><ele>373.0</ele><time>2026-04-25T14:43:07.086Z</time></trkpt><trkpt lat="44.5918725" lon="7.9511576"><ele>376.0</ele><time>2026-04-25T14:43:08.086Z</time></trkpt><trkpt lat="44.5917699" lon="7.9513524"><ele>379.0</ele><time>2026-04-25T14:43:09.086Z</time></trkpt><trkpt lat="44.5916722" lon="7.951537"><ele>382.0</ele><time>2026-04-25T14:43:10.086Z</time></trkpt><trkpt lat="44.591567" lon="7.9517144"><ele>384.25</ele><time>2026-04-25T14:43:11.086Z</time></trkpt><trkpt lat="44.5914716" lon="7.9518851"><ele>386.5</ele><time>2026-04-25T14:43:12.086Z</time></trkpt><trkpt lat="44.591375" lon="7.9520173"><ele>388.75</ele><time>2026-04-25T14:43:13.086Z</time></trkpt><trkpt lat="44.591284" lon="7.9521448"><ele>391.0</ele><time>2026-04-25T14:43:14.086Z</time></trkpt><trkpt lat="44.5911751" lon="7.9522331"><ele>391.0</ele><time>2026-04-25T14:43:15.085Z</time></trkpt><trkpt lat="44.5910631" lon="7.9522669"><ele>391.0</ele><time>2026-04-25T14:43:16.086Z</time></trkpt><trkpt lat="44.5909449" lon="7.9522429"><ele>391.0</ele><time>2026-04-25T14:43:17.086Z</time></trkpt><trkpt lat="44.5908304" lon="7.9521652"><ele>391.0</ele><time>2026-04-25T14:43:18.086Z</time></trkpt><trkpt lat="44.5907238" lon="7.9520583"><ele>391.0</ele><time>2026-04-25T14:43:19.086Z</time></trkpt><trkpt lat="44.590613" lon="7.9519316"><ele>391.0</ele><time>2026-04-25T14:43:20.085Z</time></trkpt><trkpt lat="44.5904848" lon="7.9518109"><ele>391.0</ele><time>2026-04-25T14:43:21.086Z</time></trkpt><trkpt lat="44.5903507" lon="7.9517161"><ele>391.0</ele><time>2026-04-25T14:43:22.086Z</time></trkpt><trkpt lat="44.590211" lon="7.9516432"><ele>387.75</ele><time>2026-04-25T14:43:23.085Z</time></trkpt><trkpt lat="44.5900657" lon="7.9515935"><ele>384.5</ele><time>2026-04-25T14:43:24.086Z</time></trkpt><trkpt lat="44.5899462" lon="7.9515539"><ele>381.25</ele><time>2026-04-25T14:43:25.086Z</time></trkpt><trkpt lat="44.5898313" lon="7.9515162"><ele>378.0</ele><time>2026-04-25T14:43:26.086Z</time></trkpt><trkpt lat="44.5897132" lon="7.9514938"><ele>378.0</ele><time>2026-04-25T14:43:27.085Z</time></trkpt><trkpt lat="44.5895952" lon="7.9514902"><ele>378.0</ele><time>2026-04-25T14:43:28.085Z</time></trkpt><trkpt lat="44.5894692" lon="7.9515189"><ele>378.0</ele><time>2026-04-25T14:43:29.086Z</time></trkpt><trkpt lat="44.5893464" lon="7.9515587"><ele>378.0</ele><time>2026-04-25T14:43:30.086Z</time></trkpt><trkpt lat="44.589219" lon="7.9516153"><ele>378.0</ele><time>2026-04-25T14:43:31.086Z</time></trkpt><trkpt lat="44.5890889" lon="7.9516839"><ele>378.0</ele><time>2026-04-25T14:43:32.085Z</time></trkpt><trkpt lat="44.5889672" lon="7.9517524"><ele>378.0</ele><time>2026-04-25T14:43:33.086Z</time></trkpt><trkpt lat="44.5888509" lon="7.9518054"><ele>378.0</ele><time>2026-04-25T14:43:34.085Z</time></trkpt><trkpt lat="44.5887489" lon="7.9518267"><ele>378.4</ele><time>2026-04-25T14:43:35.085Z</time></trkpt><trkpt lat="44.5886497" lon="7.9518141"><ele>378.79999999999995</ele><time>2026-04-25T14:43:36.086Z</time></trkpt><trkpt lat="44.5885611" lon="7.9517582"><ele>379.2</ele><time>2026-04-25T14:43:37.085Z</time></trkpt><trkpt lat="44.5884801" lon="7.9516651"><ele>379.6</ele><time>2026-04-25T14:43:38.086Z</time></trkpt><trkpt lat="44.5883989" lon="7.9515427"><ele>380.0</ele><time>2026-04-25T14:43:39.086Z</time></trkpt><trkpt lat="44.5882967" lon="7.951407"><ele>380.0</ele><time>2026-04-25T14:43:40.086Z</time></trkpt><trkpt lat="44.5881943" lon="7.9512506"><ele>380.0</ele><time>2026-04-25T14:43:41.085Z</time></trkpt><trkpt lat="44.5880805" lon="7.9510741"><ele>380.0</ele><time>2026-04-25T14:43:42.086Z</time></trkpt><trkpt lat="44.5879627" lon="7.9508944"><ele>380.0</ele><time>2026-04-25T14:43:43.086Z</time></trkpt><trkpt lat="44.5878445" lon="7.9507089"><ele>380.0</ele><time>2026-04-25T14:43:44.086Z</time></trkpt><trkpt lat="44.5877217" lon="7.9505207"><ele>380.0</ele><time>2026-04-25T14:43:45.086Z</time></trkpt><trkpt lat="44.5876139" lon="7.9503369"><ele>380.0</ele><time>2026-04-25T14:43:46.086Z</time></trkpt><trkpt lat="44.5875078" lon="7.9501576"><ele>380.0</ele><time>2026-04-25T14:43:47.086Z</time></trkpt><trkpt lat="44.5874077" lon="7.949999"><ele>380.0</ele><time>2026-04-25T14:43:48.086Z</time></trkpt><trkpt lat="44.5873122" lon="7.9498466"><ele>380.5</ele><time>2026-04-25T14:43:49.086Z</time></trkpt><trkpt lat="44.5872321" lon="7.9497135"><ele>381.0</ele><time>2026-04-25T14:43:50.086Z</time></trkpt><trkpt lat="44.5871512" lon="7.9495815"><ele>381.5</ele><time>2026-04-25T14:43:51.086Z</time></trkpt><trkpt lat="44.5870716" lon="7.9494646"><ele>382.0</ele><time>2026-04-25T14:43:52.086Z</time></trkpt><trkpt lat="44.5869867" lon="7.9493674"><ele>382.0</ele><time>2026-04-25T14:43:53.086Z</time></trkpt><trkpt lat="44.586895" lon="7.9492788"><ele>382.0</ele><time>2026-04-25T14:43:54.086Z</time></trkpt><trkpt lat="44.5867871" lon="7.949238"><ele>382.0</ele><time>2026-04-25T14:43:55.086Z</time></trkpt><trkpt lat="44.5866759" lon="7.949233"><ele>382.0</ele><time>2026-04-25T14:43:56.086Z</time></trkpt><trkpt lat="44.5865617" lon="7.9492687"><ele>382.0</ele><time>2026-04-25T14:43:57.086Z</time></trkpt><trkpt lat="44.5864467" lon="7.9493461"><ele>382.0</ele><time>2026-04-25T14:43:58.086Z</time></trkpt><trkpt lat="44.586331" lon="7.9494304"><ele>382.0</ele><time>2026-04-25T14:43:59.086Z</time></trkpt><trkpt lat="44.5862142" lon="7.9495152"><ele>382.0</ele><time>2026-04-25T14:44:00.085Z</time></trkpt><trkpt lat="44.5861064" lon="7.9496034"><ele>379.0</ele><time>2026-04-25T14:44:01.086Z</time></trkpt><trkpt lat="44.5859968" lon="7.9496712"><ele>376.0</ele><time>2026-04-25T14:44:02.086Z</time></trkpt><trkpt lat="44.5858821" lon="7.9497119"><ele>373.0</ele><time>2026-04-25T14:44:03.086Z</time></trkpt><trkpt lat="44.5857657" lon="7.9497357"><ele>370.0</ele><time>2026-04-25T14:44:04.086Z</time></trkpt><trkpt lat="44.5856623" lon="7.949728"><ele>370.0</ele><time>2026-04-25T14:44:05.085Z</time></trkpt><trkpt lat="44.585552" lon="7.9497287"><ele>370.0</ele><time>2026-04-25T14:44:06.086Z</time></trkpt><trkpt lat="44.585456" lon="7.9497141"><ele>370.0</ele><time>2026-04-25T14:44:07.086Z</time></trkpt><trkpt lat="44.5853544" lon="7.9497022"><ele>370.0</ele><time>2026-04-25T14:44:09.086Z</time></trkpt><trkpt lat="44.5852733" lon="7.9496799"><ele>370.0</ele><time>2026-04-25T14:44:12.086Z</time></trkpt><trkpt lat="44.585167" lon="7.949695"><ele>368.2</ele><time>2026-04-25T14:44:18.085Z</time></trkpt><trkpt lat="44.5851156" lon="7.9497549"><ele>366.4</ele><time>2026-04-25T14:44:19.086Z</time></trkpt><trkpt lat="44.5850934" lon="7.9499172"><ele>364.6</ele><time>2026-04-25T14:44:21.085Z</time></trkpt><trkpt lat="44.5851061" lon="7.9500366"><ele>362.8</ele><time>2026-04-25T14:44:22.085Z</time></trkpt><trkpt lat="44.5851257" lon="7.9501729"><ele>361.0</ele><time>2026-04-25T14:44:23.086Z</time></trkpt><trkpt lat="44.5851541" lon="7.9503129"><ele>361.0</ele><time>2026-04-25T14:44:24.085Z</time></trkpt><trkpt lat="44.5852034" lon="7.9504635"><ele>361.0</ele><time>2026-04-25T14:44:25.086Z</time></trkpt><trkpt lat="44.5852557" lon="7.950633"><ele>361.0</ele><time>2026-04-25T14:44:26.086Z</time></trkpt><trkpt lat="44.5853098" lon="7.9507993"><ele>361.0</ele><time>2026-04-25T14:44:27.086Z</time></trkpt><trkpt lat="44.5853566" lon="7.9509745"><ele>369.0</ele><time>2026-04-25T14:44:28.086Z</time></trkpt><trkpt lat="44.5854075" lon="7.9511515"><ele>377.0</ele><time>2026-04-25T14:44:29.086Z</time></trkpt><trkpt lat="44.5854457" lon="7.9513349"><ele>385.0</ele><time>2026-04-25T14:44:30.086Z</time></trkpt><trkpt lat="44.5854617" lon="7.951533"><ele>393.0</ele><time>2026-04-25T14:44:31.086Z</time></trkpt><trkpt lat="44.5854544" lon="7.9517344"><ele>396.33333333333337</ele><time>2026-04-25T14:44:32.085Z</time></trkpt><trkpt lat="44.5854402" lon="7.951935"><ele>399.6666666666667</ele><time>2026-04-25T14:44:33.085Z</time></trkpt><trkpt lat="44.5853924" lon="7.9521454"><ele>403.0</ele><time>2026-04-25T14:44:34.085Z</time></trkpt><trkpt lat="44.5853423" lon="7.9523562"><ele>401.0</ele><time>2026-04-25T14:44:35.086Z</time></trkpt><trkpt lat="44.5853059" lon="7.9525582"><ele>399.0</ele><time>2026-04-25T14:44:36.086Z</time></trkpt><trkpt lat="44.5852594" lon="7.9527465"><ele>397.0</ele><time>2026-04-25T14:44:37.085Z</time></trkpt><trkpt lat="44.5852109" lon="7.9529238"><ele>395.0</ele><time>2026-04-25T14:44:38.085Z</time></trkpt><trkpt lat="44.5851316" lon="7.9531166"><ele>395.0</ele><time>2026-04-25T14:44:39.085Z</time></trkpt><trkpt lat="44.5850453" lon="7.9532506"><ele>395.0</ele><time>2026-04-25T14:44:40.086Z</time></trkpt><trkpt lat="44.5849251" lon="7.9533516"><ele>395.0</ele><time>2026-04-25T14:44:41.085Z</time></trkpt><trkpt lat="44.5847919" lon="7.9534507"><ele>395.0</ele><time>2026-04-25T14:44:42.086Z</time></trkpt><trkpt lat="44.5846279" lon="7.9535224"><ele>398.3333333333333</ele><time>2026-04-25T14:44:43.086Z</time></trkpt><trkpt lat="44.5844684" lon="7.9536166"><ele>401.66666666666663</ele><time>2026-04-25T14:44:44.086Z</time></trkpt><trkpt lat="44.5843131" lon="7.9537098"><ele>405.0</ele><time>2026-04-25T14:44:45.086Z</time></trkpt><trkpt lat="44.5841681" lon="7.9538306"><ele>405.0</ele><time>2026-04-25T14:44:46.085Z</time></trkpt><trkpt lat="44.584023" lon="7.9539461"><ele>405.0</ele><time>2026-04-25T14:44:47.086Z</time></trkpt><trkpt lat="44.5838736" lon="7.9540704"><ele>405.0</ele><time>2026-04-25T14:44:48.086Z</time></trkpt><trkpt lat="44.5837323" lon="7.9541959"><ele>408.0</ele><time>2026-04-25T14:44:49.086Z</time></trkpt><trkpt lat="44.5835944" lon="7.9542866"><ele>411.0</ele><time>2026-04-25T14:44:50.086Z</time></trkpt><trkpt lat="44.583436" lon="7.9543611"><ele>414.0</ele><time>2026-04-25T14:44:51.086Z</time></trkpt><trkpt lat="44.5832905" lon="7.9544305"><ele>414.0</ele><time>2026-04-25T14:44:52.085Z</time></trkpt><trkpt lat="44.5831624" lon="7.9544742"><ele>414.0</ele><time>2026-04-25T14:44:53.086Z</time></trkpt><trkpt lat="44.5830325" lon="7.9545203"><ele>414.0</ele><time>2026-04-25T14:44:54.086Z</time></trkpt><trkpt lat="44.5829315" lon="7.9545613"><ele>414.0</ele><time>2026-04-25T14:44:55.086Z</time></trkpt><trkpt lat="44.5828455" lon="7.9546208"><ele>413.4</ele><time>2026-04-25T14:44:56.086Z</time></trkpt><trkpt lat="44.5827804" lon="7.9547248"><ele>412.79999999999995</ele><time>2026-04-25T14:44:57.085Z</time></trkpt><trkpt lat="44.5827331" lon="7.9548435"><ele>412.20000000000005</ele><time>2026-04-25T14:44:58.086Z</time></trkpt><trkpt lat="44.5827308" lon="7.9550017"><ele>411.6</ele><time>2026-04-25T14:44:59.086Z</time></trkpt><trkpt lat="44.5827464" lon="7.9551796"><ele>411.0</ele><time>2026-04-25T14:45:00.086Z</time></trkpt><trkpt lat="44.5827679" lon="7.9553587"><ele>411.0</ele><time>2026-04-25T14:45:01.086Z</time></trkpt><trkpt lat="44.5827915" lon="7.9555592"><ele>411.0</ele><time>2026-04-25T14:45:02.086Z</time></trkpt><trkpt lat="44.5828118" lon="7.955774"><ele>411.0</ele><time>2026-04-25T14:45:03.085Z</time></trkpt><trkpt lat="44.5828372" lon="7.9559953"><ele>417.66666666666663</ele><time>2026-04-25T14:45:04.086Z</time></trkpt><trkpt lat="44.5828673" lon="7.9562251"><ele>424.3333333333333</ele><time>2026-04-25T14:45:05.086Z</time></trkpt><trkpt lat="44.5828961" lon="7.9564304"><ele>431.0</ele><time>2026-04-25T14:45:06.086Z</time></trkpt><trkpt lat="44.5829204" lon="7.956616"><ele>427.75</ele><time>2026-04-25T14:45:07.086Z</time></trkpt><trkpt lat="44.5829423" lon="7.9567733"><ele>424.5</ele><time>2026-04-25T14:45:08.086Z</time></trkpt><trkpt lat="44.5829924" lon="7.9569199"><ele>421.25</ele><time>2026-04-25T14:45:09.085Z</time></trkpt><trkpt lat="44.5830613" lon="7.9570478"><ele>418.0</ele><time>2026-04-25T14:45:10.085Z</time></trkpt><trkpt lat="44.5831622" lon="7.9571713"><ele>418.0</ele><time>2026-04-25T14:45:11.086Z</time></trkpt><trkpt lat="44.5832833" lon="7.9572544"><ele>418.0</ele><time>2026-04-25T14:45:12.085Z</time></trkpt><trkpt lat="44.5833983" lon="7.9573165"><ele>418.0</ele><time>2026-04-25T14:45:13.086Z</time></trkpt><trkpt lat="44.5835107" lon="7.9573618"><ele>418.0</ele><time>2026-04-25T14:45:14.086Z</time></trkpt><trkpt lat="44.5836396" lon="7.9573728"><ele>420.5</ele><time>2026-04-25T14:45:15.086Z</time></trkpt><trkpt lat="44.5837688" lon="7.9573697"><ele>423.0</ele><time>2026-04-25T14:45:16.085Z</time></trkpt><trkpt lat="44.5839197" lon="7.9573415"><ele>425.5</ele><time>2026-04-25T14:45:17.086Z</time></trkpt><trkpt lat="44.5840716" lon="7.9573232"><ele>428.0</ele><time>2026-04-25T14:45:18.086Z</time></trkpt><trkpt lat="44.5842335" lon="7.9573423"><ele>428.0</ele><time>2026-04-25T14:45:19.086Z</time></trkpt><trkpt lat="44.5844026" lon="7.9573902"><ele>428.0</ele><time>2026-04-25T14:45:20.086Z</time></trkpt><trkpt lat="44.5845497" lon="7.957484"><ele>428.0</ele><time>2026-04-25T14:45:21.086Z</time></trkpt><trkpt lat="44.5846881" lon="7.957616"><ele>428.3333333333333</ele><time>2026-04-25T14:45:22.085Z</time></trkpt><trkpt lat="44.5848131" lon="7.9577473"><ele>428.66666666666663</ele><time>2026-04-25T14:45:23.086Z</time></trkpt><trkpt lat="44.5849327" lon="7.9578951"><ele>429.0</ele><time>2026-04-25T14:45:24.086Z</time></trkpt><trkpt lat="44.585036" lon="7.9580668"><ele>429.0</ele><time>2026-04-25T14:45:25.086Z</time></trkpt><trkpt lat="44.585119" lon="7.9582518"><ele>429.0</ele><time>2026-04-25T14:45:26.086Z</time></trkpt><trkpt lat="44.5851636" lon="7.9584544"><ele>429.0</ele><time>2026-04-25T14:45:27.086Z</time></trkpt><trkpt lat="44.5851678" lon="7.9586684"><ele>430.33333333333337</ele><time>2026-04-25T14:45:28.086Z</time></trkpt><trkpt lat="44.5851538" lon="7.9588918"><ele>431.6666666666667</ele><time>2026-04-25T14:45:29.085Z</time></trkpt><trkpt lat="44.5851042" lon="7.9591088"><ele>433.0</ele><time>2026-04-25T14:45:30.086Z</time></trkpt><trkpt lat="44.5850566" lon="7.9593287"><ele>433.75</ele><time>2026-04-25T14:45:31.086Z</time></trkpt><trkpt lat="44.5850175" lon="7.9595411"><ele>434.5</ele><time>2026-04-25T14:45:32.086Z</time></trkpt><trkpt lat="44.5849893" lon="7.9597279"><ele>435.25</ele><time>2026-04-25T14:45:33.085Z</time></trkpt><trkpt lat="44.5849771" lon="7.9599064"><ele>436.0</ele><time>2026-04-25T14:45:34.085Z</time></trkpt><trkpt lat="44.5849932" lon="7.9600982"><ele>434.0</ele><time>2026-04-25T14:45:35.086Z</time></trkpt><trkpt lat="44.5850317" lon="7.9602913"><ele>432.0</ele><time>2026-04-25T14:45:36.086Z</time></trkpt><trkpt lat="44.5851004" lon="7.9604963"><ele>430.0</ele><time>2026-04-25T14:45:37.086Z</time></trkpt><trkpt lat="44.5851724" lon="7.9606792"><ele>432.6666666666667</ele><time>2026-04-25T14:45:38.086Z</time></trkpt><trkpt lat="44.5852495" lon="7.9608708"><ele>435.33333333333337</ele><time>2026-04-25T14:45:39.086Z</time></trkpt><trkpt lat="44.5853307" lon="7.961051"><ele>438.0</ele><time>2026-04-25T14:45:40.085Z</time></trkpt><trkpt lat="44.5854174" lon="7.9612141"><ele>438.0</ele><time>2026-04-25T14:45:41.086Z</time></trkpt><trkpt lat="44.5855013" lon="7.9613606"><ele>438.0</ele><time>2026-04-25T14:45:42.086Z</time></trkpt><trkpt lat="44.5855977" lon="7.9615095"><ele>438.0</ele><time>2026-04-25T14:45:43.086Z</time></trkpt><trkpt lat="44.5856985" lon="7.961645"><ele>438.0</ele><time>2026-04-25T14:45:44.086Z</time></trkpt><trkpt lat="44.5858063" lon="7.961761"><ele>436.25</ele><time>2026-04-25T14:45:45.085Z</time></trkpt><trkpt lat="44.5859121" lon="7.9618789"><ele>434.5</ele><time>2026-04-25T14:45:46.085Z</time></trkpt><trkpt lat="44.5859986" lon="7.9620201"><ele>432.75</ele><time>2026-04-25T14:45:47.086Z</time></trkpt><trkpt lat="44.5860854" lon="7.9621686"><ele>431.0</ele><time>2026-04-25T14:45:48.085Z</time></trkpt><trkpt lat="44.5861367" lon="7.9623351"><ele>431.0</ele><time>2026-04-25T14:45:49.086Z</time></trkpt><trkpt lat="44.5861656" lon="7.9625121"><ele>431.0</ele><time>2026-04-25T14:45:50.086Z</time></trkpt><trkpt lat="44.5861743" lon="7.9626916"><ele>431.0</ele><time>2026-04-25T14:45:51.085Z</time></trkpt><trkpt lat="44.586167" lon="7.9628828"><ele>431.0</ele><time>2026-04-25T14:45:52.086Z</time></trkpt><trkpt lat="44.5861497" lon="7.9630649"><ele>431.5</ele><time>2026-04-25T14:45:53.086Z</time></trkpt><trkpt lat="44.5861001" lon="7.9632517"><ele>432.0</ele><time>2026-04-25T14:45:54.086Z</time></trkpt><trkpt lat="44.5860415" lon="7.9634345"><ele>432.5</ele><time>2026-04-25T14:45:55.085Z</time></trkpt><trkpt lat="44.5859807" lon="7.9636186"><ele>433.0</ele><time>2026-04-25T14:45:56.086Z</time></trkpt><trkpt lat="44.5859071" lon="7.9638099"><ele>436.0</ele><time>2026-04-25T14:45:57.086Z</time></trkpt><trkpt lat="44.5858314" lon="7.9639979"><ele>439.0</ele><time>2026-04-25T14:45:58.086Z</time></trkpt><trkpt lat="44.5857798" lon="7.9642084"><ele>442.0</ele><time>2026-04-25T14:45:59.086Z</time></trkpt><trkpt lat="44.5857152" lon="7.9644073"><ele>445.5</ele><time>2026-04-25T14:46:00.086Z</time></trkpt><trkpt lat="44.5856483" lon="7.9645918"><ele>449.0</ele><time>2026-04-25T14:46:01.086Z</time></trkpt><trkpt lat="44.5855856" lon="7.9647829"><ele>452.5</ele><time>2026-04-25T14:46:02.086Z</time></trkpt><trkpt lat="44.5855295" lon="7.9649719"><ele>456.0</ele><time>2026-04-25T14:46:03.086Z</time></trkpt><trkpt lat="44.5854753" lon="7.9651525"><ele>457.25</ele><time>2026-04-25T14:46:04.086Z</time></trkpt><trkpt lat="44.5853958" lon="7.9653249"><ele>458.5</ele><time>2026-04-25T14:46:05.086Z</time></trkpt><trkpt lat="44.585314" lon="7.9654775"><ele>459.75</ele><time>2026-04-25T14:46:06.086Z</time></trkpt><trkpt lat="44.5852228" lon="7.9656029"><ele>461.0</ele><time>2026-04-25T14:46:07.086Z</time></trkpt><trkpt lat="44.585113" lon="7.9656884"><ele>461.0</ele><time>2026-04-25T14:46:08.086Z</time></trkpt><trkpt lat="44.5850073" lon="7.9657706"><ele>461.0</ele><time>2026-04-25T14:46:09.086Z</time></trkpt><trkpt lat="44.5848978" lon="7.9658315"><ele>461.0</ele><time>2026-04-25T14:46:10.086Z</time></trkpt><trkpt lat="44.5847849" lon="7.9658763"><ele>461.0</ele><time>2026-04-25T14:46:11.086Z</time></trkpt><trkpt lat="44.5846831" lon="7.9659277"><ele>462.4</ele><time>2026-04-25T14:46:12.086Z</time></trkpt><trkpt lat="44.5845872" lon="7.9659834"><ele>463.8</ele><time>2026-04-25T14:46:13.086Z</time></trkpt><trkpt lat="44.5844958" lon="7.9660813"><ele>465.19999999999993</ele><time>2026-04-25T14:46:14.086Z</time></trkpt><trkpt lat="44.5844137" lon="7.9661473"><ele>466.59999999999997</ele><time>2026-04-25T14:46:15.086Z</time></trkpt><trkpt lat="44.5843276" lon="7.9662387"><ele>468.0</ele><time>2026-04-25T14:46:16.086Z</time></trkpt><trkpt lat="44.5842402" lon="7.9663319"><ele>468.0</ele><time>2026-04-25T14:46:17.086Z</time></trkpt><trkpt lat="44.5841471" lon="7.9664294"><ele>468.0</ele><time>2026-04-25T14:46:18.085Z</time></trkpt><trkpt lat="44.5840628" lon="7.9665348"><ele>468.0</ele><time>2026-04-25T14:46:19.086Z</time></trkpt><trkpt lat="44.5839771" lon="7.966653"><ele>468.0</ele><time>2026-04-25T14:46:20.086Z</time></trkpt><trkpt lat="44.5838877" lon="7.9667575"><ele>469.2</ele><time>2026-04-25T14:46:21.085Z</time></trkpt><trkpt lat="44.5838066" lon="7.966873"><ele>470.4</ele><time>2026-04-25T14:46:22.086Z</time></trkpt><trkpt lat="44.5837265" lon="7.9669852"><ele>471.59999999999997</ele><time>2026-04-25T14:46:23.086Z</time></trkpt><trkpt lat="44.5836472" lon="7.9670699"><ele>472.79999999999995</ele><time>2026-04-25T14:46:24.086Z</time></trkpt><trkpt lat="44.5835737" lon="7.9671534"><ele>474.0</ele><time>2026-04-25T14:46:25.086Z</time></trkpt><trkpt lat="44.5835188" lon="7.9672351"><ele>474.0</ele><time>2026-04-25T14:46:26.086Z</time></trkpt><trkpt lat="44.5834651" lon="7.9673102"><ele>474.0</ele><time>2026-04-25T14:46:27.086Z</time></trkpt><trkpt lat="44.5834126" lon="7.9673816"><ele>474.0</ele><time>2026-04-25T14:46:28.086Z</time></trkpt><trkpt lat="44.5833725" lon="7.9674506"><ele>474.0</ele><time>2026-04-25T14:46:29.085Z</time></trkpt><trkpt lat="44.5833247" lon="7.9675085"><ele>474.0</ele><time>2026-04-25T14:46:30.086Z</time></trkpt><trkpt lat="44.5832357" lon="7.967622"><ele>474.0</ele><time>2026-04-25T14:46:32.086Z</time></trkpt><trkpt lat="44.5831597" lon="7.9677023"><ele>473.5</ele><time>2026-04-25T14:46:34.086Z</time></trkpt><trkpt lat="44.583112" lon="7.9677605"><ele>473.0</ele><time>2026-04-25T14:46:36.086Z</time></trkpt><trkpt lat="44.5830594" lon="7.9678312"><ele>472.5</ele><time>2026-04-25T14:46:41.086Z</time></trkpt><trkpt lat="44.5829997" lon="7.967886"><ele>472.0</ele><time>2026-04-25T14:46:46.086Z</time></trkpt><trkpt lat="44.5829226" lon="7.967936"><ele>471.5</ele><time>2026-04-25T14:46:50.086Z</time></trkpt><trkpt lat="44.5828368" lon="7.9679908"><ele>471.0</ele><time>2026-04-25T14:46:53.086Z</time></trkpt><trkpt lat="44.5827704" lon="7.9680262"><ele>471.00000000000006</ele><time>2026-04-25T14:46:55.085Z</time></trkpt><trkpt lat="44.5826933" lon="7.9680466"><ele>471.0</ele><time>2026-04-25T14:46:57.085Z</time></trkpt><trkpt lat="44.5826258" lon="7.9680606"><ele>471.00000000000006</ele><time>2026-04-25T14:46:58.085Z</time></trkpt><trkpt lat="44.5825507" lon="7.9680793"><ele>471.00000000000006</ele><time>2026-04-25T14:47:00.086Z</time></trkpt><trkpt lat="44.5824878" lon="7.9681176"><ele>471.0</ele><time>2026-04-25T14:47:02.085Z</time></trkpt><trkpt lat="44.5824149" lon="7.9681477"><ele>471.00000000000006</ele><time>2026-04-25T14:47:04.085Z</time></trkpt><trkpt lat="44.5823423" lon="7.9681691"><ele>471.00000000000006</ele><time>2026-04-25T14:47:06.086Z</time></trkpt><trkpt lat="44.5822832" lon="7.9682017"><ele>471.0</ele><time>2026-04-25T14:47:09.086Z</time></trkpt><trkpt lat="44.5822591" lon="7.968288"><ele>471.0</ele><time>2026-04-25T14:47:12.086Z</time></trkpt><trkpt lat="44.5822897" lon="7.9684374"><ele>471.0</ele><time>2026-04-25T14:47:14.085Z</time></trkpt><trkpt lat="44.5823045" lon="7.9685608"><ele>471.0</ele><time>2026-04-25T14:47:16.086Z</time></trkpt><trkpt lat="44.5823157" lon="7.9686506"><ele>471.0</ele><time>2026-04-25T14:47:17.086Z</time></trkpt><trkpt lat="44.5823633" lon="7.9688073"><ele>470.8</ele><time>2026-04-25T14:47:19.085Z</time></trkpt><trkpt lat="44.5823825" lon="7.9689264"><ele>470.6</ele><time>2026-04-25T14:47:21.086Z</time></trkpt><trkpt lat="44.5823665" lon="7.9690375"><ele>470.4</ele><time>2026-04-25T14:47:23.086Z</time></trkpt><trkpt lat="44.5822775" lon="7.969189"><ele>470.2</ele><time>2026-04-25T14:47:25.086Z</time></trkpt><trkpt lat="44.5822179" lon="7.969264"><ele>470.0</ele><time>2026-04-25T14:47:26.086Z</time></trkpt><trkpt lat="44.5821598" lon="7.9693457"><ele>469.0</ele><time>2026-04-25T14:47:27.086Z</time></trkpt><trkpt lat="44.582103" lon="7.9694386"><ele>468.0</ele><time>2026-04-25T14:47:28.086Z</time></trkpt><trkpt lat="44.5820394" lon="7.9695297"><ele>467.0</ele><time>2026-04-25T14:47:29.086Z</time></trkpt><trkpt lat="44.5819548" lon="7.9696306"><ele>466.0</ele><time>2026-04-25T14:47:30.086Z</time></trkpt><trkpt lat="44.5818734" lon="7.9697119"><ele>465.0</ele><time>2026-04-25T14:47:31.086Z</time></trkpt><trkpt lat="44.581779" lon="7.9698056"><ele>465.0</ele><time>2026-04-25T14:47:32.086Z</time></trkpt><trkpt lat="44.5816919" lon="7.9699042"><ele>465.0</ele><time>2026-04-25T14:47:33.086Z</time></trkpt><trkpt lat="44.581597" lon="7.970009"><ele>465.0</ele><time>2026-04-25T14:47:34.086Z</time></trkpt><trkpt lat="44.5815047" lon="7.9701191"><ele>465.0</ele><time>2026-04-25T14:47:35.086Z</time></trkpt><trkpt lat="44.5814099" lon="7.9702311"><ele>463.0</ele><time>2026-04-25T14:47:36.086Z</time></trkpt><trkpt lat="44.581314" lon="7.9703373"><ele>461.0</ele><time>2026-04-25T14:47:37.086Z</time></trkpt><trkpt lat="44.5812173" lon="7.9704542"><ele>459.0</ele><time>2026-04-25T14:47:38.086Z</time></trkpt><trkpt lat="44.5811182" lon="7.9705738"><ele>457.0</ele><time>2026-04-25T14:47:39.085Z</time></trkpt><trkpt lat="44.5810167" lon="7.9706964"><ele>457.0</ele><time>2026-04-25T14:47:40.086Z</time></trkpt><trkpt lat="44.5809119" lon="7.9708171"><ele>457.0</ele><time>2026-04-25T14:47:41.086Z</time></trkpt><trkpt lat="44.5807947" lon="7.9709344"><ele>457.0</ele><time>2026-04-25T14:47:42.086Z</time></trkpt><trkpt lat="44.5806998" lon="7.9710598"><ele>457.0</ele><time>2026-04-25T14:47:43.086Z</time></trkpt><trkpt lat="44.5805989" lon="7.9711887"><ele>459.25</ele><time>2026-04-25T14:47:44.086Z</time></trkpt><trkpt lat="44.5804955" lon="7.9713214"><ele>461.5</ele><time>2026-04-25T14:47:45.086Z</time></trkpt><trkpt lat="44.580407" lon="7.9714458"><ele>463.75</ele><time>2026-04-25T14:47:46.086Z</time></trkpt><trkpt lat="44.5803157" lon="7.9715896"><ele>466.0</ele><time>2026-04-25T14:47:47.086Z</time></trkpt><trkpt lat="44.5802414" lon="7.9717179"><ele>460.5</ele><time>2026-04-25T14:47:48.086Z</time></trkpt><trkpt lat="44.580176" lon="7.9718558"><ele>455.0</ele><time>2026-04-25T14:47:49.085Z</time></trkpt><trkpt lat="44.5801356" lon="7.9720135"><ele>449.5</ele><time>2026-04-25T14:47:50.086Z</time></trkpt><trkpt lat="44.580136" lon="7.9721833"><ele>444.0</ele><time>2026-04-25T14:47:51.086Z</time></trkpt><trkpt lat="44.5801592" lon="7.9723586"><ele>441.75</ele><time>2026-04-25T14:47:52.086Z</time></trkpt><trkpt lat="44.5801951" lon="7.9725481"><ele>439.5</ele><time>2026-04-25T14:47:53.085Z</time></trkpt><trkpt lat="44.5802412" lon="7.9727434"><ele>437.25</ele><time>2026-04-25T14:47:54.085Z</time></trkpt><trkpt lat="44.5802911" lon="7.9729479"><ele>435.0</ele><time>2026-04-25T14:47:55.086Z</time></trkpt><trkpt lat="44.5803418" lon="7.973148"><ele>438.33333333333337</ele><time>2026-04-25T14:47:56.086Z</time></trkpt><trkpt lat="44.5803897" lon="7.973352"><ele>441.6666666666667</ele><time>2026-04-25T14:47:57.086Z</time></trkpt><trkpt lat="44.5804553" lon="7.9735577"><ele>445.0</ele><time>2026-04-25T14:47:58.086Z</time></trkpt><trkpt lat="44.5805202" lon="7.9737591"><ele>445.0</ele><time>2026-04-25T14:47:59.086Z</time></trkpt><trkpt lat="44.5805988" lon="7.9739559"><ele>445.0</ele><time>2026-04-25T14:48:00.086Z</time></trkpt><trkpt lat="44.5806873" lon="7.9741488"><ele>445.0</ele><time>2026-04-25T14:48:01.086Z</time></trkpt><trkpt lat="44.5807844" lon="7.9743506"><ele>441.6666666666667</ele><time>2026-04-25T14:48:02.086Z</time></trkpt><trkpt lat="44.5808814" lon="7.9745293"><ele>438.33333333333337</ele><time>2026-04-25T14:48:03.086Z</time></trkpt><trkpt lat="44.5809714" lon="7.9747135"><ele>435.0</ele><time>2026-04-25T14:48:04.086Z</time></trkpt><trkpt lat="44.5810465" lon="7.9749085"><ele>435.33333333333337</ele><time>2026-04-25T14:48:05.086Z</time></trkpt><trkpt lat="44.5811155" lon="7.9751048"><ele>435.6666666666667</ele><time>2026-04-25T14:48:06.086Z</time></trkpt><trkpt lat="44.5811892" lon="7.9752906"><ele>436.0</ele><time>2026-04-25T14:48:07.086Z</time></trkpt><trkpt lat="44.5812706" lon="7.9754637"><ele>436.0</ele><time>2026-04-25T14:48:08.086Z</time></trkpt><trkpt lat="44.5813581" lon="7.9756205"><ele>436.0</ele><time>2026-04-25T14:48:09.086Z</time></trkpt><trkpt lat="44.5814513" lon="7.9757663"><ele>436.0</ele><time>2026-04-25T14:48:10.086Z</time></trkpt><trkpt lat="44.5815616" lon="7.9758935"><ele>436.0</ele><time>2026-04-25T14:48:11.085Z</time></trkpt><trkpt lat="44.5816987" lon="7.9759971"><ele>435.5</ele><time>2026-04-25T14:48:12.086Z</time></trkpt><trkpt lat="44.5818332" lon="7.9760785"><ele>435.0</ele><time>2026-04-25T14:48:13.086Z</time></trkpt><trkpt lat="44.5819391" lon="7.9761351"><ele>434.5</ele><time>2026-04-25T14:48:14.086Z</time></trkpt><trkpt lat="44.5820629" lon="7.9762078"><ele>434.0</ele><time>2026-04-25T14:48:15.086Z</time></trkpt><trkpt lat="44.5821411" lon="7.9763067"><ele>434.0</ele><time>2026-04-25T14:48:16.086Z</time></trkpt><trkpt lat="44.5821949" lon="7.9764318"><ele>434.0</ele><time>2026-04-25T14:48:17.085Z</time></trkpt><trkpt lat="44.5822374" lon="7.9765642"><ele>434.0</ele><time>2026-04-25T14:48:18.085Z</time></trkpt><trkpt lat="44.5822045" lon="7.9767191"><ele>434.0</ele><time>2026-04-25T14:48:19.086Z</time></trkpt><trkpt lat="44.582182" lon="7.9768552"><ele>434.0</ele><time>2026-04-25T14:48:20.086Z</time></trkpt><trkpt lat="44.582113" lon="7.9769628"><ele>433.6</ele><time>2026-04-25T14:48:21.086Z</time></trkpt><trkpt lat="44.5820314" lon="7.9770638"><ele>433.2</ele><time>2026-04-25T14:48:22.086Z</time></trkpt><trkpt lat="44.5819434" lon="7.9771614"><ele>432.80000000000007</ele><time>2026-04-25T14:48:23.085Z</time></trkpt><trkpt lat="44.581869" lon="7.9772657"><ele>432.40000000000003</ele><time>2026-04-25T14:48:24.086Z</time></trkpt><trkpt lat="44.5818083" lon="7.977387"><ele>432.0</ele><time>2026-04-25T14:48:25.085Z</time></trkpt><trkpt lat="44.5817602" lon="7.9775143"><ele>432.25</ele><time>2026-04-25T14:48:26.086Z</time></trkpt><trkpt lat="44.5817824" lon="7.9777085"><ele>432.5</ele><time>2026-04-25T14:48:27.086Z</time></trkpt><trkpt lat="44.5817823" lon="7.9778917"><ele>432.75</ele><time>2026-04-25T14:48:28.086Z</time></trkpt><trkpt lat="44.581786" lon="7.9780719"><ele>433.0</ele><time>2026-04-25T14:48:29.086Z</time></trkpt><trkpt lat="44.5817952" lon="7.9782625"><ele>433.5</ele><time>2026-04-25T14:48:30.086Z</time></trkpt><trkpt lat="44.5818028" lon="7.9784574"><ele>434.0</ele><time>2026-04-25T14:48:31.085Z</time></trkpt><trkpt lat="44.5818022" lon="7.9786573"><ele>434.5</ele><time>2026-04-25T14:48:32.085Z</time></trkpt><trkpt lat="44.5818007" lon="7.9788761"><ele>435.0</ele><time>2026-04-25T14:48:33.086Z</time></trkpt><trkpt lat="44.5817966" lon="7.9790882"><ele>436.0</ele><time>2026-04-25T14:48:34.086Z</time></trkpt><trkpt lat="44.5817883" lon="7.9793061"><ele>437.0</ele><time>2026-04-25T14:48:35.086Z</time></trkpt><trkpt lat="44.5817714" lon="7.9795196"><ele>438.0</ele><time>2026-04-25T14:48:36.086Z</time></trkpt><trkpt lat="44.5817565" lon="7.9797373"><ele>438.0</ele><time>2026-04-25T14:48:37.086Z</time></trkpt><trkpt lat="44.5817308" lon="7.9799496"><ele>438.0</ele><time>2026-04-25T14:48:38.086Z</time></trkpt><trkpt lat="44.5816857" lon="7.9801267"><ele>438.0</ele><time>2026-04-25T14:48:39.086Z</time></trkpt><trkpt lat="44.5816256" lon="7.9802931"><ele>438.0</ele><time>2026-04-25T14:48:40.086Z</time></trkpt><trkpt lat="44.5815442" lon="7.9804414"><ele>440.25</ele><time>2026-04-25T14:48:41.086Z</time></trkpt><trkpt lat="44.5814427" lon="7.9805693"><ele>442.5</ele><time>2026-04-25T14:48:42.086Z</time></trkpt><trkpt lat="44.5813131" lon="7.9806814"><ele>444.75</ele><time>2026-04-25T14:48:43.086Z</time></trkpt><trkpt lat="44.5811912" lon="7.980776"><ele>447.0</ele><time>2026-04-25T14:48:44.086Z</time></trkpt><trkpt lat="44.5810619" lon="7.9809136"><ele>449.0</ele><time>2026-04-25T14:48:45.085Z</time></trkpt><trkpt lat="44.5809546" lon="7.9811117"><ele>451.0</ele><time>2026-04-25T14:48:46.086Z</time></trkpt><trkpt lat="44.5808649" lon="7.9812973"><ele>453.0</ele><time>2026-04-25T14:48:47.086Z</time></trkpt><trkpt lat="44.5807791" lon="7.9814712"><ele>453.0</ele><time>2026-04-25T14:48:48.085Z</time></trkpt><trkpt lat="44.5806842" lon="7.9816323"><ele>453.0</ele><time>2026-04-25T14:48:49.086Z</time></trkpt><trkpt lat="44.5805831" lon="7.9817748"><ele>453.0</ele><time>2026-04-25T14:48:50.086Z</time></trkpt><trkpt lat="44.5804761" lon="7.9819016"><ele>453.0</ele><time>2026-04-25T14:48:51.085Z</time></trkpt><trkpt lat="44.5803663" lon="7.9820111"><ele>453.0</ele><time>2026-04-25T14:48:52.086Z</time></trkpt><trkpt lat="44.580229" lon="7.9821003"><ele>453.0</ele><time>2026-04-25T14:48:53.085Z</time></trkpt><trkpt lat="44.5800914" lon="7.9821801"><ele>453.0</ele><time>2026-04-25T14:48:54.086Z</time></trkpt><trkpt lat="44.5799155" lon="7.9822385"><ele>453.0</ele><time>2026-04-25T14:48:55.085Z</time></trkpt><trkpt lat="44.5797628" lon="7.9822476"><ele>453.0</ele><time>2026-04-25T14:48:56.086Z</time></trkpt><trkpt lat="44.5796084" lon="7.9822679"><ele>453.0</ele><time>2026-04-25T14:48:57.086Z</time></trkpt><trkpt lat="44.5794443" lon="7.9822277"><ele>454.33333333333337</ele><time>2026-04-25T14:48:58.086Z</time></trkpt><trkpt lat="44.5792817" lon="7.9822046"><ele>455.6666666666667</ele><time>2026-04-25T14:48:59.086Z</time></trkpt><trkpt lat="44.5791348" lon="7.9821162"><ele>457.0</ele><time>2026-04-25T14:49:00.086Z</time></trkpt><trkpt lat="44.5789885" lon="7.9820142"><ele>457.0</ele><time>2026-04-25T14:49:01.086Z</time></trkpt><trkpt lat="44.578847" lon="7.9818989"><ele>457.0</ele><time>2026-04-25T14:49:02.086Z</time></trkpt><trkpt lat="44.5787073" lon="7.9817894"><ele>457.0</ele><time>2026-04-25T14:49:03.086Z</time></trkpt><trkpt lat="44.5785686" lon="7.9816749"><ele>457.0</ele><time>2026-04-25T14:49:04.086Z</time></trkpt><trkpt lat="44.5784372" lon="7.9815646"><ele>457.0</ele><time>2026-04-25T14:49:05.086Z</time></trkpt><trkpt lat="44.578304" lon="7.9814664"><ele>457.0</ele><time>2026-04-25T14:49:06.086Z</time></trkpt><trkpt lat="44.5781726" lon="7.9813586"><ele>457.0</ele><time>2026-04-25T14:49:07.086Z</time></trkpt><trkpt lat="44.5780723" lon="7.9812713"><ele>457.0</ele><time>2026-04-25T14:49:08.086Z</time></trkpt><trkpt lat="44.5779494" lon="7.981208"><ele>457.0</ele><time>2026-04-25T14:49:09.086Z</time></trkpt><trkpt lat="44.577817" lon="7.9811692"><ele>457.0</ele><time>2026-04-25T14:49:10.086Z</time></trkpt><trkpt lat="44.5776918" lon="7.9811471"><ele>454.6666666666667</ele><time>2026-04-25T14:49:11.086Z</time></trkpt><trkpt lat="44.5775687" lon="7.9811385"><ele>452.33333333333337</ele><time>2026-04-25T14:49:12.086Z</time></trkpt><trkpt lat="44.5774184" lon="7.9812465"><ele>450.0</ele><time>2026-04-25T14:49:13.086Z</time></trkpt><trkpt lat="44.5772611" lon="7.981332"><ele>450.0</ele><time>2026-04-25T14:49:14.086Z</time></trkpt><trkpt lat="44.5771119" lon="7.9814033"><ele>450.0</ele><time>2026-04-25T14:49:15.085Z</time></trkpt><trkpt lat="44.5769566" lon="7.9814689"><ele>450.0</ele><time>2026-04-25T14:49:16.086Z</time></trkpt><trkpt lat="44.5768079" lon="7.9815416"><ele>450.33333333333337</ele><time>2026-04-25T14:49:17.086Z</time></trkpt><trkpt lat="44.5766638" lon="7.9816157"><ele>450.6666666666667</ele><time>2026-04-25T14:49:18.086Z</time></trkpt><trkpt lat="44.5764925" lon="7.9816917"><ele>451.0</ele><time>2026-04-25T14:49:19.085Z</time></trkpt><trkpt lat="44.576365" lon="7.9818165"><ele>448.6666666666667</ele><time>2026-04-25T14:49:20.086Z</time></trkpt><trkpt lat="44.5762314" lon="7.9819613"><ele>446.33333333333337</ele><time>2026-04-25T14:49:21.085Z</time></trkpt><trkpt lat="44.5761085" lon="7.982094"><ele>444.0</ele><time>2026-04-25T14:49:22.086Z</time></trkpt><trkpt lat="44.5759798" lon="7.9822506"><ele>443.33333333333337</ele><time>2026-04-25T14:49:23.086Z</time></trkpt><trkpt lat="44.5758658" lon="7.9824086"><ele>442.6666666666667</ele><time>2026-04-25T14:49:24.086Z</time></trkpt><trkpt lat="44.5757681" lon="7.9825632"><ele>442.0</ele><time>2026-04-25T14:49:25.086Z</time></trkpt><trkpt lat="44.5756618" lon="7.9827159"><ele>442.0</ele><time>2026-04-25T14:49:26.086Z</time></trkpt><trkpt lat="44.5755758" lon="7.9828773"><ele>442.0</ele><time>2026-04-25T14:49:27.085Z</time></trkpt><trkpt lat="44.5755189" lon="7.9830972"><ele>442.0</ele><time>2026-04-25T14:49:28.086Z</time></trkpt><trkpt lat="44.5754802" lon="7.9833168"><ele>441.0</ele><time>2026-04-25T14:49:29.086Z</time></trkpt><trkpt lat="44.5754268" lon="7.9835291"><ele>440.0</ele><time>2026-04-25T14:49:30.086Z</time></trkpt><trkpt lat="44.5753734" lon="7.9837424"><ele>439.0</ele><time>2026-04-25T14:49:31.085Z</time></trkpt><trkpt lat="44.5753082" lon="7.9838975"><ele>440.5</ele><time>2026-04-25T14:49:32.086Z</time></trkpt><trkpt lat="44.5752301" lon="7.9840625"><ele>442.0</ele><time>2026-04-25T14:49:33.086Z</time></trkpt><trkpt lat="44.5751169" lon="7.9841917"><ele>443.5</ele><time>2026-04-25T14:49:34.085Z</time></trkpt><trkpt lat="44.5749896" lon="7.9843006"><ele>445.0</ele><time>2026-04-25T14:49:35.086Z</time></trkpt><trkpt lat="44.5748615" lon="7.9844161"><ele>444.75</ele><time>2026-04-25T14:49:36.086Z</time></trkpt><trkpt lat="44.5747618" lon="7.9845431"><ele>444.5</ele><time>2026-04-25T14:49:37.086Z</time></trkpt><trkpt lat="44.5746702" lon="7.9846895"><ele>444.25</ele><time>2026-04-25T14:49:38.086Z</time></trkpt><trkpt lat="44.5746324" lon="7.9848958"><ele>444.0</ele><time>2026-04-25T14:49:39.085Z</time></trkpt><trkpt lat="44.5745956" lon="7.9851007"><ele>444.0</ele><time>2026-04-25T14:49:40.085Z</time></trkpt><trkpt lat="44.5745607" lon="7.985298"><ele>444.0</ele><time>2026-04-25T14:49:41.086Z</time></trkpt><trkpt lat="44.5745407" lon="7.9855137"><ele>444.0</ele><time>2026-04-25T14:49:42.086Z</time></trkpt><trkpt lat="44.5745301" lon="7.9857228"><ele>444.0</ele><time>2026-04-25T14:49:43.085Z</time></trkpt><trkpt lat="44.5744937" lon="7.9859493"><ele>452.66666666666663</ele><time>2026-04-25T14:49:44.086Z</time></trkpt><trkpt lat="44.5744408" lon="7.986181"><ele>461.3333333333333</ele><time>2026-04-25T14:49:45.086Z</time></trkpt><trkpt lat="44.574394" lon="7.9864096"><ele>470.0</ele><time>2026-04-25T14:49:46.086Z</time></trkpt><trkpt lat="44.5743449" lon="7.9866236"><ele>470.0</ele><time>2026-04-25T14:49:47.085Z</time></trkpt><trkpt lat="44.5743045" lon="7.9868536"><ele>470.0</ele><time>2026-04-25T14:49:48.085Z</time></trkpt><trkpt lat="44.5743014" lon="7.9871062"><ele>470.0</ele><time>2026-04-25T14:49:49.086Z</time></trkpt><trkpt lat="44.5743061" lon="7.9873531"><ele>470.66666666666663</ele><time>2026-04-25T14:49:50.086Z</time></trkpt><trkpt lat="44.5743396" lon="7.9875822"><ele>471.33333333333337</ele><time>2026-04-25T14:49:51.086Z</time></trkpt><trkpt lat="44.5743796" lon="7.9878112"><ele>472.0</ele><time>2026-04-25T14:49:52.085Z</time></trkpt><trkpt lat="44.5744264" lon="7.9880432"><ele>472.0</ele><time>2026-04-25T14:49:53.086Z</time></trkpt><trkpt lat="44.5744404" lon="7.9882315"><ele>472.0</ele><time>2026-04-25T14:49:54.085Z</time></trkpt><trkpt lat="44.5744592" lon="7.9884213"><ele>472.0</ele><time>2026-04-25T14:49:55.085Z</time></trkpt><trkpt lat="44.5744713" lon="7.9886074"><ele>472.0</ele><time>2026-04-25T14:49:56.086Z</time></trkpt><trkpt lat="44.5744808" lon="7.9887937"><ele>472.33333333333337</ele><time>2026-04-25T14:49:57.086Z</time></trkpt><trkpt lat="44.5744515" lon="7.988966"><ele>472.66666666666663</ele><time>2026-04-25T14:49:58.086Z</time></trkpt><trkpt lat="44.5744014" lon="7.989148"><ele>473.0</ele><time>2026-04-25T14:49:59.085Z</time></trkpt><trkpt lat="44.5742916" lon="7.9893865"><ele>474.66666666666663</ele><time>2026-04-25T14:50:00.086Z</time></trkpt><trkpt lat="44.5741915" lon="7.9895732"><ele>476.33333333333337</ele><time>2026-04-25T14:50:01.086Z</time></trkpt><trkpt lat="44.5740783" lon="7.9897487"><ele>478.0</ele><time>2026-04-25T14:50:02.086Z</time></trkpt><trkpt lat="44.5739578" lon="7.9899118"><ele>480.0</ele><time>2026-04-25T14:50:03.086Z</time></trkpt><trkpt lat="44.5738301" lon="7.9900684"><ele>482.0</ele><time>2026-04-25T14:50:04.086Z</time></trkpt><trkpt lat="44.5736894" lon="7.9902224"><ele>484.0</ele><time>2026-04-25T14:50:05.086Z</time></trkpt><trkpt lat="44.5735389" lon="7.9903715"><ele>484.0</ele><time>2026-04-25T14:50:06.086Z</time></trkpt><trkpt lat="44.5734021" lon="7.9905174"><ele>484.0</ele><time>2026-04-25T14:50:07.086Z</time></trkpt><trkpt lat="44.5732608" lon="7.9906703"><ele>484.0</ele><time>2026-04-25T14:50:08.085Z</time></trkpt><trkpt lat="44.5731249" lon="7.9908095"><ele>484.6666666666667</ele><time>2026-04-25T14:50:09.086Z</time></trkpt><trkpt lat="44.572997" lon="7.9909308"><ele>485.33333333333337</ele><time>2026-04-25T14:50:10.086Z</time></trkpt><trkpt lat="44.5728908" lon="7.9910806"><ele>486.0</ele><time>2026-04-25T14:50:11.086Z</time></trkpt><trkpt lat="44.5727954" lon="7.9912435"><ele>486.0</ele><time>2026-04-25T14:50:12.086Z</time></trkpt><trkpt lat="44.5727062" lon="7.9914383"><ele>486.0</ele><time>2026-04-25T14:50:13.086Z</time></trkpt><trkpt lat="44.5726341" lon="7.9916281"><ele>486.0</ele><time>2026-04-25T14:50:14.086Z</time></trkpt><trkpt lat="44.5725683" lon="7.9918384"><ele>490.0</ele><time>2026-04-25T14:50:15.086Z</time></trkpt><trkpt lat="44.5724976" lon="7.9920447"><ele>494.0</ele><time>2026-04-25T14:50:16.086Z</time></trkpt><trkpt lat="44.5724176" lon="7.9922238"><ele>498.0</ele><time>2026-04-25T14:50:17.086Z</time></trkpt><trkpt lat="44.5722816" lon="7.992354"><ele>498.0</ele><time>2026-04-25T14:50:18.085Z</time></trkpt><trkpt lat="44.5721489" lon="7.9924651"><ele>498.0</ele><time>2026-04-25T14:50:19.086Z</time></trkpt><trkpt lat="44.5720121" lon="7.9925808"><ele>498.0</ele><time>2026-04-25T14:50:20.085Z</time></trkpt><trkpt lat="44.5718942" lon="7.9926962"><ele>497.25</ele><time>2026-04-25T14:50:21.085Z</time></trkpt><trkpt lat="44.5717739" lon="7.9928162"><ele>496.5</ele><time>2026-04-25T14:50:22.085Z</time></trkpt><trkpt lat="44.5716941" lon="7.9929805"><ele>495.75</ele><time>2026-04-25T14:50:23.086Z</time></trkpt><trkpt lat="44.5716214" lon="7.9931324"><ele>495.0</ele><time>2026-04-25T14:50:24.086Z</time></trkpt><trkpt lat="44.5715905" lon="7.9932812"><ele>493.8</ele><time>2026-04-25T14:50:25.086Z</time></trkpt><trkpt lat="44.5715797" lon="7.9934399"><ele>492.6</ele><time>2026-04-25T14:50:26.086Z</time></trkpt><trkpt lat="44.5716108" lon="7.9935875"><ele>491.4</ele><time>2026-04-25T14:50:27.086Z</time></trkpt><trkpt lat="44.5716408" lon="7.9937371"><ele>490.2</ele><time>2026-04-25T14:50:28.085Z</time></trkpt><trkpt lat="44.5716834" lon="7.9938677"><ele>489.0</ele><time>2026-04-25T14:50:29.085Z</time></trkpt><trkpt lat="44.5718211" lon="7.9939666"><ele>489.0</ele><time>2026-04-25T14:50:30.086Z</time></trkpt><trkpt lat="44.5719263" lon="7.9940882"><ele>489.0</ele><time>2026-04-25T14:50:31.086Z</time></trkpt><trkpt lat="44.5720466" lon="7.9942303"><ele>489.0</ele><time>2026-04-25T14:50:32.086Z</time></trkpt><trkpt lat="44.5722011" lon="7.9943608"><ele>491.0</ele><time>2026-04-25T14:50:33.086Z</time></trkpt><trkpt lat="44.5723037" lon="7.9945271"><ele>493.0</ele><time>2026-04-25T14:50:34.086Z</time></trkpt><trkpt lat="44.5723784" lon="7.994722"><ele>495.0</ele><time>2026-04-25T14:50:35.085Z</time></trkpt><trkpt lat="44.5724411" lon="7.994932"><ele>496.0</ele><time>2026-04-25T14:50:36.086Z</time></trkpt><trkpt lat="44.5725112" lon="7.9951423"><ele>497.0</ele><time>2026-04-25T14:50:37.086Z</time></trkpt><trkpt lat="44.5725744" lon="7.9953469"><ele>498.0</ele><time>2026-04-25T14:50:38.086Z</time></trkpt><trkpt lat="44.5726393" lon="7.9955653"><ele>498.0</ele><time>2026-04-25T14:50:39.086Z</time></trkpt><trkpt lat="44.5727432" lon="7.9957235"><ele>498.0</ele><time>2026-04-25T14:50:40.086Z</time></trkpt><trkpt lat="44.5728655" lon="7.9958706"><ele>498.0</ele><time>2026-04-25T14:50:41.086Z</time></trkpt><trkpt lat="44.5729914" lon="7.9960071"><ele>500.0</ele><time>2026-04-25T14:50:42.085Z</time></trkpt><trkpt lat="44.5731142" lon="7.9961447"><ele>502.0</ele><time>2026-04-25T14:50:43.086Z</time></trkpt><trkpt lat="44.5732299" lon="7.9962708"><ele>504.0</ele><time>2026-04-25T14:50:44.086Z</time></trkpt><trkpt lat="44.5733494" lon="7.9963945"><ele>504.0</ele><time>2026-04-25T14:50:45.086Z</time></trkpt><trkpt lat="44.5734633" lon="7.996526"><ele>504.0</ele><time>2026-04-25T14:50:46.085Z</time></trkpt><trkpt lat="44.5735908" lon="7.9966613"><ele>504.0</ele><time>2026-04-25T14:50:47.085Z</time></trkpt><trkpt lat="44.5737109" lon="7.9967929"><ele>503.25</ele><time>2026-04-25T14:50:48.085Z</time></trkpt><trkpt lat="44.5738067" lon="7.9969219"><ele>502.5</ele><time>2026-04-25T14:50:49.086Z</time></trkpt><trkpt lat="44.5739059" lon="7.9970874"><ele>501.75</ele><time>2026-04-25T14:50:50.086Z</time></trkpt><trkpt lat="44.5739956" lon="7.9972629"><ele>501.0</ele><time>2026-04-25T14:50:51.086Z</time></trkpt><trkpt lat="44.5740893" lon="7.9974305"><ele>502.5</ele><time>2026-04-25T14:50:52.085Z</time></trkpt><trkpt lat="44.5741408" lon="7.9976255"><ele>504.0</ele><time>2026-04-25T14:50:53.085Z</time></trkpt><trkpt lat="44.5741737" lon="7.9978253"><ele>505.5</ele><time>2026-04-25T14:50:54.085Z</time></trkpt><trkpt lat="44.5741944" lon="7.9980138"><ele>507.0</ele><time>2026-04-25T14:50:55.086Z</time></trkpt><trkpt lat="44.5742197" lon="7.9981888"><ele>506.5</ele><time>2026-04-25T14:50:56.086Z</time></trkpt><trkpt lat="44.57427" lon="7.9983514"><ele>506.0</ele><time>2026-04-25T14:50:57.085Z</time></trkpt><trkpt lat="44.5743453" lon="7.998505"><ele>505.5</ele><time>2026-04-25T14:50:58.085Z</time></trkpt><trkpt lat="44.5744353" lon="7.9986394"><ele>505.0</ele><time>2026-04-25T14:50:59.086Z</time></trkpt><trkpt lat="44.5745482" lon="7.9987685"><ele>505.0</ele><time>2026-04-25T14:51:00.086Z</time></trkpt><trkpt lat="44.574669" lon="7.9988912"><ele>505.0</ele><time>2026-04-25T14:51:01.086Z</time></trkpt><trkpt lat="44.5747872" lon="7.9990215"><ele>505.0</ele><time>2026-04-25T14:51:02.086Z</time></trkpt><trkpt lat="44.5749141" lon="7.9991493"><ele>506.25</ele><time>2026-04-25T14:51:03.086Z</time></trkpt><trkpt lat="44.5750362" lon="7.9992747"><ele>507.5</ele><time>2026-04-25T14:51:04.086Z</time></trkpt><trkpt lat="44.5751498" lon="7.9993973"><ele>508.75</ele><time>2026-04-25T14:51:05.086Z</time></trkpt><trkpt lat="44.5752595" lon="7.9995099"><ele>510.0</ele><time>2026-04-25T14:51:06.086Z</time></trkpt><trkpt lat="44.5753451" lon="7.9996202"><ele>506.0</ele><time>2026-04-25T14:51:07.086Z</time></trkpt><trkpt lat="44.5754343" lon="7.9997447"><ele>502.0</ele><time>2026-04-25T14:51:08.086Z</time></trkpt><trkpt lat="44.5755003" lon="7.9998928"><ele>498.0</ele><time>2026-04-25T14:51:09.086Z</time></trkpt><trkpt lat="44.5755708" lon="8.0000327"><ele>494.0</ele><time>2026-04-25T14:51:10.085Z</time></trkpt><trkpt lat="44.5755888" lon="8.0002275"><ele>494.0</ele><time>2026-04-25T14:51:11.086Z</time></trkpt><trkpt lat="44.5756026" lon="8.0004274"><ele>494.0</ele><time>2026-04-25T14:51:12.085Z</time></trkpt><trkpt lat="44.5756101" lon="8.0006332"><ele>494.0</ele><time>2026-04-25T14:51:13.086Z</time></trkpt><trkpt lat="44.5756294" lon="8.0008358"><ele>494.0</ele><time>2026-04-25T14:51:14.085Z</time></trkpt><trkpt lat="44.5756516" lon="8.0010274"><ele>495.25</ele><time>2026-04-25T14:51:15.086Z</time></trkpt><trkpt lat="44.5757035" lon="8.0012211"><ele>496.5</ele><time>2026-04-25T14:51:16.086Z</time></trkpt><trkpt lat="44.5757635" lon="8.0014022"><ele>497.75</ele><time>2026-04-25T14:51:17.086Z</time></trkpt><trkpt lat="44.5758422" lon="8.0015643"><ele>499.0</ele><time>2026-04-25T14:51:18.086Z</time></trkpt><trkpt lat="44.575963" lon="8.001743"><ele>501.0</ele><time>2026-04-25T14:51:19.086Z</time></trkpt><trkpt lat="44.57607" lon="8.0019224"><ele>503.0</ele><time>2026-04-25T14:51:20.086Z</time></trkpt><trkpt lat="44.5761958" lon="8.0021118"><ele>505.0</ele><time>2026-04-25T14:51:21.085Z</time></trkpt><trkpt lat="44.5763089" lon="8.0022741"><ele>503.6666666666667</ele><time>2026-04-25T14:51:22.086Z</time></trkpt><trkpt lat="44.5764214" lon="8.0024518"><ele>502.33333333333337</ele><time>2026-04-25T14:51:23.086Z</time></trkpt><trkpt lat="44.5765391" lon="8.0026308"><ele>501.0</ele><time>2026-04-25T14:51:24.086Z</time></trkpt><trkpt lat="44.5766626" lon="8.0028142"><ele>501.0</ele><time>2026-04-25T14:51:25.086Z</time></trkpt><trkpt lat="44.5767723" lon="8.0029932"><ele>501.0</ele><time>2026-04-25T14:51:26.085Z</time></trkpt><trkpt lat="44.5768846" lon="8.0031785"><ele>501.0</ele><time>2026-04-25T14:51:27.086Z</time></trkpt><trkpt lat="44.5769965" lon="8.0033587"><ele>500.0</ele><time>2026-04-25T14:51:28.086Z</time></trkpt><trkpt lat="44.5771145" lon="8.0035385"><ele>499.0</ele><time>2026-04-25T14:51:29.086Z</time></trkpt><trkpt lat="44.5772195" lon="8.0036886"><ele>498.0</ele><time>2026-04-25T14:51:30.086Z</time></trkpt><trkpt lat="44.577326" lon="8.003829"><ele>498.0</ele><time>2026-04-25T14:51:31.085Z</time></trkpt><trkpt lat="44.5774394" lon="8.0039592"><ele>498.0</ele><time>2026-04-25T14:51:32.085Z</time></trkpt><trkpt lat="44.5775354" lon="8.0040761"><ele>498.0</ele><time>2026-04-25T14:51:33.086Z</time></trkpt><trkpt lat="44.5776382" lon="8.0041945"><ele>498.0</ele><time>2026-04-25T14:51:34.086Z</time></trkpt><trkpt lat="44.5777395" lon="8.0043174"><ele>497.0</ele><time>2026-04-25T14:51:35.085Z</time></trkpt><trkpt lat="44.5778459" lon="8.0044326"><ele>496.0</ele><time>2026-04-25T14:51:36.086Z</time></trkpt><trkpt lat="44.5779265" lon="8.0045647"><ele>495.0</ele><time>2026-04-25T14:51:37.086Z</time></trkpt><trkpt lat="44.5780196" lon="8.0047068"><ele>494.0</ele><time>2026-04-25T14:51:38.086Z</time></trkpt><trkpt lat="44.578123" lon="8.0048497"><ele>496.66666666666663</ele><time>2026-04-25T14:51:39.086Z</time></trkpt><trkpt lat="44.5782313" lon="8.0050622"><ele>499.33333333333337</ele><time>2026-04-25T14:51:40.086Z</time></trkpt><trkpt lat="44.5783205" lon="8.0052599"><ele>502.0</ele><time>2026-04-25T14:51:41.086Z</time></trkpt><trkpt lat="44.5784015" lon="8.0054749"><ele>502.0</ele><time>2026-04-25T14:51:42.086Z</time></trkpt><trkpt lat="44.5784867" lon="8.0056887"><ele>502.0</ele><time>2026-04-25T14:51:43.086Z</time></trkpt><trkpt lat="44.578564" lon="8.0059042"><ele>502.0</ele><time>2026-04-25T14:51:44.086Z</time></trkpt><trkpt lat="44.578636" lon="8.0060786"><ele>501.5</ele><time>2026-04-25T14:51:45.086Z</time></trkpt><trkpt lat="44.5787123" lon="8.0062656"><ele>501.0</ele><time>2026-04-25T14:51:46.086Z</time></trkpt><trkpt lat="44.5787893" lon="8.0064427"><ele>500.5</ele><time>2026-04-25T14:51:47.085Z</time></trkpt><trkpt lat="44.5788367" lon="8.0066094"><ele>500.0</ele><time>2026-04-25T14:51:48.085Z</time></trkpt><trkpt lat="44.5788246" lon="8.0067936"><ele>502.25</ele><time>2026-04-25T14:51:49.085Z</time></trkpt><trkpt lat="44.5788031" lon="8.0069778"><ele>504.5</ele><time>2026-04-25T14:51:50.086Z</time></trkpt><trkpt lat="44.578757" lon="8.007173"><ele>506.75</ele><time>2026-04-25T14:51:51.086Z</time></trkpt><trkpt lat="44.5786651" lon="8.0073694"><ele>509.0</ele><time>2026-04-25T14:51:52.085Z</time></trkpt><trkpt lat="44.5785726" lon="8.0075366"><ele>510.5</ele><time>2026-04-25T14:51:53.086Z</time></trkpt><trkpt lat="44.5784583" lon="8.0076673"><ele>512.0</ele><time>2026-04-25T14:51:54.086Z</time></trkpt><trkpt lat="44.5783493" lon="8.0077826"><ele>513.5</ele><time>2026-04-25T14:51:55.086Z</time></trkpt><trkpt lat="44.578267" lon="8.0078968"><ele>515.0</ele><time>2026-04-25T14:51:56.086Z</time></trkpt><trkpt lat="44.5781961" lon="8.0079985"><ele>515.0</ele><time>2026-04-25T14:51:57.086Z</time></trkpt><trkpt lat="44.5781463" lon="8.0081163"><ele>515.0</ele><time>2026-04-25T14:51:58.086Z</time></trkpt><trkpt lat="44.5781222" lon="8.0082356"><ele>515.0</ele><time>2026-04-25T14:51:59.085Z</time></trkpt><trkpt lat="44.5781002" lon="8.0083748"><ele>515.0</ele><time>2026-04-25T14:52:00.086Z</time></trkpt><trkpt lat="44.5781027" lon="8.0085238"><ele>515.0</ele><time>2026-04-25T14:52:01.086Z</time></trkpt><trkpt lat="44.5782024" lon="8.0087155"><ele>517.5</ele><time>2026-04-25T14:52:02.086Z</time></trkpt><trkpt lat="44.5782628" lon="8.0088788"><ele>520.0</ele><time>2026-04-25T14:52:03.086Z</time></trkpt><trkpt lat="44.5783098" lon="8.0090642"><ele>522.5</ele><time>2026-04-25T14:52:04.085Z</time></trkpt><trkpt lat="44.578353" lon="8.0092778"><ele>525.0</ele><time>2026-04-25T14:52:05.086Z</time></trkpt><trkpt lat="44.5783906" lon="8.0094909"><ele>526.3333333333334</ele><time>2026-04-25T14:52:06.085Z</time></trkpt><trkpt lat="44.5784405" lon="8.0097103"><ele>527.6666666666667</ele><time>2026-04-25T14:52:07.086Z</time></trkpt><trkpt lat="44.578492" lon="8.0099453"><ele>529.0</ele><time>2026-04-25T14:52:08.086Z</time></trkpt><trkpt lat="44.5785419" lon="8.0101829"><ele>530.3333333333334</ele><time>2026-04-25T14:52:09.085Z</time></trkpt><trkpt lat="44.5785906" lon="8.0104245"><ele>531.6666666666666</ele><time>2026-04-25T14:52:10.086Z</time></trkpt><trkpt lat="44.5786391" lon="8.0106533"><ele>533.0</ele><time>2026-04-25T14:52:11.086Z</time></trkpt><trkpt lat="44.5786887" lon="8.0108676"><ele>530.75</ele><time>2026-04-25T14:52:12.086Z</time></trkpt><trkpt lat="44.5787363" lon="8.0110539"><ele>528.5</ele><time>2026-04-25T14:52:13.086Z</time></trkpt><trkpt lat="44.5787592" lon="8.0112471"><ele>526.25</ele><time>2026-04-25T14:52:14.086Z</time></trkpt><trkpt lat="44.5787634" lon="8.0114385"><ele>524.0</ele><time>2026-04-25T14:52:15.086Z</time></trkpt><trkpt lat="44.5787283" lon="8.0116146"><ele>524.5</ele><time>2026-04-25T14:52:16.086Z</time></trkpt><trkpt lat="44.5786932" lon="8.0117738"><ele>525.0</ele><time>2026-04-25T14:52:17.085Z</time></trkpt><trkpt lat="44.5786697" lon="8.0119215"><ele>525.5</ele><time>2026-04-25T14:52:18.086Z</time></trkpt><trkpt lat="44.5786808" lon="8.012084"><ele>526.0</ele><time>2026-04-25T14:52:19.085Z</time></trkpt><trkpt lat="44.5787033" lon="8.0122505"><ele>526.0</ele><time>2026-04-25T14:52:20.086Z</time></trkpt><trkpt lat="44.5787891" lon="8.012408"><ele>526.0</ele><time>2026-04-25T14:52:21.085Z</time></trkpt><trkpt lat="44.5788575" lon="8.0125501"><ele>526.0</ele><time>2026-04-25T14:52:22.086Z</time></trkpt><trkpt lat="44.5789315" lon="8.0126866"><ele>526.0</ele><time>2026-04-25T14:52:23.086Z</time></trkpt><trkpt lat="44.5789847" lon="8.0128255"><ele>528.0</ele><time>2026-04-25T14:52:24.086Z</time></trkpt><trkpt lat="44.5790381" lon="8.0129676"><ele>530.0</ele><time>2026-04-25T14:52:25.086Z</time></trkpt><trkpt lat="44.5790635" lon="8.0131201"><ele>532.0</ele><time>2026-04-25T14:52:26.086Z</time></trkpt><trkpt lat="44.5790623" lon="8.0132816"><ele>534.0</ele><time>2026-04-25T14:52:27.085Z</time></trkpt><trkpt lat="44.5790298" lon="8.0134143"><ele>536.0</ele><time>2026-04-25T14:52:28.086Z</time></trkpt><trkpt lat="44.578981" lon="8.0135411"><ele>538.75</ele><time>2026-04-25T14:52:29.085Z</time></trkpt><trkpt lat="44.5789175" lon="8.0136492"><ele>541.5</ele><time>2026-04-25T14:52:30.086Z</time></trkpt><trkpt lat="44.5788578" lon="8.0137318"><ele>544.25</ele><time>2026-04-25T14:52:31.085Z</time></trkpt><trkpt lat="44.5787317" lon="8.0137926"><ele>547.0</ele><time>2026-04-25T14:52:32.085Z</time></trkpt><trkpt lat="44.5785884" lon="8.0138458"><ele>551.6666666666667</ele><time>2026-04-25T14:52:33.086Z</time></trkpt><trkpt lat="44.5784419" lon="8.0138969"><ele>556.3333333333334</ele><time>2026-04-25T14:52:34.086Z</time></trkpt><trkpt lat="44.5782934" lon="8.0139392"><ele>561.0</ele><time>2026-04-25T14:52:35.086Z</time></trkpt><trkpt lat="44.5781379" lon="8.0139952"><ele>561.0</ele><time>2026-04-25T14:52:36.086Z</time></trkpt><trkpt lat="44.5780035" lon="8.0140701"><ele>561.0</ele><time>2026-04-25T14:52:37.085Z</time></trkpt><trkpt lat="44.5778718" lon="8.0141243"><ele>561.0</ele><time>2026-04-25T14:52:38.086Z</time></trkpt><trkpt lat="44.5777377" lon="8.0141913"><ele>561.0</ele><time>2026-04-25T14:52:39.086Z</time></trkpt><trkpt lat="44.5776234" lon="8.0142526"><ele>561.75</ele><time>2026-04-25T14:52:40.086Z</time></trkpt><trkpt lat="44.5775022" lon="8.0143127"><ele>562.5</ele><time>2026-04-25T14:52:41.086Z</time></trkpt><trkpt lat="44.5773819" lon="8.014387"><ele>563.25</ele><time>2026-04-25T14:52:42.086Z</time></trkpt><trkpt lat="44.5772629" lon="8.0144481"><ele>564.0</ele><time>2026-04-25T14:52:43.085Z</time></trkpt><trkpt lat="44.5771312" lon="8.0145078"><ele>566.75</ele><time>2026-04-25T14:52:44.086Z</time></trkpt><trkpt lat="44.5769981" lon="8.0145736"><ele>569.5</ele><time>2026-04-25T14:52:45.086Z</time></trkpt><trkpt lat="44.5768794" lon="8.0146345"><ele>572.25</ele><time>2026-04-25T14:52:46.085Z</time></trkpt><trkpt lat="44.5767604" lon="8.014693"><ele>575.0</ele><time>2026-04-25T14:52:47.086Z</time></trkpt><trkpt lat="44.5766395" lon="8.0147643"><ele>575.0</ele><time>2026-04-25T14:52:48.086Z</time></trkpt><trkpt lat="44.5765217" lon="8.0148278"><ele>575.0</ele><time>2026-04-25T14:52:49.086Z</time></trkpt><trkpt lat="44.5764496" lon="8.0148659"><ele>575.0</ele><time>2026-04-25T14:52:50.085Z</time></trkpt><trkpt lat="44.5763769" lon="8.0149013"><ele>575.0</ele><time>2026-04-25T14:52:51.086Z</time></trkpt><trkpt lat="44.576285" lon="8.0149087"><ele>575.0</ele><time>2026-04-25T14:52:53.085Z</time></trkpt><trkpt lat="44.576293" lon="8.0150086"><ele>575.0</ele><time>2026-04-25T14:52:56.085Z</time></trkpt><trkpt lat="44.5763472" lon="8.0150591"><ele>575.0</ele><time>2026-04-25T14:52:58.085Z</time></trkpt><trkpt lat="44.5764283" lon="8.0150134"><ele>575.0</ele><time>2026-04-25T14:53:00.086Z</time></trkpt><trkpt lat="44.5765374" lon="8.014926"><ele>575.0</ele><time>2026-04-25T14:53:02.086Z</time></trkpt><trkpt lat="44.5766291" lon="8.0148836"><ele>575.0</ele><time>2026-04-25T14:53:03.086Z</time></trkpt><trkpt lat="44.5767126" lon="8.0148371"><ele>575.0</ele><time>2026-04-25T14:53:04.086Z</time></trkpt><trkpt lat="44.5768316" lon="8.0147491"><ele>575.0</ele><time>2026-04-25T14:53:05.086Z</time></trkpt><trkpt lat="44.5769569" lon="8.0146767"><ele>575.0</ele><time>2026-04-25T14:53:06.085Z</time></trkpt><trkpt lat="44.577082" lon="8.0146029"><ele>575.0</ele><time>2026-04-25T14:53:07.085Z</time></trkpt><trkpt lat="44.5772144" lon="8.0145353"><ele>575.0</ele><time>2026-04-25T14:53:08.086Z</time></trkpt><trkpt lat="44.5773324" lon="8.0144449"><ele>572.25</ele><time>2026-04-25T14:53:09.086Z</time></trkpt><trkpt lat="44.5774724" lon="8.0143572"><ele>569.5</ele><time>2026-04-25T14:53:10.085Z</time></trkpt><trkpt lat="44.5776042" lon="8.0142898"><ele>566.75</ele><time>2026-04-25T14:53:11.086Z</time></trkpt><trkpt lat="44.5777439" lon="8.0142106"><ele>564.0</ele><time>2026-04-25T14:53:12.086Z</time></trkpt><trkpt lat="44.5778754" lon="8.0141496"><ele>563.25</ele><time>2026-04-25T14:53:13.086Z</time></trkpt><trkpt lat="44.5780163" lon="8.0140843"><ele>562.5</ele><time>2026-04-25T14:53:14.086Z</time></trkpt><trkpt lat="44.5781495" lon="8.0140238"><ele>561.75</ele><time>2026-04-25T14:53:15.086Z</time></trkpt><trkpt lat="44.578287" lon="8.0139766"><ele>561.0</ele><time>2026-04-25T14:53:16.086Z</time></trkpt><trkpt lat="44.5784187" lon="8.0139252"><ele>561.0</ele><time>2026-04-25T14:53:17.086Z</time></trkpt><trkpt lat="44.578547" lon="8.0138878"><ele>561.0</ele><time>2026-04-25T14:53:18.086Z</time></trkpt><trkpt lat="44.5786797" lon="8.0138581"><ele>561.0</ele><time>2026-04-25T14:53:19.086Z</time></trkpt><trkpt lat="44.5787901" lon="8.0138206"><ele>561.0</ele><time>2026-04-25T14:53:20.086Z</time></trkpt><trkpt lat="44.5788919" lon="8.0137793"><ele>558.2</ele><time>2026-04-25T14:53:21.085Z</time></trkpt><trkpt lat="44.5789722" lon="8.0137101"><ele>555.4000000000001</ele><time>2026-04-25T14:53:22.086Z</time></trkpt><trkpt lat="44.5790372" lon="8.0136136"><ele>552.6</ele><time>2026-04-25T14:53:23.086Z</time></trkpt><trkpt lat="44.5790983" lon="8.0135218"><ele>549.8000000000001</ele><time>2026-04-25T14:53:24.085Z</time></trkpt><trkpt lat="44.5791153" lon="8.0134242"><ele>547.0</ele><time>2026-04-25T14:53:25.085Z</time></trkpt><trkpt lat="44.5791531" lon="8.0132872"><ele>547.0</ele><time>2026-04-25T14:53:27.086Z</time></trkpt><trkpt lat="44.5792414" lon="8.0132512"><ele>547.0</ele><time>2026-04-25T14:53:29.086Z</time></trkpt><trkpt lat="44.5793121" lon="8.0133891"><ele>547.0</ele><time>2026-04-25T14:53:31.086Z</time></trkpt><trkpt lat="44.5793436" lon="8.0134914"><ele>547.0</ele><time>2026-04-25T14:53:32.086Z</time></trkpt><trkpt lat="44.5793932" lon="8.0136048"><ele>547.0</ele><time>2026-04-25T14:53:33.086Z</time></trkpt><trkpt lat="44.5794541" lon="8.0137184"><ele>542.6</ele><time>2026-04-25T14:53:34.086Z</time></trkpt><trkpt lat="44.5795405" lon="8.0138142"><ele>538.2</ele><time>2026-04-25T14:53:35.086Z</time></trkpt><trkpt lat="44.5796228" lon="8.0138935"><ele>533.8</ele><time>2026-04-25T14:53:36.085Z</time></trkpt><trkpt lat="44.5797356" lon="8.0139437"><ele>529.4</ele><time>2026-04-25T14:53:37.086Z</time></trkpt><trkpt lat="44.5798545" lon="8.0139722"><ele>525.0</ele><time>2026-04-25T14:53:38.086Z</time></trkpt><trkpt lat="44.5799988" lon="8.0139743"><ele>525.0</ele><time>2026-04-25T14:53:39.085Z</time></trkpt><trkpt lat="44.5801331" lon="8.0139711"><ele>525.0</ele><time>2026-04-25T14:53:40.086Z</time></trkpt><trkpt lat="44.5802818" lon="8.0139645"><ele>525.0</ele><time>2026-04-25T14:53:41.086Z</time></trkpt><trkpt lat="44.5804306" lon="8.0139627"><ele>525.0</ele><time>2026-04-25T14:53:42.086Z</time></trkpt><trkpt lat="44.580575" lon="8.0139609"><ele>522.6666666666666</ele><time>2026-04-25T14:53:43.086Z</time></trkpt><trkpt lat="44.5807233" lon="8.0139576"><ele>520.3333333333333</ele><time>2026-04-25T14:53:44.086Z</time></trkpt><trkpt lat="44.5808799" lon="8.0139557"><ele>518.0</ele><time>2026-04-25T14:53:45.086Z</time></trkpt><trkpt lat="44.5810366" lon="8.0139564"><ele>518.0</ele><time>2026-04-25T14:53:46.085Z</time></trkpt><trkpt lat="44.5811822" lon="8.0139668"><ele>518.0</ele><time>2026-04-25T14:53:47.085Z</time></trkpt><trkpt lat="44.5813369" lon="8.0139708"><ele>518.0</ele><time>2026-04-25T14:53:48.085Z</time></trkpt><trkpt lat="44.581472" lon="8.0140223"><ele>518.0</ele><time>2026-04-25T14:53:49.085Z</time></trkpt><trkpt lat="44.581605" lon="8.0140682"><ele>517.5</ele><time>2026-04-25T14:53:50.086Z</time></trkpt><trkpt lat="44.5817311" lon="8.0141028"><ele>517.0</ele><time>2026-04-25T14:53:51.086Z</time></trkpt><trkpt lat="44.5818598" lon="8.0141278"><ele>516.5</ele><time>2026-04-25T14:53:52.086Z</time></trkpt><trkpt lat="44.5819856" lon="8.0141395"><ele>516.0</ele><time>2026-04-25T14:53:53.086Z</time></trkpt><trkpt lat="44.5821276" lon="8.014112"><ele>515.5</ele><time>2026-04-25T14:53:54.085Z</time></trkpt><trkpt lat="44.5822516" lon="8.0140594"><ele>515.0</ele><time>2026-04-25T14:53:55.085Z</time></trkpt><trkpt lat="44.5823633" lon="8.0139858"><ele>514.5</ele><time>2026-04-25T14:53:56.086Z</time></trkpt><trkpt lat="44.582488" lon="8.0138806"><ele>514.0</ele><time>2026-04-25T14:53:57.086Z</time></trkpt><trkpt lat="44.5826072" lon="8.0137604"><ele>514.0</ele><time>2026-04-25T14:53:58.086Z</time></trkpt><trkpt lat="44.5827281" lon="8.013633"><ele>514.0</ele><time>2026-04-25T14:53:59.085Z</time></trkpt><trkpt lat="44.5828508" lon="8.013517"><ele>514.0</ele><time>2026-04-25T14:54:00.086Z</time></trkpt><trkpt lat="44.5829763" lon="8.0133984"><ele>511.25</ele><time>2026-04-25T14:54:01.085Z</time></trkpt><trkpt lat="44.5830946" lon="8.0132929"><ele>508.5</ele><time>2026-04-25T14:54:02.085Z</time></trkpt><trkpt lat="44.5832003" lon="8.0131957"><ele>505.75</ele><time>2026-04-25T14:54:03.086Z</time></trkpt><trkpt lat="44.5833267" lon="8.0131155"><ele>503.0</ele><time>2026-04-25T14:54:04.085Z</time></trkpt><trkpt lat="44.5834618" lon="8.0130405"><ele>503.0</ele><time>2026-04-25T14:54:05.085Z</time></trkpt><trkpt lat="44.5835937" lon="8.0129855"><ele>503.0</ele><time>2026-04-25T14:54:06.086Z</time></trkpt><trkpt lat="44.5837352" lon="8.0129468"><ele>503.0</ele><time>2026-04-25T14:54:07.086Z</time></trkpt><trkpt lat="44.5838829" lon="8.0129112"><ele>503.0</ele><time>2026-04-25T14:54:08.086Z</time></trkpt><trkpt lat="44.5840227" lon="8.0128806"><ele>503.25</ele><time>2026-04-25T14:54:09.085Z</time></trkpt><trkpt lat="44.5841705" lon="8.0128535"><ele>503.5</ele><time>2026-04-25T14:54:10.086Z</time></trkpt><trkpt lat="44.5843153" lon="8.0128223"><ele>503.75</ele><time>2026-04-25T14:54:11.086Z</time></trkpt><trkpt lat="44.5844535" lon="8.0127918"><ele>504.0</ele><time>2026-04-25T14:54:12.085Z</time></trkpt><trkpt lat="44.5845723" lon="8.012762"><ele>503.6</ele><time>2026-04-25T14:54:13.085Z</time></trkpt><trkpt lat="44.58469" lon="8.0127316"><ele>503.2</ele><time>2026-04-25T14:54:14.085Z</time></trkpt><trkpt lat="44.5847852" lon="8.0126997"><ele>502.80000000000007</ele><time>2026-04-25T14:54:15.086Z</time></trkpt><trkpt lat="44.5848783" lon="8.0126805"><ele>502.40000000000003</ele><time>2026-04-25T14:54:16.086Z</time></trkpt><trkpt lat="44.5849651" lon="8.0126556"><ele>502.0</ele><time>2026-04-25T14:54:17.086Z</time></trkpt><trkpt lat="44.5850419" lon="8.0126369"><ele>502.00000000000006</ele><time>2026-04-25T14:54:18.086Z</time></trkpt><trkpt lat="44.5851052" lon="8.0126376"><ele>502.0</ele><time>2026-04-25T14:54:19.086Z</time></trkpt><trkpt lat="44.5852045" lon="8.0126924"><ele>502.0</ele><time>2026-04-25T14:54:21.086Z</time></trkpt><trkpt lat="44.5852357" lon="8.0127735"><ele>502.0</ele><time>2026-04-25T14:54:22.085Z</time></trkpt><trkpt lat="44.5852581" lon="8.0128768"><ele>502.00000000000006</ele><time>2026-04-25T14:54:23.086Z</time></trkpt><trkpt lat="44.5852805" lon="8.0129849"><ele>502.0</ele><time>2026-04-25T14:54:24.086Z</time></trkpt><trkpt lat="44.5853024" lon="8.0131003"><ele>502.0</ele><time>2026-04-25T14:54:25.086Z</time></trkpt><trkpt lat="44.5853216" lon="8.0132579"><ele>502.00000000000006</ele><time>2026-04-25T14:54:26.086Z</time></trkpt><trkpt lat="44.5853183" lon="8.0133899"><ele>502.00000000000006</ele><time>2026-04-25T14:54:27.085Z</time></trkpt><trkpt lat="44.5853335" lon="8.0135438"><ele>502.0</ele><time>2026-04-25T14:54:28.085Z</time></trkpt><trkpt lat="44.5853522" lon="8.0136892"><ele>502.0</ele><time>2026-04-25T14:54:29.086Z</time></trkpt><trkpt lat="44.5853849" lon="8.0138285"><ele>499.20000000000005</ele><time>2026-04-25T14:54:30.085Z</time></trkpt><trkpt lat="44.5854109" lon="8.0139728"><ele>496.40000000000003</ele><time>2026-04-25T14:54:31.086Z</time></trkpt><trkpt lat="44.5854909" lon="8.0141009"><ele>493.59999999999997</ele><time>2026-04-25T14:54:32.086Z</time></trkpt><trkpt lat="44.5855667" lon="8.0142176"><ele>490.79999999999995</ele><time>2026-04-25T14:54:33.085Z</time></trkpt><trkpt lat="44.5856305" lon="8.014334"><ele>488.0</ele><time>2026-04-25T14:54:34.085Z</time></trkpt><trkpt lat="44.5856972" lon="8.0144549"><ele>488.0</ele><time>2026-04-25T14:54:35.086Z</time></trkpt><trkpt lat="44.5857623" lon="8.0145894"><ele>487.99999999999994</ele><time>2026-04-25T14:54:36.086Z</time></trkpt><trkpt lat="44.5858091" lon="8.0147078"><ele>487.99999999999994</ele><time>2026-04-25T14:54:37.086Z</time></trkpt><trkpt lat="44.585848" lon="8.0148331"><ele>488.0</ele><time>2026-04-25T14:54:38.086Z</time></trkpt><trkpt lat="44.5858489" lon="8.014974"><ele>488.0</ele><time>2026-04-25T14:54:39.086Z</time></trkpt><trkpt lat="44.5858333" lon="8.0151147"><ele>488.2</ele><time>2026-04-25T14:54:40.086Z</time></trkpt><trkpt lat="44.5858104" lon="8.015249"><ele>488.4</ele><time>2026-04-25T14:54:41.086Z</time></trkpt><trkpt lat="44.5858168" lon="8.0153839"><ele>488.59999999999997</ele><time>2026-04-25T14:54:42.086Z</time></trkpt><trkpt lat="44.5858289" lon="8.0155097"><ele>488.79999999999995</ele><time>2026-04-25T14:54:43.085Z</time></trkpt><trkpt lat="44.5858587" lon="8.0156301"><ele>489.0</ele><time>2026-04-25T14:54:44.085Z</time></trkpt><trkpt lat="44.5859221" lon="8.0157372"><ele>489.2</ele><time>2026-04-25T14:54:45.085Z</time></trkpt><trkpt lat="44.586" lon="8.0158304"><ele>489.4</ele><time>2026-04-25T14:54:46.086Z</time></trkpt><trkpt lat="44.5860828" lon="8.0159229"><ele>489.6</ele><time>2026-04-25T14:54:47.085Z</time></trkpt><trkpt lat="44.5861552" lon="8.0160313"><ele>489.8</ele><time>2026-04-25T14:54:48.086Z</time></trkpt><trkpt lat="44.5862174" lon="8.0161501"><ele>490.0</ele><time>2026-04-25T14:54:49.086Z</time></trkpt><trkpt lat="44.5862646" lon="8.0162901"><ele>488.8</ele><time>2026-04-25T14:54:50.086Z</time></trkpt><trkpt lat="44.5863017" lon="8.016433"><ele>487.6</ele><time>2026-04-25T14:54:51.086Z</time></trkpt><trkpt lat="44.5863239" lon="8.0165622"><ele>486.4</ele><time>2026-04-25T14:54:52.086Z</time></trkpt><trkpt lat="44.5863501" lon="8.016675"><ele>485.2</ele><time>2026-04-25T14:54:53.086Z</time></trkpt><trkpt lat="44.5863757" lon="8.0167668"><ele>484.0</ele><time>2026-04-25T14:54:54.086Z</time></trkpt><trkpt lat="44.5864254" lon="8.016909"><ele>484.00000000000006</ele><time>2026-04-25T14:54:56.086Z</time></trkpt><trkpt lat="44.5864935" lon="8.017054"><ele>484.0</ele><time>2026-04-25T14:54:58.086Z</time></trkpt><trkpt lat="44.5865213" lon="8.0171396"><ele>484.0</ele><time>2026-04-25T14:54:59.086Z</time></trkpt><trkpt lat="44.586567" lon="8.017231"><ele>484.0</ele><time>2026-04-25T14:55:00.085Z</time></trkpt><trkpt lat="44.5866127" lon="8.0173357"><ele>484.00000000000006</ele><time>2026-04-25T14:55:01.086Z</time></trkpt><trkpt lat="44.5866568" lon="8.0174253"><ele>484.0</ele><time>2026-04-25T14:55:02.085Z</time></trkpt><trkpt lat="44.5867123" lon="8.0174943"><ele>484.00000000000006</ele><time>2026-04-25T14:55:03.085Z</time></trkpt><trkpt lat="44.5867732" lon="8.0175429"><ele>484.0</ele><time>2026-04-25T14:55:04.086Z</time></trkpt><trkpt lat="44.5868436" lon="8.017579"><ele>484.0</ele><time>2026-04-25T14:55:05.085Z</time></trkpt><trkpt lat="44.5869395" lon="8.0175898"><ele>484.0</ele><time>2026-04-25T14:55:06.086Z</time></trkpt><trkpt lat="44.5870427" lon="8.017609"><ele>484.00000000000006</ele><time>2026-04-25T14:55:07.086Z</time></trkpt><trkpt lat="44.5871416" lon="8.0176408"><ele>484.0</ele><time>2026-04-25T14:55:08.086Z</time></trkpt><trkpt lat="44.5872315" lon="8.0176786"><ele>484.00000000000006</ele><time>2026-04-25T14:55:09.085Z</time></trkpt><trkpt lat="44.5873053" lon="8.0177438"><ele>484.0</ele><time>2026-04-25T14:55:10.086Z</time></trkpt><trkpt lat="44.5873568" lon="8.017808"><ele>484.0</ele><time>2026-04-25T14:55:11.086Z</time></trkpt><trkpt lat="44.5874263" lon="8.0178592"><ele>484.0</ele><time>2026-04-25T14:55:12.086Z</time></trkpt><trkpt lat="44.5874885" lon="8.0179168"><ele>484.00000000000006</ele><time>2026-04-25T14:55:13.086Z</time></trkpt><trkpt lat="44.5875509" lon="8.0179945"><ele>484.0</ele><time>2026-04-25T14:55:14.086Z</time></trkpt><trkpt lat="44.5875993" lon="8.0180845"><ele>484.0</ele><time>2026-04-25T14:55:15.085Z</time></trkpt><trkpt lat="44.5876215" lon="8.0181992"><ele>484.0</ele><time>2026-04-25T14:55:16.085Z</time></trkpt><trkpt lat="44.587627" lon="8.0183259"><ele>484.0</ele><time>2026-04-25T14:55:17.086Z</time></trkpt><trkpt lat="44.5876274" lon="8.018445"><ele>484.0</ele><time>2026-04-25T14:55:18.085Z</time></trkpt><trkpt lat="44.5876033" lon="8.0185708"><ele>484.0</ele><time>2026-04-25T14:55:19.086Z</time></trkpt><trkpt lat="44.5875865" lon="8.0187144"><ele>481.33333333333337</ele><time>2026-04-25T14:55:20.085Z</time></trkpt><trkpt lat="44.5875809" lon="8.0188512"><ele>478.6666666666667</ele><time>2026-04-25T14:55:21.086Z</time></trkpt><trkpt lat="44.5875727" lon="8.0189815"><ele>476.0</ele><time>2026-04-25T14:55:22.086Z</time></trkpt><trkpt lat="44.5875549" lon="8.0191094"><ele>473.33333333333337</ele><time>2026-04-25T14:55:23.086Z</time></trkpt><trkpt lat="44.5875439" lon="8.0192264"><ele>470.6666666666667</ele><time>2026-04-25T14:55:24.086Z</time></trkpt><trkpt lat="44.5875295" lon="8.019332"><ele>468.0</ele><time>2026-04-25T14:55:25.085Z</time></trkpt><trkpt lat="44.5875281" lon="8.019431"><ele>466.2</ele><time>2026-04-25T14:55:26.085Z</time></trkpt><trkpt lat="44.5875359" lon="8.0195281"><ele>464.4</ele><time>2026-04-25T14:55:27.086Z</time></trkpt><trkpt lat="44.5875757" lon="8.0196288"><ele>462.59999999999997</ele><time>2026-04-25T14:55:28.085Z</time></trkpt><trkpt lat="44.5876244" lon="8.0197416"><ele>460.79999999999995</ele><time>2026-04-25T14:55:29.085Z</time></trkpt><trkpt lat="44.5876989" lon="8.0198476"><ele>459.0</ele><time>2026-04-25T14:55:30.086Z</time></trkpt><trkpt lat="44.5877633" lon="8.0199578"><ele>458.3333333333333</ele><time>2026-04-25T14:55:31.086Z</time></trkpt><trkpt lat="44.5878236" lon="8.0200658"><ele>457.66666666666663</ele><time>2026-04-25T14:55:32.086Z</time></trkpt><trkpt lat="44.5878929" lon="8.0201792"><ele>457.0</ele><time>2026-04-25T14:55:33.086Z</time></trkpt><trkpt lat="44.587932" lon="8.0202699"><ele>456.3333333333333</ele><time>2026-04-25T14:55:34.086Z</time></trkpt><trkpt lat="44.5879712" lon="8.0203476"><ele>455.66666666666663</ele><time>2026-04-25T14:55:35.086Z</time></trkpt><trkpt lat="44.5880232" lon="8.0204113"><ele>455.0</ele><time>2026-04-25T14:55:36.086Z</time></trkpt><trkpt lat="44.5881188" lon="8.0204336"><ele>455.0</ele><time>2026-04-25T14:55:37.086Z</time></trkpt><trkpt lat="44.5882113" lon="8.0204425"><ele>455.0</ele><time>2026-04-25T14:55:38.085Z</time></trkpt><trkpt lat="44.5883215" lon="8.0204221"><ele>455.0</ele><time>2026-04-25T14:55:39.086Z</time></trkpt><trkpt lat="44.5884339" lon="8.020395"><ele>455.0</ele><time>2026-04-25T14:55:40.085Z</time></trkpt><trkpt lat="44.5885275" lon="8.0203686"><ele>455.0</ele><time>2026-04-25T14:55:41.085Z</time></trkpt><trkpt lat="44.5886265" lon="8.0203307"><ele>453.6</ele><time>2026-04-25T14:55:42.086Z</time></trkpt><trkpt lat="44.5887236" lon="8.0203106"><ele>452.2</ele><time>2026-04-25T14:55:43.086Z</time></trkpt><trkpt lat="44.5888123" lon="8.0203138"><ele>450.79999999999995</ele><time>2026-04-25T14:55:44.086Z</time></trkpt><trkpt lat="44.5889139" lon="8.0203356"><ele>449.4</ele><time>2026-04-25T14:55:45.086Z</time></trkpt><trkpt lat="44.5890089" lon="8.0203824"><ele>448.0</ele><time>2026-04-25T14:55:46.085Z</time></trkpt><trkpt lat="44.5890994" lon="8.0204364"><ele>448.0</ele><time>2026-04-25T14:55:47.086Z</time></trkpt><trkpt lat="44.5891935" lon="8.0204974"><ele>447.99999999999994</ele><time>2026-04-25T14:55:48.086Z</time></trkpt><trkpt lat="44.5892789" lon="8.0205461"><ele>447.99999999999994</ele><time>2026-04-25T14:55:49.086Z</time></trkpt><trkpt lat="44.5893721" lon="8.0205918"><ele>448.0</ele><time>2026-04-25T14:55:50.086Z</time></trkpt><trkpt lat="44.589472" lon="8.0206116"><ele>448.0</ele><time>2026-04-25T14:55:51.086Z</time></trkpt><trkpt lat="44.5895801" lon="8.0206369"><ele>446.75</ele><time>2026-04-25T14:55:52.086Z</time></trkpt><trkpt lat="44.5896987" lon="8.0206658"><ele>445.5</ele><time>2026-04-25T14:55:53.086Z</time></trkpt><trkpt lat="44.5898045" lon="8.020711"><ele>444.25</ele><time>2026-04-25T14:55:54.085Z</time></trkpt><trkpt lat="44.5899049" lon="8.0207644"><ele>443.0</ele><time>2026-04-25T14:55:55.085Z</time></trkpt><trkpt lat="44.5900089" lon="8.0208263"><ele>439.4</ele><time>2026-04-25T14:55:56.085Z</time></trkpt><trkpt lat="44.5901056" lon="8.0208723"><ele>435.79999999999995</ele><time>2026-04-25T14:55:57.086Z</time></trkpt><trkpt lat="44.5902052" lon="8.0208926"><ele>432.2</ele><time>2026-04-25T14:55:58.086Z</time></trkpt><trkpt lat="44.5902998" lon="8.0209299"><ele>428.6</ele><time>2026-04-25T14:55:59.086Z</time></trkpt><trkpt lat="44.5904068" lon="8.0209639"><ele>425.0</ele><time>2026-04-25T14:56:00.086Z</time></trkpt><trkpt lat="44.5905075" lon="8.0209756"><ele>423.6</ele><time>2026-04-25T14:56:01.086Z</time></trkpt><trkpt lat="44.5906072" lon="8.0209852"><ele>422.2</ele><time>2026-04-25T14:56:02.086Z</time></trkpt><trkpt lat="44.5907069" lon="8.0209548"><ele>420.79999999999995</ele><time>2026-04-25T14:56:03.086Z</time></trkpt><trkpt lat="44.5907997" lon="8.020908"><ele>419.4</ele><time>2026-04-25T14:56:04.086Z</time></trkpt><trkpt lat="44.5908746" lon="8.0208143"><ele>418.0</ele><time>2026-04-25T14:56:05.086Z</time></trkpt><trkpt lat="44.5909487" lon="8.0207341"><ele>418.00000000000006</ele><time>2026-04-25T14:56:06.086Z</time></trkpt><trkpt lat="44.591027" lon="8.0206705"><ele>418.0</ele><time>2026-04-25T14:56:07.086Z</time></trkpt><trkpt lat="44.5910962" lon="8.020613"><ele>418.0</ele><time>2026-04-25T14:56:08.085Z</time></trkpt><trkpt lat="44.5911621" lon="8.0205688"><ele>418.0</ele><time>2026-04-25T14:56:09.085Z</time></trkpt><trkpt lat="44.5912295" lon="8.0205631"><ele>418.00000000000006</ele><time>2026-04-25T14:56:10.086Z</time></trkpt><trkpt lat="44.5912961" lon="8.0205868"><ele>418.0</ele><time>2026-04-25T14:56:11.086Z</time></trkpt><trkpt lat="44.5913622" lon="8.0206331"><ele>413.4</ele><time>2026-04-25T14:56:12.086Z</time></trkpt><trkpt lat="44.5914128" lon="8.020697"><ele>408.79999999999995</ele><time>2026-04-25T14:56:13.085Z</time></trkpt><trkpt lat="44.5914576" lon="8.0208718"><ele>404.2</ele><time>2026-04-25T14:56:15.086Z</time></trkpt><trkpt lat="44.5914656" lon="8.0209767"><ele>399.6</ele><time>2026-04-25T14:56:16.086Z</time></trkpt><trkpt lat="44.5914225" lon="8.0211147"><ele>395.0</ele><time>2026-04-25T14:56:17.085Z</time></trkpt><trkpt lat="44.591408" lon="8.0212519"><ele>394.16666666666663</ele><time>2026-04-25T14:56:18.086Z</time></trkpt><trkpt lat="44.5913989" lon="8.0213662"><ele>393.3333333333333</ele><time>2026-04-25T14:56:19.086Z</time></trkpt><trkpt lat="44.5913782" lon="8.0214506"><ele>392.5</ele><time>2026-04-25T14:56:20.086Z</time></trkpt><trkpt lat="44.5913424" lon="8.021532"><ele>391.66666666666663</ele><time>2026-04-25T14:56:21.086Z</time></trkpt><trkpt lat="44.5912419" lon="8.021625"><ele>390.8333333333333</ele><time>2026-04-25T14:56:23.086Z</time></trkpt><trkpt lat="44.5911528" lon="8.0216252"><ele>390.0</ele><time>2026-04-25T14:56:24.086Z</time></trkpt><trkpt lat="44.5910561" lon="8.0216112"><ele>389.4</ele><time>2026-04-25T14:56:25.086Z</time></trkpt><trkpt lat="44.5909453" lon="8.0216044"><ele>388.8</ele><time>2026-04-25T14:56:26.085Z</time></trkpt><trkpt lat="44.590843" lon="8.021619"><ele>388.20000000000005</ele><time>2026-04-25T14:56:27.086Z</time></trkpt><trkpt lat="44.5907469" lon="8.0216595"><ele>387.6</ele><time>2026-04-25T14:56:28.086Z</time></trkpt><trkpt lat="44.5906419" lon="8.0216999"><ele>387.0</ele><time>2026-04-25T14:56:29.085Z</time></trkpt><trkpt lat="44.5905532" lon="8.0217508"><ele>387.0</ele><time>2026-04-25T14:56:30.086Z</time></trkpt><trkpt lat="44.5904575" lon="8.0217848"><ele>387.0</ele><time>2026-04-25T14:56:31.085Z</time></trkpt><trkpt lat="44.5903709" lon="8.0218039"><ele>387.0</ele><time>2026-04-25T14:56:32.085Z</time></trkpt><trkpt lat="44.5902864" lon="8.0218117"><ele>387.0</ele><time>2026-04-25T14:56:33.086Z</time></trkpt><trkpt lat="44.5902118" lon="8.0218137"><ele>387.0</ele><time>2026-04-25T14:56:34.085Z</time></trkpt><trkpt lat="44.5901242" lon="8.0218522"><ele>387.0</ele><time>2026-04-25T14:56:36.085Z</time></trkpt><trkpt lat="44.5901536" lon="8.0219672"><ele>387.0</ele><time>2026-04-25T14:56:38.086Z</time></trkpt><trkpt lat="44.5902587" lon="8.0220283"><ele>387.0</ele><time>2026-04-25T14:56:40.086Z</time></trkpt><trkpt lat="44.590359" lon="8.0220607"><ele>387.0</ele><time>2026-04-25T14:56:42.086Z</time></trkpt><trkpt lat="44.5903923" lon="8.022148"><ele>387.0</ele><time>2026-04-25T14:56:44.086Z</time></trkpt><trkpt lat="44.5903471" lon="8.022215"><ele>387.0</ele><time>2026-04-25T14:56:45.086Z</time></trkpt><trkpt lat="44.5902709" lon="8.0222655"><ele>387.0</ele><time>2026-04-25T14:56:46.086Z</time></trkpt><trkpt lat="44.5901929" lon="8.0223078"><ele>388.0</ele><time>2026-04-25T14:56:47.086Z</time></trkpt><trkpt lat="44.5900985" lon="8.0223438"><ele>389.0</ele><time>2026-04-25T14:56:48.086Z</time></trkpt><trkpt lat="44.5900023" lon="8.0223908"><ele>390.0</ele><time>2026-04-25T14:56:49.085Z</time></trkpt><trkpt lat="44.5898968" lon="8.02244"><ele>391.0</ele><time>2026-04-25T14:56:50.086Z</time></trkpt><trkpt lat="44.5897997" lon="8.0225049"><ele>392.0</ele><time>2026-04-25T14:56:51.085Z</time></trkpt><trkpt lat="44.5896984" lon="8.0225736"><ele>388.0</ele><time>2026-04-25T14:56:52.085Z</time></trkpt><trkpt lat="44.5896043" lon="8.0226377"><ele>384.0</ele><time>2026-04-25T14:56:53.086Z</time></trkpt><trkpt lat="44.5895095" lon="8.0227032"><ele>380.0</ele><time>2026-04-25T14:56:54.085Z</time></trkpt><trkpt lat="44.5894366" lon="8.0227278"><ele>376.0</ele><time>2026-04-25T14:56:55.086Z</time></trkpt><trkpt lat="44.5893629" lon="8.0227578"><ele>372.0</ele><time>2026-04-25T14:56:56.086Z</time></trkpt><trkpt lat="44.5892442" lon="8.0227758"><ele>372.0</ele><time>2026-04-25T14:56:58.086Z</time></trkpt><trkpt lat="44.5891856" lon="8.022851"><ele>372.0</ele><time>2026-04-25T14:57:00.086Z</time></trkpt><trkpt lat="44.5892487" lon="8.0229488"><ele>372.0</ele><time>2026-04-25T14:57:02.086Z</time></trkpt><trkpt lat="44.5893612" lon="8.0230193"><ele>372.0</ele><time>2026-04-25T14:57:04.085Z</time></trkpt><trkpt lat="44.5894571" lon="8.0230545"><ele>372.0</ele><time>2026-04-25T14:57:05.086Z</time></trkpt><trkpt lat="44.5895442" lon="8.0230966"><ele>371.40000000000003</ele><time>2026-04-25T14:57:06.085Z</time></trkpt><trkpt lat="44.589639" lon="8.0231088"><ele>370.8</ele><time>2026-04-25T14:57:07.086Z</time></trkpt><trkpt lat="44.5897525" lon="8.0231221"><ele>370.2</ele><time>2026-04-25T14:57:08.085Z</time></trkpt><trkpt lat="44.5898635" lon="8.0231471"><ele>369.6</ele><time>2026-04-25T14:57:09.085Z</time></trkpt><trkpt lat="44.5899459" lon="8.0231857"><ele>369.0</ele><time>2026-04-25T14:57:10.086Z</time></trkpt><trkpt lat="44.5900405" lon="8.0232256"><ele>369.0</ele><time>2026-04-25T14:57:11.086Z</time></trkpt><trkpt lat="44.5901264" lon="8.0232711"><ele>369.0</ele><time>2026-04-25T14:57:12.085Z</time></trkpt><trkpt lat="44.5902222" lon="8.0233264"><ele>369.0</ele><time>2026-04-25T14:57:13.086Z</time></trkpt><trkpt lat="44.5903164" lon="8.0233894"><ele>369.0</ele><time>2026-04-25T14:57:14.086Z</time></trkpt><trkpt lat="44.5904127" lon="8.0234389"><ele>369.0</ele><time>2026-04-25T14:57:15.086Z</time></trkpt><trkpt lat="44.5905236" lon="8.023479"><ele>365.0</ele><time>2026-04-25T14:57:16.086Z</time></trkpt><trkpt lat="44.5906397" lon="8.0235045"><ele>361.0</ele><time>2026-04-25T14:57:17.086Z</time></trkpt><trkpt lat="44.5907437" lon="8.0235367"><ele>357.0</ele><time>2026-04-25T14:57:18.086Z</time></trkpt><trkpt lat="44.5908538" lon="8.0235589"><ele>353.0</ele><time>2026-04-25T14:57:19.086Z</time></trkpt><trkpt lat="44.590959" lon="8.0235775"><ele>349.0</ele><time>2026-04-25T14:57:20.086Z</time></trkpt><trkpt lat="44.5910713" lon="8.0235818"><ele>347.0</ele><time>2026-04-25T14:57:21.086Z</time></trkpt><trkpt lat="44.5911849" lon="8.0235852"><ele>345.0</ele><time>2026-04-25T14:57:22.085Z</time></trkpt><trkpt lat="44.5913057" lon="8.0235834"><ele>343.0</ele><time>2026-04-25T14:57:23.086Z</time></trkpt><trkpt lat="44.591432" lon="8.023583"><ele>341.0</ele><time>2026-04-25T14:57:24.086Z</time></trkpt><trkpt lat="44.5915464" lon="8.0235865"><ele>341.0</ele><time>2026-04-25T14:57:25.085Z</time></trkpt><trkpt lat="44.5916715" lon="8.0235686"><ele>341.0</ele><time>2026-04-25T14:57:26.086Z</time></trkpt><trkpt lat="44.5917816" lon="8.0235639"><ele>341.0</ele><time>2026-04-25T14:57:27.085Z</time></trkpt><trkpt lat="44.5919063" lon="8.023554"><ele>341.0</ele><time>2026-04-25T14:57:28.086Z</time></trkpt><trkpt lat="44.5920313" lon="8.0235431"><ele>338.5</ele><time>2026-04-25T14:57:29.085Z</time></trkpt><trkpt lat="44.5921499" lon="8.023526"><ele>336.0</ele><time>2026-04-25T14:57:30.086Z</time></trkpt><trkpt lat="44.5922778" lon="8.0235145"><ele>333.5</ele><time>2026-04-25T14:57:31.085Z</time></trkpt><trkpt lat="44.5924028" lon="8.0234909"><ele>331.0</ele><time>2026-04-25T14:57:32.086Z</time></trkpt><trkpt lat="44.5925369" lon="8.0234756"><ele>331.0</ele><time>2026-04-25T14:57:33.086Z</time></trkpt><trkpt lat="44.5926645" lon="8.0235253"><ele>331.0</ele><time>2026-04-25T14:57:34.086Z</time></trkpt><trkpt lat="44.5927767" lon="8.0235678"><ele>331.0</ele><time>2026-04-25T14:57:35.086Z</time></trkpt><trkpt lat="44.5928965" lon="8.0236213"><ele>331.0</ele><time>2026-04-25T14:57:36.085Z</time></trkpt><trkpt lat="44.5930251" lon="8.0236603"><ele>329.25</ele><time>2026-04-25T14:57:37.085Z</time></trkpt><trkpt lat="44.5931413" lon="8.0236828"><ele>327.5</ele><time>2026-04-25T14:57:38.086Z</time></trkpt><trkpt lat="44.5932526" lon="8.023672"><ele>325.75</ele><time>2026-04-25T14:57:39.086Z</time></trkpt><trkpt lat="44.5933888" lon="8.0236398"><ele>324.0</ele><time>2026-04-25T14:57:40.086Z</time></trkpt><trkpt lat="44.5935045" lon="8.0236389"><ele>324.0</ele><time>2026-04-25T14:57:41.086Z</time></trkpt><trkpt lat="44.5936282" lon="8.0236282"><ele>324.0</ele><time>2026-04-25T14:57:42.086Z</time></trkpt><trkpt lat="44.5937295" lon="8.0236291"><ele>324.0</ele><time>2026-04-25T14:57:43.086Z</time></trkpt><trkpt lat="44.5938455" lon="8.0236425"><ele>324.0</ele><time>2026-04-25T14:57:44.086Z</time></trkpt><trkpt lat="44.5939356" lon="8.0236532"><ele>324.0</ele><time>2026-04-25T14:57:45.086Z</time></trkpt><trkpt lat="44.5940236" lon="8.0236611"><ele>322.3333333333333</ele><time>2026-04-25T14:57:46.086Z</time></trkpt><trkpt lat="44.5941075" lon="8.0236709"><ele>320.6666666666667</ele><time>2026-04-25T14:57:47.086Z</time></trkpt><trkpt lat="44.5941913" lon="8.0236678"><ele>319.0</ele><time>2026-04-25T14:57:49.086Z</time></trkpt><trkpt lat="44.5942539" lon="8.0236095"><ele>317.33333333333337</ele><time>2026-04-25T14:57:52.086Z</time></trkpt><trkpt lat="44.5942868" lon="8.0234577"><ele>315.6666666666667</ele><time>2026-04-25T14:57:54.086Z</time></trkpt><trkpt lat="44.5942969" lon="8.0233439"><ele>314.0</ele><time>2026-04-25T14:57:55.086Z</time></trkpt><trkpt lat="44.5943005" lon="8.0232136"><ele>314.0</ele><time>2026-04-25T14:57:56.085Z</time></trkpt><trkpt lat="44.5943019" lon="8.023056"><ele>314.0</ele><time>2026-04-25T14:57:57.086Z</time></trkpt><trkpt lat="44.5943177" lon="8.022884"><ele>314.0</ele><time>2026-04-25T14:57:58.086Z</time></trkpt><trkpt lat="44.5943389" lon="8.0226895"><ele>314.0</ele><time>2026-04-25T14:57:59.086Z</time></trkpt><trkpt lat="44.5943707" lon="8.0224987"><ele>316.0</ele><time>2026-04-25T14:58:00.086Z</time></trkpt><trkpt lat="44.5944168" lon="8.0222958"><ele>318.0</ele><time>2026-04-25T14:58:01.086Z</time></trkpt><trkpt lat="44.594483" lon="8.0220941"><ele>320.0</ele><time>2026-04-25T14:58:02.085Z</time></trkpt><trkpt lat="44.5945606" lon="8.0218962"><ele>317.33333333333337</ele><time>2026-04-25T14:58:03.085Z</time></trkpt><trkpt lat="44.5946497" lon="8.0217054"><ele>314.6666666666667</ele><time>2026-04-25T14:58:04.086Z</time></trkpt><trkpt lat="44.5947537" lon="8.0215196"><ele>312.0</ele><time>2026-04-25T14:58:05.085Z</time></trkpt><trkpt lat="44.5948626" lon="8.0213534"><ele>312.0</ele><time>2026-04-25T14:58:06.086Z</time></trkpt><trkpt lat="44.5949826" lon="8.0211837"><ele>312.0</ele><time>2026-04-25T14:58:07.086Z</time></trkpt><trkpt lat="44.5951105" lon="8.0210412"><ele>312.0</ele><time>2026-04-25T14:58:08.086Z</time></trkpt><trkpt lat="44.5952649" lon="8.0209073"><ele>308.6666666666667</ele><time>2026-04-25T14:58:09.086Z</time></trkpt><trkpt lat="44.5954374" lon="8.0207879"><ele>305.33333333333337</ele><time>2026-04-25T14:58:10.086Z</time></trkpt><trkpt lat="44.5956093" lon="8.0206948"><ele>302.0</ele><time>2026-04-25T14:58:11.086Z</time></trkpt><trkpt lat="44.5957941" lon="8.0206272"><ele>302.0</ele><time>2026-04-25T14:58:12.085Z</time></trkpt><trkpt lat="44.5959904" lon="8.0205411"><ele>302.0</ele><time>2026-04-25T14:58:13.086Z</time></trkpt><trkpt lat="44.5961761" lon="8.0204599"><ele>302.0</ele><time>2026-04-25T14:58:14.086Z</time></trkpt><trkpt lat="44.5963655" lon="8.0203844"><ele>301.0</ele><time>2026-04-25T14:58:15.086Z</time></trkpt><trkpt lat="44.5965554" lon="8.0203182"><ele>300.0</ele><time>2026-04-25T14:58:16.086Z</time></trkpt><trkpt lat="44.5967515" lon="8.0202441"><ele>299.0</ele><time>2026-04-25T14:58:17.086Z</time></trkpt><trkpt lat="44.596944" lon="8.0201746"><ele>299.33333333333337</ele><time>2026-04-25T14:58:18.085Z</time></trkpt><trkpt lat="44.5971334" lon="8.0201064"><ele>299.6666666666667</ele><time>2026-04-25T14:58:19.086Z</time></trkpt><trkpt lat="44.5973202" lon="8.0200352"><ele>300.0</ele><time>2026-04-25T14:58:20.086Z</time></trkpt><trkpt lat="44.5975064" lon="8.0199599"><ele>298.3333333333333</ele><time>2026-04-25T14:58:21.086Z</time></trkpt><trkpt lat="44.5976907" lon="8.0198877"><ele>296.66666666666663</ele><time>2026-04-25T14:58:22.086Z</time></trkpt><trkpt lat="44.5978663" lon="8.0198039"><ele>295.0</ele><time>2026-04-25T14:58:23.086Z</time></trkpt><trkpt lat="44.5980311" lon="8.0197051"><ele>295.0</ele><time>2026-04-25T14:58:24.086Z</time></trkpt><trkpt lat="44.5981802" lon="8.0195795"><ele>295.0</ele><time>2026-04-25T14:58:25.086Z</time></trkpt><trkpt lat="44.598307" lon="8.0194277"><ele>295.0</ele><time>2026-04-25T14:58:26.085Z</time></trkpt><trkpt lat="44.5984412" lon="8.0192665"><ele>294.3333333333333</ele><time>2026-04-25T14:58:27.086Z</time></trkpt><trkpt lat="44.5985584" lon="8.0190761"><ele>293.6666666666667</ele><time>2026-04-25T14:58:28.085Z</time></trkpt><trkpt lat="44.5986683" lon="8.0189125"><ele>293.0</ele><time>2026-04-25T14:58:29.086Z</time></trkpt><trkpt lat="44.5987765" lon="8.0187469"><ele>293.0</ele><time>2026-04-25T14:58:30.086Z</time></trkpt><trkpt lat="44.5988793" lon="8.018595"><ele>293.0</ele><time>2026-04-25T14:58:31.086Z</time></trkpt><trkpt lat="44.5989689" lon="8.0184556"><ele>293.0</ele><time>2026-04-25T14:58:32.086Z</time></trkpt><trkpt lat="44.599074" lon="8.0183281"><ele>293.0</ele><time>2026-04-25T14:58:33.086Z</time></trkpt><trkpt lat="44.5991805" lon="8.0182422"><ele>292.5</ele><time>2026-04-25T14:58:34.086Z</time></trkpt><trkpt lat="44.5992876" lon="8.0181732"><ele>292.0</ele><time>2026-04-25T14:58:35.085Z</time></trkpt><trkpt lat="44.5994176" lon="8.0181424"><ele>291.5</ele><time>2026-04-25T14:58:36.086Z</time></trkpt><trkpt lat="44.5995636" lon="8.018139"><ele>291.0</ele><time>2026-04-25T14:58:37.086Z</time></trkpt><trkpt lat="44.599715" lon="8.0181429"><ele>290.3333333333333</ele><time>2026-04-25T14:58:38.085Z</time></trkpt><trkpt lat="44.5998706" lon="8.0181394"><ele>289.66666666666663</ele><time>2026-04-25T14:58:39.085Z</time></trkpt><trkpt lat="44.6000339" lon="8.0181353"><ele>289.0</ele><time>2026-04-25T14:58:40.085Z</time></trkpt><trkpt lat="44.6001851" lon="8.0181306"><ele>289.0</ele><time>2026-04-25T14:58:41.085Z</time></trkpt><trkpt lat="44.600327" lon="8.0181147"><ele>289.0</ele><time>2026-04-25T14:58:42.085Z</time></trkpt><trkpt lat="44.6004622" lon="8.0181098"><ele>289.0</ele><time>2026-04-25T14:58:43.086Z</time></trkpt><trkpt lat="44.600578" lon="8.0181029"><ele>289.0</ele><time>2026-04-25T14:58:44.085Z</time></trkpt><trkpt lat="44.6006887" lon="8.0181075"><ele>287.5</ele><time>2026-04-25T14:58:45.086Z</time></trkpt><trkpt lat="44.6007934" lon="8.0180924"><ele>286.0</ele><time>2026-04-25T14:58:46.086Z</time></trkpt><trkpt lat="44.6008879" lon="8.0180612"><ele>284.5</ele><time>2026-04-25T14:58:47.086Z</time></trkpt><trkpt lat="44.6010052" lon="8.0179722"><ele>283.0</ele><time>2026-04-25T14:58:48.086Z</time></trkpt><trkpt lat="44.6011195" lon="8.0178978"><ele>283.0</ele><time>2026-04-25T14:58:49.086Z</time></trkpt><trkpt lat="44.6012515" lon="8.0178452"><ele>283.0</ele><time>2026-04-25T14:58:50.085Z</time></trkpt><trkpt lat="44.6014104" lon="8.0177947"><ele>283.0</ele><time>2026-04-25T14:58:51.085Z</time></trkpt><trkpt lat="44.6015723" lon="8.0177651"><ele>283.0</ele><time>2026-04-25T14:58:52.085Z</time></trkpt><trkpt lat="44.6017416" lon="8.0177408"><ele>283.0</ele><time>2026-04-25T14:58:53.086Z</time></trkpt><trkpt lat="44.6019261" lon="8.0177156"><ele>283.0</ele><time>2026-04-25T14:58:54.086Z</time></trkpt><trkpt lat="44.6021082" lon="8.0176874"><ele>284.0</ele><time>2026-04-25T14:58:55.086Z</time></trkpt><trkpt lat="44.6023009" lon="8.0176554"><ele>285.0</ele><time>2026-04-25T14:58:56.086Z</time></trkpt><trkpt lat="44.6024931" lon="8.0176317"><ele>286.0</ele><time>2026-04-25T14:58:57.085Z</time></trkpt><trkpt lat="44.6026856" lon="8.017599"><ele>285.66666666666663</ele><time>2026-04-25T14:58:58.086Z</time></trkpt><trkpt lat="44.6028789" lon="8.0175762"><ele>285.3333333333333</ele><time>2026-04-25T14:58:59.086Z</time></trkpt><trkpt lat="44.6030597" lon="8.0175546"><ele>285.0</ele><time>2026-04-25T14:59:00.086Z</time></trkpt><trkpt lat="44.603252" lon="8.0175391"><ele>285.0</ele><time>2026-04-25T14:59:01.086Z</time></trkpt><trkpt lat="44.603447" lon="8.0174901"><ele>285.0</ele><time>2026-04-25T14:59:02.085Z</time></trkpt><trkpt lat="44.6036364" lon="8.0174122"><ele>285.0</ele><time>2026-04-25T14:59:03.086Z</time></trkpt><trkpt lat="44.6038172" lon="8.0173155"><ele>284.0</ele><time>2026-04-25T14:59:04.086Z</time></trkpt><trkpt lat="44.6040044" lon="8.0171991"><ele>283.0</ele><time>2026-04-25T14:59:05.086Z</time></trkpt><trkpt lat="44.6041969" lon="8.0170608"><ele>282.0</ele><time>2026-04-25T14:59:06.086Z</time></trkpt><trkpt lat="44.6043863" lon="8.0169306"><ele>282.0</ele><time>2026-04-25T14:59:07.086Z</time></trkpt><trkpt lat="44.6045739" lon="8.0167967"><ele>282.0</ele><time>2026-04-25T14:59:08.085Z</time></trkpt><trkpt lat="44.604758" lon="8.0166657"><ele>282.0</ele><time>2026-04-25T14:59:09.086Z</time></trkpt><trkpt lat="44.6049408" lon="8.0165388"><ele>280.0</ele><time>2026-04-25T14:59:10.085Z</time></trkpt><trkpt lat="44.6051324" lon="8.0164082"><ele>278.0</ele><time>2026-04-25T14:59:11.086Z</time></trkpt><trkpt lat="44.6053173" lon="8.0162769"><ele>276.0</ele><time>2026-04-25T14:59:12.086Z</time></trkpt><trkpt lat="44.6054994" lon="8.016165"><ele>276.0</ele><time>2026-04-25T14:59:13.086Z</time></trkpt><trkpt lat="44.6056885" lon="8.0160456"><ele>276.0</ele><time>2026-04-25T14:59:14.086Z</time></trkpt><trkpt lat="44.6058848" lon="8.0159353"><ele>276.0</ele><time>2026-04-25T14:59:15.086Z</time></trkpt><trkpt lat="44.6060889" lon="8.0158313"><ele>274.3333333333333</ele><time>2026-04-25T14:59:16.086Z</time></trkpt><trkpt lat="44.6063019" lon="8.0157481"><ele>272.66666666666663</ele><time>2026-04-25T14:59:17.086Z</time></trkpt><trkpt lat="44.6065122" lon="8.0156692"><ele>271.0</ele><time>2026-04-25T14:59:18.085Z</time></trkpt><trkpt lat="44.6067289" lon="8.0156033"><ele>271.0</ele><time>2026-04-25T14:59:19.085Z</time></trkpt><trkpt lat="44.6069428" lon="8.0155231"><ele>271.0</ele><time>2026-04-25T14:59:20.085Z</time></trkpt><trkpt lat="44.6071521" lon="8.0154477"><ele>271.0</ele><time>2026-04-25T14:59:21.086Z</time></trkpt><trkpt lat="44.6073615" lon="8.0153665"><ele>271.66666666666663</ele><time>2026-04-25T14:59:22.086Z</time></trkpt><trkpt lat="44.6075634" lon="8.0152843"><ele>272.3333333333333</ele><time>2026-04-25T14:59:23.086Z</time></trkpt><trkpt lat="44.60776" lon="8.0151935"><ele>273.0</ele><time>2026-04-25T14:59:24.085Z</time></trkpt><trkpt lat="44.6079579" lon="8.0151147"><ele>274.0</ele><time>2026-04-25T14:59:25.086Z</time></trkpt><trkpt lat="44.6081601" lon="8.0150277"><ele>275.0</ele><time>2026-04-25T14:59:26.086Z</time></trkpt><trkpt lat="44.6083571" lon="8.0149202"><ele>276.0</ele><time>2026-04-25T14:59:27.086Z</time></trkpt><trkpt lat="44.608556" lon="8.0148123"><ele>274.3333333333333</ele><time>2026-04-25T14:59:28.086Z</time></trkpt><trkpt lat="44.6087549" lon="8.0146927"><ele>272.66666666666663</ele><time>2026-04-25T14:59:29.086Z</time></trkpt><trkpt lat="44.608953" lon="8.0145735"><ele>271.0</ele><time>2026-04-25T14:59:30.085Z</time></trkpt><trkpt lat="44.60915" lon="8.0144427"><ele>271.0</ele><time>2026-04-25T14:59:31.086Z</time></trkpt><trkpt lat="44.6093516" lon="8.0143139"><ele>271.0</ele><time>2026-04-25T14:59:32.085Z</time></trkpt><trkpt lat="44.6095462" lon="8.0141784"><ele>271.0</ele><time>2026-04-25T14:59:33.086Z</time></trkpt><trkpt lat="44.6097419" lon="8.0140388"><ele>270.3333333333333</ele><time>2026-04-25T14:59:34.085Z</time></trkpt><trkpt lat="44.6099287" lon="8.0139061"><ele>269.6666666666667</ele><time>2026-04-25T14:59:35.086Z</time></trkpt><trkpt lat="44.6101158" lon="8.0137699"><ele>269.0</ele><time>2026-04-25T14:59:36.086Z</time></trkpt><trkpt lat="44.610313" lon="8.0136363"><ele>269.33333333333337</ele><time>2026-04-25T14:59:37.085Z</time></trkpt><trkpt lat="44.6105093" lon="8.0135038"><ele>269.6666666666667</ele><time>2026-04-25T14:59:38.085Z</time></trkpt><trkpt lat="44.6107072" lon="8.013386"><ele>270.0</ele><time>2026-04-25T14:59:39.086Z</time></trkpt><trkpt lat="44.6109112" lon="8.0132724"><ele>268.3333333333333</ele><time>2026-04-25T14:59:40.086Z</time></trkpt><trkpt lat="44.6111129" lon="8.0131729"><ele>266.66666666666663</ele><time>2026-04-25T14:59:41.086Z</time></trkpt><trkpt lat="44.6113265" lon="8.0130846"><ele>265.0</ele><time>2026-04-25T14:59:42.086Z</time></trkpt><trkpt lat="44.6115361" lon="8.013017"><ele>265.0</ele><time>2026-04-25T14:59:43.086Z</time></trkpt><trkpt lat="44.6117496" lon="8.0129663"><ele>265.0</ele><time>2026-04-25T14:59:44.086Z</time></trkpt><trkpt lat="44.6119576" lon="8.0129294"><ele>265.0</ele><time>2026-04-25T14:59:45.086Z</time></trkpt><trkpt lat="44.6121705" lon="8.012895"><ele>265.0</ele><time>2026-04-25T14:59:46.086Z</time></trkpt><trkpt lat="44.6123834" lon="8.0128633"><ele>265.0</ele><time>2026-04-25T14:59:47.086Z</time></trkpt><trkpt lat="44.6125912" lon="8.0128336"><ele>265.0</ele><time>2026-04-25T14:59:48.086Z</time></trkpt><trkpt lat="44.6127946" lon="8.0127958"><ele>264.66666666666663</ele><time>2026-04-25T14:59:49.086Z</time></trkpt><trkpt lat="44.612996" lon="8.012763"><ele>264.3333333333333</ele><time>2026-04-25T14:59:50.085Z</time></trkpt><trkpt lat="44.6131978" lon="8.0127169"><ele>264.0</ele><time>2026-04-25T14:59:51.086Z</time></trkpt><trkpt lat="44.6134131" lon="8.0126506"><ele>264.0</ele><time>2026-04-25T14:59:52.086Z</time></trkpt><trkpt lat="44.6136256" lon="8.0125495"><ele>264.0</ele><time>2026-04-25T14:59:53.086Z</time></trkpt><trkpt lat="44.6138336" lon="8.0124468"><ele>264.0</ele><time>2026-04-25T14:59:54.086Z</time></trkpt><trkpt lat="44.6140439" lon="8.0123445"><ele>262.0</ele><time>2026-04-25T14:59:55.086Z</time></trkpt><trkpt lat="44.6142524" lon="8.0122396"><ele>260.0</ele><time>2026-04-25T14:59:56.085Z</time></trkpt><trkpt lat="44.6144696" lon="8.0121447"><ele>258.0</ele><time>2026-04-25T14:59:57.085Z</time></trkpt><trkpt lat="44.6146714" lon="8.0120431"><ele>257.3333333333333</ele><time>2026-04-25T14:59:58.086Z</time></trkpt><trkpt lat="44.6148792" lon="8.0119465"><ele>256.66666666666663</ele><time>2026-04-25T14:59:59.086Z</time></trkpt><trkpt lat="44.6150861" lon="8.0118386"><ele>256.0</ele><time>2026-04-25T15:00:00.086Z</time></trkpt><trkpt lat="44.6153017" lon="8.0117727"><ele>255.66666666666666</ele><time>2026-04-25T15:00:01.086Z</time></trkpt><trkpt lat="44.6155191" lon="8.0117163"><ele>255.33333333333331</ele><time>2026-04-25T15:00:02.086Z</time></trkpt><trkpt lat="44.6157312" lon="8.0116509"><ele>255.0</ele><time>2026-04-25T15:00:03.086Z</time></trkpt><trkpt lat="44.615932" lon="8.0115837"><ele>254.66666666666669</ele><time>2026-04-25T15:00:04.085Z</time></trkpt><trkpt lat="44.616133" lon="8.0115211"><ele>254.33333333333334</ele><time>2026-04-25T15:00:05.086Z</time></trkpt><trkpt lat="44.6163272" lon="8.011459"><ele>254.0</ele><time>2026-04-25T15:00:06.086Z</time></trkpt><trkpt lat="44.6165135" lon="8.0114064"><ele>254.0</ele><time>2026-04-25T15:00:07.085Z</time></trkpt><trkpt lat="44.6166919" lon="8.0113571"><ele>254.0</ele><time>2026-04-25T15:00:08.086Z</time></trkpt><trkpt lat="44.616851" lon="8.0113372"><ele>254.0</ele><time>2026-04-25T15:00:09.085Z</time></trkpt><trkpt lat="44.6170249" lon="8.0113355"><ele>252.66666666666669</ele><time>2026-04-25T15:00:10.086Z</time></trkpt><trkpt lat="44.6171999" lon="8.01136"><ele>251.33333333333331</ele><time>2026-04-25T15:00:11.086Z</time></trkpt><trkpt lat="44.6173805" lon="8.0114106"><ele>250.0</ele><time>2026-04-25T15:00:12.086Z</time></trkpt><trkpt lat="44.6175602" lon="8.0114693"><ele>250.0</ele><time>2026-04-25T15:00:13.085Z</time></trkpt><trkpt lat="44.6177344" lon="8.0115237"><ele>250.0</ele><time>2026-04-25T15:00:14.086Z</time></trkpt><trkpt lat="44.6179007" lon="8.0115809"><ele>250.0</ele><time>2026-04-25T15:00:15.085Z</time></trkpt><trkpt lat="44.6180541" lon="8.0116322"><ele>249.75</ele><time>2026-04-25T15:00:16.086Z</time></trkpt><trkpt lat="44.6181978" lon="8.0116833"><ele>249.5</ele><time>2026-04-25T15:00:17.086Z</time></trkpt><trkpt lat="44.6183381" lon="8.0117328"><ele>249.25</ele><time>2026-04-25T15:00:18.086Z</time></trkpt><trkpt lat="44.6184694" lon="8.0117693"><ele>249.0</ele><time>2026-04-25T15:00:19.086Z</time></trkpt><trkpt lat="44.6185806" lon="8.0118055"><ele>249.66666666666666</ele><time>2026-04-25T15:00:20.086Z</time></trkpt><trkpt lat="44.618683" lon="8.0118497"><ele>250.33333333333331</ele><time>2026-04-25T15:00:21.086Z</time></trkpt><trkpt lat="44.6187476" lon="8.0119047"><ele>251.0</ele><time>2026-04-25T15:00:22.085Z</time></trkpt><trkpt lat="44.6188183" lon="8.0119517"><ele>251.66666666666666</ele><time>2026-04-25T15:00:23.085Z</time></trkpt><trkpt lat="44.618888" lon="8.0119792"><ele>252.33333333333331</ele><time>2026-04-25T15:00:24.086Z</time></trkpt><trkpt lat="44.6189833" lon="8.0119634"><ele>253.0</ele><time>2026-04-25T15:00:25.086Z</time></trkpt><trkpt lat="44.6190613" lon="8.0119362"><ele>253.0</ele><time>2026-04-25T15:00:26.085Z</time></trkpt><trkpt lat="44.6191653" lon="8.0119056"><ele>253.0</ele><time>2026-04-25T15:00:27.086Z</time></trkpt><trkpt lat="44.6192647" lon="8.0118941"><ele>253.0</ele><time>2026-04-25T15:00:28.086Z</time></trkpt><trkpt lat="44.619384" lon="8.0119079"><ele>253.0</ele><time>2026-04-25T15:00:29.085Z</time></trkpt><trkpt lat="44.6195073" lon="8.0119319"><ele>254.25</ele><time>2026-04-25T15:00:30.085Z</time></trkpt><trkpt lat="44.6196372" lon="8.0119718"><ele>255.5</ele><time>2026-04-25T15:00:31.085Z</time></trkpt><trkpt lat="44.6197606" lon="8.0120123"><ele>256.75</ele><time>2026-04-25T15:00:32.086Z</time></trkpt><trkpt lat="44.619885" lon="8.0120725"><ele>258.0</ele><time>2026-04-25T15:00:33.085Z</time></trkpt><trkpt lat="44.6200071" lon="8.0121632"><ele>258.0</ele><time>2026-04-25T15:00:34.086Z</time></trkpt><trkpt lat="44.6201304" lon="8.0122604"><ele>258.0</ele><time>2026-04-25T15:00:35.085Z</time></trkpt><trkpt lat="44.6202625" lon="8.0123393"><ele>258.0</ele><time>2026-04-25T15:00:36.086Z</time></trkpt><trkpt lat="44.6203958" lon="8.0124122"><ele>258.0</ele><time>2026-04-25T15:00:37.086Z</time></trkpt><trkpt lat="44.6205361" lon="8.0124694"><ele>263.0</ele><time>2026-04-25T15:00:38.086Z</time></trkpt><trkpt lat="44.6206882" lon="8.0125022"><ele>268.0</ele><time>2026-04-25T15:00:39.086Z</time></trkpt><trkpt lat="44.6208678" lon="8.0125139"><ele>273.0</ele><time>2026-04-25T15:00:40.086Z</time></trkpt><trkpt lat="44.6210339" lon="8.0125243"><ele>275.5</ele><time>2026-04-25T15:00:41.086Z</time></trkpt><trkpt lat="44.6211973" lon="8.0125397"><ele>278.0</ele><time>2026-04-25T15:00:42.085Z</time></trkpt><trkpt lat="44.6213383" lon="8.0125287"><ele>280.5</ele><time>2026-04-25T15:00:43.086Z</time></trkpt><trkpt lat="44.6214728" lon="8.0124866"><ele>283.0</ele><time>2026-04-25T15:00:44.086Z</time></trkpt><trkpt lat="44.6216101" lon="8.0124572"><ele>280.0</ele><time>2026-04-25T15:00:45.086Z</time></trkpt><trkpt lat="44.621751" lon="8.0124475"><ele>277.0</ele><time>2026-04-25T15:00:46.086Z</time></trkpt><trkpt lat="44.6218878" lon="8.0124536"><ele>274.0</ele><time>2026-04-25T15:00:47.086Z</time></trkpt><trkpt lat="44.6220364" lon="8.0124478"><ele>271.0</ele><time>2026-04-25T15:00:48.086Z</time></trkpt><trkpt lat="44.6221786" lon="8.0124373"><ele>271.0</ele><time>2026-04-25T15:00:49.086Z</time></trkpt><trkpt lat="44.6223138" lon="8.0124018"><ele>271.0</ele><time>2026-04-25T15:00:50.086Z</time></trkpt><trkpt lat="44.622456" lon="8.012343"><ele>271.0</ele><time>2026-04-25T15:00:51.085Z</time></trkpt><trkpt lat="44.6226073" lon="8.0122813"><ele>271.0</ele><time>2026-04-25T15:00:52.085Z</time></trkpt><trkpt lat="44.6227335" lon="8.0122042"><ele>274.5</ele><time>2026-04-25T15:00:53.086Z</time></trkpt><trkpt lat="44.6228547" lon="8.0121115"><ele>278.0</ele><time>2026-04-25T15:00:54.085Z</time></trkpt><trkpt lat="44.6229713" lon="8.0120368"><ele>281.5</ele><time>2026-04-25T15:00:55.085Z</time></trkpt><trkpt lat="44.6230775" lon="8.0119671"><ele>285.0</ele><time>2026-04-25T15:00:56.085Z</time></trkpt><trkpt lat="44.6231804" lon="8.0119221"><ele>285.0</ele><time>2026-04-25T15:00:57.086Z</time></trkpt><trkpt lat="44.6232784" lon="8.0119024"><ele>285.0</ele><time>2026-04-25T15:00:58.086Z</time></trkpt><trkpt lat="44.6233843" lon="8.0119212"><ele>285.0</ele><time>2026-04-25T15:00:59.086Z</time></trkpt><trkpt lat="44.6234946" lon="8.0119591"><ele>285.0</ele><time>2026-04-25T15:01:00.086Z</time></trkpt><trkpt lat="44.623615" lon="8.0120037"><ele>285.0</ele><time>2026-04-25T15:01:01.086Z</time></trkpt><trkpt lat="44.6237448" lon="8.0120574"><ele>285.5</ele><time>2026-04-25T15:01:02.086Z</time></trkpt><trkpt lat="44.6238656" lon="8.0121014"><ele>286.0</ele><time>2026-04-25T15:01:03.086Z</time></trkpt><trkpt lat="44.6239797" lon="8.0121567"><ele>286.5</ele><time>2026-04-25T15:01:04.086Z</time></trkpt><trkpt lat="44.6240749" lon="8.0122153"><ele>287.0</ele><time>2026-04-25T15:01:05.086Z</time></trkpt><trkpt lat="44.624158" lon="8.0122957"><ele>287.0</ele><time>2026-04-25T15:01:06.086Z</time></trkpt><trkpt lat="44.6242196" lon="8.0123948"><ele>287.0</ele><time>2026-04-25T15:01:07.085Z</time></trkpt><trkpt lat="44.6242616" lon="8.0125085"><ele>287.0</ele><time>2026-04-25T15:01:08.086Z</time></trkpt><trkpt lat="44.6242892" lon="8.012614"><ele>287.0</ele><time>2026-04-25T15:01:09.086Z</time></trkpt><trkpt lat="44.624298" lon="8.0127046"><ele>287.0</ele><time>2026-04-25T15:01:10.086Z</time></trkpt><trkpt lat="44.6242837" lon="8.0128828"><ele>289.2</ele><time>2026-04-25T15:01:12.086Z</time></trkpt><trkpt lat="44.6242268" lon="8.0130507"><ele>291.4</ele><time>2026-04-25T15:01:14.085Z</time></trkpt><trkpt lat="44.624166" lon="8.0131169"><ele>293.6</ele><time>2026-04-25T15:01:15.086Z</time></trkpt><trkpt lat="44.62409" lon="8.0131653"><ele>295.8</ele><time>2026-04-25T15:01:16.085Z</time></trkpt><trkpt lat="44.6240042" lon="8.0132006"><ele>298.0</ele><time>2026-04-25T15:01:17.086Z</time></trkpt><trkpt lat="44.6239093" lon="8.0132257"><ele>298.0</ele><time>2026-04-25T15:01:18.085Z</time></trkpt><trkpt lat="44.6238148" lon="8.0132565"><ele>298.0</ele><time>2026-04-25T15:01:19.085Z</time></trkpt><trkpt lat="44.6237243" lon="8.0132908"><ele>298.0</ele><time>2026-04-25T15:01:20.086Z</time></trkpt><trkpt lat="44.6236263" lon="8.013326"><ele>298.0</ele><time>2026-04-25T15:01:21.086Z</time></trkpt><trkpt lat="44.6235229" lon="8.0133562"><ele>298.0</ele><time>2026-04-25T15:01:22.085Z</time></trkpt><trkpt lat="44.6234216" lon="8.013391"><ele>301.6</ele><time>2026-04-25T15:01:23.086Z</time></trkpt><trkpt lat="44.6233223" lon="8.0134278"><ele>305.20000000000005</ele><time>2026-04-25T15:01:24.085Z</time></trkpt><trkpt lat="44.6232217" lon="8.0134726"><ele>308.8</ele><time>2026-04-25T15:01:25.086Z</time></trkpt><trkpt lat="44.6231197" lon="8.0135085"><ele>312.40000000000003</ele><time>2026-04-25T15:01:26.085Z</time></trkpt><trkpt lat="44.6230212" lon="8.0135355"><ele>316.0</ele><time>2026-04-25T15:01:27.086Z</time></trkpt><trkpt lat="44.6229261" lon="8.0135651"><ele>316.0</ele><time>2026-04-25T15:01:28.085Z</time></trkpt><trkpt lat="44.6228328" lon="8.0135913"><ele>316.0</ele><time>2026-04-25T15:01:29.085Z</time></trkpt><trkpt lat="44.6227456" lon="8.0136217"><ele>316.0</ele><time>2026-04-25T15:01:30.085Z</time></trkpt><trkpt lat="44.6226589" lon="8.013664"><ele>316.0</ele><time>2026-04-25T15:01:31.086Z</time></trkpt><trkpt lat="44.6225871" lon="8.0137231"><ele>316.0</ele><time>2026-04-25T15:01:32.086Z</time></trkpt><trkpt lat="44.6225149" lon="8.0138046"><ele>315.66666666666663</ele><time>2026-04-25T15:01:33.086Z</time></trkpt><trkpt lat="44.6224447" lon="8.0138928"><ele>315.3333333333333</ele><time>2026-04-25T15:01:34.085Z</time></trkpt><trkpt lat="44.6223821" lon="8.0139743"><ele>315.0</ele><time>2026-04-25T15:01:35.085Z</time></trkpt><trkpt lat="44.6223206" lon="8.0140546"><ele>314.6666666666667</ele><time>2026-04-25T15:01:36.085Z</time></trkpt><trkpt lat="44.6222799" lon="8.0141397"><ele>314.33333333333337</ele><time>2026-04-25T15:01:37.086Z</time></trkpt><trkpt lat="44.6222519" lon="8.0142271"><ele>314.0</ele><time>2026-04-25T15:01:38.086Z</time></trkpt><trkpt lat="44.622286" lon="8.0144165"><ele>317.79999999999995</ele><time>2026-04-25T15:01:40.085Z</time></trkpt><trkpt lat="44.6223406" lon="8.0145049"><ele>321.59999999999997</ele><time>2026-04-25T15:01:41.085Z</time></trkpt><trkpt lat="44.6224138" lon="8.0145926"><ele>325.4</ele><time>2026-04-25T15:01:42.086Z</time></trkpt><trkpt lat="44.6224916" lon="8.0146812"><ele>329.2</ele><time>2026-04-25T15:01:43.086Z</time></trkpt><trkpt lat="44.6225789" lon="8.0147777"><ele>333.0</ele><time>2026-04-25T15:01:44.086Z</time></trkpt><trkpt lat="44.6226672" lon="8.0148837"><ele>332.5</ele><time>2026-04-25T15:01:45.085Z</time></trkpt><trkpt lat="44.6227553" lon="8.0149917"><ele>332.0</ele><time>2026-04-25T15:01:46.085Z</time></trkpt><trkpt lat="44.622846" lon="8.0151048"><ele>331.5</ele><time>2026-04-25T15:01:47.086Z</time></trkpt><trkpt lat="44.6229259" lon="8.015217"><ele>331.0</ele><time>2026-04-25T15:01:48.085Z</time></trkpt><trkpt lat="44.6230037" lon="8.0153393"><ele>331.0</ele><time>2026-04-25T15:01:49.085Z</time></trkpt><trkpt lat="44.6230786" lon="8.015457"><ele>331.0</ele><time>2026-04-25T15:01:50.086Z</time></trkpt><trkpt lat="44.6231519" lon="8.0155764"><ele>331.0</ele><time>2026-04-25T15:01:51.086Z</time></trkpt><trkpt lat="44.6232306" lon="8.0157003"><ele>331.0</ele><time>2026-04-25T15:01:52.086Z</time></trkpt><trkpt lat="44.6233102" lon="8.0158422"><ele>331.0</ele><time>2026-04-25T15:01:53.085Z</time></trkpt><trkpt lat="44.6234214" lon="8.015992"><ele>331.0</ele><time>2026-04-25T15:01:54.086Z</time></trkpt><trkpt lat="44.6235356" lon="8.0161463"><ele>331.0</ele><time>2026-04-25T15:01:55.086Z</time></trkpt><trkpt lat="44.6236565" lon="8.0163193"><ele>331.0</ele><time>2026-04-25T15:01:56.086Z</time></trkpt><trkpt lat="44.6237822" lon="8.0164953"><ele>331.0</ele><time>2026-04-25T15:01:57.085Z</time></trkpt><trkpt lat="44.6239093" lon="8.0166763"><ele>331.0</ele><time>2026-04-25T15:01:58.085Z</time></trkpt><trkpt lat="44.6240351" lon="8.0168595"><ele>334.3333333333333</ele><time>2026-04-25T15:01:59.085Z</time></trkpt><trkpt lat="44.6241565" lon="8.0170469"><ele>337.6666666666667</ele><time>2026-04-25T15:02:00.086Z</time></trkpt><trkpt lat="44.6242517" lon="8.0172255"><ele>341.0</ele><time>2026-04-25T15:02:01.086Z</time></trkpt><trkpt lat="44.6243376" lon="8.0173974"><ele>343.75</ele><time>2026-04-25T15:02:02.086Z</time></trkpt><trkpt lat="44.6243836" lon="8.0175785"><ele>346.5</ele><time>2026-04-25T15:02:03.085Z</time></trkpt><trkpt lat="44.6244142" lon="8.0177625"><ele>349.25</ele><time>2026-04-25T15:02:04.086Z</time></trkpt><trkpt lat="44.6244164" lon="8.0179637"><ele>352.0</ele><time>2026-04-25T15:02:05.086Z</time></trkpt><trkpt lat="44.624408" lon="8.018168"><ele>354.66666666666663</ele><time>2026-04-25T15:02:06.086Z</time></trkpt><trkpt lat="44.6243741" lon="8.018376"><ele>357.3333333333333</ele><time>2026-04-25T15:02:07.086Z</time></trkpt><trkpt lat="44.6243456" lon="8.0185966"><ele>360.0</ele><time>2026-04-25T15:02:08.086Z</time></trkpt><trkpt lat="44.6242946" lon="8.0188151"><ele>360.0</ele><time>2026-04-25T15:02:09.085Z</time></trkpt><trkpt lat="44.6242458" lon="8.0190286"><ele>360.0</ele><time>2026-04-25T15:02:10.086Z</time></trkpt><trkpt lat="44.6241854" lon="8.0192468"><ele>360.0</ele><time>2026-04-25T15:02:11.085Z</time></trkpt><trkpt lat="44.6241219" lon="8.0194542"><ele>360.3333333333333</ele><time>2026-04-25T15:02:12.086Z</time></trkpt><trkpt lat="44.624065" lon="8.0196592"><ele>360.66666666666663</ele><time>2026-04-25T15:02:13.085Z</time></trkpt><trkpt lat="44.6240085" lon="8.0198625"><ele>361.0</ele><time>2026-04-25T15:02:14.086Z</time></trkpt><trkpt lat="44.6239683" lon="8.0200525"><ele>361.25</ele><time>2026-04-25T15:02:15.086Z</time></trkpt><trkpt lat="44.6239323" lon="8.0202307"><ele>361.5</ele><time>2026-04-25T15:02:16.086Z</time></trkpt><trkpt lat="44.6239025" lon="8.0204124"><ele>361.75</ele><time>2026-04-25T15:02:17.086Z</time></trkpt><trkpt lat="44.6238721" lon="8.0205877"><ele>362.0</ele><time>2026-04-25T15:02:18.085Z</time></trkpt><trkpt lat="44.623838" lon="8.0207532"><ele>363.5</ele><time>2026-04-25T15:02:19.086Z</time></trkpt><trkpt lat="44.6238191" lon="8.0209134"><ele>365.0</ele><time>2026-04-25T15:02:20.086Z</time></trkpt><trkpt lat="44.6238022" lon="8.0210701"><ele>366.5</ele><time>2026-04-25T15:02:21.086Z</time></trkpt><trkpt lat="44.6237808" lon="8.0212361"><ele>368.0</ele><time>2026-04-25T15:02:22.086Z</time></trkpt><trkpt lat="44.6237543" lon="8.021417"><ele>368.0</ele><time>2026-04-25T15:02:23.086Z</time></trkpt><trkpt lat="44.6237375" lon="8.0215973"><ele>368.0</ele><time>2026-04-25T15:02:24.086Z</time></trkpt><trkpt lat="44.6237184" lon="8.0217865"><ele>368.0</ele><time>2026-04-25T15:02:25.086Z</time></trkpt><trkpt lat="44.6236954" lon="8.0219679"><ele>368.0</ele><time>2026-04-25T15:02:26.086Z</time></trkpt><trkpt lat="44.6236845" lon="8.0221369"><ele>369.2</ele><time>2026-04-25T15:02:27.086Z</time></trkpt><trkpt lat="44.6236786" lon="8.0222842"><ele>370.4</ele><time>2026-04-25T15:02:28.086Z</time></trkpt><trkpt lat="44.6236717" lon="8.022417"><ele>371.59999999999997</ele><time>2026-04-25T15:02:29.086Z</time></trkpt><trkpt lat="44.6236769" lon="8.0225309"><ele>372.79999999999995</ele><time>2026-04-25T15:02:30.085Z</time></trkpt><trkpt lat="44.6236947" lon="8.0226573"><ele>374.0</ele><time>2026-04-25T15:02:31.086Z</time></trkpt><trkpt lat="44.6237193" lon="8.0227767"><ele>375.4</ele><time>2026-04-25T15:02:32.086Z</time></trkpt><trkpt lat="44.6237539" lon="8.022888"><ele>376.79999999999995</ele><time>2026-04-25T15:02:33.086Z</time></trkpt><trkpt lat="44.6238027" lon="8.0229839"><ele>378.20000000000005</ele><time>2026-04-25T15:02:34.086Z</time></trkpt><trkpt lat="44.6238569" lon="8.0231168"><ele>379.6</ele><time>2026-04-25T15:02:36.085Z</time></trkpt><trkpt lat="44.6238282" lon="8.0232763"><ele>381.0</ele><time>2026-04-25T15:02:38.086Z</time></trkpt><trkpt lat="44.623801" lon="8.0233865"><ele>382.0</ele><time>2026-04-25T15:02:39.086Z</time></trkpt><trkpt lat="44.6237677" lon="8.023498"><ele>383.0</ele><time>2026-04-25T15:02:40.086Z</time></trkpt><trkpt lat="44.6237244" lon="8.0236183"><ele>384.0</ele><time>2026-04-25T15:02:41.085Z</time></trkpt><trkpt lat="44.6236887" lon="8.0237371"><ele>385.0</ele><time>2026-04-25T15:02:42.085Z</time></trkpt><trkpt lat="44.6236534" lon="8.0238514"><ele>386.0</ele><time>2026-04-25T15:02:43.085Z</time></trkpt><trkpt lat="44.6236164" lon="8.0239684"><ele>384.99999999999994</ele><time>2026-04-25T15:02:44.086Z</time></trkpt><trkpt lat="44.6235751" lon="8.0240761"><ele>384.0</ele><time>2026-04-25T15:02:45.085Z</time></trkpt><trkpt lat="44.6235294" lon="8.024187"><ele>383.0</ele><time>2026-04-25T15:02:46.086Z</time></trkpt><trkpt lat="44.6234745" lon="8.0242699"><ele>382.0</ele><time>2026-04-25T15:02:47.086Z</time></trkpt><trkpt lat="44.6234126" lon="8.0243557"><ele>381.0</ele><time>2026-04-25T15:02:48.086Z</time></trkpt><trkpt lat="44.623347" lon="8.0244156"><ele>380.0</ele><time>2026-04-25T15:02:49.086Z</time></trkpt><trkpt lat="44.6232764" lon="8.0244598"><ele>380.0</ele><time>2026-04-25T15:02:50.086Z</time></trkpt><trkpt lat="44.6232042" lon="8.0244893"><ele>380.0</ele><time>2026-04-25T15:02:51.085Z</time></trkpt><trkpt lat="44.6231041" lon="8.0245059"><ele>380.0</ele><time>2026-04-25T15:02:52.086Z</time></trkpt><trkpt lat="44.6230103" lon="8.0245095"><ele>380.0</ele><time>2026-04-25T15:02:53.085Z</time></trkpt><trkpt lat="44.6229084" lon="8.0244923"><ele>380.0</ele><time>2026-04-25T15:02:54.086Z</time></trkpt><trkpt lat="44.6228087" lon="8.0245034"><ele>378.4</ele><time>2026-04-25T15:02:55.085Z</time></trkpt><trkpt lat="44.6227115" lon="8.0245227"><ele>376.8</ele><time>2026-04-25T15:02:56.086Z</time></trkpt><trkpt lat="44.6226161" lon="8.0245338"><ele>375.20000000000005</ele><time>2026-04-25T15:02:57.086Z</time></trkpt><trkpt lat="44.6225194" lon="8.0245455"><ele>373.6</ele><time>2026-04-25T15:02:58.085Z</time></trkpt><trkpt lat="44.6224226" lon="8.0245681"><ele>372.0</ele><time>2026-04-25T15:02:59.086Z</time></trkpt><trkpt lat="44.6223266" lon="8.0245862"><ele>372.0</ele><time>2026-04-25T15:03:00.085Z</time></trkpt><trkpt lat="44.6222276" lon="8.0245962"><ele>372.0</ele><time>2026-04-25T15:03:01.086Z</time></trkpt><trkpt lat="44.6221322" lon="8.0246126"><ele>372.0</ele><time>2026-04-25T15:03:02.086Z</time></trkpt><trkpt lat="44.6220391" lon="8.0246261"><ele>372.0</ele><time>2026-04-25T15:03:03.086Z</time></trkpt><trkpt lat="44.6219464" lon="8.0246385"><ele>372.0</ele><time>2026-04-25T15:03:04.085Z</time></trkpt><trkpt lat="44.6218615" lon="8.0246453"><ele>371.5</ele><time>2026-04-25T15:03:05.086Z</time></trkpt><trkpt lat="44.6217766" lon="8.0246551"><ele>371.0</ele><time>2026-04-25T15:03:06.086Z</time></trkpt><trkpt lat="44.6217017" lon="8.0246688"><ele>370.5</ele><time>2026-04-25T15:03:07.086Z</time></trkpt><trkpt lat="44.621636" lon="8.0246806"><ele>370.0</ele><time>2026-04-25T15:03:08.086Z</time></trkpt><trkpt lat="44.6215178" lon="8.0246813"><ele>369.5</ele><time>2026-04-25T15:03:10.086Z</time></trkpt><trkpt lat="44.6214184" lon="8.0246494"><ele>369.0</ele><time>2026-04-25T15:03:12.086Z</time></trkpt><trkpt lat="44.6213405" lon="8.0245805"><ele>369.0</ele><time>2026-04-25T15:03:15.086Z</time></trkpt><trkpt lat="44.6212753" lon="8.0245562"><ele>369.0</ele><time>2026-04-25T15:03:18.086Z</time></trkpt><trkpt lat="44.6212019" lon="8.0245467"><ele>369.0</ele><time>2026-04-25T15:03:21.085Z</time></trkpt><trkpt lat="44.6211362" lon="8.0244913"><ele>355.0</ele><time>2026-04-25T15:03:25.085Z</time></trkpt></trkseg><trkseg><trkpt lat="44.6211963" lon="8.0245588"><ele>369.0</ele><time>2026-04-25T16:19:02.079Z</time></trkpt><trkpt lat="44.6212634" lon="8.0246075"><ele>369.0</ele><time>2026-04-25T16:19:04.079Z</time></trkpt><trkpt lat="44.6213685" lon="8.0246721"><ele>369.0</ele><time>2026-04-25T16:19:05.079Z</time></trkpt><trkpt lat="44.6214608" lon="8.0247377"><ele>369.0</ele><time>2026-04-25T16:19:07.079Z</time></trkpt><trkpt lat="44.6215802" lon="8.024759"><ele>369.0</ele><time>2026-04-25T16:19:09.079Z</time></trkpt><trkpt lat="44.6216939" lon="8.0247521"><ele>369.0</ele><time>2026-04-25T16:19:11.079Z</time></trkpt><trkpt lat="44.6217738" lon="8.0247401"><ele>369.0</ele><time>2026-04-25T16:19:12.079Z</time></trkpt><trkpt lat="44.6218468" lon="8.024718"><ele>369.0</ele><time>2026-04-25T16:19:13.078Z</time></trkpt><trkpt lat="44.621935" lon="8.0246979"><ele>369.0</ele><time>2026-04-25T16:19:14.079Z</time></trkpt><trkpt lat="44.6220839" lon="8.0246898"><ele>369.0</ele><time>2026-04-25T16:19:16.079Z</time></trkpt><trkpt lat="44.6221876" lon="8.0246735"><ele>369.6</ele><time>2026-04-25T16:19:17.079Z</time></trkpt><trkpt lat="44.6222628" lon="8.0246902"><ele>370.2</ele><time>2026-04-25T16:19:18.079Z</time></trkpt><trkpt lat="44.6223602" lon="8.0246913"><ele>370.8</ele><time>2026-04-25T16:19:19.079Z</time></trkpt><trkpt lat="44.62247" lon="8.0246617"><ele>371.40000000000003</ele><time>2026-04-25T16:19:20.079Z</time></trkpt><trkpt lat="44.6225839" lon="8.0246258"><ele>372.0</ele><time>2026-04-25T16:19:21.078Z</time></trkpt><trkpt lat="44.6226869" lon="8.0246087"><ele>372.0</ele><time>2026-04-25T16:19:22.079Z</time></trkpt><trkpt lat="44.6227854" lon="8.0245966"><ele>372.0</ele><time>2026-04-25T16:19:23.078Z</time></trkpt><trkpt lat="44.6228788" lon="8.0245869"><ele>372.0</ele><time>2026-04-25T16:19:24.078Z</time></trkpt><trkpt lat="44.6229735" lon="8.0245679"><ele>372.0</ele><time>2026-04-25T16:19:25.078Z</time></trkpt><trkpt lat="44.6230535" lon="8.0245734"><ele>372.0</ele><time>2026-04-25T16:19:26.079Z</time></trkpt><trkpt lat="44.6231484" lon="8.0245579"><ele>373.3333333333333</ele><time>2026-04-25T16:19:27.078Z</time></trkpt><trkpt lat="44.6232169" lon="8.0245329"><ele>374.6666666666667</ele><time>2026-04-25T16:19:28.079Z</time></trkpt><trkpt lat="44.6233031" lon="8.0244966"><ele>376.0</ele><time>2026-04-25T16:19:29.079Z</time></trkpt><trkpt lat="44.6233879" lon="8.0244731"><ele>377.33333333333337</ele><time>2026-04-25T16:19:30.078Z</time></trkpt><trkpt lat="44.6234527" lon="8.0243641"><ele>378.6666666666667</ele><time>2026-04-25T16:19:31.079Z</time></trkpt><trkpt lat="44.623515" lon="8.0242671"><ele>380.0</ele><time>2026-04-25T16:19:32.079Z</time></trkpt><trkpt lat="44.6235784" lon="8.0241663"><ele>379.2</ele><time>2026-04-25T16:19:33.079Z</time></trkpt><trkpt lat="44.6236381" lon="8.0240603"><ele>378.4</ele><time>2026-04-25T16:19:34.079Z</time></trkpt><trkpt lat="44.6236812" lon="8.0239313"><ele>377.6</ele><time>2026-04-25T16:19:35.079Z</time></trkpt><trkpt lat="44.6237291" lon="8.023787"><ele>376.8</ele><time>2026-04-25T16:19:36.079Z</time></trkpt><trkpt lat="44.623762" lon="8.0236707"><ele>376.0</ele><time>2026-04-25T16:19:37.078Z</time></trkpt><trkpt lat="44.6237972" lon="8.0235569"><ele>376.8333333333333</ele><time>2026-04-25T16:19:38.079Z</time></trkpt><trkpt lat="44.6238202" lon="8.0234668"><ele>377.66666666666663</ele><time>2026-04-25T16:19:39.079Z</time></trkpt><trkpt lat="44.6238518" lon="8.0233132"><ele>378.5</ele><time>2026-04-25T16:19:41.078Z</time></trkpt><trkpt lat="44.6238706" lon="8.023224"><ele>379.3333333333333</ele><time>2026-04-25T16:19:43.079Z</time></trkpt><trkpt lat="44.6239514" lon="8.0232313"><ele>380.1666666666667</ele><time>2026-04-25T16:19:46.079Z</time></trkpt><trkpt lat="44.6240015" lon="8.0233056"><ele>381.0</ele><time>2026-04-25T16:19:47.079Z</time></trkpt><trkpt lat="44.6240517" lon="8.0233742"><ele>381.8333333333333</ele><time>2026-04-25T16:19:48.078Z</time></trkpt><trkpt lat="44.6241024" lon="8.0234311"><ele>382.66666666666663</ele><time>2026-04-25T16:19:49.079Z</time></trkpt><trkpt lat="44.624154" lon="8.0235061"><ele>383.5</ele><time>2026-04-25T16:19:50.079Z</time></trkpt><trkpt lat="44.624198" lon="8.023586"><ele>384.3333333333333</ele><time>2026-04-25T16:19:51.079Z</time></trkpt><trkpt lat="44.6242632" lon="8.023703"><ele>385.16666666666663</ele><time>2026-04-25T16:19:52.078Z</time></trkpt><trkpt lat="44.6243255" lon="8.0238035"><ele>386.0</ele><time>2026-04-25T16:19:53.078Z</time></trkpt><trkpt lat="44.6243764" lon="8.0239036"><ele>386.0</ele><time>2026-04-25T16:19:54.079Z</time></trkpt><trkpt lat="44.6244351" lon="8.0240216"><ele>386.0</ele><time>2026-04-25T16:19:55.078Z</time></trkpt><trkpt lat="44.6244791" lon="8.0241438"><ele>386.0</ele><time>2026-04-25T16:19:56.079Z</time></trkpt><trkpt lat="44.6245181" lon="8.0242862"><ele>386.0</ele><time>2026-04-25T16:19:57.078Z</time></trkpt><trkpt lat="44.6245694" lon="8.024425"><ele>386.0</ele><time>2026-04-25T16:19:58.078Z</time></trkpt><trkpt lat="44.6246141" lon="8.024567"><ele>386.6</ele><time>2026-04-25T16:19:59.079Z</time></trkpt><trkpt lat="44.6246617" lon="8.0246945"><ele>387.20000000000005</ele><time>2026-04-25T16:20:00.079Z</time></trkpt><trkpt lat="44.6246877" lon="8.0247867"><ele>387.79999999999995</ele><time>2026-04-25T16:20:01.079Z</time></trkpt><trkpt lat="44.6247327" lon="8.0248951"><ele>388.4</ele><time>2026-04-25T16:20:02.078Z</time></trkpt><trkpt lat="44.6247733" lon="8.0250059"><ele>389.0</ele><time>2026-04-25T16:20:03.079Z</time></trkpt><trkpt lat="44.6248336" lon="8.0251311"><ele>391.25</ele><time>2026-04-25T16:20:04.079Z</time></trkpt><trkpt lat="44.624901" lon="8.0252463"><ele>393.5</ele><time>2026-04-25T16:20:05.079Z</time></trkpt><trkpt lat="44.6249707" lon="8.0253692"><ele>395.75</ele><time>2026-04-25T16:20:06.079Z</time></trkpt><trkpt lat="44.6250403" lon="8.0254917"><ele>398.0</ele><time>2026-04-25T16:20:07.078Z</time></trkpt><trkpt lat="44.6251213" lon="8.0256177"><ele>398.0</ele><time>2026-04-25T16:20:08.078Z</time></trkpt><trkpt lat="44.6251998" lon="8.0257429"><ele>398.0</ele><time>2026-04-25T16:20:09.079Z</time></trkpt><trkpt lat="44.6252676" lon="8.0258752"><ele>398.0</ele><time>2026-04-25T16:20:10.079Z</time></trkpt><trkpt lat="44.6253377" lon="8.0260131"><ele>398.0</ele><time>2026-04-25T16:20:11.079Z</time></trkpt><trkpt lat="44.6254119" lon="8.026156"><ele>399.0</ele><time>2026-04-25T16:20:12.079Z</time></trkpt><trkpt lat="44.6254843" lon="8.0263109"><ele>400.0</ele><time>2026-04-25T16:20:13.079Z</time></trkpt><trkpt lat="44.6255516" lon="8.0264714"><ele>401.0</ele><time>2026-04-25T16:20:14.078Z</time></trkpt><trkpt lat="44.6256123" lon="8.0266171"><ele>402.0</ele><time>2026-04-25T16:20:15.079Z</time></trkpt><trkpt lat="44.6256811" lon="8.0268049"><ele>402.0</ele><time>2026-04-25T16:20:16.078Z</time></trkpt><trkpt lat="44.6257356" lon="8.026979"><ele>402.0</ele><time>2026-04-25T16:20:17.079Z</time></trkpt><trkpt lat="44.6257928" lon="8.0271463"><ele>402.0</ele><time>2026-04-25T16:20:18.079Z</time></trkpt><trkpt lat="44.625839" lon="8.0273202"><ele>402.0</ele><time>2026-04-25T16:20:19.079Z</time></trkpt><trkpt lat="44.6258721" lon="8.0274952"><ele>403.5</ele><time>2026-04-25T16:20:20.079Z</time></trkpt><trkpt lat="44.6259018" lon="8.0276924"><ele>405.0</ele><time>2026-04-25T16:20:21.079Z</time></trkpt><trkpt lat="44.6258942" lon="8.0278769"><ele>406.5</ele><time>2026-04-25T16:20:22.079Z</time></trkpt><trkpt lat="44.6258859" lon="8.0280632"><ele>408.0</ele><time>2026-04-25T16:20:23.079Z</time></trkpt><trkpt lat="44.6258739" lon="8.0282532"><ele>408.75</ele><time>2026-04-25T16:20:24.078Z</time></trkpt><trkpt lat="44.6258479" lon="8.0284663"><ele>409.5</ele><time>2026-04-25T16:20:25.079Z</time></trkpt><trkpt lat="44.6258374" lon="8.0286576"><ele>410.25</ele><time>2026-04-25T16:20:26.079Z</time></trkpt><trkpt lat="44.6258247" lon="8.02885"><ele>411.0</ele><time>2026-04-25T16:20:27.078Z</time></trkpt><trkpt lat="44.6258085" lon="8.0290451"><ele>412.5</ele><time>2026-04-25T16:20:28.079Z</time></trkpt><trkpt lat="44.6258012" lon="8.0292388"><ele>414.0</ele><time>2026-04-25T16:20:29.079Z</time></trkpt><trkpt lat="44.6258138" lon="8.0294398"><ele>415.5</ele><time>2026-04-25T16:20:30.079Z</time></trkpt><trkpt lat="44.6258395" lon="8.0296301"><ele>417.0</ele><time>2026-04-25T16:20:31.079Z</time></trkpt><trkpt lat="44.6258696" lon="8.0298285"><ele>419.33333333333337</ele><time>2026-04-25T16:20:32.079Z</time></trkpt><trkpt lat="44.6258916" lon="8.0300372"><ele>421.6666666666667</ele><time>2026-04-25T16:20:33.079Z</time></trkpt><trkpt lat="44.6259334" lon="8.0302575"><ele>424.0</ele><time>2026-04-25T16:20:34.079Z</time></trkpt><trkpt lat="44.6259874" lon="8.0304612"><ele>424.0</ele><time>2026-04-25T16:20:35.079Z</time></trkpt><trkpt lat="44.6260445" lon="8.0306542"><ele>424.0</ele><time>2026-04-25T16:20:36.079Z</time></trkpt><trkpt lat="44.6261138" lon="8.0308508"><ele>424.0</ele><time>2026-04-25T16:20:37.079Z</time></trkpt><trkpt lat="44.6261816" lon="8.0310419"><ele>421.33333333333337</ele><time>2026-04-25T16:20:38.078Z</time></trkpt><trkpt lat="44.6262592" lon="8.0312259"><ele>418.66666666666663</ele><time>2026-04-25T16:20:39.079Z</time></trkpt><trkpt lat="44.6263531" lon="8.0314097"><ele>416.0</ele><time>2026-04-25T16:20:40.078Z</time></trkpt><trkpt lat="44.6264281" lon="8.0315947"><ele>418.3333333333333</ele><time>2026-04-25T16:20:41.078Z</time></trkpt><trkpt lat="44.6265021" lon="8.0317855"><ele>420.66666666666663</ele><time>2026-04-25T16:20:42.079Z</time></trkpt><trkpt lat="44.6265763" lon="8.0319812"><ele>423.0</ele><time>2026-04-25T16:20:43.078Z</time></trkpt><trkpt lat="44.6266527" lon="8.0321751"><ele>423.0</ele><time>2026-04-25T16:20:44.079Z</time></trkpt><trkpt lat="44.6267316" lon="8.0323647"><ele>423.0</ele><time>2026-04-25T16:20:45.079Z</time></trkpt><trkpt lat="44.6268232" lon="8.0325412"><ele>423.0</ele><time>2026-04-25T16:20:46.079Z</time></trkpt><trkpt lat="44.6269248" lon="8.0327011"><ele>423.0</ele><time>2026-04-25T16:20:47.079Z</time></trkpt><trkpt lat="44.6270299" lon="8.0328585"><ele>423.0</ele><time>2026-04-25T16:20:48.079Z</time></trkpt><trkpt lat="44.6271084" lon="8.0329444"><ele>423.0</ele><time>2026-04-25T16:20:49.079Z</time></trkpt><trkpt lat="44.6271974" lon="8.033053"><ele>423.0</ele><time>2026-04-25T16:20:50.079Z</time></trkpt><trkpt lat="44.6273264" lon="8.0331575"><ele>423.0</ele><time>2026-04-25T16:20:51.079Z</time></trkpt><trkpt lat="44.6274294" lon="8.0332537"><ele>423.0</ele><time>2026-04-25T16:20:52.079Z</time></trkpt><trkpt lat="44.6275486" lon="8.033372"><ele>423.0</ele><time>2026-04-25T16:20:53.078Z</time></trkpt><trkpt lat="44.6276601" lon="8.0334902"><ele>423.0</ele><time>2026-04-25T16:20:54.079Z</time></trkpt><trkpt lat="44.6277752" lon="8.0336317"><ele>423.5</ele><time>2026-04-25T16:20:55.079Z</time></trkpt><trkpt lat="44.6278913" lon="8.0337634"><ele>424.0</ele><time>2026-04-25T16:20:56.079Z</time></trkpt><trkpt lat="44.6280093" lon="8.0338839"><ele>424.5</ele><time>2026-04-25T16:20:57.079Z</time></trkpt><trkpt lat="44.6281238" lon="8.0339937"><ele>425.0</ele><time>2026-04-25T16:20:58.079Z</time></trkpt><trkpt lat="44.6282331" lon="8.0341058"><ele>429.0</ele><time>2026-04-25T16:20:59.079Z</time></trkpt><trkpt lat="44.6283306" lon="8.0342091"><ele>433.0</ele><time>2026-04-25T16:21:00.079Z</time></trkpt><trkpt lat="44.6284215" lon="8.0343081"><ele>437.0</ele><time>2026-04-25T16:21:01.078Z</time></trkpt><trkpt lat="44.6285062" lon="8.0344043"><ele>441.0</ele><time>2026-04-25T16:21:02.078Z</time></trkpt><trkpt lat="44.6285949" lon="8.034498"><ele>439.6</ele><time>2026-04-25T16:21:03.078Z</time></trkpt><trkpt lat="44.6286963" lon="8.0345908"><ele>438.20000000000005</ele><time>2026-04-25T16:21:04.078Z</time></trkpt><trkpt lat="44.6287877" lon="8.0346884"><ele>436.79999999999995</ele><time>2026-04-25T16:21:05.078Z</time></trkpt><trkpt lat="44.6288592" lon="8.0347624"><ele>435.4</ele><time>2026-04-25T16:21:06.079Z</time></trkpt><trkpt lat="44.6289374" lon="8.0348212"><ele>434.0</ele><time>2026-04-25T16:21:07.078Z</time></trkpt><trkpt lat="44.6290064" lon="8.0348831"><ele>433.99999999999994</ele><time>2026-04-25T16:21:08.079Z</time></trkpt><trkpt lat="44.6290664" lon="8.0349532"><ele>434.0</ele><time>2026-04-25T16:21:10.079Z</time></trkpt><trkpt lat="44.629116" lon="8.0350292"><ele>434.0</ele><time>2026-04-25T16:21:12.079Z</time></trkpt><trkpt lat="44.6292133" lon="8.0351176"><ele>434.0</ele><time>2026-04-25T16:21:14.079Z</time></trkpt><trkpt lat="44.629288" lon="8.0351433"><ele>433.99999999999994</ele><time>2026-04-25T16:21:15.079Z</time></trkpt><trkpt lat="44.6293737" lon="8.0351672"><ele>434.0</ele><time>2026-04-25T16:21:16.078Z</time></trkpt><trkpt lat="44.6295042" lon="8.0352104"><ele>433.75</ele><time>2026-04-25T16:21:17.078Z</time></trkpt><trkpt lat="44.629628" lon="8.0351987"><ele>433.5</ele><time>2026-04-25T16:21:18.079Z</time></trkpt><trkpt lat="44.6297316" lon="8.0351391"><ele>433.25</ele><time>2026-04-25T16:21:19.079Z</time></trkpt><trkpt lat="44.6298459" lon="8.0350234"><ele>433.0</ele><time>2026-04-25T16:21:20.078Z</time></trkpt><trkpt lat="44.6299666" lon="8.0349357"><ele>433.0</ele><time>2026-04-25T16:21:21.079Z</time></trkpt><trkpt lat="44.6300838" lon="8.0348502"><ele>433.0</ele><time>2026-04-25T16:21:22.079Z</time></trkpt><trkpt lat="44.6302176" lon="8.0347582"><ele>433.0</ele><time>2026-04-25T16:21:23.079Z</time></trkpt><trkpt lat="44.6303469" lon="8.0346644"><ele>433.0</ele><time>2026-04-25T16:21:24.079Z</time></trkpt><trkpt lat="44.6304766" lon="8.0345654"><ele>434.5</ele><time>2026-04-25T16:21:25.079Z</time></trkpt><trkpt lat="44.630591" lon="8.0344687"><ele>436.0</ele><time>2026-04-25T16:21:26.078Z</time></trkpt><trkpt lat="44.6307282" lon="8.0343729"><ele>437.5</ele><time>2026-04-25T16:21:27.079Z</time></trkpt><trkpt lat="44.6308639" lon="8.034269"><ele>439.0</ele><time>2026-04-25T16:21:28.079Z</time></trkpt><trkpt lat="44.6309981" lon="8.0341856"><ele>437.6666666666667</ele><time>2026-04-25T16:21:29.079Z</time></trkpt><trkpt lat="44.631116" lon="8.0340591"><ele>436.33333333333337</ele><time>2026-04-25T16:21:30.079Z</time></trkpt><trkpt lat="44.6312409" lon="8.0339189"><ele>435.0</ele><time>2026-04-25T16:21:31.079Z</time></trkpt><trkpt lat="44.6313612" lon="8.0337895"><ele>435.0</ele><time>2026-04-25T16:21:32.079Z</time></trkpt><trkpt lat="44.6314915" lon="8.0336167"><ele>435.0</ele><time>2026-04-25T16:21:33.078Z</time></trkpt><trkpt lat="44.6316019" lon="8.0334232"><ele>435.0</ele><time>2026-04-25T16:21:34.079Z</time></trkpt><trkpt lat="44.6317171" lon="8.0332777"><ele>435.66666666666663</ele><time>2026-04-25T16:21:35.079Z</time></trkpt><trkpt lat="44.6318249" lon="8.0331357"><ele>436.3333333333333</ele><time>2026-04-25T16:21:36.079Z</time></trkpt><trkpt lat="44.6319438" lon="8.0329987"><ele>437.0</ele><time>2026-04-25T16:21:37.079Z</time></trkpt><trkpt lat="44.6320604" lon="8.0328505"><ele>437.0</ele><time>2026-04-25T16:21:38.079Z</time></trkpt><trkpt lat="44.6321816" lon="8.0327047"><ele>437.0</ele><time>2026-04-25T16:21:39.078Z</time></trkpt><trkpt lat="44.6323166" lon="8.0325993"><ele>437.0</ele><time>2026-04-25T16:21:40.079Z</time></trkpt><trkpt lat="44.632443" lon="8.0325141"><ele>436.25</ele><time>2026-04-25T16:21:41.079Z</time></trkpt><trkpt lat="44.6325623" lon="8.0324137"><ele>435.5</ele><time>2026-04-25T16:21:42.079Z</time></trkpt><trkpt lat="44.6326842" lon="8.032329"><ele>434.75</ele><time>2026-04-25T16:21:43.079Z</time></trkpt><trkpt lat="44.632817" lon="8.0322691"><ele>434.0</ele><time>2026-04-25T16:21:44.079Z</time></trkpt><trkpt lat="44.6329505" lon="8.0322467"><ele>435.75</ele><time>2026-04-25T16:21:45.078Z</time></trkpt><trkpt lat="44.6330997" lon="8.0322426"><ele>437.5</ele><time>2026-04-25T16:21:46.079Z</time></trkpt><trkpt lat="44.6332489" lon="8.0322282"><ele>439.25</ele><time>2026-04-25T16:21:47.079Z</time></trkpt><trkpt lat="44.6333812" lon="8.0322359"><ele>441.0</ele><time>2026-04-25T16:21:48.078Z</time></trkpt><trkpt lat="44.6335088" lon="8.0322866"><ele>441.0</ele><time>2026-04-25T16:21:49.079Z</time></trkpt><trkpt lat="44.633635" lon="8.0323594"><ele>441.0</ele><time>2026-04-25T16:21:50.079Z</time></trkpt><trkpt lat="44.6337504" lon="8.0324471"><ele>441.0</ele><time>2026-04-25T16:21:51.079Z</time></trkpt><trkpt lat="44.6338468" lon="8.0325461"><ele>441.0</ele><time>2026-04-25T16:21:52.079Z</time></trkpt><trkpt lat="44.6339373" lon="8.0326355"><ele>441.4</ele><time>2026-04-25T16:21:53.079Z</time></trkpt><trkpt lat="44.6340333" lon="8.0327036"><ele>441.8</ele><time>2026-04-25T16:21:54.078Z</time></trkpt><trkpt lat="44.6341253" lon="8.0327164"><ele>442.19999999999993</ele><time>2026-04-25T16:21:55.079Z</time></trkpt><trkpt lat="44.6342338" lon="8.0327404"><ele>442.59999999999997</ele><time>2026-04-25T16:21:56.079Z</time></trkpt><trkpt lat="44.63434" lon="8.0326835"><ele>443.0</ele><time>2026-04-25T16:21:57.079Z</time></trkpt><trkpt lat="44.6344476" lon="8.0325907"><ele>443.0</ele><time>2026-04-25T16:21:58.079Z</time></trkpt><trkpt lat="44.6345164" lon="8.0324493"><ele>443.0</ele><time>2026-04-25T16:21:59.079Z</time></trkpt><trkpt lat="44.6346056" lon="8.0323337"><ele>443.0</ele><time>2026-04-25T16:22:00.079Z</time></trkpt><trkpt lat="44.6347049" lon="8.0322372"><ele>443.0</ele><time>2026-04-25T16:22:01.079Z</time></trkpt><trkpt lat="44.6348053" lon="8.0321387"><ele>443.0</ele><time>2026-04-25T16:22:02.079Z</time></trkpt><trkpt lat="44.6348969" lon="8.0319936"><ele>443.0</ele><time>2026-04-25T16:22:03.078Z</time></trkpt><trkpt lat="44.6350035" lon="8.0318711"><ele>443.0</ele><time>2026-04-25T16:22:04.079Z</time></trkpt><trkpt lat="44.635094" lon="8.0317562"><ele>443.0</ele><time>2026-04-25T16:22:05.079Z</time></trkpt><trkpt lat="44.6351943" lon="8.0316781"><ele>443.0</ele><time>2026-04-25T16:22:06.079Z</time></trkpt><trkpt lat="44.6353011" lon="8.03165"><ele>442.99999999999994</ele><time>2026-04-25T16:22:07.079Z</time></trkpt><trkpt lat="44.6354215" lon="8.0316863"><ele>442.99999999999994</ele><time>2026-04-25T16:22:08.079Z</time></trkpt><trkpt lat="44.6355047" lon="8.0317152"><ele>443.0</ele><time>2026-04-25T16:22:09.079Z</time></trkpt><trkpt lat="44.6356136" lon="8.0317992"><ele>443.0</ele><time>2026-04-25T16:22:10.079Z</time></trkpt><trkpt lat="44.6357594" lon="8.0319426"><ele>442.5</ele><time>2026-04-25T16:22:11.079Z</time></trkpt><trkpt lat="44.6358839" lon="8.0320612"><ele>442.0</ele><time>2026-04-25T16:22:12.079Z</time></trkpt><trkpt lat="44.6359975" lon="8.0321732"><ele>441.5</ele><time>2026-04-25T16:22:13.079Z</time></trkpt><trkpt lat="44.6361295" lon="8.0322871"><ele>441.0</ele><time>2026-04-25T16:22:14.079Z</time></trkpt><trkpt lat="44.6362571" lon="8.0323991"><ele>440.5</ele><time>2026-04-25T16:22:15.078Z</time></trkpt><trkpt lat="44.6363799" lon="8.0325121"><ele>440.0</ele><time>2026-04-25T16:22:16.078Z</time></trkpt><trkpt lat="44.6365082" lon="8.0326149"><ele>439.5</ele><time>2026-04-25T16:22:17.079Z</time></trkpt><trkpt lat="44.6366277" lon="8.0327312"><ele>439.0</ele><time>2026-04-25T16:22:18.079Z</time></trkpt><trkpt lat="44.636743" lon="8.0328412"><ele>439.0</ele><time>2026-04-25T16:22:19.078Z</time></trkpt><trkpt lat="44.636856" lon="8.0329485"><ele>439.0</ele><time>2026-04-25T16:22:20.079Z</time></trkpt><trkpt lat="44.6369585" lon="8.0330373"><ele>439.0</ele><time>2026-04-25T16:22:21.079Z</time></trkpt><trkpt lat="44.6370666" lon="8.0331094"><ele>439.0</ele><time>2026-04-25T16:22:22.078Z</time></trkpt><trkpt lat="44.6371838" lon="8.0331459"><ele>439.0</ele><time>2026-04-25T16:22:23.079Z</time></trkpt><trkpt lat="44.6373013" lon="8.0331764"><ele>439.0</ele><time>2026-04-25T16:22:24.078Z</time></trkpt><trkpt lat="44.6374162" lon="8.0331488"><ele>439.0</ele><time>2026-04-25T16:22:25.079Z</time></trkpt><trkpt lat="44.6375578" lon="8.0329986"><ele>439.0</ele><time>2026-04-25T16:22:26.079Z</time></trkpt><trkpt lat="44.6376831" lon="8.0329167"><ele>437.0</ele><time>2026-04-25T16:22:27.079Z</time></trkpt><trkpt lat="44.6378044" lon="8.0328435"><ele>435.0</ele><time>2026-04-25T16:22:28.078Z</time></trkpt><trkpt lat="44.6379366" lon="8.0327677"><ele>433.0</ele><time>2026-04-25T16:22:29.079Z</time></trkpt><trkpt lat="44.6380875" lon="8.0327736"><ele>431.0</ele><time>2026-04-25T16:22:30.078Z</time></trkpt><trkpt lat="44.6382254" lon="8.0327823"><ele>431.0</ele><time>2026-04-25T16:22:31.078Z</time></trkpt><trkpt lat="44.638362" lon="8.0327906"><ele>431.0</ele><time>2026-04-25T16:22:32.078Z</time></trkpt><trkpt lat="44.6384964" lon="8.0328027"><ele>431.0</ele><time>2026-04-25T16:22:33.079Z</time></trkpt><trkpt lat="44.6386467" lon="8.0327874"><ele>431.0</ele><time>2026-04-25T16:22:34.078Z</time></trkpt><trkpt lat="44.6387947" lon="8.0326931"><ele>427.3333333333333</ele><time>2026-04-25T16:22:35.079Z</time></trkpt><trkpt lat="44.6389366" lon="8.032601"><ele>423.66666666666663</ele><time>2026-04-25T16:22:36.079Z</time></trkpt><trkpt lat="44.6390647" lon="8.0324743"><ele>420.0</ele><time>2026-04-25T16:22:37.078Z</time></trkpt><trkpt lat="44.63921" lon="8.0323399"><ele>420.0</ele><time>2026-04-25T16:22:38.079Z</time></trkpt><trkpt lat="44.6393511" lon="8.0322118"><ele>420.0</ele><time>2026-04-25T16:22:39.079Z</time></trkpt><trkpt lat="44.6394903" lon="8.0320874"><ele>420.0</ele><time>2026-04-25T16:22:40.079Z</time></trkpt><trkpt lat="44.6396324" lon="8.0319666"><ele>418.5</ele><time>2026-04-25T16:22:41.079Z</time></trkpt><trkpt lat="44.6397509" lon="8.0318536"><ele>417.0</ele><time>2026-04-25T16:22:42.079Z</time></trkpt><trkpt lat="44.639835" lon="8.0318066"><ele>415.5</ele><time>2026-04-25T16:22:43.079Z</time></trkpt><trkpt lat="44.6399448" lon="8.0317331"><ele>414.0</ele><time>2026-04-25T16:22:44.079Z</time></trkpt><trkpt lat="44.6400681" lon="8.031689"><ele>414.0</ele><time>2026-04-25T16:22:45.079Z</time></trkpt><trkpt lat="44.6401481" lon="8.0316677"><ele>414.0</ele><time>2026-04-25T16:22:46.078Z</time></trkpt><trkpt lat="44.6402382" lon="8.0316299"><ele>414.0</ele><time>2026-04-25T16:22:47.079Z</time></trkpt><trkpt lat="44.6403304" lon="8.0315932"><ele>414.0</ele><time>2026-04-25T16:22:48.078Z</time></trkpt><trkpt lat="44.6404389" lon="8.0315473"><ele>414.0</ele><time>2026-04-25T16:22:49.079Z</time></trkpt><trkpt lat="44.6405539" lon="8.0315074"><ele>413.25</ele><time>2026-04-25T16:22:50.079Z</time></trkpt><trkpt lat="44.6406441" lon="8.0314681"><ele>412.5</ele><time>2026-04-25T16:22:51.079Z</time></trkpt><trkpt lat="44.6407527" lon="8.0314231"><ele>411.75</ele><time>2026-04-25T16:22:52.079Z</time></trkpt><trkpt lat="44.6408621" lon="8.0313806"><ele>411.0</ele><time>2026-04-25T16:22:53.078Z</time></trkpt><trkpt lat="44.6409961" lon="8.0313464"><ele>411.0</ele><time>2026-04-25T16:22:54.079Z</time></trkpt><trkpt lat="44.6411102" lon="8.0313304"><ele>411.0</ele><time>2026-04-25T16:22:55.079Z</time></trkpt><trkpt lat="44.6412272" lon="8.031382"><ele>411.0</ele><time>2026-04-25T16:22:56.079Z</time></trkpt><trkpt lat="44.6413607" lon="8.0313993"><ele>411.0</ele><time>2026-04-25T16:22:57.078Z</time></trkpt><trkpt lat="44.6414978" lon="8.0314515"><ele>415.5</ele><time>2026-04-25T16:22:58.079Z</time></trkpt><trkpt lat="44.6416321" lon="8.0315099"><ele>420.0</ele><time>2026-04-25T16:22:59.079Z</time></trkpt><trkpt lat="44.6417684" lon="8.0315498"><ele>424.5</ele><time>2026-04-25T16:23:00.079Z</time></trkpt><trkpt lat="44.6418959" lon="8.0316229"><ele>429.0</ele><time>2026-04-25T16:23:01.079Z</time></trkpt><trkpt lat="44.642003" lon="8.0317229"><ele>432.5</ele><time>2026-04-25T16:23:02.079Z</time></trkpt><trkpt lat="44.6421147" lon="8.0318198"><ele>436.0</ele><time>2026-04-25T16:23:03.079Z</time></trkpt><trkpt lat="44.6422177" lon="8.0319583"><ele>439.5</ele><time>2026-04-25T16:23:04.079Z</time></trkpt><trkpt lat="44.6423022" lon="8.0321094"><ele>443.0</ele><time>2026-04-25T16:23:05.079Z</time></trkpt><trkpt lat="44.6423818" lon="8.0322506"><ele>443.0</ele><time>2026-04-25T16:23:06.079Z</time></trkpt><trkpt lat="44.6424256" lon="8.0324238"><ele>443.0</ele><time>2026-04-25T16:23:07.079Z</time></trkpt><trkpt lat="44.6424815" lon="8.0325912"><ele>443.0</ele><time>2026-04-25T16:23:08.078Z</time></trkpt><trkpt lat="44.6425369" lon="8.0327566"><ele>443.0</ele><time>2026-04-25T16:23:09.079Z</time></trkpt><trkpt lat="44.6425811" lon="8.0329272"><ele>441.0</ele><time>2026-04-25T16:23:10.079Z</time></trkpt><trkpt lat="44.6426096" lon="8.033107"><ele>439.0</ele><time>2026-04-25T16:23:11.079Z</time></trkpt><trkpt lat="44.6426181" lon="8.033282"><ele>437.0</ele><time>2026-04-25T16:23:12.079Z</time></trkpt><trkpt lat="44.6426078" lon="8.0334708"><ele>435.0</ele><time>2026-04-25T16:23:13.079Z</time></trkpt><trkpt lat="44.6425869" lon="8.0336596"><ele>435.0</ele><time>2026-04-25T16:23:14.078Z</time></trkpt><trkpt lat="44.6425648" lon="8.0337909"><ele>435.0</ele><time>2026-04-25T16:23:15.079Z</time></trkpt><trkpt lat="44.6425343" lon="8.0339328"><ele>435.0</ele><time>2026-04-25T16:23:16.079Z</time></trkpt><trkpt lat="44.6425046" lon="8.0340687"><ele>435.0</ele><time>2026-04-25T16:23:17.079Z</time></trkpt><trkpt lat="44.6424672" lon="8.0341984"><ele>435.0</ele><time>2026-04-25T16:23:18.079Z</time></trkpt><trkpt lat="44.6424877" lon="8.0343255"><ele>436.0</ele><time>2026-04-25T16:23:20.078Z</time></trkpt><trkpt lat="44.6425507" lon="8.034424"><ele>437.0</ele><time>2026-04-25T16:23:22.079Z</time></trkpt><trkpt lat="44.6426432" lon="8.0343324"><ele>438.0</ele><time>2026-04-25T16:23:23.078Z</time></trkpt><trkpt lat="44.6427066" lon="8.0342573"><ele>439.0</ele><time>2026-04-25T16:23:24.078Z</time></trkpt><trkpt lat="44.6427758" lon="8.0341662"><ele>440.0</ele><time>2026-04-25T16:23:25.079Z</time></trkpt><trkpt lat="44.6428343" lon="8.0340688"><ele>445.0</ele><time>2026-04-25T16:23:26.079Z</time></trkpt><trkpt lat="44.6429223" lon="8.0339308"><ele>450.0</ele><time>2026-04-25T16:23:27.079Z</time></trkpt><trkpt lat="44.643018" lon="8.0337606"><ele>455.0</ele><time>2026-04-25T16:23:28.078Z</time></trkpt><trkpt lat="44.6430769" lon="8.0336018"><ele>460.0</ele><time>2026-04-25T16:23:29.079Z</time></trkpt><trkpt lat="44.6431252" lon="8.033445"><ele>460.33333333333337</ele><time>2026-04-25T16:23:30.078Z</time></trkpt><trkpt lat="44.6431226" lon="8.0332272"><ele>460.66666666666663</ele><time>2026-04-25T16:23:31.079Z</time></trkpt><trkpt lat="44.6431047" lon="8.0330418"><ele>461.0</ele><time>2026-04-25T16:23:32.079Z</time></trkpt><trkpt lat="44.6430967" lon="8.0327965"><ele>461.0</ele><time>2026-04-25T16:23:33.079Z</time></trkpt><trkpt lat="44.6430881" lon="8.0326053"><ele>461.0</ele><time>2026-04-25T16:23:34.079Z</time></trkpt><trkpt lat="44.6430881" lon="8.0323952"><ele>461.0</ele><time>2026-04-25T16:23:35.079Z</time></trkpt><trkpt lat="44.6430728" lon="8.0321825"><ele>461.0</ele><time>2026-04-25T16:23:36.078Z</time></trkpt><trkpt lat="44.643058" lon="8.0319902"><ele>460.5</ele><time>2026-04-25T16:23:37.079Z</time></trkpt><trkpt lat="44.6430383" lon="8.0318518"><ele>460.0</ele><time>2026-04-25T16:23:38.079Z</time></trkpt><trkpt lat="44.6429848" lon="8.0316767"><ele>459.5</ele><time>2026-04-25T16:23:39.078Z</time></trkpt><trkpt lat="44.6429332" lon="8.0315138"><ele>459.0</ele><time>2026-04-25T16:23:40.079Z</time></trkpt><trkpt lat="44.6428765" lon="8.0313618"><ele>459.0</ele><time>2026-04-25T16:23:41.079Z</time></trkpt><trkpt lat="44.6428375" lon="8.0311823"><ele>459.0</ele><time>2026-04-25T16:23:42.079Z</time></trkpt><trkpt lat="44.6428432" lon="8.0310192"><ele>459.0</ele><time>2026-04-25T16:23:43.078Z</time></trkpt><trkpt lat="44.6429006" lon="8.0309196"><ele>459.0</ele><time>2026-04-25T16:23:44.079Z</time></trkpt><trkpt lat="44.6429653" lon="8.0308118"><ele>459.0</ele><time>2026-04-25T16:23:45.079Z</time></trkpt><trkpt lat="44.6430454" lon="8.0307227"><ele>454.25</ele><time>2026-04-25T16:23:46.079Z</time></trkpt><trkpt lat="44.6431538" lon="8.0306507"><ele>449.5</ele><time>2026-04-25T16:23:47.078Z</time></trkpt><trkpt lat="44.6432497" lon="8.0305885"><ele>444.75</ele><time>2026-04-25T16:23:48.079Z</time></trkpt><trkpt lat="44.6434062" lon="8.0305433"><ele>440.0</ele><time>2026-04-25T16:23:49.079Z</time></trkpt><trkpt lat="44.6435537" lon="8.0304692"><ele>445.66666666666663</ele><time>2026-04-25T16:23:50.079Z</time></trkpt><trkpt lat="44.6437009" lon="8.0303941"><ele>451.33333333333337</ele><time>2026-04-25T16:23:51.079Z</time></trkpt><trkpt lat="44.6438393" lon="8.030313"><ele>457.0</ele><time>2026-04-25T16:23:52.079Z</time></trkpt><trkpt lat="44.6439853" lon="8.0302539"><ele>457.0</ele><time>2026-04-25T16:23:53.079Z</time></trkpt><trkpt lat="44.6441331" lon="8.0301926"><ele>457.0</ele><time>2026-04-25T16:23:54.078Z</time></trkpt><trkpt lat="44.644281" lon="8.0301323"><ele>457.0</ele><time>2026-04-25T16:23:55.078Z</time></trkpt><trkpt lat="44.6444407" lon="8.0300734"><ele>456.33333333333337</ele><time>2026-04-25T16:23:56.079Z</time></trkpt><trkpt lat="44.6445901" lon="8.0300251"><ele>455.66666666666663</ele><time>2026-04-25T16:23:57.079Z</time></trkpt><trkpt lat="44.6447414" lon="8.0299712"><ele>455.0</ele><time>2026-04-25T16:23:58.078Z</time></trkpt><trkpt lat="44.6448947" lon="8.0299098"><ele>455.0</ele><time>2026-04-25T16:23:59.079Z</time></trkpt><trkpt lat="44.6450451" lon="8.0298463"><ele>455.0</ele><time>2026-04-25T16:24:00.079Z</time></trkpt><trkpt lat="44.6451948" lon="8.029774"><ele>455.0</ele><time>2026-04-25T16:24:01.078Z</time></trkpt><trkpt lat="44.6453366" lon="8.0296966"><ele>460.25</ele><time>2026-04-25T16:24:02.079Z</time></trkpt><trkpt lat="44.6454687" lon="8.0296075"><ele>465.5</ele><time>2026-04-25T16:24:03.078Z</time></trkpt><trkpt lat="44.6455777" lon="8.0295071"><ele>470.75</ele><time>2026-04-25T16:24:04.079Z</time></trkpt><trkpt lat="44.6456963" lon="8.0293472"><ele>476.0</ele><time>2026-04-25T16:24:05.079Z</time></trkpt><trkpt lat="44.6457969" lon="8.0292147"><ele>475.25</ele><time>2026-04-25T16:24:06.079Z</time></trkpt><trkpt lat="44.6459001" lon="8.029076"><ele>474.5</ele><time>2026-04-25T16:24:07.079Z</time></trkpt><trkpt lat="44.646011" lon="8.0289742"><ele>473.75</ele><time>2026-04-25T16:24:08.079Z</time></trkpt><trkpt lat="44.6461211" lon="8.0288944"><ele>473.0</ele><time>2026-04-25T16:24:09.079Z</time></trkpt><trkpt lat="44.646239" lon="8.0288134"><ele>473.0</ele><time>2026-04-25T16:24:10.079Z</time></trkpt><trkpt lat="44.6463612" lon="8.0287636"><ele>473.0</ele><time>2026-04-25T16:24:11.078Z</time></trkpt><trkpt lat="44.6464766" lon="8.0287284"><ele>473.0</ele><time>2026-04-25T16:24:12.079Z</time></trkpt><trkpt lat="44.6466008" lon="8.0287061"><ele>473.0</ele><time>2026-04-25T16:24:13.078Z</time></trkpt><trkpt lat="44.6467109" lon="8.0286993"><ele>473.0</ele><time>2026-04-25T16:24:14.078Z</time></trkpt><trkpt lat="44.6468554" lon="8.0287514"><ele>473.0</ele><time>2026-04-25T16:24:15.079Z</time></trkpt><trkpt lat="44.6469906" lon="8.0288033"><ele>473.0</ele><time>2026-04-25T16:24:16.079Z</time></trkpt><trkpt lat="44.6471259" lon="8.0288602"><ele>473.0</ele><time>2026-04-25T16:24:17.079Z</time></trkpt><trkpt lat="44.6472558" lon="8.0289024"><ele>471.75</ele><time>2026-04-25T16:24:18.078Z</time></trkpt><trkpt lat="44.6473925" lon="8.0289806"><ele>470.5</ele><time>2026-04-25T16:24:19.079Z</time></trkpt><trkpt lat="44.6475168" lon="8.0290412"><ele>469.25</ele><time>2026-04-25T16:24:20.079Z</time></trkpt><trkpt lat="44.6476311" lon="8.0290886"><ele>468.0</ele><time>2026-04-25T16:24:21.079Z</time></trkpt><trkpt lat="44.6477473" lon="8.0291368"><ele>472.25</ele><time>2026-04-25T16:24:22.079Z</time></trkpt><trkpt lat="44.6478641" lon="8.0291775"><ele>476.5</ele><time>2026-04-25T16:24:23.079Z</time></trkpt><trkpt lat="44.6479833" lon="8.0292027"><ele>480.75</ele><time>2026-04-25T16:24:24.079Z</time></trkpt><trkpt lat="44.6480823" lon="8.029215"><ele>485.0</ele><time>2026-04-25T16:24:25.078Z</time></trkpt><trkpt lat="44.6481954" lon="8.029241"><ele>485.0</ele><time>2026-04-25T16:24:26.079Z</time></trkpt><trkpt lat="44.6482938" lon="8.0292601"><ele>485.0</ele><time>2026-04-25T16:24:27.078Z</time></trkpt><trkpt lat="44.6483973" lon="8.0292384"><ele>485.0</ele><time>2026-04-25T16:24:28.078Z</time></trkpt><trkpt lat="44.6484993" lon="8.0292311"><ele>485.0</ele><time>2026-04-25T16:24:29.079Z</time></trkpt><trkpt lat="44.6486076" lon="8.0292356"><ele>485.0</ele><time>2026-04-25T16:24:30.079Z</time></trkpt><trkpt lat="44.6487162" lon="8.0292205"><ele>485.4</ele><time>2026-04-25T16:24:31.079Z</time></trkpt><trkpt lat="44.6488213" lon="8.0292077"><ele>485.8</ele><time>2026-04-25T16:24:32.078Z</time></trkpt><trkpt lat="44.6489223" lon="8.029203"><ele>486.20000000000005</ele><time>2026-04-25T16:24:33.079Z</time></trkpt><trkpt lat="44.6490213" lon="8.0291931"><ele>486.6</ele><time>2026-04-25T16:24:34.078Z</time></trkpt><trkpt lat="44.6491131" lon="8.0291604"><ele>487.0</ele><time>2026-04-25T16:24:35.079Z</time></trkpt><trkpt lat="44.6492108" lon="8.0291196"><ele>486.40000000000003</ele><time>2026-04-25T16:24:36.078Z</time></trkpt><trkpt lat="44.6492997" lon="8.0291076"><ele>485.80000000000007</ele><time>2026-04-25T16:24:37.078Z</time></trkpt><trkpt lat="44.6494133" lon="8.0290251"><ele>485.2</ele><time>2026-04-25T16:24:39.079Z</time></trkpt><trkpt lat="44.6494805" lon="8.0289861"><ele>484.6</ele><time>2026-04-25T16:24:40.079Z</time></trkpt><trkpt lat="44.649551" lon="8.0289623"><ele>484.0</ele><time>2026-04-25T16:24:41.079Z</time></trkpt><trkpt lat="44.6496715" lon="8.0289385"><ele>484.0</ele><time>2026-04-25T16:24:43.078Z</time></trkpt><trkpt lat="44.6497878" lon="8.0288909"><ele>484.0</ele><time>2026-04-25T16:24:45.078Z</time></trkpt><trkpt lat="44.6498796" lon="8.0288462"><ele>484.0</ele><time>2026-04-25T16:24:47.079Z</time></trkpt><trkpt lat="44.6499943" lon="8.028819"><ele>484.0</ele><time>2026-04-25T16:24:49.079Z</time></trkpt><trkpt lat="44.650084" lon="8.0287591"><ele>484.0</ele><time>2026-04-25T16:24:51.079Z</time></trkpt><trkpt lat="44.6501859" lon="8.0287026"><ele>484.0</ele><time>2026-04-25T16:24:53.078Z</time></trkpt><trkpt lat="44.6502437" lon="8.0286667"><ele>484.0</ele><time>2026-04-25T16:24:54.079Z</time></trkpt><trkpt lat="44.6503155" lon="8.0286444"><ele>484.0</ele><time>2026-04-25T16:24:55.079Z</time></trkpt><trkpt lat="44.6504075" lon="8.0285892"><ele>484.0</ele><time>2026-04-25T16:24:57.079Z</time></trkpt><trkpt lat="44.6505223" lon="8.028556"><ele>484.0</ele><time>2026-04-25T16:24:59.079Z</time></trkpt><trkpt lat="44.6506325" lon="8.0284771"><ele>483.4</ele><time>2026-04-25T16:25:01.078Z</time></trkpt><trkpt lat="44.6507439" lon="8.0284656"><ele>482.79999999999995</ele><time>2026-04-25T16:25:03.079Z</time></trkpt><trkpt lat="44.6508397" lon="8.0285017"><ele>482.20000000000005</ele><time>2026-04-25T16:25:05.079Z</time></trkpt><trkpt lat="44.6509082" lon="8.0284966"><ele>481.6</ele><time>2026-04-25T16:25:07.079Z</time></trkpt><trkpt lat="44.650995" lon="8.0284398"><ele>481.0</ele><time>2026-04-25T16:27:57.078Z</time></trkpt><trkpt lat="44.6510763" lon="8.028419"><ele>481.0</ele><time>2026-04-25T16:27:59.079Z</time></trkpt><trkpt lat="44.6511568" lon="8.0283894"><ele>481.0</ele><time>2026-04-25T16:28:01.079Z</time></trkpt><trkpt lat="44.651222" lon="8.0283741"><ele>481.0</ele><time>2026-04-25T16:28:03.078Z</time></trkpt><trkpt lat="44.6511312" lon="8.0284466"><ele>481.0</ele><time>2026-04-25T16:28:08.079Z</time></trkpt><trkpt lat="44.6510573" lon="8.028492"><ele>481.0</ele><time>2026-04-25T16:28:10.079Z</time></trkpt><trkpt lat="44.6509465" lon="8.0285648"><ele>481.0</ele><time>2026-04-25T16:28:12.078Z</time></trkpt><trkpt lat="44.6508928" lon="8.0286148"><ele>481.0</ele><time>2026-04-25T16:28:13.079Z</time></trkpt><trkpt lat="44.6508259" lon="8.0286577"><ele>481.0</ele><time>2026-04-25T16:28:14.079Z</time></trkpt><trkpt lat="44.6507468" lon="8.0287086"><ele>481.0</ele><time>2026-04-25T16:28:15.079Z</time></trkpt><trkpt lat="44.6506874" lon="8.0288344"><ele>481.0</ele><time>2026-04-25T16:28:17.078Z</time></trkpt><trkpt lat="44.6506593" lon="8.0290302"><ele>481.00000000000006</ele><time>2026-04-25T16:28:19.078Z</time></trkpt><trkpt lat="44.6506534" lon="8.0291339"><ele>481.0</ele><time>2026-04-25T16:28:20.078Z</time></trkpt><trkpt lat="44.6506299" lon="8.0292408"><ele>481.0</ele><time>2026-04-25T16:28:21.079Z</time></trkpt><trkpt lat="44.6506136" lon="8.0293676"><ele>481.0</ele><time>2026-04-25T16:28:22.079Z</time></trkpt><trkpt lat="44.6505802" lon="8.0294702"><ele>481.00000000000006</ele><time>2026-04-25T16:28:23.078Z</time></trkpt><trkpt lat="44.6505514" lon="8.0295972"><ele>481.0</ele><time>2026-04-25T16:28:24.078Z</time></trkpt><trkpt lat="44.6505452" lon="8.0297481"><ele>478.1666666666667</ele><time>2026-04-25T16:28:25.079Z</time></trkpt><trkpt lat="44.6505225" lon="8.0298775"><ele>475.33333333333337</ele><time>2026-04-25T16:28:26.079Z</time></trkpt><trkpt lat="44.6505168" lon="8.0300151"><ele>472.5</ele><time>2026-04-25T16:28:27.079Z</time></trkpt><trkpt lat="44.6505041" lon="8.030142"><ele>469.66666666666663</ele><time>2026-04-25T16:28:28.079Z</time></trkpt><trkpt lat="44.6504925" lon="8.0302657"><ele>466.8333333333333</ele><time>2026-04-25T16:28:29.079Z</time></trkpt><trkpt lat="44.6504824" lon="8.0303678"><ele>464.0</ele><time>2026-04-25T16:28:30.079Z</time></trkpt><trkpt lat="44.6504582" lon="8.0304847"><ele>460.79999999999995</ele><time>2026-04-25T16:28:32.079Z</time></trkpt><trkpt lat="44.6504875" lon="8.030622"><ele>457.59999999999997</ele><time>2026-04-25T16:28:34.079Z</time></trkpt><trkpt lat="44.6506051" lon="8.0306026"><ele>454.4</ele><time>2026-04-25T16:28:36.079Z</time></trkpt><trkpt lat="44.6507166" lon="8.030657"><ele>451.2</ele><time>2026-04-25T16:28:38.078Z</time></trkpt><trkpt lat="44.6507366" lon="8.0307742"><ele>448.0</ele><time>2026-04-25T16:28:40.079Z</time></trkpt><trkpt lat="44.6506945" lon="8.0308724"><ele>445.79999999999995</ele><time>2026-04-25T16:28:42.079Z</time></trkpt><trkpt lat="44.6506318" lon="8.0310716"><ele>443.59999999999997</ele><time>2026-04-25T16:28:44.079Z</time></trkpt><trkpt lat="44.6506126" lon="8.0312161"><ele>441.40000000000003</ele><time>2026-04-25T16:28:46.079Z</time></trkpt><trkpt lat="44.6506443" lon="8.0312968"><ele>439.20000000000005</ele><time>2026-04-25T16:28:47.079Z</time></trkpt><trkpt lat="44.6507012" lon="8.0313841"><ele>437.0</ele><time>2026-04-25T16:28:49.079Z</time></trkpt><trkpt lat="44.6507921" lon="8.0313726"><ele>437.0</ele><time>2026-04-25T16:28:51.079Z</time></trkpt><trkpt lat="44.6507739" lon="8.0314849"><ele>437.00000000000006</ele><time>2026-04-25T16:28:53.079Z</time></trkpt><trkpt lat="44.6506874" lon="8.031485"><ele>437.00000000000006</ele><time>2026-04-25T16:28:55.079Z</time></trkpt><trkpt lat="44.6505549" lon="8.0314885"><ele>437.0</ele><time>2026-04-25T16:28:57.078Z</time></trkpt><trkpt lat="44.6505004" lon="8.0315345"><ele>437.0</ele><time>2026-04-25T16:28:58.078Z</time></trkpt><trkpt lat="44.6504189" lon="8.0316307"><ele>434.49999999999994</ele><time>2026-04-25T16:29:00.078Z</time></trkpt><trkpt lat="44.6504656" lon="8.0317265"><ele>432.0</ele><time>2026-04-25T16:29:02.079Z</time></trkpt><trkpt lat="44.6505217" lon="8.0317969"><ele>429.5</ele><time>2026-04-25T16:29:03.079Z</time></trkpt><trkpt lat="44.6505969" lon="8.0318434"><ele>427.0</ele><time>2026-04-25T16:29:04.079Z</time></trkpt><trkpt lat="44.6506781" lon="8.0318801"><ele>424.49999999999994</ele><time>2026-04-25T16:29:05.079Z</time></trkpt><trkpt lat="44.6507926" lon="8.03188"><ele>422.0</ele><time>2026-04-25T16:29:06.078Z</time></trkpt><trkpt lat="44.6509547" lon="8.0319256"><ele>422.0</ele><time>2026-04-25T16:29:07.078Z</time></trkpt><trkpt lat="44.651041" lon="8.0319893"><ele>422.0</ele><time>2026-04-25T16:29:08.079Z</time></trkpt><trkpt lat="44.651133" lon="8.0320597"><ele>422.0</ele><time>2026-04-25T16:29:09.079Z</time></trkpt><trkpt lat="44.6512122" lon="8.0321298"><ele>422.0</ele><time>2026-04-25T16:29:10.079Z</time></trkpt><trkpt lat="44.6512968" lon="8.0322163"><ele>422.0</ele><time>2026-04-25T16:29:11.078Z</time></trkpt><trkpt lat="44.6513642" lon="8.0322699"><ele>419.20000000000005</ele><time>2026-04-25T16:29:12.078Z</time></trkpt><trkpt lat="44.6514531" lon="8.032381"><ele>416.4</ele><time>2026-04-25T16:29:13.078Z</time></trkpt><trkpt lat="44.6515319" lon="8.0324698"><ele>413.6</ele><time>2026-04-25T16:29:14.078Z</time></trkpt><trkpt lat="44.651593" lon="8.0325624"><ele>410.79999999999995</ele><time>2026-04-25T16:29:15.079Z</time></trkpt><trkpt lat="44.651661" lon="8.0326578"><ele>408.0</ele><time>2026-04-25T16:29:16.079Z</time></trkpt><trkpt lat="44.651702" lon="8.0327541"><ele>406.2</ele><time>2026-04-25T16:29:17.079Z</time></trkpt><trkpt lat="44.6517186" lon="8.0328762"><ele>404.4</ele><time>2026-04-25T16:29:18.079Z</time></trkpt><trkpt lat="44.6517458" lon="8.0330072"><ele>402.59999999999997</ele><time>2026-04-25T16:29:19.079Z</time></trkpt><trkpt lat="44.6517951" lon="8.0331304"><ele>400.79999999999995</ele><time>2026-04-25T16:29:20.079Z</time></trkpt><trkpt lat="44.6518407" lon="8.0332705"><ele>399.0</ele><time>2026-04-25T16:29:21.079Z</time></trkpt><trkpt lat="44.6518829" lon="8.0333953"><ele>396.79999999999995</ele><time>2026-04-25T16:29:22.079Z</time></trkpt><trkpt lat="44.6519309" lon="8.0335253"><ele>394.59999999999997</ele><time>2026-04-25T16:29:23.079Z</time></trkpt><trkpt lat="44.6519894" lon="8.033665"><ele>392.4</ele><time>2026-04-25T16:29:24.079Z</time></trkpt><trkpt lat="44.6520476" lon="8.0337964"><ele>390.2</ele><time>2026-04-25T16:29:25.079Z</time></trkpt><trkpt lat="44.652111" lon="8.0339201"><ele>388.0</ele><time>2026-04-25T16:29:26.079Z</time></trkpt><trkpt lat="44.6521671" lon="8.0340524"><ele>384.59999999999997</ele><time>2026-04-25T16:29:27.079Z</time></trkpt><trkpt lat="44.6521971" lon="8.0341872"><ele>381.2</ele><time>2026-04-25T16:29:28.078Z</time></trkpt><trkpt lat="44.6522423" lon="8.0343173"><ele>377.8</ele><time>2026-04-25T16:29:29.079Z</time></trkpt><trkpt lat="44.652287" lon="8.0344388"><ele>374.4</ele><time>2026-04-25T16:29:30.078Z</time></trkpt><trkpt lat="44.6523386" lon="8.0345501"><ele>371.0</ele><time>2026-04-25T16:29:31.078Z</time></trkpt><trkpt lat="44.652395" lon="8.0346537"><ele>371.0</ele><time>2026-04-25T16:29:32.079Z</time></trkpt><trkpt lat="44.6524388" lon="8.0347687"><ele>371.0</ele><time>2026-04-25T16:29:33.079Z</time></trkpt><trkpt lat="44.6524653" lon="8.0348972"><ele>371.0</ele><time>2026-04-25T16:29:34.078Z</time></trkpt><trkpt lat="44.6524805" lon="8.0350337"><ele>371.0</ele><time>2026-04-25T16:29:35.079Z</time></trkpt><trkpt lat="44.6524818" lon="8.0351716"><ele>371.0</ele><time>2026-04-25T16:29:36.079Z</time></trkpt><trkpt lat="44.6524882" lon="8.0353209"><ele>370.6</ele><time>2026-04-25T16:29:37.079Z</time></trkpt><trkpt lat="44.6525182" lon="8.0354614"><ele>370.20000000000005</ele><time>2026-04-25T16:29:38.079Z</time></trkpt><trkpt lat="44.6525204" lon="8.0356146"><ele>369.79999999999995</ele><time>2026-04-25T16:29:39.079Z</time></trkpt><trkpt lat="44.6525336" lon="8.0357546"><ele>369.4</ele><time>2026-04-25T16:29:40.078Z</time></trkpt><trkpt lat="44.6524952" lon="8.0358953"><ele>369.0</ele><time>2026-04-25T16:29:41.078Z</time></trkpt><trkpt lat="44.6524578" lon="8.0360366"><ele>368.4</ele><time>2026-04-25T16:29:42.078Z</time></trkpt><trkpt lat="44.6524154" lon="8.0361772"><ele>367.79999999999995</ele><time>2026-04-25T16:29:43.079Z</time></trkpt><trkpt lat="44.6523837" lon="8.0363202"><ele>367.20000000000005</ele><time>2026-04-25T16:29:44.079Z</time></trkpt><trkpt lat="44.6523566" lon="8.0364666"><ele>366.6</ele><time>2026-04-25T16:29:45.079Z</time></trkpt><trkpt lat="44.6523336" lon="8.0366034"><ele>366.0</ele><time>2026-04-25T16:29:46.079Z</time></trkpt><trkpt lat="44.6523216" lon="8.0367538"><ele>364.0</ele><time>2026-04-25T16:29:47.079Z</time></trkpt><trkpt lat="44.6523217" lon="8.0369035"><ele>362.0</ele><time>2026-04-25T16:29:48.079Z</time></trkpt><trkpt lat="44.6523334" lon="8.0370507"><ele>360.0</ele><time>2026-04-25T16:29:49.078Z</time></trkpt><trkpt lat="44.6523522" lon="8.0372093"><ele>358.0</ele><time>2026-04-25T16:29:50.079Z</time></trkpt><trkpt lat="44.6523911" lon="8.0373765"><ele>355.75</ele><time>2026-04-25T16:29:51.079Z</time></trkpt><trkpt lat="44.6524311" lon="8.0375198"><ele>353.5</ele><time>2026-04-25T16:29:52.079Z</time></trkpt><trkpt lat="44.6524673" lon="8.0377008"><ele>351.25</ele><time>2026-04-25T16:29:53.079Z</time></trkpt><trkpt lat="44.6525138" lon="8.0378684"><ele>349.0</ele><time>2026-04-25T16:29:54.079Z</time></trkpt><trkpt lat="44.6525288" lon="8.0379933"><ele>349.0</ele><time>2026-04-25T16:29:55.079Z</time></trkpt><trkpt lat="44.6525583" lon="8.0381297"><ele>349.0</ele><time>2026-04-25T16:29:56.079Z</time></trkpt><trkpt lat="44.6525876" lon="8.0382884"><ele>349.0</ele><time>2026-04-25T16:29:57.078Z</time></trkpt><trkpt lat="44.652582" lon="8.0384505"><ele>349.0</ele><time>2026-04-25T16:29:58.078Z</time></trkpt><trkpt lat="44.652568" lon="8.0386091"><ele>349.0</ele><time>2026-04-25T16:29:59.079Z</time></trkpt><trkpt lat="44.6525674" lon="8.0387743"><ele>348.79999999999995</ele><time>2026-04-25T16:30:00.079Z</time></trkpt><trkpt lat="44.6525787" lon="8.0389418"><ele>348.59999999999997</ele><time>2026-04-25T16:30:01.078Z</time></trkpt><trkpt lat="44.6525811" lon="8.0391023"><ele>348.4</ele><time>2026-04-25T16:30:02.079Z</time></trkpt><trkpt lat="44.6525775" lon="8.0392506"><ele>348.2</ele><time>2026-04-25T16:30:03.079Z</time></trkpt><trkpt lat="44.6525692" lon="8.0394048"><ele>348.0</ele><time>2026-04-25T16:30:04.078Z</time></trkpt><trkpt lat="44.6525615" lon="8.0395235"><ele>348.0</ele><time>2026-04-25T16:30:05.079Z</time></trkpt><trkpt lat="44.6525517" lon="8.0396504"><ele>348.0</ele><time>2026-04-25T16:30:06.079Z</time></trkpt><trkpt lat="44.6526204" lon="8.0398206"><ele>348.0</ele><time>2026-04-25T16:30:08.078Z</time></trkpt><trkpt lat="44.6526954" lon="8.0398958"><ele>348.0</ele><time>2026-04-25T16:30:09.079Z</time></trkpt><trkpt lat="44.6527697" lon="8.0399841"><ele>348.0</ele><time>2026-04-25T16:30:10.079Z</time></trkpt><trkpt lat="44.6528517" lon="8.0400671"><ele>348.0</ele><time>2026-04-25T16:30:11.079Z</time></trkpt><trkpt lat="44.6529525" lon="8.0401724"><ele>348.0</ele><time>2026-04-25T16:30:12.078Z</time></trkpt><trkpt lat="44.6530489" lon="8.0402601"><ele>348.0</ele><time>2026-04-25T16:30:13.078Z</time></trkpt><trkpt lat="44.6531259" lon="8.0403645"><ele>348.0</ele><time>2026-04-25T16:30:14.079Z</time></trkpt><trkpt lat="44.6531937" lon="8.0404774"><ele>348.0</ele><time>2026-04-25T16:30:15.079Z</time></trkpt><trkpt lat="44.6532805" lon="8.0406081"><ele>348.0</ele><time>2026-04-25T16:30:16.079Z</time></trkpt><trkpt lat="44.653337" lon="8.0407212"><ele>348.0</ele><time>2026-04-25T16:30:17.079Z</time></trkpt><trkpt lat="44.6533866" lon="8.0408213"><ele>348.0</ele><time>2026-04-25T16:30:18.078Z</time></trkpt><trkpt lat="44.6534181" lon="8.0409166"><ele>348.0</ele><time>2026-04-25T16:30:19.079Z</time></trkpt><trkpt lat="44.6534417" lon="8.0410039"><ele>346.0</ele><time>2026-04-25T16:30:20.079Z</time></trkpt><trkpt lat="44.653448" lon="8.0411098"><ele>344.0</ele><time>2026-04-25T16:30:21.078Z</time></trkpt><trkpt lat="44.6534502" lon="8.0412116"><ele>342.0</ele><time>2026-04-25T16:30:22.079Z</time></trkpt><trkpt lat="44.6534583" lon="8.0413583"><ele>340.0</ele><time>2026-04-25T16:30:23.078Z</time></trkpt><trkpt lat="44.6534579" lon="8.0414968"><ele>338.0</ele><time>2026-04-25T16:30:24.078Z</time></trkpt><trkpt lat="44.6534585" lon="8.04162"><ele>336.0</ele><time>2026-04-25T16:30:25.078Z</time></trkpt><trkpt lat="44.653456" lon="8.0417516"><ele>334.8333333333333</ele><time>2026-04-25T16:30:26.078Z</time></trkpt><trkpt lat="44.6534514" lon="8.0418766"><ele>333.6666666666667</ele><time>2026-04-25T16:30:27.079Z</time></trkpt><trkpt lat="44.6534366" lon="8.0420118"><ele>332.5</ele><time>2026-04-25T16:30:28.078Z</time></trkpt><trkpt lat="44.6534024" lon="8.0421092"><ele>331.33333333333337</ele><time>2026-04-25T16:30:29.079Z</time></trkpt><trkpt lat="44.6533838" lon="8.042224"><ele>330.1666666666667</ele><time>2026-04-25T16:30:30.079Z</time></trkpt><trkpt lat="44.6533778" lon="8.042359"><ele>329.0</ele><time>2026-04-25T16:30:32.079Z</time></trkpt><trkpt lat="44.6534141" lon="8.0424326"><ele>326.25</ele><time>2026-04-25T16:30:33.079Z</time></trkpt><trkpt lat="44.6535431" lon="8.0425751"><ele>323.5</ele><time>2026-04-25T16:30:35.079Z</time></trkpt><trkpt lat="44.6536382" lon="8.0426355"><ele>320.75</ele><time>2026-04-25T16:30:36.079Z</time></trkpt><trkpt lat="44.6537386" lon="8.0426781"><ele>318.0</ele><time>2026-04-25T16:30:37.078Z</time></trkpt><trkpt lat="44.6538236" lon="8.0427169"><ele>317.8</ele><time>2026-04-25T16:30:38.079Z</time></trkpt><trkpt lat="44.6539079" lon="8.0427801"><ele>317.6</ele><time>2026-04-25T16:30:39.079Z</time></trkpt><trkpt lat="44.6539717" lon="8.0428727"><ele>317.4</ele><time>2026-04-25T16:30:40.079Z</time></trkpt><trkpt lat="44.6540293" lon="8.0429826"><ele>317.2</ele><time>2026-04-25T16:30:41.079Z</time></trkpt><trkpt lat="44.6540682" lon="8.0431006"><ele>317.0</ele><time>2026-04-25T16:30:42.079Z</time></trkpt><trkpt lat="44.6541092" lon="8.0432181"><ele>315.6</ele><time>2026-04-25T16:30:43.079Z</time></trkpt><trkpt lat="44.6541326" lon="8.0433395"><ele>314.2</ele><time>2026-04-25T16:30:44.079Z</time></trkpt><trkpt lat="44.6541512" lon="8.043442"><ele>312.8</ele><time>2026-04-25T16:30:45.079Z</time></trkpt><trkpt lat="44.6541524" lon="8.0435596"><ele>311.4</ele><time>2026-04-25T16:30:47.079Z</time></trkpt><trkpt lat="44.6540256" lon="8.0435319"><ele>310.0</ele><time>2026-04-25T16:30:49.079Z</time></trkpt><trkpt lat="44.6539262" lon="8.0434199"><ele>310.0</ele><time>2026-04-25T16:30:50.079Z</time></trkpt><trkpt lat="44.6538457" lon="8.043337"><ele>310.0</ele><time>2026-04-25T16:30:51.078Z</time></trkpt><trkpt lat="44.6537689" lon="8.0432539"><ele>310.0</ele><time>2026-04-25T16:30:52.079Z</time></trkpt><trkpt lat="44.6536728" lon="8.043181"><ele>310.0</ele><time>2026-04-25T16:30:53.079Z</time></trkpt><trkpt lat="44.6535796" lon="8.0431244"><ele>310.0</ele><time>2026-04-25T16:30:54.079Z</time></trkpt><trkpt lat="44.6534817" lon="8.0430969"><ele>311.6</ele><time>2026-04-25T16:30:55.079Z</time></trkpt><trkpt lat="44.6533791" lon="8.0430642"><ele>313.2</ele><time>2026-04-25T16:30:56.079Z</time></trkpt><trkpt lat="44.653271" lon="8.0430527"><ele>314.8</ele><time>2026-04-25T16:30:57.079Z</time></trkpt><trkpt lat="44.6531691" lon="8.0430533"><ele>316.4</ele><time>2026-04-25T16:30:58.078Z</time></trkpt><trkpt lat="44.6530798" lon="8.0430637"><ele>318.0</ele><time>2026-04-25T16:30:59.079Z</time></trkpt><trkpt lat="44.6529879" lon="8.0430471"><ele>318.0</ele><time>2026-04-25T16:31:00.078Z</time></trkpt><trkpt lat="44.6529136" lon="8.0430078"><ele>318.0</ele><time>2026-04-25T16:31:01.079Z</time></trkpt><trkpt lat="44.6528288" lon="8.0429632"><ele>318.0</ele><time>2026-04-25T16:31:02.079Z</time></trkpt><trkpt lat="44.652758" lon="8.0429175"><ele>318.0</ele><time>2026-04-25T16:31:03.078Z</time></trkpt><trkpt lat="44.6526946" lon="8.0428608"><ele>318.0</ele><time>2026-04-25T16:31:04.079Z</time></trkpt><trkpt lat="44.6526339" lon="8.0427647"><ele>318.0</ele><time>2026-04-25T16:31:05.079Z</time></trkpt><trkpt lat="44.6526247" lon="8.0426255"><ele>314.6</ele><time>2026-04-25T16:31:06.078Z</time></trkpt><trkpt lat="44.6526008" lon="8.0424914"><ele>311.20000000000005</ele><time>2026-04-25T16:31:07.079Z</time></trkpt><trkpt lat="44.6525913" lon="8.0423264"><ele>307.8</ele><time>2026-04-25T16:31:08.079Z</time></trkpt><trkpt lat="44.6526066" lon="8.042179"><ele>304.40000000000003</ele><time>2026-04-25T16:31:09.078Z</time></trkpt><trkpt lat="44.6526169" lon="8.0420552"><ele>301.0</ele><time>2026-04-25T16:31:10.079Z</time></trkpt><trkpt lat="44.6526121" lon="8.0419619"><ele>301.0</ele><time>2026-04-25T16:31:11.079Z</time></trkpt><trkpt lat="44.6525572" lon="8.0418648"><ele>301.0</ele><time>2026-04-25T16:31:14.079Z</time></trkpt><trkpt lat="44.6524938" lon="8.0419553"><ele>301.0</ele><time>2026-04-25T16:31:16.079Z</time></trkpt><trkpt lat="44.6524658" lon="8.0421462"><ele>301.0</ele><time>2026-04-25T16:31:17.079Z</time></trkpt><trkpt lat="44.6524163" lon="8.0422692"><ele>301.0</ele><time>2026-04-25T16:31:18.079Z</time></trkpt><trkpt lat="44.6523823" lon="8.0424045"><ele>299.2</ele><time>2026-04-25T16:31:19.079Z</time></trkpt><trkpt lat="44.6523338" lon="8.0425164"><ele>297.40000000000003</ele><time>2026-04-25T16:31:20.078Z</time></trkpt><trkpt lat="44.6522965" lon="8.0426351"><ele>295.6</ele><time>2026-04-25T16:31:21.079Z</time></trkpt><trkpt lat="44.6522923" lon="8.0427671"><ele>293.8</ele><time>2026-04-25T16:31:22.078Z</time></trkpt><trkpt lat="44.6523067" lon="8.0428971"><ele>292.0</ele><time>2026-04-25T16:31:23.079Z</time></trkpt><trkpt lat="44.6523513" lon="8.0430611"><ele>292.0</ele><time>2026-04-25T16:31:24.079Z</time></trkpt><trkpt lat="44.6524077" lon="8.0432155"><ele>292.0</ele><time>2026-04-25T16:31:25.079Z</time></trkpt><trkpt lat="44.6524517" lon="8.0433485"><ele>292.0</ele><time>2026-04-25T16:31:26.079Z</time></trkpt><trkpt lat="44.6524944" lon="8.0434832"><ele>292.0</ele><time>2026-04-25T16:31:27.079Z</time></trkpt><trkpt lat="44.6526151" lon="8.0436029"><ele>289.3333333333333</ele><time>2026-04-25T16:31:29.079Z</time></trkpt><trkpt lat="44.6526862" lon="8.0436428"><ele>286.66666666666663</ele><time>2026-04-25T16:31:32.079Z</time></trkpt><trkpt lat="44.6525927" lon="8.0434963"><ele>284.0</ele><time>2026-04-25T16:31:34.079Z</time></trkpt><trkpt lat="44.6525342" lon="8.0434552"><ele>281.3333333333333</ele><time>2026-04-25T16:31:35.079Z</time></trkpt><trkpt lat="44.6524744" lon="8.0434156"><ele>278.6666666666667</ele><time>2026-04-25T16:31:36.078Z</time></trkpt><trkpt lat="44.6524671" lon="8.0435548"><ele>276.0</ele><time>2026-04-25T16:31:39.078Z</time></trkpt><trkpt lat="44.6525197" lon="8.0436421"><ele>276.0</ele><time>2026-04-25T16:31:40.078Z</time></trkpt><trkpt lat="44.6526226" lon="8.0438183"><ele>276.0</ele><time>2026-04-25T16:31:42.078Z</time></trkpt><trkpt lat="44.6526548" lon="8.0438962"><ele>276.0</ele><time>2026-04-25T16:31:43.078Z</time></trkpt><trkpt lat="44.6527082" lon="8.0440063"><ele>276.0</ele><time>2026-04-25T16:31:44.078Z</time></trkpt><trkpt lat="44.6527555" lon="8.044115"><ele>276.0</ele><time>2026-04-25T16:31:45.078Z</time></trkpt><trkpt lat="44.652857" lon="8.0441478"><ele>275.1666666666667</ele><time>2026-04-25T16:31:46.079Z</time></trkpt><trkpt lat="44.6529399" lon="8.0442033"><ele>274.3333333333333</ele><time>2026-04-25T16:31:47.078Z</time></trkpt><trkpt lat="44.6529997" lon="8.0442832"><ele>273.5</ele><time>2026-04-25T16:31:48.079Z</time></trkpt><trkpt lat="44.6530647" lon="8.0443812"><ele>272.66666666666663</ele><time>2026-04-25T16:31:49.079Z</time></trkpt><trkpt lat="44.6531071" lon="8.0444824"><ele>271.8333333333333</ele><time>2026-04-25T16:31:50.079Z</time></trkpt><trkpt lat="44.6531575" lon="8.044582"><ele>271.0</ele><time>2026-04-25T16:31:51.078Z</time></trkpt><trkpt lat="44.6532122" lon="8.0446758"><ele>271.0</ele><time>2026-04-25T16:31:52.079Z</time></trkpt><trkpt lat="44.6532637" lon="8.0447682"><ele>271.0</ele><time>2026-04-25T16:31:53.079Z</time></trkpt><trkpt lat="44.6533176" lon="8.0448623"><ele>271.0</ele><time>2026-04-25T16:31:54.079Z</time></trkpt><trkpt lat="44.6533673" lon="8.0449656"><ele>271.0</ele><time>2026-04-25T16:31:55.078Z</time></trkpt><trkpt lat="44.6534211" lon="8.0450753"><ele>271.0</ele><time>2026-04-25T16:31:56.078Z</time></trkpt><trkpt lat="44.6534802" lon="8.0451929"><ele>268.40000000000003</ele><time>2026-04-25T16:31:57.079Z</time></trkpt><trkpt lat="44.6535323" lon="8.0453135"><ele>265.8</ele><time>2026-04-25T16:31:58.078Z</time></trkpt><trkpt lat="44.6535932" lon="8.0454287"><ele>263.20000000000005</ele><time>2026-04-25T16:31:59.079Z</time></trkpt><trkpt lat="44.6536519" lon="8.0455609"><ele>260.6</ele><time>2026-04-25T16:32:00.078Z</time></trkpt><trkpt lat="44.6537066" lon="8.0456727"><ele>258.0</ele><time>2026-04-25T16:32:01.079Z</time></trkpt><trkpt lat="44.653755" lon="8.0457832"><ele>253.60000000000002</ele><time>2026-04-25T16:32:02.079Z</time></trkpt><trkpt lat="44.6537769" lon="8.0458987"><ele>249.20000000000002</ele><time>2026-04-25T16:32:04.079Z</time></trkpt><trkpt lat="44.6537638" lon="8.045987"><ele>244.8</ele><time>2026-04-25T16:32:05.079Z</time></trkpt><trkpt lat="44.6536941" lon="8.0461394"><ele>240.4</ele><time>2026-04-25T16:32:07.079Z</time></trkpt><trkpt lat="44.6536381" lon="8.0462227"><ele>236.0</ele><time>2026-04-25T16:32:08.079Z</time></trkpt><trkpt lat="44.6535281" lon="8.0463106"><ele>236.0</ele><time>2026-04-25T16:32:09.079Z</time></trkpt><trkpt lat="44.6534636" lon="8.0464084"><ele>236.00000000000003</ele><time>2026-04-25T16:32:10.078Z</time></trkpt><trkpt lat="44.6534198" lon="8.0465225"><ele>236.00000000000003</ele><time>2026-04-25T16:32:11.079Z</time></trkpt><trkpt lat="44.6533679" lon="8.0466239"><ele>236.0</ele><time>2026-04-25T16:32:12.079Z</time></trkpt><trkpt lat="44.6533096" lon="8.0467543"><ele>236.0</ele><time>2026-04-25T16:32:13.079Z</time></trkpt><trkpt lat="44.6532292" lon="8.0468166"><ele>235.66666666666669</ele><time>2026-04-25T16:32:14.079Z</time></trkpt><trkpt lat="44.6531723" lon="8.0468812"><ele>235.33333333333334</ele><time>2026-04-25T16:32:15.079Z</time></trkpt><trkpt lat="44.6531302" lon="8.0469582"><ele>235.0</ele><time>2026-04-25T16:32:16.078Z</time></trkpt><trkpt lat="44.6530532" lon="8.0470629"><ele>234.66666666666669</ele><time>2026-04-25T16:32:18.079Z</time></trkpt><trkpt lat="44.6530047" lon="8.0471595"><ele>234.33333333333334</ele><time>2026-04-25T16:32:22.078Z</time></trkpt><trkpt lat="44.6530243" lon="8.0472588"><ele>234.0</ele><time>2026-04-25T16:32:27.079Z</time></trkpt><trkpt lat="44.6530654" lon="8.0473642"><ele>234.0</ele><time>2026-04-25T16:32:29.078Z</time></trkpt><trkpt lat="44.6531215" lon="8.0474478"><ele>234.0</ele><time>2026-04-25T16:32:30.078Z</time></trkpt><trkpt lat="44.6531708" lon="8.0475501"><ele>234.0</ele><time>2026-04-25T16:32:31.078Z</time></trkpt><trkpt lat="44.6532143" lon="8.0476432"><ele>234.0</ele><time>2026-04-25T16:32:32.078Z</time></trkpt><trkpt lat="44.6532642" lon="8.0477323"><ele>234.0</ele><time>2026-04-25T16:32:33.079Z</time></trkpt><trkpt lat="44.6533207" lon="8.0478268"><ele>234.0</ele><time>2026-04-25T16:32:34.078Z</time></trkpt><trkpt lat="44.6533719" lon="8.0479303"><ele>233.66666666666666</ele><time>2026-04-25T16:32:35.078Z</time></trkpt><trkpt lat="44.653419" lon="8.0480382"><ele>233.33333333333331</ele><time>2026-04-25T16:32:36.078Z</time></trkpt><trkpt lat="44.6534672" lon="8.0481374"><ele>233.0</ele><time>2026-04-25T16:32:37.079Z</time></trkpt><trkpt lat="44.653515" lon="8.048236"><ele>232.66666666666666</ele><time>2026-04-25T16:32:38.079Z</time></trkpt><trkpt lat="44.6535587" lon="8.0483115"><ele>232.33333333333331</ele><time>2026-04-25T16:32:39.078Z</time></trkpt><trkpt lat="44.6535947" lon="8.0483895"><ele>232.0</ele><time>2026-04-25T16:32:40.079Z</time></trkpt><trkpt lat="44.6536517" lon="8.04851"><ele>231.83333333333331</ele><time>2026-04-25T16:32:42.078Z</time></trkpt><trkpt lat="44.6536835" lon="8.0486337"><ele>231.66666666666666</ele><time>2026-04-25T16:32:44.079Z</time></trkpt><trkpt lat="44.6537321" lon="8.0487207"><ele>231.5</ele><time>2026-04-25T16:32:46.078Z</time></trkpt><trkpt lat="44.6537804" lon="8.0487952"><ele>231.33333333333331</ele><time>2026-04-25T16:32:48.079Z</time></trkpt><trkpt lat="44.6538316" lon="8.0488979"><ele>231.16666666666666</ele><time>2026-04-25T16:32:50.079Z</time></trkpt><trkpt lat="44.6538546" lon="8.0489845"><ele>231.0</ele><time>2026-04-25T16:32:52.079Z</time></trkpt><trkpt lat="44.6538597" lon="8.0490892"><ele>231.4</ele><time>2026-04-25T16:32:55.079Z</time></trkpt><trkpt lat="44.653832" lon="8.0491843"><ele>231.8</ele><time>2026-04-25T16:32:57.079Z</time></trkpt><trkpt lat="44.6537634" lon="8.0493542"><ele>232.20000000000002</ele><time>2026-04-25T16:32:59.078Z</time></trkpt><trkpt lat="44.6537125" lon="8.049419"><ele>232.60000000000002</ele><time>2026-04-25T16:33:00.079Z</time></trkpt><trkpt lat="44.6536405" lon="8.0494968"><ele>233.0</ele><time>2026-04-25T16:33:01.078Z</time></trkpt><trkpt lat="44.6535804" lon="8.0495855"><ele>233.0</ele><time>2026-04-25T16:33:02.079Z</time></trkpt><trkpt lat="44.6535119" lon="8.0496689"><ele>233.0</ele><time>2026-04-25T16:33:03.079Z</time></trkpt><trkpt lat="44.653447" lon="8.0497565"><ele>233.0</ele><time>2026-04-25T16:33:04.078Z</time></trkpt><trkpt lat="44.6533825" lon="8.0498515"><ele>233.0</ele><time>2026-04-25T16:33:05.079Z</time></trkpt><trkpt lat="44.6533053" lon="8.0499612"><ele>233.0</ele><time>2026-04-25T16:33:06.079Z</time></trkpt><trkpt lat="44.6532302" lon="8.0500714"><ele>233.50000000000003</ele><time>2026-04-25T16:33:07.079Z</time></trkpt><trkpt lat="44.6531685" lon="8.0501642"><ele>234.0</ele><time>2026-04-25T16:33:08.079Z</time></trkpt><trkpt lat="44.6531117" lon="8.0502355"><ele>234.5</ele><time>2026-04-25T16:33:09.079Z</time></trkpt><trkpt lat="44.6530463" lon="8.0502756"><ele>235.0</ele><time>2026-04-25T16:33:10.079Z</time></trkpt><trkpt lat="44.6529805" lon="8.0503237"><ele>235.50000000000003</ele><time>2026-04-25T16:33:11.079Z</time></trkpt><trkpt lat="44.6529718" lon="8.0504451"><ele>236.0</ele><time>2026-04-25T16:33:13.079Z</time></trkpt><trkpt lat="44.6530128" lon="8.0505966"><ele>236.00000000000003</ele><time>2026-04-25T16:33:15.079Z</time></trkpt><trkpt lat="44.6530717" lon="8.050709"><ele>236.0</ele><time>2026-04-25T16:33:17.079Z</time></trkpt><trkpt lat="44.6531654" lon="8.0507382"><ele>236.0</ele><time>2026-04-25T16:33:18.079Z</time></trkpt><trkpt lat="44.6532326" lon="8.0507322"><ele>236.0</ele><time>2026-04-25T16:33:19.078Z</time></trkpt><trkpt lat="44.6533109" lon="8.0507252"><ele>236.00000000000003</ele><time>2026-04-25T16:33:20.078Z</time></trkpt><trkpt lat="44.6533959" lon="8.0507027"><ele>236.0</ele><time>2026-04-25T16:33:21.079Z</time></trkpt><trkpt lat="44.653478" lon="8.050709"><ele>236.0</ele><time>2026-04-25T16:33:22.079Z</time></trkpt><trkpt lat="44.6535718" lon="8.0507158"><ele>236.00000000000003</ele><time>2026-04-25T16:33:23.079Z</time></trkpt><trkpt lat="44.6536716" lon="8.0507275"><ele>236.00000000000003</ele><time>2026-04-25T16:33:24.079Z</time></trkpt><trkpt lat="44.6538037" lon="8.0507008"><ele>236.0</ele><time>2026-04-25T16:33:25.079Z</time></trkpt><trkpt lat="44.6539231" lon="8.0507015"><ele>236.0</ele><time>2026-04-25T16:33:26.079Z</time></trkpt><trkpt lat="44.6540597" lon="8.0506915"><ele>236.75</ele><time>2026-04-25T16:33:27.079Z</time></trkpt><trkpt lat="44.6541821" lon="8.0506956"><ele>237.5</ele><time>2026-04-25T16:33:28.079Z</time></trkpt><trkpt lat="44.6543049" lon="8.0506865"><ele>238.25</ele><time>2026-04-25T16:33:29.079Z</time></trkpt><trkpt lat="44.6544505" lon="8.050683"><ele>239.0</ele><time>2026-04-25T16:33:30.079Z</time></trkpt><trkpt lat="44.6545688" lon="8.0506757"><ele>242.25</ele><time>2026-04-25T16:33:31.079Z</time></trkpt><trkpt lat="44.6546865" lon="8.0506825"><ele>245.5</ele><time>2026-04-25T16:33:32.079Z</time></trkpt><trkpt lat="44.6548026" lon="8.0506495"><ele>248.75</ele><time>2026-04-25T16:33:33.079Z</time></trkpt><trkpt lat="44.6548993" lon="8.0505762"><ele>252.0</ele><time>2026-04-25T16:33:34.078Z</time></trkpt><trkpt lat="44.655017" lon="8.050489"><ele>252.0</ele><time>2026-04-25T16:33:35.079Z</time></trkpt><trkpt lat="44.6551154" lon="8.0504267"><ele>252.0</ele><time>2026-04-25T16:33:36.079Z</time></trkpt><trkpt lat="44.6552132" lon="8.0503893"><ele>252.0</ele><time>2026-04-25T16:33:37.078Z</time></trkpt><trkpt lat="44.6553221" lon="8.0503489"><ele>252.0</ele><time>2026-04-25T16:33:38.079Z</time></trkpt><trkpt lat="44.655434" lon="8.0503195"><ele>252.0</ele><time>2026-04-25T16:33:39.078Z</time></trkpt><trkpt lat="44.6555471" lon="8.050287"><ele>254.66666666666666</ele><time>2026-04-25T16:33:40.079Z</time></trkpt><trkpt lat="44.65566" lon="8.0502499"><ele>257.3333333333333</ele><time>2026-04-25T16:33:41.079Z</time></trkpt><trkpt lat="44.65575" lon="8.0502238"><ele>260.0</ele><time>2026-04-25T16:33:42.079Z</time></trkpt><trkpt lat="44.6558299" lon="8.050206"><ele>262.66666666666663</ele><time>2026-04-25T16:33:43.079Z</time></trkpt><trkpt lat="44.6558932" lon="8.0501902"><ele>265.3333333333333</ele><time>2026-04-25T16:33:44.079Z</time></trkpt><trkpt lat="44.6559596" lon="8.0501902"><ele>268.0</ele><time>2026-04-25T16:33:45.079Z</time></trkpt><trkpt lat="44.6560368" lon="8.0502242"><ele>268.0</ele><time>2026-04-25T16:33:46.078Z</time></trkpt><trkpt lat="44.6561043" lon="8.0502306"><ele>268.0</ele><time>2026-04-25T16:33:47.078Z</time></trkpt><trkpt lat="44.6561913" lon="8.0502329"><ele>268.0</ele><time>2026-04-25T16:33:48.079Z</time></trkpt><trkpt lat="44.6562653" lon="8.0502726"><ele>268.0</ele><time>2026-04-25T16:33:49.079Z</time></trkpt><trkpt lat="44.6563486" lon="8.0502894"><ele>268.0</ele><time>2026-04-25T16:33:50.079Z</time></trkpt><trkpt lat="44.6564265" lon="8.0503213"><ele>268.0</ele><time>2026-04-25T16:33:51.078Z</time></trkpt><trkpt lat="44.6564892" lon="8.0503375"><ele>270.2</ele><time>2026-04-25T16:33:52.078Z</time></trkpt><trkpt lat="44.6565765" lon="8.050391"><ele>272.4</ele><time>2026-04-25T16:33:54.079Z</time></trkpt><trkpt lat="44.6566444" lon="8.0505042"><ele>274.59999999999997</ele><time>2026-04-25T16:33:56.079Z</time></trkpt><trkpt lat="44.6566129" lon="8.0506501"><ele>276.8</ele><time>2026-04-25T16:33:57.079Z</time></trkpt><trkpt lat="44.6565816" lon="8.0507579"><ele>279.0</ele><time>2026-04-25T16:33:58.079Z</time></trkpt><trkpt lat="44.6565423" lon="8.0509039"><ele>281.8</ele><time>2026-04-25T16:33:59.079Z</time></trkpt><trkpt lat="44.6565242" lon="8.0510317"><ele>284.59999999999997</ele><time>2026-04-25T16:34:00.078Z</time></trkpt><trkpt lat="44.65647" lon="8.0511524"><ele>287.4</ele><time>2026-04-25T16:34:01.079Z</time></trkpt><trkpt lat="44.6564265" lon="8.0512765"><ele>290.2</ele><time>2026-04-25T16:34:02.079Z</time></trkpt><trkpt lat="44.6563572" lon="8.0513748"><ele>293.0</ele><time>2026-04-25T16:34:03.079Z</time></trkpt><trkpt lat="44.6562771" lon="8.0514694"><ele>293.0</ele><time>2026-04-25T16:34:04.079Z</time></trkpt><trkpt lat="44.6561995" lon="8.0515412"><ele>293.0</ele><time>2026-04-25T16:34:05.079Z</time></trkpt><trkpt lat="44.6561296" lon="8.0516045"><ele>293.0</ele><time>2026-04-25T16:34:06.079Z</time></trkpt><trkpt lat="44.6560339" lon="8.0516869"><ele>293.0</ele><time>2026-04-25T16:34:07.079Z</time></trkpt><trkpt lat="44.6559447" lon="8.0517516"><ele>293.0</ele><time>2026-04-25T16:34:08.078Z</time></trkpt><trkpt lat="44.6558715" lon="8.0518165"><ele>294.5</ele><time>2026-04-25T16:34:09.079Z</time></trkpt><trkpt lat="44.6558096" lon="8.0518738"><ele>296.0</ele><time>2026-04-25T16:34:10.078Z</time></trkpt><trkpt lat="44.6557431" lon="8.0519379"><ele>297.5</ele><time>2026-04-25T16:34:11.078Z</time></trkpt><trkpt lat="44.6556856" lon="8.0520003"><ele>299.0</ele><time>2026-04-25T16:34:13.078Z</time></trkpt><trkpt lat="44.6556227" lon="8.0519819"><ele>300.5</ele><time>2026-04-25T16:34:16.079Z</time></trkpt><trkpt lat="44.6555392" lon="8.0520159"><ele>302.0</ele><time>2026-04-25T16:35:26.079Z</time></trkpt><trkpt lat="44.6554594" lon="8.05207"><ele>302.0</ele><time>2026-04-25T16:35:28.079Z</time></trkpt><trkpt lat="44.6553841" lon="8.0521406"><ele>302.0</ele><time>2026-04-25T16:35:29.079Z</time></trkpt><trkpt lat="44.6553133" lon="8.0521946"><ele>302.0</ele><time>2026-04-25T16:35:30.079Z</time></trkpt><trkpt lat="44.6552388" lon="8.0522475"><ele>302.0</ele><time>2026-04-25T16:35:31.079Z</time></trkpt><trkpt lat="44.6551613" lon="8.0523152"><ele>302.0</ele><time>2026-04-25T16:35:32.079Z</time></trkpt><trkpt lat="44.655087" lon="8.0523774"><ele>302.0</ele><time>2026-04-25T16:35:33.079Z</time></trkpt><trkpt lat="44.6550143" lon="8.0524355"><ele>303.1666666666667</ele><time>2026-04-25T16:35:34.079Z</time></trkpt><trkpt lat="44.654943" lon="8.0524961"><ele>304.33333333333337</ele><time>2026-04-25T16:35:35.079Z</time></trkpt><trkpt lat="44.6548585" lon="8.052564"><ele>305.5</ele><time>2026-04-25T16:35:36.079Z</time></trkpt><trkpt lat="44.6547872" lon="8.0526315"><ele>306.6666666666667</ele><time>2026-04-25T16:35:37.079Z</time></trkpt><trkpt lat="44.6547103" lon="8.0527012"><ele>307.8333333333333</ele><time>2026-04-25T16:35:38.078Z</time></trkpt><trkpt lat="44.6546393" lon="8.0527743"><ele>309.0</ele><time>2026-04-25T16:35:39.079Z</time></trkpt><trkpt lat="44.6545899" lon="8.0528755"><ele>309.0</ele><time>2026-04-25T16:35:40.078Z</time></trkpt><trkpt lat="44.6545404" lon="8.0529849"><ele>309.0</ele><time>2026-04-25T16:35:41.079Z</time></trkpt><trkpt lat="44.6545026" lon="8.0531005"><ele>309.0</ele><time>2026-04-25T16:35:42.079Z</time></trkpt><trkpt lat="44.6544615" lon="8.053214"><ele>309.0</ele><time>2026-04-25T16:35:43.079Z</time></trkpt><trkpt lat="44.6544194" lon="8.0533273"><ele>309.0</ele><time>2026-04-25T16:35:44.079Z</time></trkpt><trkpt lat="44.6543887" lon="8.053464"><ele>310.1666666666667</ele><time>2026-04-25T16:35:45.078Z</time></trkpt><trkpt lat="44.6543604" lon="8.0535971"><ele>311.3333333333333</ele><time>2026-04-25T16:35:46.079Z</time></trkpt><trkpt lat="44.6543295" lon="8.0537098"><ele>312.5</ele><time>2026-04-25T16:35:47.078Z</time></trkpt><trkpt lat="44.6543033" lon="8.0538173"><ele>313.66666666666663</ele><time>2026-04-25T16:35:48.078Z</time></trkpt><trkpt lat="44.6542725" lon="8.0538995"><ele>314.8333333333333</ele><time>2026-04-25T16:35:49.079Z</time></trkpt><trkpt lat="44.654202" lon="8.0540206"><ele>316.0</ele><time>2026-04-25T16:35:51.079Z</time></trkpt><trkpt lat="44.6541385" lon="8.0540491"><ele>316.0</ele><time>2026-04-25T16:35:52.079Z</time></trkpt><trkpt lat="44.6540583" lon="8.0540595"><ele>316.0</ele><time>2026-04-25T16:35:53.079Z</time></trkpt><trkpt lat="44.6539731" lon="8.0540642"><ele>316.0</ele><time>2026-04-25T16:35:54.079Z</time></trkpt><trkpt lat="44.6538323" lon="8.0540896"><ele>316.0</ele><time>2026-04-25T16:35:55.079Z</time></trkpt><trkpt lat="44.6537278" lon="8.0541112"><ele>316.0</ele><time>2026-04-25T16:35:56.078Z</time></trkpt><trkpt lat="44.653627" lon="8.0541437"><ele>317.4</ele><time>2026-04-25T16:35:57.079Z</time></trkpt><trkpt lat="44.6535357" lon="8.0542079"><ele>318.8</ele><time>2026-04-25T16:35:58.078Z</time></trkpt><trkpt lat="44.6534339" lon="8.0542692"><ele>320.2</ele><time>2026-04-25T16:35:59.079Z</time></trkpt><trkpt lat="44.6533371" lon="8.0543356"><ele>321.59999999999997</ele><time>2026-04-25T16:36:00.078Z</time></trkpt><trkpt lat="44.6532638" lon="8.0544063"><ele>323.0</ele><time>2026-04-25T16:36:01.079Z</time></trkpt><trkpt lat="44.6532094" lon="8.054482"><ele>323.0</ele><time>2026-04-25T16:36:02.079Z</time></trkpt><trkpt lat="44.6531415" lon="8.0545994"><ele>323.0</ele><time>2026-04-25T16:36:03.079Z</time></trkpt><trkpt lat="44.6530886" lon="8.0547043"><ele>323.0</ele><time>2026-04-25T16:36:04.079Z</time></trkpt><trkpt lat="44.6530277" lon="8.0548347"><ele>323.0</ele><time>2026-04-25T16:36:06.078Z</time></trkpt><trkpt lat="44.6530538" lon="8.0549998"><ele>323.0</ele><time>2026-04-25T16:36:08.078Z</time></trkpt><trkpt lat="44.6531356" lon="8.0551223"><ele>326.4</ele><time>2026-04-25T16:36:10.079Z</time></trkpt><trkpt lat="44.6532224" lon="8.0551939"><ele>329.79999999999995</ele><time>2026-04-25T16:36:11.079Z</time></trkpt><trkpt lat="44.6533013" lon="8.0552594"><ele>333.2</ele><time>2026-04-25T16:36:12.078Z</time></trkpt><trkpt lat="44.6533847" lon="8.0553151"><ele>336.6</ele><time>2026-04-25T16:36:13.079Z</time></trkpt><trkpt lat="44.6534666" lon="8.055376"><ele>340.0</ele><time>2026-04-25T16:36:14.079Z</time></trkpt><trkpt lat="44.6535513" lon="8.0554415"><ele>341.5</ele><time>2026-04-25T16:36:15.079Z</time></trkpt><trkpt lat="44.6536311" lon="8.0554963"><ele>343.0</ele><time>2026-04-25T16:36:16.079Z</time></trkpt><trkpt lat="44.6537111" lon="8.0555569"><ele>344.5</ele><time>2026-04-25T16:36:17.079Z</time></trkpt><trkpt lat="44.6537858" lon="8.0556084"><ele>346.0</ele><time>2026-04-25T16:36:18.079Z</time></trkpt><trkpt lat="44.6538423" lon="8.0556653"><ele>347.5</ele><time>2026-04-25T16:36:19.078Z</time></trkpt><trkpt lat="44.6539194" lon="8.0557527"><ele>349.0</ele><time>2026-04-25T16:36:21.078Z</time></trkpt><trkpt lat="44.6539238" lon="8.0558411"><ele>348.99999999999994</ele><time>2026-04-25T16:36:24.079Z</time></trkpt><trkpt lat="44.653999" lon="8.0558473"><ele>349.0</ele><time>2026-04-25T16:36:28.079Z</time></trkpt><trkpt lat="44.6539877" lon="8.0557493"><ele>349.0</ele><time>2026-04-25T16:36:31.079Z</time></trkpt><trkpt lat="44.6539411" lon="8.0556887"><ele>349.0</ele><time>2026-04-25T16:36:33.079Z</time></trkpt><trkpt lat="44.6538711" lon="8.0556296"><ele>349.0</ele><time>2026-04-25T16:36:35.079Z</time></trkpt><trkpt lat="44.6537997" lon="8.0555805"><ele>348.99999999999994</ele><time>2026-04-25T16:36:37.079Z</time></trkpt><trkpt lat="44.6537322" lon="8.0555267"><ele>349.0</ele><time>2026-04-25T16:36:40.079Z</time></trkpt><trkpt lat="44.653641" lon="8.0554892"><ele>347.5</ele><time>2026-04-25T16:37:31.079Z</time></trkpt><trkpt lat="44.6535507" lon="8.055405"><ele>346.0</ele><time>2026-04-25T16:37:33.079Z</time></trkpt><trkpt lat="44.6534454" lon="8.0553236"><ele>344.5</ele><time>2026-04-25T16:37:35.079Z</time></trkpt><trkpt lat="44.6533881" lon="8.0552822"><ele>343.0</ele><time>2026-04-25T16:37:36.079Z</time></trkpt><trkpt lat="44.6533288" lon="8.0552318"><ele>341.5</ele><time>2026-04-25T16:37:37.079Z</time></trkpt><trkpt lat="44.6532618" lon="8.0551868"><ele>340.0</ele><time>2026-04-25T16:37:38.078Z</time></trkpt><trkpt lat="44.6531619" lon="8.0551064"><ele>340.0</ele><time>2026-04-25T16:37:40.079Z</time></trkpt><trkpt lat="44.6530828" lon="8.055035"><ele>340.0</ele><time>2026-04-25T16:37:42.079Z</time></trkpt><trkpt lat="44.6530313" lon="8.0549496"><ele>340.0</ele><time>2026-04-25T16:37:44.079Z</time></trkpt><trkpt lat="44.6530353" lon="8.0548308"><ele>340.0</ele><time>2026-04-25T16:37:46.078Z</time></trkpt><trkpt lat="44.6530519" lon="8.0547128"><ele>340.0</ele><time>2026-04-25T16:37:48.079Z</time></trkpt><trkpt lat="44.6530953" lon="8.0546156"><ele>340.0</ele><time>2026-04-25T16:37:50.079Z</time></trkpt><trkpt lat="44.6531589" lon="8.0545247"><ele>336.6</ele><time>2026-04-25T16:37:52.078Z</time></trkpt><trkpt lat="44.6532541" lon="8.0544103"><ele>333.2</ele><time>2026-04-25T16:37:54.078Z</time></trkpt><trkpt lat="44.6533385" lon="8.0543439"><ele>329.79999999999995</ele><time>2026-04-25T16:37:56.078Z</time></trkpt><trkpt lat="44.6534095" lon="8.0543065"><ele>326.4</ele><time>2026-04-25T16:37:57.079Z</time></trkpt><trkpt lat="44.6535147" lon="8.0542314"><ele>323.0</ele><time>2026-04-25T16:37:59.079Z</time></trkpt><trkpt lat="44.6535835" lon="8.0541691"><ele>321.59999999999997</ele><time>2026-04-25T16:38:00.079Z</time></trkpt><trkpt lat="44.6536838" lon="8.0541259"><ele>320.2</ele><time>2026-04-25T16:38:02.078Z</time></trkpt><trkpt lat="44.6537759" lon="8.0540956"><ele>318.8</ele><time>2026-04-25T16:38:04.078Z</time></trkpt><trkpt lat="44.6538678" lon="8.0540848"><ele>317.4</ele><time>2026-04-25T16:38:06.079Z</time></trkpt><trkpt lat="44.6539821" lon="8.0540634"><ele>316.0</ele><time>2026-04-25T16:38:08.079Z</time></trkpt><trkpt lat="44.6540444" lon="8.0540492"><ele>316.0</ele><time>2026-04-25T16:38:09.079Z</time></trkpt><trkpt lat="44.654156" lon="8.0540172"><ele>316.0</ele><time>2026-04-25T16:38:11.079Z</time></trkpt><trkpt lat="44.6542178" lon="8.0539895"><ele>316.0</ele><time>2026-04-25T16:38:12.078Z</time></trkpt><trkpt lat="44.654273" lon="8.0539399"><ele>316.0</ele><time>2026-04-25T16:38:13.079Z</time></trkpt><trkpt lat="44.6543168" lon="8.0537955"><ele>316.0</ele><time>2026-04-25T16:38:15.078Z</time></trkpt><trkpt lat="44.654377" lon="8.0536361"><ele>316.0</ele><time>2026-04-25T16:38:17.079Z</time></trkpt><trkpt lat="44.6544013" lon="8.0535332"><ele>316.0</ele><time>2026-04-25T16:38:18.079Z</time></trkpt><trkpt lat="44.6544368" lon="8.0534408"><ele>316.0</ele><time>2026-04-25T16:38:19.079Z</time></trkpt><trkpt lat="44.6544626" lon="8.0533206"><ele>316.0</ele><time>2026-04-25T16:38:20.078Z</time></trkpt><trkpt lat="44.6544873" lon="8.0532019"><ele>316.0</ele><time>2026-04-25T16:38:21.078Z</time></trkpt><trkpt lat="44.6545265" lon="8.0530952"><ele>316.0</ele><time>2026-04-25T16:38:22.078Z</time></trkpt><trkpt lat="44.6545523" lon="8.0529894"><ele>314.6</ele><time>2026-04-25T16:38:23.079Z</time></trkpt><trkpt lat="44.6546023" lon="8.0528765"><ele>313.20000000000005</ele><time>2026-04-25T16:38:24.079Z</time></trkpt><trkpt lat="44.6546629" lon="8.0527836"><ele>311.79999999999995</ele><time>2026-04-25T16:38:25.079Z</time></trkpt><trkpt lat="44.6547209" lon="8.0526988"><ele>310.4</ele><time>2026-04-25T16:38:26.078Z</time></trkpt><trkpt lat="44.654798" lon="8.0526327"><ele>309.0</ele><time>2026-04-25T16:38:27.079Z</time></trkpt><trkpt lat="44.6548819" lon="8.0525602"><ele>309.0</ele><time>2026-04-25T16:38:28.079Z</time></trkpt><trkpt lat="44.6549715" lon="8.0524868"><ele>309.0</ele><time>2026-04-25T16:38:29.079Z</time></trkpt><trkpt lat="44.6550655" lon="8.0524233"><ele>309.0</ele><time>2026-04-25T16:38:30.078Z</time></trkpt><trkpt lat="44.6551541" lon="8.0523512"><ele>309.0</ele><time>2026-04-25T16:38:31.079Z</time></trkpt><trkpt lat="44.6552456" lon="8.0522689"><ele>309.0</ele><time>2026-04-25T16:38:32.079Z</time></trkpt><trkpt lat="44.6553416" lon="8.0521808"><ele>307.59999999999997</ele><time>2026-04-25T16:38:33.079Z</time></trkpt><trkpt lat="44.6554424" lon="8.0521071"><ele>306.2</ele><time>2026-04-25T16:38:34.079Z</time></trkpt><trkpt lat="44.6555312" lon="8.0520284"><ele>304.79999999999995</ele><time>2026-04-25T16:38:35.079Z</time></trkpt><trkpt lat="44.6556304" lon="8.0519534"><ele>303.4</ele><time>2026-04-25T16:38:36.079Z</time></trkpt><trkpt lat="44.655728" lon="8.0518761"><ele>302.0</ele><time>2026-04-25T16:38:37.078Z</time></trkpt><trkpt lat="44.6558227" lon="8.0518018"><ele>302.0</ele><time>2026-04-25T16:38:38.079Z</time></trkpt><trkpt lat="44.6559256" lon="8.0517222"><ele>302.0</ele><time>2026-04-25T16:38:39.079Z</time></trkpt><trkpt lat="44.6560297" lon="8.0516345"><ele>302.0</ele><time>2026-04-25T16:38:40.079Z</time></trkpt><trkpt lat="44.65612" lon="8.0515541"><ele>302.0</ele><time>2026-04-25T16:38:41.079Z</time></trkpt><trkpt lat="44.6562115" lon="8.0514713"><ele>300.2</ele><time>2026-04-25T16:38:42.079Z</time></trkpt><trkpt lat="44.6562859" lon="8.0514089"><ele>298.4</ele><time>2026-04-25T16:38:43.079Z</time></trkpt><trkpt lat="44.656367" lon="8.0513182"><ele>296.6</ele><time>2026-04-25T16:38:44.079Z</time></trkpt><trkpt lat="44.6564308" lon="8.0512223"><ele>294.8</ele><time>2026-04-25T16:38:45.079Z</time></trkpt><trkpt lat="44.6564801" lon="8.0511114"><ele>293.0</ele><time>2026-04-25T16:38:46.078Z</time></trkpt><trkpt lat="44.6565358" lon="8.0510145"><ele>293.0</ele><time>2026-04-25T16:38:47.078Z</time></trkpt><trkpt lat="44.6565608" lon="8.0509072"><ele>293.0</ele><time>2026-04-25T16:38:48.079Z</time></trkpt><trkpt lat="44.6565874" lon="8.0507892"><ele>293.0</ele><time>2026-04-25T16:38:49.079Z</time></trkpt><trkpt lat="44.6566171" lon="8.0506857"><ele>293.0</ele><time>2026-04-25T16:38:50.078Z</time></trkpt><trkpt lat="44.65664" lon="8.0505731"><ele>293.0</ele><time>2026-04-25T16:38:52.079Z</time></trkpt><trkpt lat="44.6566521" lon="8.0504822"><ele>293.0</ele><time>2026-04-25T16:39:02.079Z</time></trkpt><trkpt lat="44.6566002" lon="8.0503939"><ele>290.6666666666667</ele><time>2026-04-25T16:39:05.079Z</time></trkpt><trkpt lat="44.6565036" lon="8.0503223"><ele>288.33333333333337</ele><time>2026-04-25T16:39:07.079Z</time></trkpt><trkpt lat="44.6564016" lon="8.0502482"><ele>286.0</ele><time>2026-04-25T16:39:09.078Z</time></trkpt><trkpt lat="44.6563321" lon="8.0502266"><ele>283.6666666666667</ele><time>2026-04-25T16:39:10.078Z</time></trkpt><trkpt lat="44.6562565" lon="8.0502042"><ele>281.3333333333333</ele><time>2026-04-25T16:39:11.079Z</time></trkpt><trkpt lat="44.6561883" lon="8.0501937"><ele>279.0</ele><time>2026-04-25T16:39:12.079Z</time></trkpt><trkpt lat="44.6561177" lon="8.0501651"><ele>276.8</ele><time>2026-04-25T16:39:13.078Z</time></trkpt><trkpt lat="44.6560419" lon="8.0501449"><ele>274.59999999999997</ele><time>2026-04-25T16:39:14.078Z</time></trkpt><trkpt lat="44.6559711" lon="8.0501494"><ele>272.4</ele><time>2026-04-25T16:39:15.079Z</time></trkpt><trkpt lat="44.6558668" lon="8.0501742"><ele>270.2</ele><time>2026-04-25T16:39:16.079Z</time></trkpt><trkpt lat="44.6557687" lon="8.0501965"><ele>268.0</ele><time>2026-04-25T16:39:17.079Z</time></trkpt><trkpt lat="44.6556415" lon="8.0502395"><ele>268.0</ele><time>2026-04-25T16:39:18.079Z</time></trkpt><trkpt lat="44.6555195" lon="8.0502478"><ele>268.0</ele><time>2026-04-25T16:39:19.078Z</time></trkpt><trkpt lat="44.6554188" lon="8.0502603"><ele>268.0</ele><time>2026-04-25T16:39:20.079Z</time></trkpt><trkpt lat="44.6553081" lon="8.0502846"><ele>268.0</ele><time>2026-04-25T16:39:21.079Z</time></trkpt><trkpt lat="44.6552078" lon="8.0503129"><ele>268.0</ele><time>2026-04-25T16:39:22.078Z</time></trkpt><trkpt lat="44.6550801" lon="8.0503689"><ele>264.8</ele><time>2026-04-25T16:39:23.079Z</time></trkpt><trkpt lat="44.6549874" lon="8.0504214"><ele>261.6</ele><time>2026-04-25T16:39:24.078Z</time></trkpt><trkpt lat="44.6548932" lon="8.0504737"><ele>258.4</ele><time>2026-04-25T16:39:25.079Z</time></trkpt><trkpt lat="44.6547938" lon="8.0505278"><ele>255.2</ele><time>2026-04-25T16:39:26.079Z</time></trkpt><trkpt lat="44.6547002" lon="8.0505818"><ele>252.0</ele><time>2026-04-25T16:39:27.078Z</time></trkpt><trkpt lat="44.6545983" lon="8.05062"><ele>252.0</ele><time>2026-04-25T16:39:28.078Z</time></trkpt><trkpt lat="44.6544921" lon="8.0506639"><ele>252.0</ele><time>2026-04-25T16:39:29.079Z</time></trkpt><trkpt lat="44.6543943" lon="8.0506851"><ele>252.0</ele><time>2026-04-25T16:39:30.079Z</time></trkpt><trkpt lat="44.6542942" lon="8.0506947"><ele>252.0</ele><time>2026-04-25T16:39:31.079Z</time></trkpt><trkpt lat="44.6541852" lon="8.0506978"><ele>252.0</ele><time>2026-04-25T16:39:32.078Z</time></trkpt><trkpt lat="44.6540802" lon="8.0506884"><ele>249.39999999999998</ele><time>2026-04-25T16:39:33.078Z</time></trkpt><trkpt lat="44.6539656" lon="8.0506613"><ele>246.79999999999998</ele><time>2026-04-25T16:39:34.078Z</time></trkpt><trkpt lat="44.653855" lon="8.050646"><ele>244.2</ele><time>2026-04-25T16:39:35.079Z</time></trkpt><trkpt lat="44.6537588" lon="8.0506343"><ele>241.6</ele><time>2026-04-25T16:39:36.079Z</time></trkpt><trkpt lat="44.653666" lon="8.0506353"><ele>239.0</ele><time>2026-04-25T16:39:37.078Z</time></trkpt><trkpt lat="44.6535586" lon="8.0506488"><ele>238.39999999999998</ele><time>2026-04-25T16:39:38.079Z</time></trkpt><trkpt lat="44.6534731" lon="8.0506616"><ele>237.79999999999998</ele><time>2026-04-25T16:39:39.079Z</time></trkpt><trkpt lat="44.6533681" lon="8.0506794"><ele>237.20000000000002</ele><time>2026-04-25T16:39:40.079Z</time></trkpt><trkpt lat="44.6532744" lon="8.0506875"><ele>236.60000000000002</ele><time>2026-04-25T16:39:41.079Z</time></trkpt><trkpt lat="44.6531423" lon="8.0507112"><ele>236.0</ele><time>2026-04-25T16:39:43.079Z</time></trkpt><trkpt lat="44.6530686" lon="8.0506339"><ele>236.0</ele><time>2026-04-25T16:39:45.078Z</time></trkpt><trkpt lat="44.6530783" lon="8.0504981"><ele>236.00000000000003</ele><time>2026-04-25T16:39:47.079Z</time></trkpt><trkpt lat="44.65313" lon="8.0503318"><ele>236.00000000000003</ele><time>2026-04-25T16:39:49.079Z</time></trkpt><trkpt lat="44.6531906" lon="8.0502336"><ele>236.0</ele><time>2026-04-25T16:39:50.078Z</time></trkpt><trkpt lat="44.6532546" lon="8.0501324"><ele>236.0</ele><time>2026-04-25T16:39:51.079Z</time></trkpt><trkpt lat="44.6533229" lon="8.0500315"><ele>235.60000000000002</ele><time>2026-04-25T16:39:52.078Z</time></trkpt><trkpt lat="44.6533834" lon="8.0499297"><ele>235.20000000000002</ele><time>2026-04-25T16:39:53.079Z</time></trkpt><trkpt lat="44.653465" lon="8.0498025"><ele>234.79999999999998</ele><time>2026-04-25T16:39:54.079Z</time></trkpt><trkpt lat="44.6535449" lon="8.0496863"><ele>234.39999999999998</ele><time>2026-04-25T16:39:55.079Z</time></trkpt><trkpt lat="44.6536198" lon="8.049561"><ele>234.0</ele><time>2026-04-25T16:39:56.079Z</time></trkpt><trkpt lat="44.6536863" lon="8.0494468"><ele>234.0</ele><time>2026-04-25T16:39:57.079Z</time></trkpt><trkpt lat="44.6537678" lon="8.0493389"><ele>233.99999999999997</ele><time>2026-04-25T16:39:58.079Z</time></trkpt><trkpt lat="44.6538453" lon="8.0492336"><ele>233.99999999999997</ele><time>2026-04-25T16:39:59.079Z</time></trkpt><trkpt lat="44.6539198" lon="8.04913"><ele>234.0</ele><time>2026-04-25T16:40:00.079Z</time></trkpt><trkpt lat="44.6540047" lon="8.0490192"><ele>234.0</ele><time>2026-04-25T16:40:01.078Z</time></trkpt><trkpt lat="44.6540857" lon="8.0489381"><ele>233.39999999999998</ele><time>2026-04-25T16:40:02.078Z</time></trkpt><trkpt lat="44.6541642" lon="8.0488376"><ele>232.79999999999998</ele><time>2026-04-25T16:40:03.079Z</time></trkpt><trkpt lat="44.6542552" lon="8.0487536"><ele>232.20000000000002</ele><time>2026-04-25T16:40:04.078Z</time></trkpt><trkpt lat="44.6543496" lon="8.0486707"><ele>231.60000000000002</ele><time>2026-04-25T16:40:05.079Z</time></trkpt><trkpt lat="44.6544477" lon="8.0485925"><ele>231.0</ele><time>2026-04-25T16:40:06.078Z</time></trkpt><trkpt lat="44.6545508" lon="8.0485303"><ele>230.8</ele><time>2026-04-25T16:40:07.079Z</time></trkpt><trkpt lat="44.6546407" lon="8.0484597"><ele>230.60000000000002</ele><time>2026-04-25T16:40:08.079Z</time></trkpt><trkpt lat="44.6547431" lon="8.0484088"><ele>230.4</ele><time>2026-04-25T16:40:09.078Z</time></trkpt><trkpt lat="44.6548337" lon="8.0483785"><ele>230.2</ele><time>2026-04-25T16:40:10.078Z</time></trkpt><trkpt lat="44.6549229" lon="8.0483372"><ele>230.0</ele><time>2026-04-25T16:40:11.078Z</time></trkpt><trkpt lat="44.6550041" lon="8.0483168"><ele>229.25</ele><time>2026-04-25T16:40:12.079Z</time></trkpt><trkpt lat="44.655089" lon="8.0482656"><ele>228.5</ele><time>2026-04-25T16:40:13.078Z</time></trkpt><trkpt lat="44.6552095" lon="8.0482003"><ele>227.75</ele><time>2026-04-25T16:40:14.079Z</time></trkpt><trkpt lat="44.6553049" lon="8.048138"><ele>227.0</ele><time>2026-04-25T16:40:15.078Z</time></trkpt><trkpt lat="44.655428" lon="8.0480832"><ele>227.0</ele><time>2026-04-25T16:40:16.079Z</time></trkpt><trkpt lat="44.6555397" lon="8.0480218"><ele>227.0</ele><time>2026-04-25T16:40:17.078Z</time></trkpt><trkpt lat="44.6556458" lon="8.0479807"><ele>227.0</ele><time>2026-04-25T16:40:18.079Z</time></trkpt><trkpt lat="44.6557727" lon="8.0479314"><ele>227.0</ele><time>2026-04-25T16:40:19.078Z</time></trkpt><trkpt lat="44.6558815" lon="8.0478743"><ele>227.0</ele><time>2026-04-25T16:40:20.079Z</time></trkpt><trkpt lat="44.6560054" lon="8.0478175"><ele>227.0</ele><time>2026-04-25T16:40:21.079Z</time></trkpt><trkpt lat="44.6561345" lon="8.0477545"><ele>227.0</ele><time>2026-04-25T16:40:22.078Z</time></trkpt><trkpt lat="44.6562448" lon="8.0477056"><ele>227.0</ele><time>2026-04-25T16:40:23.078Z</time></trkpt><trkpt lat="44.656365" lon="8.0476553"><ele>227.25</ele><time>2026-04-25T16:40:24.079Z</time></trkpt><trkpt lat="44.6564935" lon="8.0476089"><ele>227.5</ele><time>2026-04-25T16:40:25.079Z</time></trkpt><trkpt lat="44.6566104" lon="8.0475499"><ele>227.75</ele><time>2026-04-25T16:40:26.078Z</time></trkpt><trkpt lat="44.6567391" lon="8.0474805"><ele>228.0</ele><time>2026-04-25T16:40:27.079Z</time></trkpt><trkpt lat="44.6568715" lon="8.0474526"><ele>227.25</ele><time>2026-04-25T16:40:28.078Z</time></trkpt><trkpt lat="44.6569842" lon="8.0473914"><ele>226.5</ele><time>2026-04-25T16:40:29.079Z</time></trkpt><trkpt lat="44.6570931" lon="8.0473352"><ele>225.75</ele><time>2026-04-25T16:40:30.079Z</time></trkpt><trkpt lat="44.6571974" lon="8.0472854"><ele>225.0</ele><time>2026-04-25T16:40:31.078Z</time></trkpt><trkpt lat="44.6573015" lon="8.0472346"><ele>225.0</ele><time>2026-04-25T16:40:32.078Z</time></trkpt><trkpt lat="44.6574118" lon="8.04719"><ele>225.0</ele><time>2026-04-25T16:40:33.079Z</time></trkpt><trkpt lat="44.6575207" lon="8.047145"><ele>225.0</ele><time>2026-04-25T16:40:34.079Z</time></trkpt><trkpt lat="44.6576275" lon="8.0470851"><ele>225.0</ele><time>2026-04-25T16:40:35.079Z</time></trkpt><trkpt lat="44.6577415" lon="8.0470341"><ele>225.25</ele><time>2026-04-25T16:40:36.079Z</time></trkpt><trkpt lat="44.6578546" lon="8.0469746"><ele>225.5</ele><time>2026-04-25T16:40:37.078Z</time></trkpt><trkpt lat="44.6579713" lon="8.0469308"><ele>225.75</ele><time>2026-04-25T16:40:38.078Z</time></trkpt><trkpt lat="44.6580861" lon="8.0468771"><ele>226.0</ele><time>2026-04-25T16:40:39.079Z</time></trkpt><trkpt lat="44.6581844" lon="8.0468276"><ele>225.99999999999997</ele><time>2026-04-25T16:40:40.078Z</time></trkpt><trkpt lat="44.6582608" lon="8.0467915"><ele>226.0</ele><time>2026-04-25T16:40:41.079Z</time></trkpt><trkpt lat="44.658329" lon="8.0467495"><ele>226.0</ele><time>2026-04-25T16:40:42.078Z</time></trkpt><trkpt lat="44.6583973" lon="8.0467259"><ele>226.0</ele><time>2026-04-25T16:40:44.079Z</time></trkpt><trkpt lat="44.6584944" lon="8.0466987"><ele>225.99999999999997</ele><time>2026-04-25T16:40:48.078Z</time></trkpt><trkpt lat="44.6585918" lon="8.0466635"><ele>226.0</ele><time>2026-04-25T16:40:50.079Z</time></trkpt><trkpt lat="44.6586723" lon="8.0466283"><ele>225.0</ele><time>2026-04-25T16:40:52.078Z</time></trkpt><trkpt lat="44.6587356" lon="8.0466273"><ele>224.00000000000003</ele><time>2026-04-25T16:40:54.079Z</time></trkpt><trkpt lat="44.6588193" lon="8.0465636"><ele>223.00000000000003</ele><time>2026-04-25T16:42:23.079Z</time></trkpt><trkpt lat="44.6589035" lon="8.0465197"><ele>222.0</ele><time>2026-04-25T16:42:24.079Z</time></trkpt><trkpt lat="44.6589798" lon="8.0464867"><ele>221.0</ele><time>2026-04-25T16:42:25.079Z</time></trkpt><trkpt lat="44.6591076" lon="8.0464175"><ele>221.0</ele><time>2026-04-25T16:42:26.078Z</time></trkpt><trkpt lat="44.6592074" lon="8.0463858"><ele>221.0</ele><time>2026-04-25T16:42:27.079Z</time></trkpt><trkpt lat="44.65933" lon="8.0463147"><ele>221.0</ele><time>2026-04-25T16:42:28.079Z</time></trkpt><trkpt lat="44.6594684" lon="8.046225"><ele>221.0</ele><time>2026-04-25T16:42:29.078Z</time></trkpt><trkpt lat="44.6596183" lon="8.0461568"><ele>221.0</ele><time>2026-04-25T16:42:30.079Z</time></trkpt><trkpt lat="44.6597641" lon="8.0460973"><ele>221.0</ele><time>2026-04-25T16:42:31.078Z</time></trkpt><trkpt lat="44.6598851" lon="8.0460247"><ele>221.0</ele><time>2026-04-25T16:42:32.079Z</time></trkpt><trkpt lat="44.6600243" lon="8.0459806"><ele>221.0</ele><time>2026-04-25T16:42:33.078Z</time></trkpt><trkpt lat="44.6601597" lon="8.0459353"><ele>220.75</ele><time>2026-04-25T16:42:34.078Z</time></trkpt><trkpt lat="44.6602857" lon="8.0458786"><ele>220.5</ele><time>2026-04-25T16:42:35.078Z</time></trkpt><trkpt lat="44.6603942" lon="8.0458392"><ele>220.25</ele><time>2026-04-25T16:42:36.079Z</time></trkpt><trkpt lat="44.6605233" lon="8.0457834"><ele>220.0</ele><time>2026-04-25T16:42:37.079Z</time></trkpt><trkpt lat="44.6606472" lon="8.0457192"><ele>219.25</ele><time>2026-04-25T16:42:38.079Z</time></trkpt><trkpt lat="44.6607719" lon="8.0456519"><ele>218.5</ele><time>2026-04-25T16:42:39.079Z</time></trkpt><trkpt lat="44.6609013" lon="8.0455858"><ele>217.75</ele><time>2026-04-25T16:42:40.079Z</time></trkpt><trkpt lat="44.661026" lon="8.0455212"><ele>217.0</ele><time>2026-04-25T16:42:41.079Z</time></trkpt><trkpt lat="44.6611853" lon="8.0454641"><ele>217.0</ele><time>2026-04-25T16:42:42.079Z</time></trkpt><trkpt lat="44.6613004" lon="8.0454109"><ele>217.0</ele><time>2026-04-25T16:42:43.078Z</time></trkpt><trkpt lat="44.661438" lon="8.0453357"><ele>217.0</ele><time>2026-04-25T16:42:44.079Z</time></trkpt><trkpt lat="44.661575" lon="8.0452856"><ele>217.0</ele><time>2026-04-25T16:42:45.079Z</time></trkpt><trkpt lat="44.6616961" lon="8.0452299"><ele>217.0</ele><time>2026-04-25T16:42:46.079Z</time></trkpt><trkpt lat="44.6618328" lon="8.0451862"><ele>217.0</ele><time>2026-04-25T16:42:47.079Z</time></trkpt><trkpt lat="44.6619809" lon="8.0451223"><ele>217.0</ele><time>2026-04-25T16:42:48.078Z</time></trkpt><trkpt lat="44.662124" lon="8.0450584"><ele>217.0</ele><time>2026-04-25T16:42:49.079Z</time></trkpt><trkpt lat="44.6622715" lon="8.0449923"><ele>216.25</ele><time>2026-04-25T16:42:50.078Z</time></trkpt><trkpt lat="44.6624075" lon="8.0449183"><ele>215.5</ele><time>2026-04-25T16:42:51.079Z</time></trkpt><trkpt lat="44.6625523" lon="8.0448523"><ele>214.75</ele><time>2026-04-25T16:42:52.079Z</time></trkpt><trkpt lat="44.6626869" lon="8.0447981"><ele>214.0</ele><time>2026-04-25T16:42:53.078Z</time></trkpt><trkpt lat="44.6628349" lon="8.0447242"><ele>213.0</ele><time>2026-04-25T16:42:54.079Z</time></trkpt><trkpt lat="44.6629967" lon="8.0446553"><ele>212.0</ele><time>2026-04-25T16:42:55.078Z</time></trkpt><trkpt lat="44.6631399" lon="8.0445784"><ele>211.0</ele><time>2026-04-25T16:42:56.079Z</time></trkpt><trkpt lat="44.6632936" lon="8.0445165"><ele>211.0</ele><time>2026-04-25T16:42:57.078Z</time></trkpt><trkpt lat="44.6634382" lon="8.0444664"><ele>211.0</ele><time>2026-04-25T16:42:58.079Z</time></trkpt><trkpt lat="44.6635913" lon="8.0444"><ele>211.0</ele><time>2026-04-25T16:42:59.078Z</time></trkpt><trkpt lat="44.663721" lon="8.0443377"><ele>211.0</ele><time>2026-04-25T16:43:00.078Z</time></trkpt><trkpt lat="44.6638627" lon="8.0442753"><ele>210.5</ele><time>2026-04-25T16:43:01.079Z</time></trkpt><trkpt lat="44.6639988" lon="8.0442195"><ele>210.0</ele><time>2026-04-25T16:43:02.079Z</time></trkpt><trkpt lat="44.6641147" lon="8.0441645"><ele>209.5</ele><time>2026-04-25T16:43:03.079Z</time></trkpt><trkpt lat="44.6642239" lon="8.0441002"><ele>209.0</ele><time>2026-04-25T16:43:04.078Z</time></trkpt><trkpt lat="44.6643196" lon="8.0440595"><ele>208.75</ele><time>2026-04-25T16:43:05.079Z</time></trkpt><trkpt lat="44.664449" lon="8.0439954"><ele>208.5</ele><time>2026-04-25T16:43:06.078Z</time></trkpt><trkpt lat="44.6645745" lon="8.0439429"><ele>208.25</ele><time>2026-04-25T16:43:07.078Z</time></trkpt><trkpt lat="44.6647148" lon="8.043892"><ele>208.0</ele><time>2026-04-25T16:43:08.079Z</time></trkpt><trkpt lat="44.6648456" lon="8.043837"><ele>208.0</ele><time>2026-04-25T16:43:09.079Z</time></trkpt><trkpt lat="44.6649635" lon="8.0437852"><ele>208.0</ele><time>2026-04-25T16:43:10.079Z</time></trkpt><trkpt lat="44.6650939" lon="8.0437294"><ele>208.0</ele><time>2026-04-25T16:43:11.079Z</time></trkpt><trkpt lat="44.6652339" lon="8.0436652"><ele>208.0</ele><time>2026-04-25T16:43:12.079Z</time></trkpt><trkpt lat="44.6653634" lon="8.0436063"><ele>208.0</ele><time>2026-04-25T16:43:13.079Z</time></trkpt><trkpt lat="44.6654868" lon="8.0435521"><ele>208.0</ele><time>2026-04-25T16:43:14.078Z</time></trkpt><trkpt lat="44.665601" lon="8.0435105"><ele>208.0</ele><time>2026-04-25T16:43:15.079Z</time></trkpt><trkpt lat="44.6657196" lon="8.0434393"><ele>208.0</ele><time>2026-04-25T16:43:16.079Z</time></trkpt><trkpt lat="44.6658253" lon="8.0433976"><ele>208.0</ele><time>2026-04-25T16:43:17.079Z</time></trkpt><trkpt lat="44.665943" lon="8.0433531"><ele>208.0</ele><time>2026-04-25T16:43:18.079Z</time></trkpt><trkpt lat="44.6660532" lon="8.0433031"><ele>208.0</ele><time>2026-04-25T16:43:19.079Z</time></trkpt><trkpt lat="44.6661725" lon="8.0432448"><ele>208.0</ele><time>2026-04-25T16:43:20.079Z</time></trkpt><trkpt lat="44.6662845" lon="8.0431934"><ele>206.75</ele><time>2026-04-25T16:43:21.079Z</time></trkpt><trkpt lat="44.6664068" lon="8.0431514"><ele>205.5</ele><time>2026-04-25T16:43:22.079Z</time></trkpt><trkpt lat="44.666525" lon="8.0431022"><ele>204.25</ele><time>2026-04-25T16:43:23.079Z</time></trkpt><trkpt lat="44.6666313" lon="8.043044"><ele>203.0</ele><time>2026-04-25T16:43:24.079Z</time></trkpt><trkpt lat="44.6667197" lon="8.043008"><ele>203.00000000000003</ele><time>2026-04-25T16:43:25.079Z</time></trkpt><trkpt lat="44.6667823" lon="8.0429854"><ele>203.0</ele><time>2026-04-25T16:43:26.079Z</time></trkpt><trkpt lat="44.6668579" lon="8.0430158"><ele>203.0</ele><time>2026-04-25T16:43:29.079Z</time></trkpt><trkpt lat="44.6668555" lon="8.0431133"><ele>203.0</ele><time>2026-04-25T16:43:30.079Z</time></trkpt><trkpt lat="44.6668599" lon="8.043204"><ele>203.00000000000003</ele><time>2026-04-25T16:43:31.079Z</time></trkpt><trkpt lat="44.6668668" lon="8.0433334"><ele>203.0</ele><time>2026-04-25T16:43:32.079Z</time></trkpt><trkpt lat="44.6668772" lon="8.0434726"><ele>203.75</ele><time>2026-04-25T16:43:33.079Z</time></trkpt><trkpt lat="44.6668945" lon="8.0436274"><ele>204.5</ele><time>2026-04-25T16:43:34.078Z</time></trkpt><trkpt lat="44.6669233" lon="8.0437903"><ele>205.25</ele><time>2026-04-25T16:43:35.079Z</time></trkpt><trkpt lat="44.6669343" lon="8.0439697"><ele>206.0</ele><time>2026-04-25T16:43:36.079Z</time></trkpt><trkpt lat="44.6669388" lon="8.0441604"><ele>206.75</ele><time>2026-04-25T16:43:37.079Z</time></trkpt><trkpt lat="44.6669531" lon="8.0443517"><ele>207.5</ele><time>2026-04-25T16:43:38.079Z</time></trkpt><trkpt lat="44.6669715" lon="8.0445106"><ele>208.25</ele><time>2026-04-25T16:43:39.078Z</time></trkpt><trkpt lat="44.6669873" lon="8.0446571"><ele>209.0</ele><time>2026-04-25T16:43:40.078Z</time></trkpt><trkpt lat="44.6670043" lon="8.0448189"><ele>210.0</ele><time>2026-04-25T16:43:41.078Z</time></trkpt><trkpt lat="44.6669962" lon="8.0449648"><ele>211.0</ele><time>2026-04-25T16:43:42.079Z</time></trkpt><trkpt lat="44.6669942" lon="8.0450759"><ele>211.99999999999997</ele><time>2026-04-25T16:43:43.079Z</time></trkpt><trkpt lat="44.6668808" lon="8.0451404"><ele>213.0</ele><time>2026-04-25T16:43:45.079Z</time></trkpt><trkpt lat="44.6668093" lon="8.045203"><ele>214.0</ele><time>2026-04-25T16:43:46.079Z</time></trkpt><trkpt lat="44.6667235" lon="8.0452339"><ele>214.0</ele><time>2026-04-25T16:43:47.078Z</time></trkpt><trkpt lat="44.6666238" lon="8.0452699"><ele>214.0</ele><time>2026-04-25T16:43:48.078Z</time></trkpt><trkpt lat="44.6664664" lon="8.0452535"><ele>214.0</ele><time>2026-04-25T16:43:49.078Z</time></trkpt><trkpt lat="44.6663832" lon="8.0452636"><ele>214.0</ele><time>2026-04-25T16:43:50.079Z</time></trkpt><trkpt lat="44.6662449" lon="8.0453027"><ele>213.99999999999997</ele><time>2026-04-25T16:43:52.079Z</time></trkpt><trkpt lat="44.6661703" lon="8.0453721"><ele>214.0</ele><time>2026-04-25T16:43:54.079Z</time></trkpt><trkpt lat="44.6661481" lon="8.0454557"><ele>214.0</ele><time>2026-04-25T16:43:55.078Z</time></trkpt><trkpt lat="44.6662128" lon="8.0455706"><ele>214.0</ele><time>2026-04-25T16:43:57.078Z</time></trkpt><trkpt lat="44.6662773" lon="8.0455632"><ele>213.99999999999997</ele><time>2026-04-25T16:43:58.079Z</time></trkpt><trkpt lat="44.6663495" lon="8.0455379"><ele>214.0</ele><time>2026-04-25T16:43:59.079Z</time></trkpt><trkpt lat="44.6664555" lon="8.0455638"><ele>214.0</ele><time>2026-04-25T16:44:00.078Z</time></trkpt><trkpt lat="44.6665446" lon="8.0455321"><ele>214.0</ele><time>2026-04-25T16:44:01.079Z</time></trkpt><trkpt lat="44.6666441" lon="8.045538"><ele>214.0</ele><time>2026-04-25T16:44:02.079Z</time></trkpt><trkpt lat="44.6668241" lon="8.045627"><ele>214.0</ele><time>2026-04-25T16:44:03.079Z</time></trkpt><trkpt lat="44.6669552" lon="8.0456758"><ele>214.75</ele><time>2026-04-25T16:44:04.078Z</time></trkpt><trkpt lat="44.667065" lon="8.045762"><ele>215.5</ele><time>2026-04-25T16:44:05.079Z</time></trkpt><trkpt lat="44.6671835" lon="8.045807"><ele>216.25</ele><time>2026-04-25T16:44:06.079Z</time></trkpt><trkpt lat="44.667322" lon="8.045676"><ele>217.0</ele><time>2026-04-25T16:44:07.079Z</time></trkpt><trkpt lat="44.667436" lon="8.0456652"><ele>216.99999999999997</ele><time>2026-04-25T16:44:08.079Z</time></trkpt><trkpt lat="44.6675197" lon="8.0456599"><ele>217.0</ele><time>2026-04-25T16:44:09.079Z</time></trkpt><trkpt lat="44.6675887" lon="8.04561"><ele>217.0</ele><time>2026-04-25T16:44:10.079Z</time></trkpt><trkpt lat="44.6676714" lon="8.045591"><ele>217.0</ele><time>2026-04-25T16:44:11.079Z</time></trkpt><trkpt lat="44.6677661" lon="8.0455971"><ele>216.99999999999997</ele><time>2026-04-25T16:44:13.078Z</time></trkpt><trkpt lat="44.6677804" lon="8.0457005"><ele>217.0</ele><time>2026-04-25T16:44:16.079Z</time></trkpt><trkpt lat="44.667679" lon="8.0457408"><ele>217.0</ele><time>2026-04-25T16:44:19.079Z</time></trkpt><trkpt lat="44.6675245" lon="8.0457214"><ele>217.0</ele><time>2026-04-25T16:44:20.079Z</time></trkpt><trkpt lat="44.6673928" lon="8.0457482"><ele>217.0</ele><time>2026-04-25T16:44:21.079Z</time></trkpt><trkpt lat="44.6672422" lon="8.0458329"><ele>220.5</ele><time>2026-04-25T16:44:22.079Z</time></trkpt><trkpt lat="44.6671397" lon="8.0459548"><ele>224.0</ele><time>2026-04-25T16:44:23.078Z</time></trkpt><trkpt lat="44.6670346" lon="8.046071"><ele>227.5</ele><time>2026-04-25T16:44:24.078Z</time></trkpt><trkpt lat="44.6669553" lon="8.0462223"><ele>231.0</ele><time>2026-04-25T16:44:25.078Z</time></trkpt><trkpt lat="44.6668826" lon="8.0462994"><ele>231.0</ele><time>2026-04-25T16:44:26.078Z</time></trkpt><trkpt lat="44.6668085" lon="8.0462811"><ele>231.00000000000003</ele><time>2026-04-25T16:44:27.079Z</time></trkpt><trkpt lat="44.6667124" lon="8.0462487"><ele>231.00000000000003</ele><time>2026-04-25T16:44:28.079Z</time></trkpt><trkpt lat="44.6666303" lon="8.0462383"><ele>231.0</ele><time>2026-04-25T16:44:29.079Z</time></trkpt><trkpt lat="44.6665009" lon="8.0462527"><ele>231.0</ele><time>2026-04-25T16:44:30.079Z</time></trkpt><trkpt lat="44.6663792" lon="8.0463204"><ele>231.0</ele><time>2026-04-25T16:44:31.079Z</time></trkpt><trkpt lat="44.6662646" lon="8.0464004"><ele>231.0</ele><time>2026-04-25T16:44:32.079Z</time></trkpt><trkpt lat="44.6661511" lon="8.0464689"><ele>231.0</ele><time>2026-04-25T16:44:33.079Z</time></trkpt><trkpt lat="44.6660428" lon="8.0465098"><ele>231.0</ele><time>2026-04-25T16:44:34.079Z</time></trkpt><trkpt lat="44.665948" lon="8.0465475"><ele>230.4</ele><time>2026-04-25T16:44:35.078Z</time></trkpt><trkpt lat="44.6658347" lon="8.0466049"><ele>229.8</ele><time>2026-04-25T16:44:36.079Z</time></trkpt><trkpt lat="44.6657616" lon="8.046666"><ele>229.20000000000002</ele><time>2026-04-25T16:44:37.079Z</time></trkpt><trkpt lat="44.6656643" lon="8.0467164"><ele>228.60000000000002</ele><time>2026-04-25T16:44:38.079Z</time></trkpt><trkpt lat="44.6655945" lon="8.0467642"><ele>228.0</ele><time>2026-04-25T16:44:39.079Z</time></trkpt><trkpt lat="44.6655301" lon="8.0468079"><ele>232.60000000000002</ele><time>2026-04-25T16:44:40.079Z</time></trkpt><trkpt lat="44.6654824" lon="8.0468691"><ele>237.20000000000002</ele><time>2026-04-25T16:44:41.079Z</time></trkpt><trkpt lat="44.6654475" lon="8.0470773"><ele>241.8</ele><time>2026-04-25T16:44:43.079Z</time></trkpt><trkpt lat="44.665439" lon="8.0472104"><ele>246.4</ele><time>2026-04-25T16:44:44.078Z</time></trkpt><trkpt lat="44.6654014" lon="8.0473629"><ele>251.0</ele><time>2026-04-25T16:44:45.079Z</time></trkpt><trkpt lat="44.665381" lon="8.0475081"><ele>252.60000000000002</ele><time>2026-04-25T16:44:46.079Z</time></trkpt><trkpt lat="44.6653345" lon="8.0476802"><ele>254.20000000000002</ele><time>2026-04-25T16:44:47.079Z</time></trkpt><trkpt lat="44.6652741" lon="8.0478344"><ele>255.79999999999998</ele><time>2026-04-25T16:44:48.079Z</time></trkpt><trkpt lat="44.6652223" lon="8.0479483"><ele>257.4</ele><time>2026-04-25T16:44:49.079Z</time></trkpt><trkpt lat="44.6651761" lon="8.0480474"><ele>259.0</ele><time>2026-04-25T16:44:50.079Z</time></trkpt><trkpt lat="44.665112" lon="8.0480702"><ele>259.0</ele><time>2026-04-25T16:44:52.079Z</time></trkpt><trkpt lat="44.6650318" lon="8.0479695"><ele>259.0</ele><time>2026-04-25T16:44:54.079Z</time></trkpt><trkpt lat="44.6649021" lon="8.0478384"><ele>259.0</ele><time>2026-04-25T16:44:55.079Z</time></trkpt><trkpt lat="44.6648283" lon="8.0477594"><ele>259.0</ele><time>2026-04-25T16:44:56.078Z</time></trkpt><trkpt lat="44.6647378" lon="8.0477116"><ele>259.0</ele><time>2026-04-25T16:44:57.079Z</time></trkpt><trkpt lat="44.6646412" lon="8.0477187"><ele>259.0</ele><time>2026-04-25T16:44:58.079Z</time></trkpt><trkpt lat="44.6645418" lon="8.0477373"><ele>259.0</ele><time>2026-04-25T16:44:59.079Z</time></trkpt><trkpt lat="44.6644678" lon="8.0478086"><ele>259.0</ele><time>2026-04-25T16:45:00.079Z</time></trkpt><trkpt lat="44.6643891" lon="8.0478835"><ele>259.0</ele><time>2026-04-25T16:45:01.078Z</time></trkpt><trkpt lat="44.6643151" lon="8.0479863"><ele>259.0</ele><time>2026-04-25T16:45:02.079Z</time></trkpt><trkpt lat="44.6643013" lon="8.0481189"><ele>259.0</ele><time>2026-04-25T16:45:03.079Z</time></trkpt><trkpt lat="44.6642808" lon="8.0482575"><ele>259.0</ele><time>2026-04-25T16:45:04.079Z</time></trkpt><trkpt lat="44.6642939" lon="8.0484075"><ele>259.0</ele><time>2026-04-25T16:45:05.079Z</time></trkpt><trkpt lat="44.6643134" lon="8.0485623"><ele>259.0</ele><time>2026-04-25T16:45:06.079Z</time></trkpt><trkpt lat="44.664354" lon="8.0487023"><ele>259.0</ele><time>2026-04-25T16:45:07.078Z</time></trkpt><trkpt lat="44.6643834" lon="8.0488555"><ele>259.0</ele><time>2026-04-25T16:45:08.079Z</time></trkpt><trkpt lat="44.6644192" lon="8.049037"><ele>259.0</ele><time>2026-04-25T16:45:09.079Z</time></trkpt><trkpt lat="44.6644596" lon="8.0492187"><ele>259.0</ele><time>2026-04-25T16:45:10.079Z</time></trkpt><trkpt lat="44.6645305" lon="8.0493698"><ele>265.0</ele><time>2026-04-25T16:45:11.079Z</time></trkpt><trkpt lat="44.6646023" lon="8.0495292"><ele>271.0</ele><time>2026-04-25T16:45:12.079Z</time></trkpt><trkpt lat="44.6646471" lon="8.049678"><ele>277.0</ele><time>2026-04-25T16:45:13.079Z</time></trkpt><trkpt lat="44.6647104" lon="8.0498166"><ele>283.0</ele><time>2026-04-25T16:45:14.079Z</time></trkpt><trkpt lat="44.6647764" lon="8.0499446"><ele>284.6</ele><time>2026-04-25T16:45:15.079Z</time></trkpt><trkpt lat="44.6648384" lon="8.0500514"><ele>286.20000000000005</ele><time>2026-04-25T16:45:16.078Z</time></trkpt><trkpt lat="44.6649216" lon="8.0501782"><ele>287.8</ele><time>2026-04-25T16:45:17.079Z</time></trkpt><trkpt lat="44.6649221" lon="8.0503075"><ele>289.40000000000003</ele><time>2026-04-25T16:45:18.078Z</time></trkpt><trkpt lat="44.6649576" lon="8.0504265"><ele>291.0</ele><time>2026-04-25T16:45:19.079Z</time></trkpt><trkpt lat="44.6649904" lon="8.0505478"><ele>291.0</ele><time>2026-04-25T16:45:20.078Z</time></trkpt><trkpt lat="44.6650033" lon="8.0506597"><ele>291.0</ele><time>2026-04-25T16:45:21.079Z</time></trkpt><trkpt lat="44.6650357" lon="8.0507961"><ele>291.0</ele><time>2026-04-25T16:45:23.079Z</time></trkpt><trkpt lat="44.6651175" lon="8.0508536"><ele>291.0</ele><time>2026-04-25T16:45:25.078Z</time></trkpt><trkpt lat="44.6652004" lon="8.050829"><ele>291.0</ele><time>2026-04-25T16:45:26.078Z</time></trkpt><trkpt lat="44.6652442" lon="8.0507184"><ele>291.0</ele><time>2026-04-25T16:45:27.078Z</time></trkpt><trkpt lat="44.6652852" lon="8.0506234"><ele>293.8333333333333</ele><time>2026-04-25T16:45:28.078Z</time></trkpt><trkpt lat="44.6653225" lon="8.0505391"><ele>296.6666666666667</ele><time>2026-04-25T16:45:29.078Z</time></trkpt><trkpt lat="44.6653844" lon="8.0504643"><ele>299.5</ele><time>2026-04-25T16:45:30.079Z</time></trkpt><trkpt lat="44.6654501" lon="8.0504008"><ele>302.33333333333337</ele><time>2026-04-25T16:45:31.078Z</time></trkpt><trkpt lat="44.6655222" lon="8.0503039"><ele>305.1666666666667</ele><time>2026-04-25T16:45:32.078Z</time></trkpt><trkpt lat="44.665584" lon="8.0502209"><ele>308.0</ele><time>2026-04-25T16:45:33.078Z</time></trkpt><trkpt lat="44.6656589" lon="8.0501364"><ele>308.0</ele><time>2026-04-25T16:45:34.079Z</time></trkpt><trkpt lat="44.6657526" lon="8.0500236"><ele>308.0</ele><time>2026-04-25T16:45:35.078Z</time></trkpt><trkpt lat="44.6658337" lon="8.0499221"><ele>308.0</ele><time>2026-04-25T16:45:36.079Z</time></trkpt><trkpt lat="44.6659145" lon="8.0498208"><ele>308.0</ele><time>2026-04-25T16:45:37.079Z</time></trkpt><trkpt lat="44.6660036" lon="8.049713"><ele>308.2</ele><time>2026-04-25T16:45:39.078Z</time></trkpt><trkpt lat="44.6660643" lon="8.0495852"><ele>308.4</ele><time>2026-04-25T16:45:42.079Z</time></trkpt><trkpt lat="44.6661118" lon="8.0494649"><ele>308.59999999999997</ele><time>2026-04-25T16:46:11.079Z</time></trkpt><trkpt lat="44.6661563" lon="8.0494013"><ele>308.8</ele><time>2026-04-25T16:46:12.078Z</time></trkpt><trkpt lat="44.6662283" lon="8.0492816"><ele>309.0</ele><time>2026-04-25T16:46:14.079Z</time></trkpt><trkpt lat="44.6662819" lon="8.0491706"><ele>309.0</ele><time>2026-04-25T16:46:16.079Z</time></trkpt><trkpt lat="44.6663335" lon="8.049118"><ele>309.0</ele><time>2026-04-25T16:46:18.079Z</time></trkpt><trkpt lat="44.6663794" lon="8.0492173"><ele>309.0</ele><time>2026-04-25T16:46:20.079Z</time></trkpt><trkpt lat="44.666362" lon="8.0493272"><ele>309.0</ele><time>2026-04-25T16:46:22.079Z</time></trkpt><trkpt lat="44.6663222" lon="8.0494897"><ele>309.0</ele><time>2026-04-25T16:46:24.079Z</time></trkpt><trkpt lat="44.6663051" lon="8.0495971"><ele>309.0</ele><time>2026-04-25T16:46:25.078Z</time></trkpt><trkpt lat="44.6662769" lon="8.0497099"><ele>309.0</ele><time>2026-04-25T16:46:26.079Z</time></trkpt><trkpt lat="44.6662539" lon="8.049837"><ele>309.0</ele><time>2026-04-25T16:46:27.079Z</time></trkpt><trkpt lat="44.6662269" lon="8.0499382"><ele>309.0</ele><time>2026-04-25T16:46:28.079Z</time></trkpt><trkpt lat="44.6661906" lon="8.0500629"><ele>309.0</ele><time>2026-04-25T16:46:29.079Z</time></trkpt><trkpt lat="44.6661609" lon="8.0501714"><ele>309.0</ele><time>2026-04-25T16:46:30.079Z</time></trkpt><trkpt lat="44.6661342" lon="8.0502813"><ele>309.0</ele><time>2026-04-25T16:46:31.079Z</time></trkpt><trkpt lat="44.6661192" lon="8.050375"><ele>310.59999999999997</ele><time>2026-04-25T16:46:32.079Z</time></trkpt><trkpt lat="44.6661541" lon="8.0504564"><ele>312.2</ele><time>2026-04-25T16:46:33.079Z</time></trkpt><trkpt lat="44.6662892" lon="8.050616"><ele>313.79999999999995</ele><time>2026-04-25T16:46:35.079Z</time></trkpt><trkpt lat="44.6663455" lon="8.0506956"><ele>315.4</ele><time>2026-04-25T16:46:36.079Z</time></trkpt><trkpt lat="44.6664279" lon="8.0507593"><ele>317.0</ele><time>2026-04-25T16:46:37.078Z</time></trkpt><trkpt lat="44.666545" lon="8.0508054"><ele>317.75</ele><time>2026-04-25T16:46:38.078Z</time></trkpt><trkpt lat="44.6666607" lon="8.0508454"><ele>318.5</ele><time>2026-04-25T16:46:39.079Z</time></trkpt><trkpt lat="44.6668068" lon="8.0508872"><ele>319.25</ele><time>2026-04-25T16:46:40.079Z</time></trkpt><trkpt lat="44.6669244" lon="8.0509343"><ele>320.0</ele><time>2026-04-25T16:46:41.079Z</time></trkpt><trkpt lat="44.6670527" lon="8.0509697"><ele>321.25</ele><time>2026-04-25T16:46:42.079Z</time></trkpt><trkpt lat="44.6671129" lon="8.0510973"><ele>322.5</ele><time>2026-04-25T16:46:43.079Z</time></trkpt><trkpt lat="44.6672044" lon="8.0512049"><ele>323.75</ele><time>2026-04-25T16:46:44.079Z</time></trkpt><trkpt lat="44.6673031" lon="8.0512978"><ele>325.0</ele><time>2026-04-25T16:46:45.079Z</time></trkpt><trkpt lat="44.6673954" lon="8.0513966"><ele>325.0</ele><time>2026-04-25T16:46:46.079Z</time></trkpt><trkpt lat="44.6674963" lon="8.0514454"><ele>325.0</ele><time>2026-04-25T16:46:47.079Z</time></trkpt><trkpt lat="44.6675794" lon="8.0515139"><ele>325.0</ele><time>2026-04-25T16:46:48.079Z</time></trkpt><trkpt lat="44.6676718" lon="8.0515849"><ele>325.0</ele><time>2026-04-25T16:46:49.078Z</time></trkpt><trkpt lat="44.6677543" lon="8.0516512"><ele>325.0</ele><time>2026-04-25T16:46:50.079Z</time></trkpt><trkpt lat="44.6678512" lon="8.0517269"><ele>325.8</ele><time>2026-04-25T16:46:51.078Z</time></trkpt><trkpt lat="44.6679361" lon="8.0518107"><ele>326.6</ele><time>2026-04-25T16:46:52.079Z</time></trkpt><trkpt lat="44.6680078" lon="8.0519023"><ele>327.4</ele><time>2026-04-25T16:46:53.078Z</time></trkpt><trkpt lat="44.6680846" lon="8.0519846"><ele>328.2</ele><time>2026-04-25T16:46:54.079Z</time></trkpt><trkpt lat="44.668157" lon="8.052145"><ele>329.0</ele><time>2026-04-25T16:46:55.079Z</time></trkpt><trkpt lat="44.6682402" lon="8.0522752"><ele>329.0</ele><time>2026-04-25T16:46:56.079Z</time></trkpt><trkpt lat="44.6683319" lon="8.052422"><ele>329.0</ele><time>2026-04-25T16:46:57.078Z</time></trkpt><trkpt lat="44.6683986" lon="8.0525564"><ele>329.0</ele><time>2026-04-25T16:46:58.078Z</time></trkpt><trkpt lat="44.668487" lon="8.0527181"><ele>329.0</ele><time>2026-04-25T16:46:59.079Z</time></trkpt><trkpt lat="44.6685524" lon="8.0528788"><ele>329.25</ele><time>2026-04-25T16:47:00.079Z</time></trkpt><trkpt lat="44.6685946" lon="8.0530465"><ele>329.5</ele><time>2026-04-25T16:47:01.079Z</time></trkpt><trkpt lat="44.6686476" lon="8.0532392"><ele>329.75</ele><time>2026-04-25T16:47:02.079Z</time></trkpt><trkpt lat="44.668698" lon="8.0534276"><ele>330.0</ele><time>2026-04-25T16:47:03.079Z</time></trkpt><trkpt lat="44.6687218" lon="8.0535789"><ele>330.0</ele><time>2026-04-25T16:47:04.079Z</time></trkpt><trkpt lat="44.668747" lon="8.0537305"><ele>330.0</ele><time>2026-04-25T16:47:05.079Z</time></trkpt><trkpt lat="44.6687815" lon="8.0538716"><ele>330.0</ele><time>2026-04-25T16:47:06.078Z</time></trkpt><trkpt lat="44.668813" lon="8.0540223"><ele>330.0</ele><time>2026-04-25T16:47:07.078Z</time></trkpt><trkpt lat="44.6688571" lon="8.0541853"><ele>330.0</ele><time>2026-04-25T16:47:08.078Z</time></trkpt><trkpt lat="44.6688952" lon="8.0543483"><ele>330.0</ele><time>2026-04-25T16:47:09.079Z</time></trkpt><trkpt lat="44.6689234" lon="8.0545136"><ele>330.0</ele><time>2026-04-25T16:47:10.079Z</time></trkpt><trkpt lat="44.6689282" lon="8.0546714"><ele>330.0</ele><time>2026-04-25T16:47:11.078Z</time></trkpt><trkpt lat="44.6689308" lon="8.0548265"><ele>331.5</ele><time>2026-04-25T16:47:12.079Z</time></trkpt><trkpt lat="44.668886" lon="8.0550048"><ele>333.0</ele><time>2026-04-25T16:47:13.079Z</time></trkpt><trkpt lat="44.6688561" lon="8.0551724"><ele>334.5</ele><time>2026-04-25T16:47:14.079Z</time></trkpt><trkpt lat="44.6688215" lon="8.0553398"><ele>336.0</ele><time>2026-04-25T16:47:15.079Z</time></trkpt><trkpt lat="44.668789" lon="8.0555006"><ele>336.0</ele><time>2026-04-25T16:47:16.078Z</time></trkpt><trkpt lat="44.6687582" lon="8.0556585"><ele>336.0</ele><time>2026-04-25T16:47:17.079Z</time></trkpt><trkpt lat="44.6687343" lon="8.0558111"><ele>336.0</ele><time>2026-04-25T16:47:18.079Z</time></trkpt><trkpt lat="44.6687124" lon="8.0559741"><ele>336.0</ele><time>2026-04-25T16:47:19.079Z</time></trkpt><trkpt lat="44.6686863" lon="8.0561251"><ele>336.0</ele><time>2026-04-25T16:47:20.079Z</time></trkpt><trkpt lat="44.668664" lon="8.0562673"><ele>336.0</ele><time>2026-04-25T16:47:21.079Z</time></trkpt><trkpt lat="44.668636" lon="8.0564045"><ele>336.0</ele><time>2026-04-25T16:47:22.078Z</time></trkpt><trkpt lat="44.6686026" lon="8.0565137"><ele>336.0</ele><time>2026-04-25T16:47:23.078Z</time></trkpt><trkpt lat="44.6685821" lon="8.0566052"><ele>336.0</ele><time>2026-04-25T16:47:24.079Z</time></trkpt><trkpt lat="44.6685634" lon="8.0566942"><ele>336.0</ele><time>2026-04-25T16:47:25.078Z</time></trkpt><trkpt lat="44.6686042" lon="8.0568139"><ele>340.0</ele><time>2026-04-25T16:47:27.079Z</time></trkpt><trkpt lat="44.6686649" lon="8.0569237"><ele>344.0</ele><time>2026-04-25T16:47:29.079Z</time></trkpt><trkpt lat="44.6687499" lon="8.0569321"><ele>348.0</ele><time>2026-04-25T16:47:30.079Z</time></trkpt><trkpt lat="44.6688596" lon="8.056861"><ele>352.0</ele><time>2026-04-25T16:47:31.079Z</time></trkpt><trkpt lat="44.6689539" lon="8.0568577"><ele>356.0</ele><time>2026-04-25T16:47:32.079Z</time></trkpt><trkpt lat="44.6690313" lon="8.0568069"><ele>356.0</ele><time>2026-04-25T16:47:33.079Z</time></trkpt><trkpt lat="44.6691047" lon="8.0567862"><ele>356.0</ele><time>2026-04-25T16:47:34.078Z</time></trkpt><trkpt lat="44.6691756" lon="8.0567763"><ele>356.0</ele><time>2026-04-25T16:47:35.079Z</time></trkpt><trkpt lat="44.6692802" lon="8.0567846"><ele>356.0</ele><time>2026-04-25T16:47:36.079Z</time></trkpt><trkpt lat="44.6693712" lon="8.0568218"><ele>356.0</ele><time>2026-04-25T16:47:37.078Z</time></trkpt><trkpt lat="44.6694964" lon="8.0568747"><ele>355.6</ele><time>2026-04-25T16:47:38.079Z</time></trkpt><trkpt lat="44.669611" lon="8.056928"><ele>355.20000000000005</ele><time>2026-04-25T16:47:39.079Z</time></trkpt><trkpt lat="44.6697123" lon="8.056979"><ele>354.79999999999995</ele><time>2026-04-25T16:47:40.078Z</time></trkpt><trkpt lat="44.6697975" lon="8.0570215"><ele>354.4</ele><time>2026-04-25T16:47:41.078Z</time></trkpt><trkpt lat="44.6698772" lon="8.0570848"><ele>354.0</ele><time>2026-04-25T16:47:42.079Z</time></trkpt><trkpt lat="44.6699283" lon="8.0571774"><ele>354.0</ele><time>2026-04-25T16:47:43.079Z</time></trkpt><trkpt lat="44.6699482" lon="8.0573255"><ele>354.0</ele><time>2026-04-25T16:47:44.078Z</time></trkpt><trkpt lat="44.6699982" lon="8.0574534"><ele>354.0</ele><time>2026-04-25T16:47:45.079Z</time></trkpt><trkpt lat="44.6700343" lon="8.0575633"><ele>354.0</ele><time>2026-04-25T16:47:46.078Z</time></trkpt><trkpt lat="44.6700658" lon="8.0577078"><ele>354.0</ele><time>2026-04-25T16:47:47.079Z</time></trkpt><trkpt lat="44.6701051" lon="8.0578238"><ele>356.6</ele><time>2026-04-25T16:47:48.079Z</time></trkpt><trkpt lat="44.6701456" lon="8.0579313"><ele>359.2</ele><time>2026-04-25T16:47:49.079Z</time></trkpt><trkpt lat="44.6701792" lon="8.0580577"><ele>361.8</ele><time>2026-04-25T16:47:51.079Z</time></trkpt><trkpt lat="44.6701836" lon="8.0581755"><ele>364.40000000000003</ele><time>2026-04-25T16:47:54.079Z</time></trkpt><trkpt lat="44.6701302" lon="8.0582549"><ele>367.0</ele><time>2026-04-25T16:47:56.079Z</time></trkpt><trkpt lat="44.6700361" lon="8.0583239"><ele>368.0</ele><time>2026-04-25T16:47:58.078Z</time></trkpt><trkpt lat="44.6699146" lon="8.0583668"><ele>369.0</ele><time>2026-04-25T16:47:59.079Z</time></trkpt><trkpt lat="44.6698155" lon="8.0583963"><ele>370.0</ele><time>2026-04-25T16:48:00.079Z</time></trkpt><trkpt lat="44.6697013" lon="8.0584367"><ele>371.0</ele><time>2026-04-25T16:48:01.078Z</time></trkpt><trkpt lat="44.6695493" lon="8.0584378"><ele>371.75</ele><time>2026-04-25T16:48:02.079Z</time></trkpt><trkpt lat="44.6694223" lon="8.058438"><ele>372.5</ele><time>2026-04-25T16:48:03.078Z</time></trkpt><trkpt lat="44.6692894" lon="8.0583935"><ele>373.25</ele><time>2026-04-25T16:48:04.079Z</time></trkpt><trkpt lat="44.6691536" lon="8.0583409"><ele>374.0</ele><time>2026-04-25T16:48:05.079Z</time></trkpt><trkpt lat="44.6690207" lon="8.0582997"><ele>373.25</ele><time>2026-04-25T16:48:06.079Z</time></trkpt><trkpt lat="44.6688974" lon="8.0582738"><ele>372.5</ele><time>2026-04-25T16:48:07.079Z</time></trkpt><trkpt lat="44.6687638" lon="8.0582604"><ele>371.75</ele><time>2026-04-25T16:48:08.079Z</time></trkpt><trkpt lat="44.6686397" lon="8.0582686"><ele>371.0</ele><time>2026-04-25T16:48:09.079Z</time></trkpt><trkpt lat="44.6685015" lon="8.0583279"><ele>372.75</ele><time>2026-04-25T16:48:10.079Z</time></trkpt><trkpt lat="44.6683933" lon="8.0583865"><ele>374.5</ele><time>2026-04-25T16:48:11.079Z</time></trkpt><trkpt lat="44.6682744" lon="8.0584821"><ele>376.25</ele><time>2026-04-25T16:48:12.078Z</time></trkpt><trkpt lat="44.6681601" lon="8.0585792"><ele>378.0</ele><time>2026-04-25T16:48:13.079Z</time></trkpt><trkpt lat="44.668034" lon="8.0586807"><ele>378.0</ele><time>2026-04-25T16:48:14.078Z</time></trkpt><trkpt lat="44.6679121" lon="8.0587858"><ele>378.0</ele><time>2026-04-25T16:48:15.079Z</time></trkpt><trkpt lat="44.6677839" lon="8.0589029"><ele>378.0</ele><time>2026-04-25T16:48:16.078Z</time></trkpt><trkpt lat="44.6676555" lon="8.0590236"><ele>379.3333333333333</ele><time>2026-04-25T16:48:17.079Z</time></trkpt><trkpt lat="44.6675217" lon="8.0591335"><ele>380.66666666666663</ele><time>2026-04-25T16:48:18.078Z</time></trkpt><trkpt lat="44.6673907" lon="8.0592406"><ele>382.0</ele><time>2026-04-25T16:48:19.078Z</time></trkpt><trkpt lat="44.6672649" lon="8.0593649"><ele>382.0</ele><time>2026-04-25T16:48:20.079Z</time></trkpt><trkpt lat="44.6671531" lon="8.0594579"><ele>382.0</ele><time>2026-04-25T16:48:21.079Z</time></trkpt><trkpt lat="44.6670377" lon="8.0595728"><ele>382.0</ele><time>2026-04-25T16:48:22.078Z</time></trkpt><trkpt lat="44.6669633" lon="8.0596633"><ele>382.0</ele><time>2026-04-25T16:48:23.079Z</time></trkpt><trkpt lat="44.6668809" lon="8.0597897"><ele>381.75</ele><time>2026-04-25T16:48:24.079Z</time></trkpt><trkpt lat="44.6668092" lon="8.0599613"><ele>381.5</ele><time>2026-04-25T16:48:25.078Z</time></trkpt><trkpt lat="44.6667451" lon="8.0601403"><ele>381.25</ele><time>2026-04-25T16:48:26.079Z</time></trkpt><trkpt lat="44.6667151" lon="8.0603021"><ele>381.0</ele><time>2026-04-25T16:48:27.078Z</time></trkpt><trkpt lat="44.6666738" lon="8.0604868"><ele>381.0</ele><time>2026-04-25T16:48:28.079Z</time></trkpt><trkpt lat="44.666613" lon="8.0606608"><ele>381.0</ele><time>2026-04-25T16:48:29.079Z</time></trkpt><trkpt lat="44.6665708" lon="8.0608402"><ele>381.0</ele><time>2026-04-25T16:48:30.078Z</time></trkpt><trkpt lat="44.6665112" lon="8.0610238"><ele>381.0</ele><time>2026-04-25T16:48:31.078Z</time></trkpt><trkpt lat="44.6664509" lon="8.0611921"><ele>381.5</ele><time>2026-04-25T16:48:32.079Z</time></trkpt><trkpt lat="44.6663916" lon="8.06133"><ele>382.0</ele><time>2026-04-25T16:48:33.079Z</time></trkpt><trkpt lat="44.6663331" lon="8.0614801"><ele>382.5</ele><time>2026-04-25T16:48:34.079Z</time></trkpt><trkpt lat="44.6663071" lon="8.0616447"><ele>383.0</ele><time>2026-04-25T16:48:35.079Z</time></trkpt><trkpt lat="44.6662995" lon="8.0618185"><ele>384.75</ele><time>2026-04-25T16:48:36.078Z</time></trkpt><trkpt lat="44.666288" lon="8.0620029"><ele>386.5</ele><time>2026-04-25T16:48:37.079Z</time></trkpt><trkpt lat="44.6662732" lon="8.0621932"><ele>388.25</ele><time>2026-04-25T16:48:38.079Z</time></trkpt><trkpt lat="44.6662616" lon="8.0623865"><ele>390.0</ele><time>2026-04-25T16:48:39.079Z</time></trkpt><trkpt lat="44.666246" lon="8.0625716"><ele>392.0</ele><time>2026-04-25T16:48:40.079Z</time></trkpt><trkpt lat="44.6662158" lon="8.0627532"><ele>394.0</ele><time>2026-04-25T16:48:41.078Z</time></trkpt><trkpt lat="44.6661613" lon="8.0629115"><ele>396.0</ele><time>2026-04-25T16:48:42.078Z</time></trkpt><trkpt lat="44.666096" lon="8.0630543"><ele>398.0</ele><time>2026-04-25T16:48:43.079Z</time></trkpt><trkpt lat="44.6660061" lon="8.063203"><ele>397.75</ele><time>2026-04-25T16:48:44.079Z</time></trkpt><trkpt lat="44.6658812" lon="8.0632828"><ele>397.5</ele><time>2026-04-25T16:48:45.079Z</time></trkpt><trkpt lat="44.6657435" lon="8.0633595"><ele>397.25</ele><time>2026-04-25T16:48:46.079Z</time></trkpt><trkpt lat="44.6656087" lon="8.0633827"><ele>397.0</ele><time>2026-04-25T16:48:47.079Z</time></trkpt><trkpt lat="44.6654683" lon="8.0634029"><ele>397.0</ele><time>2026-04-25T16:48:48.079Z</time></trkpt><trkpt lat="44.665323" lon="8.0634395"><ele>397.0</ele><time>2026-04-25T16:48:49.078Z</time></trkpt><trkpt lat="44.6651583" lon="8.0635164"><ele>397.0</ele><time>2026-04-25T16:48:50.079Z</time></trkpt><trkpt lat="44.6650155" lon="8.0635791"><ele>394.0</ele><time>2026-04-25T16:48:51.079Z</time></trkpt><trkpt lat="44.6648711" lon="8.0636594"><ele>391.0</ele><time>2026-04-25T16:48:52.079Z</time></trkpt><trkpt lat="44.6647263" lon="8.0637381"><ele>388.0</ele><time>2026-04-25T16:48:53.079Z</time></trkpt><trkpt lat="44.6646038" lon="8.0638366"><ele>388.0</ele><time>2026-04-25T16:48:54.079Z</time></trkpt><trkpt lat="44.6644823" lon="8.0639439"><ele>388.0</ele><time>2026-04-25T16:48:55.079Z</time></trkpt><trkpt lat="44.6643672" lon="8.0640896"><ele>388.0</ele><time>2026-04-25T16:48:56.079Z</time></trkpt><trkpt lat="44.6642571" lon="8.0642503"><ele>391.0</ele><time>2026-04-25T16:48:57.079Z</time></trkpt><trkpt lat="44.6641396" lon="8.0644108"><ele>394.0</ele><time>2026-04-25T16:48:58.079Z</time></trkpt><trkpt lat="44.6640315" lon="8.0645849"><ele>397.0</ele><time>2026-04-25T16:48:59.078Z</time></trkpt><trkpt lat="44.6639252" lon="8.0647512"><ele>397.0</ele><time>2026-04-25T16:49:00.078Z</time></trkpt><trkpt lat="44.6638183" lon="8.0649"><ele>397.0</ele><time>2026-04-25T16:49:01.078Z</time></trkpt><trkpt lat="44.6637093" lon="8.0650512"><ele>397.0</ele><time>2026-04-25T16:49:02.079Z</time></trkpt><trkpt lat="44.6636078" lon="8.065183"><ele>397.0</ele><time>2026-04-25T16:49:03.079Z</time></trkpt><trkpt lat="44.6635027" lon="8.0653038"><ele>396.25</ele><time>2026-04-25T16:49:04.079Z</time></trkpt><trkpt lat="44.6633915" lon="8.0654235"><ele>395.5</ele><time>2026-04-25T16:49:05.078Z</time></trkpt><trkpt lat="44.6632708" lon="8.0655277"><ele>394.75</ele><time>2026-04-25T16:49:06.079Z</time></trkpt><trkpt lat="44.6631388" lon="8.0656114"><ele>394.0</ele><time>2026-04-25T16:49:07.079Z</time></trkpt><trkpt lat="44.6630262" lon="8.0656787"><ele>394.0</ele><time>2026-04-25T16:49:08.079Z</time></trkpt><trkpt lat="44.6628777" lon="8.0657593"><ele>394.0</ele><time>2026-04-25T16:49:09.078Z</time></trkpt><trkpt lat="44.6627354" lon="8.0658362"><ele>394.0</ele><time>2026-04-25T16:49:10.079Z</time></trkpt><trkpt lat="44.6625988" lon="8.065913"><ele>398.6666666666667</ele><time>2026-04-25T16:49:11.079Z</time></trkpt><trkpt lat="44.6624516" lon="8.0660055"><ele>403.33333333333337</ele><time>2026-04-25T16:49:12.078Z</time></trkpt><trkpt lat="44.6623133" lon="8.0660964"><ele>408.0</ele><time>2026-04-25T16:49:13.079Z</time></trkpt><trkpt lat="44.6621607" lon="8.0661925"><ele>408.0</ele><time>2026-04-25T16:49:14.079Z</time></trkpt><trkpt lat="44.6620044" lon="8.0662564"><ele>408.0</ele><time>2026-04-25T16:49:15.078Z</time></trkpt><trkpt lat="44.6618584" lon="8.0663015"><ele>408.0</ele><time>2026-04-25T16:49:16.079Z</time></trkpt><trkpt lat="44.6617171" lon="8.06634"><ele>408.25</ele><time>2026-04-25T16:49:17.079Z</time></trkpt><trkpt lat="44.6615754" lon="8.0663521"><ele>408.5</ele><time>2026-04-25T16:49:18.079Z</time></trkpt><trkpt lat="44.6614497" lon="8.0663471"><ele>408.75</ele><time>2026-04-25T16:49:19.078Z</time></trkpt><trkpt lat="44.6613073" lon="8.0662679"><ele>409.0</ele><time>2026-04-25T16:49:20.079Z</time></trkpt><trkpt lat="44.6611704" lon="8.0661918"><ele>410.5</ele><time>2026-04-25T16:49:21.078Z</time></trkpt><trkpt lat="44.6610394" lon="8.0661305"><ele>412.0</ele><time>2026-04-25T16:49:22.079Z</time></trkpt><trkpt lat="44.6609034" lon="8.0660593"><ele>413.5</ele><time>2026-04-25T16:49:23.078Z</time></trkpt><trkpt lat="44.6607656" lon="8.0660039"><ele>415.0</ele><time>2026-04-25T16:49:24.078Z</time></trkpt><trkpt lat="44.6606273" lon="8.0659642"><ele>415.0</ele><time>2026-04-25T16:49:25.078Z</time></trkpt><trkpt lat="44.6604842" lon="8.065955"><ele>415.0</ele><time>2026-04-25T16:49:26.079Z</time></trkpt><trkpt lat="44.6603367" lon="8.0659718"><ele>415.0</ele><time>2026-04-25T16:49:27.078Z</time></trkpt><trkpt lat="44.6601991" lon="8.0660045"><ele>415.0</ele><time>2026-04-25T16:49:28.079Z</time></trkpt><trkpt lat="44.6600504" lon="8.0660369"><ele>414.75</ele><time>2026-04-25T16:49:29.079Z</time></trkpt><trkpt lat="44.6599092" lon="8.0661171"><ele>414.5</ele><time>2026-04-25T16:49:30.079Z</time></trkpt><trkpt lat="44.6597769" lon="8.0661918"><ele>414.25</ele><time>2026-04-25T16:49:31.078Z</time></trkpt><trkpt lat="44.6596587" lon="8.0663129"><ele>414.0</ele><time>2026-04-25T16:49:32.079Z</time></trkpt><trkpt lat="44.6595319" lon="8.0664705"><ele>414.33333333333337</ele><time>2026-04-25T16:49:33.079Z</time></trkpt><trkpt lat="44.6594126" lon="8.0666137"><ele>414.6666666666667</ele><time>2026-04-25T16:49:34.079Z</time></trkpt><trkpt lat="44.6593002" lon="8.0667747"><ele>415.0</ele><time>2026-04-25T16:49:35.078Z</time></trkpt><trkpt lat="44.6591839" lon="8.0669512"><ele>415.0</ele><time>2026-04-25T16:49:36.079Z</time></trkpt><trkpt lat="44.6590812" lon="8.0670848"><ele>415.0</ele><time>2026-04-25T16:49:37.079Z</time></trkpt><trkpt lat="44.6589624" lon="8.0672107"><ele>415.0</ele><time>2026-04-25T16:49:38.079Z</time></trkpt><trkpt lat="44.658837" lon="8.0673113"><ele>415.0</ele><time>2026-04-25T16:49:39.078Z</time></trkpt><trkpt lat="44.6586958" lon="8.0673941"><ele>417.33333333333337</ele><time>2026-04-25T16:49:40.079Z</time></trkpt><trkpt lat="44.6585456" lon="8.0674486"><ele>419.66666666666663</ele><time>2026-04-25T16:49:41.079Z</time></trkpt><trkpt lat="44.6583961" lon="8.0674811"><ele>422.0</ele><time>2026-04-25T16:49:42.078Z</time></trkpt><trkpt lat="44.6582443" lon="8.067488"><ele>422.0</ele><time>2026-04-25T16:49:43.079Z</time></trkpt><trkpt lat="44.6581097" lon="8.0674986"><ele>422.0</ele><time>2026-04-25T16:49:44.079Z</time></trkpt><trkpt lat="44.6579898" lon="8.0675038"><ele>422.0</ele><time>2026-04-25T16:49:45.078Z</time></trkpt><trkpt lat="44.6578792" lon="8.067513"><ele>422.0</ele><time>2026-04-25T16:49:46.078Z</time></trkpt><trkpt lat="44.6577766" lon="8.067524"><ele>421.40000000000003</ele><time>2026-04-25T16:49:47.079Z</time></trkpt><trkpt lat="44.6576859" lon="8.0675409"><ele>420.8</ele><time>2026-04-25T16:49:48.079Z</time></trkpt><trkpt lat="44.6576017" lon="8.0675953"><ele>420.2</ele><time>2026-04-25T16:49:49.078Z</time></trkpt><trkpt lat="44.6575367" lon="8.0676938"><ele>419.6</ele><time>2026-04-25T16:49:50.079Z</time></trkpt><trkpt lat="44.6574926" lon="8.0678198"><ele>419.0</ele><time>2026-04-25T16:49:51.079Z</time></trkpt><trkpt lat="44.6574994" lon="8.0679522"><ele>419.0</ele><time>2026-04-25T16:49:52.079Z</time></trkpt><trkpt lat="44.6575234" lon="8.0681165"><ele>419.0</ele><time>2026-04-25T16:49:53.078Z</time></trkpt><trkpt lat="44.6576101" lon="8.0683277"><ele>419.0</ele><time>2026-04-25T16:49:54.079Z</time></trkpt><trkpt lat="44.657634" lon="8.0685077"><ele>419.0</ele><time>2026-04-25T16:49:55.078Z</time></trkpt><trkpt lat="44.6576426" lon="8.0686653"><ele>419.0</ele><time>2026-04-25T16:49:56.079Z</time></trkpt><trkpt lat="44.6576709" lon="8.0688424"><ele>419.0</ele><time>2026-04-25T16:49:57.079Z</time></trkpt><trkpt lat="44.6576541" lon="8.0690048"><ele>419.0</ele><time>2026-04-25T16:49:58.079Z</time></trkpt><trkpt lat="44.6575942" lon="8.0691547"><ele>419.0</ele><time>2026-04-25T16:49:59.079Z</time></trkpt><trkpt lat="44.6575235" lon="8.0692744"><ele>419.6</ele><time>2026-04-25T16:50:00.079Z</time></trkpt><trkpt lat="44.6574427" lon="8.0694128"><ele>420.2</ele><time>2026-04-25T16:50:01.078Z</time></trkpt><trkpt lat="44.6573565" lon="8.0695127"><ele>420.8</ele><time>2026-04-25T16:50:02.078Z</time></trkpt><trkpt lat="44.6573376" lon="8.0696374"><ele>421.40000000000003</ele><time>2026-04-25T16:50:03.079Z</time></trkpt><trkpt lat="44.6573055" lon="8.0697791"><ele>422.0</ele><time>2026-04-25T16:50:04.079Z</time></trkpt><trkpt lat="44.6573159" lon="8.0699283"><ele>421.8333333333333</ele><time>2026-04-25T16:50:05.079Z</time></trkpt><trkpt lat="44.6573472" lon="8.0700611"><ele>421.66666666666663</ele><time>2026-04-25T16:50:06.079Z</time></trkpt><trkpt lat="44.6573778" lon="8.0701839"><ele>421.5</ele><time>2026-04-25T16:50:07.078Z</time></trkpt><trkpt lat="44.6574263" lon="8.0702718"><ele>421.33333333333337</ele><time>2026-04-25T16:50:08.079Z</time></trkpt><trkpt lat="44.6575022" lon="8.0703396"><ele>421.1666666666667</ele><time>2026-04-25T16:50:09.079Z</time></trkpt><trkpt lat="44.6575693" lon="8.0703976"><ele>421.0</ele><time>2026-04-25T16:50:10.079Z</time></trkpt><trkpt lat="44.6576897" lon="8.070432"><ele>426.33333333333337</ele><time>2026-04-25T16:50:11.079Z</time></trkpt><trkpt lat="44.6578906" lon="8.0704375"><ele>431.66666666666663</ele><time>2026-04-25T16:50:12.078Z</time></trkpt><trkpt lat="44.6580305" lon="8.0704482"><ele>437.0</ele><time>2026-04-25T16:50:13.079Z</time></trkpt><trkpt lat="44.6581333" lon="8.070527"><ele>437.0</ele><time>2026-04-25T16:50:14.079Z</time></trkpt><trkpt lat="44.6582024" lon="8.0706488"><ele>437.0</ele><time>2026-04-25T16:50:15.078Z</time></trkpt><trkpt lat="44.6582859" lon="8.070761"><ele>437.0</ele><time>2026-04-25T16:50:16.079Z</time></trkpt><trkpt lat="44.6583278" lon="8.0709177"><ele>437.0</ele><time>2026-04-25T16:50:17.078Z</time></trkpt><trkpt lat="44.6583207" lon="8.0711067"><ele>435.0</ele><time>2026-04-25T16:50:18.079Z</time></trkpt><trkpt lat="44.658316" lon="8.0712859"><ele>433.0</ele><time>2026-04-25T16:50:19.079Z</time></trkpt><trkpt lat="44.6582962" lon="8.0714668"><ele>431.0</ele><time>2026-04-25T16:50:20.079Z</time></trkpt><trkpt lat="44.6582554" lon="8.0716297"><ele>429.0</ele><time>2026-04-25T16:50:21.078Z</time></trkpt><trkpt lat="44.6582248" lon="8.0718022"><ele>429.0</ele><time>2026-04-25T16:50:22.079Z</time></trkpt><trkpt lat="44.658204" lon="8.0719246"><ele>429.0</ele><time>2026-04-25T16:50:23.079Z</time></trkpt><trkpt lat="44.6581956" lon="8.0720374"><ele>429.0</ele><time>2026-04-25T16:50:24.079Z</time></trkpt><trkpt lat="44.6582179" lon="8.0721648"><ele>429.0</ele><time>2026-04-25T16:50:25.079Z</time></trkpt><trkpt lat="44.6582288" lon="8.0722552"><ele>429.0</ele><time>2026-04-25T16:50:26.079Z</time></trkpt><trkpt lat="44.6583418" lon="8.0723464"><ele>429.0</ele><time>2026-04-25T16:50:27.079Z</time></trkpt><trkpt lat="44.6584272" lon="8.0724378"><ele>429.0</ele><time>2026-04-25T16:50:28.079Z</time></trkpt><trkpt lat="44.6585125" lon="8.0725271"><ele>429.0</ele><time>2026-04-25T16:50:29.079Z</time></trkpt><trkpt lat="44.6586571" lon="8.0726347"><ele>429.0</ele><time>2026-04-25T16:50:30.079Z</time></trkpt><trkpt lat="44.6587632" lon="8.0727548"><ele>427.75</ele><time>2026-04-25T16:50:31.079Z</time></trkpt><trkpt lat="44.6588747" lon="8.0728805"><ele>426.5</ele><time>2026-04-25T16:50:32.079Z</time></trkpt><trkpt lat="44.658941" lon="8.0730466"><ele>425.25</ele><time>2026-04-25T16:50:33.079Z</time></trkpt><trkpt lat="44.6590068" lon="8.0732136"><ele>424.0</ele><time>2026-04-25T16:50:34.078Z</time></trkpt><trkpt lat="44.6590405" lon="8.0734008"><ele>424.0</ele><time>2026-04-25T16:50:35.079Z</time></trkpt><trkpt lat="44.6590499" lon="8.0735795"><ele>424.0</ele><time>2026-04-25T16:50:36.079Z</time></trkpt><trkpt lat="44.6590505" lon="8.0737765"><ele>424.0</ele><time>2026-04-25T16:50:37.078Z</time></trkpt><trkpt lat="44.6590007" lon="8.0739304"><ele>424.0</ele><time>2026-04-25T16:50:38.079Z</time></trkpt><trkpt lat="44.6589417" lon="8.0740802"><ele>423.5</ele><time>2026-04-25T16:50:39.079Z</time></trkpt><trkpt lat="44.658881" lon="8.0742245"><ele>423.0</ele><time>2026-04-25T16:50:40.079Z</time></trkpt><trkpt lat="44.6588551" lon="8.0744097"><ele>422.5</ele><time>2026-04-25T16:50:41.078Z</time></trkpt><trkpt lat="44.6588421" lon="8.0745838"><ele>422.0</ele><time>2026-04-25T16:50:42.079Z</time></trkpt><trkpt lat="44.658846" lon="8.0747831"><ele>422.25</ele><time>2026-04-25T16:50:43.079Z</time></trkpt><trkpt lat="44.6588503" lon="8.0749778"><ele>422.5</ele><time>2026-04-25T16:50:44.078Z</time></trkpt><trkpt lat="44.6588718" lon="8.0751736"><ele>422.75</ele><time>2026-04-25T16:50:45.079Z</time></trkpt><trkpt lat="44.6589029" lon="8.0753666"><ele>423.0</ele><time>2026-04-25T16:50:46.079Z</time></trkpt><trkpt lat="44.6589557" lon="8.0755484"><ele>423.0</ele><time>2026-04-25T16:50:47.078Z</time></trkpt><trkpt lat="44.6590058" lon="8.0757159"><ele>423.0</ele><time>2026-04-25T16:50:48.079Z</time></trkpt><trkpt lat="44.659064" lon="8.0758705"><ele>423.0</ele><time>2026-04-25T16:50:49.079Z</time></trkpt><trkpt lat="44.6590876" lon="8.0760562"><ele>423.0</ele><time>2026-04-25T16:50:50.079Z</time></trkpt><trkpt lat="44.6590327" lon="8.0762076"><ele>422.75</ele><time>2026-04-25T16:50:51.078Z</time></trkpt><trkpt lat="44.6590169" lon="8.0763929"><ele>422.5</ele><time>2026-04-25T16:50:52.079Z</time></trkpt><trkpt lat="44.6589764" lon="8.0765651"><ele>422.25</ele><time>2026-04-25T16:50:53.078Z</time></trkpt><trkpt lat="44.6589431" lon="8.0767369"><ele>422.0</ele><time>2026-04-25T16:50:54.079Z</time></trkpt><trkpt lat="44.6589385" lon="8.0769047"><ele>422.0</ele><time>2026-04-25T16:50:55.079Z</time></trkpt><trkpt lat="44.6589448" lon="8.077073"><ele>422.0</ele><time>2026-04-25T16:50:56.078Z</time></trkpt><trkpt lat="44.6589683" lon="8.0772602"><ele>422.0</ele><time>2026-04-25T16:50:57.079Z</time></trkpt><trkpt lat="44.6589954" lon="8.07745"><ele>422.0</ele><time>2026-04-25T16:50:58.079Z</time></trkpt><trkpt lat="44.6590584" lon="8.0776318"><ele>421.0</ele><time>2026-04-25T16:50:59.079Z</time></trkpt><trkpt lat="44.6591349" lon="8.0777982"><ele>420.0</ele><time>2026-04-25T16:51:00.079Z</time></trkpt><trkpt lat="44.6592263" lon="8.0779625"><ele>419.0</ele><time>2026-04-25T16:51:01.078Z</time></trkpt><trkpt lat="44.6593338" lon="8.0781426"><ele>421.3333333333333</ele><time>2026-04-25T16:51:02.078Z</time></trkpt><trkpt lat="44.6594153" lon="8.0783223"><ele>423.66666666666663</ele><time>2026-04-25T16:51:03.079Z</time></trkpt><trkpt lat="44.6595128" lon="8.0785223"><ele>426.0</ele><time>2026-04-25T16:51:04.079Z</time></trkpt><trkpt lat="44.6595827" lon="8.0787356"><ele>426.0</ele><time>2026-04-25T16:51:05.079Z</time></trkpt><trkpt lat="44.6596383" lon="8.0789643"><ele>426.0</ele><time>2026-04-25T16:51:06.079Z</time></trkpt><trkpt lat="44.6597064" lon="8.079186"><ele>426.0</ele><time>2026-04-25T16:51:07.079Z</time></trkpt><trkpt lat="44.6597605" lon="8.0794077"><ele>424.0</ele><time>2026-04-25T16:51:08.079Z</time></trkpt><trkpt lat="44.6597891" lon="8.079642"><ele>422.0</ele><time>2026-04-25T16:51:09.079Z</time></trkpt><trkpt lat="44.6598209" lon="8.0798776"><ele>420.0</ele><time>2026-04-25T16:51:10.079Z</time></trkpt><trkpt lat="44.6598648" lon="8.0801065"><ele>417.33333333333337</ele><time>2026-04-25T16:51:11.079Z</time></trkpt><trkpt lat="44.6599004" lon="8.0803534"><ele>414.6666666666667</ele><time>2026-04-25T16:51:12.078Z</time></trkpt><trkpt lat="44.6599316" lon="8.0805899"><ele>412.0</ele><time>2026-04-25T16:51:13.079Z</time></trkpt><trkpt lat="44.6599385" lon="8.0808156"><ele>410.6666666666667</ele><time>2026-04-25T16:51:14.079Z</time></trkpt><trkpt lat="44.6599503" lon="8.0810423"><ele>409.33333333333337</ele><time>2026-04-25T16:51:15.078Z</time></trkpt><trkpt lat="44.659959" lon="8.0812683"><ele>408.0</ele><time>2026-04-25T16:51:16.079Z</time></trkpt><trkpt lat="44.6599766" lon="8.0815004"><ele>409.0</ele><time>2026-04-25T16:51:17.079Z</time></trkpt><trkpt lat="44.6599886" lon="8.0817154"><ele>410.0</ele><time>2026-04-25T16:51:18.079Z</time></trkpt><trkpt lat="44.6599629" lon="8.0818554"><ele>411.0</ele><time>2026-04-25T16:51:19.079Z</time></trkpt><trkpt lat="44.6599366" lon="8.082017"><ele>412.0</ele><time>2026-04-25T16:51:20.079Z</time></trkpt><trkpt lat="44.6598809" lon="8.0821271"><ele>412.0</ele><time>2026-04-25T16:51:21.078Z</time></trkpt><trkpt lat="44.6598013" lon="8.082249"><ele>412.0</ele><time>2026-04-25T16:51:22.079Z</time></trkpt><trkpt lat="44.6597413" lon="8.0824156"><ele>412.0</ele><time>2026-04-25T16:51:23.079Z</time></trkpt><trkpt lat="44.659705" lon="8.0825931"><ele>412.0</ele><time>2026-04-25T16:51:24.079Z</time></trkpt><trkpt lat="44.6596713" lon="8.0827751"><ele>413.75</ele><time>2026-04-25T16:51:25.079Z</time></trkpt><trkpt lat="44.6596636" lon="8.0829635"><ele>415.5</ele><time>2026-04-25T16:51:26.079Z</time></trkpt><trkpt lat="44.6597071" lon="8.0831522"><ele>417.25</ele><time>2026-04-25T16:51:27.079Z</time></trkpt><trkpt lat="44.6597303" lon="8.0833422"><ele>419.0</ele><time>2026-04-25T16:51:28.078Z</time></trkpt><trkpt lat="44.659784" lon="8.0835432"><ele>418.66666666666663</ele><time>2026-04-25T16:51:29.078Z</time></trkpt><trkpt lat="44.6598669" lon="8.0837508"><ele>418.33333333333337</ele><time>2026-04-25T16:51:30.079Z</time></trkpt><trkpt lat="44.6599719" lon="8.0839469"><ele>418.0</ele><time>2026-04-25T16:51:31.078Z</time></trkpt><trkpt lat="44.6600456" lon="8.0841385"><ele>418.0</ele><time>2026-04-25T16:51:32.079Z</time></trkpt><trkpt lat="44.6601268" lon="8.0843499"><ele>418.0</ele><time>2026-04-25T16:51:33.079Z</time></trkpt><trkpt lat="44.6601669" lon="8.0845733"><ele>418.0</ele><time>2026-04-25T16:51:34.079Z</time></trkpt><trkpt lat="44.6601855" lon="8.0848097"><ele>417.0</ele><time>2026-04-25T16:51:35.079Z</time></trkpt><trkpt lat="44.6602008" lon="8.0850485"><ele>416.0</ele><time>2026-04-25T16:51:36.079Z</time></trkpt><trkpt lat="44.6602052" lon="8.0852923"><ele>415.0</ele><time>2026-04-25T16:51:37.079Z</time></trkpt><trkpt lat="44.6602163" lon="8.0855296"><ele>414.33333333333337</ele><time>2026-04-25T16:51:38.079Z</time></trkpt><trkpt lat="44.6602333" lon="8.0857781"><ele>413.66666666666663</ele><time>2026-04-25T16:51:39.079Z</time></trkpt><trkpt lat="44.6602485" lon="8.0860181"><ele>413.0</ele><time>2026-04-25T16:51:40.078Z</time></trkpt><trkpt lat="44.660251" lon="8.0862579"><ele>413.0</ele><time>2026-04-25T16:51:41.079Z</time></trkpt><trkpt lat="44.6602523" lon="8.0864913"><ele>413.0</ele><time>2026-04-25T16:51:42.079Z</time></trkpt><trkpt lat="44.6602393" lon="8.0867275"><ele>413.0</ele><time>2026-04-25T16:51:43.079Z</time></trkpt><trkpt lat="44.660217" lon="8.0869451"><ele>415.0</ele><time>2026-04-25T16:51:44.079Z</time></trkpt><trkpt lat="44.6602011" lon="8.0871862"><ele>417.0</ele><time>2026-04-25T16:51:45.079Z</time></trkpt><trkpt lat="44.6601712" lon="8.0874132"><ele>419.0</ele><time>2026-04-25T16:51:46.079Z</time></trkpt><trkpt lat="44.6601266" lon="8.0876011"><ele>421.66666666666663</ele><time>2026-04-25T16:51:47.079Z</time></trkpt><trkpt lat="44.6601003" lon="8.0878198"><ele>424.33333333333337</ele><time>2026-04-25T16:51:48.079Z</time></trkpt><trkpt lat="44.6600698" lon="8.0880492"><ele>427.0</ele><time>2026-04-25T16:51:49.079Z</time></trkpt><trkpt lat="44.6600453" lon="8.0882802"><ele>429.33333333333337</ele><time>2026-04-25T16:51:50.079Z</time></trkpt><trkpt lat="44.6600141" lon="8.0884995"><ele>431.66666666666663</ele><time>2026-04-25T16:51:51.078Z</time></trkpt><trkpt lat="44.6599693" lon="8.0887069"><ele>434.0</ele><time>2026-04-25T16:51:52.079Z</time></trkpt><trkpt lat="44.6599036" lon="8.0889036"><ele>438.3333333333333</ele><time>2026-04-25T16:51:53.079Z</time></trkpt><trkpt lat="44.6598405" lon="8.0891008"><ele>442.66666666666663</ele><time>2026-04-25T16:51:54.079Z</time></trkpt><trkpt lat="44.6597483" lon="8.0893096"><ele>447.0</ele><time>2026-04-25T16:51:55.079Z</time></trkpt><trkpt lat="44.6596725" lon="8.0894963"><ele>447.0</ele><time>2026-04-25T16:51:56.079Z</time></trkpt><trkpt lat="44.6595846" lon="8.0896945"><ele>447.0</ele><time>2026-04-25T16:51:57.079Z</time></trkpt><trkpt lat="44.6595043" lon="8.0898965"><ele>447.0</ele><time>2026-04-25T16:51:58.079Z</time></trkpt><trkpt lat="44.6594191" lon="8.0900774"><ele>445.33333333333337</ele><time>2026-04-25T16:51:59.079Z</time></trkpt><trkpt lat="44.659342" lon="8.0902515"><ele>443.6666666666667</ele><time>2026-04-25T16:52:00.079Z</time></trkpt><trkpt lat="44.6592534" lon="8.0904216"><ele>442.0</ele><time>2026-04-25T16:52:01.079Z</time></trkpt><trkpt lat="44.6591318" lon="8.0905593"><ele>442.0</ele><time>2026-04-25T16:52:02.078Z</time></trkpt><trkpt lat="44.6590131" lon="8.0906756"><ele>442.0</ele><time>2026-04-25T16:52:03.078Z</time></trkpt><trkpt lat="44.6588913" lon="8.0907871"><ele>442.0</ele><time>2026-04-25T16:52:04.079Z</time></trkpt><trkpt lat="44.6587562" lon="8.0908038"><ele>442.0</ele><time>2026-04-25T16:52:05.079Z</time></trkpt><trkpt lat="44.6586242" lon="8.0908355"><ele>444.20000000000005</ele><time>2026-04-25T16:52:06.079Z</time></trkpt><trkpt lat="44.6584971" lon="8.0908774"><ele>446.40000000000003</ele><time>2026-04-25T16:52:07.078Z</time></trkpt><trkpt lat="44.6584256" lon="8.09088"><ele>448.59999999999997</ele><time>2026-04-25T16:52:08.078Z</time></trkpt><trkpt lat="44.6583365" lon="8.0909392"><ele>450.79999999999995</ele><time>2026-04-25T16:52:09.079Z</time></trkpt><trkpt lat="44.6583258" lon="8.091102"><ele>453.0</ele><time>2026-04-25T16:52:11.079Z</time></trkpt><trkpt lat="44.658332" lon="8.0912259"><ele>453.0</ele><time>2026-04-25T16:52:12.079Z</time></trkpt><trkpt lat="44.6584665" lon="8.0912909"><ele>453.0</ele><time>2026-04-25T16:52:13.079Z</time></trkpt><trkpt lat="44.6585638" lon="8.0913587"><ele>453.0</ele><time>2026-04-25T16:52:14.079Z</time></trkpt><trkpt lat="44.6586545" lon="8.0914218"><ele>453.0</ele><time>2026-04-25T16:52:15.078Z</time></trkpt><trkpt lat="44.658742" lon="8.0914972"><ele>453.5</ele><time>2026-04-25T16:52:16.079Z</time></trkpt><trkpt lat="44.6588119" lon="8.0915928"><ele>454.0</ele><time>2026-04-25T16:52:17.078Z</time></trkpt><trkpt lat="44.6588567" lon="8.0917496"><ele>454.5</ele><time>2026-04-25T16:52:18.079Z</time></trkpt><trkpt lat="44.6588812" lon="8.0919108"><ele>455.0</ele><time>2026-04-25T16:52:19.078Z</time></trkpt><trkpt lat="44.6588656" lon="8.0920904"><ele>455.0</ele><time>2026-04-25T16:52:20.078Z</time></trkpt><trkpt lat="44.6588367" lon="8.0922771"><ele>455.0</ele><time>2026-04-25T16:52:21.079Z</time></trkpt><trkpt lat="44.6587916" lon="8.0924628"><ele>455.0</ele><time>2026-04-25T16:52:22.079Z</time></trkpt><trkpt lat="44.6587681" lon="8.0926834"><ele>455.0</ele><time>2026-04-25T16:52:23.079Z</time></trkpt><trkpt lat="44.6587341" lon="8.0928819"><ele>455.3333333333333</ele><time>2026-04-25T16:52:24.079Z</time></trkpt><trkpt lat="44.6587233" lon="8.0930952"><ele>455.66666666666663</ele><time>2026-04-25T16:52:25.079Z</time></trkpt><trkpt lat="44.6587055" lon="8.093306"><ele>456.0</ele><time>2026-04-25T16:52:26.079Z</time></trkpt><trkpt lat="44.6587089" lon="8.093519"><ele>456.25</ele><time>2026-04-25T16:52:27.079Z</time></trkpt><trkpt lat="44.6587267" lon="8.0936991"><ele>456.5</ele><time>2026-04-25T16:52:28.079Z</time></trkpt><trkpt lat="44.6587451" lon="8.0938819"><ele>456.75</ele><time>2026-04-25T16:52:29.079Z</time></trkpt><trkpt lat="44.6587311" lon="8.0940797"><ele>457.0</ele><time>2026-04-25T16:52:30.079Z</time></trkpt><trkpt lat="44.658685" lon="8.0942632"><ele>466.0</ele><time>2026-04-25T16:52:31.079Z</time></trkpt><trkpt lat="44.6586057" lon="8.094402"><ele>475.0</ele><time>2026-04-25T16:52:32.078Z</time></trkpt><trkpt lat="44.6585025" lon="8.0945602"><ele>484.0</ele><time>2026-04-25T16:52:33.079Z</time></trkpt><trkpt lat="44.6583897" lon="8.0947706"><ele>482.0</ele><time>2026-04-25T16:52:34.079Z</time></trkpt><trkpt lat="44.6582818" lon="8.0949353"><ele>480.0</ele><time>2026-04-25T16:52:35.079Z</time></trkpt><trkpt lat="44.6581678" lon="8.0950921"><ele>478.0</ele><time>2026-04-25T16:52:36.079Z</time></trkpt><trkpt lat="44.6580558" lon="8.0952422"><ele>478.0</ele><time>2026-04-25T16:52:37.079Z</time></trkpt><trkpt lat="44.6579611" lon="8.0953896"><ele>478.0</ele><time>2026-04-25T16:52:38.078Z</time></trkpt><trkpt lat="44.6578684" lon="8.0955452"><ele>478.0</ele><time>2026-04-25T16:52:39.079Z</time></trkpt><trkpt lat="44.6577918" lon="8.0957132"><ele>478.0</ele><time>2026-04-25T16:52:40.079Z</time></trkpt><trkpt lat="44.6577132" lon="8.0958811"><ele>478.5</ele><time>2026-04-25T16:52:41.079Z</time></trkpt><trkpt lat="44.6576717" lon="8.0960643"><ele>479.0</ele><time>2026-04-25T16:52:42.079Z</time></trkpt><trkpt lat="44.6576393" lon="8.0962432"><ele>479.5</ele><time>2026-04-25T16:52:43.078Z</time></trkpt><trkpt lat="44.6576259" lon="8.0964239"><ele>480.0</ele><time>2026-04-25T16:52:44.079Z</time></trkpt><trkpt lat="44.6576409" lon="8.0966306"><ele>480.0</ele><time>2026-04-25T16:52:45.078Z</time></trkpt><trkpt lat="44.6576558" lon="8.0968326"><ele>480.0</ele><time>2026-04-25T16:52:46.078Z</time></trkpt><trkpt lat="44.6576774" lon="8.0970277"><ele>480.0</ele><time>2026-04-25T16:52:47.078Z</time></trkpt><trkpt lat="44.6577044" lon="8.097227"><ele>480.0</ele><time>2026-04-25T16:52:48.079Z</time></trkpt><trkpt lat="44.6577427" lon="8.0974306"><ele>479.5</ele><time>2026-04-25T16:52:49.079Z</time></trkpt><trkpt lat="44.6577774" lon="8.097628"><ele>479.0</ele><time>2026-04-25T16:52:50.079Z</time></trkpt><trkpt lat="44.6577955" lon="8.0978172"><ele>478.5</ele><time>2026-04-25T16:52:51.079Z</time></trkpt><trkpt lat="44.6578086" lon="8.0980125"><ele>478.0</ele><time>2026-04-25T16:52:52.079Z</time></trkpt><trkpt lat="44.6578264" lon="8.0981453"><ele>478.59999999999997</ele><time>2026-04-25T16:52:53.079Z</time></trkpt><trkpt lat="44.6578511" lon="8.0982736"><ele>479.19999999999993</ele><time>2026-04-25T16:52:54.079Z</time></trkpt><trkpt lat="44.6578576" lon="8.098376"><ele>479.8</ele><time>2026-04-25T16:52:55.079Z</time></trkpt><trkpt lat="44.6578301" lon="8.0985541"><ele>480.4</ele><time>2026-04-25T16:52:57.079Z</time></trkpt><trkpt lat="44.6578924" lon="8.098659"><ele>481.0</ele><time>2026-04-25T16:52:59.079Z</time></trkpt><trkpt lat="44.6579526" lon="8.0986996"><ele>481.0</ele><time>2026-04-25T16:53:00.079Z</time></trkpt><trkpt lat="44.6580312" lon="8.098751"><ele>481.0</ele><time>2026-04-25T16:53:01.079Z</time></trkpt><trkpt lat="44.6581115" lon="8.0988284"><ele>481.0</ele><time>2026-04-25T16:53:02.079Z</time></trkpt><trkpt lat="44.6582009" lon="8.0989206"><ele>481.0</ele><time>2026-04-25T16:53:03.079Z</time></trkpt><trkpt lat="44.6582793" lon="8.099025"><ele>481.0</ele><time>2026-04-25T16:53:04.078Z</time></trkpt><trkpt lat="44.6584302" lon="8.0991014"><ele>483.25</ele><time>2026-04-25T16:53:05.079Z</time></trkpt><trkpt lat="44.6585476" lon="8.0991515"><ele>485.5</ele><time>2026-04-25T16:53:06.079Z</time></trkpt><trkpt lat="44.6586737" lon="8.0992055"><ele>487.75</ele><time>2026-04-25T16:53:07.078Z</time></trkpt><trkpt lat="44.6588192" lon="8.0992206"><ele>490.0</ele><time>2026-04-25T16:53:08.078Z</time></trkpt><trkpt lat="44.6589797" lon="8.0991838"><ele>490.0</ele><time>2026-04-25T16:53:09.079Z</time></trkpt><trkpt lat="44.6591304" lon="8.0991844"><ele>490.0</ele><time>2026-04-25T16:53:10.079Z</time></trkpt><trkpt lat="44.6592691" lon="8.0991671"><ele>490.0</ele><time>2026-04-25T16:53:11.079Z</time></trkpt><trkpt lat="44.6594181" lon="8.0991633"><ele>490.0</ele><time>2026-04-25T16:53:12.079Z</time></trkpt><trkpt lat="44.6595685" lon="8.0991682"><ele>490.0</ele><time>2026-04-25T16:53:13.079Z</time></trkpt><trkpt lat="44.6597182" lon="8.0991748"><ele>490.0</ele><time>2026-04-25T16:53:14.078Z</time></trkpt><trkpt lat="44.6598633" lon="8.0991995"><ele>490.0</ele><time>2026-04-25T16:53:15.079Z</time></trkpt><trkpt lat="44.6600212" lon="8.0992311"><ele>490.0</ele><time>2026-04-25T16:53:16.078Z</time></trkpt><trkpt lat="44.6601791" lon="8.0992596"><ele>490.0</ele><time>2026-04-25T16:53:17.079Z</time></trkpt><trkpt lat="44.6603191" lon="8.0992943"><ele>490.0</ele><time>2026-04-25T16:53:18.078Z</time></trkpt><trkpt lat="44.6604526" lon="8.099341"><ele>490.0</ele><time>2026-04-25T16:53:19.078Z</time></trkpt><trkpt lat="44.6606186" lon="8.0994524"><ele>489.6666666666667</ele><time>2026-04-25T16:53:20.078Z</time></trkpt><trkpt lat="44.6607673" lon="8.0995436"><ele>489.33333333333337</ele><time>2026-04-25T16:53:21.079Z</time></trkpt><trkpt lat="44.6609227" lon="8.0996314"><ele>489.0</ele><time>2026-04-25T16:53:22.079Z</time></trkpt><trkpt lat="44.6610747" lon="8.0997266"><ele>487.33333333333337</ele><time>2026-04-25T16:53:23.079Z</time></trkpt><trkpt lat="44.661224" lon="8.0998132"><ele>485.6666666666667</ele><time>2026-04-25T16:53:24.078Z</time></trkpt><trkpt lat="44.6613636" lon="8.0999053"><ele>484.0</ele><time>2026-04-25T16:53:25.079Z</time></trkpt><trkpt lat="44.661506" lon="8.0999912"><ele>485.33333333333337</ele><time>2026-04-25T16:53:26.078Z</time></trkpt><trkpt lat="44.6616524" lon="8.1000548"><ele>486.66666666666663</ele><time>2026-04-25T16:53:27.079Z</time></trkpt><trkpt lat="44.6618076" lon="8.1001061"><ele>488.0</ele><time>2026-04-25T16:53:28.079Z</time></trkpt><trkpt lat="44.6619522" lon="8.1001313"><ele>488.0</ele><time>2026-04-25T16:53:29.078Z</time></trkpt><trkpt lat="44.6621093" lon="8.1001503"><ele>488.0</ele><time>2026-04-25T16:53:30.079Z</time></trkpt><trkpt lat="44.6622703" lon="8.1001669"><ele>488.0</ele><time>2026-04-25T16:53:31.078Z</time></trkpt><trkpt lat="44.6624346" lon="8.1001966"><ele>488.0</ele><time>2026-04-25T16:53:32.079Z</time></trkpt><trkpt lat="44.6626138" lon="8.1002152"><ele>488.0</ele><time>2026-04-25T16:53:33.079Z</time></trkpt><trkpt lat="44.6627696" lon="8.1002482"><ele>488.0</ele><time>2026-04-25T16:53:34.078Z</time></trkpt><trkpt lat="44.6629185" lon="8.1002805"><ele>487.5</ele><time>2026-04-25T16:53:35.078Z</time></trkpt><trkpt lat="44.663067" lon="8.1003204"><ele>487.0</ele><time>2026-04-25T16:53:36.079Z</time></trkpt><trkpt lat="44.6632089" lon="8.1003404"><ele>486.5</ele><time>2026-04-25T16:53:37.079Z</time></trkpt><trkpt lat="44.6633209" lon="8.1003543"><ele>486.0</ele><time>2026-04-25T16:53:38.079Z</time></trkpt><trkpt lat="44.6634222" lon="8.1003584"><ele>486.0</ele><time>2026-04-25T16:53:39.078Z</time></trkpt><trkpt lat="44.6635108" lon="8.1003589"><ele>486.0</ele><time>2026-04-25T16:53:40.078Z</time></trkpt><trkpt lat="44.6636051" lon="8.1003321"><ele>486.0</ele><time>2026-04-25T16:53:41.078Z</time></trkpt><trkpt lat="44.6636998" lon="8.1002984"><ele>486.0</ele><time>2026-04-25T16:53:42.079Z</time></trkpt><trkpt lat="44.6637803" lon="8.1002492"><ele>486.0</ele><time>2026-04-25T16:53:43.079Z</time></trkpt><trkpt lat="44.6638512" lon="8.1000717"><ele>485.5</ele><time>2026-04-25T16:53:44.079Z</time></trkpt><trkpt lat="44.6639216" lon="8.0999292"><ele>485.0</ele><time>2026-04-25T16:53:45.079Z</time></trkpt><trkpt lat="44.6639842" lon="8.0997706"><ele>484.5</ele><time>2026-04-25T16:53:46.079Z</time></trkpt><trkpt lat="44.6640469" lon="8.0996231"><ele>484.0</ele><time>2026-04-25T16:53:47.079Z</time></trkpt><trkpt lat="44.664119" lon="8.0994728"><ele>484.0</ele><time>2026-04-25T16:53:48.079Z</time></trkpt><trkpt lat="44.6641962" lon="8.0993145"><ele>484.0</ele><time>2026-04-25T16:53:49.079Z</time></trkpt><trkpt lat="44.6642631" lon="8.099147"><ele>484.0</ele><time>2026-04-25T16:53:50.079Z</time></trkpt><trkpt lat="44.6643474" lon="8.0990102"><ele>484.0</ele><time>2026-04-25T16:53:51.079Z</time></trkpt><trkpt lat="44.6644379" lon="8.0989006"><ele>483.6666666666667</ele><time>2026-04-25T16:53:52.079Z</time></trkpt><trkpt lat="44.664571" lon="8.0987813"><ele>483.33333333333337</ele><time>2026-04-25T16:53:53.079Z</time></trkpt><trkpt lat="44.6646948" lon="8.0986564"><ele>483.0</ele><time>2026-04-25T16:53:54.079Z</time></trkpt><trkpt lat="44.6648229" lon="8.0985161"><ele>483.0</ele><time>2026-04-25T16:53:55.079Z</time></trkpt><trkpt lat="44.6649299" lon="8.0983772"><ele>483.0</ele><time>2026-04-25T16:53:56.079Z</time></trkpt><trkpt lat="44.6650477" lon="8.0982493"><ele>483.0</ele><time>2026-04-25T16:53:57.079Z</time></trkpt><trkpt lat="44.6651606" lon="8.0981623"><ele>483.0</ele><time>2026-04-25T16:53:58.079Z</time></trkpt><trkpt lat="44.6653136" lon="8.0981538"><ele>480.0</ele><time>2026-04-25T16:53:59.079Z</time></trkpt><trkpt lat="44.6654489" lon="8.098119"><ele>477.0</ele><time>2026-04-25T16:54:00.079Z</time></trkpt><trkpt lat="44.6655835" lon="8.0981001"><ele>474.0</ele><time>2026-04-25T16:54:01.078Z</time></trkpt><trkpt lat="44.6657048" lon="8.0980525"><ele>471.0</ele><time>2026-04-25T16:54:02.079Z</time></trkpt><trkpt lat="44.665773" lon="8.0979255"><ele>471.0</ele><time>2026-04-25T16:54:03.079Z</time></trkpt><trkpt lat="44.6658657" lon="8.097795"><ele>471.0</ele><time>2026-04-25T16:54:04.079Z</time></trkpt><trkpt lat="44.6659614" lon="8.0976878"><ele>471.0</ele><time>2026-04-25T16:54:05.078Z</time></trkpt><trkpt lat="44.6660719" lon="8.0975938"><ele>471.0</ele><time>2026-04-25T16:54:06.079Z</time></trkpt><trkpt lat="44.6661816" lon="8.097507"><ele>472.5</ele><time>2026-04-25T16:54:07.078Z</time></trkpt><trkpt lat="44.6662811" lon="8.0974819"><ele>474.0</ele><time>2026-04-25T16:54:08.079Z</time></trkpt><trkpt lat="44.6664119" lon="8.0974622"><ele>475.5</ele><time>2026-04-25T16:54:09.078Z</time></trkpt><trkpt lat="44.6666253" lon="8.0974981"><ele>477.0</ele><time>2026-04-25T16:54:10.079Z</time></trkpt><trkpt lat="44.6667574" lon="8.0975166"><ele>477.0</ele><time>2026-04-25T16:54:11.079Z</time></trkpt><trkpt lat="44.6669245" lon="8.0975503"><ele>477.0</ele><time>2026-04-25T16:54:12.079Z</time></trkpt><trkpt lat="44.6671006" lon="8.0975541"><ele>477.0</ele><time>2026-04-25T16:54:13.079Z</time></trkpt><trkpt lat="44.6672724" lon="8.0975426"><ele>477.33333333333337</ele><time>2026-04-25T16:54:14.079Z</time></trkpt><trkpt lat="44.6674548" lon="8.0975075"><ele>477.6666666666667</ele><time>2026-04-25T16:54:15.078Z</time></trkpt><trkpt lat="44.6676235" lon="8.0974706"><ele>478.0</ele><time>2026-04-25T16:54:16.079Z</time></trkpt><trkpt lat="44.6677892" lon="8.0974107"><ele>472.33333333333337</ele><time>2026-04-25T16:54:17.079Z</time></trkpt><trkpt lat="44.6679455" lon="8.0973462"><ele>466.66666666666663</ele><time>2026-04-25T16:54:18.079Z</time></trkpt><trkpt lat="44.6680946" lon="8.0972689"><ele>461.0</ele><time>2026-04-25T16:54:19.078Z</time></trkpt><trkpt lat="44.6682303" lon="8.0971671"><ele>461.0</ele><time>2026-04-25T16:54:20.079Z</time></trkpt><trkpt lat="44.6683719" lon="8.0970642"><ele>461.0</ele><time>2026-04-25T16:54:21.078Z</time></trkpt><trkpt lat="44.6685074" lon="8.0969633"><ele>461.0</ele><time>2026-04-25T16:54:22.079Z</time></trkpt><trkpt lat="44.6686438" lon="8.0968325"><ele>463.66666666666663</ele><time>2026-04-25T16:54:23.078Z</time></trkpt><trkpt lat="44.6687651" lon="8.0966958"><ele>466.33333333333337</ele><time>2026-04-25T16:54:24.078Z</time></trkpt><trkpt lat="44.6688937" lon="8.0965818"><ele>469.0</ele><time>2026-04-25T16:54:25.079Z</time></trkpt><trkpt lat="44.6690457" lon="8.0965137"><ele>465.6666666666667</ele><time>2026-04-25T16:54:26.079Z</time></trkpt><trkpt lat="44.6692055" lon="8.0964689"><ele>462.33333333333337</ele><time>2026-04-25T16:54:27.079Z</time></trkpt><trkpt lat="44.6693593" lon="8.0964264"><ele>459.0</ele><time>2026-04-25T16:54:28.079Z</time></trkpt><trkpt lat="44.6695277" lon="8.0963922"><ele>459.0</ele><time>2026-04-25T16:54:29.079Z</time></trkpt><trkpt lat="44.6696971" lon="8.0963452"><ele>459.0</ele><time>2026-04-25T16:54:30.078Z</time></trkpt><trkpt lat="44.6698491" lon="8.0963088"><ele>459.0</ele><time>2026-04-25T16:54:31.079Z</time></trkpt><trkpt lat="44.6699833" lon="8.096271"><ele>459.0</ele><time>2026-04-25T16:54:32.079Z</time></trkpt><trkpt lat="44.6701077" lon="8.0962072"><ele>459.0</ele><time>2026-04-25T16:54:33.079Z</time></trkpt><trkpt lat="44.6702384" lon="8.0961445"><ele>459.0</ele><time>2026-04-25T16:54:34.079Z</time></trkpt><trkpt lat="44.670356" lon="8.0960502"><ele>459.0</ele><time>2026-04-25T16:54:35.078Z</time></trkpt><trkpt lat="44.6704603" lon="8.095883"><ele>459.66666666666663</ele><time>2026-04-25T16:54:36.079Z</time></trkpt><trkpt lat="44.6705549" lon="8.0957239"><ele>460.3333333333333</ele><time>2026-04-25T16:54:37.079Z</time></trkpt><trkpt lat="44.6706452" lon="8.0955953"><ele>461.0</ele><time>2026-04-25T16:54:38.079Z</time></trkpt><trkpt lat="44.6707676" lon="8.0953959"><ele>461.0</ele><time>2026-04-25T16:54:39.079Z</time></trkpt><trkpt lat="44.6708669" lon="8.095234"><ele>461.0</ele><time>2026-04-25T16:54:40.079Z</time></trkpt><trkpt lat="44.6709478" lon="8.0950535"><ele>461.0</ele><time>2026-04-25T16:54:41.078Z</time></trkpt><trkpt lat="44.6710225" lon="8.0948432"><ele>464.0</ele><time>2026-04-25T16:54:42.078Z</time></trkpt><trkpt lat="44.6710852" lon="8.0946332"><ele>467.0</ele><time>2026-04-25T16:54:43.079Z</time></trkpt><trkpt lat="44.6711573" lon="8.094448"><ele>470.0</ele><time>2026-04-25T16:54:44.078Z</time></trkpt><trkpt lat="44.6712325" lon="8.0942813"><ele>470.0</ele><time>2026-04-25T16:54:45.079Z</time></trkpt><trkpt lat="44.6713208" lon="8.0941378"><ele>470.0</ele><time>2026-04-25T16:54:46.078Z</time></trkpt><trkpt lat="44.6714365" lon="8.094023"><ele>470.0</ele><time>2026-04-25T16:54:47.079Z</time></trkpt><trkpt lat="44.6715525" lon="8.0939253"><ele>470.0</ele><time>2026-04-25T16:54:48.079Z</time></trkpt><trkpt lat="44.6717001" lon="8.0939129"><ele>467.25</ele><time>2026-04-25T16:54:49.079Z</time></trkpt><trkpt lat="44.6718368" lon="8.093933"><ele>464.5</ele><time>2026-04-25T16:54:50.079Z</time></trkpt><trkpt lat="44.6719751" lon="8.0939907"><ele>461.75</ele><time>2026-04-25T16:54:51.078Z</time></trkpt><trkpt lat="44.6721048" lon="8.09409"><ele>459.0</ele><time>2026-04-25T16:54:52.079Z</time></trkpt><trkpt lat="44.6722367" lon="8.0941902"><ele>459.0</ele><time>2026-04-25T16:54:53.078Z</time></trkpt><trkpt lat="44.6723821" lon="8.0943326"><ele>459.0</ele><time>2026-04-25T16:54:54.079Z</time></trkpt><trkpt lat="44.672523" lon="8.094435"><ele>459.0</ele><time>2026-04-25T16:54:55.078Z</time></trkpt><trkpt lat="44.672668" lon="8.0945234"><ele>457.0</ele><time>2026-04-25T16:54:56.079Z</time></trkpt><trkpt lat="44.6728191" lon="8.0945892"><ele>455.0</ele><time>2026-04-25T16:54:57.078Z</time></trkpt><trkpt lat="44.6729813" lon="8.0946343"><ele>453.0</ele><time>2026-04-25T16:54:58.079Z</time></trkpt><trkpt lat="44.6731509" lon="8.0946588"><ele>453.0</ele><time>2026-04-25T16:54:59.079Z</time></trkpt><trkpt lat="44.673326" lon="8.0946739"><ele>453.0</ele><time>2026-04-25T16:55:00.078Z</time></trkpt><trkpt lat="44.6734802" lon="8.0946527"><ele>453.0</ele><time>2026-04-25T16:55:01.079Z</time></trkpt><trkpt lat="44.6736671" lon="8.0946155"><ele>454.66666666666663</ele><time>2026-04-25T16:55:02.079Z</time></trkpt><trkpt lat="44.6738454" lon="8.0945659"><ele>456.3333333333333</ele><time>2026-04-25T16:55:03.079Z</time></trkpt><trkpt lat="44.6740232" lon="8.0944912"><ele>458.0</ele><time>2026-04-25T16:55:04.079Z</time></trkpt><trkpt lat="44.6741926" lon="8.0944153"><ele>458.0</ele><time>2026-04-25T16:55:05.079Z</time></trkpt><trkpt lat="44.6743544" lon="8.0943571"><ele>458.0</ele><time>2026-04-25T16:55:06.079Z</time></trkpt><trkpt lat="44.674516" lon="8.0943045"><ele>458.0</ele><time>2026-04-25T16:55:07.079Z</time></trkpt><trkpt lat="44.6746906" lon="8.0942435"><ele>459.3333333333333</ele><time>2026-04-25T16:55:08.078Z</time></trkpt><trkpt lat="44.6748587" lon="8.0942056"><ele>460.66666666666663</ele><time>2026-04-25T16:55:09.079Z</time></trkpt><trkpt lat="44.6750297" lon="8.0941726"><ele>462.0</ele><time>2026-04-25T16:55:10.079Z</time></trkpt><trkpt lat="44.6751948" lon="8.0941513"><ele>465.0</ele><time>2026-04-25T16:55:11.078Z</time></trkpt><trkpt lat="44.6753617" lon="8.0941242"><ele>468.0</ele><time>2026-04-25T16:55:12.078Z</time></trkpt><trkpt lat="44.6755228" lon="8.0940795"><ele>471.0</ele><time>2026-04-25T16:55:13.079Z</time></trkpt><trkpt lat="44.675682" lon="8.0940074"><ele>469.0</ele><time>2026-04-25T16:55:14.079Z</time></trkpt><trkpt lat="44.6758326" lon="8.0939367"><ele>467.0</ele><time>2026-04-25T16:55:15.079Z</time></trkpt><trkpt lat="44.6759767" lon="8.0938595"><ele>465.0</ele><time>2026-04-25T16:55:16.079Z</time></trkpt><trkpt lat="44.6761144" lon="8.0937804"><ele>465.0</ele><time>2026-04-25T16:55:17.078Z</time></trkpt><trkpt lat="44.6762511" lon="8.0936834"><ele>465.0</ele><time>2026-04-25T16:55:18.079Z</time></trkpt><trkpt lat="44.6763729" lon="8.0935215"><ele>465.0</ele><time>2026-04-25T16:55:19.079Z</time></trkpt><trkpt lat="44.676507" lon="8.0933607"><ele>460.0</ele><time>2026-04-25T16:55:20.079Z</time></trkpt><trkpt lat="44.6766231" lon="8.0932023"><ele>455.0</ele><time>2026-04-25T16:55:21.079Z</time></trkpt><trkpt lat="44.6767312" lon="8.0930505"><ele>450.0</ele><time>2026-04-25T16:55:22.079Z</time></trkpt><trkpt lat="44.6768406" lon="8.0928984"><ele>450.75</ele><time>2026-04-25T16:55:23.079Z</time></trkpt><trkpt lat="44.676956" lon="8.092723"><ele>451.5</ele><time>2026-04-25T16:55:24.079Z</time></trkpt><trkpt lat="44.6770291" lon="8.0925784"><ele>452.25</ele><time>2026-04-25T16:55:25.079Z</time></trkpt><trkpt lat="44.6770905" lon="8.0924655"><ele>453.0</ele><time>2026-04-25T16:55:26.079Z</time></trkpt><trkpt lat="44.6771396" lon="8.0923469"><ele>453.0</ele><time>2026-04-25T16:55:27.078Z</time></trkpt><trkpt lat="44.6772222" lon="8.0922739"><ele>452.99999999999994</ele><time>2026-04-25T16:55:28.078Z</time></trkpt><trkpt lat="44.6773055" lon="8.0921965"><ele>452.99999999999994</ele><time>2026-04-25T16:55:29.078Z</time></trkpt><trkpt lat="44.6773948" lon="8.0921883"><ele>453.0</ele><time>2026-04-25T16:55:30.079Z</time></trkpt><trkpt lat="44.6775339" lon="8.09227"><ele>453.0</ele><time>2026-04-25T16:55:31.078Z</time></trkpt><trkpt lat="44.677645" lon="8.0923625"><ele>453.0</ele><time>2026-04-25T16:55:32.079Z</time></trkpt><trkpt lat="44.6777704" lon="8.0924516"><ele>453.0</ele><time>2026-04-25T16:55:33.078Z</time></trkpt><trkpt lat="44.6778986" lon="8.0925477"><ele>453.0</ele><time>2026-04-25T16:55:34.079Z</time></trkpt><trkpt lat="44.6780262" lon="8.0926502"><ele>453.0</ele><time>2026-04-25T16:55:35.079Z</time></trkpt><trkpt lat="44.6781449" lon="8.0927476"><ele>453.0</ele><time>2026-04-25T16:55:36.079Z</time></trkpt><trkpt lat="44.6782576" lon="8.0928431"><ele>453.0</ele><time>2026-04-25T16:55:37.079Z</time></trkpt><trkpt lat="44.6783702" lon="8.0929172"><ele>453.0</ele><time>2026-04-25T16:55:38.078Z</time></trkpt><trkpt lat="44.6784805" lon="8.0929884"><ele>453.0</ele><time>2026-04-25T16:55:39.079Z</time></trkpt><trkpt lat="44.6786023" lon="8.0930123"><ele>454.66666666666663</ele><time>2026-04-25T16:55:40.079Z</time></trkpt><trkpt lat="44.6787468" lon="8.0929302"><ele>456.3333333333333</ele><time>2026-04-25T16:55:41.079Z</time></trkpt><trkpt lat="44.6788788" lon="8.092893"><ele>458.0</ele><time>2026-04-25T16:55:42.078Z</time></trkpt><trkpt lat="44.6790268" lon="8.0927752"><ele>458.0</ele><time>2026-04-25T16:55:43.079Z</time></trkpt><trkpt lat="44.679174" lon="8.0926692"><ele>458.0</ele><time>2026-04-25T16:55:44.078Z</time></trkpt><trkpt lat="44.6793232" lon="8.092563"><ele>458.0</ele><time>2026-04-25T16:55:45.079Z</time></trkpt><trkpt lat="44.6794789" lon="8.0924597"><ele>457.5</ele><time>2026-04-25T16:55:46.079Z</time></trkpt><trkpt lat="44.6796156" lon="8.0923641"><ele>457.0</ele><time>2026-04-25T16:55:47.079Z</time></trkpt><trkpt lat="44.6797438" lon="8.0922522"><ele>456.5</ele><time>2026-04-25T16:55:48.078Z</time></trkpt><trkpt lat="44.6798499" lon="8.0921327"><ele>456.0</ele><time>2026-04-25T16:55:49.079Z</time></trkpt><trkpt lat="44.6799494" lon="8.0920101"><ele>456.0</ele><time>2026-04-25T16:55:50.079Z</time></trkpt><trkpt lat="44.6800415" lon="8.0918973"><ele>456.0</ele><time>2026-04-25T16:55:51.079Z</time></trkpt><trkpt lat="44.6801351" lon="8.0918027"><ele>456.0</ele><time>2026-04-25T16:55:52.079Z</time></trkpt><trkpt lat="44.6802723" lon="8.0917361"><ele>456.0</ele><time>2026-04-25T16:55:53.079Z</time></trkpt><trkpt lat="44.6804148" lon="8.0916642"><ele>457.66666666666663</ele><time>2026-04-25T16:55:54.078Z</time></trkpt><trkpt lat="44.6805635" lon="8.0916084"><ele>459.3333333333333</ele><time>2026-04-25T16:55:55.078Z</time></trkpt><trkpt lat="44.6807149" lon="8.0915506"><ele>461.0</ele><time>2026-04-25T16:55:56.079Z</time></trkpt><trkpt lat="44.6808659" lon="8.0914728"><ele>458.3333333333333</ele><time>2026-04-25T16:55:57.079Z</time></trkpt><trkpt lat="44.6810023" lon="8.0913763"><ele>455.66666666666663</ele><time>2026-04-25T16:55:58.079Z</time></trkpt><trkpt lat="44.6811393" lon="8.0912799"><ele>453.0</ele><time>2026-04-25T16:55:59.078Z</time></trkpt><trkpt lat="44.6812642" lon="8.0911535"><ele>453.0</ele><time>2026-04-25T16:56:00.079Z</time></trkpt><trkpt lat="44.6813823" lon="8.0910363"><ele>453.0</ele><time>2026-04-25T16:56:01.079Z</time></trkpt><trkpt lat="44.6814933" lon="8.0909005"><ele>453.0</ele><time>2026-04-25T16:56:02.079Z</time></trkpt><trkpt lat="44.6815949" lon="8.0907696"><ele>453.0</ele><time>2026-04-25T16:56:03.079Z</time></trkpt><trkpt lat="44.6816967" lon="8.0906315"><ele>452.25</ele><time>2026-04-25T16:56:04.079Z</time></trkpt><trkpt lat="44.6818088" lon="8.090489"><ele>451.5</ele><time>2026-04-25T16:56:05.079Z</time></trkpt><trkpt lat="44.6819105" lon="8.090353"><ele>450.75</ele><time>2026-04-25T16:56:06.079Z</time></trkpt><trkpt lat="44.6820232" lon="8.0902186"><ele>450.0</ele><time>2026-04-25T16:56:07.079Z</time></trkpt><trkpt lat="44.6821489" lon="8.0901061"><ele>450.0</ele><time>2026-04-25T16:56:08.079Z</time></trkpt><trkpt lat="44.6822993" lon="8.0900346"><ele>450.0</ele><time>2026-04-25T16:56:09.079Z</time></trkpt><trkpt lat="44.6824524" lon="8.0899527"><ele>450.0</ele><time>2026-04-25T16:56:10.079Z</time></trkpt><trkpt lat="44.6826082" lon="8.0898993"><ele>452.0</ele><time>2026-04-25T16:56:11.079Z</time></trkpt><trkpt lat="44.6827562" lon="8.0898622"><ele>454.0</ele><time>2026-04-25T16:56:12.079Z</time></trkpt><trkpt lat="44.6828963" lon="8.0898513"><ele>456.0</ele><time>2026-04-25T16:56:13.079Z</time></trkpt><trkpt lat="44.6830558" lon="8.0898551"><ele>452.0</ele><time>2026-04-25T16:56:14.079Z</time></trkpt><trkpt lat="44.6832401" lon="8.0899238"><ele>448.0</ele><time>2026-04-25T16:56:15.079Z</time></trkpt><trkpt lat="44.6834142" lon="8.0900154"><ele>444.0</ele><time>2026-04-25T16:56:16.078Z</time></trkpt><trkpt lat="44.6835788" lon="8.0900921"><ele>441.0</ele><time>2026-04-25T16:56:17.079Z</time></trkpt><trkpt lat="44.6837384" lon="8.0901671"><ele>438.0</ele><time>2026-04-25T16:56:18.078Z</time></trkpt><trkpt lat="44.6839002" lon="8.090236"><ele>435.0</ele><time>2026-04-25T16:56:19.078Z</time></trkpt><trkpt lat="44.6840658" lon="8.0903131"><ele>435.0</ele><time>2026-04-25T16:56:20.079Z</time></trkpt><trkpt lat="44.6842481" lon="8.0903658"><ele>435.0</ele><time>2026-04-25T16:56:21.079Z</time></trkpt><trkpt lat="44.6844006" lon="8.0904492"><ele>435.0</ele><time>2026-04-25T16:56:22.079Z</time></trkpt><trkpt lat="44.6845587" lon="8.0905294"><ele>434.0</ele><time>2026-04-25T16:56:23.078Z</time></trkpt><trkpt lat="44.6847169" lon="8.0905977"><ele>433.0</ele><time>2026-04-25T16:56:24.079Z</time></trkpt><trkpt lat="44.6848691" lon="8.0906551"><ele>432.0</ele><time>2026-04-25T16:56:25.078Z</time></trkpt><trkpt lat="44.6850204" lon="8.0906955"><ele>432.0</ele><time>2026-04-25T16:56:26.079Z</time></trkpt><trkpt lat="44.6851528" lon="8.0907089"><ele>432.0</ele><time>2026-04-25T16:56:27.079Z</time></trkpt><trkpt lat="44.6853049" lon="8.0906395"><ele>432.0</ele><time>2026-04-25T16:56:28.079Z</time></trkpt><trkpt lat="44.6854388" lon="8.0905962"><ele>432.0</ele><time>2026-04-25T16:56:29.078Z</time></trkpt><trkpt lat="44.6855615" lon="8.0905813"><ele>432.0</ele><time>2026-04-25T16:56:30.079Z</time></trkpt><trkpt lat="44.6857061" lon="8.0905646"><ele>432.0</ele><time>2026-04-25T16:56:31.079Z</time></trkpt><trkpt lat="44.6858419" lon="8.0905776"><ele>432.0</ele><time>2026-04-25T16:56:32.079Z</time></trkpt><trkpt lat="44.6859906" lon="8.0906444"><ele>432.0</ele><time>2026-04-25T16:56:33.079Z</time></trkpt><trkpt lat="44.6861351" lon="8.0907066"><ele>433.33333333333337</ele><time>2026-04-25T16:56:34.079Z</time></trkpt><trkpt lat="44.6863136" lon="8.090777"><ele>434.6666666666667</ele><time>2026-04-25T16:56:35.079Z</time></trkpt><trkpt lat="44.686465" lon="8.0908466"><ele>436.0</ele><time>2026-04-25T16:56:36.078Z</time></trkpt><trkpt lat="44.6866282" lon="8.0908882"><ele>436.0</ele><time>2026-04-25T16:56:37.078Z</time></trkpt><trkpt lat="44.6868112" lon="8.0909101"><ele>436.0</ele><time>2026-04-25T16:56:38.079Z</time></trkpt><trkpt lat="44.6869257" lon="8.0909573"><ele>436.0</ele><time>2026-04-25T16:56:39.079Z</time></trkpt><trkpt lat="44.6870342" lon="8.0909974"><ele>436.0</ele><time>2026-04-25T16:56:40.078Z</time></trkpt><trkpt lat="44.6871718" lon="8.0910394"><ele>435.8</ele><time>2026-04-25T16:56:41.079Z</time></trkpt><trkpt lat="44.6872765" lon="8.0910596"><ele>435.6</ele><time>2026-04-25T16:56:42.079Z</time></trkpt><trkpt lat="44.6873957" lon="8.0910717"><ele>435.4</ele><time>2026-04-25T16:56:43.079Z</time></trkpt><trkpt lat="44.6874911" lon="8.0910116"><ele>435.2</ele><time>2026-04-25T16:56:44.078Z</time></trkpt><trkpt lat="44.6875923" lon="8.0909617"><ele>435.0</ele><time>2026-04-25T16:56:45.078Z</time></trkpt><trkpt lat="44.6877114" lon="8.0908437"><ele>434.25</ele><time>2026-04-25T16:56:46.079Z</time></trkpt><trkpt lat="44.6878274" lon="8.0907401"><ele>433.5</ele><time>2026-04-25T16:56:47.078Z</time></trkpt><trkpt lat="44.6879465" lon="8.0906402"><ele>432.75</ele><time>2026-04-25T16:56:48.078Z</time></trkpt><trkpt lat="44.6880774" lon="8.090518"><ele>432.0</ele><time>2026-04-25T16:56:49.079Z</time></trkpt><trkpt lat="44.6882038" lon="8.0903969"><ele>432.0</ele><time>2026-04-25T16:56:50.079Z</time></trkpt><trkpt lat="44.6883281" lon="8.0902876"><ele>432.0</ele><time>2026-04-25T16:56:51.079Z</time></trkpt><trkpt lat="44.6884609" lon="8.0901945"><ele>432.0</ele><time>2026-04-25T16:56:52.079Z</time></trkpt><trkpt lat="44.6885917" lon="8.0901016"><ele>432.0</ele><time>2026-04-25T16:56:53.079Z</time></trkpt><trkpt lat="44.6887365" lon="8.0900459"><ele>432.0</ele><time>2026-04-25T16:56:54.079Z</time></trkpt><trkpt lat="44.6888843" lon="8.0899816"><ele>432.0</ele><time>2026-04-25T16:56:55.079Z</time></trkpt><trkpt lat="44.6890221" lon="8.0899137"><ele>432.0</ele><time>2026-04-25T16:56:56.079Z</time></trkpt><trkpt lat="44.6891538" lon="8.0898556"><ele>432.0</ele><time>2026-04-25T16:56:57.078Z</time></trkpt><trkpt lat="44.6892799" lon="8.0898159"><ele>431.8</ele><time>2026-04-25T16:56:58.079Z</time></trkpt><trkpt lat="44.6894007" lon="8.0897505"><ele>431.6</ele><time>2026-04-25T16:56:59.079Z</time></trkpt><trkpt lat="44.6895001" lon="8.0897101"><ele>431.40000000000003</ele><time>2026-04-25T16:57:00.078Z</time></trkpt><trkpt lat="44.6895865" lon="8.0896625"><ele>431.20000000000005</ele><time>2026-04-25T16:57:01.079Z</time></trkpt><trkpt lat="44.6896671" lon="8.0896274"><ele>431.0</ele><time>2026-04-25T16:57:02.078Z</time></trkpt><trkpt lat="44.6897459" lon="8.0895856"><ele>428.99999999999994</ele><time>2026-04-25T16:57:03.079Z</time></trkpt><trkpt lat="44.6898108" lon="8.0895553"><ele>427.0</ele><time>2026-04-25T16:57:04.079Z</time></trkpt><trkpt lat="44.6899246" lon="8.0895694"><ele>425.0</ele><time>2026-04-25T16:57:06.079Z</time></trkpt><trkpt lat="44.6899743" lon="8.089627"><ele>423.0</ele><time>2026-04-25T16:57:07.079Z</time></trkpt><trkpt lat="44.6900545" lon="8.089694"><ele>420.99999999999994</ele><time>2026-04-25T16:57:08.078Z</time></trkpt><trkpt lat="44.6901415" lon="8.0897617"><ele>419.0</ele><time>2026-04-25T16:57:09.078Z</time></trkpt><trkpt lat="44.6902521" lon="8.0898411"><ele>418.75</ele><time>2026-04-25T16:57:10.079Z</time></trkpt><trkpt lat="44.6903636" lon="8.0898871"><ele>418.5</ele><time>2026-04-25T16:57:11.079Z</time></trkpt><trkpt lat="44.690485" lon="8.089937"><ele>418.25</ele><time>2026-04-25T16:57:12.079Z</time></trkpt><trkpt lat="44.6906234" lon="8.0899646"><ele>418.0</ele><time>2026-04-25T16:57:13.078Z</time></trkpt><trkpt lat="44.6907992" lon="8.0900346"><ele>418.0</ele><time>2026-04-25T16:57:14.079Z</time></trkpt><trkpt lat="44.6909809" lon="8.0900736"><ele>418.0</ele><time>2026-04-25T16:57:15.079Z</time></trkpt><trkpt lat="44.6911504" lon="8.0901076"><ele>418.0</ele><time>2026-04-25T16:57:16.079Z</time></trkpt><trkpt lat="44.6913124" lon="8.0901495"><ele>416.6666666666667</ele><time>2026-04-25T16:57:17.079Z</time></trkpt><trkpt lat="44.6914731" lon="8.0901775"><ele>415.33333333333337</ele><time>2026-04-25T16:57:18.079Z</time></trkpt><trkpt lat="44.6916296" lon="8.0901858"><ele>414.0</ele><time>2026-04-25T16:57:19.079Z</time></trkpt><trkpt lat="44.6917814" lon="8.0901685"><ele>415.0</ele><time>2026-04-25T16:57:20.079Z</time></trkpt><trkpt lat="44.6919353" lon="8.0901395"><ele>416.0</ele><time>2026-04-25T16:57:21.078Z</time></trkpt><trkpt lat="44.692085" lon="8.0901053"><ele>417.0</ele><time>2026-04-25T16:57:22.079Z</time></trkpt><trkpt lat="44.6922414" lon="8.0900543"><ele>417.0</ele><time>2026-04-25T16:57:23.079Z</time></trkpt><trkpt lat="44.6923926" lon="8.0900016"><ele>417.0</ele><time>2026-04-25T16:57:24.079Z</time></trkpt><trkpt lat="44.6925415" lon="8.0899488"><ele>417.0</ele><time>2026-04-25T16:57:25.079Z</time></trkpt><trkpt lat="44.6926761" lon="8.0898983"><ele>417.0</ele><time>2026-04-25T16:57:26.079Z</time></trkpt><trkpt lat="44.6928133" lon="8.0898506"><ele>412.75</ele><time>2026-04-25T16:57:27.079Z</time></trkpt><trkpt lat="44.6929447" lon="8.089799"><ele>408.5</ele><time>2026-04-25T16:57:28.078Z</time></trkpt><trkpt lat="44.6930656" lon="8.089785"><ele>404.25</ele><time>2026-04-25T16:57:29.079Z</time></trkpt><trkpt lat="44.6931798" lon="8.0897899"><ele>400.0</ele><time>2026-04-25T16:57:30.079Z</time></trkpt><trkpt lat="44.6932858" lon="8.0898226"><ele>400.0</ele><time>2026-04-25T16:57:31.079Z</time></trkpt><trkpt lat="44.6933907" lon="8.0899053"><ele>400.0</ele><time>2026-04-25T16:57:32.079Z</time></trkpt><trkpt lat="44.6934938" lon="8.0900164"><ele>400.0</ele><time>2026-04-25T16:57:33.079Z</time></trkpt><trkpt lat="44.6935892" lon="8.0901572"><ele>400.0</ele><time>2026-04-25T16:57:34.078Z</time></trkpt><trkpt lat="44.6936858" lon="8.0903128"><ele>399.25</ele><time>2026-04-25T16:57:35.078Z</time></trkpt><trkpt lat="44.6937712" lon="8.0904552"><ele>398.5</ele><time>2026-04-25T16:57:36.079Z</time></trkpt><trkpt lat="44.6938455" lon="8.0905932"><ele>397.75</ele><time>2026-04-25T16:57:37.079Z</time></trkpt><trkpt lat="44.6939259" lon="8.0907438"><ele>397.0</ele><time>2026-04-25T16:57:38.078Z</time></trkpt><trkpt lat="44.6939745" lon="8.090827"><ele>397.0</ele><time>2026-04-25T16:57:39.079Z</time></trkpt><trkpt lat="44.6940294" lon="8.0909164"><ele>397.0</ele><time>2026-04-25T16:57:40.079Z</time></trkpt><trkpt lat="44.6941507" lon="8.0909341"><ele>397.0</ele><time>2026-04-25T16:57:42.079Z</time></trkpt><trkpt lat="44.6942162" lon="8.0909287"><ele>397.0</ele><time>2026-04-25T16:57:43.079Z</time></trkpt><trkpt lat="44.6942774" lon="8.0908711"><ele>397.0</ele><time>2026-04-25T16:57:44.079Z</time></trkpt><trkpt lat="44.6943211" lon="8.0907351"><ele>396.25</ele><time>2026-04-25T16:57:45.079Z</time></trkpt><trkpt lat="44.6943526" lon="8.0906574"><ele>395.5</ele><time>2026-04-25T16:57:46.079Z</time></trkpt><trkpt lat="44.694349" lon="8.0905112"><ele>394.75</ele><time>2026-04-25T16:57:47.079Z</time></trkpt><trkpt lat="44.6943502" lon="8.0903319"><ele>394.0</ele><time>2026-04-25T16:57:48.079Z</time></trkpt><trkpt lat="44.6943283" lon="8.0901118"><ele>394.6666666666667</ele><time>2026-04-25T16:57:49.078Z</time></trkpt><trkpt lat="44.6943219" lon="8.0899055"><ele>395.33333333333337</ele><time>2026-04-25T16:57:50.078Z</time></trkpt><trkpt lat="44.6943972" lon="8.0896894"><ele>396.0</ele><time>2026-04-25T16:57:51.079Z</time></trkpt><trkpt lat="44.6944471" lon="8.0894918"><ele>391.3333333333333</ele><time>2026-04-25T16:57:52.079Z</time></trkpt><trkpt lat="44.6945288" lon="8.089293"><ele>386.66666666666663</ele><time>2026-04-25T16:57:53.078Z</time></trkpt><trkpt lat="44.694614" lon="8.0891038"><ele>382.0</ele><time>2026-04-25T16:57:54.078Z</time></trkpt><trkpt lat="44.6946944" lon="8.0889142"><ele>382.0</ele><time>2026-04-25T16:57:55.079Z</time></trkpt><trkpt lat="44.6947885" lon="8.0887317"><ele>382.0</ele><time>2026-04-25T16:57:56.079Z</time></trkpt><trkpt lat="44.6948598" lon="8.0885773"><ele>382.0</ele><time>2026-04-25T16:57:57.079Z</time></trkpt><trkpt lat="44.6949474" lon="8.088408"><ele>382.0</ele><time>2026-04-25T16:57:58.078Z</time></trkpt><trkpt lat="44.6950421" lon="8.0882501"><ele>381.75</ele><time>2026-04-25T16:57:59.079Z</time></trkpt><trkpt lat="44.6951556" lon="8.0881093"><ele>381.5</ele><time>2026-04-25T16:58:00.079Z</time></trkpt><trkpt lat="44.695261" lon="8.0879756"><ele>381.25</ele><time>2026-04-25T16:58:01.079Z</time></trkpt><trkpt lat="44.695376" lon="8.0878539"><ele>381.0</ele><time>2026-04-25T16:58:02.079Z</time></trkpt><trkpt lat="44.6954934" lon="8.0877188"><ele>378.3333333333333</ele><time>2026-04-25T16:58:03.079Z</time></trkpt><trkpt lat="44.6956294" lon="8.0875823"><ele>375.66666666666663</ele><time>2026-04-25T16:58:04.078Z</time></trkpt><trkpt lat="44.6957881" lon="8.0874479"><ele>373.0</ele><time>2026-04-25T16:58:05.079Z</time></trkpt><trkpt lat="44.6959233" lon="8.0873093"><ele>372.3333333333333</ele><time>2026-04-25T16:58:06.079Z</time></trkpt><trkpt lat="44.6960614" lon="8.0871775"><ele>371.6666666666667</ele><time>2026-04-25T16:58:07.079Z</time></trkpt><trkpt lat="44.6961987" lon="8.087041"><ele>371.0</ele><time>2026-04-25T16:58:08.079Z</time></trkpt><trkpt lat="44.6963379" lon="8.0869085"><ele>371.0</ele><time>2026-04-25T16:58:09.079Z</time></trkpt><trkpt lat="44.6964626" lon="8.0867964"><ele>371.0</ele><time>2026-04-25T16:58:10.079Z</time></trkpt><trkpt lat="44.6966023" lon="8.0866645"><ele>371.0</ele><time>2026-04-25T16:58:11.079Z</time></trkpt><trkpt lat="44.6967349" lon="8.0865298"><ele>370.6666666666667</ele><time>2026-04-25T16:58:12.078Z</time></trkpt><trkpt lat="44.6968871" lon="8.0864507"><ele>370.3333333333333</ele><time>2026-04-25T16:58:13.079Z</time></trkpt><trkpt lat="44.6970112" lon="8.0863723"><ele>370.0</ele><time>2026-04-25T16:58:14.079Z</time></trkpt><trkpt lat="44.6971572" lon="8.0862765"><ele>372.0</ele><time>2026-04-25T16:58:15.078Z</time></trkpt><trkpt lat="44.697319" lon="8.0861871"><ele>374.0</ele><time>2026-04-25T16:58:16.079Z</time></trkpt><trkpt lat="44.6974543" lon="8.0860912"><ele>376.0</ele><time>2026-04-25T16:58:17.079Z</time></trkpt><trkpt lat="44.6976039" lon="8.0860185"><ele>372.3333333333333</ele><time>2026-04-25T16:58:18.079Z</time></trkpt><trkpt lat="44.6977914" lon="8.0859218"><ele>368.6666666666667</ele><time>2026-04-25T16:58:19.079Z</time></trkpt><trkpt lat="44.6979582" lon="8.0858456"><ele>365.0</ele><time>2026-04-25T16:58:20.079Z</time></trkpt><trkpt lat="44.6981253" lon="8.0857767"><ele>364.33333333333337</ele><time>2026-04-25T16:58:21.079Z</time></trkpt><trkpt lat="44.6982945" lon="8.0857277"><ele>363.6666666666667</ele><time>2026-04-25T16:58:22.079Z</time></trkpt><trkpt lat="44.6984764" lon="8.0856656"><ele>363.0</ele><time>2026-04-25T16:58:23.078Z</time></trkpt><trkpt lat="44.6986448" lon="8.0856157"><ele>363.0</ele><time>2026-04-25T16:58:24.079Z</time></trkpt><trkpt lat="44.6988286" lon="8.0855613"><ele>363.0</ele><time>2026-04-25T16:58:25.079Z</time></trkpt><trkpt lat="44.6989964" lon="8.085507"><ele>363.0</ele><time>2026-04-25T16:58:26.079Z</time></trkpt><trkpt lat="44.6991702" lon="8.085457"><ele>363.0</ele><time>2026-04-25T16:58:27.079Z</time></trkpt><trkpt lat="44.6993346" lon="8.0854211"><ele>363.0</ele><time>2026-04-25T16:58:28.078Z</time></trkpt><trkpt lat="44.6995056" lon="8.0853672"><ele>363.0</ele><time>2026-04-25T16:58:29.079Z</time></trkpt><trkpt lat="44.69967" lon="8.0853205"><ele>362.6666666666667</ele><time>2026-04-25T16:58:30.078Z</time></trkpt><trkpt lat="44.6998295" lon="8.0852696"><ele>362.33333333333337</ele><time>2026-04-25T16:58:31.079Z</time></trkpt><trkpt lat="44.6999902" lon="8.0852234"><ele>362.0</ele><time>2026-04-25T16:58:32.079Z</time></trkpt><trkpt lat="44.7001101" lon="8.0851888"><ele>362.0</ele><time>2026-04-25T16:58:33.078Z</time></trkpt><trkpt lat="44.7002283" lon="8.0851218"><ele>362.0</ele><time>2026-04-25T16:58:34.079Z</time></trkpt><trkpt lat="44.7003275" lon="8.085047"><ele>362.0</ele><time>2026-04-25T16:58:35.079Z</time></trkpt><trkpt lat="44.7004249" lon="8.0849627"><ele>362.0</ele><time>2026-04-25T16:58:36.079Z</time></trkpt><trkpt lat="44.7005113" lon="8.0848192"><ele>362.6666666666667</ele><time>2026-04-25T16:58:37.078Z</time></trkpt><trkpt lat="44.7005987" lon="8.0845674"><ele>363.3333333333333</ele><time>2026-04-25T16:58:38.079Z</time></trkpt><trkpt lat="44.7006762" lon="8.0843426"><ele>364.0</ele><time>2026-04-25T16:58:39.079Z</time></trkpt><trkpt lat="44.7007478" lon="8.0841293"><ele>359.0</ele><time>2026-04-25T16:58:40.078Z</time></trkpt><trkpt lat="44.7008217" lon="8.0839112"><ele>354.0</ele><time>2026-04-25T16:58:41.079Z</time></trkpt><trkpt lat="44.7009034" lon="8.0836918"><ele>349.0</ele><time>2026-04-25T16:58:42.079Z</time></trkpt><trkpt lat="44.7009917" lon="8.083477"><ele>351.66666666666663</ele><time>2026-04-25T16:58:43.079Z</time></trkpt><trkpt lat="44.7010696" lon="8.083245"><ele>354.3333333333333</ele><time>2026-04-25T16:58:44.079Z</time></trkpt><trkpt lat="44.7011405" lon="8.0830119"><ele>357.0</ele><time>2026-04-25T16:58:45.079Z</time></trkpt><trkpt lat="44.7012087" lon="8.0828021"><ele>357.0</ele><time>2026-04-25T16:58:46.079Z</time></trkpt><trkpt lat="44.7012938" lon="8.0825899"><ele>357.0</ele><time>2026-04-25T16:58:47.079Z</time></trkpt><trkpt lat="44.7013699" lon="8.0823839"><ele>357.0</ele><time>2026-04-25T16:58:48.079Z</time></trkpt><trkpt lat="44.7014281" lon="8.0821977"><ele>352.6666666666667</ele><time>2026-04-25T16:58:49.079Z</time></trkpt><trkpt lat="44.7015215" lon="8.0820473"><ele>348.33333333333337</ele><time>2026-04-25T16:58:50.078Z</time></trkpt><trkpt lat="44.7016129" lon="8.0818859"><ele>344.0</ele><time>2026-04-25T16:58:51.078Z</time></trkpt><trkpt lat="44.7017214" lon="8.0817166"><ele>344.0</ele><time>2026-04-25T16:58:52.079Z</time></trkpt><trkpt lat="44.7018388" lon="8.0815572"><ele>344.0</ele><time>2026-04-25T16:58:53.078Z</time></trkpt><trkpt lat="44.7019617" lon="8.0814022"><ele>344.0</ele><time>2026-04-25T16:58:54.079Z</time></trkpt><trkpt lat="44.7020908" lon="8.0812327"><ele>344.0</ele><time>2026-04-25T16:58:55.078Z</time></trkpt><trkpt lat="44.7022198" lon="8.0810602"><ele>344.0</ele><time>2026-04-25T16:58:56.078Z</time></trkpt><trkpt lat="44.7023407" lon="8.0808964"><ele>344.0</ele><time>2026-04-25T16:58:57.078Z</time></trkpt><trkpt lat="44.7024581" lon="8.0807272"><ele>339.0</ele><time>2026-04-25T16:58:58.079Z</time></trkpt><trkpt lat="44.7025655" lon="8.0805572"><ele>334.0</ele><time>2026-04-25T16:58:59.079Z</time></trkpt><trkpt lat="44.7026649" lon="8.080393"><ele>329.0</ele><time>2026-04-25T16:59:00.079Z</time></trkpt><trkpt lat="44.702722" lon="8.0802145"><ele>328.25</ele><time>2026-04-25T16:59:01.079Z</time></trkpt><trkpt lat="44.7027705" lon="8.0800554"><ele>327.5</ele><time>2026-04-25T16:59:02.079Z</time></trkpt><trkpt lat="44.7028173" lon="8.0799196"><ele>326.75</ele><time>2026-04-25T16:59:03.079Z</time></trkpt><trkpt lat="44.7028693" lon="8.0797757"><ele>326.0</ele><time>2026-04-25T16:59:04.079Z</time></trkpt><trkpt lat="44.7029315" lon="8.0796447"><ele>326.0</ele><time>2026-04-25T16:59:05.079Z</time></trkpt><trkpt lat="44.7030027" lon="8.0795444"><ele>326.0</ele><time>2026-04-25T16:59:06.079Z</time></trkpt><trkpt lat="44.7031123" lon="8.0794889"><ele>326.0</ele><time>2026-04-25T16:59:07.079Z</time></trkpt><trkpt lat="44.7032474" lon="8.0794798"><ele>326.0</ele><time>2026-04-25T16:59:08.079Z</time></trkpt><trkpt lat="44.70336" lon="8.0794842"><ele>326.0</ele><time>2026-04-25T16:59:09.079Z</time></trkpt><trkpt lat="44.7034783" lon="8.0794795"><ele>326.0</ele><time>2026-04-25T16:59:10.079Z</time></trkpt><trkpt lat="44.7035822" lon="8.0795389"><ele>326.0</ele><time>2026-04-25T16:59:11.078Z</time></trkpt><trkpt lat="44.7036775" lon="8.0796192"><ele>326.0</ele><time>2026-04-25T16:59:12.079Z</time></trkpt><trkpt lat="44.7037256" lon="8.0797599"><ele>323.5</ele><time>2026-04-25T16:59:13.078Z</time></trkpt><trkpt lat="44.7037599" lon="8.0799513"><ele>321.0</ele><time>2026-04-25T16:59:14.078Z</time></trkpt><trkpt lat="44.7037791" lon="8.0801173"><ele>318.5</ele><time>2026-04-25T16:59:15.079Z</time></trkpt><trkpt lat="44.7037784" lon="8.0803061"><ele>316.0</ele><time>2026-04-25T16:59:16.079Z</time></trkpt><trkpt lat="44.7037839" lon="8.0804747"><ele>316.0</ele><time>2026-04-25T16:59:17.079Z</time></trkpt><trkpt lat="44.7037912" lon="8.0806619"><ele>316.0</ele><time>2026-04-25T16:59:18.078Z</time></trkpt><trkpt lat="44.7038165" lon="8.0808527"><ele>316.0</ele><time>2026-04-25T16:59:19.078Z</time></trkpt><trkpt lat="44.7038509" lon="8.0810212"><ele>316.0</ele><time>2026-04-25T16:59:20.079Z</time></trkpt><trkpt lat="44.7039351" lon="8.081175"><ele>316.75</ele><time>2026-04-25T16:59:21.079Z</time></trkpt><trkpt lat="44.7040089" lon="8.081302"><ele>317.5</ele><time>2026-04-25T16:59:22.079Z</time></trkpt><trkpt lat="44.7040918" lon="8.0814243"><ele>318.25</ele><time>2026-04-25T16:59:23.079Z</time></trkpt><trkpt lat="44.7041781" lon="8.0815609"><ele>319.0</ele><time>2026-04-25T16:59:24.079Z</time></trkpt><trkpt lat="44.7042839" lon="8.0817001"><ele>320.5</ele><time>2026-04-25T16:59:25.079Z</time></trkpt><trkpt lat="44.7043792" lon="8.0818317"><ele>322.0</ele><time>2026-04-25T16:59:26.078Z</time></trkpt><trkpt lat="44.7044993" lon="8.081949"><ele>323.5</ele><time>2026-04-25T16:59:27.078Z</time></trkpt><trkpt lat="44.7046146" lon="8.08208"><ele>325.0</ele><time>2026-04-25T16:59:28.079Z</time></trkpt><trkpt lat="44.7047261" lon="8.0821744"><ele>324.2</ele><time>2026-04-25T16:59:29.079Z</time></trkpt><trkpt lat="44.7048257" lon="8.0822713"><ele>323.4</ele><time>2026-04-25T16:59:30.079Z</time></trkpt><trkpt lat="44.704887" lon="8.0823313"><ele>322.6</ele><time>2026-04-25T16:59:31.079Z</time></trkpt><trkpt lat="44.7049694" lon="8.0823771"><ele>321.8</ele><time>2026-04-25T16:59:32.078Z</time></trkpt><trkpt lat="44.7050405" lon="8.0824655"><ele>321.0</ele><time>2026-04-25T16:59:33.079Z</time></trkpt><trkpt lat="44.7051096" lon="8.0825377"><ele>321.0</ele><time>2026-04-25T16:59:34.079Z</time></trkpt><trkpt lat="44.7051963" lon="8.0826589"><ele>321.0</ele><time>2026-04-25T16:59:35.078Z</time></trkpt><trkpt lat="44.7052688" lon="8.0827853"><ele>321.0</ele><time>2026-04-25T16:59:36.079Z</time></trkpt><trkpt lat="44.7053447" lon="8.0829231"><ele>321.0</ele><time>2026-04-25T16:59:37.079Z</time></trkpt><trkpt lat="44.7054395" lon="8.0830571"><ele>320.0</ele><time>2026-04-25T16:59:38.079Z</time></trkpt><trkpt lat="44.7055307" lon="8.0831823"><ele>319.0</ele><time>2026-04-25T16:59:39.079Z</time></trkpt><trkpt lat="44.7056113" lon="8.0833312"><ele>318.0</ele><time>2026-04-25T16:59:40.078Z</time></trkpt><trkpt lat="44.7056786" lon="8.0834827"><ele>317.0</ele><time>2026-04-25T16:59:41.079Z</time></trkpt><trkpt lat="44.7057386" lon="8.0836192"><ele>317.0</ele><time>2026-04-25T16:59:42.079Z</time></trkpt><trkpt lat="44.7057964" lon="8.0837792"><ele>317.0</ele><time>2026-04-25T16:59:43.078Z</time></trkpt><trkpt lat="44.7058464" lon="8.0838931"><ele>317.0</ele><time>2026-04-25T16:59:44.078Z</time></trkpt><trkpt lat="44.7058965" lon="8.0840354"><ele>317.0</ele><time>2026-04-25T16:59:45.079Z</time></trkpt><trkpt lat="44.7059511" lon="8.0841777"><ele>317.75</ele><time>2026-04-25T16:59:46.078Z</time></trkpt><trkpt lat="44.7059926" lon="8.0843109"><ele>318.5</ele><time>2026-04-25T16:59:47.078Z</time></trkpt><trkpt lat="44.7060443" lon="8.0844449"><ele>319.25</ele><time>2026-04-25T16:59:48.079Z</time></trkpt><trkpt lat="44.7060954" lon="8.0846042"><ele>320.0</ele><time>2026-04-25T16:59:49.079Z</time></trkpt><trkpt lat="44.7061544" lon="8.0847733"><ele>317.25</ele><time>2026-04-25T16:59:50.079Z</time></trkpt><trkpt lat="44.7062095" lon="8.0849272"><ele>314.5</ele><time>2026-04-25T16:59:51.079Z</time></trkpt><trkpt lat="44.7062672" lon="8.0850927"><ele>311.75</ele><time>2026-04-25T16:59:52.079Z</time></trkpt><trkpt lat="44.7063352" lon="8.0852691"><ele>309.0</ele><time>2026-04-25T16:59:53.079Z</time></trkpt><trkpt lat="44.7064015" lon="8.0854536"><ele>309.0</ele><time>2026-04-25T16:59:54.079Z</time></trkpt><trkpt lat="44.7064903" lon="8.0856609"><ele>309.0</ele><time>2026-04-25T16:59:55.079Z</time></trkpt><trkpt lat="44.7065739" lon="8.0858407"><ele>309.0</ele><time>2026-04-25T16:59:56.079Z</time></trkpt><trkpt lat="44.7066584" lon="8.0859799"><ele>307.75</ele><time>2026-04-25T16:59:57.079Z</time></trkpt><trkpt lat="44.7067501" lon="8.0861303"><ele>306.5</ele><time>2026-04-25T16:59:58.079Z</time></trkpt><trkpt lat="44.7068481" lon="8.0862877"><ele>305.25</ele><time>2026-04-25T16:59:59.078Z</time></trkpt><trkpt lat="44.7069484" lon="8.0864067"><ele>304.0</ele><time>2026-04-25T17:00:00.079Z</time></trkpt><trkpt lat="44.7070525" lon="8.0865402"><ele>307.25</ele><time>2026-04-25T17:00:01.079Z</time></trkpt><trkpt lat="44.7071642" lon="8.0866823"><ele>310.5</ele><time>2026-04-25T17:00:02.079Z</time></trkpt><trkpt lat="44.7072548" lon="8.0867986"><ele>313.75</ele><time>2026-04-25T17:00:03.078Z</time></trkpt><trkpt lat="44.7073236" lon="8.0869125"><ele>317.0</ele><time>2026-04-25T17:00:04.079Z</time></trkpt><trkpt lat="44.7073468" lon="8.0870369"><ele>317.0</ele><time>2026-04-25T17:00:05.079Z</time></trkpt><trkpt lat="44.7073774" lon="8.0871452"><ele>317.0</ele><time>2026-04-25T17:00:06.079Z</time></trkpt><trkpt lat="44.7073661" lon="8.0872531"><ele>317.0</ele><time>2026-04-25T17:00:07.078Z</time></trkpt><trkpt lat="44.7072738" lon="8.0874091"><ele>317.0</ele><time>2026-04-25T17:00:08.079Z</time></trkpt><trkpt lat="44.707213" lon="8.0875443"><ele>317.0</ele><time>2026-04-25T17:00:09.079Z</time></trkpt><trkpt lat="44.7071482" lon="8.0876902"><ele>317.75</ele><time>2026-04-25T17:00:10.079Z</time></trkpt><trkpt lat="44.7070979" lon="8.0878326"><ele>318.5</ele><time>2026-04-25T17:00:11.079Z</time></trkpt><trkpt lat="44.7070552" lon="8.0879787"><ele>319.25</ele><time>2026-04-25T17:00:12.079Z</time></trkpt><trkpt lat="44.7070358" lon="8.0881454"><ele>320.0</ele><time>2026-04-25T17:00:13.079Z</time></trkpt><trkpt lat="44.707053" lon="8.0883252"><ele>320.75</ele><time>2026-04-25T17:00:14.079Z</time></trkpt><trkpt lat="44.7070967" lon="8.0885085"><ele>321.5</ele><time>2026-04-25T17:00:15.079Z</time></trkpt><trkpt lat="44.7071615" lon="8.0886672"><ele>322.25</ele><time>2026-04-25T17:00:16.079Z</time></trkpt><trkpt lat="44.7072497" lon="8.0888406"><ele>323.0</ele><time>2026-04-25T17:00:17.078Z</time></trkpt><trkpt lat="44.7073875" lon="8.088968"><ele>323.75</ele><time>2026-04-25T17:00:18.079Z</time></trkpt><trkpt lat="44.70748" lon="8.0890949"><ele>324.5</ele><time>2026-04-25T17:00:19.079Z</time></trkpt><trkpt lat="44.7075668" lon="8.0892227"><ele>325.25</ele><time>2026-04-25T17:00:20.079Z</time></trkpt><trkpt lat="44.7076438" lon="8.089363"><ele>326.0</ele><time>2026-04-25T17:00:21.078Z</time></trkpt><trkpt lat="44.7077695" lon="8.0894516"><ele>326.0</ele><time>2026-04-25T17:00:22.078Z</time></trkpt><trkpt lat="44.7078907" lon="8.0895335"><ele>326.0</ele><time>2026-04-25T17:00:23.078Z</time></trkpt><trkpt lat="44.7080073" lon="8.0896023"><ele>326.0</ele><time>2026-04-25T17:00:24.078Z</time></trkpt><trkpt lat="44.7081309" lon="8.0896945"><ele>326.0</ele><time>2026-04-25T17:00:25.078Z</time></trkpt><trkpt lat="44.7082556" lon="8.0897911"><ele>326.0</ele><time>2026-04-25T17:00:26.078Z</time></trkpt><trkpt lat="44.70838" lon="8.0899034"><ele>326.0</ele><time>2026-04-25T17:00:27.079Z</time></trkpt><trkpt lat="44.7084702" lon="8.0900286"><ele>326.0</ele><time>2026-04-25T17:00:28.079Z</time></trkpt><trkpt lat="44.7085502" lon="8.0901576"><ele>326.0</ele><time>2026-04-25T17:00:29.079Z</time></trkpt><trkpt lat="44.7086427" lon="8.090262"><ele>324.5</ele><time>2026-04-25T17:00:30.078Z</time></trkpt><trkpt lat="44.7087474" lon="8.090341"><ele>323.0</ele><time>2026-04-25T17:00:31.079Z</time></trkpt><trkpt lat="44.7088406" lon="8.0904116"><ele>321.5</ele><time>2026-04-25T17:00:32.079Z</time></trkpt><trkpt lat="44.7089613" lon="8.0904843"><ele>320.0</ele><time>2026-04-25T17:00:33.079Z</time></trkpt><trkpt lat="44.7090713" lon="8.0905451"><ele>320.0</ele><time>2026-04-25T17:00:34.079Z</time></trkpt><trkpt lat="44.7091769" lon="8.0906083"><ele>320.0</ele><time>2026-04-25T17:00:35.079Z</time></trkpt><trkpt lat="44.7092706" lon="8.0906699"><ele>320.0</ele><time>2026-04-25T17:00:36.079Z</time></trkpt><trkpt lat="44.7093629" lon="8.0907067"><ele>320.0</ele><time>2026-04-25T17:00:37.078Z</time></trkpt><trkpt lat="44.709463" lon="8.0907332"><ele>320.0</ele><time>2026-04-25T17:00:38.079Z</time></trkpt><trkpt lat="44.709553" lon="8.0907282"><ele>319.8</ele><time>2026-04-25T17:00:39.079Z</time></trkpt><trkpt lat="44.7096503" lon="8.0907119"><ele>319.6</ele><time>2026-04-25T17:00:40.079Z</time></trkpt><trkpt lat="44.7097623" lon="8.0907369"><ele>319.4</ele><time>2026-04-25T17:00:41.079Z</time></trkpt><trkpt lat="44.7098671" lon="8.0907704"><ele>319.2</ele><time>2026-04-25T17:00:42.079Z</time></trkpt><trkpt lat="44.7099739" lon="8.0908347"><ele>319.0</ele><time>2026-04-25T17:00:43.078Z</time></trkpt><trkpt lat="44.7100815" lon="8.0909203"><ele>319.0</ele><time>2026-04-25T17:00:44.079Z</time></trkpt><trkpt lat="44.7101957" lon="8.0910172"><ele>319.0</ele><time>2026-04-25T17:00:45.078Z</time></trkpt><trkpt lat="44.7103279" lon="8.0911053"><ele>319.0</ele><time>2026-04-25T17:00:46.079Z</time></trkpt><trkpt lat="44.7104574" lon="8.0911907"><ele>319.0</ele><time>2026-04-25T17:00:47.079Z</time></trkpt><trkpt lat="44.7105863" lon="8.0912663"><ele>316.0</ele><time>2026-04-25T17:00:48.079Z</time></trkpt><trkpt lat="44.7107125" lon="8.0913245"><ele>313.0</ele><time>2026-04-25T17:00:49.079Z</time></trkpt><trkpt lat="44.710839" lon="8.0913644"><ele>310.0</ele><time>2026-04-25T17:00:50.078Z</time></trkpt><trkpt lat="44.7109697" lon="8.0913785"><ele>307.0</ele><time>2026-04-25T17:00:51.079Z</time></trkpt><trkpt lat="44.7111052" lon="8.0913786"><ele>307.0</ele><time>2026-04-25T17:00:52.079Z</time></trkpt><trkpt lat="44.7112411" lon="8.0913318"><ele>307.0</ele><time>2026-04-25T17:00:53.079Z</time></trkpt><trkpt lat="44.7113824" lon="8.0912749"><ele>307.0</ele><time>2026-04-25T17:00:54.079Z</time></trkpt><trkpt lat="44.7115211" lon="8.091181"><ele>307.0</ele><time>2026-04-25T17:00:55.079Z</time></trkpt><trkpt lat="44.7116347" lon="8.0910646"><ele>307.0</ele><time>2026-04-25T17:00:56.079Z</time></trkpt><trkpt lat="44.7117554" lon="8.0909285"><ele>307.0</ele><time>2026-04-25T17:00:57.079Z</time></trkpt><trkpt lat="44.7118677" lon="8.0907781"><ele>307.0</ele><time>2026-04-25T17:00:58.079Z</time></trkpt><trkpt lat="44.7119685" lon="8.0906098"><ele>306.3333333333333</ele><time>2026-04-25T17:00:59.079Z</time></trkpt><trkpt lat="44.7120527" lon="8.0904195"><ele>305.6666666666667</ele><time>2026-04-25T17:01:00.078Z</time></trkpt><trkpt lat="44.7121541" lon="8.0902447"><ele>305.0</ele><time>2026-04-25T17:01:01.078Z</time></trkpt><trkpt lat="44.712231" lon="8.0900597"><ele>303.33333333333337</ele><time>2026-04-25T17:01:02.079Z</time></trkpt><trkpt lat="44.7123197" lon="8.0898634"><ele>301.6666666666667</ele><time>2026-04-25T17:01:03.079Z</time></trkpt><trkpt lat="44.7124171" lon="8.0896886"><ele>300.0</ele><time>2026-04-25T17:01:04.079Z</time></trkpt><trkpt lat="44.7125187" lon="8.089502"><ele>300.0</ele><time>2026-04-25T17:01:05.079Z</time></trkpt><trkpt lat="44.7126432" lon="8.0893461"><ele>300.0</ele><time>2026-04-25T17:01:06.079Z</time></trkpt><trkpt lat="44.712755" lon="8.0891551"><ele>300.0</ele><time>2026-04-25T17:01:07.078Z</time></trkpt><trkpt lat="44.7128771" lon="8.088979"><ele>297.6666666666667</ele><time>2026-04-25T17:01:08.079Z</time></trkpt><trkpt lat="44.7129775" lon="8.0888119"><ele>295.33333333333337</ele><time>2026-04-25T17:01:09.079Z</time></trkpt><trkpt lat="44.713085" lon="8.0886378"><ele>293.0</ele><time>2026-04-25T17:01:10.079Z</time></trkpt><trkpt lat="44.7131791" lon="8.088446"><ele>293.0</ele><time>2026-04-25T17:01:11.079Z</time></trkpt><trkpt lat="44.713286" lon="8.0882869"><ele>293.0</ele><time>2026-04-25T17:01:12.079Z</time></trkpt><trkpt lat="44.7133782" lon="8.0880774"><ele>293.0</ele><time>2026-04-25T17:01:13.079Z</time></trkpt><trkpt lat="44.7133948" lon="8.0879059"><ele>291.6666666666667</ele><time>2026-04-25T17:01:14.079Z</time></trkpt><trkpt lat="44.7134607" lon="8.0877043"><ele>290.3333333333333</ele><time>2026-04-25T17:01:15.079Z</time></trkpt><trkpt lat="44.7135209" lon="8.0875125"><ele>289.0</ele><time>2026-04-25T17:01:16.079Z</time></trkpt><trkpt lat="44.7135926" lon="8.0872934"><ele>288.3333333333333</ele><time>2026-04-25T17:01:17.079Z</time></trkpt><trkpt lat="44.7136697" lon="8.0871149"><ele>287.6666666666667</ele><time>2026-04-25T17:01:18.079Z</time></trkpt><trkpt lat="44.7137642" lon="8.0869139"><ele>287.0</ele><time>2026-04-25T17:01:19.079Z</time></trkpt><trkpt lat="44.7138387" lon="8.0867245"><ele>288.6666666666667</ele><time>2026-04-25T17:01:20.079Z</time></trkpt><trkpt lat="44.7139359" lon="8.0865213"><ele>290.3333333333333</ele><time>2026-04-25T17:01:21.079Z</time></trkpt><trkpt lat="44.7140217" lon="8.0863236"><ele>292.0</ele><time>2026-04-25T17:01:22.079Z</time></trkpt><trkpt lat="44.714097" lon="8.0861321"><ele>292.0</ele><time>2026-04-25T17:01:23.079Z</time></trkpt><trkpt lat="44.7141872" lon="8.0859646"><ele>292.0</ele><time>2026-04-25T17:01:24.079Z</time></trkpt><trkpt lat="44.71427" lon="8.0857931"><ele>292.0</ele><time>2026-04-25T17:01:25.079Z</time></trkpt><trkpt lat="44.7143611" lon="8.0856411"><ele>292.0</ele><time>2026-04-25T17:01:26.079Z</time></trkpt><trkpt lat="44.7144676" lon="8.0855089"><ele>293.75</ele><time>2026-04-25T17:01:27.078Z</time></trkpt><trkpt lat="44.714564" lon="8.0853799"><ele>295.5</ele><time>2026-04-25T17:01:28.079Z</time></trkpt><trkpt lat="44.7147012" lon="8.0853086"><ele>297.25</ele><time>2026-04-25T17:01:29.079Z</time></trkpt><trkpt lat="44.7148354" lon="8.0852516"><ele>299.0</ele><time>2026-04-25T17:01:30.079Z</time></trkpt><trkpt lat="44.7149694" lon="8.0852021"><ele>299.0</ele><time>2026-04-25T17:01:31.079Z</time></trkpt><trkpt lat="44.7151073" lon="8.0851247"><ele>299.0</ele><time>2026-04-25T17:01:32.079Z</time></trkpt><trkpt lat="44.7152345" lon="8.0850174"><ele>299.0</ele><time>2026-04-25T17:01:33.079Z</time></trkpt><trkpt lat="44.7153436" lon="8.0848928"><ele>299.0</ele><time>2026-04-25T17:01:34.079Z</time></trkpt><trkpt lat="44.7154457" lon="8.084774"><ele>297.25</ele><time>2026-04-25T17:01:35.079Z</time></trkpt><trkpt lat="44.715555" lon="8.0846977"><ele>295.5</ele><time>2026-04-25T17:01:36.079Z</time></trkpt><trkpt lat="44.715678" lon="8.0846163"><ele>293.75</ele><time>2026-04-25T17:01:37.079Z</time></trkpt><trkpt lat="44.7158095" lon="8.0846222"><ele>292.0</ele><time>2026-04-25T17:01:38.078Z</time></trkpt><trkpt lat="44.7159472" lon="8.0846525"><ele>292.0</ele><time>2026-04-25T17:01:39.079Z</time></trkpt><trkpt lat="44.7160784" lon="8.0847201"><ele>292.0</ele><time>2026-04-25T17:01:40.079Z</time></trkpt><trkpt lat="44.7162136" lon="8.0848134"><ele>292.0</ele><time>2026-04-25T17:01:41.078Z</time></trkpt><trkpt lat="44.7163468" lon="8.0849058"><ele>292.0</ele><time>2026-04-25T17:01:42.079Z</time></trkpt><trkpt lat="44.7164742" lon="8.0849793"><ele>292.0</ele><time>2026-04-25T17:01:43.079Z</time></trkpt><trkpt lat="44.7166053" lon="8.0850414"><ele>292.0</ele><time>2026-04-25T17:01:44.078Z</time></trkpt><trkpt lat="44.7167345" lon="8.0850808"><ele>292.0</ele><time>2026-04-25T17:01:45.078Z</time></trkpt><trkpt lat="44.7168674" lon="8.085111"><ele>292.0</ele><time>2026-04-25T17:01:46.079Z</time></trkpt><trkpt lat="44.7170122" lon="8.0850926"><ele>291.3333333333333</ele><time>2026-04-25T17:01:47.079Z</time></trkpt><trkpt lat="44.7171403" lon="8.085067"><ele>290.6666666666667</ele><time>2026-04-25T17:01:48.079Z</time></trkpt><trkpt lat="44.7173041" lon="8.0849849"><ele>290.0</ele><time>2026-04-25T17:01:49.079Z</time></trkpt><trkpt lat="44.7174758" lon="8.0849057"><ele>290.0</ele><time>2026-04-25T17:01:50.079Z</time></trkpt><trkpt lat="44.7176535" lon="8.0848636"><ele>290.0</ele><time>2026-04-25T17:01:51.079Z</time></trkpt><trkpt lat="44.7178316" lon="8.0848365"><ele>290.0</ele><time>2026-04-25T17:01:52.079Z</time></trkpt><trkpt lat="44.718007" lon="8.0848135"><ele>286.33333333333337</ele><time>2026-04-25T17:01:53.078Z</time></trkpt><trkpt lat="44.7181816" lon="8.0848058"><ele>282.6666666666667</ele><time>2026-04-25T17:01:54.078Z</time></trkpt><trkpt lat="44.7183426" lon="8.0847977"><ele>279.0</ele><time>2026-04-25T17:01:55.078Z</time></trkpt><trkpt lat="44.7185063" lon="8.0847769"><ele>277.25</ele><time>2026-04-25T17:01:56.079Z</time></trkpt><trkpt lat="44.7186678" lon="8.0847769"><ele>275.5</ele><time>2026-04-25T17:01:57.079Z</time></trkpt><trkpt lat="44.7188061" lon="8.0847658"><ele>273.75</ele><time>2026-04-25T17:01:58.078Z</time></trkpt><trkpt lat="44.7189383" lon="8.084742"><ele>272.0</ele><time>2026-04-25T17:01:59.079Z</time></trkpt><trkpt lat="44.7190874" lon="8.0847163"><ele>272.0</ele><time>2026-04-25T17:02:00.079Z</time></trkpt><trkpt lat="44.7192067" lon="8.0846985"><ele>272.0</ele><time>2026-04-25T17:02:01.079Z</time></trkpt><trkpt lat="44.7193388" lon="8.0846742"><ele>272.0</ele><time>2026-04-25T17:02:02.078Z</time></trkpt><trkpt lat="44.7194787" lon="8.0846472"><ele>272.0</ele><time>2026-04-25T17:02:03.079Z</time></trkpt><trkpt lat="44.7196031" lon="8.084618"><ele>272.25</ele><time>2026-04-25T17:02:04.079Z</time></trkpt><trkpt lat="44.7197372" lon="8.0845655"><ele>272.5</ele><time>2026-04-25T17:02:05.079Z</time></trkpt><trkpt lat="44.7198676" lon="8.0845118"><ele>272.75</ele><time>2026-04-25T17:02:06.079Z</time></trkpt><trkpt lat="44.720001" lon="8.0844332"><ele>273.0</ele><time>2026-04-25T17:02:07.078Z</time></trkpt><trkpt lat="44.7201167" lon="8.084361"><ele>273.0</ele><time>2026-04-25T17:02:08.078Z</time></trkpt><trkpt lat="44.7202193" lon="8.0842647"><ele>273.0</ele><time>2026-04-25T17:02:09.078Z</time></trkpt><trkpt lat="44.7203135" lon="8.0841418"><ele>273.0</ele><time>2026-04-25T17:02:10.079Z</time></trkpt><trkpt lat="44.7203907" lon="8.084029"><ele>273.0</ele><time>2026-04-25T17:02:11.079Z</time></trkpt><trkpt lat="44.7204666" lon="8.0839314"><ele>270.75</ele><time>2026-04-25T17:02:12.078Z</time></trkpt><trkpt lat="44.7205508" lon="8.0838411"><ele>268.5</ele><time>2026-04-25T17:02:13.078Z</time></trkpt><trkpt lat="44.7206483" lon="8.0837982"><ele>266.25</ele><time>2026-04-25T17:02:14.079Z</time></trkpt><trkpt lat="44.7207703" lon="8.0837841"><ele>264.0</ele><time>2026-04-25T17:02:15.078Z</time></trkpt><trkpt lat="44.7208978" lon="8.0837903"><ele>264.0</ele><time>2026-04-25T17:02:16.078Z</time></trkpt><trkpt lat="44.7210404" lon="8.0838065"><ele>264.0</ele><time>2026-04-25T17:02:17.078Z</time></trkpt><trkpt lat="44.7211869" lon="8.0838275"><ele>264.0</ele><time>2026-04-25T17:02:18.079Z</time></trkpt><trkpt lat="44.7213236" lon="8.0838399"><ele>264.0</ele><time>2026-04-25T17:02:19.079Z</time></trkpt><trkpt lat="44.7214339" lon="8.0838771"><ele>263.0</ele><time>2026-04-25T17:02:20.079Z</time></trkpt><trkpt lat="44.721556" lon="8.0839092"><ele>262.0</ele><time>2026-04-25T17:02:21.079Z</time></trkpt><trkpt lat="44.7216686" lon="8.0839241"><ele>261.0</ele><time>2026-04-25T17:02:22.079Z</time></trkpt><trkpt lat="44.7217968" lon="8.0839573"><ele>260.0</ele><time>2026-04-25T17:02:23.079Z</time></trkpt><trkpt lat="44.7219343" lon="8.0840153"><ele>259.5</ele><time>2026-04-25T17:02:25.078Z</time></trkpt><trkpt lat="44.722029" lon="8.0840101"><ele>259.0</ele><time>2026-04-25T17:02:26.078Z</time></trkpt><trkpt lat="44.7221403" lon="8.083965"><ele>258.5</ele><time>2026-04-25T17:02:27.078Z</time></trkpt><trkpt lat="44.7222599" lon="8.0839122"><ele>258.0</ele><time>2026-04-25T17:02:28.079Z</time></trkpt><trkpt lat="44.7223754" lon="8.0838423"><ele>258.0</ele><time>2026-04-25T17:02:29.079Z</time></trkpt><trkpt lat="44.7224875" lon="8.0837683"><ele>258.0</ele><time>2026-04-25T17:02:30.079Z</time></trkpt><trkpt lat="44.7226024" lon="8.0837101"><ele>258.0</ele><time>2026-04-25T17:02:31.079Z</time></trkpt><trkpt lat="44.7227216" lon="8.083644"><ele>258.0</ele><time>2026-04-25T17:02:32.079Z</time></trkpt><trkpt lat="44.7228602" lon="8.0835863"><ele>260.0</ele><time>2026-04-25T17:02:33.079Z</time></trkpt><trkpt lat="44.7230056" lon="8.0835478"><ele>262.0</ele><time>2026-04-25T17:02:34.079Z</time></trkpt><trkpt lat="44.7231587" lon="8.0835307"><ele>264.0</ele><time>2026-04-25T17:02:35.078Z</time></trkpt><trkpt lat="44.7233018" lon="8.083566"><ele>266.0</ele><time>2026-04-25T17:02:36.079Z</time></trkpt><trkpt lat="44.7234347" lon="8.0836074"><ele>271.6666666666667</ele><time>2026-04-25T17:02:37.079Z</time></trkpt><trkpt lat="44.7235819" lon="8.0836829"><ele>277.3333333333333</ele><time>2026-04-25T17:02:38.079Z</time></trkpt><trkpt lat="44.7237145" lon="8.0837796"><ele>283.0</ele><time>2026-04-25T17:02:39.078Z</time></trkpt><trkpt lat="44.7238645" lon="8.0838704"><ele>283.0</ele><time>2026-04-25T17:02:40.078Z</time></trkpt><trkpt lat="44.7240162" lon="8.0839638"><ele>283.0</ele><time>2026-04-25T17:02:41.079Z</time></trkpt><trkpt lat="44.7241658" lon="8.0840552"><ele>283.0</ele><time>2026-04-25T17:02:42.079Z</time></trkpt><trkpt lat="44.7243207" lon="8.0841541"><ele>279.0</ele><time>2026-04-25T17:02:43.078Z</time></trkpt><trkpt lat="44.7244526" lon="8.0842208"><ele>275.0</ele><time>2026-04-25T17:02:44.079Z</time></trkpt><trkpt lat="44.724593" lon="8.0842867"><ele>271.0</ele><time>2026-04-25T17:02:45.078Z</time></trkpt><trkpt lat="44.7247511" lon="8.0843441"><ele>271.0</ele><time>2026-04-25T17:02:46.079Z</time></trkpt><trkpt lat="44.7249004" lon="8.0843919"><ele>271.0</ele><time>2026-04-25T17:02:47.078Z</time></trkpt><trkpt lat="44.7250529" lon="8.084434"><ele>271.0</ele><time>2026-04-25T17:02:48.079Z</time></trkpt><trkpt lat="44.7252099" lon="8.0844877"><ele>268.0</ele><time>2026-04-25T17:02:49.078Z</time></trkpt><trkpt lat="44.7253635" lon="8.0845432"><ele>265.0</ele><time>2026-04-25T17:02:50.079Z</time></trkpt><trkpt lat="44.7255213" lon="8.0846074"><ele>262.0</ele><time>2026-04-25T17:02:51.079Z</time></trkpt><trkpt lat="44.7256667" lon="8.0846665"><ele>262.0</ele><time>2026-04-25T17:02:52.078Z</time></trkpt><trkpt lat="44.7258199" lon="8.0847423"><ele>262.0</ele><time>2026-04-25T17:02:53.079Z</time></trkpt><trkpt lat="44.7259655" lon="8.0848151"><ele>262.0</ele><time>2026-04-25T17:02:54.078Z</time></trkpt><trkpt lat="44.7261031" lon="8.0848871"><ele>262.0</ele><time>2026-04-25T17:02:55.079Z</time></trkpt><trkpt lat="44.726241" lon="8.0849543"><ele>262.0</ele><time>2026-04-25T17:02:56.078Z</time></trkpt><trkpt lat="44.7263817" lon="8.0850226"><ele>262.0</ele><time>2026-04-25T17:02:57.079Z</time></trkpt><trkpt lat="44.7265212" lon="8.0850873"><ele>262.0</ele><time>2026-04-25T17:02:58.079Z</time></trkpt><trkpt lat="44.7266651" lon="8.0851488"><ele>262.0</ele><time>2026-04-25T17:02:59.078Z</time></trkpt><trkpt lat="44.7268078" lon="8.0852202"><ele>262.0</ele><time>2026-04-25T17:03:00.079Z</time></trkpt><trkpt lat="44.7269436" lon="8.0852848"><ele>262.0</ele><time>2026-04-25T17:03:01.079Z</time></trkpt><trkpt lat="44.7270854" lon="8.0853508"><ele>262.0</ele><time>2026-04-25T17:03:02.078Z</time></trkpt><trkpt lat="44.7272197" lon="8.0854225"><ele>261.25</ele><time>2026-04-25T17:03:03.078Z</time></trkpt><trkpt lat="44.7273456" lon="8.0854963"><ele>260.5</ele><time>2026-04-25T17:03:04.079Z</time></trkpt><trkpt lat="44.7274778" lon="8.0855586"><ele>259.75</ele><time>2026-04-25T17:03:05.079Z</time></trkpt><trkpt lat="44.7276187" lon="8.0856368"><ele>259.0</ele><time>2026-04-25T17:03:06.078Z</time></trkpt><trkpt lat="44.727764" lon="8.0857133"><ele>258.75</ele><time>2026-04-25T17:03:07.078Z</time></trkpt><trkpt lat="44.7279029" lon="8.0857914"><ele>258.5</ele><time>2026-04-25T17:03:08.079Z</time></trkpt><trkpt lat="44.7280354" lon="8.0858736"><ele>258.25</ele><time>2026-04-25T17:03:09.078Z</time></trkpt><trkpt lat="44.728171" lon="8.0859511"><ele>258.0</ele><time>2026-04-25T17:03:10.079Z</time></trkpt><trkpt lat="44.7282883" lon="8.0860765"><ele>258.0</ele><time>2026-04-25T17:03:11.078Z</time></trkpt><trkpt lat="44.7284167" lon="8.0861828"><ele>258.0</ele><time>2026-04-25T17:03:12.078Z</time></trkpt><trkpt lat="44.7285585" lon="8.0862899"><ele>258.0</ele><time>2026-04-25T17:03:13.079Z</time></trkpt><trkpt lat="44.7287003" lon="8.0863902"><ele>256.0</ele><time>2026-04-25T17:03:14.079Z</time></trkpt><trkpt lat="44.728844" lon="8.0864898"><ele>254.0</ele><time>2026-04-25T17:03:15.079Z</time></trkpt><trkpt lat="44.728987" lon="8.0865654"><ele>252.0</ele><time>2026-04-25T17:03:16.079Z</time></trkpt><trkpt lat="44.7291294" lon="8.0866186"><ele>257.6666666666667</ele><time>2026-04-25T17:03:17.079Z</time></trkpt><trkpt lat="44.7293085" lon="8.0866202"><ele>263.33333333333337</ele><time>2026-04-25T17:03:18.079Z</time></trkpt><trkpt lat="44.7294995" lon="8.0865996"><ele>269.0</ele><time>2026-04-25T17:03:19.079Z</time></trkpt><trkpt lat="44.7296521" lon="8.0866084"><ele>270.0</ele><time>2026-04-25T17:03:20.078Z</time></trkpt><trkpt lat="44.7298194" lon="8.0866118"><ele>271.0</ele><time>2026-04-25T17:03:21.078Z</time></trkpt><trkpt lat="44.7299675" lon="8.0866356"><ele>272.0</ele><time>2026-04-25T17:03:22.079Z</time></trkpt><trkpt lat="44.7301219" lon="8.0866557"><ele>272.75</ele><time>2026-04-25T17:03:23.079Z</time></trkpt><trkpt lat="44.7302682" lon="8.0867035"><ele>273.5</ele><time>2026-04-25T17:03:24.079Z</time></trkpt><trkpt lat="44.730405" lon="8.0867635"><ele>274.25</ele><time>2026-04-25T17:03:25.079Z</time></trkpt><trkpt lat="44.7305352" lon="8.0868327"><ele>275.0</ele><time>2026-04-25T17:03:26.079Z</time></trkpt><trkpt lat="44.7306679" lon="8.0869201"><ele>275.0</ele><time>2026-04-25T17:03:27.078Z</time></trkpt><trkpt lat="44.7307937" lon="8.0870041"><ele>275.0</ele><time>2026-04-25T17:03:28.079Z</time></trkpt><trkpt lat="44.7309453" lon="8.0870939"><ele>275.0</ele><time>2026-04-25T17:03:29.078Z</time></trkpt><trkpt lat="44.7310983" lon="8.0871889"><ele>276.33333333333337</ele><time>2026-04-25T17:03:30.079Z</time></trkpt><trkpt lat="44.7312444" lon="8.0872882"><ele>277.6666666666667</ele><time>2026-04-25T17:03:31.079Z</time></trkpt><trkpt lat="44.7313977" lon="8.0873813"><ele>279.0</ele><time>2026-04-25T17:03:32.078Z</time></trkpt><trkpt lat="44.7315408" lon="8.0874647"><ele>275.0</ele><time>2026-04-25T17:03:33.079Z</time></trkpt><trkpt lat="44.731693" lon="8.0875318"><ele>271.0</ele><time>2026-04-25T17:03:34.078Z</time></trkpt><trkpt lat="44.7318555" lon="8.0875921"><ele>267.0</ele><time>2026-04-25T17:03:35.079Z</time></trkpt><trkpt lat="44.7320106" lon="8.0876355"><ele>265.3333333333333</ele><time>2026-04-25T17:03:36.079Z</time></trkpt><trkpt lat="44.7321989" lon="8.087645"><ele>263.66666666666663</ele><time>2026-04-25T17:03:37.079Z</time></trkpt><trkpt lat="44.732371" lon="8.087666"><ele>262.0</ele><time>2026-04-25T17:03:38.079Z</time></trkpt><trkpt lat="44.7325411" lon="8.0876844"><ele>262.0</ele><time>2026-04-25T17:03:39.078Z</time></trkpt><trkpt lat="44.7327102" lon="8.0877004"><ele>262.0</ele><time>2026-04-25T17:03:40.078Z</time></trkpt><trkpt lat="44.7328847" lon="8.0877265"><ele>262.0</ele><time>2026-04-25T17:03:41.079Z</time></trkpt><trkpt lat="44.7330577" lon="8.0877756"><ele>260.0</ele><time>2026-04-25T17:03:42.078Z</time></trkpt><trkpt lat="44.7332309" lon="8.0878369"><ele>258.0</ele><time>2026-04-25T17:03:43.079Z</time></trkpt><trkpt lat="44.7333877" lon="8.0879165"><ele>256.0</ele><time>2026-04-25T17:03:44.079Z</time></trkpt><trkpt lat="44.7335457" lon="8.0879946"><ele>255.33333333333331</ele><time>2026-04-25T17:03:45.078Z</time></trkpt><trkpt lat="44.7337053" lon="8.0880608"><ele>254.66666666666669</ele><time>2026-04-25T17:03:46.079Z</time></trkpt><trkpt lat="44.7338795" lon="8.0881443"><ele>254.0</ele><time>2026-04-25T17:03:47.079Z</time></trkpt><trkpt lat="44.7340446" lon="8.0882168"><ele>250.33333333333334</ele><time>2026-04-25T17:03:48.079Z</time></trkpt><trkpt lat="44.7342035" lon="8.0882863"><ele>246.66666666666669</ele><time>2026-04-25T17:03:49.078Z</time></trkpt><trkpt lat="44.7343594" lon="8.0883533"><ele>243.0</ele><time>2026-04-25T17:03:50.079Z</time></trkpt><trkpt lat="44.7345119" lon="8.088437"><ele>242.0</ele><time>2026-04-25T17:03:51.079Z</time></trkpt><trkpt lat="44.7346646" lon="8.088515"><ele>241.0</ele><time>2026-04-25T17:03:52.079Z</time></trkpt><trkpt lat="44.7348151" lon="8.0885848"><ele>240.0</ele><time>2026-04-25T17:03:53.079Z</time></trkpt><trkpt lat="44.734951" lon="8.0886475"><ele>240.0</ele><time>2026-04-25T17:03:54.078Z</time></trkpt><trkpt lat="44.7350917" lon="8.0887106"><ele>240.0</ele><time>2026-04-25T17:03:55.079Z</time></trkpt><trkpt lat="44.7352186" lon="8.0887653"><ele>240.0</ele><time>2026-04-25T17:03:56.078Z</time></trkpt><trkpt lat="44.7353325" lon="8.0888"><ele>240.0</ele><time>2026-04-25T17:03:57.079Z</time></trkpt><trkpt lat="44.7354469" lon="8.0888108"><ele>238.2</ele><time>2026-04-25T17:03:58.079Z</time></trkpt><trkpt lat="44.7355538" lon="8.0887269"><ele>236.4</ele><time>2026-04-25T17:03:59.079Z</time></trkpt><trkpt lat="44.7356531" lon="8.0886528"><ele>234.60000000000002</ele><time>2026-04-25T17:04:00.078Z</time></trkpt><trkpt lat="44.7357471" lon="8.0885883"><ele>232.8</ele><time>2026-04-25T17:04:01.079Z</time></trkpt><trkpt lat="44.7358153" lon="8.0885724"><ele>231.0</ele><time>2026-04-25T17:04:02.079Z</time></trkpt><trkpt lat="44.7358962" lon="8.0885737"><ele>231.0</ele><time>2026-04-25T17:04:03.079Z</time></trkpt><trkpt lat="44.7359594" lon="8.088628"><ele>231.0</ele><time>2026-04-25T17:04:04.078Z</time></trkpt><trkpt lat="44.7360065" lon="8.0887237"><ele>231.0</ele><time>2026-04-25T17:04:05.078Z</time></trkpt><trkpt lat="44.7360093" lon="8.0888236"><ele>231.0</ele><time>2026-04-25T17:04:06.078Z</time></trkpt><trkpt lat="44.7360056" lon="8.0889179"><ele>231.0</ele><time>2026-04-25T17:04:07.079Z</time></trkpt><trkpt lat="44.7359089" lon="8.0890127"><ele>231.0</ele><time>2026-04-25T17:04:08.079Z</time></trkpt><trkpt lat="44.735838" lon="8.0891159"><ele>228.5</ele><time>2026-04-25T17:04:09.079Z</time></trkpt><trkpt lat="44.7357411" lon="8.0891944"><ele>226.0</ele><time>2026-04-25T17:04:10.079Z</time></trkpt><trkpt lat="44.735585" lon="8.0892522"><ele>223.5</ele><time>2026-04-25T17:04:11.079Z</time></trkpt><trkpt lat="44.7354487" lon="8.089335"><ele>221.0</ele><time>2026-04-25T17:04:12.079Z</time></trkpt><trkpt lat="44.7353258" lon="8.0894266"><ele>222.75</ele><time>2026-04-25T17:04:13.079Z</time></trkpt><trkpt lat="44.7352202" lon="8.0895508"><ele>224.5</ele><time>2026-04-25T17:04:14.079Z</time></trkpt><trkpt lat="44.7351239" lon="8.089684"><ele>226.25</ele><time>2026-04-25T17:04:15.078Z</time></trkpt><trkpt lat="44.7350192" lon="8.0898342"><ele>228.0</ele><time>2026-04-25T17:04:16.079Z</time></trkpt><trkpt lat="44.7349344" lon="8.0899655"><ele>224.5</ele><time>2026-04-25T17:04:17.079Z</time></trkpt><trkpt lat="44.7348551" lon="8.0900586"><ele>221.0</ele><time>2026-04-25T17:04:18.079Z</time></trkpt><trkpt lat="44.7347544" lon="8.0901183"><ele>217.5</ele><time>2026-04-25T17:04:19.079Z</time></trkpt><trkpt lat="44.7346556" lon="8.0901662"><ele>214.0</ele><time>2026-04-25T17:04:20.078Z</time></trkpt><trkpt lat="44.7345218" lon="8.0900975"><ele>214.0</ele><time>2026-04-25T17:04:21.079Z</time></trkpt><trkpt lat="44.7343973" lon="8.0900288"><ele>214.0</ele><time>2026-04-25T17:04:22.079Z</time></trkpt><trkpt lat="44.7342783" lon="8.0899629"><ele>214.0</ele><time>2026-04-25T17:04:23.079Z</time></trkpt><trkpt lat="44.7341622" lon="8.0899063"><ele>214.0</ele><time>2026-04-25T17:04:24.079Z</time></trkpt><trkpt lat="44.7340293" lon="8.0898801"><ele>213.5</ele><time>2026-04-25T17:04:25.079Z</time></trkpt><trkpt lat="44.7339073" lon="8.0899224"><ele>213.0</ele><time>2026-04-25T17:04:26.078Z</time></trkpt><trkpt lat="44.73378" lon="8.0900016"><ele>212.5</ele><time>2026-04-25T17:04:27.079Z</time></trkpt><trkpt lat="44.7336576" lon="8.0901255"><ele>212.0</ele><time>2026-04-25T17:04:28.079Z</time></trkpt><trkpt lat="44.7335504" lon="8.0902629"><ele>212.0</ele><time>2026-04-25T17:04:29.079Z</time></trkpt><trkpt lat="44.7334334" lon="8.0903885"><ele>212.0</ele><time>2026-04-25T17:04:30.078Z</time></trkpt><trkpt lat="44.7333201" lon="8.0905228"><ele>212.0</ele><time>2026-04-25T17:04:31.078Z</time></trkpt><trkpt lat="44.7332092" lon="8.0906531"><ele>212.0</ele><time>2026-04-25T17:04:32.078Z</time></trkpt><trkpt lat="44.7331069" lon="8.090775"><ele>210.25</ele><time>2026-04-25T17:04:33.079Z</time></trkpt><trkpt lat="44.7330022" lon="8.090888"><ele>208.5</ele><time>2026-04-25T17:04:34.079Z</time></trkpt><trkpt lat="44.732892" lon="8.0910246"><ele>206.75</ele><time>2026-04-25T17:04:35.079Z</time></trkpt><trkpt lat="44.7327951" lon="8.0911578"><ele>205.0</ele><time>2026-04-25T17:04:36.078Z</time></trkpt><trkpt lat="44.7327225" lon="8.0912721"><ele>205.0</ele><time>2026-04-25T17:04:37.079Z</time></trkpt><trkpt lat="44.7326258" lon="8.0913959"><ele>205.0</ele><time>2026-04-25T17:04:38.079Z</time></trkpt><trkpt lat="44.7325465" lon="8.0915177"><ele>205.0</ele><time>2026-04-25T17:04:39.079Z</time></trkpt><trkpt lat="44.7324489" lon="8.0916348"><ele>205.0</ele><time>2026-04-25T17:04:40.079Z</time></trkpt><trkpt lat="44.7323452" lon="8.0917266"><ele>202.0</ele><time>2026-04-25T17:04:41.078Z</time></trkpt><trkpt lat="44.7322433" lon="8.0917697"><ele>199.0</ele><time>2026-04-25T17:04:42.078Z</time></trkpt><trkpt lat="44.7321335" lon="8.0917827"><ele>196.0</ele><time>2026-04-25T17:04:43.079Z</time></trkpt><trkpt lat="44.7320077" lon="8.0918068"><ele>193.0</ele><time>2026-04-25T17:04:44.079Z</time></trkpt><trkpt lat="44.7318845" lon="8.0918799"><ele>192.25</ele><time>2026-04-25T17:04:45.079Z</time></trkpt><trkpt lat="44.7317526" lon="8.0919466"><ele>191.5</ele><time>2026-04-25T17:04:46.079Z</time></trkpt><trkpt lat="44.7316287" lon="8.0920922"><ele>190.75</ele><time>2026-04-25T17:04:47.079Z</time></trkpt><trkpt lat="44.731519" lon="8.092214"><ele>190.0</ele><time>2026-04-25T17:04:48.078Z</time></trkpt><trkpt lat="44.7314199" lon="8.0923333"><ele>188.75</ele><time>2026-04-25T17:04:49.078Z</time></trkpt><trkpt lat="44.7313356" lon="8.0924516"><ele>187.5</ele><time>2026-04-25T17:04:50.079Z</time></trkpt><trkpt lat="44.7312384" lon="8.0925486"><ele>186.25</ele><time>2026-04-25T17:04:51.079Z</time></trkpt><trkpt lat="44.7311448" lon="8.0926303"><ele>185.0</ele><time>2026-04-25T17:04:52.079Z</time></trkpt><trkpt lat="44.7310487" lon="8.0927174"><ele>185.0</ele><time>2026-04-25T17:04:53.079Z</time></trkpt><trkpt lat="44.7309388" lon="8.0927869"><ele>185.0</ele><time>2026-04-25T17:04:54.079Z</time></trkpt><trkpt lat="44.730825" lon="8.0928432"><ele>185.0</ele><time>2026-04-25T17:04:55.079Z</time></trkpt><trkpt lat="44.7307131" lon="8.0928789"><ele>185.0</ele><time>2026-04-25T17:04:56.079Z</time></trkpt><trkpt lat="44.7305947" lon="8.0929275"><ele>185.0</ele><time>2026-04-25T17:04:57.079Z</time></trkpt><trkpt lat="44.7305167" lon="8.0930165"><ele>185.0</ele><time>2026-04-25T17:04:58.079Z</time></trkpt><trkpt lat="44.7304541" lon="8.0931189"><ele>185.0</ele><time>2026-04-25T17:04:59.079Z</time></trkpt><trkpt lat="44.7303855" lon="8.0932531"><ele>185.0</ele><time>2026-04-25T17:05:00.079Z</time></trkpt><trkpt lat="44.7303375" lon="8.0933782"><ele>185.0</ele><time>2026-04-25T17:05:01.079Z</time></trkpt><trkpt lat="44.7303451" lon="8.0935377"><ele>183.0</ele><time>2026-04-25T17:05:02.078Z</time></trkpt><trkpt lat="44.7303493" lon="8.0936698"><ele>181.0</ele><time>2026-04-25T17:05:03.079Z</time></trkpt><trkpt lat="44.7303359" lon="8.0938145"><ele>179.0</ele><time>2026-04-25T17:05:04.079Z</time></trkpt><trkpt lat="44.7303286" lon="8.0939268"><ele>177.0</ele><time>2026-04-25T17:05:05.079Z</time></trkpt><trkpt lat="44.7303048" lon="8.0940565"><ele>175.0</ele><time>2026-04-25T17:05:06.078Z</time></trkpt><trkpt lat="44.7302926" lon="8.094151"><ele>173.0</ele><time>2026-04-25T17:05:07.079Z</time></trkpt><trkpt lat="44.7302952" lon="8.0942562"><ele>172.0</ele><time>2026-04-25T17:05:10.079Z</time></trkpt><trkpt lat="44.7304045" lon="8.094365"><ele>171.0</ele><time>2026-04-25T17:05:15.078Z</time></trkpt><trkpt lat="44.7305473" lon="8.0944137"><ele>170.0</ele><time>2026-04-25T17:05:17.079Z</time></trkpt><trkpt lat="44.7306639" lon="8.0944199"><ele>169.0</ele><time>2026-04-25T17:05:18.078Z</time></trkpt><trkpt lat="44.730787" lon="8.0944181"><ele>169.0</ele><time>2026-04-25T17:05:19.078Z</time></trkpt><trkpt lat="44.7309928" lon="8.0943839"><ele>169.0</ele><time>2026-04-25T17:05:20.079Z</time></trkpt><trkpt lat="44.7311602" lon="8.0943603"><ele>169.0</ele><time>2026-04-25T17:05:21.079Z</time></trkpt><trkpt lat="44.731334" lon="8.0943427"><ele>169.33333333333334</ele><time>2026-04-25T17:05:22.079Z</time></trkpt><trkpt lat="44.731511" lon="8.0943236"><ele>169.66666666666666</ele><time>2026-04-25T17:05:23.079Z</time></trkpt><trkpt lat="44.7316804" lon="8.0943055"><ele>170.0</ele><time>2026-04-25T17:05:24.079Z</time></trkpt><trkpt lat="44.7318597" lon="8.0942854"><ele>168.66666666666666</ele><time>2026-04-25T17:05:25.079Z</time></trkpt><trkpt lat="44.7320411" lon="8.0942692"><ele>167.33333333333334</ele><time>2026-04-25T17:05:26.079Z</time></trkpt><trkpt lat="44.7322246" lon="8.0942514"><ele>166.0</ele><time>2026-04-25T17:05:27.078Z</time></trkpt><trkpt lat="44.7324165" lon="8.0942382"><ele>166.0</ele><time>2026-04-25T17:05:28.079Z</time></trkpt><trkpt lat="44.7325971" lon="8.0942106"><ele>166.0</ele><time>2026-04-25T17:05:29.079Z</time></trkpt><trkpt lat="44.7328173" lon="8.0941906"><ele>166.0</ele><time>2026-04-25T17:05:30.078Z</time></trkpt><trkpt lat="44.7330081" lon="8.0941712"><ele>165.33333333333334</ele><time>2026-04-25T17:05:31.078Z</time></trkpt><trkpt lat="44.7331979" lon="8.0941422"><ele>164.66666666666666</ele><time>2026-04-25T17:05:32.079Z</time></trkpt><trkpt lat="44.7333943" lon="8.0941927"><ele>164.0</ele><time>2026-04-25T17:05:33.079Z</time></trkpt><trkpt lat="44.73358" lon="8.0942367"><ele>163.33333333333331</ele><time>2026-04-25T17:05:34.078Z</time></trkpt><trkpt lat="44.7337637" lon="8.0943008"><ele>162.66666666666666</ele><time>2026-04-25T17:05:35.078Z</time></trkpt><trkpt lat="44.7339528" lon="8.0943567"><ele>162.0</ele><time>2026-04-25T17:05:36.079Z</time></trkpt><trkpt lat="44.7341407" lon="8.0944328"><ele>162.0</ele><time>2026-04-25T17:05:37.079Z</time></trkpt><trkpt lat="44.7343337" lon="8.0944966"><ele>162.0</ele><time>2026-04-25T17:05:38.078Z</time></trkpt><trkpt lat="44.734521" lon="8.0945248"><ele>162.0</ele><time>2026-04-25T17:05:39.079Z</time></trkpt><trkpt lat="44.7347125" lon="8.0945872"><ele>162.0</ele><time>2026-04-25T17:05:40.078Z</time></trkpt><trkpt lat="44.7349065" lon="8.0946091"><ele>162.0</ele><time>2026-04-25T17:05:41.079Z</time></trkpt><trkpt lat="44.735101" lon="8.0945697"><ele>162.0</ele><time>2026-04-25T17:05:42.078Z</time></trkpt><trkpt lat="44.7353183" lon="8.0945504"><ele>163.0</ele><time>2026-04-25T17:05:43.078Z</time></trkpt><trkpt lat="44.7355186" lon="8.0944325"><ele>164.0</ele><time>2026-04-25T17:05:44.079Z</time></trkpt><trkpt lat="44.735759" lon="8.0943663"><ele>164.0</ele><time>2026-04-25T17:05:45.079Z</time></trkpt><trkpt lat="44.735973" lon="8.0942471"><ele>164.0</ele><time>2026-04-25T17:05:46.079Z</time></trkpt><trkpt lat="44.7361821" lon="8.0942057"><ele>164.0</ele><time>2026-04-25T17:05:47.079Z</time></trkpt><trkpt lat="44.7363923" lon="8.0941711"><ele>164.5</ele><time>2026-04-25T17:05:48.079Z</time></trkpt><trkpt lat="44.7366194" lon="8.0941386"><ele>165.0</ele><time>2026-04-25T17:05:49.078Z</time></trkpt><trkpt lat="44.7368559" lon="8.0941"><ele>163.5</ele><time>2026-04-25T17:05:50.079Z</time></trkpt><trkpt lat="44.7370845" lon="8.0940604"><ele>162.0</ele><time>2026-04-25T17:05:51.078Z</time></trkpt><trkpt lat="44.7373066" lon="8.09401"><ele>162.0</ele><time>2026-04-25T17:05:52.079Z</time></trkpt><trkpt lat="44.7375263" lon="8.0939259"><ele>162.0</ele><time>2026-04-25T17:05:53.078Z</time></trkpt><trkpt lat="44.7377492" lon="8.0938398"><ele>161.5</ele><time>2026-04-25T17:05:54.079Z</time></trkpt><trkpt lat="44.7379709" lon="8.0937702"><ele>161.0</ele><time>2026-04-25T17:05:55.078Z</time></trkpt><trkpt lat="44.7381996" lon="8.0936817"><ele>161.0</ele><time>2026-04-25T17:05:56.078Z</time></trkpt><trkpt lat="44.7384213" lon="8.0935737"><ele>161.0</ele><time>2026-04-25T17:05:57.079Z</time></trkpt><trkpt lat="44.7386389" lon="8.093461"><ele>160.0</ele><time>2026-04-25T17:05:58.079Z</time></trkpt><trkpt lat="44.7388534" lon="8.0933249"><ele>159.0</ele><time>2026-04-25T17:05:59.079Z</time></trkpt><trkpt lat="44.7390713" lon="8.0931801"><ele>158.5</ele><time>2026-04-25T17:06:00.078Z</time></trkpt><trkpt lat="44.7392835" lon="8.0930439"><ele>158.0</ele><time>2026-04-25T17:06:01.078Z</time></trkpt><trkpt lat="44.7394956" lon="8.0929083"><ele>156.5</ele><time>2026-04-25T17:06:02.079Z</time></trkpt><trkpt lat="44.7397079" lon="8.0927687"><ele>155.0</ele><time>2026-04-25T17:06:03.078Z</time></trkpt><trkpt lat="44.7399172" lon="8.0926243"><ele>155.0</ele><time>2026-04-25T17:06:04.079Z</time></trkpt><trkpt lat="44.7401014" lon="8.0924846"><ele>155.0</ele><time>2026-04-25T17:06:05.078Z</time></trkpt><trkpt lat="44.7402858" lon="8.0923196"><ele>155.0</ele><time>2026-04-25T17:06:06.079Z</time></trkpt><trkpt lat="44.7404479" lon="8.0921328"><ele>155.0</ele><time>2026-04-25T17:06:07.079Z</time></trkpt><trkpt lat="44.7406026" lon="8.0919226"><ele>155.0</ele><time>2026-04-25T17:06:08.079Z</time></trkpt><trkpt lat="44.7407511" lon="8.0916905"><ele>155.0</ele><time>2026-04-25T17:06:09.079Z</time></trkpt><trkpt lat="44.7408915" lon="8.0914547"><ele>155.0</ele><time>2026-04-25T17:06:10.079Z</time></trkpt><trkpt lat="44.7409991" lon="8.091194"><ele>155.0</ele><time>2026-04-25T17:06:11.078Z</time></trkpt><trkpt lat="44.7411025" lon="8.0909094"><ele>155.0</ele><time>2026-04-25T17:06:12.079Z</time></trkpt><trkpt lat="44.7411535" lon="8.0906391"><ele>154.33333333333331</ele><time>2026-04-25T17:06:13.079Z</time></trkpt><trkpt lat="44.7412076" lon="8.0903485"><ele>153.66666666666666</ele><time>2026-04-25T17:06:14.078Z</time></trkpt><trkpt lat="44.7412467" lon="8.0900715"><ele>153.0</ele><time>2026-04-25T17:06:15.079Z</time></trkpt><trkpt lat="44.7412814" lon="8.0897696"><ele>151.66666666666666</ele><time>2026-04-25T17:06:16.078Z</time></trkpt><trkpt lat="44.7413224" lon="8.0894724"><ele>150.33333333333331</ele><time>2026-04-25T17:06:17.079Z</time></trkpt><trkpt lat="44.7413568" lon="8.0891773"><ele>149.0</ele><time>2026-04-25T17:06:18.079Z</time></trkpt><trkpt lat="44.7413945" lon="8.088891"><ele>147.33333333333331</ele><time>2026-04-25T17:06:19.078Z</time></trkpt><trkpt lat="44.7414144" lon="8.0886203"><ele>145.66666666666666</ele><time>2026-04-25T17:06:20.079Z</time></trkpt><trkpt lat="44.7414661" lon="8.0883686"><ele>144.0</ele><time>2026-04-25T17:06:21.079Z</time></trkpt><trkpt lat="44.7415032" lon="8.0881048"><ele>144.0</ele><time>2026-04-25T17:06:22.079Z</time></trkpt><trkpt lat="44.7415418" lon="8.0878561"><ele>144.0</ele><time>2026-04-25T17:06:23.078Z</time></trkpt><trkpt lat="44.7415734" lon="8.0876013"><ele>144.0</ele><time>2026-04-25T17:06:24.079Z</time></trkpt><trkpt lat="44.7416133" lon="8.0873978"><ele>145.66666666666666</ele><time>2026-04-25T17:06:25.079Z</time></trkpt><trkpt lat="44.7416476" lon="8.0871656"><ele>147.33333333333331</ele><time>2026-04-25T17:06:26.079Z</time></trkpt><trkpt lat="44.7416833" lon="8.0869289"><ele>149.0</ele><time>2026-04-25T17:06:27.078Z</time></trkpt><trkpt lat="44.7417195" lon="8.0867063"><ele>149.66666666666666</ele><time>2026-04-25T17:06:28.078Z</time></trkpt><trkpt lat="44.7417566" lon="8.086461"><ele>150.33333333333334</ele><time>2026-04-25T17:06:29.079Z</time></trkpt><trkpt lat="44.7417951" lon="8.086196"><ele>151.0</ele><time>2026-04-25T17:06:30.079Z</time></trkpt><trkpt lat="44.7418322" lon="8.0859188"><ele>151.33333333333334</ele><time>2026-04-25T17:06:31.079Z</time></trkpt><trkpt lat="44.7418643" lon="8.0856229"><ele>151.66666666666666</ele><time>2026-04-25T17:06:32.079Z</time></trkpt><trkpt lat="44.7419066" lon="8.0853084"><ele>152.0</ele><time>2026-04-25T17:06:33.078Z</time></trkpt><trkpt lat="44.7419551" lon="8.084983"><ele>151.0</ele><time>2026-04-25T17:06:34.078Z</time></trkpt><trkpt lat="44.742006" lon="8.0846499"><ele>150.0</ele><time>2026-04-25T17:06:35.078Z</time></trkpt><trkpt lat="44.7420503" lon="8.0843231"><ele>150.5</ele><time>2026-04-25T17:06:36.079Z</time></trkpt><trkpt lat="44.7421029" lon="8.0839864"><ele>151.0</ele><time>2026-04-25T17:06:37.079Z</time></trkpt><trkpt lat="44.7421553" lon="8.0836536"><ele>151.0</ele><time>2026-04-25T17:06:38.079Z</time></trkpt><trkpt lat="44.7422076" lon="8.0833234"><ele>151.0</ele><time>2026-04-25T17:06:39.078Z</time></trkpt><trkpt lat="44.7422577" lon="8.0830042"><ele>150.0</ele><time>2026-04-25T17:06:40.078Z</time></trkpt><trkpt lat="44.7423012" lon="8.0826702"><ele>149.0</ele><time>2026-04-25T17:06:41.079Z</time></trkpt><trkpt lat="44.7423557" lon="8.0823366"><ele>148.0</ele><time>2026-04-25T17:06:42.078Z</time></trkpt><trkpt lat="44.7424033" lon="8.0819936"><ele>147.0</ele><time>2026-04-25T17:06:43.079Z</time></trkpt><trkpt lat="44.7424496" lon="8.0816649"><ele>147.66666666666666</ele><time>2026-04-25T17:06:44.078Z</time></trkpt><trkpt lat="44.7424959" lon="8.0813806"><ele>148.33333333333331</ele><time>2026-04-25T17:06:45.078Z</time></trkpt><trkpt lat="44.7425313" lon="8.0810969"><ele>149.0</ele><time>2026-04-25T17:06:46.079Z</time></trkpt><trkpt lat="44.7425715" lon="8.080838"><ele>149.66666666666666</ele><time>2026-04-25T17:06:47.079Z</time></trkpt><trkpt lat="44.7426179" lon="8.0805821"><ele>150.33333333333334</ele><time>2026-04-25T17:06:48.078Z</time></trkpt><trkpt lat="44.7426527" lon="8.0802989"><ele>151.0</ele><time>2026-04-25T17:06:49.079Z</time></trkpt><trkpt lat="44.742679" lon="8.079969"><ele>151.0</ele><time>2026-04-25T17:06:50.078Z</time></trkpt><trkpt lat="44.7427096" lon="8.0796494"><ele>151.0</ele><time>2026-04-25T17:06:51.079Z</time></trkpt><trkpt lat="44.7427532" lon="8.0793254"><ele>151.0</ele><time>2026-04-25T17:06:52.079Z</time></trkpt><trkpt lat="44.742796" lon="8.0789963"><ele>151.0</ele><time>2026-04-25T17:06:53.079Z</time></trkpt><trkpt lat="44.7428366" lon="8.0786624"><ele>151.0</ele><time>2026-04-25T17:06:54.079Z</time></trkpt><trkpt lat="44.7428827" lon="8.0783586"><ele>151.0</ele><time>2026-04-25T17:06:55.078Z</time></trkpt><trkpt lat="44.7429246" lon="8.0780444"><ele>151.0</ele><time>2026-04-25T17:06:56.079Z</time></trkpt><trkpt lat="44.7429731" lon="8.0777462"><ele>150.66666666666669</ele><time>2026-04-25T17:06:57.079Z</time></trkpt><trkpt lat="44.7430191" lon="8.0774764"><ele>150.33333333333334</ele><time>2026-04-25T17:06:58.078Z</time></trkpt><trkpt lat="44.7430555" lon="8.0772064"><ele>150.0</ele><time>2026-04-25T17:06:59.078Z</time></trkpt><trkpt lat="44.7430899" lon="8.0769447"><ele>150.0</ele><time>2026-04-25T17:07:00.079Z</time></trkpt><trkpt lat="44.7431316" lon="8.0766884"><ele>150.0</ele><time>2026-04-25T17:07:01.079Z</time></trkpt><trkpt lat="44.7431704" lon="8.0764223"><ele>150.0</ele><time>2026-04-25T17:07:02.079Z</time></trkpt><trkpt lat="44.7432193" lon="8.0761546"><ele>150.33333333333334</ele><time>2026-04-25T17:07:03.078Z</time></trkpt><trkpt lat="44.7432552" lon="8.0758962"><ele>150.66666666666669</ele><time>2026-04-25T17:07:04.079Z</time></trkpt><trkpt lat="44.7432946" lon="8.0756562"><ele>151.0</ele><time>2026-04-25T17:07:05.078Z</time></trkpt><trkpt lat="44.7433322" lon="8.0754302"><ele>151.0</ele><time>2026-04-25T17:07:06.079Z</time></trkpt><trkpt lat="44.7433644" lon="8.0751911"><ele>151.0</ele><time>2026-04-25T17:07:07.079Z</time></trkpt><trkpt lat="44.743401" lon="8.0749328"><ele>151.0</ele><time>2026-04-25T17:07:08.079Z</time></trkpt><trkpt lat="44.7434307" lon="8.0747457"><ele>150.6</ele><time>2026-04-25T17:07:09.079Z</time></trkpt><trkpt lat="44.7434597" lon="8.0745831"><ele>150.2</ele><time>2026-04-25T17:07:10.079Z</time></trkpt><trkpt lat="44.7434774" lon="8.0744072"><ele>149.8</ele><time>2026-04-25T17:07:11.079Z</time></trkpt><trkpt lat="44.7435024" lon="8.0742696"><ele>149.4</ele><time>2026-04-25T17:07:12.079Z</time></trkpt><trkpt lat="44.7435202" lon="8.0741319"><ele>149.0</ele><time>2026-04-25T17:07:13.079Z</time></trkpt><trkpt lat="44.7435341" lon="8.0740209"><ele>148.83333333333331</ele><time>2026-04-25T17:07:14.078Z</time></trkpt><trkpt lat="44.7435595" lon="8.0739"><ele>148.66666666666666</ele><time>2026-04-25T17:07:15.078Z</time></trkpt><trkpt lat="44.7436087" lon="8.0738328"><ele>148.5</ele><time>2026-04-25T17:07:16.079Z</time></trkpt><trkpt lat="44.743656" lon="8.0737572"><ele>148.33333333333334</ele><time>2026-04-25T17:07:17.078Z</time></trkpt><trkpt lat="44.743726" lon="8.0736969"><ele>148.16666666666669</ele><time>2026-04-25T17:07:18.078Z</time></trkpt><trkpt lat="44.7438342" lon="8.0736286"><ele>148.0</ele><time>2026-04-25T17:07:19.078Z</time></trkpt><trkpt lat="44.7439346" lon="8.0735296"><ele>148.0</ele><time>2026-04-25T17:07:20.078Z</time></trkpt><trkpt lat="44.7440324" lon="8.0734088"><ele>148.0</ele><time>2026-04-25T17:07:21.079Z</time></trkpt><trkpt lat="44.7441107" lon="8.0732774"><ele>148.0</ele><time>2026-04-25T17:07:22.079Z</time></trkpt><trkpt lat="44.7441651" lon="8.0731396"><ele>148.0</ele><time>2026-04-25T17:07:23.079Z</time></trkpt><trkpt lat="44.744194" lon="8.0729095"><ele>148.25</ele><time>2026-04-25T17:07:24.079Z</time></trkpt><trkpt lat="44.7441469" lon="8.0727332"><ele>148.5</ele><time>2026-04-25T17:07:25.079Z</time></trkpt><trkpt lat="44.7441265" lon="8.0725376"><ele>148.75</ele><time>2026-04-25T17:07:26.078Z</time></trkpt><trkpt lat="44.7440445" lon="8.0723986"><ele>149.0</ele><time>2026-04-25T17:07:27.078Z</time></trkpt><trkpt lat="44.743988" lon="8.07228"><ele>149.4</ele><time>2026-04-25T17:07:28.079Z</time></trkpt><trkpt lat="44.7439276" lon="8.0721739"><ele>149.8</ele><time>2026-04-25T17:07:29.078Z</time></trkpt><trkpt lat="44.7438778" lon="8.0720641"><ele>150.2</ele><time>2026-04-25T17:07:30.079Z</time></trkpt><trkpt lat="44.7438487" lon="8.0719602"><ele>150.6</ele><time>2026-04-25T17:07:31.079Z</time></trkpt><trkpt lat="44.7438533" lon="8.0718031"><ele>151.0</ele><time>2026-04-25T17:07:32.079Z</time></trkpt><trkpt lat="44.7438839" lon="8.0716183"><ele>151.25</ele><time>2026-04-25T17:07:33.079Z</time></trkpt><trkpt lat="44.7438967" lon="8.0714114"><ele>151.5</ele><time>2026-04-25T17:07:34.079Z</time></trkpt><trkpt lat="44.7439312" lon="8.0712447"><ele>151.75</ele><time>2026-04-25T17:07:35.079Z</time></trkpt><trkpt lat="44.7439767" lon="8.0710478"><ele>152.0</ele><time>2026-04-25T17:07:36.079Z</time></trkpt><trkpt lat="44.7440082" lon="8.0708159"><ele>152.0</ele><time>2026-04-25T17:07:37.079Z</time></trkpt><trkpt lat="44.7440485" lon="8.0705895"><ele>152.0</ele><time>2026-04-25T17:07:38.079Z</time></trkpt><trkpt lat="44.7440941" lon="8.0703435"><ele>152.0</ele><time>2026-04-25T17:07:39.079Z</time></trkpt><trkpt lat="44.7441232" lon="8.0700929"><ele>152.0</ele><time>2026-04-25T17:07:40.078Z</time></trkpt><trkpt lat="44.7441623" lon="8.06987"><ele>152.0</ele><time>2026-04-25T17:07:41.079Z</time></trkpt><trkpt lat="44.7441975" lon="8.0696405"><ele>152.0</ele><time>2026-04-25T17:07:42.079Z</time></trkpt><trkpt lat="44.7442248" lon="8.0694237"><ele>152.0</ele><time>2026-04-25T17:07:43.079Z</time></trkpt><trkpt lat="44.7442585" lon="8.0692134"><ele>152.0</ele><time>2026-04-25T17:07:44.079Z</time></trkpt><trkpt lat="44.7442786" lon="8.0689895"><ele>152.0</ele><time>2026-04-25T17:07:45.079Z</time></trkpt><trkpt lat="44.7443085" lon="8.0687972"><ele>151.75</ele><time>2026-04-25T17:07:46.079Z</time></trkpt><trkpt lat="44.7443385" lon="8.068609"><ele>151.5</ele><time>2026-04-25T17:07:47.079Z</time></trkpt><trkpt lat="44.7443638" lon="8.068409"><ele>151.25</ele><time>2026-04-25T17:07:48.079Z</time></trkpt><trkpt lat="44.7443907" lon="8.0682325"><ele>151.0</ele><time>2026-04-25T17:07:49.079Z</time></trkpt><trkpt lat="44.7444166" lon="8.068065"><ele>151.0</ele><time>2026-04-25T17:07:50.078Z</time></trkpt><trkpt lat="44.7444361" lon="8.0679211"><ele>151.0</ele><time>2026-04-25T17:07:51.079Z</time></trkpt><trkpt lat="44.7444539" lon="8.0677822"><ele>151.0</ele><time>2026-04-25T17:07:52.078Z</time></trkpt><trkpt lat="44.7444705" lon="8.0676487"><ele>151.0</ele><time>2026-04-25T17:07:53.079Z</time></trkpt><trkpt lat="44.7445082" lon="8.0675336"><ele>151.0</ele><time>2026-04-25T17:07:54.079Z</time></trkpt><trkpt lat="44.7445495" lon="8.0674374"><ele>151.2</ele><time>2026-04-25T17:07:55.078Z</time></trkpt><trkpt lat="44.7445979" lon="8.067258"><ele>151.39999999999998</ele><time>2026-04-25T17:07:57.079Z</time></trkpt><trkpt lat="44.7446143" lon="8.0671391"><ele>151.6</ele><time>2026-04-25T17:07:58.079Z</time></trkpt><trkpt lat="44.7446133" lon="8.0670154"><ele>151.79999999999998</ele><time>2026-04-25T17:07:59.079Z</time></trkpt><trkpt lat="44.7446152" lon="8.0668923"><ele>152.0</ele><time>2026-04-25T17:08:00.079Z</time></trkpt><trkpt lat="44.7446199" lon="8.0666968"><ele>152.0</ele><time>2026-04-25T17:08:01.079Z</time></trkpt><trkpt lat="44.7446315" lon="8.0665556"><ele>152.0</ele><time>2026-04-25T17:08:02.078Z</time></trkpt><trkpt lat="44.7446575" lon="8.0664055"><ele>152.0</ele><time>2026-04-25T17:08:03.079Z</time></trkpt><trkpt lat="44.7446735" lon="8.0662462"><ele>152.0</ele><time>2026-04-25T17:08:04.079Z</time></trkpt><trkpt lat="44.7446944" lon="8.0660946"><ele>152.0</ele><time>2026-04-25T17:08:05.078Z</time></trkpt><trkpt lat="44.7447231" lon="8.0659354"><ele>152.25</ele><time>2026-04-25T17:08:06.079Z</time></trkpt><trkpt lat="44.7447433" lon="8.0657676"><ele>152.5</ele><time>2026-04-25T17:08:07.079Z</time></trkpt><trkpt lat="44.7447645" lon="8.065603"><ele>152.75</ele><time>2026-04-25T17:08:08.079Z</time></trkpt><trkpt lat="44.7447842" lon="8.0654442"><ele>153.0</ele><time>2026-04-25T17:08:09.078Z</time></trkpt><trkpt lat="44.7448033" lon="8.0652729"><ele>153.0</ele><time>2026-04-25T17:08:10.079Z</time></trkpt><trkpt lat="44.7448265" lon="8.0651131"><ele>153.0</ele><time>2026-04-25T17:08:11.079Z</time></trkpt><trkpt lat="44.7448547" lon="8.0649341"><ele>153.0</ele><time>2026-04-25T17:08:12.079Z</time></trkpt><trkpt lat="44.7448741" lon="8.0647667"><ele>153.0</ele><time>2026-04-25T17:08:13.079Z</time></trkpt><trkpt lat="44.7448934" lon="8.0646021"><ele>153.0</ele><time>2026-04-25T17:08:14.078Z</time></trkpt><trkpt lat="44.7449186" lon="8.0644264"><ele>153.0</ele><time>2026-04-25T17:08:15.079Z</time></trkpt><trkpt lat="44.7449431" lon="8.0642157"><ele>153.0</ele><time>2026-04-25T17:08:16.079Z</time></trkpt><trkpt lat="44.744979" lon="8.0640635"><ele>153.0</ele><time>2026-04-25T17:08:17.078Z</time></trkpt><trkpt lat="44.745006" lon="8.0638915"><ele>153.25</ele><time>2026-04-25T17:08:18.079Z</time></trkpt><trkpt lat="44.7450295" lon="8.0637168"><ele>153.5</ele><time>2026-04-25T17:08:19.079Z</time></trkpt><trkpt lat="44.7450579" lon="8.0635528"><ele>153.75</ele><time>2026-04-25T17:08:20.079Z</time></trkpt><trkpt lat="44.7450857" lon="8.063393"><ele>154.0</ele><time>2026-04-25T17:08:21.079Z</time></trkpt><trkpt lat="44.7451094" lon="8.0632283"><ele>154.0</ele><time>2026-04-25T17:08:22.078Z</time></trkpt><trkpt lat="44.7451331" lon="8.0630553"><ele>154.0</ele><time>2026-04-25T17:08:23.078Z</time></trkpt><trkpt lat="44.7451541" lon="8.0628781"><ele>154.0</ele><time>2026-04-25T17:08:24.079Z</time></trkpt><trkpt lat="44.7451775" lon="8.0627151"><ele>154.0</ele><time>2026-04-25T17:08:25.078Z</time></trkpt><trkpt lat="44.7452086" lon="8.0625511"><ele>154.5</ele><time>2026-04-25T17:08:26.078Z</time></trkpt><trkpt lat="44.7452291" lon="8.06239"><ele>155.0</ele><time>2026-04-25T17:08:27.079Z</time></trkpt><trkpt lat="44.7452501" lon="8.0622234"><ele>155.5</ele><time>2026-04-25T17:08:28.079Z</time></trkpt><trkpt lat="44.745265" lon="8.0620655"><ele>156.0</ele><time>2026-04-25T17:08:29.079Z</time></trkpt><trkpt lat="44.745296" lon="8.0619127"><ele>156.0</ele><time>2026-04-25T17:08:30.079Z</time></trkpt><trkpt lat="44.7453174" lon="8.0617804"><ele>156.0</ele><time>2026-04-25T17:08:31.079Z</time></trkpt><trkpt lat="44.7453408" lon="8.0616582"><ele>156.0</ele><time>2026-04-25T17:08:32.079Z</time></trkpt><trkpt lat="44.7453626" lon="8.0615264"><ele>156.0</ele><time>2026-04-25T17:08:33.079Z</time></trkpt><trkpt lat="44.7453846" lon="8.0613944"><ele>156.0</ele><time>2026-04-25T17:08:34.078Z</time></trkpt><trkpt lat="44.7454041" lon="8.0612716"><ele>155.83333333333334</ele><time>2026-04-25T17:08:35.079Z</time></trkpt><trkpt lat="44.7454143" lon="8.0611459"><ele>155.66666666666666</ele><time>2026-04-25T17:08:36.079Z</time></trkpt><trkpt lat="44.7454349" lon="8.0610144"><ele>155.5</ele><time>2026-04-25T17:08:37.079Z</time></trkpt><trkpt lat="44.7454465" lon="8.0609004"><ele>155.33333333333331</ele><time>2026-04-25T17:08:38.079Z</time></trkpt><trkpt lat="44.7454638" lon="8.0607972"><ele>155.16666666666666</ele><time>2026-04-25T17:08:39.079Z</time></trkpt><trkpt lat="44.745495" lon="8.0607079"><ele>155.0</ele><time>2026-04-25T17:08:40.079Z</time></trkpt><trkpt lat="44.7455574" lon="8.0605683"><ele>154.8</ele><time>2026-04-25T17:08:42.079Z</time></trkpt><trkpt lat="44.7456394" lon="8.0604"><ele>154.6</ele><time>2026-04-25T17:08:44.079Z</time></trkpt><trkpt lat="44.7456592" lon="8.0602898"><ele>154.4</ele><time>2026-04-25T17:08:45.078Z</time></trkpt><trkpt lat="44.7456833" lon="8.060175"><ele>154.2</ele><time>2026-04-25T17:08:46.078Z</time></trkpt><trkpt lat="44.7457177" lon="8.0600523"><ele>154.0</ele><time>2026-04-25T17:08:47.079Z</time></trkpt><trkpt lat="44.7457768" lon="8.0599272"><ele>155.0</ele><time>2026-04-25T17:08:48.078Z</time></trkpt><trkpt lat="44.7458363" lon="8.0597561"><ele>156.0</ele><time>2026-04-25T17:08:49.079Z</time></trkpt><trkpt lat="44.7459138" lon="8.0595891"><ele>157.0</ele><time>2026-04-25T17:08:50.079Z</time></trkpt><trkpt lat="44.7460191" lon="8.0593568"><ele>156.66666666666669</ele><time>2026-04-25T17:08:51.079Z</time></trkpt><trkpt lat="44.7461187" lon="8.0591241"><ele>156.33333333333334</ele><time>2026-04-25T17:08:52.079Z</time></trkpt><trkpt lat="44.7462318" lon="8.0589085"><ele>156.0</ele><time>2026-04-25T17:08:53.079Z</time></trkpt><trkpt lat="44.7463368" lon="8.0586914"><ele>156.0</ele><time>2026-04-25T17:08:54.078Z</time></trkpt><trkpt lat="44.7464199" lon="8.0584883"><ele>156.0</ele><time>2026-04-25T17:08:55.078Z</time></trkpt><trkpt lat="44.7465069" lon="8.0583044"><ele>156.0</ele><time>2026-04-25T17:08:56.079Z</time></trkpt><trkpt lat="44.7465958" lon="8.0581032"><ele>156.33333333333334</ele><time>2026-04-25T17:08:57.079Z</time></trkpt><trkpt lat="44.7466926" lon="8.0579068"><ele>156.66666666666669</ele><time>2026-04-25T17:08:58.079Z</time></trkpt><trkpt lat="44.7467778" lon="8.0577074"><ele>157.0</ele><time>2026-04-25T17:08:59.079Z</time></trkpt><trkpt lat="44.746861" lon="8.0575048"><ele>157.33333333333334</ele><time>2026-04-25T17:09:00.079Z</time></trkpt><trkpt lat="44.7469674" lon="8.057304"><ele>157.66666666666666</ele><time>2026-04-25T17:09:01.079Z</time></trkpt><trkpt lat="44.7470581" lon="8.0570876"><ele>158.0</ele><time>2026-04-25T17:09:02.079Z</time></trkpt><trkpt lat="44.7471458" lon="8.056901"><ele>158.0</ele><time>2026-04-25T17:09:03.079Z</time></trkpt><trkpt lat="44.7472199" lon="8.0567149"><ele>158.0</ele><time>2026-04-25T17:09:04.079Z</time></trkpt><trkpt lat="44.7472953" lon="8.0565225"><ele>158.0</ele><time>2026-04-25T17:09:05.079Z</time></trkpt><trkpt lat="44.7473744" lon="8.0563295"><ele>158.66666666666666</ele><time>2026-04-25T17:09:06.078Z</time></trkpt><trkpt lat="44.7474482" lon="8.0561332"><ele>159.33333333333334</ele><time>2026-04-25T17:09:07.079Z</time></trkpt><trkpt lat="44.7475327" lon="8.0559475"><ele>160.0</ele><time>2026-04-25T17:09:08.079Z</time></trkpt><trkpt lat="44.7476068" lon="8.0557734"><ele>160.0</ele><time>2026-04-25T17:09:09.079Z</time></trkpt><trkpt lat="44.7476865" lon="8.0555831"><ele>160.0</ele><time>2026-04-25T17:09:10.079Z</time></trkpt><trkpt lat="44.7477655" lon="8.0553918"><ele>160.0</ele><time>2026-04-25T17:09:11.079Z</time></trkpt><trkpt lat="44.7478514" lon="8.055207"><ele>160.66666666666669</ele><time>2026-04-25T17:09:12.079Z</time></trkpt><trkpt lat="44.747943" lon="8.0550235"><ele>161.33333333333334</ele><time>2026-04-25T17:09:13.079Z</time></trkpt><trkpt lat="44.7480291" lon="8.0548398"><ele>162.0</ele><time>2026-04-25T17:09:14.078Z</time></trkpt><trkpt lat="44.7481125" lon="8.0546431"><ele>162.66666666666666</ele><time>2026-04-25T17:09:15.079Z</time></trkpt><trkpt lat="44.7481834" lon="8.0544464"><ele>163.33333333333331</ele><time>2026-04-25T17:09:16.079Z</time></trkpt><trkpt lat="44.7482778" lon="8.0542579"><ele>164.0</ele><time>2026-04-25T17:09:17.079Z</time></trkpt><trkpt lat="44.7483481" lon="8.0540763"><ele>164.66666666666666</ele><time>2026-04-25T17:09:18.079Z</time></trkpt><trkpt lat="44.7484476" lon="8.0538796"><ele>165.33333333333334</ele><time>2026-04-25T17:09:19.078Z</time></trkpt><trkpt lat="44.7485299" lon="8.0536914"><ele>166.0</ele><time>2026-04-25T17:09:20.079Z</time></trkpt><trkpt lat="44.7486122" lon="8.0534992"><ele>166.33333333333334</ele><time>2026-04-25T17:09:21.078Z</time></trkpt><trkpt lat="44.7486986" lon="8.0533086"><ele>166.66666666666666</ele><time>2026-04-25T17:09:22.079Z</time></trkpt><trkpt lat="44.7487711" lon="8.0531194"><ele>167.0</ele><time>2026-04-25T17:09:23.079Z</time></trkpt><trkpt lat="44.748852" lon="8.0529269"><ele>167.0</ele><time>2026-04-25T17:09:24.079Z</time></trkpt><trkpt lat="44.7489528" lon="8.0527706"><ele>167.0</ele><time>2026-04-25T17:09:25.079Z</time></trkpt><trkpt lat="44.7490462" lon="8.0526218"><ele>167.0</ele><time>2026-04-25T17:09:26.079Z</time></trkpt><trkpt lat="44.7491521" lon="8.0524966"><ele>167.0</ele><time>2026-04-25T17:09:27.079Z</time></trkpt><trkpt lat="44.7492344" lon="8.0523652"><ele>167.2</ele><time>2026-04-25T17:09:28.078Z</time></trkpt><trkpt lat="44.749315" lon="8.0522514"><ele>167.39999999999998</ele><time>2026-04-25T17:09:29.079Z</time></trkpt><trkpt lat="44.7494086" lon="8.0521636"><ele>167.60000000000002</ele><time>2026-04-25T17:09:30.078Z</time></trkpt><trkpt lat="44.7494882" lon="8.052114"><ele>167.8</ele><time>2026-04-25T17:09:31.079Z</time></trkpt><trkpt lat="44.749574" lon="8.0520509"><ele>168.0</ele><time>2026-04-25T17:09:32.079Z</time></trkpt><trkpt lat="44.7496619" lon="8.0519624"><ele>169.0</ele><time>2026-04-25T17:09:33.079Z</time></trkpt><trkpt lat="44.7497606" lon="8.0518761"><ele>170.0</ele><time>2026-04-25T17:09:34.079Z</time></trkpt><trkpt lat="44.749866" lon="8.0517971"><ele>171.0</ele><time>2026-04-25T17:09:35.079Z</time></trkpt><trkpt lat="44.7499808" lon="8.0517098"><ele>172.0</ele><time>2026-04-25T17:09:36.079Z</time></trkpt><trkpt lat="44.7501112" lon="8.0516283"><ele>174.5</ele><time>2026-04-25T17:09:37.078Z</time></trkpt><trkpt lat="44.7502331" lon="8.0515427"><ele>177.0</ele><time>2026-04-25T17:09:38.079Z</time></trkpt><trkpt lat="44.7503607" lon="8.0514633"><ele>179.5</ele><time>2026-04-25T17:09:39.078Z</time></trkpt><trkpt lat="44.7505012" lon="8.0513349"><ele>182.0</ele><time>2026-04-25T17:09:40.079Z</time></trkpt><trkpt lat="44.7506389" lon="8.0512292"><ele>182.0</ele><time>2026-04-25T17:09:41.079Z</time></trkpt><trkpt lat="44.7507742" lon="8.0511217"><ele>182.0</ele><time>2026-04-25T17:09:42.078Z</time></trkpt><trkpt lat="44.7508965" lon="8.0509866"><ele>182.0</ele><time>2026-04-25T17:09:43.079Z</time></trkpt><trkpt lat="44.7510196" lon="8.0508545"><ele>183.33333333333331</ele><time>2026-04-25T17:09:44.079Z</time></trkpt><trkpt lat="44.7511411" lon="8.050705"><ele>184.66666666666666</ele><time>2026-04-25T17:09:45.079Z</time></trkpt><trkpt lat="44.7512477" lon="8.0505741"><ele>186.0</ele><time>2026-04-25T17:09:46.078Z</time></trkpt><trkpt lat="44.7513615" lon="8.0504165"><ele>186.0</ele><time>2026-04-25T17:09:47.079Z</time></trkpt><trkpt lat="44.751469" lon="8.0502408"><ele>186.0</ele><time>2026-04-25T17:09:48.078Z</time></trkpt><trkpt lat="44.751551" lon="8.0500855"><ele>186.0</ele><time>2026-04-25T17:09:49.079Z</time></trkpt><trkpt lat="44.7516398" lon="8.0499448"><ele>186.0</ele><time>2026-04-25T17:09:50.078Z</time></trkpt><trkpt lat="44.751722" lon="8.0498126"><ele>188.5</ele><time>2026-04-25T17:09:51.079Z</time></trkpt><trkpt lat="44.7518039" lon="8.0496777"><ele>191.0</ele><time>2026-04-25T17:09:52.078Z</time></trkpt><trkpt lat="44.7519036" lon="8.0495426"><ele>193.5</ele><time>2026-04-25T17:09:53.079Z</time></trkpt><trkpt lat="44.7519726" lon="8.0494612"><ele>196.0</ele><time>2026-04-25T17:09:54.078Z</time></trkpt><trkpt lat="44.7520914" lon="8.0494624"><ele>198.0</ele><time>2026-04-25T17:09:55.079Z</time></trkpt><trkpt lat="44.752196" lon="8.0494729"><ele>200.0</ele><time>2026-04-25T17:09:56.078Z</time></trkpt><trkpt lat="44.7523109" lon="8.0495359"><ele>202.0</ele><time>2026-04-25T17:09:57.078Z</time></trkpt><trkpt lat="44.7524121" lon="8.0496041"><ele>204.0</ele><time>2026-04-25T17:09:58.078Z</time></trkpt><trkpt lat="44.7525123" lon="8.0497272"><ele>204.0</ele><time>2026-04-25T17:09:59.079Z</time></trkpt><trkpt lat="44.7526002" lon="8.0499083"><ele>204.0</ele><time>2026-04-25T17:10:00.079Z</time></trkpt><trkpt lat="44.7526988" lon="8.0500653"><ele>204.0</ele><time>2026-04-25T17:10:01.079Z</time></trkpt><trkpt lat="44.7527843" lon="8.0502212"><ele>204.0</ele><time>2026-04-25T17:10:02.079Z</time></trkpt><trkpt lat="44.7528911" lon="8.0504175"><ele>204.6</ele><time>2026-04-25T17:10:03.079Z</time></trkpt><trkpt lat="44.7529561" lon="8.050546"><ele>205.2</ele><time>2026-04-25T17:10:04.079Z</time></trkpt><trkpt lat="44.7530202" lon="8.050673"><ele>205.79999999999998</ele><time>2026-04-25T17:10:05.079Z</time></trkpt><trkpt lat="44.753085" lon="8.0507775"><ele>206.39999999999998</ele><time>2026-04-25T17:10:06.079Z</time></trkpt><trkpt lat="44.753152" lon="8.0508991"><ele>207.0</ele><time>2026-04-25T17:10:07.079Z</time></trkpt><trkpt lat="44.7532495" lon="8.0509637"><ele>207.0</ele><time>2026-04-25T17:10:09.079Z</time></trkpt><trkpt lat="44.7533495" lon="8.0510124"><ele>207.0</ele><time>2026-04-25T17:10:11.079Z</time></trkpt><trkpt lat="44.7534002" lon="8.0509562"><ele>207.0</ele><time>2026-04-25T17:10:12.079Z</time></trkpt><trkpt lat="44.753462" lon="8.0508241"><ele>207.0</ele><time>2026-04-25T17:10:14.079Z</time></trkpt><trkpt lat="44.7534583" lon="8.0506944"><ele>207.0</ele><time>2026-04-25T17:10:15.079Z</time></trkpt><trkpt lat="44.7534297" lon="8.0505344"><ele>207.75</ele><time>2026-04-25T17:10:16.079Z</time></trkpt><trkpt lat="44.7533653" lon="8.0504007"><ele>208.5</ele><time>2026-04-25T17:10:17.079Z</time></trkpt><trkpt lat="44.7533141" lon="8.050287"><ele>209.25</ele><time>2026-04-25T17:10:18.079Z</time></trkpt><trkpt lat="44.7532022" lon="8.0501197"><ele>210.0</ele><time>2026-04-25T17:10:19.078Z</time></trkpt><trkpt lat="44.753135" lon="8.0499799"><ele>211.75</ele><time>2026-04-25T17:10:20.079Z</time></trkpt><trkpt lat="44.7530509" lon="8.0498395"><ele>213.5</ele><time>2026-04-25T17:10:21.079Z</time></trkpt><trkpt lat="44.7529814" lon="8.049705"><ele>215.25</ele><time>2026-04-25T17:10:22.079Z</time></trkpt><trkpt lat="44.7529229" lon="8.0495566"><ele>217.0</ele><time>2026-04-25T17:10:23.079Z</time></trkpt><trkpt lat="44.7529059" lon="8.0493503"><ele>217.0</ele><time>2026-04-25T17:10:24.079Z</time></trkpt><trkpt lat="44.7528681" lon="8.0492004"><ele>217.0</ele><time>2026-04-25T17:10:25.079Z</time></trkpt><trkpt lat="44.7528411" lon="8.0490559"><ele>217.0</ele><time>2026-04-25T17:10:26.078Z</time></trkpt><trkpt lat="44.7528364" lon="8.048929"><ele>217.0</ele><time>2026-04-25T17:10:27.078Z</time></trkpt><trkpt lat="44.7528424" lon="8.0487902"><ele>217.0</ele><time>2026-04-25T17:10:28.079Z</time></trkpt><trkpt lat="44.7528657" lon="8.0486488"><ele>217.5</ele><time>2026-04-25T17:10:29.079Z</time></trkpt><trkpt lat="44.7528954" lon="8.0485283"><ele>218.0</ele><time>2026-04-25T17:10:30.079Z</time></trkpt><trkpt lat="44.7530015" lon="8.0483611"><ele>218.5</ele><time>2026-04-25T17:10:31.079Z</time></trkpt><trkpt lat="44.7530833" lon="8.0482064"><ele>219.0</ele><time>2026-04-25T17:10:32.079Z</time></trkpt><trkpt lat="44.7531787" lon="8.048062"><ele>219.0</ele><time>2026-04-25T17:10:33.079Z</time></trkpt><trkpt lat="44.7532792" lon="8.0479246"><ele>219.0</ele><time>2026-04-25T17:10:34.079Z</time></trkpt><trkpt lat="44.7533744" lon="8.0478176"><ele>219.0</ele><time>2026-04-25T17:10:35.079Z</time></trkpt><trkpt lat="44.7534549" lon="8.0476884"><ele>219.0</ele><time>2026-04-25T17:10:36.079Z</time></trkpt><trkpt lat="44.7535425" lon="8.0475737"><ele>220.25</ele><time>2026-04-25T17:10:37.078Z</time></trkpt><trkpt lat="44.7536309" lon="8.0474462"><ele>221.5</ele><time>2026-04-25T17:10:38.079Z</time></trkpt><trkpt lat="44.7537273" lon="8.0473108"><ele>222.75</ele><time>2026-04-25T17:10:39.079Z</time></trkpt><trkpt lat="44.7538357" lon="8.0471469"><ele>224.0</ele><time>2026-04-25T17:10:40.079Z</time></trkpt><trkpt lat="44.7539419" lon="8.0469626"><ele>224.0</ele><time>2026-04-25T17:10:41.078Z</time></trkpt><trkpt lat="44.7540444" lon="8.0468039"><ele>224.0</ele><time>2026-04-25T17:10:42.079Z</time></trkpt><trkpt lat="44.75415" lon="8.0466411"><ele>224.0</ele><time>2026-04-25T17:10:43.079Z</time></trkpt><trkpt lat="44.7542559" lon="8.0464844"><ele>225.33333333333334</ele><time>2026-04-25T17:10:44.079Z</time></trkpt><trkpt lat="44.7543472" lon="8.0463118"><ele>226.66666666666669</ele><time>2026-04-25T17:10:45.079Z</time></trkpt><trkpt lat="44.7544562" lon="8.0461288"><ele>228.0</ele><time>2026-04-25T17:10:46.079Z</time></trkpt><trkpt lat="44.7545541" lon="8.0459756"><ele>228.0</ele><time>2026-04-25T17:10:47.078Z</time></trkpt><trkpt lat="44.754651" lon="8.0458248"><ele>228.0</ele><time>2026-04-25T17:10:48.079Z</time></trkpt><trkpt lat="44.7547386" lon="8.0456634"><ele>228.0</ele><time>2026-04-25T17:10:49.078Z</time></trkpt><trkpt lat="44.7548328" lon="8.0455038"><ele>228.0</ele><time>2026-04-25T17:10:50.079Z</time></trkpt><trkpt lat="44.7549199" lon="8.045364"><ele>229.25</ele><time>2026-04-25T17:10:51.079Z</time></trkpt><trkpt lat="44.755008" lon="8.0452192"><ele>230.5</ele><time>2026-04-25T17:10:52.079Z</time></trkpt><trkpt lat="44.7551025" lon="8.0450572"><ele>231.75</ele><time>2026-04-25T17:10:53.079Z</time></trkpt><trkpt lat="44.7551813" lon="8.0448886"><ele>233.0</ele><time>2026-04-25T17:10:54.079Z</time></trkpt><trkpt lat="44.7552543" lon="8.0447267"><ele>229.66666666666669</ele><time>2026-04-25T17:10:55.079Z</time></trkpt><trkpt lat="44.7553249" lon="8.0445342"><ele>226.33333333333331</ele><time>2026-04-25T17:10:56.078Z</time></trkpt><trkpt lat="44.7554105" lon="8.0443364"><ele>223.0</ele><time>2026-04-25T17:10:57.078Z</time></trkpt><trkpt lat="44.7554971" lon="8.0441562"><ele>224.0</ele><time>2026-04-25T17:10:58.079Z</time></trkpt><trkpt lat="44.7555815" lon="8.0439741"><ele>225.0</ele><time>2026-04-25T17:10:59.079Z</time></trkpt><trkpt lat="44.7556545" lon="8.0437954"><ele>226.0</ele><time>2026-04-25T17:11:00.078Z</time></trkpt><trkpt lat="44.7557333" lon="8.0436264"><ele>227.0</ele><time>2026-04-25T17:11:01.079Z</time></trkpt><trkpt lat="44.7557928" lon="8.0434723"><ele>227.0</ele><time>2026-04-25T17:11:02.079Z</time></trkpt><trkpt lat="44.7558348" lon="8.0433276"><ele>227.0</ele><time>2026-04-25T17:11:03.079Z</time></trkpt><trkpt lat="44.755861" lon="8.0431195"><ele>227.0</ele><time>2026-04-25T17:11:04.079Z</time></trkpt><trkpt lat="44.7558844" lon="8.0429425"><ele>227.0</ele><time>2026-04-25T17:11:05.079Z</time></trkpt><trkpt lat="44.7558664" lon="8.0427169"><ele>228.33333333333334</ele><time>2026-04-25T17:11:06.079Z</time></trkpt><trkpt lat="44.7558412" lon="8.042494"><ele>229.66666666666669</ele><time>2026-04-25T17:11:07.078Z</time></trkpt><trkpt lat="44.7558191" lon="8.0422793"><ele>231.0</ele><time>2026-04-25T17:11:08.079Z</time></trkpt><trkpt lat="44.7557783" lon="8.0420429"><ele>231.33333333333331</ele><time>2026-04-25T17:11:09.079Z</time></trkpt><trkpt lat="44.7557319" lon="8.0418198"><ele>231.66666666666666</ele><time>2026-04-25T17:11:10.078Z</time></trkpt><trkpt lat="44.7556822" lon="8.0415873"><ele>232.0</ele><time>2026-04-25T17:11:11.079Z</time></trkpt><trkpt lat="44.7556432" lon="8.041387"><ele>233.25</ele><time>2026-04-25T17:11:12.079Z</time></trkpt><trkpt lat="44.7556141" lon="8.0411918"><ele>234.5</ele><time>2026-04-25T17:11:13.079Z</time></trkpt><trkpt lat="44.7556316" lon="8.0410159"><ele>235.75</ele><time>2026-04-25T17:11:14.079Z</time></trkpt><trkpt lat="44.7556535" lon="8.0408404"><ele>237.0</ele><time>2026-04-25T17:11:15.078Z</time></trkpt><trkpt lat="44.7556871" lon="8.0406702"><ele>239.5</ele><time>2026-04-25T17:11:16.078Z</time></trkpt><trkpt lat="44.7557566" lon="8.0405162"><ele>242.0</ele><time>2026-04-25T17:11:17.079Z</time></trkpt><trkpt lat="44.7558474" lon="8.0403557"><ele>244.5</ele><time>2026-04-25T17:11:18.078Z</time></trkpt><trkpt lat="44.7559695" lon="8.0402455"><ele>247.0</ele><time>2026-04-25T17:11:19.079Z</time></trkpt><trkpt lat="44.7561131" lon="8.0401995"><ele>248.0</ele><time>2026-04-25T17:11:20.079Z</time></trkpt><trkpt lat="44.7562784" lon="8.0401818"><ele>249.0</ele><time>2026-04-25T17:11:21.079Z</time></trkpt><trkpt lat="44.7564103" lon="8.0402084"><ele>250.0</ele><time>2026-04-25T17:11:22.079Z</time></trkpt><trkpt lat="44.7565575" lon="8.040211"><ele>251.0</ele><time>2026-04-25T17:11:23.079Z</time></trkpt><trkpt lat="44.7566946" lon="8.0402211"><ele>251.0</ele><time>2026-04-25T17:11:24.079Z</time></trkpt><trkpt lat="44.7568322" lon="8.0402261"><ele>251.00000000000003</ele><time>2026-04-25T17:11:26.078Z</time></trkpt><trkpt lat="44.7569428" lon="8.0401602"><ele>251.00000000000003</ele><time>2026-04-25T17:11:28.079Z</time></trkpt><trkpt lat="44.7569142" lon="8.0400717"><ele>251.0</ele><time>2026-04-25T17:11:29.079Z</time></trkpt><trkpt lat="44.7568494" lon="8.0399413"><ele>251.0</ele><time>2026-04-25T17:11:31.078Z</time></trkpt><trkpt lat="44.7567115" lon="8.0399137"><ele>252.66666666666669</ele><time>2026-04-25T17:11:32.079Z</time></trkpt><trkpt lat="44.7566274" lon="8.0398782"><ele>254.33333333333334</ele><time>2026-04-25T17:11:33.079Z</time></trkpt><trkpt lat="44.7565709" lon="8.0398181"><ele>256.0</ele><time>2026-04-25T17:11:34.079Z</time></trkpt><trkpt lat="44.7565292" lon="8.0397388"><ele>257.6666666666667</ele><time>2026-04-25T17:11:35.079Z</time></trkpt><trkpt lat="44.7565061" lon="8.039651"><ele>259.3333333333333</ele><time>2026-04-25T17:11:36.079Z</time></trkpt><trkpt lat="44.7565482" lon="8.0395268"><ele>261.0</ele><time>2026-04-25T17:11:38.079Z</time></trkpt><trkpt lat="44.7566668" lon="8.0395519"><ele>261.0</ele><time>2026-04-25T17:11:39.079Z</time></trkpt><trkpt lat="44.7567436" lon="8.0395708"><ele>261.0</ele><time>2026-04-25T17:11:40.079Z</time></trkpt><trkpt lat="44.7568529" lon="8.0396706"><ele>261.0</ele><time>2026-04-25T17:11:41.079Z</time></trkpt><trkpt lat="44.7569529" lon="8.0397448"><ele>261.0</ele><time>2026-04-25T17:11:42.079Z</time></trkpt><trkpt lat="44.75704" lon="8.0398475"><ele>261.0</ele><time>2026-04-25T17:11:43.079Z</time></trkpt><trkpt lat="44.7571233" lon="8.0399223"><ele>260.5</ele><time>2026-04-25T17:11:44.079Z</time></trkpt><trkpt lat="44.7572041" lon="8.03997"><ele>260.0</ele><time>2026-04-25T17:11:45.079Z</time></trkpt><trkpt lat="44.7573005" lon="8.0400022"><ele>259.5</ele><time>2026-04-25T17:11:46.079Z</time></trkpt><trkpt lat="44.75748" lon="8.0399309"><ele>259.0</ele><time>2026-04-25T17:11:47.079Z</time></trkpt><trkpt lat="44.7576044" lon="8.0399165"><ele>262.4</ele><time>2026-04-25T17:11:48.078Z</time></trkpt><trkpt lat="44.7577145" lon="8.0398977"><ele>265.79999999999995</ele><time>2026-04-25T17:11:49.079Z</time></trkpt><trkpt lat="44.7578333" lon="8.0398862"><ele>269.20000000000005</ele><time>2026-04-25T17:11:50.079Z</time></trkpt><trkpt lat="44.7579294" lon="8.0398706"><ele>272.6</ele><time>2026-04-25T17:11:51.079Z</time></trkpt><trkpt lat="44.7580013" lon="8.0398469"><ele>276.0</ele><time>2026-04-25T17:11:52.079Z</time></trkpt><trkpt lat="44.7580693" lon="8.0398015"><ele>276.0</ele><time>2026-04-25T17:11:53.079Z</time></trkpt><trkpt lat="44.7581225" lon="8.0397283"><ele>276.0</ele><time>2026-04-25T17:11:54.078Z</time></trkpt><trkpt lat="44.7581652" lon="8.0396602"><ele>276.0</ele><time>2026-04-25T17:11:55.078Z</time></trkpt><trkpt lat="44.7581156" lon="8.0395734"><ele>276.0</ele><time>2026-04-25T17:11:56.079Z</time></trkpt><trkpt lat="44.7580391" lon="8.0394731"><ele>276.0</ele><time>2026-04-25T17:11:57.078Z</time></trkpt><trkpt lat="44.7579494" lon="8.0393998"><ele>276.0</ele><time>2026-04-25T17:11:58.078Z</time></trkpt><trkpt lat="44.7577655" lon="8.0394251"><ele>275.6</ele><time>2026-04-25T17:11:59.079Z</time></trkpt><trkpt lat="44.7576292" lon="8.0394218"><ele>275.20000000000005</ele><time>2026-04-25T17:12:00.079Z</time></trkpt><trkpt lat="44.7575546" lon="8.039365"><ele>274.79999999999995</ele><time>2026-04-25T17:12:01.078Z</time></trkpt><trkpt lat="44.7574786" lon="8.0393087"><ele>274.4</ele><time>2026-04-25T17:12:02.079Z</time></trkpt><trkpt lat="44.7573682" lon="8.0392115"><ele>274.0</ele><time>2026-04-25T17:12:03.078Z</time></trkpt><trkpt lat="44.7572767" lon="8.0391144"><ele>275.75</ele><time>2026-04-25T17:12:04.078Z</time></trkpt><trkpt lat="44.7572325" lon="8.0389604"><ele>277.5</ele><time>2026-04-25T17:12:05.079Z</time></trkpt><trkpt lat="44.7572005" lon="8.0387954"><ele>279.25</ele><time>2026-04-25T17:12:06.079Z</time></trkpt><trkpt lat="44.7571779" lon="8.0386107"><ele>281.0</ele><time>2026-04-25T17:12:07.079Z</time></trkpt><trkpt lat="44.7571377" lon="8.0384016"><ele>280.33333333333337</ele><time>2026-04-25T17:12:08.079Z</time></trkpt><trkpt lat="44.7570987" lon="8.0381921"><ele>279.6666666666667</ele><time>2026-04-25T17:12:09.078Z</time></trkpt><trkpt lat="44.7570648" lon="8.0379701"><ele>279.0</ele><time>2026-04-25T17:12:10.078Z</time></trkpt><trkpt lat="44.7570385" lon="8.0377214"><ele>279.0</ele><time>2026-04-25T17:12:11.079Z</time></trkpt><trkpt lat="44.7570024" lon="8.0375283"><ele>279.0</ele><time>2026-04-25T17:12:12.078Z</time></trkpt><trkpt lat="44.7569656" lon="8.037311"><ele>279.0</ele><time>2026-04-25T17:12:13.078Z</time></trkpt><trkpt lat="44.7569313" lon="8.0371618"><ele>279.0</ele><time>2026-04-25T17:12:14.079Z</time></trkpt><trkpt lat="44.7568933" lon="8.0370085"><ele>280.75</ele><time>2026-04-25T17:12:15.079Z</time></trkpt><trkpt lat="44.7568264" lon="8.0368532"><ele>282.5</ele><time>2026-04-25T17:12:16.079Z</time></trkpt><trkpt lat="44.7567528" lon="8.0367118"><ele>284.25</ele><time>2026-04-25T17:12:17.078Z</time></trkpt><trkpt lat="44.7566802" lon="8.0365926"><ele>286.0</ele><time>2026-04-25T17:12:18.079Z</time></trkpt><trkpt lat="44.7565836" lon="8.0364743"><ele>286.0</ele><time>2026-04-25T17:12:19.078Z</time></trkpt><trkpt lat="44.7564882" lon="8.036346"><ele>286.0</ele><time>2026-04-25T17:12:20.079Z</time></trkpt><trkpt lat="44.7563934" lon="8.0362083"><ele>286.0</ele><time>2026-04-25T17:12:21.079Z</time></trkpt><trkpt lat="44.7563167" lon="8.0360618"><ele>286.0</ele><time>2026-04-25T17:12:22.079Z</time></trkpt><trkpt lat="44.756242" lon="8.0358873"><ele>285.75</ele><time>2026-04-25T17:12:23.078Z</time></trkpt><trkpt lat="44.7561648" lon="8.0357291"><ele>285.5</ele><time>2026-04-25T17:12:24.079Z</time></trkpt><trkpt lat="44.7560838" lon="8.0355749"><ele>285.25</ele><time>2026-04-25T17:12:25.079Z</time></trkpt><trkpt lat="44.7560288" lon="8.0353989"><ele>285.0</ele><time>2026-04-25T17:12:26.079Z</time></trkpt><trkpt lat="44.7559572" lon="8.035249"><ele>287.25</ele><time>2026-04-25T17:12:27.078Z</time></trkpt><trkpt lat="44.7558981" lon="8.0350902"><ele>289.5</ele><time>2026-04-25T17:12:28.079Z</time></trkpt><trkpt lat="44.7558508" lon="8.0349428"><ele>291.75</ele><time>2026-04-25T17:12:29.079Z</time></trkpt><trkpt lat="44.7558162" lon="8.0348003"><ele>294.0</ele><time>2026-04-25T17:12:30.079Z</time></trkpt><trkpt lat="44.7558024" lon="8.0346441"><ele>295.0</ele><time>2026-04-25T17:12:31.079Z</time></trkpt><trkpt lat="44.7558095" lon="8.0344908"><ele>296.0</ele><time>2026-04-25T17:12:32.078Z</time></trkpt><trkpt lat="44.7558454" lon="8.0343537"><ele>297.0</ele><time>2026-04-25T17:12:33.079Z</time></trkpt><trkpt lat="44.7558997" lon="8.0342319"><ele>298.0</ele><time>2026-04-25T17:12:34.079Z</time></trkpt><trkpt lat="44.7559851" lon="8.0341238"><ele>299.0</ele><time>2026-04-25T17:12:35.078Z</time></trkpt><trkpt lat="44.7560871" lon="8.0340319"><ele>301.25</ele><time>2026-04-25T17:12:36.079Z</time></trkpt><trkpt lat="44.7562039" lon="8.0339273"><ele>303.5</ele><time>2026-04-25T17:12:37.079Z</time></trkpt><trkpt lat="44.756334" lon="8.0338409"><ele>305.75</ele><time>2026-04-25T17:12:38.079Z</time></trkpt><trkpt lat="44.7564463" lon="8.0337434"><ele>308.0</ele><time>2026-04-25T17:12:39.078Z</time></trkpt><trkpt lat="44.7565415" lon="8.0336652"><ele>308.0</ele><time>2026-04-25T17:12:40.078Z</time></trkpt><trkpt lat="44.756642" lon="8.0335694"><ele>308.0</ele><time>2026-04-25T17:12:41.079Z</time></trkpt><trkpt lat="44.7567496" lon="8.0334723"><ele>308.0</ele><time>2026-04-25T17:12:43.079Z</time></trkpt><trkpt lat="44.7568186" lon="8.033378"><ele>308.0</ele><time>2026-04-25T17:12:44.079Z</time></trkpt><trkpt lat="44.7569147" lon="8.0332368"><ele>307.75</ele><time>2026-04-25T17:12:45.078Z</time></trkpt><trkpt lat="44.7569854" lon="8.0331205"><ele>307.5</ele><time>2026-04-25T17:12:46.079Z</time></trkpt><trkpt lat="44.7570668" lon="8.0329893"><ele>307.25</ele><time>2026-04-25T17:12:47.078Z</time></trkpt><trkpt lat="44.7571589" lon="8.0328604"><ele>307.0</ele><time>2026-04-25T17:12:48.079Z</time></trkpt><trkpt lat="44.7572538" lon="8.0327372"><ele>307.0</ele><time>2026-04-25T17:12:49.079Z</time></trkpt><trkpt lat="44.7573585" lon="8.0326204"><ele>307.0</ele><time>2026-04-25T17:12:50.078Z</time></trkpt><trkpt lat="44.757463" lon="8.0325132"><ele>307.0</ele><time>2026-04-25T17:12:51.078Z</time></trkpt><trkpt lat="44.7575734" lon="8.0324186"><ele>307.0</ele><time>2026-04-25T17:12:52.079Z</time></trkpt><trkpt lat="44.7576755" lon="8.0323269"><ele>306.25</ele><time>2026-04-25T17:12:53.079Z</time></trkpt><trkpt lat="44.7577788" lon="8.0322398"><ele>305.5</ele><time>2026-04-25T17:12:54.079Z</time></trkpt><trkpt lat="44.7578918" lon="8.0321465"><ele>304.75</ele><time>2026-04-25T17:12:55.079Z</time></trkpt><trkpt lat="44.758026" lon="8.0320749"><ele>304.0</ele><time>2026-04-25T17:12:56.079Z</time></trkpt><trkpt lat="44.7581631" lon="8.0320154"><ele>304.0</ele><time>2026-04-25T17:12:57.078Z</time></trkpt><trkpt lat="44.7583072" lon="8.0319588"><ele>304.0</ele><time>2026-04-25T17:12:58.079Z</time></trkpt><trkpt lat="44.7584481" lon="8.0318962"><ele>304.0</ele><time>2026-04-25T17:12:59.079Z</time></trkpt><trkpt lat="44.7585928" lon="8.0318402"><ele>304.0</ele><time>2026-04-25T17:13:00.079Z</time></trkpt><trkpt lat="44.7587303" lon="8.0317851"><ele>300.5</ele><time>2026-04-25T17:13:01.079Z</time></trkpt><trkpt lat="44.7588734" lon="8.0317392"><ele>297.0</ele><time>2026-04-25T17:13:02.079Z</time></trkpt><trkpt lat="44.7590219" lon="8.0317083"><ele>293.5</ele><time>2026-04-25T17:13:03.079Z</time></trkpt><trkpt lat="44.7591597" lon="8.0316946"><ele>290.0</ele><time>2026-04-25T17:13:04.079Z</time></trkpt><trkpt lat="44.7593131" lon="8.0316887"><ele>287.33333333333337</ele><time>2026-04-25T17:13:05.079Z</time></trkpt><trkpt lat="44.7594708" lon="8.0316987"><ele>284.6666666666667</ele><time>2026-04-25T17:13:06.079Z</time></trkpt><trkpt lat="44.7596301" lon="8.0317366"><ele>282.0</ele><time>2026-04-25T17:13:07.079Z</time></trkpt><trkpt lat="44.7598259" lon="8.0317787"><ele>282.0</ele><time>2026-04-25T17:13:08.079Z</time></trkpt><trkpt lat="44.7600213" lon="8.0318321"><ele>282.0</ele><time>2026-04-25T17:13:09.078Z</time></trkpt><trkpt lat="44.7602211" lon="8.0318997"><ele>282.0</ele><time>2026-04-25T17:13:10.079Z</time></trkpt><trkpt lat="44.7604231" lon="8.0319584"><ele>279.6666666666667</ele><time>2026-04-25T17:13:11.079Z</time></trkpt><trkpt lat="44.7606334" lon="8.0320148"><ele>277.33333333333337</ele><time>2026-04-25T17:13:12.079Z</time></trkpt><trkpt lat="44.7608515" lon="8.0320713"><ele>275.0</ele><time>2026-04-25T17:13:13.078Z</time></trkpt><trkpt lat="44.7610504" lon="8.0321274"><ele>272.33333333333337</ele><time>2026-04-25T17:13:14.078Z</time></trkpt><trkpt lat="44.7612516" lon="8.0321756"><ele>269.6666666666667</ele><time>2026-04-25T17:13:15.078Z</time></trkpt><trkpt lat="44.7614397" lon="8.0322212"><ele>267.0</ele><time>2026-04-25T17:13:16.078Z</time></trkpt><trkpt lat="44.761636" lon="8.0322725"><ele>267.0</ele><time>2026-04-25T17:13:17.079Z</time></trkpt><trkpt lat="44.7618082" lon="8.032318"><ele>267.0</ele><time>2026-04-25T17:13:18.079Z</time></trkpt><trkpt lat="44.7619926" lon="8.032362"><ele>267.0</ele><time>2026-04-25T17:13:19.079Z</time></trkpt><trkpt lat="44.7621717" lon="8.0324101"><ele>264.25</ele><time>2026-04-25T17:13:20.079Z</time></trkpt><trkpt lat="44.7623119" lon="8.032461"><ele>261.5</ele><time>2026-04-25T17:13:21.079Z</time></trkpt><trkpt lat="44.7624573" lon="8.0324901"><ele>258.75</ele><time>2026-04-25T17:13:22.078Z</time></trkpt><trkpt lat="44.7625864" lon="8.0325028"><ele>256.0</ele><time>2026-04-25T17:13:23.078Z</time></trkpt><trkpt lat="44.7627172" lon="8.0324939"><ele>253.75</ele><time>2026-04-25T17:13:24.079Z</time></trkpt><trkpt lat="44.762844" lon="8.0324554"><ele>251.5</ele><time>2026-04-25T17:13:25.078Z</time></trkpt><trkpt lat="44.7629728" lon="8.032372"><ele>249.25</ele><time>2026-04-25T17:13:26.079Z</time></trkpt><trkpt lat="44.7630819" lon="8.0322702"><ele>247.0</ele><time>2026-04-25T17:13:27.078Z</time></trkpt><trkpt lat="44.7631741" lon="8.0321308"><ele>247.0</ele><time>2026-04-25T17:13:28.078Z</time></trkpt><trkpt lat="44.7632593" lon="8.0319697"><ele>247.0</ele><time>2026-04-25T17:13:29.079Z</time></trkpt><trkpt lat="44.7633468" lon="8.0318052"><ele>247.0</ele><time>2026-04-25T17:13:30.078Z</time></trkpt><trkpt lat="44.7633828" lon="8.0315917"><ele>247.0</ele><time>2026-04-25T17:13:31.078Z</time></trkpt><trkpt lat="44.7634233" lon="8.0313852"><ele>246.66666666666666</ele><time>2026-04-25T17:13:32.079Z</time></trkpt><trkpt lat="44.7634641" lon="8.0311703"><ele>246.33333333333331</ele><time>2026-04-25T17:13:33.079Z</time></trkpt><trkpt lat="44.763515" lon="8.0309629"><ele>246.0</ele><time>2026-04-25T17:13:34.079Z</time></trkpt><trkpt lat="44.7635179" lon="8.0307704"><ele>245.60000000000002</ele><time>2026-04-25T17:13:35.079Z</time></trkpt><trkpt lat="44.7635374" lon="8.0305518"><ele>245.20000000000002</ele><time>2026-04-25T17:13:36.079Z</time></trkpt><trkpt lat="44.7635409" lon="8.0303818"><ele>244.79999999999998</ele><time>2026-04-25T17:13:37.078Z</time></trkpt><trkpt lat="44.7635249" lon="8.0302778"><ele>244.39999999999998</ele><time>2026-04-25T17:13:38.078Z</time></trkpt><trkpt lat="44.7635123" lon="8.0301586"><ele>244.0</ele><time>2026-04-25T17:13:39.078Z</time></trkpt><trkpt lat="44.7635282" lon="8.0300474"><ele>244.0</ele><time>2026-04-25T17:13:40.079Z</time></trkpt><trkpt lat="44.7635446" lon="8.0299498"><ele>243.99999999999997</ele><time>2026-04-25T17:13:42.079Z</time></trkpt><trkpt lat="44.7636076" lon="8.0299206"><ele>243.99999999999997</ele><time>2026-04-25T17:13:44.078Z</time></trkpt><trkpt lat="44.7637218" lon="8.0299627"><ele>244.0</ele><time>2026-04-25T17:13:47.079Z</time></trkpt><trkpt lat="44.7638418" lon="8.0300085"><ele>244.0</ele><time>2026-04-25T17:13:49.078Z</time></trkpt><trkpt lat="44.763912" lon="8.0300356"><ele>244.0</ele><time>2026-04-25T17:13:50.078Z</time></trkpt><trkpt lat="44.7640111" lon="8.0300445"><ele>244.0</ele><time>2026-04-25T17:13:51.079Z</time></trkpt><trkpt lat="44.764123" lon="8.0300116"><ele>244.0</ele><time>2026-04-25T17:13:52.079Z</time></trkpt><trkpt lat="44.7642507" lon="8.029973"><ele>244.0</ele><time>2026-04-25T17:13:53.079Z</time></trkpt><trkpt lat="44.7643705" lon="8.0299236"><ele>243.0</ele><time>2026-04-25T17:13:54.079Z</time></trkpt><trkpt lat="44.7644836" lon="8.0298613"><ele>242.0</ele><time>2026-04-25T17:13:55.078Z</time></trkpt><trkpt lat="44.7646104" lon="8.0297694"><ele>241.0</ele><time>2026-04-25T17:13:56.079Z</time></trkpt><trkpt lat="44.7647324" lon="8.0296822"><ele>240.0</ele><time>2026-04-25T17:13:57.079Z</time></trkpt><trkpt lat="44.7648618" lon="8.0295708"><ele>240.0</ele><time>2026-04-25T17:13:58.079Z</time></trkpt><trkpt lat="44.764999" lon="8.0294627"><ele>240.0</ele><time>2026-04-25T17:13:59.078Z</time></trkpt><trkpt lat="44.7651473" lon="8.0293701"><ele>240.0</ele><time>2026-04-25T17:14:00.078Z</time></trkpt><trkpt lat="44.7653088" lon="8.0292904"><ele>240.66666666666669</ele><time>2026-04-25T17:14:01.079Z</time></trkpt><trkpt lat="44.7654713" lon="8.0292068"><ele>241.33333333333334</ele><time>2026-04-25T17:14:02.079Z</time></trkpt><trkpt lat="44.7656319" lon="8.0291184"><ele>242.0</ele><time>2026-04-25T17:14:03.078Z</time></trkpt><trkpt lat="44.7657924" lon="8.0290443"><ele>240.66666666666669</ele><time>2026-04-25T17:14:04.079Z</time></trkpt><trkpt lat="44.7659618" lon="8.0289719"><ele>239.33333333333331</ele><time>2026-04-25T17:14:05.079Z</time></trkpt><trkpt lat="44.766127" lon="8.0288993"><ele>238.0</ele><time>2026-04-25T17:14:06.079Z</time></trkpt><trkpt lat="44.7662857" lon="8.0288304"><ele>242.33333333333331</ele><time>2026-04-25T17:14:07.079Z</time></trkpt><trkpt lat="44.7664576" lon="8.0287836"><ele>246.66666666666669</ele><time>2026-04-25T17:14:08.078Z</time></trkpt><trkpt lat="44.766623" lon="8.0287549"><ele>251.0</ele><time>2026-04-25T17:14:09.079Z</time></trkpt><trkpt lat="44.7667863" lon="8.0287108"><ele>256.6666666666667</ele><time>2026-04-25T17:14:10.079Z</time></trkpt><trkpt lat="44.7669624" lon="8.0286656"><ele>262.3333333333333</ele><time>2026-04-25T17:14:11.079Z</time></trkpt><trkpt lat="44.7671281" lon="8.0286168"><ele>268.0</ele><time>2026-04-25T17:14:12.079Z</time></trkpt><trkpt lat="44.7673007" lon="8.0285876"><ele>268.0</ele><time>2026-04-25T17:14:13.079Z</time></trkpt><trkpt lat="44.7674636" lon="8.0285601"><ele>268.0</ele><time>2026-04-25T17:14:14.078Z</time></trkpt><trkpt lat="44.7676123" lon="8.0285355"><ele>268.0</ele><time>2026-04-25T17:14:15.078Z</time></trkpt><trkpt lat="44.7677472" lon="8.0285426"><ele>268.0</ele><time>2026-04-25T17:14:16.079Z</time></trkpt><trkpt lat="44.7679013" lon="8.0285601"><ele>270.0</ele><time>2026-04-25T17:14:17.078Z</time></trkpt><trkpt lat="44.7679794" lon="8.0286238"><ele>272.0</ele><time>2026-04-25T17:14:18.078Z</time></trkpt><trkpt lat="44.7680806" lon="8.0286473"><ele>274.0</ele><time>2026-04-25T17:14:19.078Z</time></trkpt><trkpt lat="44.7682008" lon="8.0286658"><ele>276.0</ele><time>2026-04-25T17:14:20.079Z</time></trkpt><trkpt lat="44.7682942" lon="8.0286506"><ele>278.0</ele><time>2026-04-25T17:14:21.078Z</time></trkpt><trkpt lat="44.7683861" lon="8.0285721"><ele>282.0</ele><time>2026-04-25T17:14:23.079Z</time></trkpt><trkpt lat="44.7684015" lon="8.0282658"><ele>286.0</ele><time>2026-04-25T17:14:25.079Z</time></trkpt><trkpt lat="44.7684168" lon="8.0280698"><ele>290.0</ele><time>2026-04-25T17:14:26.079Z</time></trkpt><trkpt lat="44.7684187" lon="8.0279099"><ele>290.0</ele><time>2026-04-25T17:14:27.079Z</time></trkpt><trkpt lat="44.7684399" lon="8.0277546"><ele>290.0</ele><time>2026-04-25T17:14:28.079Z</time></trkpt><trkpt lat="44.7684996" lon="8.0276254"><ele>290.0</ele><time>2026-04-25T17:14:29.078Z</time></trkpt><trkpt lat="44.7685566" lon="8.0275128"><ele>290.0</ele><time>2026-04-25T17:14:30.078Z</time></trkpt><trkpt lat="44.7686428" lon="8.0274137"><ele>290.0</ele><time>2026-04-25T17:14:31.079Z</time></trkpt><trkpt lat="44.7687432" lon="8.0273234"><ele>295.0</ele><time>2026-04-25T17:14:32.079Z</time></trkpt><trkpt lat="44.7688573" lon="8.0272185"><ele>300.0</ele><time>2026-04-25T17:14:33.079Z</time></trkpt><trkpt lat="44.7689783" lon="8.0271329"><ele>305.0</ele><time>2026-04-25T17:14:34.079Z</time></trkpt><trkpt lat="44.7690889" lon="8.0270388"><ele>310.0</ele><time>2026-04-25T17:14:35.079Z</time></trkpt><trkpt lat="44.7692115" lon="8.0269282"><ele>310.0</ele><time>2026-04-25T17:14:36.079Z</time></trkpt><trkpt lat="44.7693327" lon="8.0268413"><ele>310.0</ele><time>2026-04-25T17:14:37.079Z</time></trkpt><trkpt lat="44.7694558" lon="8.0267686"><ele>310.0</ele><time>2026-04-25T17:14:38.079Z</time></trkpt><trkpt lat="44.7695965" lon="8.0267003"><ele>310.0</ele><time>2026-04-25T17:14:39.079Z</time></trkpt><trkpt lat="44.7697235" lon="8.0266237"><ele>308.8</ele><time>2026-04-25T17:14:40.079Z</time></trkpt><trkpt lat="44.7698557" lon="8.0265518"><ele>307.6</ele><time>2026-04-25T17:14:41.079Z</time></trkpt><trkpt lat="44.7699223" lon="8.0265157"><ele>306.4</ele><time>2026-04-25T17:14:42.079Z</time></trkpt><trkpt lat="44.770013" lon="8.0264726"><ele>305.2</ele><time>2026-04-25T17:14:43.078Z</time></trkpt><trkpt lat="44.7700991" lon="8.0264323"><ele>304.0</ele><time>2026-04-25T17:14:44.079Z</time></trkpt><trkpt lat="44.7701842" lon="8.0264033"><ele>299.8</ele><time>2026-04-25T17:14:45.078Z</time></trkpt><trkpt lat="44.7702658" lon="8.0263792"><ele>295.59999999999997</ele><time>2026-04-25T17:14:46.079Z</time></trkpt><trkpt lat="44.7703692" lon="8.0263848"><ele>291.4</ele><time>2026-04-25T17:14:47.079Z</time></trkpt><trkpt lat="44.7704765" lon="8.0263997"><ele>287.2</ele><time>2026-04-25T17:14:48.079Z</time></trkpt><trkpt lat="44.7705785" lon="8.026425"><ele>283.0</ele><time>2026-04-25T17:14:49.079Z</time></trkpt><trkpt lat="44.7706848" lon="8.0264558"><ele>283.0</ele><time>2026-04-25T17:14:50.079Z</time></trkpt><trkpt lat="44.7707832" lon="8.0265137"><ele>283.0</ele><time>2026-04-25T17:14:51.078Z</time></trkpt><trkpt lat="44.7709375" lon="8.0265968"><ele>283.0</ele><time>2026-04-25T17:14:52.078Z</time></trkpt><trkpt lat="44.7710547" lon="8.0266853"><ele>283.0</ele><time>2026-04-25T17:14:53.078Z</time></trkpt><trkpt lat="44.7711699" lon="8.0267642"><ele>288.25</ele><time>2026-04-25T17:14:54.079Z</time></trkpt><trkpt lat="44.7712987" lon="8.026832"><ele>293.5</ele><time>2026-04-25T17:14:55.078Z</time></trkpt><trkpt lat="44.7714189" lon="8.0268751"><ele>298.75</ele><time>2026-04-25T17:14:56.079Z</time></trkpt><trkpt lat="44.771547" lon="8.026898"><ele>304.0</ele><time>2026-04-25T17:14:57.078Z</time></trkpt><trkpt lat="44.771655" lon="8.0269026"><ele>304.0</ele><time>2026-04-25T17:14:58.078Z</time></trkpt><trkpt lat="44.7717711" lon="8.0268972"><ele>304.0</ele><time>2026-04-25T17:14:59.079Z</time></trkpt><trkpt lat="44.7718876" lon="8.0268677"><ele>304.0</ele><time>2026-04-25T17:15:00.079Z</time></trkpt><trkpt lat="44.7720008" lon="8.0268326"><ele>304.0</ele><time>2026-04-25T17:15:01.078Z</time></trkpt><trkpt lat="44.7721142" lon="8.0267718"><ele>304.59999999999997</ele><time>2026-04-25T17:15:02.079Z</time></trkpt><trkpt lat="44.7722193" lon="8.026697"><ele>305.2</ele><time>2026-04-25T17:15:03.078Z</time></trkpt><trkpt lat="44.7723163" lon="8.0266237"><ele>305.79999999999995</ele><time>2026-04-25T17:15:04.078Z</time></trkpt><trkpt lat="44.7724139" lon="8.0265612"><ele>306.4</ele><time>2026-04-25T17:15:05.078Z</time></trkpt><trkpt lat="44.7724946" lon="8.0265178"><ele>307.0</ele><time>2026-04-25T17:15:06.078Z</time></trkpt><trkpt lat="44.772587" lon="8.0264566"><ele>307.0</ele><time>2026-04-25T17:15:07.079Z</time></trkpt><trkpt lat="44.7726757" lon="8.0264143"><ele>307.0</ele><time>2026-04-25T17:15:08.079Z</time></trkpt><trkpt lat="44.7727762" lon="8.0263934"><ele>307.0</ele><time>2026-04-25T17:15:09.078Z</time></trkpt><trkpt lat="44.7728674" lon="8.0263751"><ele>307.0</ele><time>2026-04-25T17:15:10.079Z</time></trkpt><trkpt lat="44.772954" lon="8.0263683"><ele>307.0</ele><time>2026-04-25T17:15:11.078Z</time></trkpt><trkpt lat="44.7730613" lon="8.0263552"><ele>307.0</ele><time>2026-04-25T17:15:12.079Z</time></trkpt><trkpt lat="44.7731764" lon="8.026374"><ele>307.0</ele><time>2026-04-25T17:15:13.078Z</time></trkpt><trkpt lat="44.7732915" lon="8.0263877"><ele>307.0</ele><time>2026-04-25T17:15:14.079Z</time></trkpt><trkpt lat="44.7733978" lon="8.0264103"><ele>307.0</ele><time>2026-04-25T17:15:15.079Z</time></trkpt><trkpt lat="44.7734976" lon="8.0264312"><ele>307.0</ele><time>2026-04-25T17:15:16.079Z</time></trkpt><trkpt lat="44.7736035" lon="8.0264609"><ele>307.0</ele><time>2026-04-25T17:15:17.079Z</time></trkpt><trkpt lat="44.7737122" lon="8.0264838"><ele>307.0</ele><time>2026-04-25T17:15:18.079Z</time></trkpt><trkpt lat="44.7738008" lon="8.026527"><ele>307.0</ele><time>2026-04-25T17:15:19.078Z</time></trkpt><trkpt lat="44.7739079" lon="8.0265752"><ele>307.0</ele><time>2026-04-25T17:15:20.079Z</time></trkpt><trkpt lat="44.7739955" lon="8.0266118"><ele>307.0</ele><time>2026-04-25T17:15:21.079Z</time></trkpt><trkpt lat="44.7740686" lon="8.0266684"><ele>307.0</ele><time>2026-04-25T17:15:22.079Z</time></trkpt><trkpt lat="44.7741267" lon="8.0267425"><ele>307.0</ele><time>2026-04-25T17:15:23.079Z</time></trkpt><trkpt lat="44.7741854" lon="8.0268135"><ele>307.0</ele><time>2026-04-25T17:15:24.079Z</time></trkpt><trkpt lat="44.7742481" lon="8.0268891"><ele>307.0</ele><time>2026-04-25T17:15:25.079Z</time></trkpt><trkpt lat="44.7743213" lon="8.0269476"><ele>307.0</ele><time>2026-04-25T17:15:26.079Z</time></trkpt><trkpt lat="44.7744103" lon="8.0269886"><ele>307.0</ele><time>2026-04-25T17:15:27.079Z</time></trkpt><trkpt lat="44.7744866" lon="8.0270382"><ele>305.25</ele><time>2026-04-25T17:15:28.079Z</time></trkpt><trkpt lat="44.7745937" lon="8.0270428"><ele>303.5</ele><time>2026-04-25T17:15:30.079Z</time></trkpt><trkpt lat="44.774661" lon="8.0270146"><ele>301.75</ele><time>2026-04-25T17:15:31.079Z</time></trkpt><trkpt lat="44.7748104" lon="8.0270041"><ele>300.0</ele><time>2026-04-25T17:15:33.079Z</time></trkpt><trkpt lat="44.7749331" lon="8.0270231"><ele>300.0</ele><time>2026-04-25T17:15:34.079Z</time></trkpt><trkpt lat="44.7750755" lon="8.0270416"><ele>300.0</ele><time>2026-04-25T17:15:35.079Z</time></trkpt><trkpt lat="44.7752102" lon="8.0270763"><ele>300.0</ele><time>2026-04-25T17:15:36.079Z</time></trkpt><trkpt lat="44.7753365" lon="8.0271335"><ele>300.0</ele><time>2026-04-25T17:15:37.079Z</time></trkpt><trkpt lat="44.7754592" lon="8.0272131"><ele>299.5</ele><time>2026-04-25T17:15:38.079Z</time></trkpt><trkpt lat="44.7755938" lon="8.0272757"><ele>299.0</ele><time>2026-04-25T17:15:39.079Z</time></trkpt><trkpt lat="44.7757249" lon="8.0273787"><ele>298.5</ele><time>2026-04-25T17:15:40.079Z</time></trkpt><trkpt lat="44.7758639" lon="8.0274522"><ele>298.0</ele><time>2026-04-25T17:15:41.078Z</time></trkpt><trkpt lat="44.775966" lon="8.0274823"><ele>294.2</ele><time>2026-04-25T17:15:42.078Z</time></trkpt><trkpt lat="44.7760601" lon="8.0274595"><ele>290.4</ele><time>2026-04-25T17:15:43.079Z</time></trkpt><trkpt lat="44.7761661" lon="8.0274039"><ele>286.59999999999997</ele><time>2026-04-25T17:15:44.079Z</time></trkpt><trkpt lat="44.776248" lon="8.0273479"><ele>282.8</ele><time>2026-04-25T17:15:45.079Z</time></trkpt><trkpt lat="44.7763098" lon="8.027305"><ele>279.0</ele><time>2026-04-25T17:15:46.079Z</time></trkpt><trkpt lat="44.7763976" lon="8.0272382"><ele>279.0</ele><time>2026-04-25T17:15:47.078Z</time></trkpt><trkpt lat="44.7764782" lon="8.0271799"><ele>279.0</ele><time>2026-04-25T17:15:48.078Z</time></trkpt><trkpt lat="44.7765785" lon="8.0271226"><ele>279.0</ele><time>2026-04-25T17:15:49.078Z</time></trkpt><trkpt lat="44.7766742" lon="8.0270659"><ele>279.0</ele><time>2026-04-25T17:15:50.079Z</time></trkpt><trkpt lat="44.7767805" lon="8.0270097"><ele>279.0</ele><time>2026-04-25T17:15:51.078Z</time></trkpt><trkpt lat="44.7768779" lon="8.0269446"><ele>280.3333333333333</ele><time>2026-04-25T17:15:52.078Z</time></trkpt><trkpt lat="44.7769859" lon="8.0269501"><ele>281.6666666666667</ele><time>2026-04-25T17:15:53.079Z</time></trkpt><trkpt lat="44.7770832" lon="8.0269216"><ele>283.0</ele><time>2026-04-25T17:15:54.079Z</time></trkpt><trkpt lat="44.7771593" lon="8.0269074"><ele>284.33333333333337</ele><time>2026-04-25T17:15:55.079Z</time></trkpt><trkpt lat="44.7772387" lon="8.0268796"><ele>285.6666666666667</ele><time>2026-04-25T17:15:56.078Z</time></trkpt><trkpt lat="44.7772996" lon="8.0268493"><ele>287.0</ele><time>2026-04-25T17:15:57.078Z</time></trkpt><trkpt lat="44.7773629" lon="8.0268375"><ele>287.0</ele><time>2026-04-25T17:15:58.079Z</time></trkpt><trkpt lat="44.7774866" lon="8.0268202"><ele>287.0</ele><time>2026-04-25T17:16:00.078Z</time></trkpt><trkpt lat="44.7775587" lon="8.0267839"><ele>287.0</ele><time>2026-04-25T17:16:01.078Z</time></trkpt><trkpt lat="44.7777129" lon="8.0267823"><ele>287.0</ele><time>2026-04-25T17:16:02.079Z</time></trkpt><trkpt lat="44.7778409" lon="8.0267857"><ele>286.5</ele><time>2026-04-25T17:16:03.079Z</time></trkpt><trkpt lat="44.7779676" lon="8.0268157"><ele>286.0</ele><time>2026-04-25T17:16:04.079Z</time></trkpt><trkpt lat="44.7781111" lon="8.0268491"><ele>285.5</ele><time>2026-04-25T17:16:05.078Z</time></trkpt><trkpt lat="44.7782471" lon="8.0268799"><ele>285.0</ele><time>2026-04-25T17:16:06.079Z</time></trkpt><trkpt lat="44.7783966" lon="8.0269243"><ele>285.0</ele><time>2026-04-25T17:16:07.079Z</time></trkpt><trkpt lat="44.7785429" lon="8.0269491"><ele>285.0</ele><time>2026-04-25T17:16:08.079Z</time></trkpt><trkpt lat="44.778696" lon="8.0269576"><ele>285.0</ele><time>2026-04-25T17:16:09.079Z</time></trkpt><trkpt lat="44.7788523" lon="8.0269466"><ele>285.0</ele><time>2026-04-25T17:16:10.079Z</time></trkpt><trkpt lat="44.7790114" lon="8.0269333"><ele>285.0</ele><time>2026-04-25T17:16:11.079Z</time></trkpt><trkpt lat="44.7791723" lon="8.0269071"><ele>285.0</ele><time>2026-04-25T17:16:12.079Z</time></trkpt><trkpt lat="44.7793403" lon="8.0268887"><ele>286.3333333333333</ele><time>2026-04-25T17:16:13.079Z</time></trkpt><trkpt lat="44.7795098" lon="8.026849"><ele>287.66666666666663</ele><time>2026-04-25T17:16:14.079Z</time></trkpt><trkpt lat="44.7796801" lon="8.0268177"><ele>289.0</ele><time>2026-04-25T17:16:15.079Z</time></trkpt><trkpt lat="44.7798345" lon="8.0268156"><ele>289.0</ele><time>2026-04-25T17:16:16.079Z</time></trkpt><trkpt lat="44.7799846" lon="8.0267746"><ele>289.0</ele><time>2026-04-25T17:16:17.079Z</time></trkpt><trkpt lat="44.7801039" lon="8.0266969"><ele>289.0</ele><time>2026-04-25T17:16:18.079Z</time></trkpt><trkpt lat="44.7802208" lon="8.0266333"><ele>289.0</ele><time>2026-04-25T17:16:19.079Z</time></trkpt><trkpt lat="44.780318" lon="8.026566"><ele>289.0</ele><time>2026-04-25T17:16:20.078Z</time></trkpt><trkpt lat="44.7804157" lon="8.0265137"><ele>289.0</ele><time>2026-04-25T17:16:21.078Z</time></trkpt><trkpt lat="44.7805128" lon="8.0264676"><ele>289.0</ele><time>2026-04-25T17:16:22.078Z</time></trkpt><trkpt lat="44.7806039" lon="8.0264794"><ele>289.0</ele><time>2026-04-25T17:16:23.079Z</time></trkpt><trkpt lat="44.7806978" lon="8.0264827"><ele>289.0</ele><time>2026-04-25T17:16:24.079Z</time></trkpt><trkpt lat="44.7807783" lon="8.0265384"><ele>289.75</ele><time>2026-04-25T17:16:25.078Z</time></trkpt><trkpt lat="44.7808554" lon="8.0266502"><ele>290.5</ele><time>2026-04-25T17:16:26.079Z</time></trkpt><trkpt lat="44.7808868" lon="8.0268496"><ele>291.25</ele><time>2026-04-25T17:16:27.079Z</time></trkpt><trkpt lat="44.7809783" lon="8.0270414"><ele>292.0</ele><time>2026-04-25T17:16:28.078Z</time></trkpt><trkpt lat="44.7810643" lon="8.0271808"><ele>289.66666666666663</ele><time>2026-04-25T17:16:29.079Z</time></trkpt><trkpt lat="44.7811608" lon="8.0273598"><ele>287.3333333333333</ele><time>2026-04-25T17:16:30.079Z</time></trkpt><trkpt lat="44.7812594" lon="8.027534"><ele>285.0</ele><time>2026-04-25T17:16:31.079Z</time></trkpt><trkpt lat="44.7813738" lon="8.0277054"><ele>285.0</ele><time>2026-04-25T17:16:32.079Z</time></trkpt><trkpt lat="44.7814772" lon="8.0279107"><ele>285.0</ele><time>2026-04-25T17:16:33.079Z</time></trkpt><trkpt lat="44.7815647" lon="8.0280887"><ele>285.0</ele><time>2026-04-25T17:16:34.079Z</time></trkpt><trkpt lat="44.7816632" lon="8.0282623"><ele>286.3333333333333</ele><time>2026-04-25T17:16:35.079Z</time></trkpt><trkpt lat="44.7817547" lon="8.0284474"><ele>287.66666666666663</ele><time>2026-04-25T17:16:36.079Z</time></trkpt><trkpt lat="44.7818462" lon="8.0286372"><ele>289.0</ele><time>2026-04-25T17:16:37.079Z</time></trkpt><trkpt lat="44.7819243" lon="8.0287933"><ele>289.0</ele><time>2026-04-25T17:16:38.079Z</time></trkpt><trkpt lat="44.7820045" lon="8.0289539"><ele>289.0</ele><time>2026-04-25T17:16:39.079Z</time></trkpt><trkpt lat="44.7820806" lon="8.0290358"><ele>289.0</ele><time>2026-04-25T17:16:40.078Z</time></trkpt><trkpt lat="44.7821641" lon="8.0291613"><ele>289.0</ele><time>2026-04-25T17:16:41.079Z</time></trkpt><trkpt lat="44.7822213" lon="8.0292115"><ele>289.0</ele><time>2026-04-25T17:16:42.078Z</time></trkpt><trkpt lat="44.7823351" lon="8.0291978"><ele>289.0</ele><time>2026-04-25T17:16:43.079Z</time></trkpt><trkpt lat="44.7824232" lon="8.0291793"><ele>289.0</ele><time>2026-04-25T17:16:44.078Z</time></trkpt><trkpt lat="44.7826158" lon="8.0290157"><ele>289.0</ele><time>2026-04-25T17:16:45.079Z</time></trkpt><trkpt lat="44.7827481" lon="8.028961"><ele>288.75</ele><time>2026-04-25T17:16:46.079Z</time></trkpt><trkpt lat="44.7828682" lon="8.0289136"><ele>288.5</ele><time>2026-04-25T17:16:47.078Z</time></trkpt><trkpt lat="44.783012" lon="8.0288809"><ele>288.25</ele><time>2026-04-25T17:16:48.079Z</time></trkpt><trkpt lat="44.783117" lon="8.0288758"><ele>288.0</ele><time>2026-04-25T17:16:49.078Z</time></trkpt><trkpt lat="44.783253" lon="8.0289395"><ele>288.0</ele><time>2026-04-25T17:16:50.079Z</time></trkpt><trkpt lat="44.7834241" lon="8.0289912"><ele>288.0</ele><time>2026-04-25T17:16:51.078Z</time></trkpt><trkpt lat="44.7835654" lon="8.0290661"><ele>288.0</ele><time>2026-04-25T17:16:52.078Z</time></trkpt><trkpt lat="44.7837165" lon="8.0291136"><ele>287.6666666666667</ele><time>2026-04-25T17:16:53.078Z</time></trkpt><trkpt lat="44.78386" lon="8.0291883"><ele>287.33333333333337</ele><time>2026-04-25T17:16:54.078Z</time></trkpt><trkpt lat="44.7840109" lon="8.0292412"><ele>287.0</ele><time>2026-04-25T17:16:55.079Z</time></trkpt><trkpt lat="44.7841561" lon="8.0293061"><ele>287.0</ele><time>2026-04-25T17:16:56.079Z</time></trkpt><trkpt lat="44.7843008" lon="8.0293739"><ele>287.0</ele><time>2026-04-25T17:16:57.079Z</time></trkpt><trkpt lat="44.7844397" lon="8.0294671"><ele>287.0</ele><time>2026-04-25T17:16:58.079Z</time></trkpt><trkpt lat="44.7845759" lon="8.0295881"><ele>285.33333333333337</ele><time>2026-04-25T17:16:59.079Z</time></trkpt><trkpt lat="44.7846975" lon="8.0297296"><ele>283.6666666666667</ele><time>2026-04-25T17:17:00.079Z</time></trkpt><trkpt lat="44.784821" lon="8.0298936"><ele>282.0</ele><time>2026-04-25T17:17:01.079Z</time></trkpt><trkpt lat="44.7849374" lon="8.0300637"><ele>282.0</ele><time>2026-04-25T17:17:02.079Z</time></trkpt><trkpt lat="44.785047" lon="8.0302427"><ele>282.0</ele><time>2026-04-25T17:17:03.079Z</time></trkpt><trkpt lat="44.7851516" lon="8.0304197"><ele>282.0</ele><time>2026-04-25T17:17:04.079Z</time></trkpt><trkpt lat="44.7852686" lon="8.0305928"><ele>277.3333333333333</ele><time>2026-04-25T17:17:05.079Z</time></trkpt><trkpt lat="44.7853604" lon="8.0307516"><ele>272.66666666666663</ele><time>2026-04-25T17:17:06.079Z</time></trkpt><trkpt lat="44.7854578" lon="8.0309227"><ele>268.0</ele><time>2026-04-25T17:17:07.078Z</time></trkpt><trkpt lat="44.7855556" lon="8.0310852"><ele>268.0</ele><time>2026-04-25T17:17:08.079Z</time></trkpt><trkpt lat="44.7856522" lon="8.0312441"><ele>268.0</ele><time>2026-04-25T17:17:09.079Z</time></trkpt><trkpt lat="44.785766" lon="8.0314178"><ele>268.0</ele><time>2026-04-25T17:17:10.079Z</time></trkpt><trkpt lat="44.785868" lon="8.0315744"><ele>269.0</ele><time>2026-04-25T17:17:11.078Z</time></trkpt><trkpt lat="44.7859689" lon="8.0317209"><ele>270.0</ele><time>2026-04-25T17:17:12.078Z</time></trkpt><trkpt lat="44.7860768" lon="8.0318833"><ele>271.0</ele><time>2026-04-25T17:17:13.079Z</time></trkpt><trkpt lat="44.7861239" lon="8.0320235"><ele>272.0</ele><time>2026-04-25T17:17:14.079Z</time></trkpt><trkpt lat="44.7861827" lon="8.0321977"><ele>272.0</ele><time>2026-04-25T17:17:15.079Z</time></trkpt><trkpt lat="44.7862453" lon="8.0323726"><ele>272.0</ele><time>2026-04-25T17:17:16.079Z</time></trkpt><trkpt lat="44.7862999" lon="8.0325569"><ele>272.0</ele><time>2026-04-25T17:17:17.078Z</time></trkpt><trkpt lat="44.7863467" lon="8.0327378"><ele>272.0</ele><time>2026-04-25T17:17:18.079Z</time></trkpt><trkpt lat="44.786386" lon="8.0329251"><ele>272.5</ele><time>2026-04-25T17:17:19.079Z</time></trkpt><trkpt lat="44.7864444" lon="8.0331211"><ele>273.0</ele><time>2026-04-25T17:17:20.079Z</time></trkpt><trkpt lat="44.7864959" lon="8.0332863"><ele>273.5</ele><time>2026-04-25T17:17:21.079Z</time></trkpt><trkpt lat="44.7865519" lon="8.0334417"><ele>274.0</ele><time>2026-04-25T17:17:22.079Z</time></trkpt><trkpt lat="44.7866109" lon="8.0335968"><ele>274.0</ele><time>2026-04-25T17:17:23.079Z</time></trkpt><trkpt lat="44.78667" lon="8.0337179"><ele>274.0</ele><time>2026-04-25T17:17:24.078Z</time></trkpt><trkpt lat="44.7867444" lon="8.0338205"><ele>274.0</ele><time>2026-04-25T17:17:25.078Z</time></trkpt><trkpt lat="44.786889" lon="8.0338522"><ele>274.0</ele><time>2026-04-25T17:17:26.078Z</time></trkpt><trkpt lat="44.786999" lon="8.0338972"><ele>276.25</ele><time>2026-04-25T17:17:27.079Z</time></trkpt><trkpt lat="44.7871179" lon="8.0339229"><ele>278.5</ele><time>2026-04-25T17:17:28.078Z</time></trkpt><trkpt lat="44.787265" lon="8.0339066"><ele>280.75</ele><time>2026-04-25T17:17:29.079Z</time></trkpt><trkpt lat="44.7874319" lon="8.0338981"><ele>283.0</ele><time>2026-04-25T17:17:30.079Z</time></trkpt><trkpt lat="44.7875909" lon="8.0339129"><ele>283.0</ele><time>2026-04-25T17:17:31.079Z</time></trkpt><trkpt lat="44.7877613" lon="8.0339167"><ele>283.0</ele><time>2026-04-25T17:17:32.079Z</time></trkpt><trkpt lat="44.787923" lon="8.03394"><ele>283.0</ele><time>2026-04-25T17:17:33.078Z</time></trkpt><trkpt lat="44.7880844" lon="8.0339826"><ele>283.0</ele><time>2026-04-25T17:17:34.078Z</time></trkpt><trkpt lat="44.7882405" lon="8.0340336"><ele>283.0</ele><time>2026-04-25T17:17:35.079Z</time></trkpt><trkpt lat="44.7883959" lon="8.0340818"><ele>283.0</ele><time>2026-04-25T17:17:36.079Z</time></trkpt><trkpt lat="44.7885412" lon="8.0341363"><ele>279.25</ele><time>2026-04-25T17:17:37.079Z</time></trkpt><trkpt lat="44.7886995" lon="8.0341824"><ele>275.5</ele><time>2026-04-25T17:17:38.078Z</time></trkpt><trkpt lat="44.7888444" lon="8.0342067"><ele>271.75</ele><time>2026-04-25T17:17:39.078Z</time></trkpt><trkpt lat="44.7889433" lon="8.0342446"><ele>268.0</ele><time>2026-04-25T17:17:40.079Z</time></trkpt><trkpt lat="44.7890132" lon="8.0343066"><ele>268.0</ele><time>2026-04-25T17:17:41.079Z</time></trkpt><trkpt lat="44.7891059" lon="8.0343518"><ele>268.0</ele><time>2026-04-25T17:17:42.078Z</time></trkpt><trkpt lat="44.7891915" lon="8.0343863"><ele>268.0</ele><time>2026-04-25T17:17:43.079Z</time></trkpt><trkpt lat="44.7892833" lon="8.0344124"><ele>268.0</ele><time>2026-04-25T17:17:44.079Z</time></trkpt><trkpt lat="44.7893627" lon="8.0343695"><ele>268.0</ele><time>2026-04-25T17:17:47.079Z</time></trkpt><trkpt lat="44.7893849" lon="8.0342785"><ele>268.0</ele><time>2026-04-25T17:17:48.078Z</time></trkpt><trkpt lat="44.789427" lon="8.0340663"><ele>260.25</ele><time>2026-04-25T17:17:49.078Z</time></trkpt><trkpt lat="44.7894291" lon="8.0338992"><ele>252.5</ele><time>2026-04-25T17:17:50.079Z</time></trkpt><trkpt lat="44.7894377" lon="8.033713"><ele>244.75</ele><time>2026-04-25T17:17:51.078Z</time></trkpt><trkpt lat="44.7894556" lon="8.0335269"><ele>237.0</ele><time>2026-04-25T17:17:52.078Z</time></trkpt><trkpt lat="44.7894387" lon="8.0332814"><ele>237.0</ele><time>2026-04-25T17:17:53.078Z</time></trkpt><trkpt lat="44.7894349" lon="8.0330429"><ele>237.0</ele><time>2026-04-25T17:17:54.079Z</time></trkpt><trkpt lat="44.7894294" lon="8.0328014"><ele>237.0</ele><time>2026-04-25T17:17:55.079Z</time></trkpt><trkpt lat="44.7894149" lon="8.0325837"><ele>240.75</ele><time>2026-04-25T17:17:56.078Z</time></trkpt><trkpt lat="44.789408" lon="8.0323887"><ele>244.5</ele><time>2026-04-25T17:17:57.079Z</time></trkpt><trkpt lat="44.7893999" lon="8.0321871"><ele>248.25</ele><time>2026-04-25T17:17:58.079Z</time></trkpt><trkpt lat="44.7894254" lon="8.0320509"><ele>252.0</ele><time>2026-04-25T17:17:59.078Z</time></trkpt><trkpt lat="44.7894428" lon="8.0319051"><ele>252.0</ele><time>2026-04-25T17:18:00.079Z</time></trkpt><trkpt lat="44.7894761" lon="8.0317355"><ele>252.0</ele><time>2026-04-25T17:18:01.079Z</time></trkpt><trkpt lat="44.7895088" lon="8.0315736"><ele>252.0</ele><time>2026-04-25T17:18:02.079Z</time></trkpt><trkpt lat="44.7895498" lon="8.0314142"><ele>252.0</ele><time>2026-04-25T17:18:03.079Z</time></trkpt><trkpt lat="44.7895755" lon="8.0312573"><ele>251.8</ele><time>2026-04-25T17:18:04.078Z</time></trkpt><trkpt lat="44.7896105" lon="8.0311138"><ele>251.6</ele><time>2026-04-25T17:18:05.079Z</time></trkpt><trkpt lat="44.7896586" lon="8.0309869"><ele>251.40000000000003</ele><time>2026-04-25T17:18:06.079Z</time></trkpt><trkpt lat="44.7897165" lon="8.0308792"><ele>251.20000000000002</ele><time>2026-04-25T17:18:07.079Z</time></trkpt><trkpt lat="44.7897758" lon="8.0307738"><ele>251.0</ele><time>2026-04-25T17:18:08.078Z</time></trkpt><trkpt lat="44.7899038" lon="8.030733"><ele>246.75</ele><time>2026-04-25T17:18:09.079Z</time></trkpt><trkpt lat="44.7900098" lon="8.0306777"><ele>242.5</ele><time>2026-04-25T17:18:10.078Z</time></trkpt><trkpt lat="44.7901484" lon="8.0306247"><ele>238.25</ele><time>2026-04-25T17:18:11.079Z</time></trkpt><trkpt lat="44.7902784" lon="8.0305732"><ele>234.0</ele><time>2026-04-25T17:18:12.079Z</time></trkpt><trkpt lat="44.7904736" lon="8.0305362"><ele>232.0</ele><time>2026-04-25T17:18:13.079Z</time></trkpt><trkpt lat="44.790674" lon="8.0304884"><ele>230.0</ele><time>2026-04-25T17:18:14.079Z</time></trkpt><trkpt lat="44.7908671" lon="8.0304823"><ele>228.0</ele><time>2026-04-25T17:18:15.079Z</time></trkpt><trkpt lat="44.7910489" lon="8.0304323"><ele>225.33333333333331</ele><time>2026-04-25T17:18:16.079Z</time></trkpt><trkpt lat="44.7912329" lon="8.0304156"><ele>222.66666666666666</ele><time>2026-04-25T17:18:17.079Z</time></trkpt><trkpt lat="44.7914174" lon="8.0303476"><ele>220.0</ele><time>2026-04-25T17:18:18.079Z</time></trkpt><trkpt lat="44.7915892" lon="8.0303254"><ele>220.0</ele><time>2026-04-25T17:18:19.079Z</time></trkpt><trkpt lat="44.7917351" lon="8.0302939"><ele>220.0</ele><time>2026-04-25T17:18:20.078Z</time></trkpt><trkpt lat="44.7919393" lon="8.0302777"><ele>220.0</ele><time>2026-04-25T17:18:21.079Z</time></trkpt><trkpt lat="44.7920715" lon="8.0302535"><ele>220.0</ele><time>2026-04-25T17:18:22.079Z</time></trkpt><trkpt lat="44.792222" lon="8.0301813"><ele>220.0</ele><time>2026-04-25T17:18:23.078Z</time></trkpt><trkpt lat="44.7923912" lon="8.0301188"><ele>220.0</ele><time>2026-04-25T17:18:24.079Z</time></trkpt><trkpt lat="44.7925676" lon="8.0300442"><ele>217.0</ele><time>2026-04-25T17:18:25.079Z</time></trkpt><trkpt lat="44.7927228" lon="8.0299747"><ele>214.0</ele><time>2026-04-25T17:18:26.078Z</time></trkpt><trkpt lat="44.7928836" lon="8.0298822"><ele>211.0</ele><time>2026-04-25T17:18:27.078Z</time></trkpt><trkpt lat="44.7930395" lon="8.029796"><ele>211.0</ele><time>2026-04-25T17:18:28.079Z</time></trkpt><trkpt lat="44.7932036" lon="8.0297054"><ele>211.0</ele><time>2026-04-25T17:18:29.079Z</time></trkpt><trkpt lat="44.7933632" lon="8.0296191"><ele>211.0</ele><time>2026-04-25T17:18:30.079Z</time></trkpt><trkpt lat="44.793514" lon="8.0295259"><ele>212.0</ele><time>2026-04-25T17:18:31.078Z</time></trkpt><trkpt lat="44.7936621" lon="8.0294422"><ele>213.0</ele><time>2026-04-25T17:18:32.079Z</time></trkpt><trkpt lat="44.7938085" lon="8.0293478"><ele>214.0</ele><time>2026-04-25T17:18:33.079Z</time></trkpt><trkpt lat="44.7939562" lon="8.0292513"><ele>214.0</ele><time>2026-04-25T17:18:34.079Z</time></trkpt><trkpt lat="44.7941178" lon="8.0291653"><ele>214.0</ele><time>2026-04-25T17:18:35.079Z</time></trkpt><trkpt lat="44.7942694" lon="8.0290661"><ele>214.0</ele><time>2026-04-25T17:18:36.079Z</time></trkpt><trkpt lat="44.7944161" lon="8.0289582"><ele>211.66666666666666</ele><time>2026-04-25T17:18:37.078Z</time></trkpt><trkpt lat="44.7945703" lon="8.0288045"><ele>209.33333333333331</ele><time>2026-04-25T17:18:38.079Z</time></trkpt><trkpt lat="44.794723" lon="8.0286604"><ele>207.0</ele><time>2026-04-25T17:18:39.078Z</time></trkpt><trkpt lat="44.7948744" lon="8.0285213"><ele>207.0</ele><time>2026-04-25T17:18:40.078Z</time></trkpt><trkpt lat="44.7950016" lon="8.0283832"><ele>207.0</ele><time>2026-04-25T17:18:41.079Z</time></trkpt><trkpt lat="44.7951446" lon="8.0282155"><ele>207.0</ele><time>2026-04-25T17:18:42.078Z</time></trkpt><trkpt lat="44.7952905" lon="8.0280501"><ele>203.33333333333331</ele><time>2026-04-25T17:18:43.079Z</time></trkpt><trkpt lat="44.7954232" lon="8.0278949"><ele>199.66666666666666</ele><time>2026-04-25T17:18:44.079Z</time></trkpt><trkpt lat="44.7955887" lon="8.0277419"><ele>196.0</ele><time>2026-04-25T17:18:45.079Z</time></trkpt><trkpt lat="44.7957441" lon="8.0275814"><ele>194.0</ele><time>2026-04-25T17:18:46.079Z</time></trkpt><trkpt lat="44.7959098" lon="8.0274227"><ele>192.0</ele><time>2026-04-25T17:18:47.079Z</time></trkpt><trkpt lat="44.7960849" lon="8.027239"><ele>190.0</ele><time>2026-04-25T17:18:48.079Z</time></trkpt><trkpt lat="44.7962501" lon="8.0270915"><ele>189.33333333333334</ele><time>2026-04-25T17:18:49.078Z</time></trkpt><trkpt lat="44.7964366" lon="8.026966"><ele>188.66666666666666</ele><time>2026-04-25T17:18:50.078Z</time></trkpt><trkpt lat="44.7966064" lon="8.0268128"><ele>188.0</ele><time>2026-04-25T17:18:51.079Z</time></trkpt><trkpt lat="44.7967824" lon="8.0266625"><ele>187.0</ele><time>2026-04-25T17:18:52.079Z</time></trkpt><trkpt lat="44.7969474" lon="8.026511"><ele>186.0</ele><time>2026-04-25T17:18:53.078Z</time></trkpt><trkpt lat="44.7970882" lon="8.026365"><ele>185.0</ele><time>2026-04-25T17:18:54.078Z</time></trkpt><trkpt lat="44.7972402" lon="8.0262203"><ele>185.0</ele><time>2026-04-25T17:18:55.078Z</time></trkpt><trkpt lat="44.7973891" lon="8.0260728"><ele>185.0</ele><time>2026-04-25T17:18:56.079Z</time></trkpt><trkpt lat="44.797536" lon="8.0259092"><ele>185.0</ele><time>2026-04-25T17:18:57.079Z</time></trkpt><trkpt lat="44.7976808" lon="8.0257318"><ele>184.33333333333331</ele><time>2026-04-25T17:18:58.079Z</time></trkpt><trkpt lat="44.7978299" lon="8.0255479"><ele>183.66666666666666</ele><time>2026-04-25T17:18:59.078Z</time></trkpt><trkpt lat="44.7979629" lon="8.02535"><ele>183.0</ele><time>2026-04-25T17:19:00.079Z</time></trkpt><trkpt lat="44.798095" lon="8.0251352"><ele>181.66666666666666</ele><time>2026-04-25T17:19:01.079Z</time></trkpt><trkpt lat="44.798203" lon="8.0249376"><ele>180.33333333333331</ele><time>2026-04-25T17:19:02.078Z</time></trkpt><trkpt lat="44.7983113" lon="8.0247289"><ele>179.0</ele><time>2026-04-25T17:19:03.079Z</time></trkpt><trkpt lat="44.7984258" lon="8.0245358"><ele>178.0</ele><time>2026-04-25T17:19:04.078Z</time></trkpt><trkpt lat="44.7985699" lon="8.0243482"><ele>177.0</ele><time>2026-04-25T17:19:05.079Z</time></trkpt><trkpt lat="44.7987135" lon="8.024165"><ele>176.0</ele><time>2026-04-25T17:19:06.079Z</time></trkpt><trkpt lat="44.7988625" lon="8.023998"><ele>175.66666666666666</ele><time>2026-04-25T17:19:07.079Z</time></trkpt><trkpt lat="44.7990156" lon="8.0238214"><ele>175.33333333333334</ele><time>2026-04-25T17:19:08.078Z</time></trkpt><trkpt lat="44.7991835" lon="8.0236745"><ele>175.0</ele><time>2026-04-25T17:19:09.079Z</time></trkpt><trkpt lat="44.7993454" lon="8.0235214"><ele>174.0</ele><time>2026-04-25T17:19:10.079Z</time></trkpt><trkpt lat="44.7995154" lon="8.023385"><ele>173.0</ele><time>2026-04-25T17:19:11.078Z</time></trkpt><trkpt lat="44.7996808" lon="8.0232497"><ele>172.0</ele><time>2026-04-25T17:19:12.079Z</time></trkpt><trkpt lat="44.7998466" lon="8.0231209"><ele>172.0</ele><time>2026-04-25T17:19:13.079Z</time></trkpt><trkpt lat="44.8000102" lon="8.0229896"><ele>172.0</ele><time>2026-04-25T17:19:14.078Z</time></trkpt><trkpt lat="44.8001603" lon="8.0228669"><ele>172.0</ele><time>2026-04-25T17:19:15.079Z</time></trkpt><trkpt lat="44.8003028" lon="8.0227491"><ele>172.66666666666669</ele><time>2026-04-25T17:19:16.079Z</time></trkpt><trkpt lat="44.8004602" lon="8.0226459"><ele>173.33333333333334</ele><time>2026-04-25T17:19:17.079Z</time></trkpt><trkpt lat="44.8006279" lon="8.0225276"><ele>174.0</ele><time>2026-04-25T17:19:18.079Z</time></trkpt><trkpt lat="44.8007834" lon="8.0223942"><ele>174.66666666666666</ele><time>2026-04-25T17:19:19.078Z</time></trkpt><trkpt lat="44.8009561" lon="8.0222635"><ele>175.33333333333331</ele><time>2026-04-25T17:19:20.079Z</time></trkpt><trkpt lat="44.8011151" lon="8.0221261"><ele>176.0</ele><time>2026-04-25T17:19:21.079Z</time></trkpt><trkpt lat="44.8012757" lon="8.0219977"><ele>176.0</ele><time>2026-04-25T17:19:22.079Z</time></trkpt><trkpt lat="44.8014335" lon="8.0218653"><ele>176.0</ele><time>2026-04-25T17:19:23.079Z</time></trkpt><trkpt lat="44.801593" lon="8.0217353"><ele>176.0</ele><time>2026-04-25T17:19:24.078Z</time></trkpt><trkpt lat="44.8017482" lon="8.0216049"><ele>177.66666666666666</ele><time>2026-04-25T17:19:25.079Z</time></trkpt><trkpt lat="44.8018947" lon="8.0214832"><ele>179.33333333333334</ele><time>2026-04-25T17:19:26.079Z</time></trkpt><trkpt lat="44.8020356" lon="8.0213594"><ele>181.0</ele><time>2026-04-25T17:19:27.079Z</time></trkpt><trkpt lat="44.8021692" lon="8.0212385"><ele>181.0</ele><time>2026-04-25T17:19:28.079Z</time></trkpt><trkpt lat="44.8022965" lon="8.0211219"><ele>181.0</ele><time>2026-04-25T17:19:29.079Z</time></trkpt><trkpt lat="44.8024176" lon="8.0210125"><ele>181.0</ele><time>2026-04-25T17:19:30.079Z</time></trkpt><trkpt lat="44.8025395" lon="8.0209172"><ele>181.0</ele><time>2026-04-25T17:19:31.078Z</time></trkpt><trkpt lat="44.8026245" lon="8.0208338"><ele>181.60000000000002</ele><time>2026-04-25T17:19:32.079Z</time></trkpt><trkpt lat="44.8027168" lon="8.0207567"><ele>182.2</ele><time>2026-04-25T17:19:33.079Z</time></trkpt><trkpt lat="44.8027942" lon="8.0206894"><ele>182.8</ele><time>2026-04-25T17:19:34.079Z</time></trkpt><trkpt lat="44.8028817" lon="8.0206181"><ele>183.39999999999998</ele><time>2026-04-25T17:19:35.079Z</time></trkpt><trkpt lat="44.8029568" lon="8.0205761"><ele>184.0</ele><time>2026-04-25T17:19:36.079Z</time></trkpt><trkpt lat="44.8030391" lon="8.0205492"><ele>184.0</ele><time>2026-04-25T17:19:37.079Z</time></trkpt><trkpt lat="44.8031672" lon="8.0205844"><ele>184.0</ele><time>2026-04-25T17:19:39.078Z</time></trkpt><trkpt lat="44.8032414" lon="8.0206304"><ele>184.0</ele><time>2026-04-25T17:19:40.079Z</time></trkpt><trkpt lat="44.8033129" lon="8.0207043"><ele>184.0</ele><time>2026-04-25T17:19:41.079Z</time></trkpt><trkpt lat="44.8033797" lon="8.0207934"><ele>184.0</ele><time>2026-04-25T17:19:42.079Z</time></trkpt><trkpt lat="44.8034353" lon="8.020909"><ele>183.6</ele><time>2026-04-25T17:19:43.079Z</time></trkpt><trkpt lat="44.8035243" lon="8.0210446"><ele>183.2</ele><time>2026-04-25T17:19:44.078Z</time></trkpt><trkpt lat="44.8035963" lon="8.0211806"><ele>182.79999999999998</ele><time>2026-04-25T17:19:45.079Z</time></trkpt><trkpt lat="44.8036679" lon="8.0212845"><ele>182.39999999999998</ele><time>2026-04-25T17:19:46.078Z</time></trkpt><trkpt lat="44.8037237" lon="8.0213559"><ele>182.0</ele><time>2026-04-25T17:19:47.079Z</time></trkpt><trkpt lat="44.8037877" lon="8.0214364"><ele>182.0</ele><time>2026-04-25T17:19:48.079Z</time></trkpt><trkpt lat="44.8038605" lon="8.0214963"><ele>182.0</ele><time>2026-04-25T17:19:49.078Z</time></trkpt><trkpt lat="44.8039645" lon="8.0215358"><ele>182.0</ele><time>2026-04-25T17:19:51.079Z</time></trkpt><trkpt lat="44.804081" lon="8.0214595"><ele>182.0</ele><time>2026-04-25T17:19:53.079Z</time></trkpt><trkpt lat="44.8042292" lon="8.0213165"><ele>182.0</ele><time>2026-04-25T17:19:55.079Z</time></trkpt><trkpt lat="44.8043031" lon="8.0212771"><ele>182.0</ele><time>2026-04-25T17:19:56.079Z</time></trkpt><trkpt lat="44.8043802" lon="8.0212388"><ele>182.0</ele><time>2026-04-25T17:19:57.078Z</time></trkpt><trkpt lat="44.8045323" lon="8.0210767"><ele>182.0</ele><time>2026-04-25T17:19:58.079Z</time></trkpt><trkpt lat="44.8046299" lon="8.0209947"><ele>183.5</ele><time>2026-04-25T17:19:59.079Z</time></trkpt><trkpt lat="44.8047063" lon="8.0209334"><ele>185.0</ele><time>2026-04-25T17:20:00.078Z</time></trkpt><trkpt lat="44.8047843" lon="8.0208716"><ele>186.5</ele><time>2026-04-25T17:20:01.078Z</time></trkpt><trkpt lat="44.8048582" lon="8.0208196"><ele>188.0</ele><time>2026-04-25T17:20:02.079Z</time></trkpt><trkpt lat="44.8049264" lon="8.0207675"><ele>189.5</ele><time>2026-04-25T17:20:03.079Z</time></trkpt><trkpt lat="44.8050073" lon="8.0206973"><ele>191.0</ele><time>2026-04-25T17:20:04.078Z</time></trkpt><trkpt lat="44.8050801" lon="8.0205727"><ele>191.25</ele><time>2026-04-25T17:20:05.079Z</time></trkpt><trkpt lat="44.8051252" lon="8.0204126"><ele>191.5</ele><time>2026-04-25T17:20:06.079Z</time></trkpt><trkpt lat="44.8051638" lon="8.020227"><ele>191.75</ele><time>2026-04-25T17:20:07.079Z</time></trkpt><trkpt lat="44.8052111" lon="8.0200435"><ele>192.0</ele><time>2026-04-25T17:20:08.079Z</time></trkpt><trkpt lat="44.8052745" lon="8.0198509"><ele>196.25</ele><time>2026-04-25T17:20:09.078Z</time></trkpt><trkpt lat="44.8053378" lon="8.0196772"><ele>200.5</ele><time>2026-04-25T17:20:10.079Z</time></trkpt><trkpt lat="44.8053983" lon="8.0194984"><ele>204.75</ele><time>2026-04-25T17:20:11.078Z</time></trkpt><trkpt lat="44.8054543" lon="8.0193263"><ele>209.0</ele><time>2026-04-25T17:20:12.079Z</time></trkpt><trkpt lat="44.8055151" lon="8.0191596"><ele>207.5</ele><time>2026-04-25T17:20:13.078Z</time></trkpt><trkpt lat="44.8055757" lon="8.0189936"><ele>206.0</ele><time>2026-04-25T17:20:14.079Z</time></trkpt><trkpt lat="44.8056301" lon="8.0188417"><ele>204.5</ele><time>2026-04-25T17:20:15.078Z</time></trkpt><trkpt lat="44.805679" lon="8.0186792"><ele>203.0</ele><time>2026-04-25T17:20:16.079Z</time></trkpt><trkpt lat="44.8057328" lon="8.0185065"><ele>203.0</ele><time>2026-04-25T17:20:17.078Z</time></trkpt><trkpt lat="44.805777" lon="8.0183468"><ele>203.0</ele><time>2026-04-25T17:20:18.079Z</time></trkpt><trkpt lat="44.8058182" lon="8.0181874"><ele>203.0</ele><time>2026-04-25T17:20:19.079Z</time></trkpt><trkpt lat="44.8058782" lon="8.0180067"><ele>203.0</ele><time>2026-04-25T17:20:20.078Z</time></trkpt><trkpt lat="44.8059264" lon="8.0178539"><ele>202.25</ele><time>2026-04-25T17:20:21.078Z</time></trkpt><trkpt lat="44.8059935" lon="8.0177075"><ele>201.5</ele><time>2026-04-25T17:20:22.078Z</time></trkpt><trkpt lat="44.806089" lon="8.0175997"><ele>200.75</ele><time>2026-04-25T17:20:23.079Z</time></trkpt><trkpt lat="44.8061703" lon="8.017487"><ele>200.0</ele><time>2026-04-25T17:20:24.079Z</time></trkpt><trkpt lat="44.8062578" lon="8.0173578"><ele>203.25</ele><time>2026-04-25T17:20:25.079Z</time></trkpt><trkpt lat="44.8063439" lon="8.0172367"><ele>206.5</ele><time>2026-04-25T17:20:26.079Z</time></trkpt><trkpt lat="44.806433" lon="8.0171377"><ele>209.75</ele><time>2026-04-25T17:20:27.079Z</time></trkpt><trkpt lat="44.8065268" lon="8.0170174"><ele>213.0</ele><time>2026-04-25T17:20:28.078Z</time></trkpt><trkpt lat="44.8066301" lon="8.0169209"><ele>213.0</ele><time>2026-04-25T17:20:29.079Z</time></trkpt><trkpt lat="44.8067218" lon="8.0168186"><ele>213.0</ele><time>2026-04-25T17:20:30.078Z</time></trkpt><trkpt lat="44.8068191" lon="8.0167461"><ele>213.0</ele><time>2026-04-25T17:20:31.079Z</time></trkpt><trkpt lat="44.8069221" lon="8.0166729"><ele>213.0</ele><time>2026-04-25T17:20:32.078Z</time></trkpt><trkpt lat="44.8070199" lon="8.016602"><ele>216.2</ele><time>2026-04-25T17:20:33.079Z</time></trkpt><trkpt lat="44.8070993" lon="8.0165461"><ele>219.4</ele><time>2026-04-25T17:20:34.078Z</time></trkpt><trkpt lat="44.8071749" lon="8.0164622"><ele>222.59999999999997</ele><time>2026-04-25T17:20:35.078Z</time></trkpt><trkpt lat="44.8072592" lon="8.0163339"><ele>225.79999999999998</ele><time>2026-04-25T17:20:36.079Z</time></trkpt><trkpt lat="44.8073151" lon="8.0161896"><ele>229.0</ele><time>2026-04-25T17:20:37.079Z</time></trkpt><trkpt lat="44.8073886" lon="8.0160506"><ele>229.0</ele><time>2026-04-25T17:20:38.079Z</time></trkpt><trkpt lat="44.8074528" lon="8.0159106"><ele>229.0</ele><time>2026-04-25T17:20:39.079Z</time></trkpt><trkpt lat="44.8075295" lon="8.0157346"><ele>229.0</ele><time>2026-04-25T17:20:40.078Z</time></trkpt><trkpt lat="44.8076049" lon="8.0155665"><ele>229.0</ele><time>2026-04-25T17:20:41.078Z</time></trkpt><trkpt lat="44.8076728" lon="8.0154081"><ele>236.0</ele><time>2026-04-25T17:20:42.079Z</time></trkpt><trkpt lat="44.8077389" lon="8.0152468"><ele>243.0</ele><time>2026-04-25T17:20:43.079Z</time></trkpt><trkpt lat="44.8078022" lon="8.0150988"><ele>250.0</ele><time>2026-04-25T17:20:44.079Z</time></trkpt><trkpt lat="44.8078571" lon="8.0149229"><ele>257.0</ele><time>2026-04-25T17:20:45.078Z</time></trkpt><trkpt lat="44.8078955" lon="8.0147523"><ele>257.0</ele><time>2026-04-25T17:20:46.079Z</time></trkpt><trkpt lat="44.8079491" lon="8.0145865"><ele>257.0</ele><time>2026-04-25T17:20:47.079Z</time></trkpt><trkpt lat="44.8080063" lon="8.0144267"><ele>257.0</ele><time>2026-04-25T17:20:48.079Z</time></trkpt><trkpt lat="44.8080557" lon="8.0142566"><ele>257.0</ele><time>2026-04-25T17:20:49.079Z</time></trkpt><trkpt lat="44.8080904" lon="8.014077"><ele>258.0</ele><time>2026-04-25T17:20:50.079Z</time></trkpt><trkpt lat="44.8081842" lon="8.0139599"><ele>259.0</ele><time>2026-04-25T17:20:51.079Z</time></trkpt><trkpt lat="44.8082574" lon="8.013831"><ele>260.0</ele><time>2026-04-25T17:20:52.079Z</time></trkpt><trkpt lat="44.8083199" lon="8.0137318"><ele>261.0</ele><time>2026-04-25T17:20:53.078Z</time></trkpt><trkpt lat="44.8084374" lon="8.0136672"><ele>261.2</ele><time>2026-04-25T17:20:54.079Z</time></trkpt><trkpt lat="44.8085292" lon="8.0135893"><ele>261.40000000000003</ele><time>2026-04-25T17:20:55.079Z</time></trkpt><trkpt lat="44.8085975" lon="8.0135153"><ele>261.6</ele><time>2026-04-25T17:20:57.078Z</time></trkpt><trkpt lat="44.8086494" lon="8.0134406"><ele>261.8</ele><time>2026-04-25T17:21:00.078Z</time></trkpt><trkpt lat="44.8087384" lon="8.013407"><ele>262.0</ele><time>2026-04-25T17:21:02.079Z</time></trkpt><trkpt lat="44.8089104" lon="8.0134831"><ele>262.0</ele><time>2026-04-25T17:21:04.079Z</time></trkpt><trkpt lat="44.8090073" lon="8.013541"><ele>262.0</ele><time>2026-04-25T17:21:05.079Z</time></trkpt><trkpt lat="44.8090949" lon="8.0136058"><ele>262.0</ele><time>2026-04-25T17:21:06.079Z</time></trkpt><trkpt lat="44.8091895" lon="8.0136615"><ele>262.0</ele><time>2026-04-25T17:21:07.079Z</time></trkpt><trkpt lat="44.8092995" lon="8.0136938"><ele>262.0</ele><time>2026-04-25T17:21:08.079Z</time></trkpt><trkpt lat="44.8093859" lon="8.0137068"><ele>265.5</ele><time>2026-04-25T17:21:09.079Z</time></trkpt><trkpt lat="44.8094741" lon="8.0136914"><ele>269.0</ele><time>2026-04-25T17:21:10.079Z</time></trkpt><trkpt lat="44.8095972" lon="8.013599"><ele>272.5</ele><time>2026-04-25T17:21:11.079Z</time></trkpt><trkpt lat="44.8096977" lon="8.0135001"><ele>276.0</ele><time>2026-04-25T17:21:12.079Z</time></trkpt><trkpt lat="44.8097752" lon="8.0134047"><ele>272.8</ele><time>2026-04-25T17:21:13.078Z</time></trkpt><trkpt lat="44.8098331" lon="8.0132526"><ele>269.6</ele><time>2026-04-25T17:21:14.079Z</time></trkpt><trkpt lat="44.8098815" lon="8.0131112"><ele>266.4</ele><time>2026-04-25T17:21:15.078Z</time></trkpt><trkpt lat="44.8099369" lon="8.0129833"><ele>263.2</ele><time>2026-04-25T17:21:16.079Z</time></trkpt><trkpt lat="44.8099821" lon="8.0128797"><ele>260.0</ele><time>2026-04-25T17:21:17.079Z</time></trkpt><trkpt lat="44.8100522" lon="8.0127874"><ele>260.0</ele><time>2026-04-25T17:21:18.079Z</time></trkpt><trkpt lat="44.8101191" lon="8.0127169"><ele>260.0</ele><time>2026-04-25T17:21:19.078Z</time></trkpt><trkpt lat="44.8101884" lon="8.0126685"><ele>260.0</ele><time>2026-04-25T17:21:20.079Z</time></trkpt><trkpt lat="44.8102795" lon="8.0127"><ele>260.0</ele><time>2026-04-25T17:21:21.079Z</time></trkpt><trkpt lat="44.810387" lon="8.0127013"><ele>260.0</ele><time>2026-04-25T17:21:22.079Z</time></trkpt><trkpt lat="44.8104817" lon="8.0127281"><ele>257.5</ele><time>2026-04-25T17:21:23.079Z</time></trkpt><trkpt lat="44.8106007" lon="8.012791"><ele>255.0</ele><time>2026-04-25T17:21:24.078Z</time></trkpt><trkpt lat="44.8107273" lon="8.0128863"><ele>252.5</ele><time>2026-04-25T17:21:25.079Z</time></trkpt><trkpt lat="44.810872" lon="8.0130081"><ele>250.0</ele><time>2026-04-25T17:21:26.079Z</time></trkpt><trkpt lat="44.8109705" lon="8.0131545"><ele>252.0</ele><time>2026-04-25T17:21:27.079Z</time></trkpt><trkpt lat="44.8110332" lon="8.013304"><ele>254.0</ele><time>2026-04-25T17:21:28.079Z</time></trkpt><trkpt lat="44.8111331" lon="8.0134272"><ele>256.0</ele><time>2026-04-25T17:21:29.079Z</time></trkpt><trkpt lat="44.8112405" lon="8.0135202"><ele>258.0</ele><time>2026-04-25T17:21:30.079Z</time></trkpt><trkpt lat="44.811358" lon="8.0136004"><ele>258.0</ele><time>2026-04-25T17:21:31.079Z</time></trkpt><trkpt lat="44.8114677" lon="8.0136615"><ele>258.0</ele><time>2026-04-25T17:21:32.079Z</time></trkpt><trkpt lat="44.8115947" lon="8.0136941"><ele>258.0</ele><time>2026-04-25T17:21:33.079Z</time></trkpt><trkpt lat="44.8117473" lon="8.0137218"><ele>258.0</ele><time>2026-04-25T17:21:34.078Z</time></trkpt><trkpt lat="44.8118807" lon="8.0137256"><ele>257.5</ele><time>2026-04-25T17:21:35.079Z</time></trkpt><trkpt lat="44.8120168" lon="8.0137271"><ele>257.0</ele><time>2026-04-25T17:21:36.079Z</time></trkpt><trkpt lat="44.8121556" lon="8.0137462"><ele>256.5</ele><time>2026-04-25T17:21:37.078Z</time></trkpt><trkpt lat="44.8123031" lon="8.0137737"><ele>256.0</ele><time>2026-04-25T17:21:38.079Z</time></trkpt><trkpt lat="44.8124239" lon="8.0138443"><ele>256.0</ele><time>2026-04-25T17:21:39.079Z</time></trkpt><trkpt lat="44.8125535" lon="8.0139031"><ele>256.0</ele><time>2026-04-25T17:21:40.078Z</time></trkpt><trkpt lat="44.8126727" lon="8.0139872"><ele>256.0</ele><time>2026-04-25T17:21:41.079Z</time></trkpt><trkpt lat="44.8127723" lon="8.0140824"><ele>256.0</ele><time>2026-04-25T17:21:42.079Z</time></trkpt><trkpt lat="44.8128902" lon="8.014165"><ele>257.16666666666663</ele><time>2026-04-25T17:21:43.078Z</time></trkpt><trkpt lat="44.8129446" lon="8.0142594"><ele>258.3333333333333</ele><time>2026-04-25T17:21:44.078Z</time></trkpt><trkpt lat="44.8130083" lon="8.0143527"><ele>259.5</ele><time>2026-04-25T17:21:45.079Z</time></trkpt><trkpt lat="44.8130711" lon="8.0144674"><ele>260.6666666666667</ele><time>2026-04-25T17:21:47.078Z</time></trkpt><trkpt lat="44.8131198" lon="8.0145249"><ele>261.83333333333337</ele><time>2026-04-25T17:21:48.079Z</time></trkpt><trkpt lat="44.8131759" lon="8.0145763"><ele>263.0</ele><time>2026-04-25T17:21:49.078Z</time></trkpt><trkpt lat="44.813283" lon="8.0146354"><ele>263.0</ele><time>2026-04-25T17:21:51.079Z</time></trkpt><trkpt lat="44.813365" lon="8.014656"><ele>263.0</ele><time>2026-04-25T17:21:52.079Z</time></trkpt><trkpt lat="44.8135044" lon="8.0146117"><ele>263.0</ele><time>2026-04-25T17:21:54.079Z</time></trkpt><trkpt lat="44.8135689" lon="8.0145815"><ele>263.0</ele><time>2026-04-25T17:21:55.078Z</time></trkpt><trkpt lat="44.8136736" lon="8.0144884"><ele>263.0</ele><time>2026-04-25T17:21:56.079Z</time></trkpt><trkpt lat="44.813772" lon="8.0144221"><ele>262.6</ele><time>2026-04-25T17:21:57.079Z</time></trkpt><trkpt lat="44.8138661" lon="8.0143403"><ele>262.20000000000005</ele><time>2026-04-25T17:21:58.079Z</time></trkpt><trkpt lat="44.813969" lon="8.0142697"><ele>261.8</ele><time>2026-04-25T17:21:59.079Z</time></trkpt><trkpt lat="44.8140605" lon="8.014184"><ele>261.40000000000003</ele><time>2026-04-25T17:22:00.079Z</time></trkpt><trkpt lat="44.8141324" lon="8.0141132"><ele>261.0</ele><time>2026-04-25T17:22:01.079Z</time></trkpt><trkpt lat="44.8142181" lon="8.0140223"><ele>260.6</ele><time>2026-04-25T17:22:02.078Z</time></trkpt><trkpt lat="44.814287" lon="8.0139117"><ele>260.20000000000005</ele><time>2026-04-25T17:22:03.079Z</time></trkpt><trkpt lat="44.8143584" lon="8.0138355"><ele>259.79999999999995</ele><time>2026-04-25T17:22:04.078Z</time></trkpt><trkpt lat="44.8144215" lon="8.0137452"><ele>259.4</ele><time>2026-04-25T17:22:05.079Z</time></trkpt><trkpt lat="44.8145147" lon="8.0136718"><ele>259.0</ele><time>2026-04-25T17:22:06.078Z</time></trkpt><trkpt lat="44.8146563" lon="8.0136"><ele>258.59999999999997</ele><time>2026-04-25T17:22:08.078Z</time></trkpt><trkpt lat="44.8147592" lon="8.0135624"><ele>258.2</ele><time>2026-04-25T17:22:09.079Z</time></trkpt><trkpt lat="44.814862" lon="8.0135399"><ele>257.79999999999995</ele><time>2026-04-25T17:22:10.079Z</time></trkpt><trkpt lat="44.8149614" lon="8.0135044"><ele>257.4</ele><time>2026-04-25T17:22:11.078Z</time></trkpt><trkpt lat="44.8150526" lon="8.0135014"><ele>257.0</ele><time>2026-04-25T17:22:12.079Z</time></trkpt><trkpt lat="44.8151394" lon="8.0135301"><ele>255.39999999999998</ele><time>2026-04-25T17:22:13.079Z</time></trkpt><trkpt lat="44.8152273" lon="8.013568"><ele>253.79999999999998</ele><time>2026-04-25T17:22:14.079Z</time></trkpt><trkpt lat="44.8153141" lon="8.0136077"><ele>252.2</ele><time>2026-04-25T17:22:15.078Z</time></trkpt><trkpt lat="44.8154197" lon="8.0136443"><ele>250.6</ele><time>2026-04-25T17:22:16.078Z</time></trkpt><trkpt lat="44.8155195" lon="8.0137065"><ele>249.0</ele><time>2026-04-25T17:22:17.078Z</time></trkpt><trkpt lat="44.8156195" lon="8.0137677"><ele>249.0</ele><time>2026-04-25T17:22:18.079Z</time></trkpt><trkpt lat="44.8157141" lon="8.0138237"><ele>248.99999999999997</ele><time>2026-04-25T17:22:19.079Z</time></trkpt><trkpt lat="44.8158011" lon="8.0138697"><ele>248.99999999999997</ele><time>2026-04-25T17:22:20.079Z</time></trkpt><trkpt lat="44.8159017" lon="8.0139434"><ele>249.0</ele><time>2026-04-25T17:22:21.079Z</time></trkpt><trkpt lat="44.8160004" lon="8.0140201"><ele>249.0</ele><time>2026-04-25T17:22:22.079Z</time></trkpt><trkpt lat="44.8160855" lon="8.0140682"><ele>248.33333333333334</ele><time>2026-04-25T17:22:23.079Z</time></trkpt><trkpt lat="44.8161365" lon="8.0141389"><ele>247.66666666666669</ele><time>2026-04-25T17:22:24.078Z</time></trkpt><trkpt lat="44.8162117" lon="8.0141948"><ele>247.0</ele><time>2026-04-25T17:22:25.079Z</time></trkpt><trkpt lat="44.8162979" lon="8.0142377"><ele>246.33333333333334</ele><time>2026-04-25T17:22:26.078Z</time></trkpt><trkpt lat="44.816384" lon="8.0142857"><ele>245.66666666666669</ele><time>2026-04-25T17:22:27.079Z</time></trkpt><trkpt lat="44.8164767" lon="8.0143264"><ele>245.0</ele><time>2026-04-25T17:22:28.079Z</time></trkpt><trkpt lat="44.8165974" lon="8.0143507"><ele>241.25</ele><time>2026-04-25T17:22:29.079Z</time></trkpt><trkpt lat="44.8167399" lon="8.0143776"><ele>237.5</ele><time>2026-04-25T17:22:30.079Z</time></trkpt><trkpt lat="44.8168837" lon="8.0143891"><ele>233.75</ele><time>2026-04-25T17:22:31.078Z</time></trkpt><trkpt lat="44.8170267" lon="8.014388"><ele>230.0</ele><time>2026-04-25T17:22:32.079Z</time></trkpt><trkpt lat="44.8171668" lon="8.014411"><ele>228.5</ele><time>2026-04-25T17:22:33.079Z</time></trkpt><trkpt lat="44.8172935" lon="8.0144539"><ele>227.0</ele><time>2026-04-25T17:22:34.079Z</time></trkpt><trkpt lat="44.8174316" lon="8.0145008"><ele>225.5</ele><time>2026-04-25T17:22:35.078Z</time></trkpt><trkpt lat="44.8175713" lon="8.0145377"><ele>224.0</ele><time>2026-04-25T17:22:36.079Z</time></trkpt><trkpt lat="44.8176792" lon="8.014584"><ele>223.39999999999998</ele><time>2026-04-25T17:22:37.078Z</time></trkpt><trkpt lat="44.8178062" lon="8.0146191"><ele>222.79999999999998</ele><time>2026-04-25T17:22:38.078Z</time></trkpt><trkpt lat="44.8179291" lon="8.0146685"><ele>222.20000000000002</ele><time>2026-04-25T17:22:39.079Z</time></trkpt><trkpt lat="44.8180271" lon="8.0147443"><ele>221.60000000000002</ele><time>2026-04-25T17:22:40.079Z</time></trkpt><trkpt lat="44.8180862" lon="8.0148156"><ele>221.0</ele><time>2026-04-25T17:22:41.079Z</time></trkpt><trkpt lat="44.8181558" lon="8.0148725"><ele>221.00000000000003</ele><time>2026-04-25T17:22:42.079Z</time></trkpt><trkpt lat="44.8182367" lon="8.0148928"><ele>221.0</ele><time>2026-04-25T17:22:43.079Z</time></trkpt><trkpt lat="44.8183021" lon="8.0148899"><ele>221.0</ele><time>2026-04-25T17:22:44.079Z</time></trkpt><trkpt lat="44.8183693" lon="8.0148933"><ele>221.0</ele><time>2026-04-25T17:22:45.079Z</time></trkpt><trkpt lat="44.8184794" lon="8.0148998"><ele>221.00000000000003</ele><time>2026-04-25T17:22:46.078Z</time></trkpt><trkpt lat="44.8185677" lon="8.0149165"><ele>221.0</ele><time>2026-04-25T17:22:47.079Z</time></trkpt><trkpt lat="44.8186972" lon="8.0149668"><ele>218.0</ele><time>2026-04-25T17:22:48.079Z</time></trkpt><trkpt lat="44.8188117" lon="8.0150468"><ele>215.0</ele><time>2026-04-25T17:22:49.079Z</time></trkpt><trkpt lat="44.8189246" lon="8.0151004"><ele>212.0</ele><time>2026-04-25T17:22:50.079Z</time></trkpt><trkpt lat="44.819064" lon="8.0151451"><ele>209.0</ele><time>2026-04-25T17:22:51.079Z</time></trkpt><trkpt lat="44.8191682" lon="8.0151586"><ele>209.0</ele><time>2026-04-25T17:22:52.079Z</time></trkpt><trkpt lat="44.8192903" lon="8.0151673"><ele>209.0</ele><time>2026-04-25T17:22:53.079Z</time></trkpt><trkpt lat="44.8194109" lon="8.0151585"><ele>209.0</ele><time>2026-04-25T17:22:54.079Z</time></trkpt><trkpt lat="44.8195256" lon="8.0151538"><ele>209.0</ele><time>2026-04-25T17:22:55.079Z</time></trkpt><trkpt lat="44.8196443" lon="8.0151267"><ele>209.0</ele><time>2026-04-25T17:22:56.079Z</time></trkpt><trkpt lat="44.8197545" lon="8.0150802"><ele>209.0</ele><time>2026-04-25T17:22:57.079Z</time></trkpt><trkpt lat="44.8198667" lon="8.0150229"><ele>209.0</ele><time>2026-04-25T17:22:58.078Z</time></trkpt><trkpt lat="44.8199849" lon="8.0149389"><ele>209.0</ele><time>2026-04-25T17:22:59.078Z</time></trkpt><trkpt lat="44.8200933" lon="8.0148689"><ele>208.2</ele><time>2026-04-25T17:23:00.078Z</time></trkpt><trkpt lat="44.82019" lon="8.0148103"><ele>207.39999999999998</ele><time>2026-04-25T17:23:01.078Z</time></trkpt><trkpt lat="44.8202899" lon="8.0147057"><ele>206.6</ele><time>2026-04-25T17:23:02.078Z</time></trkpt><trkpt lat="44.8203979" lon="8.014623"><ele>205.8</ele><time>2026-04-25T17:23:03.079Z</time></trkpt><trkpt lat="44.8204622" lon="8.0145447"><ele>205.0</ele><time>2026-04-25T17:23:04.079Z</time></trkpt><trkpt lat="44.8205318" lon="8.014466"><ele>205.0</ele><time>2026-04-25T17:23:05.079Z</time></trkpt><trkpt lat="44.820632" lon="8.0143626"><ele>205.0</ele><time>2026-04-25T17:23:07.078Z</time></trkpt><trkpt lat="44.8207001" lon="8.0142919"><ele>205.0</ele><time>2026-04-25T17:23:09.079Z</time></trkpt><trkpt lat="44.8207593" lon="8.0142574"><ele>205.0</ele><time>2026-04-25T17:23:12.078Z</time></trkpt><trkpt lat="44.8208837" lon="8.0143582"><ele>205.0</ele><time>2026-04-25T17:23:15.079Z</time></trkpt><trkpt lat="44.8209645" lon="8.0143939"><ele>205.0</ele><time>2026-04-25T17:23:16.079Z</time></trkpt><trkpt lat="44.8210433" lon="8.0144217"><ele>205.0</ele><time>2026-04-25T17:23:17.078Z</time></trkpt><trkpt lat="44.8211794" lon="8.0143912"><ele>205.0</ele><time>2026-04-25T17:23:19.079Z</time></trkpt><trkpt lat="44.8212834" lon="8.0143364"><ele>205.0</ele><time>2026-04-25T17:23:20.079Z</time></trkpt><trkpt lat="44.8213696" lon="8.014314"><ele>205.0</ele><time>2026-04-25T17:23:21.079Z</time></trkpt><trkpt lat="44.8214311" lon="8.0143368"><ele>205.0</ele><time>2026-04-25T17:23:22.079Z</time></trkpt><trkpt lat="44.8214914" lon="8.0143643"><ele>205.0</ele><time>2026-04-25T17:23:23.079Z</time></trkpt><trkpt lat="44.8216171" lon="8.0144237"><ele>205.0</ele><time>2026-04-25T17:23:24.078Z</time></trkpt><trkpt lat="44.8217043" lon="8.0145123"><ele>205.0</ele><time>2026-04-25T17:23:25.079Z</time></trkpt><trkpt lat="44.8218178" lon="8.0145591"><ele>205.0</ele><time>2026-04-25T17:23:26.079Z</time></trkpt><trkpt lat="44.8219288" lon="8.0146012"><ele>204.25</ele><time>2026-04-25T17:23:27.078Z</time></trkpt><trkpt lat="44.8220296" lon="8.0146463"><ele>203.5</ele><time>2026-04-25T17:23:28.079Z</time></trkpt><trkpt lat="44.8221358" lon="8.0146884"><ele>202.75</ele><time>2026-04-25T17:23:29.079Z</time></trkpt><trkpt lat="44.8222605" lon="8.0147506"><ele>202.0</ele><time>2026-04-25T17:23:30.079Z</time></trkpt><trkpt lat="44.8223636" lon="8.0148069"><ele>202.0</ele><time>2026-04-25T17:23:31.079Z</time></trkpt><trkpt lat="44.8224837" lon="8.0148435"><ele>202.0</ele><time>2026-04-25T17:23:32.079Z</time></trkpt><trkpt lat="44.822592" lon="8.0148792"><ele>202.0</ele><time>2026-04-25T17:23:33.079Z</time></trkpt><trkpt lat="44.8226901" lon="8.0148863"><ele>202.0</ele><time>2026-04-25T17:23:34.079Z</time></trkpt><trkpt lat="44.8227928" lon="8.0148865"><ele>202.0</ele><time>2026-04-25T17:23:35.079Z</time></trkpt><trkpt lat="44.8228739" lon="8.0148855"><ele>201.8</ele><time>2026-04-25T17:23:36.078Z</time></trkpt><trkpt lat="44.8229517" lon="8.0148733"><ele>201.6</ele><time>2026-04-25T17:23:37.079Z</time></trkpt><trkpt lat="44.8230273" lon="8.0148597"><ele>201.4</ele><time>2026-04-25T17:23:38.078Z</time></trkpt><trkpt lat="44.8231" lon="8.0148368"><ele>201.20000000000002</ele><time>2026-04-25T17:23:39.078Z</time></trkpt><trkpt lat="44.8231952" lon="8.0147546"><ele>201.0</ele><time>2026-04-25T17:23:41.078Z</time></trkpt><trkpt lat="44.8232796" lon="8.0146074"><ele>201.0</ele><time>2026-04-25T17:23:43.079Z</time></trkpt><trkpt lat="44.8233308" lon="8.0145129"><ele>201.0</ele><time>2026-04-25T17:23:44.079Z</time></trkpt><trkpt lat="44.823392" lon="8.0144287"><ele>201.0</ele><time>2026-04-25T17:23:45.078Z</time></trkpt><trkpt lat="44.8234646" lon="8.0143137"><ele>201.0</ele><time>2026-04-25T17:23:46.078Z</time></trkpt><trkpt lat="44.8235402" lon="8.0141869"><ele>201.0</ele><time>2026-04-25T17:23:47.079Z</time></trkpt><trkpt lat="44.8235987" lon="8.0140705"><ele>201.25</ele><time>2026-04-25T17:23:48.078Z</time></trkpt><trkpt lat="44.8236914" lon="8.0139446"><ele>201.5</ele><time>2026-04-25T17:23:49.078Z</time></trkpt><trkpt lat="44.8237907" lon="8.0138403"><ele>201.75</ele><time>2026-04-25T17:23:50.079Z</time></trkpt><trkpt lat="44.8238807" lon="8.0137435"><ele>202.0</ele><time>2026-04-25T17:23:51.078Z</time></trkpt><trkpt lat="44.8239903" lon="8.0136404"><ele>202.0</ele><time>2026-04-25T17:23:52.079Z</time></trkpt><trkpt lat="44.8240815" lon="8.013551"><ele>202.0</ele><time>2026-04-25T17:23:53.079Z</time></trkpt><trkpt lat="44.8241838" lon="8.0133997"><ele>202.0</ele><time>2026-04-25T17:23:54.079Z</time></trkpt><trkpt lat="44.8242425" lon="8.0132494"><ele>202.0</ele><time>2026-04-25T17:23:55.079Z</time></trkpt><trkpt lat="44.8243191" lon="8.0130817"><ele>202.66666666666666</ele><time>2026-04-25T17:23:56.078Z</time></trkpt><trkpt lat="44.8243863" lon="8.0129189"><ele>203.33333333333331</ele><time>2026-04-25T17:23:57.079Z</time></trkpt><trkpt lat="44.8244337" lon="8.0128188"><ele>204.0</ele><time>2026-04-25T17:23:58.078Z</time></trkpt><trkpt lat="44.8244617" lon="8.0127287"><ele>204.66666666666669</ele><time>2026-04-25T17:23:59.079Z</time></trkpt><trkpt lat="44.8244904" lon="8.0126432"><ele>205.33333333333334</ele><time>2026-04-25T17:24:00.079Z</time></trkpt><trkpt lat="44.824519" lon="8.0125543"><ele>206.0</ele><time>2026-04-25T17:24:01.079Z</time></trkpt><trkpt lat="44.824554" lon="8.0124109"><ele>206.66666666666669</ele><time>2026-04-25T17:24:03.079Z</time></trkpt><trkpt lat="44.8245733" lon="8.0122486"><ele>207.33333333333334</ele><time>2026-04-25T17:24:05.079Z</time></trkpt><trkpt lat="44.824582" lon="8.0121447"><ele>208.0</ele><time>2026-04-25T17:24:06.078Z</time></trkpt><trkpt lat="44.8246065" lon="8.0120365"><ele>208.66666666666669</ele><time>2026-04-25T17:24:07.079Z</time></trkpt><trkpt lat="44.82463" lon="8.0119267"><ele>209.33333333333334</ele><time>2026-04-25T17:24:08.079Z</time></trkpt><trkpt lat="44.8246466" lon="8.0118125"><ele>210.0</ele><time>2026-04-25T17:24:09.079Z</time></trkpt><trkpt lat="44.8246615" lon="8.0116822"><ele>210.0</ele><time>2026-04-25T17:24:10.079Z</time></trkpt><trkpt lat="44.8246442" lon="8.0115667"><ele>210.0</ele><time>2026-04-25T17:24:14.079Z</time></trkpt><trkpt lat="44.8246272" lon="8.0116773"><ele>210.0</ele><time>2026-04-25T17:24:18.079Z</time></trkpt><trkpt lat="44.8246193" lon="8.0118875"><ele>210.0</ele><time>2026-04-25T17:24:20.078Z</time></trkpt><trkpt lat="44.824592" lon="8.0120157"><ele>210.0</ele><time>2026-04-25T17:24:21.078Z</time></trkpt><trkpt lat="44.8245608" lon="8.0121344"><ele>210.0</ele><time>2026-04-25T17:24:22.078Z</time></trkpt><trkpt lat="44.82454" lon="8.0122613"><ele>210.0</ele><time>2026-04-25T17:24:23.079Z</time></trkpt><trkpt lat="44.8245173" lon="8.0123642"><ele>210.0</ele><time>2026-04-25T17:24:24.079Z</time></trkpt><trkpt lat="44.8244968" lon="8.0124807"><ele>210.0</ele><time>2026-04-25T17:24:25.079Z</time></trkpt><trkpt lat="44.8244692" lon="8.0126462"><ele>210.0</ele><time>2026-04-25T17:24:27.079Z</time></trkpt><trkpt lat="44.8244486" lon="8.01275"><ele>209.33333333333334</ele><time>2026-04-25T17:24:28.079Z</time></trkpt><trkpt lat="44.8244987" lon="8.0128607"><ele>208.66666666666669</ele><time>2026-04-25T17:24:31.078Z</time></trkpt><trkpt lat="44.8245746" lon="8.0128452"><ele>208.0</ele><time>2026-04-25T17:24:33.079Z</time></trkpt><trkpt lat="44.8246543" lon="8.0127544"><ele>207.33333333333334</ele><time>2026-04-25T17:24:35.079Z</time></trkpt><trkpt lat="44.8247221" lon="8.0127015"><ele>206.66666666666669</ele><time>2026-04-25T17:24:36.079Z</time></trkpt><trkpt lat="44.8247854" lon="8.0126894"><ele>206.0</ele><time>2026-04-25T17:24:37.079Z</time></trkpt><trkpt lat="44.8249212" lon="8.0127287"><ele>206.0</ele><time>2026-04-25T17:24:39.079Z</time></trkpt><trkpt lat="44.8249942" lon="8.0127553"><ele>206.0</ele><time>2026-04-25T17:24:40.079Z</time></trkpt><trkpt lat="44.8250886" lon="8.0127527"><ele>206.0</ele><time>2026-04-25T17:24:41.079Z</time></trkpt><trkpt lat="44.8251869" lon="8.0127486"><ele>206.0</ele><time>2026-04-25T17:24:42.079Z</time></trkpt><trkpt lat="44.8252847" lon="8.0127473"><ele>206.0</ele><time>2026-04-25T17:24:43.078Z</time></trkpt><trkpt lat="44.8253826" lon="8.0127515"><ele>209.4</ele><time>2026-04-25T17:24:44.079Z</time></trkpt><trkpt lat="44.8254911" lon="8.0127411"><ele>212.8</ele><time>2026-04-25T17:24:45.079Z</time></trkpt><trkpt lat="44.8255935" lon="8.0127375"><ele>216.20000000000002</ele><time>2026-04-25T17:24:46.079Z</time></trkpt><trkpt lat="44.8256946" lon="8.0127261"><ele>219.60000000000002</ele><time>2026-04-25T17:24:47.079Z</time></trkpt><trkpt lat="44.8257963" lon="8.0127357"><ele>223.0</ele><time>2026-04-25T17:24:48.079Z</time></trkpt><trkpt lat="44.8259115" lon="8.0127353"><ele>226.60000000000002</ele><time>2026-04-25T17:24:49.079Z</time></trkpt><trkpt lat="44.826034" lon="8.012749"><ele>230.20000000000002</ele><time>2026-04-25T17:24:50.079Z</time></trkpt><trkpt lat="44.8261231" lon="8.0127729"><ele>233.8</ele><time>2026-04-25T17:24:51.078Z</time></trkpt><trkpt lat="44.826235" lon="8.0127787"><ele>237.4</ele><time>2026-04-25T17:24:52.078Z</time></trkpt><trkpt lat="44.8263456" lon="8.0127703"><ele>241.0</ele><time>2026-04-25T17:24:53.078Z</time></trkpt><trkpt lat="44.8264444" lon="8.0127762"><ele>240.99999999999997</ele><time>2026-04-25T17:24:54.078Z</time></trkpt><trkpt lat="44.8265302" lon="8.0127979"><ele>241.0</ele><time>2026-04-25T17:24:55.079Z</time></trkpt><trkpt lat="44.8266003" lon="8.0127927"><ele>241.0</ele><time>2026-04-25T17:24:56.078Z</time></trkpt><trkpt lat="44.8266824" lon="8.0127447"><ele>241.0</ele><time>2026-04-25T17:24:57.079Z</time></trkpt><trkpt lat="44.826769" lon="8.0127007"><ele>240.99999999999997</ele><time>2026-04-25T17:24:58.079Z</time></trkpt><trkpt lat="44.8268448" lon="8.0126205"><ele>241.0</ele><time>2026-04-25T17:24:59.079Z</time></trkpt><trkpt lat="44.8269269" lon="8.0125476"><ele>243.66666666666666</ele><time>2026-04-25T17:25:00.079Z</time></trkpt><trkpt lat="44.8269811" lon="8.0124643"><ele>246.33333333333331</ele><time>2026-04-25T17:25:01.078Z</time></trkpt><trkpt lat="44.8270583" lon="8.0123825"><ele>249.0</ele><time>2026-04-25T17:25:02.079Z</time></trkpt><trkpt lat="44.8271223" lon="8.0123005"><ele>251.66666666666669</ele><time>2026-04-25T17:25:03.078Z</time></trkpt><trkpt lat="44.8271865" lon="8.0122174"><ele>254.33333333333334</ele><time>2026-04-25T17:25:04.078Z</time></trkpt><trkpt lat="44.8272555" lon="8.0121405"><ele>257.0</ele><time>2026-04-25T17:25:05.078Z</time></trkpt><trkpt lat="44.8273246" lon="8.0120726"><ele>257.0</ele><time>2026-04-25T17:25:06.079Z</time></trkpt><trkpt lat="44.8273896" lon="8.0119969"><ele>257.0</ele><time>2026-04-25T17:25:07.078Z</time></trkpt><trkpt lat="44.8274674" lon="8.0119254"><ele>257.0</ele><time>2026-04-25T17:25:08.079Z</time></trkpt><trkpt lat="44.8275443" lon="8.0118475"><ele>257.0</ele><time>2026-04-25T17:25:09.079Z</time></trkpt><trkpt lat="44.8276269" lon="8.0117779"><ele>257.0</ele><time>2026-04-25T17:25:10.078Z</time></trkpt><trkpt lat="44.8277129" lon="8.011733"><ele>258.8</ele><time>2026-04-25T17:25:11.079Z</time></trkpt><trkpt lat="44.8277967" lon="8.011699"><ele>260.6</ele><time>2026-04-25T17:25:12.079Z</time></trkpt><trkpt lat="44.8278887" lon="8.0116621"><ele>262.40000000000003</ele><time>2026-04-25T17:25:13.079Z</time></trkpt><trkpt lat="44.8279748" lon="8.0116267"><ele>264.2</ele><time>2026-04-25T17:25:14.079Z</time></trkpt><trkpt lat="44.8280707" lon="8.0115633"><ele>266.0</ele><time>2026-04-25T17:25:15.079Z</time></trkpt><trkpt lat="44.8281468" lon="8.0115029"><ele>267.0</ele><time>2026-04-25T17:25:16.078Z</time></trkpt><trkpt lat="44.8282065" lon="8.0114403"><ele>268.0</ele><time>2026-04-25T17:25:17.079Z</time></trkpt><trkpt lat="44.8282916" lon="8.0113601"><ele>269.0</ele><time>2026-04-25T17:25:18.079Z</time></trkpt><trkpt lat="44.8283587" lon="8.0112922"><ele>270.0</ele><time>2026-04-25T17:25:19.079Z</time></trkpt><trkpt lat="44.8284158" lon="8.011205"><ele>271.0</ele><time>2026-04-25T17:25:20.079Z</time></trkpt><trkpt lat="44.8284983" lon="8.0111099"><ele>274.8</ele><time>2026-04-25T17:25:21.078Z</time></trkpt><trkpt lat="44.8285798" lon="8.0110065"><ele>278.6</ele><time>2026-04-25T17:25:22.079Z</time></trkpt><trkpt lat="44.8286502" lon="8.0109024"><ele>282.4</ele><time>2026-04-25T17:25:23.079Z</time></trkpt><trkpt lat="44.8287196" lon="8.010797"><ele>286.2</ele><time>2026-04-25T17:25:24.079Z</time></trkpt><trkpt lat="44.828784" lon="8.0106849"><ele>290.0</ele><time>2026-04-25T17:25:25.079Z</time></trkpt><trkpt lat="44.828851" lon="8.0106052"><ele>290.0</ele><time>2026-04-25T17:25:26.079Z</time></trkpt><trkpt lat="44.8289285" lon="8.0105492"><ele>290.0</ele><time>2026-04-25T17:25:27.078Z</time></trkpt><trkpt lat="44.8290066" lon="8.0104742"><ele>290.0</ele><time>2026-04-25T17:25:28.079Z</time></trkpt><trkpt lat="44.8290728" lon="8.0103938"><ele>290.0</ele><time>2026-04-25T17:25:29.079Z</time></trkpt><trkpt lat="44.8291384" lon="8.0103137"><ele>290.0</ele><time>2026-04-25T17:25:30.078Z</time></trkpt><trkpt lat="44.8292135" lon="8.0102367"><ele>290.0</ele><time>2026-04-25T17:25:31.079Z</time></trkpt><trkpt lat="44.8292699" lon="8.0101147"><ele>294.14285714285717</ele><time>2026-04-25T17:25:32.079Z</time></trkpt><trkpt lat="44.8293106" lon="8.0100301"><ele>298.28571428571433</ele><time>2026-04-25T17:25:33.079Z</time></trkpt><trkpt lat="44.8293338" lon="8.0099245"><ele>302.42857142857144</ele><time>2026-04-25T17:25:34.079Z</time></trkpt><trkpt lat="44.8293504" lon="8.0098385"><ele>306.57142857142856</ele><time>2026-04-25T17:25:35.078Z</time></trkpt><trkpt lat="44.8293653" lon="8.0097268"><ele>310.71428571428567</ele><time>2026-04-25T17:25:36.079Z</time></trkpt><trkpt lat="44.8293781" lon="8.0096209"><ele>314.8571428571429</ele><time>2026-04-25T17:25:37.079Z</time></trkpt><trkpt lat="44.8293728" lon="8.0095138"><ele>319.0</ele><time>2026-04-25T17:25:38.079Z</time></trkpt><trkpt lat="44.8293686" lon="8.0093945"><ele>320.66666666666663</ele><time>2026-04-25T17:25:39.078Z</time></trkpt><trkpt lat="44.8293589" lon="8.0092947"><ele>322.3333333333333</ele><time>2026-04-25T17:25:40.078Z</time></trkpt><trkpt lat="44.8293509" lon="8.0091897"><ele>324.0</ele><time>2026-04-25T17:25:41.079Z</time></trkpt><trkpt lat="44.8293554" lon="8.0090659"><ele>325.6666666666667</ele><time>2026-04-25T17:25:42.079Z</time></trkpt><trkpt lat="44.8293337" lon="8.0089325"><ele>327.33333333333337</ele><time>2026-04-25T17:25:43.079Z</time></trkpt><trkpt lat="44.8293142" lon="8.0088035"><ele>329.0</ele><time>2026-04-25T17:25:44.079Z</time></trkpt><trkpt lat="44.8292959" lon="8.0087007"><ele>328.2</ele><time>2026-04-25T17:25:45.079Z</time></trkpt><trkpt lat="44.8292574" lon="8.0085399"><ele>327.4</ele><time>2026-04-25T17:25:46.078Z</time></trkpt><trkpt lat="44.8292156" lon="8.0084145"><ele>326.6</ele><time>2026-04-25T17:25:47.079Z</time></trkpt><trkpt lat="44.8291738" lon="8.0082889"><ele>325.8</ele><time>2026-04-25T17:25:48.078Z</time></trkpt><trkpt lat="44.8291249" lon="8.0081399"><ele>325.0</ele><time>2026-04-25T17:25:49.078Z</time></trkpt><trkpt lat="44.8290739" lon="8.0080555"><ele>325.0</ele><time>2026-04-25T17:25:50.078Z</time></trkpt><trkpt lat="44.8290194" lon="8.0079647"><ele>325.0</ele><time>2026-04-25T17:25:51.079Z</time></trkpt><trkpt lat="44.8289614" lon="8.0078696"><ele>325.0</ele><time>2026-04-25T17:25:52.079Z</time></trkpt><trkpt lat="44.8288873" lon="8.0077866"><ele>325.0</ele><time>2026-04-25T17:25:53.079Z</time></trkpt><trkpt lat="44.8288219" lon="8.0077024"><ele>325.0</ele><time>2026-04-25T17:25:54.078Z</time></trkpt><trkpt lat="44.8287614" lon="8.0076258"><ele>325.0</ele><time>2026-04-25T17:25:55.078Z</time></trkpt><trkpt lat="44.8286924" lon="8.0075299"><ele>325.8</ele><time>2026-04-25T17:25:56.079Z</time></trkpt><trkpt lat="44.8286312" lon="8.0074238"><ele>326.6</ele><time>2026-04-25T17:25:57.079Z</time></trkpt><trkpt lat="44.8285471" lon="8.0073106"><ele>327.4</ele><time>2026-04-25T17:25:59.079Z</time></trkpt><trkpt lat="44.8284927" lon="8.007188"><ele>328.2</ele><time>2026-04-25T17:26:00.079Z</time></trkpt><trkpt lat="44.8284977" lon="8.0070572"><ele>329.0</ele><time>2026-04-25T17:26:01.079Z</time></trkpt><trkpt lat="44.8284749" lon="8.0068757"><ele>329.0</ele><time>2026-04-25T17:26:03.078Z</time></trkpt><trkpt lat="44.8284797" lon="8.0067697"><ele>329.0</ele><time>2026-04-25T17:26:04.079Z</time></trkpt><trkpt lat="44.8284785" lon="8.0066541"><ele>329.0</ele><time>2026-04-25T17:26:05.079Z</time></trkpt><trkpt lat="44.8284737" lon="8.0065004"><ele>329.0</ele><time>2026-04-25T17:26:06.079Z</time></trkpt><trkpt lat="44.8284481" lon="8.0063961"><ele>329.0</ele><time>2026-04-25T17:26:08.079Z</time></trkpt><trkpt lat="44.8284214" lon="8.0063131"><ele>329.0</ele><time>2026-04-25T17:26:11.079Z</time></trkpt><trkpt lat="44.8284293" lon="8.0062013"><ele>326.59999999999997</ele><time>2026-04-25T17:26:14.079Z</time></trkpt><trkpt lat="44.8285559" lon="8.0060568"><ele>324.2</ele><time>2026-04-25T17:26:16.079Z</time></trkpt><trkpt lat="44.8286139" lon="8.0060113"><ele>321.79999999999995</ele><time>2026-04-25T17:26:17.079Z</time></trkpt><trkpt lat="44.8286958" lon="8.0059836"><ele>319.4</ele><time>2026-04-25T17:26:18.078Z</time></trkpt><trkpt lat="44.8287856" lon="8.005939"><ele>317.0</ele><time>2026-04-25T17:26:19.079Z</time></trkpt><trkpt lat="44.828876" lon="8.0058825"><ele>317.0</ele><time>2026-04-25T17:26:20.079Z</time></trkpt><trkpt lat="44.8290177" lon="8.0058432"><ele>317.0</ele><time>2026-04-25T17:26:21.079Z</time></trkpt><trkpt lat="44.8291221" lon="8.0058051"><ele>317.0</ele><time>2026-04-25T17:26:22.079Z</time></trkpt><trkpt lat="44.8292542" lon="8.0057493"><ele>317.0</ele><time>2026-04-25T17:26:23.079Z</time></trkpt><trkpt lat="44.8294217" lon="8.0057309"><ele>315.75</ele><time>2026-04-25T17:26:24.079Z</time></trkpt><trkpt lat="44.8295709" lon="8.0057151"><ele>314.5</ele><time>2026-04-25T17:26:25.079Z</time></trkpt><trkpt lat="44.8297197" lon="8.0056889"><ele>313.25</ele><time>2026-04-25T17:26:26.079Z</time></trkpt><trkpt lat="44.8298554" lon="8.0056925"><ele>312.0</ele><time>2026-04-25T17:26:27.079Z</time></trkpt><trkpt lat="44.8300039" lon="8.0056674"><ele>309.0</ele><time>2026-04-25T17:26:28.079Z</time></trkpt><trkpt lat="44.8301462" lon="8.005636"><ele>306.0</ele><time>2026-04-25T17:26:29.079Z</time></trkpt><trkpt lat="44.8302797" lon="8.0056215"><ele>303.0</ele><time>2026-04-25T17:26:30.078Z</time></trkpt><trkpt lat="44.8304126" lon="8.0056117"><ele>300.0</ele><time>2026-04-25T17:26:31.078Z</time></trkpt><trkpt lat="44.8305348" lon="8.005608"><ele>300.0</ele><time>2026-04-25T17:26:32.079Z</time></trkpt><trkpt lat="44.8306607" lon="8.0056026"><ele>300.0</ele><time>2026-04-25T17:26:33.079Z</time></trkpt><trkpt lat="44.830795" lon="8.0056062"><ele>300.0</ele><time>2026-04-25T17:26:34.079Z</time></trkpt><trkpt lat="44.8309442" lon="8.0056139"><ele>300.0</ele><time>2026-04-25T17:26:35.079Z</time></trkpt><trkpt lat="44.8310713" lon="8.0056476"><ele>297.6</ele><time>2026-04-25T17:26:36.079Z</time></trkpt><trkpt lat="44.8312063" lon="8.0056568"><ele>295.2</ele><time>2026-04-25T17:26:37.078Z</time></trkpt><trkpt lat="44.8313228" lon="8.0056934"><ele>292.8</ele><time>2026-04-25T17:26:38.078Z</time></trkpt><trkpt lat="44.8314256" lon="8.0057133"><ele>290.4</ele><time>2026-04-25T17:26:39.079Z</time></trkpt><trkpt lat="44.8314766" lon="8.0058047"><ele>288.0</ele><time>2026-04-25T17:26:40.078Z</time></trkpt><trkpt lat="44.8315428" lon="8.0058739"><ele>287.2</ele><time>2026-04-25T17:26:41.079Z</time></trkpt><trkpt lat="44.8315963" lon="8.0059424"><ele>286.4</ele><time>2026-04-25T17:26:42.079Z</time></trkpt><trkpt lat="44.8316031" lon="8.0060435"><ele>285.59999999999997</ele><time>2026-04-25T17:26:43.078Z</time></trkpt><trkpt lat="44.8316488" lon="8.0061783"><ele>284.8</ele><time>2026-04-25T17:26:45.078Z</time></trkpt><trkpt lat="44.831718" lon="8.0060532"><ele>284.0</ele><time>2026-04-25T17:26:48.079Z</time></trkpt><trkpt lat="44.8317672" lon="8.0059243"><ele>282.2</ele><time>2026-04-25T17:26:50.079Z</time></trkpt><trkpt lat="44.8318263" lon="8.0057292"><ele>280.4</ele><time>2026-04-25T17:26:52.079Z</time></trkpt><trkpt lat="44.8318479" lon="8.0056127"><ele>278.6</ele><time>2026-04-25T17:26:53.079Z</time></trkpt><trkpt lat="44.8318705" lon="8.0055088"><ele>276.8</ele><time>2026-04-25T17:26:54.079Z</time></trkpt><trkpt lat="44.8319031" lon="8.0054088"><ele>275.0</ele><time>2026-04-25T17:26:55.079Z</time></trkpt><trkpt lat="44.8320021" lon="8.005279"><ele>275.0</ele><time>2026-04-25T17:26:56.079Z</time></trkpt><trkpt lat="44.8320641" lon="8.0052123"><ele>275.0</ele><time>2026-04-25T17:26:57.079Z</time></trkpt><trkpt lat="44.8321615" lon="8.005155"><ele>275.0</ele><time>2026-04-25T17:26:58.079Z</time></trkpt><trkpt lat="44.8322811" lon="8.0050869"><ele>275.0</ele><time>2026-04-25T17:26:59.078Z</time></trkpt><trkpt lat="44.8324151" lon="8.0050068"><ele>274.0</ele><time>2026-04-25T17:27:00.079Z</time></trkpt><trkpt lat="44.8325395" lon="8.0049324"><ele>273.0</ele><time>2026-04-25T17:27:01.078Z</time></trkpt><trkpt lat="44.8326806" lon="8.0048664"><ele>272.0</ele><time>2026-04-25T17:27:02.079Z</time></trkpt><trkpt lat="44.8328153" lon="8.0048009"><ele>271.0</ele><time>2026-04-25T17:27:03.078Z</time></trkpt><trkpt lat="44.8329528" lon="8.0047538"><ele>271.0</ele><time>2026-04-25T17:27:04.078Z</time></trkpt><trkpt lat="44.8330939" lon="8.0047004"><ele>271.0</ele><time>2026-04-25T17:27:05.079Z</time></trkpt><trkpt lat="44.8332072" lon="8.0046646"><ele>271.0</ele><time>2026-04-25T17:27:06.079Z</time></trkpt><trkpt lat="44.8333364" lon="8.0046228"><ele>271.0</ele><time>2026-04-25T17:27:07.078Z</time></trkpt><trkpt lat="44.8334671" lon="8.004556"><ele>270.5</ele><time>2026-04-25T17:27:08.079Z</time></trkpt><trkpt lat="44.8335753" lon="8.0044498"><ele>270.0</ele><time>2026-04-25T17:27:09.078Z</time></trkpt><trkpt lat="44.8336753" lon="8.004309"><ele>269.5</ele><time>2026-04-25T17:27:10.079Z</time></trkpt><trkpt lat="44.8337615" lon="8.0041666"><ele>269.0</ele><time>2026-04-25T17:27:11.079Z</time></trkpt><trkpt lat="44.8338468" lon="8.0040128"><ele>269.0</ele><time>2026-04-25T17:27:12.079Z</time></trkpt><trkpt lat="44.8339454" lon="8.0038309"><ele>269.0</ele><time>2026-04-25T17:27:13.078Z</time></trkpt><trkpt lat="44.8340394" lon="8.0036695"><ele>269.0</ele><time>2026-04-25T17:27:14.079Z</time></trkpt><trkpt lat="44.8341297" lon="8.0035179"><ele>269.0</ele><time>2026-04-25T17:27:15.079Z</time></trkpt><trkpt lat="44.8342238" lon="8.0033574"><ele>269.0</ele><time>2026-04-25T17:27:16.078Z</time></trkpt><trkpt lat="44.8343155" lon="8.0031958"><ele>269.0</ele><time>2026-04-25T17:27:17.078Z</time></trkpt><trkpt lat="44.8344046" lon="8.0030465"><ele>269.0</ele><time>2026-04-25T17:27:18.079Z</time></trkpt><trkpt lat="44.8344935" lon="8.002901"><ele>267.4</ele><time>2026-04-25T17:27:19.079Z</time></trkpt><trkpt lat="44.8345753" lon="8.0027431"><ele>265.79999999999995</ele><time>2026-04-25T17:27:20.078Z</time></trkpt><trkpt lat="44.8346345" lon="8.0026296"><ele>264.20000000000005</ele><time>2026-04-25T17:27:21.079Z</time></trkpt><trkpt lat="44.8346931" lon="8.0025127"><ele>262.6</ele><time>2026-04-25T17:27:22.079Z</time></trkpt><trkpt lat="44.8347436" lon="8.0024"><ele>261.0</ele><time>2026-04-25T17:27:23.079Z</time></trkpt><trkpt lat="44.8347929" lon="8.0023224"><ele>261.8</ele><time>2026-04-25T17:27:24.079Z</time></trkpt><trkpt lat="44.8348364" lon="8.0022555"><ele>262.6</ele><time>2026-04-25T17:27:25.079Z</time></trkpt><trkpt lat="44.8348889" lon="8.0021873"><ele>263.4</ele><time>2026-04-25T17:27:26.079Z</time></trkpt><trkpt lat="44.835042" lon="8.0021465"><ele>264.2</ele><time>2026-04-25T17:27:29.078Z</time></trkpt><trkpt lat="44.8351588" lon="8.0021222"><ele>265.0</ele><time>2026-04-25T17:27:30.079Z</time></trkpt><trkpt lat="44.8353274" lon="8.002093"><ele>265.0</ele><time>2026-04-25T17:27:31.078Z</time></trkpt><trkpt lat="44.8354656" lon="8.0020547"><ele>265.0</ele><time>2026-04-25T17:27:32.079Z</time></trkpt><trkpt lat="44.8356405" lon="8.0019893"><ele>265.0</ele><time>2026-04-25T17:27:33.078Z</time></trkpt><trkpt lat="44.8358165" lon="8.0019903"><ele>263.66666666666663</ele><time>2026-04-25T17:27:34.079Z</time></trkpt><trkpt lat="44.8359871" lon="8.0019512"><ele>262.3333333333333</ele><time>2026-04-25T17:27:35.079Z</time></trkpt><trkpt lat="44.8361563" lon="8.0018958"><ele>261.0</ele><time>2026-04-25T17:27:36.079Z</time></trkpt><trkpt lat="44.8363357" lon="8.0018167"><ele>261.0</ele><time>2026-04-25T17:27:37.079Z</time></trkpt><trkpt lat="44.8364921" lon="8.0017574"><ele>261.0</ele><time>2026-04-25T17:27:38.079Z</time></trkpt><trkpt lat="44.8366656" lon="8.0016907"><ele>261.0</ele><time>2026-04-25T17:27:39.078Z</time></trkpt><trkpt lat="44.8368319" lon="8.0016169"><ele>261.6666666666667</ele><time>2026-04-25T17:27:40.079Z</time></trkpt><trkpt lat="44.8370179" lon="8.0015516"><ele>262.33333333333337</ele><time>2026-04-25T17:27:41.079Z</time></trkpt><trkpt lat="44.8371939" lon="8.0014782"><ele>263.0</ele><time>2026-04-25T17:27:42.078Z</time></trkpt><trkpt lat="44.8373954" lon="8.0014056"><ele>263.0</ele><time>2026-04-25T17:27:43.079Z</time></trkpt><trkpt lat="44.8375197" lon="8.0013747"><ele>263.0</ele><time>2026-04-25T17:27:44.078Z</time></trkpt><trkpt lat="44.8377074" lon="8.0013017"><ele>263.0</ele><time>2026-04-25T17:27:45.079Z</time></trkpt><trkpt lat="44.8378702" lon="8.0012555"><ele>261.33333333333337</ele><time>2026-04-25T17:27:46.078Z</time></trkpt><trkpt lat="44.8380465" lon="8.0011994"><ele>259.6666666666667</ele><time>2026-04-25T17:27:47.078Z</time></trkpt><trkpt lat="44.8382074" lon="8.0011492"><ele>258.0</ele><time>2026-04-25T17:27:48.079Z</time></trkpt><trkpt lat="44.8383549" lon="8.0010836"><ele>257.0</ele><time>2026-04-25T17:27:49.079Z</time></trkpt><trkpt lat="44.8385104" lon="8.0010734"><ele>256.0</ele><time>2026-04-25T17:27:50.079Z</time></trkpt><trkpt lat="44.8386823" lon="8.001093"><ele>255.0</ele><time>2026-04-25T17:27:51.079Z</time></trkpt><trkpt lat="44.8388508" lon="8.0011531"><ele>255.0</ele><time>2026-04-25T17:27:52.078Z</time></trkpt><trkpt lat="44.8390222" lon="8.0012246"><ele>255.0</ele><time>2026-04-25T17:27:53.078Z</time></trkpt><trkpt lat="44.8392083" lon="8.0012857"><ele>255.0</ele><time>2026-04-25T17:27:54.079Z</time></trkpt><trkpt lat="44.8393864" lon="8.0013724"><ele>254.33333333333331</ele><time>2026-04-25T17:27:55.079Z</time></trkpt><trkpt lat="44.8395627" lon="8.0014627"><ele>253.66666666666666</ele><time>2026-04-25T17:27:56.079Z</time></trkpt><trkpt lat="44.8397414" lon="8.0015523"><ele>253.0</ele><time>2026-04-25T17:27:57.079Z</time></trkpt><trkpt lat="44.8399346" lon="8.0016185"><ele>253.33333333333331</ele><time>2026-04-25T17:27:58.079Z</time></trkpt><trkpt lat="44.8400959" lon="8.0017075"><ele>253.66666666666669</ele><time>2026-04-25T17:27:59.079Z</time></trkpt><trkpt lat="44.8402764" lon="8.0017867"><ele>254.0</ele><time>2026-04-25T17:28:00.079Z</time></trkpt><trkpt lat="44.8404416" lon="8.00186"><ele>252.0</ele><time>2026-04-25T17:28:01.078Z</time></trkpt><trkpt lat="44.8405988" lon="8.0019303"><ele>250.0</ele><time>2026-04-25T17:28:02.079Z</time></trkpt><trkpt lat="44.8407401" lon="8.0019947"><ele>248.0</ele><time>2026-04-25T17:28:03.079Z</time></trkpt><trkpt lat="44.8408974" lon="8.0020202"><ele>249.0</ele><time>2026-04-25T17:28:04.078Z</time></trkpt><trkpt lat="44.8410493" lon="8.0020286"><ele>250.0</ele><time>2026-04-25T17:28:05.078Z</time></trkpt><trkpt lat="44.8412125" lon="8.0019996"><ele>251.0</ele><time>2026-04-25T17:28:06.079Z</time></trkpt><trkpt lat="44.8413783" lon="8.0019668"><ele>251.0</ele><time>2026-04-25T17:28:07.079Z</time></trkpt><trkpt lat="44.8415366" lon="8.0019176"><ele>251.0</ele><time>2026-04-25T17:28:08.079Z</time></trkpt><trkpt lat="44.8417113" lon="8.0018281"><ele>251.0</ele><time>2026-04-25T17:28:09.079Z</time></trkpt><trkpt lat="44.8418715" lon="8.0017493"><ele>251.33333333333334</ele><time>2026-04-25T17:28:10.078Z</time></trkpt><trkpt lat="44.8420012" lon="8.0017233"><ele>251.66666666666669</ele><time>2026-04-25T17:28:11.079Z</time></trkpt><trkpt lat="44.8421934" lon="8.001658"><ele>252.0</ele><time>2026-04-25T17:28:12.078Z</time></trkpt><trkpt lat="44.842368" lon="8.0016355"><ele>252.0</ele><time>2026-04-25T17:28:13.079Z</time></trkpt><trkpt lat="44.8425453" lon="8.0016456"><ele>252.0</ele><time>2026-04-25T17:28:14.079Z</time></trkpt><trkpt lat="44.8427224" lon="8.0016767"><ele>252.0</ele><time>2026-04-25T17:28:15.079Z</time></trkpt><trkpt lat="44.8429114" lon="8.0017235"><ele>250.33333333333331</ele><time>2026-04-25T17:28:16.079Z</time></trkpt><trkpt lat="44.8431112" lon="8.0017912"><ele>248.66666666666666</ele><time>2026-04-25T17:28:17.078Z</time></trkpt><trkpt lat="44.8433036" lon="8.0018605"><ele>247.0</ele><time>2026-04-25T17:28:18.079Z</time></trkpt><trkpt lat="44.8435098" lon="8.0019507"><ele>246.66666666666666</ele><time>2026-04-25T17:28:19.079Z</time></trkpt><trkpt lat="44.8436906" lon="8.0020499"><ele>246.33333333333331</ele><time>2026-04-25T17:28:20.078Z</time></trkpt><trkpt lat="44.8438738" lon="8.0021459"><ele>246.0</ele><time>2026-04-25T17:28:21.079Z</time></trkpt><trkpt lat="44.8440621" lon="8.0022433"><ele>246.0</ele><time>2026-04-25T17:28:22.079Z</time></trkpt><trkpt lat="44.8442155" lon="8.0023691"><ele>246.0</ele><time>2026-04-25T17:28:23.079Z</time></trkpt><trkpt lat="44.8444115" lon="8.0024842"><ele>246.0</ele><time>2026-04-25T17:28:24.079Z</time></trkpt><trkpt lat="44.8446204" lon="8.0025014"><ele>246.0</ele><time>2026-04-25T17:28:25.079Z</time></trkpt><trkpt lat="44.8448328" lon="8.00255"><ele>246.0</ele><time>2026-04-25T17:28:26.079Z</time></trkpt><trkpt lat="44.8450532" lon="8.0025793"><ele>246.0</ele><time>2026-04-25T17:28:27.079Z</time></trkpt><trkpt lat="44.8452873" lon="8.0025926"><ele>246.0</ele><time>2026-04-25T17:28:28.078Z</time></trkpt><trkpt lat="44.84551" lon="8.0026363"><ele>246.0</ele><time>2026-04-25T17:28:29.079Z</time></trkpt><trkpt lat="44.8457155" lon="8.0026509"><ele>246.0</ele><time>2026-04-25T17:28:30.079Z</time></trkpt><trkpt lat="44.8459215" lon="8.0026836"><ele>245.0</ele><time>2026-04-25T17:28:31.079Z</time></trkpt><trkpt lat="44.8461266" lon="8.0027173"><ele>244.0</ele><time>2026-04-25T17:28:32.078Z</time></trkpt><trkpt lat="44.846324" lon="8.0027475"><ele>243.0</ele><time>2026-04-25T17:28:33.079Z</time></trkpt><trkpt lat="44.8465341" lon="8.0027903"><ele>243.0</ele><time>2026-04-25T17:28:34.079Z</time></trkpt><trkpt lat="44.8467403" lon="8.0028286"><ele>243.0</ele><time>2026-04-25T17:28:35.079Z</time></trkpt><trkpt lat="44.84694" lon="8.0028484"><ele>243.0</ele><time>2026-04-25T17:28:36.079Z</time></trkpt><trkpt lat="44.8471269" lon="8.0028684"><ele>243.33333333333331</ele><time>2026-04-25T17:28:37.079Z</time></trkpt><trkpt lat="44.8473181" lon="8.0028845"><ele>243.66666666666666</ele><time>2026-04-25T17:28:38.079Z</time></trkpt><trkpt lat="44.8475228" lon="8.0028988"><ele>244.0</ele><time>2026-04-25T17:28:39.079Z</time></trkpt><trkpt lat="44.8477281" lon="8.0029251"><ele>242.33333333333331</ele><time>2026-04-25T17:28:40.079Z</time></trkpt><trkpt lat="44.8479461" lon="8.0029417"><ele>240.66666666666669</ele><time>2026-04-25T17:28:41.079Z</time></trkpt><trkpt lat="44.848126" lon="8.002976"><ele>239.0</ele><time>2026-04-25T17:28:42.079Z</time></trkpt><trkpt lat="44.8483183" lon="8.003007"><ele>238.0</ele><time>2026-04-25T17:28:43.079Z</time></trkpt><trkpt lat="44.8485006" lon="8.0030688"><ele>237.0</ele><time>2026-04-25T17:28:44.079Z</time></trkpt><trkpt lat="44.8486967" lon="8.003158"><ele>236.0</ele><time>2026-04-25T17:28:45.078Z</time></trkpt><trkpt lat="44.8488612" lon="8.0032911"><ele>236.66666666666669</ele><time>2026-04-25T17:28:46.079Z</time></trkpt><trkpt lat="44.8490483" lon="8.0034043"><ele>237.33333333333331</ele><time>2026-04-25T17:28:47.078Z</time></trkpt><trkpt lat="44.8492363" lon="8.0035103"><ele>238.0</ele><time>2026-04-25T17:28:48.079Z</time></trkpt><trkpt lat="44.8494347" lon="8.0036284"><ele>236.66666666666666</ele><time>2026-04-25T17:28:49.079Z</time></trkpt><trkpt lat="44.8496358" lon="8.0037456"><ele>235.33333333333331</ele><time>2026-04-25T17:28:50.078Z</time></trkpt><trkpt lat="44.8498474" lon="8.0038518"><ele>234.0</ele><time>2026-04-25T17:28:51.079Z</time></trkpt><trkpt lat="44.8500355" lon="8.00396"><ele>234.66666666666669</ele><time>2026-04-25T17:28:52.079Z</time></trkpt><trkpt lat="44.8502208" lon="8.00408"><ele>235.33333333333334</ele><time>2026-04-25T17:28:53.079Z</time></trkpt><trkpt lat="44.8504105" lon="8.0041796"><ele>236.0</ele><time>2026-04-25T17:28:54.078Z</time></trkpt><trkpt lat="44.8506032" lon="8.0042822"><ele>235.66666666666669</ele><time>2026-04-25T17:28:55.078Z</time></trkpt><trkpt lat="44.8507799" lon="8.0044008"><ele>235.33333333333331</ele><time>2026-04-25T17:28:56.079Z</time></trkpt><trkpt lat="44.8509546" lon="8.004512"><ele>235.0</ele><time>2026-04-25T17:28:57.079Z</time></trkpt><trkpt lat="44.8511446" lon="8.0046275"><ele>235.0</ele><time>2026-04-25T17:28:58.078Z</time></trkpt><trkpt lat="44.8513232" lon="8.0047358"><ele>235.0</ele><time>2026-04-25T17:28:59.079Z</time></trkpt><trkpt lat="44.8515118" lon="8.0048496"><ele>235.0</ele><time>2026-04-25T17:29:00.078Z</time></trkpt><trkpt lat="44.8517013" lon="8.0049565"><ele>235.33333333333331</ele><time>2026-04-25T17:29:01.078Z</time></trkpt><trkpt lat="44.8518891" lon="8.0050441"><ele>235.66666666666669</ele><time>2026-04-25T17:29:02.079Z</time></trkpt><trkpt lat="44.8521118" lon="8.0050853"><ele>236.0</ele><time>2026-04-25T17:29:03.079Z</time></trkpt><trkpt lat="44.8522979" lon="8.0051658"><ele>236.0</ele><time>2026-04-25T17:29:04.078Z</time></trkpt><trkpt lat="44.8525155" lon="8.0052239"><ele>236.0</ele><time>2026-04-25T17:29:05.078Z</time></trkpt><trkpt lat="44.8527209" lon="8.0052847"><ele>236.0</ele><time>2026-04-25T17:29:06.079Z</time></trkpt><trkpt lat="44.8529373" lon="8.0053479"><ele>235.66666666666669</ele><time>2026-04-25T17:29:07.079Z</time></trkpt><trkpt lat="44.853152" lon="8.0054073"><ele>235.33333333333331</ele><time>2026-04-25T17:29:08.078Z</time></trkpt><trkpt lat="44.8533378" lon="8.0054995"><ele>235.0</ele><time>2026-04-25T17:29:09.079Z</time></trkpt><trkpt lat="44.8535434" lon="8.0055637"><ele>233.66666666666666</ele><time>2026-04-25T17:29:10.079Z</time></trkpt><trkpt lat="44.8537489" lon="8.005626"><ele>232.33333333333331</ele><time>2026-04-25T17:29:11.079Z</time></trkpt><trkpt lat="44.853956" lon="8.0056783"><ele>231.0</ele><time>2026-04-25T17:29:12.079Z</time></trkpt><trkpt lat="44.8541662" lon="8.00573"><ele>230.66666666666669</ele><time>2026-04-25T17:29:13.079Z</time></trkpt><trkpt lat="44.854369" lon="8.005803"><ele>230.33333333333334</ele><time>2026-04-25T17:29:14.079Z</time></trkpt><trkpt lat="44.8545869" lon="8.0058615"><ele>230.0</ele><time>2026-04-25T17:29:15.079Z</time></trkpt><trkpt lat="44.8547962" lon="8.0059278"><ele>230.0</ele><time>2026-04-25T17:29:16.079Z</time></trkpt><trkpt lat="44.8550093" lon="8.005979"><ele>230.0</ele><time>2026-04-25T17:29:17.079Z</time></trkpt><trkpt lat="44.8552359" lon="8.0060225"><ele>230.0</ele><time>2026-04-25T17:29:18.078Z</time></trkpt><trkpt lat="44.8554649" lon="8.0060466"><ele>229.66666666666669</ele><time>2026-04-25T17:29:19.079Z</time></trkpt><trkpt lat="44.8556885" lon="8.0060753"><ele>229.33333333333331</ele><time>2026-04-25T17:29:20.079Z</time></trkpt><trkpt lat="44.8559098" lon="8.0061058"><ele>229.0</ele><time>2026-04-25T17:29:21.079Z</time></trkpt><trkpt lat="44.8561324" lon="8.0061367"><ele>229.0</ele><time>2026-04-25T17:29:22.079Z</time></trkpt><trkpt lat="44.8563367" lon="8.0061834"><ele>229.0</ele><time>2026-04-25T17:29:23.079Z</time></trkpt><trkpt lat="44.8565574" lon="8.0062077"><ele>229.0</ele><time>2026-04-25T17:29:24.078Z</time></trkpt><trkpt lat="44.8567732" lon="8.0062367"><ele>228.33333333333331</ele><time>2026-04-25T17:29:25.079Z</time></trkpt><trkpt lat="44.8569672" lon="8.0062698"><ele>227.66666666666669</ele><time>2026-04-25T17:29:26.079Z</time></trkpt><trkpt lat="44.8571744" lon="8.0062965"><ele>227.0</ele><time>2026-04-25T17:29:27.079Z</time></trkpt><trkpt lat="44.8573876" lon="8.0063256"><ele>227.0</ele><time>2026-04-25T17:29:28.079Z</time></trkpt><trkpt lat="44.8575605" lon="8.0063842"><ele>227.0</ele><time>2026-04-25T17:29:29.079Z</time></trkpt><trkpt lat="44.8577619" lon="8.0064042"><ele>227.0</ele><time>2026-04-25T17:29:30.078Z</time></trkpt><trkpt lat="44.8579773" lon="8.006445"><ele>227.0</ele><time>2026-04-25T17:29:31.079Z</time></trkpt><trkpt lat="44.8581893" lon="8.0064952"><ele>227.0</ele><time>2026-04-25T17:29:32.079Z</time></trkpt><trkpt lat="44.8583845" lon="8.0065398"><ele>227.0</ele><time>2026-04-25T17:29:33.079Z</time></trkpt><trkpt lat="44.8585801" lon="8.0065821"><ele>227.0</ele><time>2026-04-25T17:29:34.079Z</time></trkpt><trkpt lat="44.8587821" lon="8.0066141"><ele>227.0</ele><time>2026-04-25T17:29:35.079Z</time></trkpt><trkpt lat="44.8589706" lon="8.0066662"><ele>227.0</ele><time>2026-04-25T17:29:36.079Z</time></trkpt><trkpt lat="44.8591692" lon="8.0067399"><ele>225.33333333333334</ele><time>2026-04-25T17:29:37.079Z</time></trkpt><trkpt lat="44.8593785" lon="8.00681"><ele>223.66666666666669</ele><time>2026-04-25T17:29:38.079Z</time></trkpt><trkpt lat="44.8595827" lon="8.006876"><ele>222.0</ele><time>2026-04-25T17:29:39.079Z</time></trkpt><trkpt lat="44.8597627" lon="8.0069616"><ele>222.0</ele><time>2026-04-25T17:29:40.079Z</time></trkpt><trkpt lat="44.8599609" lon="8.0070244"><ele>222.0</ele><time>2026-04-25T17:29:41.078Z</time></trkpt><trkpt lat="44.860148" lon="8.0071062"><ele>222.0</ele><time>2026-04-25T17:29:42.078Z</time></trkpt><trkpt lat="44.8603256" lon="8.0071881"><ele>223.33333333333331</ele><time>2026-04-25T17:29:43.079Z</time></trkpt><trkpt lat="44.8605284" lon="8.0072384"><ele>224.66666666666666</ele><time>2026-04-25T17:29:44.079Z</time></trkpt><trkpt lat="44.8606953" lon="8.0073282"><ele>226.0</ele><time>2026-04-25T17:29:45.079Z</time></trkpt><trkpt lat="44.860872" lon="8.0074338"><ele>225.0</ele><time>2026-04-25T17:29:46.078Z</time></trkpt><trkpt lat="44.8610197" lon="8.0075766"><ele>224.0</ele><time>2026-04-25T17:29:47.078Z</time></trkpt><trkpt lat="44.8611798" lon="8.0077225"><ele>223.0</ele><time>2026-04-25T17:29:48.078Z</time></trkpt><trkpt lat="44.8613334" lon="8.0079045"><ele>223.0</ele><time>2026-04-25T17:29:49.079Z</time></trkpt><trkpt lat="44.8614796" lon="8.0080942"><ele>223.0</ele><time>2026-04-25T17:29:50.079Z</time></trkpt><trkpt lat="44.8616414" lon="8.0082889"><ele>223.0</ele><time>2026-04-25T17:29:51.078Z</time></trkpt><trkpt lat="44.8618165" lon="8.0084935"><ele>221.66666666666666</ele><time>2026-04-25T17:29:52.079Z</time></trkpt><trkpt lat="44.8619739" lon="8.0086883"><ele>220.33333333333331</ele><time>2026-04-25T17:29:53.079Z</time></trkpt><trkpt lat="44.8621237" lon="8.0089041"><ele>219.0</ele><time>2026-04-25T17:29:54.079Z</time></trkpt><trkpt lat="44.8622799" lon="8.0091012"><ele>218.0</ele><time>2026-04-25T17:29:55.079Z</time></trkpt><trkpt lat="44.8624331" lon="8.0092789"><ele>217.0</ele><time>2026-04-25T17:29:56.079Z</time></trkpt><trkpt lat="44.8625828" lon="8.0094649"><ele>216.0</ele><time>2026-04-25T17:29:57.079Z</time></trkpt><trkpt lat="44.8627244" lon="8.0096669"><ele>216.0</ele><time>2026-04-25T17:29:58.078Z</time></trkpt><trkpt lat="44.8628351" lon="8.0098142"><ele>216.0</ele><time>2026-04-25T17:29:59.079Z</time></trkpt><trkpt lat="44.8629571" lon="8.0099825"><ele>216.0</ele><time>2026-04-25T17:30:00.079Z</time></trkpt><trkpt lat="44.8630739" lon="8.0101206"><ele>216.0</ele><time>2026-04-25T17:30:01.078Z</time></trkpt><trkpt lat="44.8631753" lon="8.0102443"><ele>216.0</ele><time>2026-04-25T17:30:02.079Z</time></trkpt><trkpt lat="44.8632946" lon="8.0103894"><ele>216.0</ele><time>2026-04-25T17:30:03.078Z</time></trkpt><trkpt lat="44.8633783" lon="8.0104714"><ele>216.0</ele><time>2026-04-25T17:30:04.078Z</time></trkpt><trkpt lat="44.8634495" lon="8.0105304"><ele>216.5</ele><time>2026-04-25T17:30:05.078Z</time></trkpt><trkpt lat="44.8635313" lon="8.0105814"><ele>217.0</ele><time>2026-04-25T17:30:06.079Z</time></trkpt><trkpt lat="44.8636712" lon="8.0105276"><ele>217.5</ele><time>2026-04-25T17:30:08.079Z</time></trkpt><trkpt lat="44.863752" lon="8.0103065"><ele>218.0</ele><time>2026-04-25T17:30:09.079Z</time></trkpt><trkpt lat="44.8638231" lon="8.010185"><ele>218.0</ele><time>2026-04-25T17:30:10.079Z</time></trkpt><trkpt lat="44.8639066" lon="8.0101099"><ele>218.0</ele><time>2026-04-25T17:30:11.079Z</time></trkpt><trkpt lat="44.8639967" lon="8.0100631"><ele>218.0</ele><time>2026-04-25T17:30:12.079Z</time></trkpt><trkpt lat="44.8641024" lon="8.0100772"><ele>218.0</ele><time>2026-04-25T17:30:13.079Z</time></trkpt><trkpt lat="44.8642217" lon="8.0101395"><ele>218.0</ele><time>2026-04-25T17:30:14.078Z</time></trkpt><trkpt lat="44.8642994" lon="8.0102716"><ele>219.33333333333334</ele><time>2026-04-25T17:30:15.078Z</time></trkpt><trkpt lat="44.8643804" lon="8.0103994"><ele>220.66666666666669</ele><time>2026-04-25T17:30:16.079Z</time></trkpt><trkpt lat="44.8644746" lon="8.0105475"><ele>222.0</ele><time>2026-04-25T17:30:17.078Z</time></trkpt><trkpt lat="44.8645999" lon="8.0107807"><ele>220.33333333333331</ele><time>2026-04-25T17:30:18.079Z</time></trkpt><trkpt lat="44.8647343" lon="8.011013"><ele>218.66666666666666</ele><time>2026-04-25T17:30:19.078Z</time></trkpt><trkpt lat="44.8649043" lon="8.0112257"><ele>217.0</ele><time>2026-04-25T17:30:20.078Z</time></trkpt><trkpt lat="44.865035" lon="8.0114536"><ele>217.66666666666666</ele><time>2026-04-25T17:30:21.078Z</time></trkpt><trkpt lat="44.8651695" lon="8.0116702"><ele>218.33333333333331</ele><time>2026-04-25T17:30:22.079Z</time></trkpt><trkpt lat="44.8653057" lon="8.0118847"><ele>219.0</ele><time>2026-04-25T17:30:23.079Z</time></trkpt><trkpt lat="44.8654498" lon="8.0121038"><ele>219.0</ele><time>2026-04-25T17:30:24.079Z</time></trkpt><trkpt lat="44.8655782" lon="8.0123102"><ele>219.0</ele><time>2026-04-25T17:30:25.078Z</time></trkpt><trkpt lat="44.8657191" lon="8.0125326"><ele>219.0</ele><time>2026-04-25T17:30:26.078Z</time></trkpt><trkpt lat="44.8658485" lon="8.0127293"><ele>221.0</ele><time>2026-04-25T17:30:27.078Z</time></trkpt><trkpt lat="44.8659808" lon="8.0129391"><ele>223.0</ele><time>2026-04-25T17:30:28.079Z</time></trkpt><trkpt lat="44.8660907" lon="8.0131168"><ele>225.0</ele><time>2026-04-25T17:30:29.079Z</time></trkpt><trkpt lat="44.8662102" lon="8.0133085"><ele>222.33333333333331</ele><time>2026-04-25T17:30:30.079Z</time></trkpt><trkpt lat="44.8663396" lon="8.0134955"><ele>219.66666666666666</ele><time>2026-04-25T17:30:31.079Z</time></trkpt><trkpt lat="44.8664641" lon="8.0136975"><ele>217.0</ele><time>2026-04-25T17:30:32.079Z</time></trkpt><trkpt lat="44.8665591" lon="8.0138972"><ele>217.0</ele><time>2026-04-25T17:30:33.079Z</time></trkpt><trkpt lat="44.8666728" lon="8.0140941"><ele>217.0</ele><time>2026-04-25T17:30:34.079Z</time></trkpt><trkpt lat="44.8667865" lon="8.01429"><ele>217.0</ele><time>2026-04-25T17:30:35.079Z</time></trkpt><trkpt lat="44.8669085" lon="8.0144706"><ele>216.25</ele><time>2026-04-25T17:30:36.078Z</time></trkpt><trkpt lat="44.8670067" lon="8.0146424"><ele>215.5</ele><time>2026-04-25T17:30:37.079Z</time></trkpt><trkpt lat="44.8671081" lon="8.0148012"><ele>214.75</ele><time>2026-04-25T17:30:38.079Z</time></trkpt><trkpt lat="44.8672033" lon="8.014912"><ele>214.0</ele><time>2026-04-25T17:30:39.079Z</time></trkpt><trkpt lat="44.8673081" lon="8.0150212"><ele>214.0</ele><time>2026-04-25T17:30:40.078Z</time></trkpt><trkpt lat="44.867412" lon="8.0151028"><ele>214.0</ele><time>2026-04-25T17:30:41.079Z</time></trkpt><trkpt lat="44.8675392" lon="8.0151511"><ele>214.0</ele><time>2026-04-25T17:30:42.078Z</time></trkpt><trkpt lat="44.8676719" lon="8.0151369"><ele>214.0</ele><time>2026-04-25T17:30:43.079Z</time></trkpt><trkpt lat="44.8679002" lon="8.015093"><ele>214.0</ele><time>2026-04-25T17:30:44.078Z</time></trkpt><trkpt lat="44.8680787" lon="8.01507"><ele>214.0</ele><time>2026-04-25T17:30:45.079Z</time></trkpt><trkpt lat="44.868253" lon="8.0150525"><ele>214.0</ele><time>2026-04-25T17:30:46.078Z</time></trkpt><trkpt lat="44.8684268" lon="8.0150489"><ele>213.33333333333331</ele><time>2026-04-25T17:30:47.079Z</time></trkpt><trkpt lat="44.8685927" lon="8.0150261"><ele>212.66666666666669</ele><time>2026-04-25T17:30:48.078Z</time></trkpt><trkpt lat="44.8687583" lon="8.0150152"><ele>212.0</ele><time>2026-04-25T17:30:49.078Z</time></trkpt><trkpt lat="44.868926" lon="8.015006"><ele>215.33333333333334</ele><time>2026-04-25T17:30:50.079Z</time></trkpt><trkpt lat="44.8690954" lon="8.0149865"><ele>218.66666666666669</ele><time>2026-04-25T17:30:51.079Z</time></trkpt><trkpt lat="44.8692486" lon="8.0149809"><ele>222.0</ele><time>2026-04-25T17:30:52.079Z</time></trkpt><trkpt lat="44.8693997" lon="8.0149818"><ele>222.0</ele><time>2026-04-25T17:30:53.079Z</time></trkpt><trkpt lat="44.8695442" lon="8.0149792"><ele>222.0</ele><time>2026-04-25T17:30:54.079Z</time></trkpt><trkpt lat="44.8696774" lon="8.0149837"><ele>222.0</ele><time>2026-04-25T17:30:55.079Z</time></trkpt><trkpt lat="44.8698153" lon="8.0149969"><ele>222.0</ele><time>2026-04-25T17:30:56.079Z</time></trkpt><trkpt lat="44.869951" lon="8.0150138"><ele>219.5</ele><time>2026-04-25T17:30:57.078Z</time></trkpt><trkpt lat="44.8700949" lon="8.015047"><ele>217.0</ele><time>2026-04-25T17:30:58.078Z</time></trkpt><trkpt lat="44.8702367" lon="8.0150854"><ele>214.5</ele><time>2026-04-25T17:30:59.078Z</time></trkpt><trkpt lat="44.8703604" lon="8.0151299"><ele>212.0</ele><time>2026-04-25T17:31:00.079Z</time></trkpt><trkpt lat="44.8704907" lon="8.0151718"><ele>211.39999999999998</ele><time>2026-04-25T17:31:01.078Z</time></trkpt><trkpt lat="44.8706058" lon="8.0152124"><ele>210.79999999999998</ele><time>2026-04-25T17:31:02.078Z</time></trkpt><trkpt lat="44.8706996" lon="8.0152302"><ele>210.2</ele><time>2026-04-25T17:31:03.079Z</time></trkpt><trkpt lat="44.8707723" lon="8.0152501"><ele>209.6</ele><time>2026-04-25T17:31:04.079Z</time></trkpt><trkpt lat="44.8708745" lon="8.0152863"><ele>209.0</ele><time>2026-04-25T17:31:06.078Z</time></trkpt><trkpt lat="44.8709366" lon="8.015319"><ele>209.16666666666669</ele><time>2026-04-25T17:31:09.079Z</time></trkpt><trkpt lat="44.8710039" lon="8.0152868"><ele>209.33333333333334</ele><time>2026-04-25T17:31:19.079Z</time></trkpt><trkpt lat="44.8710469" lon="8.0152212"><ele>209.5</ele><time>2026-04-25T17:31:20.079Z</time></trkpt><trkpt lat="44.8711157" lon="8.0151273"><ele>209.66666666666669</ele><time>2026-04-25T17:31:21.079Z</time></trkpt><trkpt lat="44.8711803" lon="8.0150337"><ele>209.83333333333334</ele><time>2026-04-25T17:31:22.078Z</time></trkpt><trkpt lat="44.8712627" lon="8.0149527"><ele>210.0</ele><time>2026-04-25T17:31:23.078Z</time></trkpt><trkpt lat="44.8713671" lon="8.0148871"><ele>211.33333333333331</ele><time>2026-04-25T17:31:24.079Z</time></trkpt><trkpt lat="44.8715069" lon="8.0148378"><ele>212.66666666666666</ele><time>2026-04-25T17:31:25.079Z</time></trkpt><trkpt lat="44.8717044" lon="8.0148013"><ele>214.0</ele><time>2026-04-25T17:31:26.078Z</time></trkpt><trkpt lat="44.8718945" lon="8.014798"><ele>214.0</ele><time>2026-04-25T17:31:27.079Z</time></trkpt><trkpt lat="44.872092" lon="8.0147957"><ele>214.0</ele><time>2026-04-25T17:31:28.079Z</time></trkpt><trkpt lat="44.8722794" lon="8.0148224"><ele>214.0</ele><time>2026-04-25T17:31:29.079Z</time></trkpt><trkpt lat="44.8724739" lon="8.0148394"><ele>213.66666666666666</ele><time>2026-04-25T17:31:30.079Z</time></trkpt><trkpt lat="44.8726788" lon="8.0148553"><ele>213.33333333333331</ele><time>2026-04-25T17:31:31.079Z</time></trkpt><trkpt lat="44.8728761" lon="8.0148701"><ele>213.0</ele><time>2026-04-25T17:31:32.079Z</time></trkpt><trkpt lat="44.8730757" lon="8.0148683"><ele>213.0</ele><time>2026-04-25T17:31:33.079Z</time></trkpt><trkpt lat="44.873268" lon="8.0148587"><ele>213.0</ele><time>2026-04-25T17:31:34.079Z</time></trkpt><trkpt lat="44.8734832" lon="8.0148418"><ele>213.0</ele><time>2026-04-25T17:31:35.078Z</time></trkpt><trkpt lat="44.8736722" lon="8.0148035"><ele>213.0</ele><time>2026-04-25T17:31:36.079Z</time></trkpt><trkpt lat="44.8738596" lon="8.0147588"><ele>213.0</ele><time>2026-04-25T17:31:37.078Z</time></trkpt><trkpt lat="44.874071" lon="8.0146731"><ele>213.0</ele><time>2026-04-25T17:31:38.079Z</time></trkpt><trkpt lat="44.8742331" lon="8.0145905"><ele>211.33333333333331</ele><time>2026-04-25T17:31:39.079Z</time></trkpt><trkpt lat="44.8744035" lon="8.0145014"><ele>209.66666666666666</ele><time>2026-04-25T17:31:40.079Z</time></trkpt><trkpt lat="44.8745681" lon="8.0143819"><ele>208.0</ele><time>2026-04-25T17:31:41.079Z</time></trkpt><trkpt lat="44.8747178" lon="8.0142561"><ele>206.66666666666666</ele><time>2026-04-25T17:31:42.079Z</time></trkpt><trkpt lat="44.8748629" lon="8.014093"><ele>205.33333333333331</ele><time>2026-04-25T17:31:43.079Z</time></trkpt><trkpt lat="44.8750072" lon="8.0139147"><ele>204.0</ele><time>2026-04-25T17:31:44.079Z</time></trkpt><trkpt lat="44.8751325" lon="8.0137165"><ele>204.0</ele><time>2026-04-25T17:31:45.078Z</time></trkpt><trkpt lat="44.8752488" lon="8.013486"><ele>204.0</ele><time>2026-04-25T17:31:46.079Z</time></trkpt><trkpt lat="44.8753596" lon="8.0132506"><ele>204.0</ele><time>2026-04-25T17:31:47.078Z</time></trkpt><trkpt lat="44.8754728" lon="8.0130221"><ele>204.66666666666669</ele><time>2026-04-25T17:31:48.079Z</time></trkpt><trkpt lat="44.8755909" lon="8.0127944"><ele>205.33333333333334</ele><time>2026-04-25T17:31:49.079Z</time></trkpt><trkpt lat="44.875698" lon="8.0125469"><ele>206.0</ele><time>2026-04-25T17:31:50.079Z</time></trkpt><trkpt lat="44.8758155" lon="8.0123341"><ele>204.66666666666669</ele><time>2026-04-25T17:31:51.079Z</time></trkpt><trkpt lat="44.8759386" lon="8.0121518"><ele>203.33333333333331</ele><time>2026-04-25T17:31:52.079Z</time></trkpt><trkpt lat="44.8760483" lon="8.011978"><ele>202.0</ele><time>2026-04-25T17:31:53.078Z</time></trkpt><trkpt lat="44.8761706" lon="8.0118135"><ele>202.66666666666666</ele><time>2026-04-25T17:31:54.079Z</time></trkpt><trkpt lat="44.876272" lon="8.0116493"><ele>203.33333333333331</ele><time>2026-04-25T17:31:55.078Z</time></trkpt><trkpt lat="44.8763676" lon="8.011482"><ele>204.0</ele><time>2026-04-25T17:31:56.079Z</time></trkpt><trkpt lat="44.8764473" lon="8.0113093"><ele>204.0</ele><time>2026-04-25T17:31:57.078Z</time></trkpt><trkpt lat="44.8765057" lon="8.0110828"><ele>204.0</ele><time>2026-04-25T17:31:58.079Z</time></trkpt><trkpt lat="44.8764786" lon="8.0108234"><ele>204.0</ele><time>2026-04-25T17:31:59.078Z</time></trkpt><trkpt lat="44.8764829" lon="8.0105637"><ele>205.0</ele><time>2026-04-25T17:32:00.079Z</time></trkpt><trkpt lat="44.8764579" lon="8.0102972"><ele>206.0</ele><time>2026-04-25T17:32:01.078Z</time></trkpt><trkpt lat="44.8764298" lon="8.0100432"><ele>207.0</ele><time>2026-04-25T17:32:02.079Z</time></trkpt><trkpt lat="44.8763999" lon="8.0098022"><ele>207.0</ele><time>2026-04-25T17:32:03.079Z</time></trkpt><trkpt lat="44.876368" lon="8.0095666"><ele>207.0</ele><time>2026-04-25T17:32:04.079Z</time></trkpt><trkpt lat="44.8763397" lon="8.0093555"><ele>207.0</ele><time>2026-04-25T17:32:05.079Z</time></trkpt><trkpt lat="44.8763224" lon="8.0091581"><ele>208.2</ele><time>2026-04-25T17:32:06.079Z</time></trkpt><trkpt lat="44.8762928" lon="8.0089511"><ele>209.39999999999998</ele><time>2026-04-25T17:32:07.079Z</time></trkpt><trkpt lat="44.8762857" lon="8.0088119"><ele>210.60000000000002</ele><time>2026-04-25T17:32:08.079Z</time></trkpt><trkpt lat="44.8762696" lon="8.0086709"><ele>211.8</ele><time>2026-04-25T17:32:09.079Z</time></trkpt><trkpt lat="44.8762586" lon="8.0085629"><ele>213.0</ele><time>2026-04-25T17:32:10.079Z</time></trkpt><trkpt lat="44.8762503" lon="8.0084576"><ele>213.0</ele><time>2026-04-25T17:32:11.079Z</time></trkpt><trkpt lat="44.8762833" lon="8.0083796"><ele>213.0</ele><time>2026-04-25T17:32:12.079Z</time></trkpt><trkpt lat="44.8763422" lon="8.0083315"><ele>213.0</ele><time>2026-04-25T17:32:13.079Z</time></trkpt><trkpt lat="44.8764153" lon="8.0083271"><ele>213.0</ele><time>2026-04-25T17:32:14.078Z</time></trkpt><trkpt lat="44.8765019" lon="8.0083666"><ele>213.0</ele><time>2026-04-25T17:32:15.079Z</time></trkpt><trkpt lat="44.8765921" lon="8.0084458"><ele>213.0</ele><time>2026-04-25T17:32:16.079Z</time></trkpt><trkpt lat="44.8767024" lon="8.0085297"><ele>213.5</ele><time>2026-04-25T17:32:17.078Z</time></trkpt><trkpt lat="44.8768137" lon="8.008638"><ele>214.0</ele><time>2026-04-25T17:32:18.079Z</time></trkpt><trkpt lat="44.8769379" lon="8.0087506"><ele>214.5</ele><time>2026-04-25T17:32:19.078Z</time></trkpt><trkpt lat="44.8770675" lon="8.0088687"><ele>215.0</ele><time>2026-04-25T17:32:20.079Z</time></trkpt><trkpt lat="44.8772005" lon="8.0089885"><ele>215.0</ele><time>2026-04-25T17:32:21.078Z</time></trkpt><trkpt lat="44.8773435" lon="8.0091031"><ele>215.0</ele><time>2026-04-25T17:32:22.079Z</time></trkpt><trkpt lat="44.8774895" lon="8.0092003"><ele>215.0</ele><time>2026-04-25T17:32:23.079Z</time></trkpt><trkpt lat="44.8776505" lon="8.0092636"><ele>212.0</ele><time>2026-04-25T17:32:24.078Z</time></trkpt><trkpt lat="44.8778156" lon="8.0093162"><ele>209.0</ele><time>2026-04-25T17:32:25.079Z</time></trkpt><trkpt lat="44.877968" lon="8.0093395"><ele>206.0</ele><time>2026-04-25T17:32:26.078Z</time></trkpt><trkpt lat="44.8781302" lon="8.0093494"><ele>206.0</ele><time>2026-04-25T17:32:27.078Z</time></trkpt><trkpt lat="44.8783006" lon="8.0093312"><ele>206.0</ele><time>2026-04-25T17:32:28.079Z</time></trkpt><trkpt lat="44.878472" lon="8.0092252"><ele>206.0</ele><time>2026-04-25T17:32:29.079Z</time></trkpt><trkpt lat="44.8786533" lon="8.0091111"><ele>205.0</ele><time>2026-04-25T17:32:30.079Z</time></trkpt><trkpt lat="44.8788136" lon="8.0089622"><ele>204.0</ele><time>2026-04-25T17:32:31.079Z</time></trkpt><trkpt lat="44.878965" lon="8.0087999"><ele>203.0</ele><time>2026-04-25T17:32:32.078Z</time></trkpt><trkpt lat="44.8790919" lon="8.0086393"><ele>203.0</ele><time>2026-04-25T17:32:33.079Z</time></trkpt><trkpt lat="44.8792058" lon="8.0083789"><ele>203.0</ele><time>2026-04-25T17:32:34.079Z</time></trkpt><trkpt lat="44.8793118" lon="8.0081179"><ele>203.0</ele><time>2026-04-25T17:32:35.079Z</time></trkpt><trkpt lat="44.8794068" lon="8.0078785"><ele>202.33333333333334</ele><time>2026-04-25T17:32:36.079Z</time></trkpt><trkpt lat="44.8795335" lon="8.0076407"><ele>201.66666666666669</ele><time>2026-04-25T17:32:37.079Z</time></trkpt><trkpt lat="44.879686" lon="8.0074431"><ele>201.0</ele><time>2026-04-25T17:32:38.079Z</time></trkpt><trkpt lat="44.8798619" lon="8.0073105"><ele>201.33333333333331</ele><time>2026-04-25T17:32:39.079Z</time></trkpt><trkpt lat="44.8800142" lon="8.0071551"><ele>201.66666666666666</ele><time>2026-04-25T17:32:40.079Z</time></trkpt><trkpt lat="44.8802308" lon="8.0070141"><ele>202.0</ele><time>2026-04-25T17:32:41.079Z</time></trkpt><trkpt lat="44.8804551" lon="8.0069092"><ele>202.0</ele><time>2026-04-25T17:32:42.079Z</time></trkpt><trkpt lat="44.880668" lon="8.0068793"><ele>202.0</ele><time>2026-04-25T17:32:43.079Z</time></trkpt><trkpt lat="44.8808946" lon="8.0068229"><ele>202.0</ele><time>2026-04-25T17:32:44.078Z</time></trkpt><trkpt lat="44.8811245" lon="8.0067622"><ele>202.5</ele><time>2026-04-25T17:32:45.078Z</time></trkpt><trkpt lat="44.8813529" lon="8.0067086"><ele>203.0</ele><time>2026-04-25T17:32:46.078Z</time></trkpt><trkpt lat="44.8815796" lon="8.0066505"><ele>209.5</ele><time>2026-04-25T17:32:47.079Z</time></trkpt><trkpt lat="44.8817961" lon="8.0066164"><ele>216.0</ele><time>2026-04-25T17:32:48.079Z</time></trkpt><trkpt lat="44.8820244" lon="8.0065561"><ele>216.0</ele><time>2026-04-25T17:32:49.079Z</time></trkpt><trkpt lat="44.8822552" lon="8.0064931"><ele>216.0</ele><time>2026-04-25T17:32:50.079Z</time></trkpt><trkpt lat="44.8824821" lon="8.0064354"><ele>209.0</ele><time>2026-04-25T17:32:51.078Z</time></trkpt><trkpt lat="44.8827157" lon="8.0063624"><ele>202.0</ele><time>2026-04-25T17:32:52.079Z</time></trkpt><trkpt lat="44.8829371" lon="8.0063135"><ele>202.0</ele><time>2026-04-25T17:32:53.079Z</time></trkpt><trkpt lat="44.8831613" lon="8.006253"><ele>202.0</ele><time>2026-04-25T17:32:54.079Z</time></trkpt><trkpt lat="44.8833943" lon="8.0061918"><ele>201.5</ele><time>2026-04-25T17:32:55.079Z</time></trkpt><trkpt lat="44.8836257" lon="8.0061409"><ele>201.0</ele><time>2026-04-25T17:32:56.079Z</time></trkpt><trkpt lat="44.8838528" lon="8.006087"><ele>201.0</ele><time>2026-04-25T17:32:57.079Z</time></trkpt><trkpt lat="44.8840809" lon="8.0060313"><ele>201.0</ele><time>2026-04-25T17:32:58.079Z</time></trkpt><trkpt lat="44.8843042" lon="8.0059891"><ele>199.5</ele><time>2026-04-25T17:32:59.079Z</time></trkpt><trkpt lat="44.8845339" lon="8.0059259"><ele>198.0</ele><time>2026-04-25T17:33:00.079Z</time></trkpt><trkpt lat="44.8847609" lon="8.0058716"><ele>198.0</ele><time>2026-04-25T17:33:01.079Z</time></trkpt><trkpt lat="44.8849918" lon="8.0058285"><ele>198.0</ele><time>2026-04-25T17:33:02.078Z</time></trkpt><trkpt lat="44.8852207" lon="8.0057571"><ele>200.0</ele><time>2026-04-25T17:33:03.079Z</time></trkpt><trkpt lat="44.8854433" lon="8.005689"><ele>202.0</ele><time>2026-04-25T17:33:04.078Z</time></trkpt><trkpt lat="44.8856724" lon="8.0056265"><ele>202.0</ele><time>2026-04-25T17:33:05.079Z</time></trkpt><trkpt lat="44.8859021" lon="8.0055629"><ele>202.0</ele><time>2026-04-25T17:33:06.079Z</time></trkpt><trkpt lat="44.8861145" lon="8.0055042"><ele>201.0</ele><time>2026-04-25T17:33:07.079Z</time></trkpt><trkpt lat="44.8863451" lon="8.0054468"><ele>200.0</ele><time>2026-04-25T17:33:08.079Z</time></trkpt><trkpt lat="44.8865659" lon="8.005387"><ele>199.0</ele><time>2026-04-25T17:33:09.079Z</time></trkpt><trkpt lat="44.8867977" lon="8.0053266"><ele>198.0</ele><time>2026-04-25T17:33:10.078Z</time></trkpt><trkpt lat="44.8870225" lon="8.0052616"><ele>198.0</ele><time>2026-04-25T17:33:11.078Z</time></trkpt><trkpt lat="44.8872534" lon="8.0051988"><ele>198.0</ele><time>2026-04-25T17:33:12.079Z</time></trkpt><trkpt lat="44.8874482" lon="8.0051792"><ele>198.0</ele><time>2026-04-25T17:33:13.079Z</time></trkpt><trkpt lat="44.8876784" lon="8.0051275"><ele>197.66666666666669</ele><time>2026-04-25T17:33:14.079Z</time></trkpt><trkpt lat="44.887883" lon="8.0050809"><ele>197.33333333333334</ele><time>2026-04-25T17:33:15.078Z</time></trkpt><trkpt lat="44.888099" lon="8.0050362"><ele>197.0</ele><time>2026-04-25T17:33:16.079Z</time></trkpt><trkpt lat="44.8883012" lon="8.0050249"><ele>195.33333333333334</ele><time>2026-04-25T17:33:17.079Z</time></trkpt><trkpt lat="44.8885274" lon="8.0050136"><ele>193.66666666666669</ele><time>2026-04-25T17:33:18.079Z</time></trkpt><trkpt lat="44.8887428" lon="8.0050268"><ele>192.0</ele><time>2026-04-25T17:33:19.079Z</time></trkpt><trkpt lat="44.8889448" lon="8.0050371"><ele>192.0</ele><time>2026-04-25T17:33:20.079Z</time></trkpt><trkpt lat="44.8891876" lon="8.0051057"><ele>192.0</ele><time>2026-04-25T17:33:21.079Z</time></trkpt><trkpt lat="44.8893897" lon="8.0052375"><ele>194.5</ele><time>2026-04-25T17:33:22.079Z</time></trkpt><trkpt lat="44.8895985" lon="8.005349"><ele>197.0</ele><time>2026-04-25T17:33:23.078Z</time></trkpt><trkpt lat="44.8898241" lon="8.0054866"><ele>197.0</ele><time>2026-04-25T17:33:24.079Z</time></trkpt><trkpt lat="44.8900299" lon="8.0056338"><ele>197.0</ele><time>2026-04-25T17:33:25.079Z</time></trkpt><trkpt lat="44.8902271" lon="8.0058045"><ele>195.0</ele><time>2026-04-25T17:33:26.079Z</time></trkpt><trkpt lat="44.8904493" lon="8.0059486"><ele>193.0</ele><time>2026-04-25T17:33:27.079Z</time></trkpt><trkpt lat="44.8906619" lon="8.0061052"><ele>193.0</ele><time>2026-04-25T17:33:28.079Z</time></trkpt><trkpt lat="44.890875" lon="8.0062626"><ele>193.0</ele><time>2026-04-25T17:33:29.079Z</time></trkpt><trkpt lat="44.891093" lon="8.0064239"><ele>190.5</ele><time>2026-04-25T17:33:30.079Z</time></trkpt><trkpt lat="44.8913062" lon="8.006583"><ele>188.0</ele><time>2026-04-25T17:33:31.079Z</time></trkpt><trkpt lat="44.8915184" lon="8.0067506"><ele>188.0</ele><time>2026-04-25T17:33:32.079Z</time></trkpt><trkpt lat="44.8917284" lon="8.0069023"><ele>188.0</ele><time>2026-04-25T17:33:33.079Z</time></trkpt><trkpt lat="44.8919475" lon="8.0070605"><ele>188.0</ele><time>2026-04-25T17:33:34.078Z</time></trkpt><trkpt lat="44.8921484" lon="8.0072293"><ele>188.0</ele><time>2026-04-25T17:33:35.078Z</time></trkpt><trkpt lat="44.8923597" lon="8.0073841"><ele>187.0</ele><time>2026-04-25T17:33:36.079Z</time></trkpt><trkpt lat="44.8925674" lon="8.0075393"><ele>186.0</ele><time>2026-04-25T17:33:37.078Z</time></trkpt><trkpt lat="44.8927788" lon="8.0076964"><ele>188.5</ele><time>2026-04-25T17:33:38.078Z</time></trkpt><trkpt lat="44.8929833" lon="8.007874"><ele>191.0</ele><time>2026-04-25T17:33:39.079Z</time></trkpt><trkpt lat="44.8931845" lon="8.0080444"><ele>191.0</ele><time>2026-04-25T17:33:40.079Z</time></trkpt><trkpt lat="44.8933898" lon="8.0082206"><ele>191.0</ele><time>2026-04-25T17:33:41.079Z</time></trkpt><trkpt lat="44.8935887" lon="8.0083942"><ele>191.0</ele><time>2026-04-25T17:33:42.078Z</time></trkpt><trkpt lat="44.8937937" lon="8.0085673"><ele>191.0</ele><time>2026-04-25T17:33:43.079Z</time></trkpt><trkpt lat="44.8939997" lon="8.0087358"><ele>191.0</ele><time>2026-04-25T17:33:44.078Z</time></trkpt><trkpt lat="44.8942004" lon="8.0089009"><ele>191.0</ele><time>2026-04-25T17:33:45.078Z</time></trkpt><trkpt lat="44.8943918" lon="8.0090738"><ele>190.0</ele><time>2026-04-25T17:33:46.079Z</time></trkpt><trkpt lat="44.8945997" lon="8.0092362"><ele>189.0</ele><time>2026-04-25T17:33:47.078Z</time></trkpt><trkpt lat="44.8948038" lon="8.0094004"><ele>189.0</ele><time>2026-04-25T17:33:48.079Z</time></trkpt><trkpt lat="44.8950032" lon="8.0095735"><ele>189.0</ele><time>2026-04-25T17:33:49.078Z</time></trkpt><trkpt lat="44.8951986" lon="8.0097424"><ele>188.5</ele><time>2026-04-25T17:33:50.079Z</time></trkpt><trkpt lat="44.8953952" lon="8.0099144"><ele>188.0</ele><time>2026-04-25T17:33:51.079Z</time></trkpt><trkpt lat="44.8955959" lon="8.0100795"><ele>184.5</ele><time>2026-04-25T17:33:52.078Z</time></trkpt><trkpt lat="44.8957939" lon="8.010253"><ele>181.0</ele><time>2026-04-25T17:33:53.079Z</time></trkpt><trkpt lat="44.895984" lon="8.010435"><ele>179.0</ele><time>2026-04-25T17:33:54.079Z</time></trkpt><trkpt lat="44.8961823" lon="8.0106187"><ele>177.0</ele><time>2026-04-25T17:33:55.079Z</time></trkpt><trkpt lat="44.8963788" lon="8.0108166"><ele>177.5</ele><time>2026-04-25T17:33:56.079Z</time></trkpt><trkpt lat="44.896569" lon="8.0110445"><ele>178.0</ele><time>2026-04-25T17:33:57.079Z</time></trkpt><trkpt lat="44.8967364" lon="8.0112506"><ele>179.0</ele><time>2026-04-25T17:33:58.079Z</time></trkpt><trkpt lat="44.8968914" lon="8.0114778"><ele>180.0</ele><time>2026-04-25T17:33:59.079Z</time></trkpt><trkpt lat="44.8970519" lon="8.0117119"><ele>180.0</ele><time>2026-04-25T17:34:00.079Z</time></trkpt><trkpt lat="44.8972201" lon="8.0119333"><ele>180.0</ele><time>2026-04-25T17:34:01.078Z</time></trkpt><trkpt lat="44.8973912" lon="8.0121547"><ele>180.0</ele><time>2026-04-25T17:34:02.079Z</time></trkpt><trkpt lat="44.8975447" lon="8.0123794"><ele>180.0</ele><time>2026-04-25T17:34:03.078Z</time></trkpt><trkpt lat="44.8977098" lon="8.0126224"><ele>180.0</ele><time>2026-04-25T17:34:04.079Z</time></trkpt><trkpt lat="44.8978714" lon="8.0128439"><ele>180.0</ele><time>2026-04-25T17:34:05.078Z</time></trkpt><trkpt lat="44.8980266" lon="8.0130768"><ele>180.0</ele><time>2026-04-25T17:34:06.079Z</time></trkpt><trkpt lat="44.8981759" lon="8.0133069"><ele>180.0</ele><time>2026-04-25T17:34:07.079Z</time></trkpt><trkpt lat="44.8983286" lon="8.0135549"><ele>180.0</ele><time>2026-04-25T17:34:08.078Z</time></trkpt><trkpt lat="44.898493" lon="8.0137932"><ele>180.0</ele><time>2026-04-25T17:34:09.079Z</time></trkpt><trkpt lat="44.8986441" lon="8.0140187"><ele>179.66666666666666</ele><time>2026-04-25T17:34:10.079Z</time></trkpt><trkpt lat="44.8988029" lon="8.014244"><ele>179.33333333333331</ele><time>2026-04-25T17:34:11.079Z</time></trkpt><trkpt lat="44.8989578" lon="8.0144682"><ele>179.0</ele><time>2026-04-25T17:34:12.079Z</time></trkpt><trkpt lat="44.8991175" lon="8.014696"><ele>179.0</ele><time>2026-04-25T17:34:13.079Z</time></trkpt><trkpt lat="44.8992718" lon="8.0149097"><ele>179.0</ele><time>2026-04-25T17:34:14.079Z</time></trkpt><trkpt lat="44.8994346" lon="8.0151314"><ele>179.0</ele><time>2026-04-25T17:34:15.079Z</time></trkpt><trkpt lat="44.8995922" lon="8.015362"><ele>179.0</ele><time>2026-04-25T17:34:16.079Z</time></trkpt><trkpt lat="44.8997568" lon="8.0155831"><ele>179.0</ele><time>2026-04-25T17:34:17.079Z</time></trkpt><trkpt lat="44.8999194" lon="8.0158237"><ele>179.33333333333331</ele><time>2026-04-25T17:34:18.079Z</time></trkpt><trkpt lat="44.9000726" lon="8.0160484"><ele>179.66666666666666</ele><time>2026-04-25T17:34:19.079Z</time></trkpt><trkpt lat="44.9002363" lon="8.0162652"><ele>180.0</ele><time>2026-04-25T17:34:20.079Z</time></trkpt><trkpt lat="44.9003967" lon="8.0164868"><ele>180.0</ele><time>2026-04-25T17:34:21.079Z</time></trkpt><trkpt lat="44.9005557" lon="8.0167008"><ele>180.0</ele><time>2026-04-25T17:34:22.079Z</time></trkpt><trkpt lat="44.9007163" lon="8.0169153"><ele>180.0</ele><time>2026-04-25T17:34:23.079Z</time></trkpt><trkpt lat="44.9008795" lon="8.0171307"><ele>179.33333333333334</ele><time>2026-04-25T17:34:24.078Z</time></trkpt><trkpt lat="44.9010313" lon="8.0173355"><ele>178.66666666666669</ele><time>2026-04-25T17:34:25.078Z</time></trkpt><trkpt lat="44.9011839" lon="8.0175401"><ele>178.0</ele><time>2026-04-25T17:34:26.079Z</time></trkpt><trkpt lat="44.9013392" lon="8.017735"><ele>178.0</ele><time>2026-04-25T17:34:27.079Z</time></trkpt><trkpt lat="44.9014671" lon="8.0179246"><ele>178.0</ele><time>2026-04-25T17:34:28.079Z</time></trkpt><trkpt lat="44.9016193" lon="8.0181288"><ele>178.0</ele><time>2026-04-25T17:34:29.079Z</time></trkpt><trkpt lat="44.9017619" lon="8.0183341"><ele>178.0</ele><time>2026-04-25T17:34:30.079Z</time></trkpt><trkpt lat="44.901902" lon="8.0185382"><ele>178.0</ele><time>2026-04-25T17:34:31.078Z</time></trkpt><trkpt lat="44.9020526" lon="8.0187495"><ele>178.0</ele><time>2026-04-25T17:34:32.079Z</time></trkpt><trkpt lat="44.9022007" lon="8.0189602"><ele>177.33333333333334</ele><time>2026-04-25T17:34:33.079Z</time></trkpt><trkpt lat="44.9023461" lon="8.019166"><ele>176.66666666666666</ele><time>2026-04-25T17:34:34.079Z</time></trkpt><trkpt lat="44.9024894" lon="8.0193701"><ele>176.0</ele><time>2026-04-25T17:34:35.079Z</time></trkpt><trkpt lat="44.9026382" lon="8.0195813"><ele>176.33333333333331</ele><time>2026-04-25T17:34:36.079Z</time></trkpt><trkpt lat="44.9027764" lon="8.0197897"><ele>176.66666666666666</ele><time>2026-04-25T17:34:37.079Z</time></trkpt><trkpt lat="44.9029279" lon="8.020003"><ele>177.0</ele><time>2026-04-25T17:34:38.078Z</time></trkpt><trkpt lat="44.9030778" lon="8.0202089"><ele>177.0</ele><time>2026-04-25T17:34:39.079Z</time></trkpt><trkpt lat="44.9032306" lon="8.0204096"><ele>177.0</ele><time>2026-04-25T17:34:40.078Z</time></trkpt><trkpt lat="44.9033848" lon="8.020602"><ele>177.0</ele><time>2026-04-25T17:34:41.079Z</time></trkpt><trkpt lat="44.9035453" lon="8.0207875"><ele>175.33333333333334</ele><time>2026-04-25T17:34:42.079Z</time></trkpt><trkpt lat="44.9037085" lon="8.0209748"><ele>173.66666666666669</ele><time>2026-04-25T17:34:43.079Z</time></trkpt><trkpt lat="44.9038772" lon="8.0211609"><ele>172.0</ele><time>2026-04-25T17:34:44.079Z</time></trkpt><trkpt lat="44.9040398" lon="8.0213534"><ele>172.0</ele><time>2026-04-25T17:34:45.079Z</time></trkpt><trkpt lat="44.904207" lon="8.0215403"><ele>172.0</ele><time>2026-04-25T17:34:46.079Z</time></trkpt><trkpt lat="44.9043727" lon="8.021723"><ele>172.0</ele><time>2026-04-25T17:34:47.079Z</time></trkpt><trkpt lat="44.9045451" lon="8.0219288"><ele>171.0</ele><time>2026-04-25T17:34:48.079Z</time></trkpt><trkpt lat="44.9047114" lon="8.0221367"><ele>170.0</ele><time>2026-04-25T17:34:49.079Z</time></trkpt><trkpt lat="44.9048718" lon="8.0223551"><ele>169.0</ele><time>2026-04-25T17:34:50.078Z</time></trkpt><trkpt lat="44.9050347" lon="8.0225707"><ele>172.66666666666669</ele><time>2026-04-25T17:34:51.079Z</time></trkpt><trkpt lat="44.9051717" lon="8.0227981"><ele>176.33333333333334</ele><time>2026-04-25T17:34:52.079Z</time></trkpt><trkpt lat="44.9053088" lon="8.0230169"><ele>180.0</ele><time>2026-04-25T17:34:53.079Z</time></trkpt><trkpt lat="44.9054471" lon="8.0232404"><ele>178.33333333333334</ele><time>2026-04-25T17:34:54.079Z</time></trkpt><trkpt lat="44.905583" lon="8.0234682"><ele>176.66666666666669</ele><time>2026-04-25T17:34:55.078Z</time></trkpt><trkpt lat="44.9057208" lon="8.0236955"><ele>175.0</ele><time>2026-04-25T17:34:56.079Z</time></trkpt><trkpt lat="44.905867" lon="8.0239152"><ele>175.66666666666669</ele><time>2026-04-25T17:34:57.079Z</time></trkpt><trkpt lat="44.9059908" lon="8.0241269"><ele>176.33333333333334</ele><time>2026-04-25T17:34:58.079Z</time></trkpt><trkpt lat="44.9061242" lon="8.0243284"><ele>177.0</ele><time>2026-04-25T17:34:59.078Z</time></trkpt><trkpt lat="44.9062488" lon="8.0245364"><ele>177.0</ele><time>2026-04-25T17:35:00.079Z</time></trkpt><trkpt lat="44.9063732" lon="8.0247486"><ele>177.0</ele><time>2026-04-25T17:35:01.078Z</time></trkpt><trkpt lat="44.9064915" lon="8.0249602"><ele>177.0</ele><time>2026-04-25T17:35:02.079Z</time></trkpt><trkpt lat="44.9066162" lon="8.0251699"><ele>175.66666666666666</ele><time>2026-04-25T17:35:03.079Z</time></trkpt><trkpt lat="44.9067397" lon="8.0253791"><ele>174.33333333333331</ele><time>2026-04-25T17:35:04.079Z</time></trkpt><trkpt lat="44.9068596" lon="8.02559"><ele>173.0</ele><time>2026-04-25T17:35:05.078Z</time></trkpt><trkpt lat="44.906988" lon="8.0257964"><ele>172.33333333333331</ele><time>2026-04-25T17:35:06.079Z</time></trkpt><trkpt lat="44.9071127" lon="8.0260066"><ele>171.66666666666666</ele><time>2026-04-25T17:35:07.079Z</time></trkpt><trkpt lat="44.9072382" lon="8.0262176"><ele>171.0</ele><time>2026-04-25T17:35:08.079Z</time></trkpt><trkpt lat="44.9073661" lon="8.0264234"><ele>171.0</ele><time>2026-04-25T17:35:09.078Z</time></trkpt><trkpt lat="44.9074955" lon="8.0266393"><ele>171.0</ele><time>2026-04-25T17:35:10.078Z</time></trkpt><trkpt lat="44.9076155" lon="8.0268621"><ele>171.0</ele><time>2026-04-25T17:35:11.078Z</time></trkpt><trkpt lat="44.907753" lon="8.0270765"><ele>170.66666666666666</ele><time>2026-04-25T17:35:12.078Z</time></trkpt><trkpt lat="44.9078908" lon="8.0272902"><ele>170.33333333333331</ele><time>2026-04-25T17:35:13.079Z</time></trkpt><trkpt lat="44.9080298" lon="8.0274997"><ele>170.0</ele><time>2026-04-25T17:35:14.079Z</time></trkpt><trkpt lat="44.9081622" lon="8.0277232"><ele>170.0</ele><time>2026-04-25T17:35:15.079Z</time></trkpt><trkpt lat="44.9082901" lon="8.027945"><ele>170.0</ele><time>2026-04-25T17:35:16.079Z</time></trkpt><trkpt lat="44.90842" lon="8.0281751"><ele>170.0</ele><time>2026-04-25T17:35:17.079Z</time></trkpt><trkpt lat="44.9085527" lon="8.0284011"><ele>168.66666666666666</ele><time>2026-04-25T17:35:18.078Z</time></trkpt><trkpt lat="44.9086898" lon="8.028623"><ele>167.33333333333334</ele><time>2026-04-25T17:35:19.079Z</time></trkpt><trkpt lat="44.9088263" lon="8.0288504"><ele>166.0</ele><time>2026-04-25T17:35:20.079Z</time></trkpt><trkpt lat="44.9089595" lon="8.0290748"><ele>166.0</ele><time>2026-04-25T17:35:21.079Z</time></trkpt><trkpt lat="44.9090845" lon="8.0292834"><ele>166.0</ele><time>2026-04-25T17:35:22.079Z</time></trkpt><trkpt lat="44.9092245" lon="8.029506"><ele>166.0</ele><time>2026-04-25T17:35:23.079Z</time></trkpt><trkpt lat="44.9093596" lon="8.0297241"><ele>167.0</ele><time>2026-04-25T17:35:24.079Z</time></trkpt><trkpt lat="44.9094881" lon="8.0299526"><ele>168.0</ele><time>2026-04-25T17:35:25.078Z</time></trkpt><trkpt lat="44.9096114" lon="8.0301662"><ele>169.0</ele><time>2026-04-25T17:35:26.079Z</time></trkpt><trkpt lat="44.9097384" lon="8.0303652"><ele>169.0</ele><time>2026-04-25T17:35:27.079Z</time></trkpt><trkpt lat="44.9098606" lon="8.0305601"><ele>169.0</ele><time>2026-04-25T17:35:28.079Z</time></trkpt><trkpt lat="44.9099753" lon="8.0307458"><ele>169.0</ele><time>2026-04-25T17:35:29.078Z</time></trkpt><trkpt lat="44.9100769" lon="8.0309484"><ele>168.5</ele><time>2026-04-25T17:35:30.079Z</time></trkpt><trkpt lat="44.9101649" lon="8.0311195"><ele>168.0</ele><time>2026-04-25T17:35:31.079Z</time></trkpt><trkpt lat="44.9102453" lon="8.0312745"><ele>167.5</ele><time>2026-04-25T17:35:32.079Z</time></trkpt><trkpt lat="44.9103373" lon="8.0314062"><ele>167.0</ele><time>2026-04-25T17:35:33.079Z</time></trkpt><trkpt lat="44.9104206" lon="8.0315479"><ele>167.0</ele><time>2026-04-25T17:35:34.078Z</time></trkpt><trkpt lat="44.9105021" lon="8.0316819"><ele>167.0</ele><time>2026-04-25T17:35:35.079Z</time></trkpt><trkpt lat="44.9105795" lon="8.0318273"><ele>167.0</ele><time>2026-04-25T17:35:36.079Z</time></trkpt><trkpt lat="44.9106282" lon="8.0319222"><ele>167.0</ele><time>2026-04-25T17:35:37.079Z</time></trkpt><trkpt lat="44.9106662" lon="8.0320009"><ele>167.0</ele><time>2026-04-25T17:35:38.079Z</time></trkpt><trkpt lat="44.9107407" lon="8.0321077"><ele>167.0</ele><time>2026-04-25T17:35:39.079Z</time></trkpt><trkpt lat="44.9108002" lon="8.0322189"><ele>167.0</ele><time>2026-04-25T17:35:40.079Z</time></trkpt><trkpt lat="44.9108676" lon="8.0323182"><ele>167.0</ele><time>2026-04-25T17:35:41.078Z</time></trkpt><trkpt lat="44.9109482" lon="8.0324582"><ele>167.0</ele><time>2026-04-25T17:35:42.078Z</time></trkpt><trkpt lat="44.9110527" lon="8.0326143"><ele>167.33333333333331</ele><time>2026-04-25T17:35:43.078Z</time></trkpt><trkpt lat="44.9111365" lon="8.0327817"><ele>167.66666666666666</ele><time>2026-04-25T17:35:44.079Z</time></trkpt><trkpt lat="44.9112228" lon="8.032948"><ele>168.0</ele><time>2026-04-25T17:35:45.079Z</time></trkpt><trkpt lat="44.9113478" lon="8.0331229"><ele>168.0</ele><time>2026-04-25T17:35:46.079Z</time></trkpt><trkpt lat="44.9114539" lon="8.0332808"><ele>168.0</ele><time>2026-04-25T17:35:47.079Z</time></trkpt><trkpt lat="44.9115404" lon="8.0334588"><ele>168.0</ele><time>2026-04-25T17:35:48.078Z</time></trkpt><trkpt lat="44.9116516" lon="8.0336344"><ele>168.66666666666666</ele><time>2026-04-25T17:35:49.079Z</time></trkpt><trkpt lat="44.9117498" lon="8.0338017"><ele>169.33333333333331</ele><time>2026-04-25T17:35:50.078Z</time></trkpt><trkpt lat="44.9118554" lon="8.0339832"><ele>170.0</ele><time>2026-04-25T17:35:51.078Z</time></trkpt><trkpt lat="44.9119369" lon="8.0341383"><ele>170.0</ele><time>2026-04-25T17:35:52.079Z</time></trkpt><trkpt lat="44.912027" lon="8.0342912"><ele>170.0</ele><time>2026-04-25T17:35:53.079Z</time></trkpt><trkpt lat="44.9121164" lon="8.0344209"><ele>170.0</ele><time>2026-04-25T17:35:54.079Z</time></trkpt><trkpt lat="44.9121909" lon="8.0345613"><ele>170.0</ele><time>2026-04-25T17:35:55.078Z</time></trkpt><trkpt lat="44.9122588" lon="8.0346782"><ele>170.0</ele><time>2026-04-25T17:35:56.079Z</time></trkpt><trkpt lat="44.9123263" lon="8.0347915"><ele>170.0</ele><time>2026-04-25T17:35:57.079Z</time></trkpt><trkpt lat="44.9124074" lon="8.0348934"><ele>170.0</ele><time>2026-04-25T17:35:58.078Z</time></trkpt><trkpt lat="44.9124808" lon="8.0349935"><ele>170.0</ele><time>2026-04-25T17:35:59.079Z</time></trkpt><trkpt lat="44.9125478" lon="8.0350878"><ele>170.0</ele><time>2026-04-25T17:36:00.079Z</time></trkpt><trkpt lat="44.912628" lon="8.035174"><ele>170.8</ele><time>2026-04-25T17:36:01.079Z</time></trkpt><trkpt lat="44.9126965" lon="8.0352396"><ele>171.6</ele><time>2026-04-25T17:36:02.079Z</time></trkpt><trkpt lat="44.9127707" lon="8.0352927"><ele>172.39999999999998</ele><time>2026-04-25T17:36:03.079Z</time></trkpt><trkpt lat="44.9128692" lon="8.0353397"><ele>173.2</ele><time>2026-04-25T17:36:05.079Z</time></trkpt><trkpt lat="44.9129638" lon="8.0353772"><ele>174.0</ele><time>2026-04-25T17:36:07.079Z</time></trkpt><trkpt lat="44.9130509" lon="8.0354872"><ele>174.0</ele><time>2026-04-25T17:36:08.079Z</time></trkpt><trkpt lat="44.9131206" lon="8.0355946"><ele>174.0</ele><time>2026-04-25T17:36:09.079Z</time></trkpt><trkpt lat="44.913181" lon="8.0357105"><ele>174.0</ele><time>2026-04-25T17:36:10.079Z</time></trkpt><trkpt lat="44.913222" lon="8.035827"><ele>174.0</ele><time>2026-04-25T17:36:11.078Z</time></trkpt><trkpt lat="44.9133184" lon="8.0359578"><ele>174.0</ele><time>2026-04-25T17:36:12.078Z</time></trkpt><trkpt lat="44.913407" lon="8.0360624"><ele>171.79999999999998</ele><time>2026-04-25T17:36:13.079Z</time></trkpt><trkpt lat="44.9134871" lon="8.0361542"><ele>169.6</ele><time>2026-04-25T17:36:14.079Z</time></trkpt><trkpt lat="44.9135612" lon="8.0362345"><ele>167.4</ele><time>2026-04-25T17:36:15.079Z</time></trkpt><trkpt lat="44.9136326" lon="8.0363016"><ele>165.2</ele><time>2026-04-25T17:36:16.079Z</time></trkpt><trkpt lat="44.9137237" lon="8.0363655"><ele>163.0</ele><time>2026-04-25T17:36:17.079Z</time></trkpt><trkpt lat="44.9138569" lon="8.0363192"><ele>163.0</ele><time>2026-04-25T17:36:19.079Z</time></trkpt><trkpt lat="44.9139307" lon="8.0361712"><ele>163.0</ele><time>2026-04-25T17:36:20.079Z</time></trkpt><trkpt lat="44.914012" lon="8.0360752"><ele>163.0</ele><time>2026-04-25T17:36:21.079Z</time></trkpt><trkpt lat="44.9140467" lon="8.0359613"><ele>163.0</ele><time>2026-04-25T17:36:22.079Z</time></trkpt><trkpt lat="44.9140917" lon="8.0358696"><ele>163.0</ele><time>2026-04-25T17:36:23.078Z</time></trkpt><trkpt lat="44.9141451" lon="8.0357619"><ele>162.83333333333334</ele><time>2026-04-25T17:36:24.079Z</time></trkpt><trkpt lat="44.9141713" lon="8.0356793"><ele>162.66666666666669</ele><time>2026-04-25T17:36:25.078Z</time></trkpt><trkpt lat="44.9142256" lon="8.0356034"><ele>162.5</ele><time>2026-04-25T17:36:26.078Z</time></trkpt><trkpt lat="44.9142892" lon="8.0355636"><ele>162.33333333333334</ele><time>2026-04-25T17:36:27.079Z</time></trkpt><trkpt lat="44.9143801" lon="8.0355445"><ele>162.16666666666666</ele><time>2026-04-25T17:36:29.078Z</time></trkpt><trkpt lat="44.9144647" lon="8.0355951"><ele>162.0</ele><time>2026-04-25T17:36:46.079Z</time></trkpt><trkpt lat="44.9145353" lon="8.0355719"><ele>162.0</ele><time>2026-04-25T17:36:48.079Z</time></trkpt><trkpt lat="44.9145883" lon="8.0355017"><ele>162.0</ele><time>2026-04-25T17:36:49.078Z</time></trkpt><trkpt lat="44.9146394" lon="8.0354255"><ele>162.0</ele><time>2026-04-25T17:36:50.079Z</time></trkpt><trkpt lat="44.9147231" lon="8.0352909"><ele>162.0</ele><time>2026-04-25T17:36:51.079Z</time></trkpt><trkpt lat="44.9147882" lon="8.035147"><ele>162.0</ele><time>2026-04-25T17:36:52.079Z</time></trkpt><trkpt lat="44.9148668" lon="8.0349996"><ele>162.25</ele><time>2026-04-25T17:36:53.079Z</time></trkpt><trkpt lat="44.9149452" lon="8.0348463"><ele>162.5</ele><time>2026-04-25T17:36:54.078Z</time></trkpt><trkpt lat="44.915011" lon="8.0346958"><ele>162.75</ele><time>2026-04-25T17:36:55.079Z</time></trkpt><trkpt lat="44.9151004" lon="8.0345003"><ele>163.0</ele><time>2026-04-25T17:36:56.078Z</time></trkpt><trkpt lat="44.9151848" lon="8.0343172"><ele>163.0</ele><time>2026-04-25T17:36:57.079Z</time></trkpt><trkpt lat="44.9152739" lon="8.0341369"><ele>163.0</ele><time>2026-04-25T17:36:58.079Z</time></trkpt><trkpt lat="44.91537" lon="8.0339508"><ele>163.0</ele><time>2026-04-25T17:36:59.079Z</time></trkpt><trkpt lat="44.9154639" lon="8.033761"><ele>163.0</ele><time>2026-04-25T17:37:00.078Z</time></trkpt><trkpt lat="44.9155452" lon="8.0335757"><ele>163.0</ele><time>2026-04-25T17:37:01.079Z</time></trkpt><trkpt lat="44.915633" lon="8.0333735"><ele>163.0</ele><time>2026-04-25T17:37:02.079Z</time></trkpt><trkpt lat="44.9157176" lon="8.033228"><ele>163.0</ele><time>2026-04-25T17:37:03.078Z</time></trkpt><trkpt lat="44.9157788" lon="8.033075"><ele>163.0</ele><time>2026-04-25T17:37:04.078Z</time></trkpt><trkpt lat="44.9158406" lon="8.032924"><ele>163.0</ele><time>2026-04-25T17:37:05.078Z</time></trkpt><trkpt lat="44.9159065" lon="8.0328394"><ele>163.0</ele><time>2026-04-25T17:37:06.078Z</time></trkpt><trkpt lat="44.9159701" lon="8.0327481"><ele>163.0</ele><time>2026-04-25T17:37:07.078Z</time></trkpt><trkpt lat="44.9160304" lon="8.0326778"><ele>163.0</ele><time>2026-04-25T17:37:08.079Z</time></trkpt><trkpt lat="44.9161005" lon="8.0326283"><ele>163.0</ele><time>2026-04-25T17:37:09.079Z</time></trkpt><trkpt lat="44.9161821" lon="8.0325813"><ele>163.0</ele><time>2026-04-25T17:37:10.079Z</time></trkpt><trkpt lat="44.9162671" lon="8.0325364"><ele>163.0</ele><time>2026-04-25T17:37:11.079Z</time></trkpt><trkpt lat="44.9163318" lon="8.0325339"><ele>163.0</ele><time>2026-04-25T17:37:12.079Z</time></trkpt><trkpt lat="44.9163904" lon="8.0325752"><ele>163.0</ele><time>2026-04-25T17:37:13.078Z</time></trkpt><trkpt lat="44.9164525" lon="8.0326386"><ele>163.0</ele><time>2026-04-25T17:37:14.079Z</time></trkpt><trkpt lat="44.9165098" lon="8.0327212"><ele>163.0</ele><time>2026-04-25T17:37:15.079Z</time></trkpt><trkpt lat="44.9165399" lon="8.0328343"><ele>163.0</ele><time>2026-04-25T17:37:16.079Z</time></trkpt><trkpt lat="44.9165471" lon="8.032965"><ele>163.0</ele><time>2026-04-25T17:37:17.079Z</time></trkpt><trkpt lat="44.9165198" lon="8.0330773"><ele>163.0</ele><time>2026-04-25T17:37:18.079Z</time></trkpt><trkpt lat="44.9164652" lon="8.0331835"><ele>163.0</ele><time>2026-04-25T17:37:19.079Z</time></trkpt><trkpt lat="44.9164063" lon="8.0332697"><ele>162.8</ele><time>2026-04-25T17:37:20.078Z</time></trkpt><trkpt lat="44.9163251" lon="8.0333397"><ele>162.60000000000002</ele><time>2026-04-25T17:37:21.079Z</time></trkpt><trkpt lat="44.9162192" lon="8.033397"><ele>162.39999999999998</ele><time>2026-04-25T17:37:22.079Z</time></trkpt><trkpt lat="44.9161124" lon="8.0334715"><ele>162.2</ele><time>2026-04-25T17:37:23.078Z</time></trkpt><trkpt lat="44.9160321" lon="8.0335575"><ele>162.0</ele><time>2026-04-25T17:37:24.079Z</time></trkpt><trkpt lat="44.9159395" lon="8.0336753"><ele>162.25</ele><time>2026-04-25T17:37:25.079Z</time></trkpt><trkpt lat="44.9158494" lon="8.0338017"><ele>162.5</ele><time>2026-04-25T17:37:26.079Z</time></trkpt><trkpt lat="44.9157948" lon="8.0339367"><ele>162.75</ele><time>2026-04-25T17:37:27.079Z</time></trkpt><trkpt lat="44.9157276" lon="8.0340725"><ele>163.0</ele><time>2026-04-25T17:37:28.079Z</time></trkpt><trkpt lat="44.9156681" lon="8.0342362"><ele>162.60000000000002</ele><time>2026-04-25T17:37:29.078Z</time></trkpt><trkpt lat="44.9156081" lon="8.0343604"><ele>162.20000000000002</ele><time>2026-04-25T17:37:30.079Z</time></trkpt><trkpt lat="44.9155591" lon="8.0344915"><ele>161.8</ele><time>2026-04-25T17:37:31.079Z</time></trkpt><trkpt lat="44.915529" lon="8.0346319"><ele>161.4</ele><time>2026-04-25T17:37:32.079Z</time></trkpt><trkpt lat="44.9155176" lon="8.0347772"><ele>161.0</ele><time>2026-04-25T17:37:33.079Z</time></trkpt><trkpt lat="44.9155128" lon="8.0349245"><ele>161.0</ele><time>2026-04-25T17:37:34.079Z</time></trkpt><trkpt lat="44.9155376" lon="8.0350618"><ele>161.0</ele><time>2026-04-25T17:37:35.079Z</time></trkpt><trkpt lat="44.9156234" lon="8.0351688"><ele>161.0</ele><time>2026-04-25T17:37:36.078Z</time></trkpt><trkpt lat="44.9156776" lon="8.035297"><ele>161.0</ele><time>2026-04-25T17:37:37.079Z</time></trkpt><trkpt lat="44.9157481" lon="8.0353774"><ele>161.0</ele><time>2026-04-25T17:37:38.079Z</time></trkpt><trkpt lat="44.9158796" lon="8.035464"><ele>160.5</ele><time>2026-04-25T17:37:39.079Z</time></trkpt><trkpt lat="44.9159912" lon="8.0355633"><ele>160.0</ele><time>2026-04-25T17:37:40.079Z</time></trkpt><trkpt lat="44.9161021" lon="8.0356534"><ele>159.5</ele><time>2026-04-25T17:37:41.079Z</time></trkpt><trkpt lat="44.9162359" lon="8.0357231"><ele>159.0</ele><time>2026-04-25T17:37:42.078Z</time></trkpt><trkpt lat="44.9163623" lon="8.0358059"><ele>159.0</ele><time>2026-04-25T17:37:43.079Z</time></trkpt><trkpt lat="44.9165627" lon="8.0358663"><ele>159.0</ele><time>2026-04-25T17:37:44.078Z</time></trkpt><trkpt lat="44.9167575" lon="8.0359178"><ele>159.0</ele><time>2026-04-25T17:37:45.078Z</time></trkpt><trkpt lat="44.9169619" lon="8.0359797"><ele>159.0</ele><time>2026-04-25T17:37:46.079Z</time></trkpt><trkpt lat="44.9171732" lon="8.0360601"><ele>159.0</ele><time>2026-04-25T17:37:47.079Z</time></trkpt><trkpt lat="44.9173759" lon="8.0361518"><ele>159.0</ele><time>2026-04-25T17:37:48.079Z</time></trkpt><trkpt lat="44.9176138" lon="8.0361996"><ele>157.5</ele><time>2026-04-25T17:37:49.078Z</time></trkpt><trkpt lat="44.9178428" lon="8.0362708"><ele>156.0</ele><time>2026-04-25T17:37:50.079Z</time></trkpt><trkpt lat="44.9180586" lon="8.0363417"><ele>156.0</ele><time>2026-04-25T17:37:51.079Z</time></trkpt><trkpt lat="44.9182896" lon="8.036418"><ele>156.0</ele><time>2026-04-25T17:37:52.079Z</time></trkpt><trkpt lat="44.9185143" lon="8.0364887"><ele>156.0</ele><time>2026-04-25T17:37:53.079Z</time></trkpt><trkpt lat="44.9187589" lon="8.0365359"><ele>156.0</ele><time>2026-04-25T17:37:54.079Z</time></trkpt><trkpt lat="44.9189639" lon="8.0365901"><ele>156.33333333333334</ele><time>2026-04-25T17:37:55.078Z</time></trkpt><trkpt lat="44.9191755" lon="8.0366377"><ele>156.66666666666669</ele><time>2026-04-25T17:37:56.079Z</time></trkpt><trkpt lat="44.919375" lon="8.0366885"><ele>157.0</ele><time>2026-04-25T17:37:57.079Z</time></trkpt><trkpt lat="44.9195769" lon="8.0367289"><ele>157.0</ele><time>2026-04-25T17:37:58.079Z</time></trkpt><trkpt lat="44.9197544" lon="8.0367771"><ele>157.0</ele><time>2026-04-25T17:37:59.079Z</time></trkpt><trkpt lat="44.9199471" lon="8.0368285"><ele>157.0</ele><time>2026-04-25T17:38:00.079Z</time></trkpt><trkpt lat="44.9201301" lon="8.0368664"><ele>157.0</ele><time>2026-04-25T17:38:01.079Z</time></trkpt><trkpt lat="44.9203017" lon="8.036919"><ele>157.0</ele><time>2026-04-25T17:38:02.079Z</time></trkpt><trkpt lat="44.9204709" lon="8.0369624"><ele>157.0</ele><time>2026-04-25T17:38:03.079Z</time></trkpt><trkpt lat="44.9206316" lon="8.0370022"><ele>157.0</ele><time>2026-04-25T17:38:04.079Z</time></trkpt><trkpt lat="44.9207808" lon="8.0370207"><ele>157.0</ele><time>2026-04-25T17:38:05.079Z</time></trkpt><trkpt lat="44.920935" lon="8.0370355"><ele>157.0</ele><time>2026-04-25T17:38:06.079Z</time></trkpt><trkpt lat="44.921086" lon="8.03702"><ele>157.66666666666669</ele><time>2026-04-25T17:38:07.079Z</time></trkpt><trkpt lat="44.9211893" lon="8.0369297"><ele>158.33333333333334</ele><time>2026-04-25T17:38:08.079Z</time></trkpt><trkpt lat="44.9213311" lon="8.0368049"><ele>159.0</ele><time>2026-04-25T17:38:09.078Z</time></trkpt><trkpt lat="44.9214892" lon="8.0366115"><ele>159.0</ele><time>2026-04-25T17:38:10.078Z</time></trkpt><trkpt lat="44.9216298" lon="8.0364655"><ele>159.0</ele><time>2026-04-25T17:38:11.079Z</time></trkpt><trkpt lat="44.921776" lon="8.0362567"><ele>159.0</ele><time>2026-04-25T17:38:12.079Z</time></trkpt><trkpt lat="44.9219246" lon="8.0360699"><ele>160.66666666666666</ele><time>2026-04-25T17:38:13.078Z</time></trkpt><trkpt lat="44.9220729" lon="8.0358657"><ele>162.33333333333331</ele><time>2026-04-25T17:38:14.078Z</time></trkpt><trkpt lat="44.9222349" lon="8.0356703"><ele>164.0</ele><time>2026-04-25T17:38:15.079Z</time></trkpt><trkpt lat="44.9223917" lon="8.0354739"><ele>164.0</ele><time>2026-04-25T17:38:16.079Z</time></trkpt><trkpt lat="44.9225331" lon="8.0352742"><ele>164.0</ele><time>2026-04-25T17:38:17.079Z</time></trkpt><trkpt lat="44.9226777" lon="8.0350842"><ele>164.0</ele><time>2026-04-25T17:38:18.079Z</time></trkpt><trkpt lat="44.9228375" lon="8.0348712"><ele>162.66666666666666</ele><time>2026-04-25T17:38:19.079Z</time></trkpt><trkpt lat="44.9229884" lon="8.0346655"><ele>161.33333333333334</ele><time>2026-04-25T17:38:20.079Z</time></trkpt><trkpt lat="44.9231413" lon="8.0344673"><ele>160.0</ele><time>2026-04-25T17:38:21.079Z</time></trkpt><trkpt lat="44.9232872" lon="8.0342642"><ele>160.66666666666669</ele><time>2026-04-25T17:38:22.079Z</time></trkpt><trkpt lat="44.9234342" lon="8.0340681"><ele>161.33333333333334</ele><time>2026-04-25T17:38:23.079Z</time></trkpt><trkpt lat="44.92358" lon="8.0338825"><ele>162.0</ele><time>2026-04-25T17:38:24.078Z</time></trkpt><trkpt lat="44.9237442" lon="8.0337103"><ele>162.0</ele><time>2026-04-25T17:38:25.079Z</time></trkpt><trkpt lat="44.9239117" lon="8.03354"><ele>162.0</ele><time>2026-04-25T17:38:26.079Z</time></trkpt><trkpt lat="44.9240981" lon="8.0334439"><ele>162.0</ele><time>2026-04-25T17:38:27.079Z</time></trkpt><trkpt lat="44.9242953" lon="8.0333448"><ele>162.33333333333334</ele><time>2026-04-25T17:38:28.079Z</time></trkpt><trkpt lat="44.9244932" lon="8.0332494"><ele>162.66666666666669</ele><time>2026-04-25T17:38:29.078Z</time></trkpt><trkpt lat="44.9246905" lon="8.033151"><ele>163.0</ele><time>2026-04-25T17:38:30.078Z</time></trkpt><trkpt lat="44.9248918" lon="8.0330461"><ele>165.5</ele><time>2026-04-25T17:38:31.079Z</time></trkpt><trkpt lat="44.9250976" lon="8.0329291"><ele>168.0</ele><time>2026-04-25T17:38:32.078Z</time></trkpt><trkpt lat="44.9253158" lon="8.0328113"><ele>168.0</ele><time>2026-04-25T17:38:33.079Z</time></trkpt><trkpt lat="44.9255339" lon="8.0327049"><ele>168.0</ele><time>2026-04-25T17:38:34.078Z</time></trkpt><trkpt lat="44.9257447" lon="8.0325946"><ele>169.0</ele><time>2026-04-25T17:38:35.079Z</time></trkpt><trkpt lat="44.9259658" lon="8.0324785"><ele>170.0</ele><time>2026-04-25T17:38:36.079Z</time></trkpt><trkpt lat="44.9261703" lon="8.0323479"><ele>167.66666666666666</ele><time>2026-04-25T17:38:37.079Z</time></trkpt><trkpt lat="44.9263705" lon="8.0322378"><ele>165.33333333333334</ele><time>2026-04-25T17:38:38.078Z</time></trkpt><trkpt lat="44.926507" lon="8.0321523"><ele>163.0</ele><time>2026-04-25T17:38:39.079Z</time></trkpt><trkpt lat="44.9266992" lon="8.0319967"><ele>163.66666666666669</ele><time>2026-04-25T17:38:40.079Z</time></trkpt><trkpt lat="44.9268648" lon="8.0318395"><ele>164.33333333333334</ele><time>2026-04-25T17:38:41.078Z</time></trkpt><trkpt lat="44.9270371" lon="8.0316695"><ele>165.0</ele><time>2026-04-25T17:38:42.079Z</time></trkpt><trkpt lat="44.9272232" lon="8.031495"><ele>164.0</ele><time>2026-04-25T17:38:43.078Z</time></trkpt><trkpt lat="44.927391" lon="8.0313233"><ele>163.0</ele><time>2026-04-25T17:38:44.079Z</time></trkpt><trkpt lat="44.927563" lon="8.0311443"><ele>162.0</ele><time>2026-04-25T17:38:45.079Z</time></trkpt><trkpt lat="44.9277162" lon="8.030967"><ele>161.33333333333334</ele><time>2026-04-25T17:38:46.079Z</time></trkpt><trkpt lat="44.9278996" lon="8.0307738"><ele>160.66666666666669</ele><time>2026-04-25T17:38:47.078Z</time></trkpt><trkpt lat="44.9280722" lon="8.0305872"><ele>160.0</ele><time>2026-04-25T17:38:48.079Z</time></trkpt><trkpt lat="44.9282365" lon="8.0304116"><ele>159.5</ele><time>2026-04-25T17:38:49.078Z</time></trkpt><trkpt lat="44.9284344" lon="8.0301878"><ele>159.0</ele><time>2026-04-25T17:38:50.079Z</time></trkpt><trkpt lat="44.928593" lon="8.0300109"><ele>158.66666666666666</ele><time>2026-04-25T17:38:51.079Z</time></trkpt><trkpt lat="44.9287574" lon="8.029817"><ele>158.33333333333331</ele><time>2026-04-25T17:38:52.079Z</time></trkpt><trkpt lat="44.9289383" lon="8.0296234"><ele>158.0</ele><time>2026-04-25T17:38:53.078Z</time></trkpt><trkpt lat="44.9291068" lon="8.0294259"><ele>158.66666666666666</ele><time>2026-04-25T17:38:54.078Z</time></trkpt><trkpt lat="44.9292834" lon="8.0292262"><ele>159.33333333333334</ele><time>2026-04-25T17:38:55.079Z</time></trkpt><trkpt lat="44.9294489" lon="8.0290298"><ele>160.0</ele><time>2026-04-25T17:38:56.079Z</time></trkpt><trkpt lat="44.9296144" lon="8.028829"><ele>160.0</ele><time>2026-04-25T17:38:57.078Z</time></trkpt><trkpt lat="44.9297895" lon="8.0286351"><ele>160.0</ele><time>2026-04-25T17:38:58.078Z</time></trkpt><trkpt lat="44.929961" lon="8.0284336"><ele>160.0</ele><time>2026-04-25T17:38:59.078Z</time></trkpt><trkpt lat="44.930146" lon="8.0282505"><ele>161.0</ele><time>2026-04-25T17:39:00.079Z</time></trkpt><trkpt lat="44.9303355" lon="8.0280765"><ele>162.0</ele><time>2026-04-25T17:39:01.078Z</time></trkpt><trkpt lat="44.9305255" lon="8.0279254"><ele>163.0</ele><time>2026-04-25T17:39:02.078Z</time></trkpt><trkpt lat="44.9307226" lon="8.0277931"><ele>163.33333333333334</ele><time>2026-04-25T17:39:03.079Z</time></trkpt><trkpt lat="44.930921" lon="8.0276497"><ele>163.66666666666666</ele><time>2026-04-25T17:39:04.079Z</time></trkpt><trkpt lat="44.9311064" lon="8.0274976"><ele>164.0</ele><time>2026-04-25T17:39:05.079Z</time></trkpt><trkpt lat="44.9313017" lon="8.0273412"><ele>164.0</ele><time>2026-04-25T17:39:06.079Z</time></trkpt><trkpt lat="44.9315194" lon="8.0272194"><ele>164.0</ele><time>2026-04-25T17:39:07.078Z</time></trkpt><trkpt lat="44.931713" lon="8.0270845"><ele>165.0</ele><time>2026-04-25T17:39:08.078Z</time></trkpt><trkpt lat="44.9319109" lon="8.026948"><ele>166.0</ele><time>2026-04-25T17:39:09.078Z</time></trkpt><trkpt lat="44.9320883" lon="8.0268107"><ele>167.0</ele><time>2026-04-25T17:39:10.079Z</time></trkpt><trkpt lat="44.9322774" lon="8.0266752"><ele>167.33333333333331</ele><time>2026-04-25T17:39:11.079Z</time></trkpt><trkpt lat="44.9324828" lon="8.0265478"><ele>167.66666666666666</ele><time>2026-04-25T17:39:12.079Z</time></trkpt><trkpt lat="44.9326734" lon="8.0264121"><ele>168.0</ele><time>2026-04-25T17:39:13.078Z</time></trkpt><trkpt lat="44.9328658" lon="8.026282"><ele>168.0</ele><time>2026-04-25T17:39:14.078Z</time></trkpt><trkpt lat="44.9330616" lon="8.0261564"><ele>168.0</ele><time>2026-04-25T17:39:15.078Z</time></trkpt><trkpt lat="44.9332576" lon="8.0260212"><ele>168.0</ele><time>2026-04-25T17:39:16.079Z</time></trkpt><trkpt lat="44.9334491" lon="8.025882"><ele>169.0</ele><time>2026-04-25T17:39:17.078Z</time></trkpt><trkpt lat="44.9336415" lon="8.0257504"><ele>170.0</ele><time>2026-04-25T17:39:18.079Z</time></trkpt><trkpt lat="44.9338426" lon="8.0256089"><ele>171.0</ele><time>2026-04-25T17:39:19.078Z</time></trkpt><trkpt lat="44.9340379" lon="8.0254551"><ele>171.0</ele><time>2026-04-25T17:39:20.078Z</time></trkpt><trkpt lat="44.9342391" lon="8.0253086"><ele>171.0</ele><time>2026-04-25T17:39:21.079Z</time></trkpt><trkpt lat="44.9344439" lon="8.0251616"><ele>171.0</ele><time>2026-04-25T17:39:22.078Z</time></trkpt><trkpt lat="44.9346526" lon="8.0250176"><ele>171.0</ele><time>2026-04-25T17:39:23.079Z</time></trkpt><trkpt lat="44.9348683" lon="8.024877"><ele>170.0</ele><time>2026-04-25T17:39:24.079Z</time></trkpt><trkpt lat="44.9350579" lon="8.0247351"><ele>169.0</ele><time>2026-04-25T17:39:25.079Z</time></trkpt><trkpt lat="44.9352607" lon="8.0245804"><ele>168.0</ele><time>2026-04-25T17:39:26.079Z</time></trkpt><trkpt lat="44.9354792" lon="8.0244496"><ele>168.0</ele><time>2026-04-25T17:39:27.079Z</time></trkpt><trkpt lat="44.9356645" lon="8.0243187"><ele>168.0</ele><time>2026-04-25T17:39:28.079Z</time></trkpt><trkpt lat="44.9358548" lon="8.0242131"><ele>168.0</ele><time>2026-04-25T17:39:29.079Z</time></trkpt><trkpt lat="44.9360535" lon="8.0241319"><ele>168.0</ele><time>2026-04-25T17:39:30.079Z</time></trkpt><trkpt lat="44.9362577" lon="8.0240386"><ele>168.0</ele><time>2026-04-25T17:39:31.078Z</time></trkpt><trkpt lat="44.9364602" lon="8.0239351"><ele>168.0</ele><time>2026-04-25T17:39:32.079Z</time></trkpt><trkpt lat="44.9366503" lon="8.0238327"><ele>167.33333333333334</ele><time>2026-04-25T17:39:33.078Z</time></trkpt><trkpt lat="44.9368473" lon="8.0237295"><ele>166.66666666666669</ele><time>2026-04-25T17:39:34.079Z</time></trkpt><trkpt lat="44.937038" lon="8.0236219"><ele>166.0</ele><time>2026-04-25T17:39:35.079Z</time></trkpt><trkpt lat="44.9372229" lon="8.0235285"><ele>166.0</ele><time>2026-04-25T17:39:36.078Z</time></trkpt><trkpt lat="44.9374129" lon="8.0234325"><ele>166.0</ele><time>2026-04-25T17:39:37.079Z</time></trkpt><trkpt lat="44.9375983" lon="8.0233473"><ele>166.0</ele><time>2026-04-25T17:39:38.078Z</time></trkpt><trkpt lat="44.937782" lon="8.0232611"><ele>166.66666666666669</ele><time>2026-04-25T17:39:39.079Z</time></trkpt><trkpt lat="44.9379481" lon="8.0231762"><ele>167.33333333333334</ele><time>2026-04-25T17:39:40.079Z</time></trkpt><trkpt lat="44.9381171" lon="8.0230877"><ele>168.0</ele><time>2026-04-25T17:39:41.079Z</time></trkpt><trkpt lat="44.9382871" lon="8.022999"><ele>168.75</ele><time>2026-04-25T17:39:42.079Z</time></trkpt><trkpt lat="44.9384113" lon="8.0229396"><ele>169.5</ele><time>2026-04-25T17:39:43.079Z</time></trkpt><trkpt lat="44.9385221" lon="8.0228778"><ele>170.25</ele><time>2026-04-25T17:39:44.079Z</time></trkpt><trkpt lat="44.9386462" lon="8.0228171"><ele>171.0</ele><time>2026-04-25T17:39:45.079Z</time></trkpt><trkpt lat="44.9387153" lon="8.022792"><ele>171.0</ele><time>2026-04-25T17:39:46.079Z</time></trkpt><trkpt lat="44.9387945" lon="8.0227405"><ele>171.0</ele><time>2026-04-25T17:39:47.079Z</time></trkpt><trkpt lat="44.9388588" lon="8.0227097"><ele>171.0</ele><time>2026-04-25T17:39:48.079Z</time></trkpt><trkpt lat="44.9389168" lon="8.0227636"><ele>171.0</ele><time>2026-04-25T17:39:50.079Z</time></trkpt><trkpt lat="44.9389984" lon="8.0228501"><ele>171.0</ele><time>2026-04-25T17:39:52.078Z</time></trkpt><trkpt lat="44.9390547" lon="8.0229262"><ele>171.0</ele><time>2026-04-25T17:39:53.079Z</time></trkpt><trkpt lat="44.9391074" lon="8.0229979"><ele>171.0</ele><time>2026-04-25T17:39:54.078Z</time></trkpt><trkpt lat="44.9391975" lon="8.0231012"><ele>171.0</ele><time>2026-04-25T17:39:55.079Z</time></trkpt><trkpt lat="44.9392764" lon="8.0231994"><ele>171.0</ele><time>2026-04-25T17:39:56.079Z</time></trkpt><trkpt lat="44.9393537" lon="8.023294"><ele>171.0</ele><time>2026-04-25T17:39:57.079Z</time></trkpt><trkpt lat="44.9394397" lon="8.0234084"><ele>171.0</ele><time>2026-04-25T17:39:58.078Z</time></trkpt><trkpt lat="44.9395617" lon="8.0235566"><ele>173.25</ele><time>2026-04-25T17:39:59.079Z</time></trkpt><trkpt lat="44.9396597" lon="8.0236817"><ele>175.5</ele><time>2026-04-25T17:40:00.078Z</time></trkpt><trkpt lat="44.9397739" lon="8.0237974"><ele>177.75</ele><time>2026-04-25T17:40:01.079Z</time></trkpt><trkpt lat="44.9398626" lon="8.0239353"><ele>180.0</ele><time>2026-04-25T17:40:02.079Z</time></trkpt><trkpt lat="44.9399499" lon="8.0240741"><ele>181.25</ele><time>2026-04-25T17:40:03.078Z</time></trkpt><trkpt lat="44.9400437" lon="8.024239"><ele>182.5</ele><time>2026-04-25T17:40:04.079Z</time></trkpt><trkpt lat="44.9401094" lon="8.024382"><ele>183.75</ele><time>2026-04-25T17:40:05.079Z</time></trkpt><trkpt lat="44.9401842" lon="8.0244835"><ele>185.0</ele><time>2026-04-25T17:40:06.079Z</time></trkpt><trkpt lat="44.9402618" lon="8.0245799"><ele>186.0</ele><time>2026-04-25T17:40:07.079Z</time></trkpt><trkpt lat="44.9403607" lon="8.0246491"><ele>187.0</ele><time>2026-04-25T17:40:08.079Z</time></trkpt><trkpt lat="44.9404791" lon="8.0246945"><ele>188.0</ele><time>2026-04-25T17:40:09.079Z</time></trkpt><trkpt lat="44.9406022" lon="8.0247433"><ele>189.0</ele><time>2026-04-25T17:40:10.079Z</time></trkpt><trkpt lat="44.940719" lon="8.0248031"><ele>189.0</ele><time>2026-04-25T17:40:11.078Z</time></trkpt><trkpt lat="44.9408329" lon="8.0248895"><ele>189.0</ele><time>2026-04-25T17:40:12.079Z</time></trkpt><trkpt lat="44.9409478" lon="8.0250215"><ele>189.0</ele><time>2026-04-25T17:40:13.079Z</time></trkpt><trkpt lat="44.9410616" lon="8.0251384"><ele>189.0</ele><time>2026-04-25T17:40:14.079Z</time></trkpt><trkpt lat="44.9411633" lon="8.0252693"><ele>190.25</ele><time>2026-04-25T17:40:15.079Z</time></trkpt><trkpt lat="44.9412438" lon="8.0253968"><ele>191.5</ele><time>2026-04-25T17:40:16.079Z</time></trkpt><trkpt lat="44.941318" lon="8.0255397"><ele>192.75</ele><time>2026-04-25T17:40:17.079Z</time></trkpt><trkpt lat="44.9413777" lon="8.0256892"><ele>194.0</ele><time>2026-04-25T17:40:18.079Z</time></trkpt><trkpt lat="44.9414328" lon="8.025877"><ele>196.0</ele><time>2026-04-25T17:40:19.079Z</time></trkpt><trkpt lat="44.9414825" lon="8.0260457"><ele>198.0</ele><time>2026-04-25T17:40:20.079Z</time></trkpt><trkpt lat="44.9415278" lon="8.0262484"><ele>200.0</ele><time>2026-04-25T17:40:21.078Z</time></trkpt><trkpt lat="44.941568" lon="8.0264358"><ele>202.0</ele><time>2026-04-25T17:40:22.078Z</time></trkpt><trkpt lat="44.9416045" lon="8.0266043"><ele>202.8</ele><time>2026-04-25T17:40:23.079Z</time></trkpt><trkpt lat="44.9416429" lon="8.0267786"><ele>203.6</ele><time>2026-04-25T17:40:24.079Z</time></trkpt><trkpt lat="44.9416996" lon="8.0268745"><ele>204.4</ele><time>2026-04-25T17:40:25.078Z</time></trkpt><trkpt lat="44.9417543" lon="8.0269929"><ele>205.20000000000002</ele><time>2026-04-25T17:40:26.078Z</time></trkpt><trkpt lat="44.9418197" lon="8.0270845"><ele>206.0</ele><time>2026-04-25T17:40:27.079Z</time></trkpt><trkpt lat="44.9419193" lon="8.0271331"><ele>208.33333333333334</ele><time>2026-04-25T17:40:28.078Z</time></trkpt><trkpt lat="44.9421097" lon="8.0271498"><ele>210.66666666666669</ele><time>2026-04-25T17:40:29.078Z</time></trkpt><trkpt lat="44.9422364" lon="8.0272107"><ele>213.0</ele><time>2026-04-25T17:40:30.078Z</time></trkpt><trkpt lat="44.942363" lon="8.0272724"><ele>213.0</ele><time>2026-04-25T17:40:31.079Z</time></trkpt><trkpt lat="44.9424655" lon="8.0273601"><ele>213.0</ele><time>2026-04-25T17:40:32.078Z</time></trkpt><trkpt lat="44.9425523" lon="8.0274574"><ele>213.0</ele><time>2026-04-25T17:40:33.079Z</time></trkpt><trkpt lat="44.9426397" lon="8.0275434"><ele>213.0</ele><time>2026-04-25T17:40:34.078Z</time></trkpt><trkpt lat="44.9427677" lon="8.0275847"><ele>215.0</ele><time>2026-04-25T17:40:35.078Z</time></trkpt><trkpt lat="44.9429014" lon="8.0276364"><ele>217.0</ele><time>2026-04-25T17:40:36.079Z</time></trkpt><trkpt lat="44.9430125" lon="8.0277017"><ele>219.0</ele><time>2026-04-25T17:40:37.079Z</time></trkpt><trkpt lat="44.9431347" lon="8.0277678"><ele>221.0</ele><time>2026-04-25T17:40:38.079Z</time></trkpt><trkpt lat="44.9432842" lon="8.0277945"><ele>223.33333333333334</ele><time>2026-04-25T17:40:39.079Z</time></trkpt><trkpt lat="44.9434315" lon="8.0278288"><ele>225.66666666666669</ele><time>2026-04-25T17:40:40.078Z</time></trkpt><trkpt lat="44.9435688" lon="8.0278573"><ele>228.0</ele><time>2026-04-25T17:40:41.078Z</time></trkpt><trkpt lat="44.9437317" lon="8.0278845"><ele>228.0</ele><time>2026-04-25T17:40:42.079Z</time></trkpt><trkpt lat="44.9438818" lon="8.0279095"><ele>228.0</ele><time>2026-04-25T17:40:43.079Z</time></trkpt><trkpt lat="44.944032" lon="8.0279178"><ele>228.0</ele><time>2026-04-25T17:40:44.079Z</time></trkpt><trkpt lat="44.9442087" lon="8.0279052"><ele>229.0</ele><time>2026-04-25T17:40:45.079Z</time></trkpt><trkpt lat="44.9443506" lon="8.0279304"><ele>230.0</ele><time>2026-04-25T17:40:46.078Z</time></trkpt><trkpt lat="44.9444978" lon="8.0279489"><ele>231.0</ele><time>2026-04-25T17:40:47.079Z</time></trkpt><trkpt lat="44.9446338" lon="8.0279722"><ele>232.0</ele><time>2026-04-25T17:40:48.079Z</time></trkpt><trkpt lat="44.9447714" lon="8.0279789"><ele>232.0</ele><time>2026-04-25T17:40:49.079Z</time></trkpt><trkpt lat="44.944917" lon="8.0279884"><ele>232.0</ele><time>2026-04-25T17:40:50.078Z</time></trkpt><trkpt lat="44.9450406" lon="8.0280289"><ele>232.0</ele><time>2026-04-25T17:40:51.079Z</time></trkpt><trkpt lat="44.9451504" lon="8.0280588"><ele>232.0</ele><time>2026-04-25T17:40:52.079Z</time></trkpt><trkpt lat="44.9452511" lon="8.0280944"><ele>232.8</ele><time>2026-04-25T17:40:53.079Z</time></trkpt><trkpt lat="44.9453326" lon="8.0281252"><ele>233.6</ele><time>2026-04-25T17:40:54.079Z</time></trkpt><trkpt lat="44.9454312" lon="8.0281358"><ele>234.40000000000003</ele><time>2026-04-25T17:40:55.078Z</time></trkpt><trkpt lat="44.945521" lon="8.0281722"><ele>235.20000000000002</ele><time>2026-04-25T17:40:56.078Z</time></trkpt><trkpt lat="44.9456204" lon="8.0281691"><ele>236.0</ele><time>2026-04-25T17:40:57.079Z</time></trkpt><trkpt lat="44.9457246" lon="8.0281441"><ele>236.0</ele><time>2026-04-25T17:40:58.079Z</time></trkpt><trkpt lat="44.9458429" lon="8.028123"><ele>236.00000000000003</ele><time>2026-04-25T17:40:59.078Z</time></trkpt><trkpt lat="44.9459406" lon="8.028119"><ele>236.00000000000003</ele><time>2026-04-25T17:41:00.079Z</time></trkpt><trkpt lat="44.9460278" lon="8.0281283"><ele>236.0</ele><time>2026-04-25T17:41:01.079Z</time></trkpt><trkpt lat="44.9461103" lon="8.0281497"><ele>236.0</ele><time>2026-04-25T17:41:02.078Z</time></trkpt><trkpt lat="44.9461988" lon="8.0281971"><ele>235.4</ele><time>2026-04-25T17:41:03.078Z</time></trkpt><trkpt lat="44.9462808" lon="8.0282468"><ele>234.8</ele><time>2026-04-25T17:41:04.079Z</time></trkpt><trkpt lat="44.9463758" lon="8.0283123"><ele>234.20000000000002</ele><time>2026-04-25T17:41:05.079Z</time></trkpt><trkpt lat="44.9464403" lon="8.0284161"><ele>233.60000000000002</ele><time>2026-04-25T17:41:07.079Z</time></trkpt><trkpt lat="44.9465569" lon="8.0284023"><ele>233.0</ele><time>2026-04-25T17:41:09.079Z</time></trkpt><trkpt lat="44.9466293" lon="8.0283515"><ele>233.0</ele><time>2026-04-25T17:41:10.079Z</time></trkpt><trkpt lat="44.9466945" lon="8.0283024"><ele>233.0</ele><time>2026-04-25T17:41:11.079Z</time></trkpt><trkpt lat="44.9467634" lon="8.0282449"><ele>233.0</ele><time>2026-04-25T17:41:12.079Z</time></trkpt><trkpt lat="44.9468918" lon="8.0281665"><ele>233.0</ele><time>2026-04-25T17:41:13.079Z</time></trkpt><trkpt lat="44.9469982" lon="8.0281164"><ele>233.0</ele><time>2026-04-25T17:41:14.078Z</time></trkpt><trkpt lat="44.9471787" lon="8.0279862"><ele>234.0</ele><time>2026-04-25T17:41:15.079Z</time></trkpt><trkpt lat="44.9473072" lon="8.0279091"><ele>235.0</ele><time>2026-04-25T17:41:16.079Z</time></trkpt><trkpt lat="44.9474125" lon="8.0278184"><ele>236.0</ele><time>2026-04-25T17:41:17.079Z</time></trkpt><trkpt lat="44.94753" lon="8.0277404"><ele>237.0</ele><time>2026-04-25T17:41:18.078Z</time></trkpt><trkpt lat="44.9476572" lon="8.0276577"><ele>239.0</ele><time>2026-04-25T17:41:19.078Z</time></trkpt><trkpt lat="44.9477871" lon="8.0275686"><ele>241.0</ele><time>2026-04-25T17:41:20.078Z</time></trkpt><trkpt lat="44.9479324" lon="8.0274681"><ele>243.0</ele><time>2026-04-25T17:41:21.079Z</time></trkpt><trkpt lat="44.9480424" lon="8.0273876"><ele>245.0</ele><time>2026-04-25T17:41:22.079Z</time></trkpt><trkpt lat="44.9481388" lon="8.0273113"><ele>245.0</ele><time>2026-04-25T17:41:23.079Z</time></trkpt><trkpt lat="44.9482492" lon="8.027267"><ele>245.0</ele><time>2026-04-25T17:41:24.079Z</time></trkpt><trkpt lat="44.9483481" lon="8.0272322"><ele>245.0</ele><time>2026-04-25T17:41:25.079Z</time></trkpt><trkpt lat="44.9484487" lon="8.0271799"><ele>245.0</ele><time>2026-04-25T17:41:26.079Z</time></trkpt><trkpt lat="44.9485409" lon="8.027184"><ele>245.0</ele><time>2026-04-25T17:41:27.079Z</time></trkpt><trkpt lat="44.9486342" lon="8.0271841"><ele>246.25</ele><time>2026-04-25T17:41:28.078Z</time></trkpt><trkpt lat="44.9487348" lon="8.0272078"><ele>247.5</ele><time>2026-04-25T17:41:29.078Z</time></trkpt><trkpt lat="44.9488458" lon="8.0272813"><ele>248.75</ele><time>2026-04-25T17:41:30.079Z</time></trkpt><trkpt lat="44.948945" lon="8.0273419"><ele>250.0</ele><time>2026-04-25T17:41:31.079Z</time></trkpt><trkpt lat="44.9490586" lon="8.0274069"><ele>250.0</ele><time>2026-04-25T17:41:32.079Z</time></trkpt><trkpt lat="44.9491728" lon="8.0274583"><ele>250.0</ele><time>2026-04-25T17:41:33.079Z</time></trkpt><trkpt lat="44.9492828" lon="8.0274713"><ele>250.0</ele><time>2026-04-25T17:41:34.078Z</time></trkpt><trkpt lat="44.9493949" lon="8.0274648"><ele>250.0</ele><time>2026-04-25T17:41:35.079Z</time></trkpt><trkpt lat="44.9495054" lon="8.0274492"><ele>247.5</ele><time>2026-04-25T17:41:36.079Z</time></trkpt><trkpt lat="44.9496264" lon="8.0274293"><ele>245.0</ele><time>2026-04-25T17:41:37.079Z</time></trkpt><trkpt lat="44.9497579" lon="8.0274152"><ele>242.5</ele><time>2026-04-25T17:41:38.079Z</time></trkpt><trkpt lat="44.949871" lon="8.0274115"><ele>240.0</ele><time>2026-04-25T17:41:39.079Z</time></trkpt><trkpt lat="44.949992" lon="8.0273901"><ele>240.66666666666666</ele><time>2026-04-25T17:41:40.078Z</time></trkpt><trkpt lat="44.9500804" lon="8.0273721"><ele>241.33333333333331</ele><time>2026-04-25T17:41:42.079Z</time></trkpt><trkpt lat="44.9501481" lon="8.0273806"><ele>242.0</ele><time>2026-04-25T17:41:43.079Z</time></trkpt><trkpt lat="44.9502141" lon="8.0273221"><ele>242.66666666666666</ele><time>2026-04-25T17:41:46.079Z</time></trkpt><trkpt lat="44.950239" lon="8.0272172"><ele>243.33333333333331</ele><time>2026-04-25T17:41:48.079Z</time></trkpt><trkpt lat="44.9502362" lon="8.0271239"><ele>244.0</ele><time>2026-04-25T17:41:50.079Z</time></trkpt><trkpt lat="44.9502208" lon="8.0269859"><ele>244.0</ele><time>2026-04-25T17:41:53.079Z</time></trkpt><trkpt lat="44.9502095" lon="8.0268662"><ele>244.0</ele><time>2026-04-25T17:41:55.079Z</time></trkpt><trkpt lat="44.9501733" lon="8.0267703"><ele>244.0</ele><time>2026-04-25T17:41:59.079Z</time></trkpt><trkpt lat="44.9501112" lon="8.026743"><ele>244.0</ele><time>2026-04-25T17:42:25.078Z</time></trkpt><trkpt lat="44.9500397" lon="8.0267419"><ele>240.0</ele><time>2026-04-25T17:42:29.079Z</time></trkpt><trkpt lat="44.9500286" lon="8.0268359"><ele>240.0</ele><time>2026-04-25T17:42:36.079Z</time></trkpt></trkseg></trk></gpx>